﻿<?xml version="1.0" encoding="UTF-8" standalone="no" ?>
<gpx xmlns="http://www.topografix.com/GPX/1/1" creator="CompeGPS" version="1.1" xmlns:xsi="http://www.w3.org/2001/XMLSchema-instance" xsi:schemaLocation="http://www.topografix.com/GPX/1/1 http://www.topografix.com/GPX/1/1/gpx.xsd">
  <metadata>
    <link href="http://www.compegps.com">
      <text>CompeGPS TEAM, SL</text>
    </link>
    <time>2016-11-02T23:15:31Z</time>
    <bounds maxlat="38.361884" maxlon="-0.977015" minlat="37.597268" minlon="-1.520867"/>
  </metadata>
  <trk>
    <name>CartagenaCieza_track</name>
    <trkseg>
      <trkpt lat="37.599660" lon="-0.977042">
        <ele>8.3</ele>
        <time>2015-12-07T07:26:03Z</time>
      </trkpt>
      <trkpt lat="37.599401" lon="-0.977015">
        <ele>8.3</ele>
        <time>2015-12-07T07:26:04Z</time>
      </trkpt>
      <trkpt lat="37.599193" lon="-0.977224">
        <ele>9.3</ele>
        <time>2015-12-07T07:26:06Z</time>
      </trkpt>
      <trkpt lat="37.599121" lon="-0.977272">
        <ele>10.7</ele>
        <time>2015-12-07T07:26:13Z</time>
      </trkpt>
      <trkpt lat="37.599079" lon="-0.977312">
        <ele>9.3</ele>
        <time>2015-12-07T07:26:15Z</time>
      </trkpt>
      <trkpt lat="37.599020" lon="-0.977359">
        <ele>8.3</ele>
        <time>2015-12-07T07:26:28Z</time>
      </trkpt>
      <trkpt lat="37.598953" lon="-0.977407">
        <ele>8.3</ele>
        <time>2015-12-07T07:26:40Z</time>
      </trkpt>
      <trkpt lat="37.598937" lon="-0.977430">
        <ele>10.7</ele>
        <time>2015-12-07T07:26:42Z</time>
      </trkpt>
      <trkpt lat="37.598819" lon="-0.977556">
        <ele>9.3</ele>
        <time>2015-12-07T07:26:54Z</time>
      </trkpt>
      <trkpt lat="37.598613" lon="-0.977784">
        <ele>9.8</ele>
        <time>2015-12-07T07:27:15Z</time>
      </trkpt>
      <trkpt lat="37.598456" lon="-0.977959">
        <ele>9.3</ele>
        <time>2015-12-07T07:27:34Z</time>
      </trkpt>
      <trkpt lat="37.598330" lon="-0.978148">
        <ele>9.8</ele>
        <time>2015-12-07T07:27:51Z</time>
      </trkpt>
      <trkpt lat="37.598262" lon="-0.978287">
        <ele>10.2</ele>
        <time>2015-12-07T07:28:02Z</time>
      </trkpt>
      <trkpt lat="37.598211" lon="-0.978515">
        <ele>10.2</ele>
        <time>2015-12-07T07:28:18Z</time>
      </trkpt>
      <trkpt lat="37.598204" lon="-0.978775">
        <ele>10.2</ele>
        <time>2015-12-07T07:28:36Z</time>
      </trkpt>
      <trkpt lat="37.598199" lon="-0.979014">
        <ele>9.8</ele>
        <time>2015-12-07T07:28:53Z</time>
      </trkpt>
      <trkpt lat="37.598205" lon="-0.979119">
        <ele>10.7</ele>
        <time>2015-12-07T07:29:01Z</time>
      </trkpt>
      <trkpt lat="37.598201" lon="-0.979168">
        <ele>10.2</ele>
        <time>2015-12-07T07:29:05Z</time>
      </trkpt>
      <trkpt lat="37.598209" lon="-0.979209">
        <ele>10.2</ele>
        <time>2015-12-07T07:29:08Z</time>
      </trkpt>
      <trkpt lat="37.598187" lon="-0.979318">
        <ele>9.8</ele>
        <time>2015-12-07T07:29:16Z</time>
      </trkpt>
      <trkpt lat="37.598165" lon="-0.979488">
        <ele>9.8</ele>
        <time>2015-12-07T07:29:28Z</time>
      </trkpt>
      <trkpt lat="37.598194" lon="-0.979630">
        <ele>10.2</ele>
        <time>2015-12-07T07:29:38Z</time>
      </trkpt>
      <trkpt lat="37.598213" lon="-0.979857">
        <ele>10.2</ele>
        <time>2015-12-07T07:29:53Z</time>
      </trkpt>
      <trkpt lat="37.598209" lon="-0.980119">
        <ele>10.2</ele>
        <time>2015-12-07T07:30:11Z</time>
      </trkpt>
      <trkpt lat="37.598202" lon="-0.980409">
        <ele>9.8</ele>
        <time>2015-12-07T07:30:30Z</time>
      </trkpt>
      <trkpt lat="37.598183" lon="-0.980720">
        <ele>10.2</ele>
        <time>2015-12-07T07:30:50Z</time>
      </trkpt>
      <trkpt lat="37.598182" lon="-0.981007">
        <ele>9.8</ele>
        <time>2015-12-07T07:31:08Z</time>
      </trkpt>
      <trkpt lat="37.598168" lon="-0.981231">
        <ele>9.8</ele>
        <time>2015-12-07T07:31:23Z</time>
      </trkpt>
      <trkpt lat="37.598154" lon="-0.981518">
        <ele>9.8</ele>
        <time>2015-12-07T07:31:42Z</time>
      </trkpt>
      <trkpt lat="37.598147" lon="-0.981761">
        <ele>9.8</ele>
        <time>2015-12-07T07:31:58Z</time>
      </trkpt>
      <trkpt lat="37.598131" lon="-0.981872">
        <ele>9.8</ele>
        <time>2015-12-07T07:32:07Z</time>
      </trkpt>
      <trkpt lat="37.598118" lon="-0.981892">
        <ele>9.8</ele>
        <time>2015-12-07T07:32:10Z</time>
      </trkpt>
      <trkpt lat="37.598058" lon="-0.981938">
        <ele>9.8</ele>
        <time>2015-12-07T07:32:16Z</time>
      </trkpt>
      <trkpt lat="37.597866" lon="-0.981977">
        <ele>10.2</ele>
        <time>2015-12-07T07:32:31Z</time>
      </trkpt>
      <trkpt lat="37.597711" lon="-0.982018">
        <ele>9.8</ele>
        <time>2015-12-07T07:32:46Z</time>
      </trkpt>
      <trkpt lat="37.597683" lon="-0.982032">
        <ele>9.8</ele>
        <time>2015-12-07T07:32:49Z</time>
      </trkpt>
      <trkpt lat="37.597482" lon="-0.982015">
        <ele>9.3</ele>
        <time>2015-12-07T07:33:07Z</time>
      </trkpt>
      <trkpt lat="37.597352" lon="-0.982014">
        <ele>9.8</ele>
        <time>2015-12-07T07:41:21Z</time>
      </trkpt>
      <trkpt lat="37.597317" lon="-0.982100">
        <ele>9.3</ele>
        <time>2015-12-07T07:41:32Z</time>
      </trkpt>
      <trkpt lat="37.597316" lon="-0.982121">
        <ele>8.8</ele>
        <time>2015-12-07T07:41:58Z</time>
      </trkpt>
      <trkpt lat="37.597325" lon="-0.982282">
        <ele>9.8</ele>
        <time>2015-12-07T07:42:09Z</time>
      </trkpt>
      <trkpt lat="37.597326" lon="-0.982541">
        <ele>9.3</ele>
        <time>2015-12-07T07:42:23Z</time>
      </trkpt>
      <trkpt lat="37.597289" lon="-0.982805">
        <ele>9.8</ele>
        <time>2015-12-07T07:42:39Z</time>
      </trkpt>
      <trkpt lat="37.597281" lon="-0.982831">
        <ele>9.3</ele>
        <time>2015-12-07T07:42:52Z</time>
      </trkpt>
      <trkpt lat="37.597315" lon="-0.983183">
        <ele>9.8</ele>
        <time>2015-12-07T07:46:57Z</time>
      </trkpt>
      <trkpt lat="37.597285" lon="-0.983363">
        <ele>9.8</ele>
        <time>2015-12-07T07:47:13Z</time>
      </trkpt>
      <trkpt lat="37.597268" lon="-0.983956">
        <ele>9.3</ele>
        <time>2015-12-07T07:48:17Z</time>
      </trkpt>
      <trkpt lat="37.597288" lon="-0.984133">
        <ele>9.3</ele>
        <time>2015-12-07T07:48:29Z</time>
      </trkpt>
      <trkpt lat="37.597291" lon="-0.984198">
        <ele>9.8</ele>
        <time>2015-12-07T07:48:33Z</time>
      </trkpt>
      <trkpt lat="37.597293" lon="-0.984259">
        <ele>9.3</ele>
        <time>2015-12-07T07:48:39Z</time>
      </trkpt>
      <trkpt lat="37.597288" lon="-0.984437">
        <ele>9.8</ele>
        <time>2015-12-07T07:48:53Z</time>
      </trkpt>
      <trkpt lat="37.597286" lon="-0.984529">
        <ele>9.3</ele>
        <time>2015-12-07T07:49:00Z</time>
      </trkpt>
      <trkpt lat="37.597282" lon="-0.984742">
        <ele>9.3</ele>
        <time>2015-12-07T07:49:15Z</time>
      </trkpt>
      <trkpt lat="37.597283" lon="-0.984755">
        <ele>9.3</ele>
        <time>2015-12-07T07:49:16Z</time>
      </trkpt>
      <trkpt lat="37.597293" lon="-0.984950">
        <ele>9.3</ele>
        <time>2015-12-07T07:49:29Z</time>
      </trkpt>
      <trkpt lat="37.597312" lon="-0.985170">
        <ele>9.3</ele>
        <time>2015-12-07T07:49:44Z</time>
      </trkpt>
      <trkpt lat="37.597301" lon="-0.985342">
        <ele>8.8</ele>
        <time>2015-12-07T07:49:56Z</time>
      </trkpt>
      <trkpt lat="37.597363" lon="-0.985398">
        <ele>9.8</ele>
        <time>2015-12-07T07:50:09Z</time>
      </trkpt>
      <trkpt lat="37.597431" lon="-0.985416">
        <ele>10.2</ele>
        <time>2015-12-07T07:50:19Z</time>
      </trkpt>
      <trkpt lat="37.597505" lon="-0.985413">
        <ele>10.2</ele>
        <time>2015-12-07T07:50:34Z</time>
      </trkpt>
      <trkpt lat="37.597574" lon="-0.985425">
        <ele>9.8</ele>
        <time>2015-12-07T07:50:46Z</time>
      </trkpt>
      <trkpt lat="37.597569" lon="-0.985425">
        <ele>10.2</ele>
        <time>2015-12-07T07:50:51Z</time>
      </trkpt>
      <trkpt lat="37.597677" lon="-0.985391">
        <ele>10.2</ele>
        <time>2015-12-07T07:50:58Z</time>
      </trkpt>
      <trkpt lat="37.597880" lon="-0.985367">
        <ele>9.8</ele>
        <time>2015-12-07T07:51:13Z</time>
      </trkpt>
      <trkpt lat="37.598014" lon="-0.985371">
        <ele>9.3</ele>
        <time>2015-12-07T07:51:26Z</time>
      </trkpt>
      <trkpt lat="37.598289" lon="-0.985416">
        <ele>9.3</ele>
        <time>2015-12-07T07:51:46Z</time>
      </trkpt>
      <trkpt lat="37.598370" lon="-0.985416">
        <ele>9.3</ele>
        <time>2015-12-07T07:51:57Z</time>
      </trkpt>
      <trkpt lat="37.598443" lon="-0.985421">
        <ele>9.3</ele>
        <time>2015-12-07T07:52:02Z</time>
      </trkpt>
      <trkpt lat="37.598519" lon="-0.985436">
        <ele>7.8</ele>
        <time>2015-12-07T07:52:08Z</time>
      </trkpt>
      <trkpt lat="37.598743" lon="-0.985452">
        <ele>8.3</ele>
        <time>2015-12-07T07:52:24Z</time>
      </trkpt>
      <trkpt lat="37.599010" lon="-0.985620">
        <ele>8.8</ele>
        <time>2015-12-07T07:52:43Z</time>
      </trkpt>
      <trkpt lat="37.599340" lon="-0.985761">
        <ele>9.3</ele>
        <time>2015-12-07T07:53:12Z</time>
      </trkpt>
      <trkpt lat="37.599439" lon="-0.985804">
        <ele>8.8</ele>
        <time>2015-12-07T07:53:19Z</time>
      </trkpt>
      <trkpt lat="37.599520" lon="-0.985855">
        <ele>9.3</ele>
        <time>2015-12-07T07:53:28Z</time>
      </trkpt>
      <trkpt lat="37.599739" lon="-0.986044">
        <ele>9.8</ele>
        <time>2015-12-07T07:53:44Z</time>
      </trkpt>
      <trkpt lat="37.599914" lon="-0.986165">
        <ele>10.7</ele>
        <time>2015-12-07T07:53:59Z</time>
      </trkpt>
      <trkpt lat="37.600062" lon="-0.986276">
        <ele>10.7</ele>
        <time>2015-12-07T07:54:14Z</time>
      </trkpt>
      <trkpt lat="37.600262" lon="-0.986391">
        <ele>11.2</ele>
        <time>2015-12-07T07:54:30Z</time>
      </trkpt>
      <trkpt lat="37.600422" lon="-0.986464">
        <ele>11.7</ele>
        <time>2015-12-07T07:54:44Z</time>
      </trkpt>
      <trkpt lat="37.600464" lon="-0.986476">
        <ele>11.7</ele>
        <time>2015-12-07T07:54:47Z</time>
      </trkpt>
      <trkpt lat="37.600697" lon="-0.986606">
        <ele>12.1</ele>
        <time>2015-12-07T07:55:05Z</time>
      </trkpt>
      <trkpt lat="37.600871" lon="-0.986670">
        <ele>12.6</ele>
        <time>2015-12-07T07:55:20Z</time>
      </trkpt>
      <trkpt lat="37.600930" lon="-0.986680">
        <ele>12.1</ele>
        <time>2015-12-07T07:55:26Z</time>
      </trkpt>
      <trkpt lat="37.601131" lon="-0.986790">
        <ele>13.1</ele>
        <time>2015-12-07T07:55:42Z</time>
      </trkpt>
      <trkpt lat="37.601238" lon="-0.986840">
        <ele>13.1</ele>
        <time>2015-12-07T07:55:54Z</time>
      </trkpt>
      <trkpt lat="37.601531" lon="-0.986819">
        <ele>13.6</ele>
        <time>2015-12-07T07:56:10Z</time>
      </trkpt>
      <trkpt lat="37.601700" lon="-0.986904">
        <ele>13.6</ele>
        <time>2015-12-07T07:56:22Z</time>
      </trkpt>
      <trkpt lat="37.601822" lon="-0.987030">
        <ele>13.6</ele>
        <time>2015-12-07T07:56:36Z</time>
      </trkpt>
      <trkpt lat="37.601852" lon="-0.987081">
        <ele>14.1</ele>
        <time>2015-12-07T07:56:41Z</time>
      </trkpt>
      <trkpt lat="37.601969" lon="-0.987306">
        <ele>15.0</ele>
        <time>2015-12-07T07:56:57Z</time>
      </trkpt>
      <trkpt lat="37.602113" lon="-0.987481">
        <ele>14.6</ele>
        <time>2015-12-07T07:57:13Z</time>
      </trkpt>
      <trkpt lat="37.602203" lon="-0.987533">
        <ele>15.5</ele>
        <time>2015-12-07T07:57:21Z</time>
      </trkpt>
      <trkpt lat="37.602233" lon="-0.987573">
        <ele>15.5</ele>
        <time>2015-12-07T07:57:23Z</time>
      </trkpt>
      <trkpt lat="37.602265" lon="-0.987624">
        <ele>15.0</ele>
        <time>2015-12-07T07:57:26Z</time>
      </trkpt>
      <trkpt lat="37.602303" lon="-0.987684">
        <ele>15.5</ele>
        <time>2015-12-07T07:57:30Z</time>
      </trkpt>
      <trkpt lat="37.602475" lon="-0.987821">
        <ele>14.6</ele>
        <time>2015-12-07T07:57:45Z</time>
      </trkpt>
      <trkpt lat="37.602597" lon="-0.987906">
        <ele>15.0</ele>
        <time>2015-12-07T07:58:00Z</time>
      </trkpt>
      <trkpt lat="37.602637" lon="-0.987928">
        <ele>15.5</ele>
        <time>2015-12-07T07:58:03Z</time>
      </trkpt>
      <trkpt lat="37.602745" lon="-0.987982">
        <ele>15.0</ele>
        <time>2015-12-07T07:58:19Z</time>
      </trkpt>
      <trkpt lat="37.602861" lon="-0.988080">
        <ele>14.6</ele>
        <time>2015-12-07T07:58:26Z</time>
      </trkpt>
      <trkpt lat="37.602926" lon="-0.988109">
        <ele>15.5</ele>
        <time>2015-12-07T07:58:30Z</time>
      </trkpt>
      <trkpt lat="37.602984" lon="-0.988175">
        <ele>15.0</ele>
        <time>2015-12-07T07:58:35Z</time>
      </trkpt>
      <trkpt lat="37.603054" lon="-0.988216">
        <ele>15.5</ele>
        <time>2015-12-07T07:58:48Z</time>
      </trkpt>
      <trkpt lat="37.603135" lon="-0.988267">
        <ele>16.0</ele>
        <time>2015-12-07T07:58:52Z</time>
      </trkpt>
      <trkpt lat="37.603243" lon="-0.988350">
        <ele>16.5</ele>
        <time>2015-12-07T07:59:00Z</time>
      </trkpt>
      <trkpt lat="37.603454" lon="-0.988594">
        <ele>17.0</ele>
        <time>2015-12-07T07:59:14Z</time>
      </trkpt>
      <trkpt lat="37.603557" lon="-0.988737">
        <ele>17.4</ele>
        <time>2015-12-07T07:59:28Z</time>
      </trkpt>
      <trkpt lat="37.603627" lon="-0.988806">
        <ele>17.9</ele>
        <time>2015-12-07T07:59:35Z</time>
      </trkpt>
      <trkpt lat="37.603768" lon="-0.988959">
        <ele>18.4</ele>
        <time>2015-12-07T07:59:50Z</time>
      </trkpt>
      <trkpt lat="37.603818" lon="-0.989019">
        <ele>18.4</ele>
        <time>2015-12-07T07:59:57Z</time>
      </trkpt>
      <trkpt lat="37.603861" lon="-0.989063">
        <ele>18.4</ele>
        <time>2015-12-07T08:00:00Z</time>
      </trkpt>
      <trkpt lat="37.603888" lon="-0.989114">
        <ele>17.9</ele>
        <time>2015-12-07T08:00:03Z</time>
      </trkpt>
      <trkpt lat="37.604029" lon="-0.989317">
        <ele>18.9</ele>
        <time>2015-12-07T08:00:17Z</time>
      </trkpt>
      <trkpt lat="37.604152" lon="-0.989480">
        <ele>19.4</ele>
        <time>2015-12-07T08:00:29Z</time>
      </trkpt>
      <trkpt lat="37.604167" lon="-0.989500">
        <ele>19.4</ele>
        <time>2015-12-07T08:00:31Z</time>
      </trkpt>
      <trkpt lat="37.604323" lon="-0.989714">
        <ele>19.4</ele>
        <time>2015-12-07T08:00:48Z</time>
      </trkpt>
      <trkpt lat="37.604460" lon="-0.989896">
        <ele>19.8</ele>
        <time>2015-12-07T08:01:02Z</time>
      </trkpt>
      <trkpt lat="37.604492" lon="-0.989941">
        <ele>20.3</ele>
        <time>2015-12-07T08:01:08Z</time>
      </trkpt>
      <trkpt lat="37.604593" lon="-0.990082">
        <ele>20.3</ele>
        <time>2015-12-07T08:01:23Z</time>
      </trkpt>
      <trkpt lat="37.604687" lon="-0.990201">
        <ele>20.8</ele>
        <time>2015-12-07T08:01:35Z</time>
      </trkpt>
      <trkpt lat="37.604817" lon="-0.990376">
        <ele>21.3</ele>
        <time>2015-12-07T08:01:51Z</time>
      </trkpt>
      <trkpt lat="37.604977" lon="-0.990585">
        <ele>21.3</ele>
        <time>2015-12-07T08:02:08Z</time>
      </trkpt>
      <trkpt lat="37.605031" lon="-0.990648">
        <ele>21.3</ele>
        <time>2015-12-07T08:02:14Z</time>
      </trkpt>
      <trkpt lat="37.605049" lon="-0.990665">
        <ele>21.8</ele>
        <time>2015-12-07T08:02:19Z</time>
      </trkpt>
      <trkpt lat="37.605067" lon="-0.990673">
        <ele>22.2</ele>
        <time>2015-12-07T08:02:24Z</time>
      </trkpt>
      <trkpt lat="37.605092" lon="-0.990683">
        <ele>21.8</ele>
        <time>2015-12-07T08:02:32Z</time>
      </trkpt>
      <trkpt lat="37.605152" lon="-0.990718">
        <ele>22.2</ele>
        <time>2015-12-07T08:02:45Z</time>
      </trkpt>
      <trkpt lat="37.605235" lon="-0.990772">
        <ele>22.7</ele>
        <time>2015-12-07T08:02:54Z</time>
      </trkpt>
      <trkpt lat="37.605340" lon="-0.990829">
        <ele>22.7</ele>
        <time>2015-12-07T08:03:06Z</time>
      </trkpt>
      <trkpt lat="37.605400" lon="-0.990861">
        <ele>23.2</ele>
        <time>2015-12-07T08:03:09Z</time>
      </trkpt>
      <trkpt lat="37.605443" lon="-0.990883">
        <ele>23.2</ele>
        <time>2015-12-07T08:03:12Z</time>
      </trkpt>
      <trkpt lat="37.605496" lon="-0.990883">
        <ele>23.2</ele>
        <time>2015-12-07T08:03:16Z</time>
      </trkpt>
      <trkpt lat="37.605529" lon="-0.990896">
        <ele>23.2</ele>
        <time>2015-12-07T08:03:19Z</time>
      </trkpt>
      <trkpt lat="37.605551" lon="-0.990905">
        <ele>23.2</ele>
        <time>2015-12-07T08:03:21Z</time>
      </trkpt>
      <trkpt lat="37.605634" lon="-0.990946">
        <ele>24.2</ele>
        <time>2015-12-07T08:03:26Z</time>
      </trkpt>
      <trkpt lat="37.605689" lon="-0.990887">
        <ele>24.2</ele>
        <time>2015-12-07T08:03:36Z</time>
      </trkpt>
      <trkpt lat="37.605881" lon="-0.990734">
        <ele>24.6</ele>
        <time>2015-12-07T08:03:50Z</time>
      </trkpt>
      <trkpt lat="37.606036" lon="-0.990620">
        <ele>24.6</ele>
        <time>2015-12-07T08:04:02Z</time>
      </trkpt>
      <trkpt lat="37.606129" lon="-0.990574">
        <ele>25.1</ele>
        <time>2015-12-07T08:04:09Z</time>
      </trkpt>
      <trkpt lat="37.606172" lon="-0.990563">
        <ele>25.6</ele>
        <time>2015-12-07T08:04:13Z</time>
      </trkpt>
      <trkpt lat="37.606209" lon="-0.990564">
        <ele>25.6</ele>
        <time>2015-12-07T08:04:23Z</time>
      </trkpt>
      <trkpt lat="37.606240" lon="-0.990566">
        <ele>26.1</ele>
        <time>2015-12-07T08:04:37Z</time>
      </trkpt>
      <trkpt lat="37.606345" lon="-0.990578">
        <ele>26.6</ele>
        <time>2015-12-07T08:04:45Z</time>
      </trkpt>
      <trkpt lat="37.606377" lon="-0.990703">
        <ele>26.6</ele>
        <time>2015-12-07T08:04:54Z</time>
      </trkpt>
      <trkpt lat="37.606470" lon="-0.990762">
        <ele>26.6</ele>
        <time>2015-12-07T08:05:01Z</time>
      </trkpt>
      <trkpt lat="37.606676" lon="-0.990937">
        <ele>26.6</ele>
        <time>2015-12-07T08:05:20Z</time>
      </trkpt>
      <trkpt lat="37.606796" lon="-0.991174">
        <ele>26.6</ele>
        <time>2015-12-07T08:05:37Z</time>
      </trkpt>
      <trkpt lat="37.606897" lon="-0.991399">
        <ele>26.6</ele>
        <time>2015-12-07T08:05:54Z</time>
      </trkpt>
      <trkpt lat="37.607018" lon="-0.991459">
        <ele>27.0</ele>
        <time>2015-12-07T08:06:03Z</time>
      </trkpt>
      <trkpt lat="37.607258" lon="-0.991574">
        <ele>27.0</ele>
        <time>2015-12-07T08:06:21Z</time>
      </trkpt>
      <trkpt lat="37.607423" lon="-0.991660">
        <ele>26.6</ele>
        <time>2015-12-07T08:06:34Z</time>
      </trkpt>
      <trkpt lat="37.607458" lon="-0.991675">
        <ele>27.0</ele>
        <time>2015-12-07T08:06:37Z</time>
      </trkpt>
      <trkpt lat="37.607501" lon="-0.991675">
        <ele>27.0</ele>
        <time>2015-12-07T08:06:40Z</time>
      </trkpt>
      <trkpt lat="37.607638" lon="-0.991767">
        <ele>26.6</ele>
        <time>2015-12-07T08:06:52Z</time>
      </trkpt>
      <trkpt lat="37.607792" lon="-0.991854">
        <ele>26.6</ele>
        <time>2015-12-07T08:07:04Z</time>
      </trkpt>
      <trkpt lat="37.607857" lon="-0.991900">
        <ele>26.6</ele>
        <time>2015-12-07T08:07:10Z</time>
      </trkpt>
      <trkpt lat="37.608090" lon="-0.991973">
        <ele>27.0</ele>
        <time>2015-12-07T08:07:27Z</time>
      </trkpt>
      <trkpt lat="37.608291" lon="-0.992057">
        <ele>26.6</ele>
        <time>2015-12-07T08:07:41Z</time>
      </trkpt>
      <trkpt lat="37.608420" lon="-0.992143">
        <ele>26.1</ele>
        <time>2015-12-07T08:07:53Z</time>
      </trkpt>
      <trkpt lat="37.608568" lon="-0.992224">
        <ele>27.0</ele>
        <time>2015-12-07T08:08:06Z</time>
      </trkpt>
      <trkpt lat="37.608786" lon="-0.992325">
        <ele>26.6</ele>
        <time>2015-12-07T08:08:21Z</time>
      </trkpt>
      <trkpt lat="37.608970" lon="-0.992354">
        <ele>27.0</ele>
        <time>2015-12-07T08:08:34Z</time>
      </trkpt>
      <trkpt lat="37.609174" lon="-0.992498">
        <ele>27.0</ele>
        <time>2015-12-07T08:08:50Z</time>
      </trkpt>
      <trkpt lat="37.609254" lon="-0.992528">
        <ele>26.6</ele>
        <time>2015-12-07T08:09:02Z</time>
      </trkpt>
      <trkpt lat="37.609287" lon="-0.992563">
        <ele>26.1</ele>
        <time>2015-12-07T08:09:03Z</time>
      </trkpt>
      <trkpt lat="37.609359" lon="-0.992597">
        <ele>26.6</ele>
        <time>2015-12-07T08:09:08Z</time>
      </trkpt>
      <trkpt lat="37.609519" lon="-0.992764">
        <ele>26.6</ele>
        <time>2015-12-07T08:09:25Z</time>
      </trkpt>
      <trkpt lat="37.609676" lon="-0.992848">
        <ele>26.1</ele>
        <time>2015-12-07T08:09:38Z</time>
      </trkpt>
      <trkpt lat="37.609760" lon="-0.992886">
        <ele>26.6</ele>
        <time>2015-12-07T08:09:43Z</time>
      </trkpt>
      <trkpt lat="37.609899" lon="-0.992947">
        <ele>26.6</ele>
        <time>2015-12-07T08:09:54Z</time>
      </trkpt>
      <trkpt lat="37.610011" lon="-0.993031">
        <ele>26.1</ele>
        <time>2015-12-07T08:10:04Z</time>
      </trkpt>
      <trkpt lat="37.610101" lon="-0.993081">
        <ele>26.6</ele>
        <time>2015-12-07T08:10:09Z</time>
      </trkpt>
      <trkpt lat="37.610381" lon="-0.993095">
        <ele>26.6</ele>
        <time>2015-12-07T08:10:30Z</time>
      </trkpt>
      <trkpt lat="37.610566" lon="-0.993187">
        <ele>26.1</ele>
        <time>2015-12-07T08:10:45Z</time>
      </trkpt>
      <trkpt lat="37.610669" lon="-0.993321">
        <ele>26.1</ele>
        <time>2015-12-07T08:10:55Z</time>
      </trkpt>
      <trkpt lat="37.610816" lon="-0.993378">
        <ele>26.1</ele>
        <time>2015-12-07T08:11:09Z</time>
      </trkpt>
      <trkpt lat="37.610865" lon="-0.993397">
        <ele>26.6</ele>
        <time>2015-12-07T08:11:13Z</time>
      </trkpt>
      <trkpt lat="37.610951" lon="-0.993436">
        <ele>26.6</ele>
        <time>2015-12-07T08:11:22Z</time>
      </trkpt>
      <trkpt lat="37.611016" lon="-0.993474">
        <ele>26.6</ele>
        <time>2015-12-07T08:11:26Z</time>
      </trkpt>
      <trkpt lat="37.611120" lon="-0.993525">
        <ele>26.1</ele>
        <time>2015-12-07T08:11:32Z</time>
      </trkpt>
      <trkpt lat="37.611204" lon="-0.993538">
        <ele>27.0</ele>
        <time>2015-12-07T08:11:40Z</time>
      </trkpt>
      <trkpt lat="37.611228" lon="-0.993556">
        <ele>26.1</ele>
        <time>2015-12-07T08:11:42Z</time>
      </trkpt>
      <trkpt lat="37.611423" lon="-0.993612">
        <ele>26.1</ele>
        <time>2015-12-07T08:11:57Z</time>
      </trkpt>
      <trkpt lat="37.611558" lon="-0.993678">
        <ele>26.1</ele>
        <time>2015-12-07T08:12:08Z</time>
      </trkpt>
      <trkpt lat="37.611608" lon="-0.993712">
        <ele>26.6</ele>
        <time>2015-12-07T08:12:12Z</time>
      </trkpt>
      <trkpt lat="37.611867" lon="-0.993820">
        <ele>26.1</ele>
        <time>2015-12-07T08:12:31Z</time>
      </trkpt>
      <trkpt lat="37.611978" lon="-0.993873">
        <ele>26.6</ele>
        <time>2015-12-07T08:12:40Z</time>
      </trkpt>
      <trkpt lat="37.612156" lon="-0.993920">
        <ele>26.1</ele>
        <time>2015-12-07T08:12:54Z</time>
      </trkpt>
      <trkpt lat="37.612343" lon="-0.994046">
        <ele>26.1</ele>
        <time>2015-12-07T08:13:09Z</time>
      </trkpt>
      <trkpt lat="37.612523" lon="-0.994257">
        <ele>26.6</ele>
        <time>2015-12-07T08:13:25Z</time>
      </trkpt>
      <trkpt lat="37.612740" lon="-0.994361">
        <ele>26.6</ele>
        <time>2015-12-07T08:13:42Z</time>
      </trkpt>
      <trkpt lat="37.612899" lon="-0.994444">
        <ele>26.6</ele>
        <time>2015-12-07T08:13:55Z</time>
      </trkpt>
      <trkpt lat="37.612982" lon="-0.994488">
        <ele>26.1</ele>
        <time>2015-12-07T08:14:01Z</time>
      </trkpt>
      <trkpt lat="37.613205" lon="-0.994592">
        <ele>26.6</ele>
        <time>2015-12-07T08:14:16Z</time>
      </trkpt>
      <trkpt lat="37.613407" lon="-0.994589">
        <ele>26.6</ele>
        <time>2015-12-07T08:14:32Z</time>
      </trkpt>
      <trkpt lat="37.613657" lon="-0.994699">
        <ele>27.0</ele>
        <time>2015-12-07T08:14:52Z</time>
      </trkpt>
      <trkpt lat="37.613853" lon="-0.994794">
        <ele>27.5</ele>
        <time>2015-12-07T08:15:07Z</time>
      </trkpt>
      <trkpt lat="37.614053" lon="-0.994857">
        <ele>27.5</ele>
        <time>2015-12-07T08:15:22Z</time>
      </trkpt>
      <trkpt lat="37.614150" lon="-0.994923">
        <ele>27.0</ele>
        <time>2015-12-07T08:15:30Z</time>
      </trkpt>
      <trkpt lat="37.614305" lon="-0.994920">
        <ele>26.6</ele>
        <time>2015-12-07T08:15:43Z</time>
      </trkpt>
      <trkpt lat="37.614408" lon="-0.994972">
        <ele>26.1</ele>
        <time>2015-12-07T08:15:52Z</time>
      </trkpt>
      <trkpt lat="37.614498" lon="-0.995043">
        <ele>26.6</ele>
        <time>2015-12-07T08:16:00Z</time>
      </trkpt>
      <trkpt lat="37.614656" lon="-0.995180">
        <ele>27.0</ele>
        <time>2015-12-07T08:16:15Z</time>
      </trkpt>
      <trkpt lat="37.614801" lon="-0.995359">
        <ele>27.5</ele>
        <time>2015-12-07T08:16:28Z</time>
      </trkpt>
      <trkpt lat="37.614871" lon="-0.995376">
        <ele>28.0</ele>
        <time>2015-12-07T08:16:33Z</time>
      </trkpt>
      <trkpt lat="37.614926" lon="-0.995398">
        <ele>28.0</ele>
        <time>2015-12-07T08:16:38Z</time>
      </trkpt>
      <trkpt lat="37.615125" lon="-0.995454">
        <ele>28.0</ele>
        <time>2015-12-07T08:16:52Z</time>
      </trkpt>
      <trkpt lat="37.615193" lon="-0.995450">
        <ele>28.5</ele>
        <time>2015-12-07T08:16:57Z</time>
      </trkpt>
      <trkpt lat="37.615372" lon="-0.995451">
        <ele>29.0</ele>
        <time>2015-12-07T08:17:13Z</time>
      </trkpt>
      <trkpt lat="37.615486" lon="-0.995473">
        <ele>29.0</ele>
        <time>2015-12-07T08:17:23Z</time>
      </trkpt>
      <trkpt lat="37.615662" lon="-0.995442">
        <ele>29.0</ele>
        <time>2015-12-07T08:17:34Z</time>
      </trkpt>
      <trkpt lat="37.615732" lon="-0.995444">
        <ele>29.5</ele>
        <time>2015-12-07T08:17:39Z</time>
      </trkpt>
      <trkpt lat="37.615783" lon="-0.995455">
        <ele>29.0</ele>
        <time>2015-12-07T08:17:43Z</time>
      </trkpt>
      <trkpt lat="37.615803" lon="-0.995449">
        <ele>29.5</ele>
        <time>2015-12-07T08:17:45Z</time>
      </trkpt>
      <trkpt lat="37.615898" lon="-0.995471">
        <ele>29.9</ele>
        <time>2015-12-07T08:17:53Z</time>
      </trkpt>
      <trkpt lat="37.615907" lon="-0.995483">
        <ele>29.0</ele>
        <time>2015-12-07T08:17:54Z</time>
      </trkpt>
      <trkpt lat="37.616082" lon="-0.995573">
        <ele>29.5</ele>
        <time>2015-12-07T08:18:07Z</time>
      </trkpt>
      <trkpt lat="37.616203" lon="-0.995639">
        <ele>29.9</ele>
        <time>2015-12-07T08:18:17Z</time>
      </trkpt>
      <trkpt lat="37.616373" lon="-0.995685">
        <ele>30.4</ele>
        <time>2015-12-07T08:18:32Z</time>
      </trkpt>
      <trkpt lat="37.616538" lon="-0.995745">
        <ele>30.9</ele>
        <time>2015-12-07T08:18:45Z</time>
      </trkpt>
      <trkpt lat="37.616687" lon="-0.995812">
        <ele>30.9</ele>
        <time>2015-12-07T08:18:59Z</time>
      </trkpt>
      <trkpt lat="37.616717" lon="-0.995821">
        <ele>30.4</ele>
        <time>2015-12-07T08:19:14Z</time>
      </trkpt>
      <trkpt lat="37.616734" lon="-0.995853">
        <ele>30.9</ele>
        <time>2015-12-07T08:19:42Z</time>
      </trkpt>
      <trkpt lat="37.616782" lon="-0.995867">
        <ele>30.9</ele>
        <time>2015-12-07T08:19:53Z</time>
      </trkpt>
      <trkpt lat="37.616864" lon="-0.995857">
        <ele>30.9</ele>
        <time>2015-12-07T08:19:59Z</time>
      </trkpt>
      <trkpt lat="37.616980" lon="-0.995860">
        <ele>30.9</ele>
        <time>2015-12-07T08:20:13Z</time>
      </trkpt>
      <trkpt lat="37.617152" lon="-0.995919">
        <ele>31.4</ele>
        <time>2015-12-07T08:20:27Z</time>
      </trkpt>
      <trkpt lat="37.617328" lon="-0.995936">
        <ele>31.9</ele>
        <time>2015-12-07T08:20:41Z</time>
      </trkpt>
      <trkpt lat="37.617489" lon="-0.995952">
        <ele>31.4</ele>
        <time>2015-12-07T08:20:55Z</time>
      </trkpt>
      <trkpt lat="37.617615" lon="-0.995948">
        <ele>31.9</ele>
        <time>2015-12-07T08:21:06Z</time>
      </trkpt>
      <trkpt lat="37.617733" lon="-0.995997">
        <ele>31.4</ele>
        <time>2015-12-07T08:21:18Z</time>
      </trkpt>
      <trkpt lat="37.617814" lon="-0.996007">
        <ele>31.9</ele>
        <time>2015-12-07T08:21:26Z</time>
      </trkpt>
      <trkpt lat="37.617885" lon="-0.996024">
        <ele>32.3</ele>
        <time>2015-12-07T08:21:33Z</time>
      </trkpt>
      <trkpt lat="37.617904" lon="-0.996022">
        <ele>31.9</ele>
        <time>2015-12-07T08:21:35Z</time>
      </trkpt>
      <trkpt lat="37.617924" lon="-0.996035">
        <ele>31.9</ele>
        <time>2015-12-07T08:21:38Z</time>
      </trkpt>
      <trkpt lat="37.617941" lon="-0.996028">
        <ele>31.9</ele>
        <time>2015-12-07T08:21:40Z</time>
      </trkpt>
      <trkpt lat="37.618020" lon="-0.996056">
        <ele>32.3</ele>
        <time>2015-12-07T08:21:46Z</time>
      </trkpt>
      <trkpt lat="37.618056" lon="-0.996061">
        <ele>32.3</ele>
        <time>2015-12-07T08:21:50Z</time>
      </trkpt>
      <trkpt lat="37.618185" lon="-0.996114">
        <ele>32.3</ele>
        <time>2015-12-07T08:22:06Z</time>
      </trkpt>
      <trkpt lat="37.618332" lon="-0.996121">
        <ele>32.3</ele>
        <time>2015-12-07T08:22:20Z</time>
      </trkpt>
      <trkpt lat="37.618468" lon="-0.996142">
        <ele>32.3</ele>
        <time>2015-12-07T08:22:31Z</time>
      </trkpt>
      <trkpt lat="37.618550" lon="-0.996165">
        <ele>32.8</ele>
        <time>2015-12-07T08:22:38Z</time>
      </trkpt>
      <trkpt lat="37.618660" lon="-0.996204">
        <ele>32.8</ele>
        <time>2015-12-07T08:22:48Z</time>
      </trkpt>
      <trkpt lat="37.618701" lon="-0.996211">
        <ele>32.3</ele>
        <time>2015-12-07T08:22:52Z</time>
      </trkpt>
      <trkpt lat="37.618789" lon="-0.996249">
        <ele>33.3</ele>
        <time>2015-12-07T08:23:01Z</time>
      </trkpt>
      <trkpt lat="37.618817" lon="-0.996260">
        <ele>33.3</ele>
        <time>2015-12-07T08:23:03Z</time>
      </trkpt>
      <trkpt lat="37.618954" lon="-0.996393">
        <ele>33.8</ele>
        <time>2015-12-07T08:23:15Z</time>
      </trkpt>
      <trkpt lat="37.619005" lon="-0.996501">
        <ele>32.8</ele>
        <time>2015-12-07T08:23:25Z</time>
      </trkpt>
      <trkpt lat="37.619029" lon="-0.996522">
        <ele>33.3</ele>
        <time>2015-12-07T08:23:34Z</time>
      </trkpt>
      <trkpt lat="37.619060" lon="-0.996543">
        <ele>33.8</ele>
        <time>2015-12-07T08:23:41Z</time>
      </trkpt>
      <trkpt lat="37.619139" lon="-0.996613">
        <ele>33.3</ele>
        <time>2015-12-07T08:23:48Z</time>
      </trkpt>
      <trkpt lat="37.619265" lon="-0.996779">
        <ele>33.8</ele>
        <time>2015-12-07T08:23:59Z</time>
      </trkpt>
      <trkpt lat="37.619277" lon="-0.996791">
        <ele>33.3</ele>
        <time>2015-12-07T08:24:00Z</time>
      </trkpt>
      <trkpt lat="37.619310" lon="-0.996840">
        <ele>34.3</ele>
        <time>2015-12-07T08:24:04Z</time>
      </trkpt>
      <trkpt lat="37.619480" lon="-0.996978">
        <ele>34.3</ele>
        <time>2015-12-07T08:24:20Z</time>
      </trkpt>
      <trkpt lat="37.619652" lon="-0.997105">
        <ele>34.7</ele>
        <time>2015-12-07T08:24:36Z</time>
      </trkpt>
      <trkpt lat="37.619838" lon="-0.997254">
        <ele>35.7</ele>
        <time>2015-12-07T08:24:52Z</time>
      </trkpt>
      <trkpt lat="37.619882" lon="-0.997285">
        <ele>35.7</ele>
        <time>2015-12-07T08:24:56Z</time>
      </trkpt>
      <trkpt lat="37.619948" lon="-0.997347">
        <ele>35.7</ele>
        <time>2015-12-07T08:25:02Z</time>
      </trkpt>
      <trkpt lat="37.620013" lon="-0.997360">
        <ele>35.7</ele>
        <time>2015-12-07T08:25:07Z</time>
      </trkpt>
      <trkpt lat="37.620230" lon="-0.997497">
        <ele>36.2</ele>
        <time>2015-12-07T08:25:25Z</time>
      </trkpt>
      <trkpt lat="37.620446" lon="-0.997615">
        <ele>35.7</ele>
        <time>2015-12-07T08:25:41Z</time>
      </trkpt>
      <trkpt lat="37.620531" lon="-0.997701">
        <ele>35.7</ele>
        <time>2015-12-07T08:25:48Z</time>
      </trkpt>
      <trkpt lat="37.620683" lon="-0.997774">
        <ele>34.7</ele>
        <time>2015-12-07T08:26:00Z</time>
      </trkpt>
      <trkpt lat="37.620807" lon="-0.997905">
        <ele>35.2</ele>
        <time>2015-12-07T08:26:14Z</time>
      </trkpt>
      <trkpt lat="37.620866" lon="-0.997957">
        <ele>34.7</ele>
        <time>2015-12-07T08:26:23Z</time>
      </trkpt>
      <trkpt lat="37.620895" lon="-0.997999">
        <ele>34.7</ele>
        <time>2015-12-07T08:26:29Z</time>
      </trkpt>
      <trkpt lat="37.620910" lon="-0.998041">
        <ele>34.3</ele>
        <time>2015-12-07T08:26:32Z</time>
      </trkpt>
      <trkpt lat="37.621021" lon="-0.998175">
        <ele>34.3</ele>
        <time>2015-12-07T08:26:42Z</time>
      </trkpt>
      <trkpt lat="37.621094" lon="-0.998481">
        <ele>33.8</ele>
        <time>2015-12-07T08:27:00Z</time>
      </trkpt>
      <trkpt lat="37.621206" lon="-0.998655">
        <ele>33.3</ele>
        <time>2015-12-07T08:27:14Z</time>
      </trkpt>
      <trkpt lat="37.621302" lon="-0.998762">
        <ele>32.8</ele>
        <time>2015-12-07T08:27:25Z</time>
      </trkpt>
      <trkpt lat="37.621351" lon="-0.998773">
        <ele>32.3</ele>
        <time>2015-12-07T08:27:29Z</time>
      </trkpt>
      <trkpt lat="37.621419" lon="-0.998803">
        <ele>32.3</ele>
        <time>2015-12-07T08:27:37Z</time>
      </trkpt>
      <trkpt lat="37.621458" lon="-0.998809">
        <ele>31.9</ele>
        <time>2015-12-07T08:27:42Z</time>
      </trkpt>
      <trkpt lat="37.621631" lon="-0.998902">
        <ele>32.3</ele>
        <time>2015-12-07T08:27:54Z</time>
      </trkpt>
      <trkpt lat="37.621838" lon="-0.999067">
        <ele>32.3</ele>
        <time>2015-12-07T08:28:09Z</time>
      </trkpt>
      <trkpt lat="37.621878" lon="-0.999084">
        <ele>31.9</ele>
        <time>2015-12-07T08:28:12Z</time>
      </trkpt>
      <trkpt lat="37.622046" lon="-0.999106">
        <ele>31.4</ele>
        <time>2015-12-07T08:28:25Z</time>
      </trkpt>
      <trkpt lat="37.622190" lon="-0.999185">
        <ele>31.4</ele>
        <time>2015-12-07T08:28:40Z</time>
      </trkpt>
      <trkpt lat="37.622350" lon="-0.999256">
        <ele>31.9</ele>
        <time>2015-12-07T08:28:56Z</time>
      </trkpt>
      <trkpt lat="37.622446" lon="-0.999315">
        <ele>32.3</ele>
        <time>2015-12-07T08:29:05Z</time>
      </trkpt>
      <trkpt lat="37.622646" lon="-0.999342">
        <ele>31.9</ele>
        <time>2015-12-07T08:29:18Z</time>
      </trkpt>
      <trkpt lat="37.622714" lon="-0.999349">
        <ele>31.4</ele>
        <time>2015-12-07T08:29:24Z</time>
      </trkpt>
      <trkpt lat="37.622839" lon="-0.999346">
        <ele>31.9</ele>
        <time>2015-12-07T08:29:36Z</time>
      </trkpt>
      <trkpt lat="37.623074" lon="-0.999408">
        <ele>31.4</ele>
        <time>2015-12-07T08:29:51Z</time>
      </trkpt>
      <trkpt lat="37.623350" lon="-0.999478">
        <ele>31.9</ele>
        <time>2015-12-07T08:30:09Z</time>
      </trkpt>
      <trkpt lat="37.623537" lon="-0.999553">
        <ele>32.8</ele>
        <time>2015-12-07T08:30:23Z</time>
      </trkpt>
      <trkpt lat="37.623717" lon="-0.999659">
        <ele>32.8</ele>
        <time>2015-12-07T08:30:38Z</time>
      </trkpt>
      <trkpt lat="37.623946" lon="-0.999847">
        <ele>33.3</ele>
        <time>2015-12-07T08:30:55Z</time>
      </trkpt>
      <trkpt lat="37.624146" lon="-1.000040">
        <ele>32.8</ele>
        <time>2015-12-07T08:31:14Z</time>
      </trkpt>
      <trkpt lat="37.624169" lon="-1.000052">
        <ele>33.3</ele>
        <time>2015-12-07T08:31:17Z</time>
      </trkpt>
      <trkpt lat="37.624207" lon="-1.000088">
        <ele>32.8</ele>
        <time>2015-12-07T08:31:24Z</time>
      </trkpt>
      <trkpt lat="37.624358" lon="-1.000216">
        <ele>32.8</ele>
        <time>2015-12-07T08:31:38Z</time>
      </trkpt>
      <trkpt lat="37.624526" lon="-1.000356">
        <ele>32.8</ele>
        <time>2015-12-07T08:31:53Z</time>
      </trkpt>
      <trkpt lat="37.624693" lon="-1.000493">
        <ele>32.8</ele>
        <time>2015-12-07T08:32:07Z</time>
      </trkpt>
      <trkpt lat="37.624865" lon="-1.000641">
        <ele>32.8</ele>
        <time>2015-12-07T08:32:22Z</time>
      </trkpt>
      <trkpt lat="37.624887" lon="-1.000659">
        <ele>32.8</ele>
        <time>2015-12-07T08:32:24Z</time>
      </trkpt>
      <trkpt lat="37.625043" lon="-1.000770">
        <ele>33.3</ele>
        <time>2015-12-07T08:32:37Z</time>
      </trkpt>
      <trkpt lat="37.625079" lon="-1.000773">
        <ele>32.8</ele>
        <time>2015-12-07T08:32:38Z</time>
      </trkpt>
      <trkpt lat="37.625251" lon="-1.000874">
        <ele>31.9</ele>
        <time>2015-12-07T08:32:52Z</time>
      </trkpt>
      <trkpt lat="37.625536" lon="-1.001134">
        <ele>32.8</ele>
        <time>2015-12-07T08:33:08Z</time>
      </trkpt>
      <trkpt lat="37.625623" lon="-1.001262">
        <ele>32.8</ele>
        <time>2015-12-07T08:33:25Z</time>
      </trkpt>
      <trkpt lat="37.625823" lon="-1.001429">
        <ele>32.8</ele>
        <time>2015-12-07T08:33:43Z</time>
      </trkpt>
      <trkpt lat="37.626040" lon="-1.001553">
        <ele>32.8</ele>
        <time>2015-12-07T08:34:01Z</time>
      </trkpt>
      <trkpt lat="37.626236" lon="-1.001672">
        <ele>32.8</ele>
        <time>2015-12-07T08:34:17Z</time>
      </trkpt>
      <trkpt lat="37.626310" lon="-1.001701">
        <ele>32.3</ele>
        <time>2015-12-07T08:34:23Z</time>
      </trkpt>
      <trkpt lat="37.626536" lon="-1.001752">
        <ele>32.3</ele>
        <time>2015-12-07T08:34:39Z</time>
      </trkpt>
      <trkpt lat="37.626720" lon="-1.001822">
        <ele>31.9</ele>
        <time>2015-12-07T08:34:54Z</time>
      </trkpt>
      <trkpt lat="37.626872" lon="-1.001909">
        <ele>33.3</ele>
        <time>2015-12-07T08:35:05Z</time>
      </trkpt>
      <trkpt lat="37.626940" lon="-1.001975">
        <ele>33.3</ele>
        <time>2015-12-07T08:35:10Z</time>
      </trkpt>
      <trkpt lat="37.627110" lon="-1.002105">
        <ele>32.8</ele>
        <time>2015-12-07T08:35:25Z</time>
      </trkpt>
      <trkpt lat="37.627213" lon="-1.002251">
        <ele>32.8</ele>
        <time>2015-12-07T08:35:40Z</time>
      </trkpt>
      <trkpt lat="37.627339" lon="-1.002313">
        <ele>33.3</ele>
        <time>2015-12-07T08:35:44Z</time>
      </trkpt>
      <trkpt lat="37.627376" lon="-1.002139">
        <ele>33.3</ele>
        <time>2015-12-07T08:35:48Z</time>
      </trkpt>
      <trkpt lat="37.627592" lon="-1.002169">
        <ele>33.8</ele>
        <time>2015-12-07T08:36:03Z</time>
      </trkpt>
      <trkpt lat="37.627796" lon="-1.002231">
        <ele>33.8</ele>
        <time>2015-12-07T08:36:19Z</time>
      </trkpt>
      <trkpt lat="37.628049" lon="-1.002369">
        <ele>33.8</ele>
        <time>2015-12-07T08:36:34Z</time>
      </trkpt>
      <trkpt lat="37.628175" lon="-1.002455">
        <ele>33.8</ele>
        <time>2015-12-07T08:36:47Z</time>
      </trkpt>
      <trkpt lat="37.628385" lon="-1.002459">
        <ele>33.8</ele>
        <time>2015-12-07T08:37:03Z</time>
      </trkpt>
      <trkpt lat="37.628465" lon="-1.002476">
        <ele>33.3</ele>
        <time>2015-12-07T08:37:10Z</time>
      </trkpt>
      <trkpt lat="37.628563" lon="-1.002608">
        <ele>33.3</ele>
        <time>2015-12-07T08:37:23Z</time>
      </trkpt>
      <trkpt lat="37.628733" lon="-1.002665">
        <ele>33.8</ele>
        <time>2015-12-07T08:37:36Z</time>
      </trkpt>
      <trkpt lat="37.628799" lon="-1.002697">
        <ele>33.8</ele>
        <time>2015-12-07T08:37:43Z</time>
      </trkpt>
      <trkpt lat="37.628888" lon="-1.002734">
        <ele>33.8</ele>
        <time>2015-12-07T08:37:52Z</time>
      </trkpt>
      <trkpt lat="37.628994" lon="-1.002774">
        <ele>33.3</ele>
        <time>2015-12-07T08:38:05Z</time>
      </trkpt>
      <trkpt lat="37.629216" lon="-1.002853">
        <ele>33.3</ele>
        <time>2015-12-07T08:38:24Z</time>
      </trkpt>
      <trkpt lat="37.629427" lon="-1.002902">
        <ele>33.3</ele>
        <time>2015-12-07T08:38:41Z</time>
      </trkpt>
      <trkpt lat="37.629581" lon="-1.002933">
        <ele>33.8</ele>
        <time>2015-12-07T08:38:55Z</time>
      </trkpt>
      <trkpt lat="37.629680" lon="-1.002938">
        <ele>33.8</ele>
        <time>2015-12-07T08:39:05Z</time>
      </trkpt>
      <trkpt lat="37.629742" lon="-1.002933">
        <ele>34.3</ele>
        <time>2015-12-07T08:39:10Z</time>
      </trkpt>
      <trkpt lat="37.629786" lon="-1.002934">
        <ele>34.3</ele>
        <time>2015-12-07T08:39:14Z</time>
      </trkpt>
      <trkpt lat="37.629962" lon="-1.002931">
        <ele>33.8</ele>
        <time>2015-12-07T08:39:27Z</time>
      </trkpt>
      <trkpt lat="37.630197" lon="-1.003021">
        <ele>34.3</ele>
        <time>2015-12-07T08:39:43Z</time>
      </trkpt>
      <trkpt lat="37.630456" lon="-1.003089">
        <ele>34.7</ele>
        <time>2015-12-07T08:40:01Z</time>
      </trkpt>
      <trkpt lat="37.630648" lon="-1.003025">
        <ele>34.7</ele>
        <time>2015-12-07T08:40:15Z</time>
      </trkpt>
      <trkpt lat="37.630901" lon="-1.003094">
        <ele>35.7</ele>
        <time>2015-12-07T08:40:31Z</time>
      </trkpt>
      <trkpt lat="37.631149" lon="-1.003178">
        <ele>35.7</ele>
        <time>2015-12-07T08:40:49Z</time>
      </trkpt>
      <trkpt lat="37.631267" lon="-1.003240">
        <ele>35.7</ele>
        <time>2015-12-07T08:41:04Z</time>
      </trkpt>
      <trkpt lat="37.631351" lon="-1.003385">
        <ele>35.7</ele>
        <time>2015-12-07T08:41:05Z</time>
      </trkpt>
      <trkpt lat="37.631380" lon="-1.003432">
        <ele>35.7</ele>
        <time>2015-12-07T08:41:09Z</time>
      </trkpt>
      <trkpt lat="37.631434" lon="-1.003477">
        <ele>35.7</ele>
        <time>2015-12-07T08:41:22Z</time>
      </trkpt>
      <trkpt lat="37.631447" lon="-1.003481">
        <ele>36.2</ele>
        <time>2015-12-07T08:41:23Z</time>
      </trkpt>
      <trkpt lat="37.631558" lon="-1.003464">
        <ele>35.7</ele>
        <time>2015-12-07T08:41:31Z</time>
      </trkpt>
      <trkpt lat="37.631645" lon="-1.003283">
        <ele>36.2</ele>
        <time>2015-12-07T08:41:46Z</time>
      </trkpt>
      <trkpt lat="37.631651" lon="-1.003269">
        <ele>36.2</ele>
        <time>2015-12-07T08:41:48Z</time>
      </trkpt>
      <trkpt lat="37.631858" lon="-1.003264">
        <ele>36.7</ele>
        <time>2015-12-07T08:42:05Z</time>
      </trkpt>
      <trkpt lat="37.631869" lon="-1.003263">
        <ele>36.2</ele>
        <time>2015-12-07T08:42:06Z</time>
      </trkpt>
      <trkpt lat="37.631922" lon="-1.003299">
        <ele>36.7</ele>
        <time>2015-12-07T08:42:20Z</time>
      </trkpt>
      <trkpt lat="37.632097" lon="-1.003358">
        <ele>36.7</ele>
        <time>2015-12-07T08:42:34Z</time>
      </trkpt>
      <trkpt lat="37.632100" lon="-1.003312">
        <ele>36.7</ele>
        <time>2015-12-07T08:42:35Z</time>
      </trkpt>
      <trkpt lat="37.632290" lon="-1.003287">
        <ele>36.7</ele>
        <time>2015-12-07T08:42:47Z</time>
      </trkpt>
      <trkpt lat="37.632486" lon="-1.003305">
        <ele>37.2</ele>
        <time>2015-12-07T08:43:01Z</time>
      </trkpt>
      <trkpt lat="37.632627" lon="-1.003254">
        <ele>37.6</ele>
        <time>2015-12-07T08:43:13Z</time>
      </trkpt>
      <trkpt lat="37.632802" lon="-1.003240">
        <ele>37.6</ele>
        <time>2015-12-07T08:43:27Z</time>
      </trkpt>
      <trkpt lat="37.632886" lon="-1.003218">
        <ele>37.6</ele>
        <time>2015-12-07T08:43:29Z</time>
      </trkpt>
      <trkpt lat="37.633058" lon="-1.003181">
        <ele>38.1</ele>
        <time>2015-12-07T08:43:45Z</time>
      </trkpt>
      <trkpt lat="37.633220" lon="-1.003079">
        <ele>39.1</ele>
        <time>2015-12-07T08:43:56Z</time>
      </trkpt>
      <trkpt lat="37.633410" lon="-1.003069">
        <ele>40.0</ele>
        <time>2015-12-07T08:44:11Z</time>
      </trkpt>
      <trkpt lat="37.633654" lon="-1.003088">
        <ele>40.0</ele>
        <time>2015-12-07T08:44:27Z</time>
      </trkpt>
      <trkpt lat="37.633855" lon="-1.003054">
        <ele>41.0</ele>
        <time>2015-12-07T08:44:42Z</time>
      </trkpt>
      <trkpt lat="37.633980" lon="-1.003030">
        <ele>41.5</ele>
        <time>2015-12-07T08:44:52Z</time>
      </trkpt>
      <trkpt lat="37.634142" lon="-1.003053">
        <ele>42.4</ele>
        <time>2015-12-07T08:45:06Z</time>
      </trkpt>
      <trkpt lat="37.634288" lon="-1.002978">
        <ele>43.4</ele>
        <time>2015-12-07T08:45:21Z</time>
      </trkpt>
      <trkpt lat="37.634487" lon="-1.003021">
        <ele>43.9</ele>
        <time>2015-12-07T08:45:36Z</time>
      </trkpt>
      <trkpt lat="37.634643" lon="-1.003094">
        <ele>44.8</ele>
        <time>2015-12-07T08:45:45Z</time>
      </trkpt>
      <trkpt lat="37.634731" lon="-1.003040">
        <ele>44.8</ele>
        <time>2015-12-07T08:45:49Z</time>
      </trkpt>
      <trkpt lat="37.634929" lon="-1.003072">
        <ele>45.3</ele>
        <time>2015-12-07T08:46:04Z</time>
      </trkpt>
      <trkpt lat="37.635151" lon="-1.003061">
        <ele>45.8</ele>
        <time>2015-12-07T08:46:20Z</time>
      </trkpt>
      <trkpt lat="37.635196" lon="-1.003053">
        <ele>45.8</ele>
        <time>2015-12-07T08:46:25Z</time>
      </trkpt>
      <trkpt lat="37.635248" lon="-1.002992">
        <ele>46.3</ele>
        <time>2015-12-07T08:46:30Z</time>
      </trkpt>
      <trkpt lat="37.635274" lon="-1.002938">
        <ele>46.8</ele>
        <time>2015-12-07T08:46:34Z</time>
      </trkpt>
      <trkpt lat="37.635442" lon="-1.002890">
        <ele>46.8</ele>
        <time>2015-12-07T08:46:48Z</time>
      </trkpt>
      <trkpt lat="37.635455" lon="-1.002894">
        <ele>46.8</ele>
        <time>2015-12-07T08:46:49Z</time>
      </trkpt>
      <trkpt lat="37.635601" lon="-1.002912">
        <ele>47.7</ele>
        <time>2015-12-07T08:47:03Z</time>
      </trkpt>
      <trkpt lat="37.635758" lon="-1.002875">
        <ele>48.2</ele>
        <time>2015-12-07T08:47:18Z</time>
      </trkpt>
      <trkpt lat="37.635951" lon="-1.002828">
        <ele>49.7</ele>
        <time>2015-12-07T08:47:34Z</time>
      </trkpt>
      <trkpt lat="37.636019" lon="-1.002799">
        <ele>49.2</ele>
        <time>2015-12-07T08:47:39Z</time>
      </trkpt>
      <trkpt lat="37.636181" lon="-1.002770">
        <ele>49.7</ele>
        <time>2015-12-07T08:47:55Z</time>
      </trkpt>
      <trkpt lat="37.636400" lon="-1.002694">
        <ele>50.1</ele>
        <time>2015-12-07T08:48:07Z</time>
      </trkpt>
      <trkpt lat="37.636526" lon="-1.002654">
        <ele>50.6</ele>
        <time>2015-12-07T08:48:17Z</time>
      </trkpt>
      <trkpt lat="37.636684" lon="-1.002663">
        <ele>50.6</ele>
        <time>2015-12-07T08:48:31Z</time>
      </trkpt>
      <trkpt lat="37.636903" lon="-1.002698">
        <ele>50.6</ele>
        <time>2015-12-07T08:48:48Z</time>
      </trkpt>
      <trkpt lat="37.637092" lon="-1.002645">
        <ele>51.1</ele>
        <time>2015-12-07T08:49:00Z</time>
      </trkpt>
      <trkpt lat="37.637265" lon="-1.002641">
        <ele>50.6</ele>
        <time>2015-12-07T08:49:14Z</time>
      </trkpt>
      <trkpt lat="37.637483" lon="-1.002664">
        <ele>50.6</ele>
        <time>2015-12-07T08:49:30Z</time>
      </trkpt>
      <trkpt lat="37.637587" lon="-1.002684">
        <ele>51.1</ele>
        <time>2015-12-07T08:49:38Z</time>
      </trkpt>
      <trkpt lat="37.637789" lon="-1.002659">
        <ele>50.6</ele>
        <time>2015-12-07T08:49:52Z</time>
      </trkpt>
      <trkpt lat="37.637942" lon="-1.002670">
        <ele>51.1</ele>
        <time>2015-12-07T08:50:05Z</time>
      </trkpt>
      <trkpt lat="37.638172" lon="-1.002822">
        <ele>51.6</ele>
        <time>2015-12-07T08:50:24Z</time>
      </trkpt>
      <trkpt lat="37.638226" lon="-1.002828">
        <ele>51.6</ele>
        <time>2015-12-07T08:50:29Z</time>
      </trkpt>
      <trkpt lat="37.638363" lon="-1.002907">
        <ele>52.5</ele>
        <time>2015-12-07T08:50:41Z</time>
      </trkpt>
      <trkpt lat="37.638548" lon="-1.002987">
        <ele>51.6</ele>
        <time>2015-12-07T08:50:55Z</time>
      </trkpt>
      <trkpt lat="37.638621" lon="-1.003027">
        <ele>51.6</ele>
        <time>2015-12-07T08:51:01Z</time>
      </trkpt>
      <trkpt lat="37.638696" lon="-1.003073">
        <ele>52.0</ele>
        <time>2015-12-07T08:51:07Z</time>
      </trkpt>
      <trkpt lat="37.638789" lon="-1.003093">
        <ele>52.0</ele>
        <time>2015-12-07T08:51:13Z</time>
      </trkpt>
      <trkpt lat="37.638819" lon="-1.003091">
        <ele>52.5</ele>
        <time>2015-12-07T08:51:15Z</time>
      </trkpt>
      <trkpt lat="37.638940" lon="-1.003139">
        <ele>52.0</ele>
        <time>2015-12-07T08:51:24Z</time>
      </trkpt>
      <trkpt lat="37.639133" lon="-1.003179">
        <ele>52.0</ele>
        <time>2015-12-07T08:51:38Z</time>
      </trkpt>
      <trkpt lat="37.639307" lon="-1.003218">
        <ele>53.5</ele>
        <time>2015-12-07T08:51:52Z</time>
      </trkpt>
      <trkpt lat="37.639472" lon="-1.003273">
        <ele>52.5</ele>
        <time>2015-12-07T08:52:05Z</time>
      </trkpt>
      <trkpt lat="37.639553" lon="-1.003283">
        <ele>53.0</ele>
        <time>2015-12-07T08:52:11Z</time>
      </trkpt>
      <trkpt lat="37.639718" lon="-1.003325">
        <ele>53.0</ele>
        <time>2015-12-07T08:52:23Z</time>
      </trkpt>
      <trkpt lat="37.639949" lon="-1.003350">
        <ele>53.5</ele>
        <time>2015-12-07T08:52:37Z</time>
      </trkpt>
      <trkpt lat="37.640047" lon="-1.003371">
        <ele>53.5</ele>
        <time>2015-12-07T08:52:44Z</time>
      </trkpt>
      <trkpt lat="37.640232" lon="-1.003378">
        <ele>53.5</ele>
        <time>2015-12-07T08:52:58Z</time>
      </trkpt>
      <trkpt lat="37.640400" lon="-1.003432">
        <ele>54.0</ele>
        <time>2015-12-07T08:53:11Z</time>
      </trkpt>
      <trkpt lat="37.640645" lon="-1.003473">
        <ele>54.0</ele>
        <time>2015-12-07T08:53:27Z</time>
      </trkpt>
      <trkpt lat="37.640711" lon="-1.003483">
        <ele>54.0</ele>
        <time>2015-12-07T08:53:33Z</time>
      </trkpt>
      <trkpt lat="37.640752" lon="-1.003477">
        <ele>54.0</ele>
        <time>2015-12-07T08:53:37Z</time>
      </trkpt>
      <trkpt lat="37.640951" lon="-1.003532">
        <ele>54.0</ele>
        <time>2015-12-07T08:53:51Z</time>
      </trkpt>
      <trkpt lat="37.641031" lon="-1.003538">
        <ele>54.0</ele>
        <time>2015-12-07T08:53:56Z</time>
      </trkpt>
      <trkpt lat="37.641091" lon="-1.003534">
        <ele>54.0</ele>
        <time>2015-12-07T08:54:04Z</time>
      </trkpt>
      <trkpt lat="37.641152" lon="-1.003552">
        <ele>54.0</ele>
        <time>2015-12-07T08:54:07Z</time>
      </trkpt>
      <trkpt lat="37.641301" lon="-1.003567">
        <ele>54.5</ele>
        <time>2015-12-07T08:54:14Z</time>
      </trkpt>
      <trkpt lat="37.641428" lon="-1.003596">
        <ele>53.5</ele>
        <time>2015-12-07T08:54:27Z</time>
      </trkpt>
      <trkpt lat="37.641480" lon="-1.003618">
        <ele>54.0</ele>
        <time>2015-12-07T08:54:31Z</time>
      </trkpt>
      <trkpt lat="37.641727" lon="-1.003639">
        <ele>54.5</ele>
        <time>2015-12-07T08:54:47Z</time>
      </trkpt>
      <trkpt lat="37.641907" lon="-1.003681">
        <ele>54.5</ele>
        <time>2015-12-07T08:55:02Z</time>
      </trkpt>
      <trkpt lat="37.642076" lon="-1.003705">
        <ele>54.9</ele>
        <time>2015-12-07T08:55:15Z</time>
      </trkpt>
      <trkpt lat="37.642293" lon="-1.003716">
        <ele>54.5</ele>
        <time>2015-12-07T08:55:31Z</time>
      </trkpt>
      <trkpt lat="37.642363" lon="-1.003721">
        <ele>54.9</ele>
        <time>2015-12-07T08:55:36Z</time>
      </trkpt>
      <trkpt lat="37.642576" lon="-1.003799">
        <ele>55.4</ele>
        <time>2015-12-07T08:55:52Z</time>
      </trkpt>
      <trkpt lat="37.642821" lon="-1.003863">
        <ele>55.9</ele>
        <time>2015-12-07T08:56:09Z</time>
      </trkpt>
      <trkpt lat="37.642836" lon="-1.003872">
        <ele>55.4</ele>
        <time>2015-12-07T08:56:10Z</time>
      </trkpt>
      <trkpt lat="37.643091" lon="-1.003932">
        <ele>55.9</ele>
        <time>2015-12-07T08:56:27Z</time>
      </trkpt>
      <trkpt lat="37.643298" lon="-1.004014">
        <ele>55.4</ele>
        <time>2015-12-07T08:56:41Z</time>
      </trkpt>
      <trkpt lat="37.643396" lon="-1.004057">
        <ele>55.9</ele>
        <time>2015-12-07T08:56:48Z</time>
      </trkpt>
      <trkpt lat="37.643646" lon="-1.004152">
        <ele>55.4</ele>
        <time>2015-12-07T08:57:06Z</time>
      </trkpt>
      <trkpt lat="37.643859" lon="-1.004218">
        <ele>55.9</ele>
        <time>2015-12-07T08:57:23Z</time>
      </trkpt>
      <trkpt lat="37.644118" lon="-1.004305">
        <ele>55.9</ele>
        <time>2015-12-07T08:57:42Z</time>
      </trkpt>
      <trkpt lat="37.644360" lon="-1.004378">
        <ele>55.9</ele>
        <time>2015-12-07T08:58:00Z</time>
      </trkpt>
      <trkpt lat="37.644550" lon="-1.004458">
        <ele>54.9</ele>
        <time>2015-12-07T08:58:15Z</time>
      </trkpt>
      <trkpt lat="37.644685" lon="-1.004498">
        <ele>54.9</ele>
        <time>2015-12-07T08:58:28Z</time>
      </trkpt>
      <trkpt lat="37.644740" lon="-1.004505">
        <ele>54.9</ele>
        <time>2015-12-07T08:58:29Z</time>
      </trkpt>
      <trkpt lat="37.644823" lon="-1.004538">
        <ele>55.4</ele>
        <time>2015-12-07T08:58:42Z</time>
      </trkpt>
      <trkpt lat="37.645007" lon="-1.004581">
        <ele>55.4</ele>
        <time>2015-12-07T08:58:58Z</time>
      </trkpt>
      <trkpt lat="37.645073" lon="-1.004692">
        <ele>54.9</ele>
        <time>2015-12-07T08:59:11Z</time>
      </trkpt>
      <trkpt lat="37.645177" lon="-1.004798">
        <ele>56.4</ele>
        <time>2015-12-07T08:59:26Z</time>
      </trkpt>
      <trkpt lat="37.645164" lon="-1.004798">
        <ele>56.4</ele>
        <time>2015-12-07T08:59:40Z</time>
      </trkpt>
      <trkpt lat="37.645164" lon="-1.004802">
        <ele>55.9</ele>
        <time>2015-12-07T08:59:56Z</time>
      </trkpt>
      <trkpt lat="37.645240" lon="-1.005044">
        <ele>56.4</ele>
        <time>2015-12-07T09:00:11Z</time>
      </trkpt>
      <trkpt lat="37.645306" lon="-1.005238">
        <ele>56.4</ele>
        <time>2015-12-07T09:00:29Z</time>
      </trkpt>
      <trkpt lat="37.645352" lon="-1.005367">
        <ele>56.4</ele>
        <time>2015-12-07T09:00:37Z</time>
      </trkpt>
      <trkpt lat="37.645439" lon="-1.005601">
        <ele>55.9</ele>
        <time>2015-12-07T09:00:53Z</time>
      </trkpt>
      <trkpt lat="37.645542" lon="-1.005873">
        <ele>56.4</ele>
        <time>2015-12-07T09:01:10Z</time>
      </trkpt>
      <trkpt lat="37.645607" lon="-1.006087">
        <ele>55.9</ele>
        <time>2015-12-07T09:01:24Z</time>
      </trkpt>
      <trkpt lat="37.645746" lon="-1.006578">
        <ele>55.4</ele>
        <time>2015-12-07T09:01:57Z</time>
      </trkpt>
      <trkpt lat="37.645726" lon="-1.006747">
        <ele>56.4</ele>
        <time>2015-12-07T09:02:10Z</time>
      </trkpt>
      <trkpt lat="37.645725" lon="-1.006777">
        <ele>55.9</ele>
        <time>2015-12-07T09:02:12Z</time>
      </trkpt>
      <trkpt lat="37.645814" lon="-1.006981">
        <ele>56.4</ele>
        <time>2015-12-07T09:02:26Z</time>
      </trkpt>
      <trkpt lat="37.645914" lon="-1.007245">
        <ele>56.4</ele>
        <time>2015-12-07T09:02:44Z</time>
      </trkpt>
      <trkpt lat="37.646018" lon="-1.007540">
        <ele>55.9</ele>
        <time>2015-12-07T09:03:03Z</time>
      </trkpt>
      <trkpt lat="37.646113" lon="-1.007767">
        <ele>55.4</ele>
        <time>2015-12-07T09:03:18Z</time>
      </trkpt>
      <trkpt lat="37.646188" lon="-1.008030">
        <ele>55.9</ele>
        <time>2015-12-07T09:03:35Z</time>
      </trkpt>
      <trkpt lat="37.646258" lon="-1.008272">
        <ele>56.9</ele>
        <time>2015-12-07T09:03:52Z</time>
      </trkpt>
      <trkpt lat="37.646357" lon="-1.008539">
        <ele>56.4</ele>
        <time>2015-12-07T09:04:09Z</time>
      </trkpt>
      <trkpt lat="37.646434" lon="-1.008770">
        <ele>56.9</ele>
        <time>2015-12-07T09:04:24Z</time>
      </trkpt>
      <trkpt lat="37.646535" lon="-1.009047">
        <ele>56.9</ele>
        <time>2015-12-07T09:04:41Z</time>
      </trkpt>
      <trkpt lat="37.646613" lon="-1.009283">
        <ele>56.9</ele>
        <time>2015-12-07T09:04:56Z</time>
      </trkpt>
      <trkpt lat="37.646686" lon="-1.009539">
        <ele>57.3</ele>
        <time>2015-12-07T09:05:12Z</time>
      </trkpt>
      <trkpt lat="37.646694" lon="-1.009582">
        <ele>57.3</ele>
        <time>2015-12-07T09:05:15Z</time>
      </trkpt>
      <trkpt lat="37.646718" lon="-1.009659">
        <ele>56.9</ele>
        <time>2015-12-07T09:05:20Z</time>
      </trkpt>
      <trkpt lat="37.646791" lon="-1.009873">
        <ele>57.3</ele>
        <time>2015-12-07T09:05:34Z</time>
      </trkpt>
      <trkpt lat="37.646796" lon="-1.009909">
        <ele>57.3</ele>
        <time>2015-12-07T09:05:36Z</time>
      </trkpt>
      <trkpt lat="37.646876" lon="-1.010138">
        <ele>56.4</ele>
        <time>2015-12-07T09:05:51Z</time>
      </trkpt>
      <trkpt lat="37.646902" lon="-1.010267">
        <ele>57.3</ele>
        <time>2015-12-07T09:05:59Z</time>
      </trkpt>
      <trkpt lat="37.646993" lon="-1.010490">
        <ele>56.9</ele>
        <time>2015-12-07T09:06:13Z</time>
      </trkpt>
      <trkpt lat="37.647061" lon="-1.010695">
        <ele>56.9</ele>
        <time>2015-12-07T09:06:27Z</time>
      </trkpt>
      <trkpt lat="37.647086" lon="-1.010739">
        <ele>56.9</ele>
        <time>2015-12-07T09:06:31Z</time>
      </trkpt>
      <trkpt lat="37.647107" lon="-1.010833">
        <ele>56.9</ele>
        <time>2015-12-07T09:06:37Z</time>
      </trkpt>
      <trkpt lat="37.647197" lon="-1.011130">
        <ele>57.8</ele>
        <time>2015-12-07T09:06:55Z</time>
      </trkpt>
      <trkpt lat="37.647289" lon="-1.011428">
        <ele>57.3</ele>
        <time>2015-12-07T09:07:12Z</time>
      </trkpt>
      <trkpt lat="37.647358" lon="-1.011617">
        <ele>57.3</ele>
        <time>2015-12-07T09:07:23Z</time>
      </trkpt>
      <trkpt lat="37.647384" lon="-1.011697">
        <ele>58.3</ele>
        <time>2015-12-07T09:07:36Z</time>
      </trkpt>
      <trkpt lat="37.647363" lon="-1.011693">
        <ele>57.8</ele>
        <time>2015-12-07T09:07:47Z</time>
      </trkpt>
      <trkpt lat="37.647396" lon="-1.011749">
        <ele>57.3</ele>
        <time>2015-12-07T09:07:58Z</time>
      </trkpt>
      <trkpt lat="37.647398" lon="-1.011795">
        <ele>57.8</ele>
        <time>2015-12-07T09:08:13Z</time>
      </trkpt>
      <trkpt lat="37.647403" lon="-1.011790">
        <ele>57.3</ele>
        <time>2015-12-07T09:08:28Z</time>
      </trkpt>
      <trkpt lat="37.647401" lon="-1.011772">
        <ele>57.3</ele>
        <time>2015-12-07T09:08:35Z</time>
      </trkpt>
      <trkpt lat="37.647399" lon="-1.011774">
        <ele>57.3</ele>
        <time>2015-12-07T09:08:48Z</time>
      </trkpt>
      <trkpt lat="37.647438" lon="-1.011851">
        <ele>57.8</ele>
        <time>2015-12-07T09:08:58Z</time>
      </trkpt>
      <trkpt lat="37.647433" lon="-1.011875">
        <ele>57.8</ele>
        <time>2015-12-07T09:09:00Z</time>
      </trkpt>
      <trkpt lat="37.647455" lon="-1.011876">
        <ele>55.9</ele>
        <time>2015-12-07T09:09:16Z</time>
      </trkpt>
      <trkpt lat="37.647495" lon="-1.011910">
        <ele>56.9</ele>
        <time>2015-12-07T09:09:39Z</time>
      </trkpt>
      <trkpt lat="37.647507" lon="-1.011981">
        <ele>56.4</ele>
        <time>2015-12-07T09:09:53Z</time>
      </trkpt>
      <trkpt lat="37.647503" lon="-1.012002">
        <ele>56.9</ele>
        <time>2015-12-07T09:09:59Z</time>
      </trkpt>
      <trkpt lat="37.647512" lon="-1.012031">
        <ele>56.4</ele>
        <time>2015-12-07T09:10:01Z</time>
      </trkpt>
      <trkpt lat="37.647522" lon="-1.012091">
        <ele>56.9</ele>
        <time>2015-12-07T09:10:05Z</time>
      </trkpt>
      <trkpt lat="37.647596" lon="-1.012323">
        <ele>57.3</ele>
        <time>2015-12-07T09:10:22Z</time>
      </trkpt>
      <trkpt lat="37.647671" lon="-1.012512">
        <ele>57.3</ele>
        <time>2015-12-07T09:10:35Z</time>
      </trkpt>
      <trkpt lat="37.647722" lon="-1.012644">
        <ele>57.3</ele>
        <time>2015-12-07T09:10:44Z</time>
      </trkpt>
      <trkpt lat="37.647820" lon="-1.012941">
        <ele>57.8</ele>
        <time>2015-12-07T09:11:04Z</time>
      </trkpt>
      <trkpt lat="37.647926" lon="-1.013236">
        <ele>57.3</ele>
        <time>2015-12-07T09:11:23Z</time>
      </trkpt>
      <trkpt lat="37.648029" lon="-1.013547">
        <ele>57.3</ele>
        <time>2015-12-07T09:11:43Z</time>
      </trkpt>
      <trkpt lat="37.648123" lon="-1.013823">
        <ele>56.4</ele>
        <time>2015-12-07T09:12:01Z</time>
      </trkpt>
      <trkpt lat="37.648219" lon="-1.014058">
        <ele>56.9</ele>
        <time>2015-12-07T09:12:18Z</time>
      </trkpt>
      <trkpt lat="37.648295" lon="-1.014295">
        <ele>56.9</ele>
        <time>2015-12-07T09:12:34Z</time>
      </trkpt>
      <trkpt lat="37.648402" lon="-1.014589">
        <ele>56.9</ele>
        <time>2015-12-07T09:12:53Z</time>
      </trkpt>
      <trkpt lat="37.648476" lon="-1.014846">
        <ele>57.8</ele>
        <time>2015-12-07T09:13:10Z</time>
      </trkpt>
      <trkpt lat="37.648574" lon="-1.015128">
        <ele>57.8</ele>
        <time>2015-12-07T09:13:28Z</time>
      </trkpt>
      <trkpt lat="37.648662" lon="-1.015412">
        <ele>57.3</ele>
        <time>2015-12-07T09:13:46Z</time>
      </trkpt>
      <trkpt lat="37.648755" lon="-1.015665">
        <ele>56.9</ele>
        <time>2015-12-07T09:14:01Z</time>
      </trkpt>
      <trkpt lat="37.648873" lon="-1.015934">
        <ele>56.9</ele>
        <time>2015-12-07T09:14:19Z</time>
      </trkpt>
      <trkpt lat="37.648996" lon="-1.016296">
        <ele>57.8</ele>
        <time>2015-12-07T09:14:41Z</time>
      </trkpt>
      <trkpt lat="37.649095" lon="-1.016552">
        <ele>58.3</ele>
        <time>2015-12-07T09:14:58Z</time>
      </trkpt>
      <trkpt lat="37.649177" lon="-1.016732">
        <ele>57.3</ele>
        <time>2015-12-07T09:15:10Z</time>
      </trkpt>
      <trkpt lat="37.649204" lon="-1.016786">
        <ele>58.3</ele>
        <time>2015-12-07T09:15:14Z</time>
      </trkpt>
      <trkpt lat="37.649323" lon="-1.017051">
        <ele>58.3</ele>
        <time>2015-12-07T09:15:31Z</time>
      </trkpt>
      <trkpt lat="37.649462" lon="-1.017306">
        <ele>57.8</ele>
        <time>2015-12-07T09:15:49Z</time>
      </trkpt>
      <trkpt lat="37.649598" lon="-1.017453">
        <ele>58.8</ele>
        <time>2015-12-07T09:16:03Z</time>
      </trkpt>
      <trkpt lat="37.649740" lon="-1.017675">
        <ele>58.8</ele>
        <time>2015-12-07T09:16:20Z</time>
      </trkpt>
      <trkpt lat="37.649856" lon="-1.017842">
        <ele>58.3</ele>
        <time>2015-12-07T09:16:33Z</time>
      </trkpt>
      <trkpt lat="37.649980" lon="-1.018092">
        <ele>58.3</ele>
        <time>2015-12-07T09:16:50Z</time>
      </trkpt>
      <trkpt lat="37.650047" lon="-1.018193">
        <ele>58.3</ele>
        <time>2015-12-07T09:16:58Z</time>
      </trkpt>
      <trkpt lat="37.650147" lon="-1.018450">
        <ele>59.7</ele>
        <time>2015-12-07T09:17:15Z</time>
      </trkpt>
      <trkpt lat="37.650286" lon="-1.018644">
        <ele>59.3</ele>
        <time>2015-12-07T09:17:32Z</time>
      </trkpt>
      <trkpt lat="37.650440" lon="-1.018822">
        <ele>59.3</ele>
        <time>2015-12-07T09:17:48Z</time>
      </trkpt>
      <trkpt lat="37.650512" lon="-1.018881">
        <ele>59.3</ele>
        <time>2015-12-07T09:17:54Z</time>
      </trkpt>
      <trkpt lat="37.650665" lon="-1.019128">
        <ele>59.3</ele>
        <time>2015-12-07T09:18:12Z</time>
      </trkpt>
      <trkpt lat="37.650820" lon="-1.019346">
        <ele>59.7</ele>
        <time>2015-12-07T09:18:29Z</time>
      </trkpt>
      <trkpt lat="37.650981" lon="-1.019565">
        <ele>60.7</ele>
        <time>2015-12-07T09:18:46Z</time>
      </trkpt>
      <trkpt lat="37.651131" lon="-1.019757">
        <ele>60.2</ele>
        <time>2015-12-07T09:19:01Z</time>
      </trkpt>
      <trkpt lat="37.651274" lon="-1.019942">
        <ele>60.7</ele>
        <time>2015-12-07T09:19:16Z</time>
      </trkpt>
      <trkpt lat="37.651306" lon="-1.019998">
        <ele>60.7</ele>
        <time>2015-12-07T09:19:20Z</time>
      </trkpt>
      <trkpt lat="37.651488" lon="-1.020238">
        <ele>61.2</ele>
        <time>2015-12-07T09:19:39Z</time>
      </trkpt>
      <trkpt lat="37.651648" lon="-1.020460">
        <ele>61.2</ele>
        <time>2015-12-07T09:19:57Z</time>
      </trkpt>
      <trkpt lat="37.651786" lon="-1.020631">
        <ele>60.7</ele>
        <time>2015-12-07T09:20:12Z</time>
      </trkpt>
      <trkpt lat="37.651826" lon="-1.020673">
        <ele>61.2</ele>
        <time>2015-12-07T09:20:16Z</time>
      </trkpt>
      <trkpt lat="37.651895" lon="-1.020752">
        <ele>61.2</ele>
        <time>2015-12-07T09:20:23Z</time>
      </trkpt>
      <trkpt lat="37.652027" lon="-1.020913">
        <ele>60.7</ele>
        <time>2015-12-07T09:20:37Z</time>
      </trkpt>
      <trkpt lat="37.652059" lon="-1.020948">
        <ele>60.7</ele>
        <time>2015-12-07T09:20:40Z</time>
      </trkpt>
      <trkpt lat="37.652095" lon="-1.020984">
        <ele>60.7</ele>
        <time>2015-12-07T09:20:44Z</time>
      </trkpt>
      <trkpt lat="37.652113" lon="-1.021009">
        <ele>60.7</ele>
        <time>2015-12-07T09:20:46Z</time>
      </trkpt>
      <trkpt lat="37.652162" lon="-1.021060">
        <ele>60.7</ele>
        <time>2015-12-07T09:20:51Z</time>
      </trkpt>
      <trkpt lat="37.652319" lon="-1.021261">
        <ele>61.2</ele>
        <time>2015-12-07T09:21:08Z</time>
      </trkpt>
      <trkpt lat="37.652382" lon="-1.021353">
        <ele>61.2</ele>
        <time>2015-12-07T09:21:15Z</time>
      </trkpt>
      <trkpt lat="37.652417" lon="-1.021392">
        <ele>61.2</ele>
        <time>2015-12-07T09:21:19Z</time>
      </trkpt>
      <trkpt lat="37.652569" lon="-1.021587">
        <ele>61.2</ele>
        <time>2015-12-07T09:21:35Z</time>
      </trkpt>
      <trkpt lat="37.652601" lon="-1.021630">
        <ele>61.2</ele>
        <time>2015-12-07T09:21:39Z</time>
      </trkpt>
      <trkpt lat="37.652781" lon="-1.021811">
        <ele>60.7</ele>
        <time>2015-12-07T09:21:55Z</time>
      </trkpt>
      <trkpt lat="37.652915" lon="-1.021990">
        <ele>61.7</ele>
        <time>2015-12-07T09:22:10Z</time>
      </trkpt>
      <trkpt lat="37.653077" lon="-1.022202">
        <ele>62.1</ele>
        <time>2015-12-07T09:22:27Z</time>
      </trkpt>
      <trkpt lat="37.653173" lon="-1.022349">
        <ele>62.1</ele>
        <time>2015-12-07T09:22:38Z</time>
      </trkpt>
      <trkpt lat="37.653272" lon="-1.022453">
        <ele>62.1</ele>
        <time>2015-12-07T09:22:47Z</time>
      </trkpt>
      <trkpt lat="37.653451" lon="-1.022669">
        <ele>62.6</ele>
        <time>2015-12-07T09:23:05Z</time>
      </trkpt>
      <trkpt lat="37.653653" lon="-1.022921">
        <ele>62.1</ele>
        <time>2015-12-07T09:23:25Z</time>
      </trkpt>
      <trkpt lat="37.653816" lon="-1.023144">
        <ele>62.6</ele>
        <time>2015-12-07T09:23:42Z</time>
      </trkpt>
      <trkpt lat="37.653963" lon="-1.023346">
        <ele>62.6</ele>
        <time>2015-12-07T09:23:57Z</time>
      </trkpt>
      <trkpt lat="37.654119" lon="-1.023560">
        <ele>63.1</ele>
        <time>2015-12-07T09:24:14Z</time>
      </trkpt>
      <trkpt lat="37.654280" lon="-1.023731">
        <ele>62.1</ele>
        <time>2015-12-07T09:24:29Z</time>
      </trkpt>
      <trkpt lat="37.654394" lon="-1.023845">
        <ele>61.7</ele>
        <time>2015-12-07T09:24:40Z</time>
      </trkpt>
      <trkpt lat="37.654564" lon="-1.024008">
        <ele>63.1</ele>
        <time>2015-12-07T09:24:58Z</time>
      </trkpt>
      <trkpt lat="37.654636" lon="-1.024031">
        <ele>62.1</ele>
        <time>2015-12-07T09:25:04Z</time>
      </trkpt>
      <trkpt lat="37.654703" lon="-1.024064">
        <ele>62.6</ele>
        <time>2015-12-07T09:25:10Z</time>
      </trkpt>
      <trkpt lat="37.654908" lon="-1.024067">
        <ele>62.6</ele>
        <time>2015-12-07T09:25:27Z</time>
      </trkpt>
      <trkpt lat="37.655106" lon="-1.024037">
        <ele>62.6</ele>
        <time>2015-12-07T09:25:43Z</time>
      </trkpt>
      <trkpt lat="37.655332" lon="-1.024018">
        <ele>62.6</ele>
        <time>2015-12-07T09:26:00Z</time>
      </trkpt>
      <trkpt lat="37.655574" lon="-1.023989">
        <ele>62.1</ele>
        <time>2015-12-07T09:26:18Z</time>
      </trkpt>
      <trkpt lat="37.655836" lon="-1.023942">
        <ele>62.1</ele>
        <time>2015-12-07T09:26:37Z</time>
      </trkpt>
      <trkpt lat="37.656038" lon="-1.023952">
        <ele>62.1</ele>
        <time>2015-12-07T09:26:54Z</time>
      </trkpt>
      <trkpt lat="37.656274" lon="-1.023946">
        <ele>61.7</ele>
        <time>2015-12-07T09:27:10Z</time>
      </trkpt>
      <trkpt lat="37.656526" lon="-1.023954">
        <ele>61.7</ele>
        <time>2015-12-07T09:27:28Z</time>
      </trkpt>
      <trkpt lat="37.656521" lon="-1.023994">
        <ele>60.7</ele>
        <time>2015-12-07T09:31:18Z</time>
      </trkpt>
      <trkpt lat="37.656489" lon="-1.024236">
        <ele>60.2</ele>
        <time>2015-12-07T09:31:33Z</time>
      </trkpt>
      <trkpt lat="37.656561" lon="-1.024747">
        <ele>61.7</ele>
        <time>2015-12-07T09:32:04Z</time>
      </trkpt>
      <trkpt lat="37.656559" lon="-1.024772">
        <ele>62.1</ele>
        <time>2015-12-07T09:32:22Z</time>
      </trkpt>
      <trkpt lat="37.656550" lon="-1.024788">
        <ele>62.1</ele>
        <time>2015-12-07T09:32:24Z</time>
      </trkpt>
      <trkpt lat="37.656560" lon="-1.024808">
        <ele>62.1</ele>
        <time>2015-12-07T09:32:26Z</time>
      </trkpt>
      <trkpt lat="37.656579" lon="-1.024928">
        <ele>61.7</ele>
        <time>2015-12-07T09:32:33Z</time>
      </trkpt>
      <trkpt lat="37.656787" lon="-1.025014">
        <ele>62.1</ele>
        <time>2015-12-07T09:32:50Z</time>
      </trkpt>
      <trkpt lat="37.656854" lon="-1.025031">
        <ele>62.1</ele>
        <time>2015-12-07T09:32:55Z</time>
      </trkpt>
      <trkpt lat="37.657026" lon="-1.025048">
        <ele>62.1</ele>
        <time>2015-12-07T09:33:09Z</time>
      </trkpt>
      <trkpt lat="37.657276" lon="-1.025093">
        <ele>62.1</ele>
        <time>2015-12-07T09:33:27Z</time>
      </trkpt>
      <trkpt lat="37.657478" lon="-1.025124">
        <ele>62.1</ele>
        <time>2015-12-07T09:33:43Z</time>
      </trkpt>
      <trkpt lat="37.657695" lon="-1.025175">
        <ele>62.6</ele>
        <time>2015-12-07T09:34:00Z</time>
      </trkpt>
      <trkpt lat="37.657906" lon="-1.025232">
        <ele>63.1</ele>
        <time>2015-12-07T09:34:16Z</time>
      </trkpt>
      <trkpt lat="37.658093" lon="-1.025262">
        <ele>62.6</ele>
        <time>2015-12-07T09:34:30Z</time>
      </trkpt>
      <trkpt lat="37.658305" lon="-1.025299">
        <ele>62.6</ele>
        <time>2015-12-07T09:34:47Z</time>
      </trkpt>
      <trkpt lat="37.658528" lon="-1.025361">
        <ele>62.6</ele>
        <time>2015-12-07T09:35:04Z</time>
      </trkpt>
      <trkpt lat="37.658736" lon="-1.025417">
        <ele>62.1</ele>
        <time>2015-12-07T09:35:21Z</time>
      </trkpt>
      <trkpt lat="37.658969" lon="-1.025457">
        <ele>61.7</ele>
        <time>2015-12-07T09:35:39Z</time>
      </trkpt>
      <trkpt lat="37.659091" lon="-1.025513">
        <ele>61.7</ele>
        <time>2015-12-07T09:35:51Z</time>
      </trkpt>
      <trkpt lat="37.659152" lon="-1.025520">
        <ele>61.7</ele>
        <time>2015-12-07T09:35:56Z</time>
      </trkpt>
      <trkpt lat="37.659289" lon="-1.025534">
        <ele>62.6</ele>
        <time>2015-12-07T09:36:07Z</time>
      </trkpt>
      <trkpt lat="37.659548" lon="-1.025577">
        <ele>62.1</ele>
        <time>2015-12-07T09:36:26Z</time>
      </trkpt>
      <trkpt lat="37.659768" lon="-1.025605">
        <ele>61.7</ele>
        <time>2015-12-07T09:36:44Z</time>
      </trkpt>
      <trkpt lat="37.659779" lon="-1.025604">
        <ele>62.1</ele>
        <time>2015-12-07T09:36:45Z</time>
      </trkpt>
      <trkpt lat="37.659887" lon="-1.025622">
        <ele>62.1</ele>
        <time>2015-12-07T09:36:54Z</time>
      </trkpt>
      <trkpt lat="37.660174" lon="-1.025664">
        <ele>63.1</ele>
        <time>2015-12-07T09:37:14Z</time>
      </trkpt>
      <trkpt lat="37.660406" lon="-1.025641">
        <ele>63.1</ele>
        <time>2015-12-07T09:37:30Z</time>
      </trkpt>
      <trkpt lat="37.660652" lon="-1.025632">
        <ele>62.6</ele>
        <time>2015-12-07T09:37:47Z</time>
      </trkpt>
      <trkpt lat="37.660921" lon="-1.025658">
        <ele>62.6</ele>
        <time>2015-12-07T09:38:05Z</time>
      </trkpt>
      <trkpt lat="37.661186" lon="-1.025628">
        <ele>63.1</ele>
        <time>2015-12-07T09:38:24Z</time>
      </trkpt>
      <trkpt lat="37.661477" lon="-1.025619">
        <ele>62.1</ele>
        <time>2015-12-07T09:38:44Z</time>
      </trkpt>
      <trkpt lat="37.661652" lon="-1.025585">
        <ele>63.1</ele>
        <time>2015-12-07T09:38:58Z</time>
      </trkpt>
      <trkpt lat="37.661797" lon="-1.025601">
        <ele>63.1</ele>
        <time>2015-12-07T09:39:11Z</time>
      </trkpt>
      <trkpt lat="37.662037" lon="-1.025579">
        <ele>62.1</ele>
        <time>2015-12-07T09:39:28Z</time>
      </trkpt>
      <trkpt lat="37.662212" lon="-1.025555">
        <ele>62.1</ele>
        <time>2015-12-07T09:39:40Z</time>
      </trkpt>
      <trkpt lat="37.662445" lon="-1.025624">
        <ele>61.7</ele>
        <time>2015-12-07T09:39:57Z</time>
      </trkpt>
      <trkpt lat="37.662486" lon="-1.025642">
        <ele>62.1</ele>
        <time>2015-12-07T09:40:00Z</time>
      </trkpt>
      <trkpt lat="37.662567" lon="-1.025671">
        <ele>62.1</ele>
        <time>2015-12-07T09:40:06Z</time>
      </trkpt>
      <trkpt lat="37.662779" lon="-1.025867">
        <ele>63.1</ele>
        <time>2015-12-07T09:40:25Z</time>
      </trkpt>
      <trkpt lat="37.662939" lon="-1.026083">
        <ele>64.1</ele>
        <time>2015-12-07T09:40:40Z</time>
      </trkpt>
      <trkpt lat="37.662978" lon="-1.026164">
        <ele>63.6</ele>
        <time>2015-12-07T09:40:53Z</time>
      </trkpt>
      <trkpt lat="37.663008" lon="-1.026188">
        <ele>63.6</ele>
        <time>2015-12-07T09:41:14Z</time>
      </trkpt>
      <trkpt lat="37.663045" lon="-1.026225">
        <ele>63.6</ele>
        <time>2015-12-07T09:41:20Z</time>
      </trkpt>
      <trkpt lat="37.663130" lon="-1.026243">
        <ele>64.1</ele>
        <time>2015-12-07T09:41:26Z</time>
      </trkpt>
      <trkpt lat="37.663340" lon="-1.026715">
        <ele>63.6</ele>
        <time>2015-12-07T09:45:06Z</time>
      </trkpt>
      <trkpt lat="37.663342" lon="-1.026785">
        <ele>64.1</ele>
        <time>2015-12-07T09:45:10Z</time>
      </trkpt>
      <trkpt lat="37.663454" lon="-1.027039">
        <ele>64.6</ele>
        <time>2015-12-07T09:45:29Z</time>
      </trkpt>
      <trkpt lat="37.663599" lon="-1.027133">
        <ele>65.0</ele>
        <time>2015-12-07T09:45:41Z</time>
      </trkpt>
      <trkpt lat="37.663864" lon="-1.027092">
        <ele>64.1</ele>
        <time>2015-12-07T09:45:57Z</time>
      </trkpt>
      <trkpt lat="37.664148" lon="-1.027039">
        <ele>64.1</ele>
        <time>2015-12-07T09:46:17Z</time>
      </trkpt>
      <trkpt lat="37.664229" lon="-1.027009">
        <ele>64.1</ele>
        <time>2015-12-07T09:46:23Z</time>
      </trkpt>
      <trkpt lat="37.664302" lon="-1.027019">
        <ele>64.1</ele>
        <time>2015-12-07T09:46:34Z</time>
      </trkpt>
      <trkpt lat="37.664324" lon="-1.027021">
        <ele>64.1</ele>
        <time>2015-12-07T09:47:03Z</time>
      </trkpt>
      <trkpt lat="37.664446" lon="-1.027086">
        <ele>64.6</ele>
        <time>2015-12-07T10:00:13Z</time>
      </trkpt>
      <trkpt lat="37.664480" lon="-1.027129">
        <ele>65.0</ele>
        <time>2015-12-07T10:00:30Z</time>
      </trkpt>
      <trkpt lat="37.664588" lon="-1.027173">
        <ele>65.0</ele>
        <time>2015-12-07T10:00:43Z</time>
      </trkpt>
      <trkpt lat="37.664625" lon="-1.027205">
        <ele>65.0</ele>
        <time>2015-12-07T10:00:49Z</time>
      </trkpt>
      <trkpt lat="37.664645" lon="-1.027214">
        <ele>65.0</ele>
        <time>2015-12-07T10:00:51Z</time>
      </trkpt>
      <trkpt lat="37.664662" lon="-1.027232">
        <ele>65.0</ele>
        <time>2015-12-07T10:00:53Z</time>
      </trkpt>
      <trkpt lat="37.664695" lon="-1.027256">
        <ele>65.5</ele>
        <time>2015-12-07T10:00:57Z</time>
      </trkpt>
      <trkpt lat="37.664893" lon="-1.027354">
        <ele>65.5</ele>
        <time>2015-12-07T10:01:14Z</time>
      </trkpt>
      <trkpt lat="37.665076" lon="-1.027447">
        <ele>64.6</ele>
        <time>2015-12-07T10:01:28Z</time>
      </trkpt>
      <trkpt lat="37.665255" lon="-1.027553">
        <ele>65.0</ele>
        <time>2015-12-07T10:01:43Z</time>
      </trkpt>
      <trkpt lat="37.665441" lon="-1.027673">
        <ele>65.0</ele>
        <time>2015-12-07T10:01:58Z</time>
      </trkpt>
      <trkpt lat="37.665682" lon="-1.027802">
        <ele>65.0</ele>
        <time>2015-12-07T10:02:17Z</time>
      </trkpt>
      <trkpt lat="37.665696" lon="-1.027807">
        <ele>65.0</ele>
        <time>2015-12-07T10:02:18Z</time>
      </trkpt>
      <trkpt lat="37.665903" lon="-1.027913">
        <ele>64.6</ele>
        <time>2015-12-07T10:02:34Z</time>
      </trkpt>
      <trkpt lat="37.666033" lon="-1.027975">
        <ele>64.6</ele>
        <time>2015-12-07T10:02:44Z</time>
      </trkpt>
      <trkpt lat="37.666089" lon="-1.027984">
        <ele>65.0</ele>
        <time>2015-12-07T10:02:49Z</time>
      </trkpt>
      <trkpt lat="37.666170" lon="-1.028035">
        <ele>65.0</ele>
        <time>2015-12-07T10:03:01Z</time>
      </trkpt>
      <trkpt lat="37.666188" lon="-1.028043">
        <ele>65.0</ele>
        <time>2015-12-07T10:03:03Z</time>
      </trkpt>
      <trkpt lat="37.666341" lon="-1.028132">
        <ele>65.0</ele>
        <time>2015-12-07T10:03:45Z</time>
      </trkpt>
      <trkpt lat="37.666516" lon="-1.028262">
        <ele>65.5</ele>
        <time>2015-12-07T10:04:01Z</time>
      </trkpt>
      <trkpt lat="37.666587" lon="-1.028295">
        <ele>65.0</ele>
        <time>2015-12-07T10:04:07Z</time>
      </trkpt>
      <trkpt lat="37.666630" lon="-1.028328">
        <ele>65.0</ele>
        <time>2015-12-07T10:04:11Z</time>
      </trkpt>
      <trkpt lat="37.666737" lon="-1.028355">
        <ele>65.5</ele>
        <time>2015-12-07T10:04:19Z</time>
      </trkpt>
      <trkpt lat="37.666923" lon="-1.028482">
        <ele>65.5</ele>
        <time>2015-12-07T10:04:35Z</time>
      </trkpt>
      <trkpt lat="37.667172" lon="-1.028619">
        <ele>64.6</ele>
        <time>2015-12-07T10:04:55Z</time>
      </trkpt>
      <trkpt lat="37.667275" lon="-1.028681">
        <ele>65.0</ele>
        <time>2015-12-07T10:05:04Z</time>
      </trkpt>
      <trkpt lat="37.667479" lon="-1.028786">
        <ele>64.1</ele>
        <time>2015-12-07T10:05:22Z</time>
      </trkpt>
      <trkpt lat="37.667665" lon="-1.028900">
        <ele>64.6</ele>
        <time>2015-12-07T10:05:38Z</time>
      </trkpt>
      <trkpt lat="37.667865" lon="-1.029011">
        <ele>64.1</ele>
        <time>2015-12-07T10:05:55Z</time>
      </trkpt>
      <trkpt lat="37.668049" lon="-1.029116">
        <ele>64.1</ele>
        <time>2015-12-07T10:06:11Z</time>
      </trkpt>
      <trkpt lat="37.668275" lon="-1.029238">
        <ele>64.6</ele>
        <time>2015-12-07T10:06:29Z</time>
      </trkpt>
      <trkpt lat="37.668478" lon="-1.029358">
        <ele>64.6</ele>
        <time>2015-12-07T10:06:46Z</time>
      </trkpt>
      <trkpt lat="37.668675" lon="-1.029464">
        <ele>64.6</ele>
        <time>2015-12-07T10:07:02Z</time>
      </trkpt>
      <trkpt lat="37.668880" lon="-1.029578">
        <ele>65.0</ele>
        <time>2015-12-07T10:07:19Z</time>
      </trkpt>
      <trkpt lat="37.669066" lon="-1.029662">
        <ele>65.0</ele>
        <time>2015-12-07T10:07:34Z</time>
      </trkpt>
      <trkpt lat="37.669159" lon="-1.029735">
        <ele>65.5</ele>
        <time>2015-12-07T10:07:44Z</time>
      </trkpt>
      <trkpt lat="37.669344" lon="-1.029833">
        <ele>65.0</ele>
        <time>2015-12-07T10:08:00Z</time>
      </trkpt>
      <trkpt lat="37.669566" lon="-1.029928">
        <ele>65.5</ele>
        <time>2015-12-07T10:08:18Z</time>
      </trkpt>
      <trkpt lat="37.669827" lon="-1.030025">
        <ele>65.0</ele>
        <time>2015-12-07T10:08:38Z</time>
      </trkpt>
      <trkpt lat="37.670060" lon="-1.030121">
        <ele>64.1</ele>
        <time>2015-12-07T10:08:57Z</time>
      </trkpt>
      <trkpt lat="37.670359" lon="-1.030249">
        <ele>63.6</ele>
        <time>2015-12-07T10:09:20Z</time>
      </trkpt>
      <trkpt lat="37.670642" lon="-1.030339">
        <ele>63.1</ele>
        <time>2015-12-07T10:09:41Z</time>
      </trkpt>
      <trkpt lat="37.670931" lon="-1.030439">
        <ele>63.1</ele>
        <time>2015-12-07T10:10:03Z</time>
      </trkpt>
      <trkpt lat="37.671183" lon="-1.030529">
        <ele>62.6</ele>
        <time>2015-12-07T10:10:22Z</time>
      </trkpt>
      <trkpt lat="37.671369" lon="-1.030595">
        <ele>63.1</ele>
        <time>2015-12-07T10:10:37Z</time>
      </trkpt>
      <trkpt lat="37.671436" lon="-1.030629">
        <ele>62.6</ele>
        <time>2015-12-07T10:10:43Z</time>
      </trkpt>
      <trkpt lat="37.671496" lon="-1.030636">
        <ele>62.6</ele>
        <time>2015-12-07T10:10:47Z</time>
      </trkpt>
      <trkpt lat="37.671778" lon="-1.030737">
        <ele>62.6</ele>
        <time>2015-12-07T10:11:08Z</time>
      </trkpt>
      <trkpt lat="37.672077" lon="-1.030827">
        <ele>63.1</ele>
        <time>2015-12-07T10:11:30Z</time>
      </trkpt>
      <trkpt lat="37.672363" lon="-1.030894">
        <ele>63.6</ele>
        <time>2015-12-07T10:11:51Z</time>
      </trkpt>
      <trkpt lat="37.672606" lon="-1.030948">
        <ele>63.6</ele>
        <time>2015-12-07T10:12:09Z</time>
      </trkpt>
      <trkpt lat="37.672861" lon="-1.030971">
        <ele>64.1</ele>
        <time>2015-12-07T10:12:28Z</time>
      </trkpt>
      <trkpt lat="37.673104" lon="-1.031001">
        <ele>64.1</ele>
        <time>2015-12-07T10:12:46Z</time>
      </trkpt>
      <trkpt lat="37.673306" lon="-1.031017">
        <ele>64.1</ele>
        <time>2015-12-07T10:13:01Z</time>
      </trkpt>
      <trkpt lat="37.673593" lon="-1.031037">
        <ele>65.0</ele>
        <time>2015-12-07T10:13:23Z</time>
      </trkpt>
      <trkpt lat="37.673823" lon="-1.031055">
        <ele>64.6</ele>
        <time>2015-12-07T10:13:42Z</time>
      </trkpt>
      <trkpt lat="37.673840" lon="-1.031055">
        <ele>65.0</ele>
        <time>2015-12-07T10:14:09Z</time>
      </trkpt>
      <trkpt lat="37.674088" lon="-1.031082">
        <ele>64.6</ele>
        <time>2015-12-07T10:14:30Z</time>
      </trkpt>
      <trkpt lat="37.674357" lon="-1.031112">
        <ele>64.1</ele>
        <time>2015-12-07T10:14:52Z</time>
      </trkpt>
      <trkpt lat="37.674676" lon="-1.031131">
        <ele>63.6</ele>
        <time>2015-12-07T10:15:13Z</time>
      </trkpt>
      <trkpt lat="37.674800" lon="-1.031140">
        <ele>63.1</ele>
        <time>2015-12-07T10:15:22Z</time>
      </trkpt>
      <trkpt lat="37.674869" lon="-1.031158">
        <ele>63.1</ele>
        <time>2015-12-07T10:15:39Z</time>
      </trkpt>
      <trkpt lat="37.675152" lon="-1.031132">
        <ele>63.6</ele>
        <time>2015-12-07T10:15:57Z</time>
      </trkpt>
      <trkpt lat="37.675525" lon="-1.031152">
        <ele>63.1</ele>
        <time>2015-12-07T10:16:21Z</time>
      </trkpt>
      <trkpt lat="37.675659" lon="-1.031161">
        <ele>63.6</ele>
        <time>2015-12-07T10:16:30Z</time>
      </trkpt>
      <trkpt lat="37.675723" lon="-1.031164">
        <ele>63.1</ele>
        <time>2015-12-07T10:16:52Z</time>
      </trkpt>
      <trkpt lat="37.676072" lon="-1.031178">
        <ele>63.1</ele>
        <time>2015-12-07T10:17:14Z</time>
      </trkpt>
      <trkpt lat="37.676299" lon="-1.031192">
        <ele>63.1</ele>
        <time>2015-12-07T10:17:28Z</time>
      </trkpt>
      <trkpt lat="37.676491" lon="-1.031207">
        <ele>63.6</ele>
        <time>2015-12-07T10:17:43Z</time>
      </trkpt>
      <trkpt lat="37.676733" lon="-1.031221">
        <ele>63.1</ele>
        <time>2015-12-07T10:18:00Z</time>
      </trkpt>
      <trkpt lat="37.676991" lon="-1.031251">
        <ele>62.6</ele>
        <time>2015-12-07T10:18:20Z</time>
      </trkpt>
      <trkpt lat="37.677274" lon="-1.031256">
        <ele>63.6</ele>
        <time>2015-12-07T10:18:40Z</time>
      </trkpt>
      <trkpt lat="37.677533" lon="-1.031275">
        <ele>63.6</ele>
        <time>2015-12-07T10:18:59Z</time>
      </trkpt>
      <trkpt lat="37.677789" lon="-1.031289">
        <ele>63.6</ele>
        <time>2015-12-07T10:19:18Z</time>
      </trkpt>
      <trkpt lat="37.677870" lon="-1.031307">
        <ele>63.6</ele>
        <time>2015-12-07T10:19:24Z</time>
      </trkpt>
      <trkpt lat="37.678149" lon="-1.031328">
        <ele>63.6</ele>
        <time>2015-12-07T10:19:44Z</time>
      </trkpt>
      <trkpt lat="37.678382" lon="-1.031328">
        <ele>63.6</ele>
        <time>2015-12-07T10:20:00Z</time>
      </trkpt>
      <trkpt lat="37.678589" lon="-1.031333">
        <ele>63.6</ele>
        <time>2015-12-07T10:20:14Z</time>
      </trkpt>
      <trkpt lat="37.678609" lon="-1.031329">
        <ele>63.6</ele>
        <time>2015-12-07T10:20:16Z</time>
      </trkpt>
      <trkpt lat="37.678714" lon="-1.031287">
        <ele>63.1</ele>
        <time>2015-12-07T10:20:41Z</time>
      </trkpt>
      <trkpt lat="37.678978" lon="-1.031323">
        <ele>64.1</ele>
        <time>2015-12-07T10:20:58Z</time>
      </trkpt>
      <trkpt lat="37.679269" lon="-1.031294">
        <ele>64.1</ele>
        <time>2015-12-07T10:21:17Z</time>
      </trkpt>
      <trkpt lat="37.679483" lon="-1.031237">
        <ele>63.6</ele>
        <time>2015-12-07T10:23:28Z</time>
      </trkpt>
      <trkpt lat="37.679812" lon="-1.031178">
        <ele>64.1</ele>
        <time>2015-12-07T10:23:49Z</time>
      </trkpt>
      <trkpt lat="37.680142" lon="-1.031112">
        <ele>65.0</ele>
        <time>2015-12-07T10:24:11Z</time>
      </trkpt>
      <trkpt lat="37.680291" lon="-1.031085">
        <ele>66.0</ele>
        <time>2015-12-07T10:24:21Z</time>
      </trkpt>
      <trkpt lat="37.680349" lon="-1.031076">
        <ele>65.5</ele>
        <time>2015-12-07T10:24:25Z</time>
      </trkpt>
      <trkpt lat="37.680656" lon="-1.030998">
        <ele>65.5</ele>
        <time>2015-12-07T10:24:46Z</time>
      </trkpt>
      <trkpt lat="37.680977" lon="-1.030956">
        <ele>65.0</ele>
        <time>2015-12-07T10:25:07Z</time>
      </trkpt>
      <trkpt lat="37.681339" lon="-1.030870">
        <ele>65.5</ele>
        <time>2015-12-07T10:25:32Z</time>
      </trkpt>
      <trkpt lat="37.681659" lon="-1.030813">
        <ele>64.6</ele>
        <time>2015-12-07T10:25:54Z</time>
      </trkpt>
      <trkpt lat="37.681975" lon="-1.030739">
        <ele>64.6</ele>
        <time>2015-12-07T10:26:16Z</time>
      </trkpt>
      <trkpt lat="37.682297" lon="-1.030696">
        <ele>64.1</ele>
        <time>2015-12-07T10:26:39Z</time>
      </trkpt>
      <trkpt lat="37.682595" lon="-1.030620">
        <ele>64.1</ele>
        <time>2015-12-07T10:26:59Z</time>
      </trkpt>
      <trkpt lat="37.682921" lon="-1.030560">
        <ele>63.6</ele>
        <time>2015-12-07T10:27:22Z</time>
      </trkpt>
      <trkpt lat="37.683220" lon="-1.030481">
        <ele>63.1</ele>
        <time>2015-12-07T10:27:42Z</time>
      </trkpt>
      <trkpt lat="37.683510" lon="-1.030448">
        <ele>62.6</ele>
        <time>2015-12-07T10:28:02Z</time>
      </trkpt>
      <trkpt lat="37.683816" lon="-1.030366">
        <ele>63.1</ele>
        <time>2015-12-07T10:28:23Z</time>
      </trkpt>
      <trkpt lat="37.684100" lon="-1.030324">
        <ele>63.1</ele>
        <time>2015-12-07T10:28:43Z</time>
      </trkpt>
      <trkpt lat="37.684378" lon="-1.030272">
        <ele>64.1</ele>
        <time>2015-12-07T10:29:03Z</time>
      </trkpt>
      <trkpt lat="37.684700" lon="-1.030191">
        <ele>64.1</ele>
        <time>2015-12-07T10:29:24Z</time>
      </trkpt>
      <trkpt lat="37.684860" lon="-1.030186">
        <ele>64.6</ele>
        <time>2015-12-07T10:29:35Z</time>
      </trkpt>
      <trkpt lat="37.685172" lon="-1.030100">
        <ele>63.6</ele>
        <time>2015-12-07T10:29:56Z</time>
      </trkpt>
      <trkpt lat="37.685456" lon="-1.030053">
        <ele>64.6</ele>
        <time>2015-12-07T10:30:17Z</time>
      </trkpt>
      <trkpt lat="37.685756" lon="-1.029995">
        <ele>64.6</ele>
        <time>2015-12-07T10:30:37Z</time>
      </trkpt>
      <trkpt lat="37.686036" lon="-1.029928">
        <ele>64.6</ele>
        <time>2015-12-07T10:30:57Z</time>
      </trkpt>
      <trkpt lat="37.686319" lon="-1.029858">
        <ele>64.1</ele>
        <time>2015-12-07T10:31:17Z</time>
      </trkpt>
      <trkpt lat="37.686606" lon="-1.029815">
        <ele>64.1</ele>
        <time>2015-12-07T10:31:38Z</time>
      </trkpt>
      <trkpt lat="37.686898" lon="-1.029758">
        <ele>64.1</ele>
        <time>2015-12-07T10:31:59Z</time>
      </trkpt>
      <trkpt lat="37.687095" lon="-1.029911">
        <ele>64.1</ele>
        <time>2015-12-07T10:32:16Z</time>
      </trkpt>
      <trkpt lat="37.687337" lon="-1.030057">
        <ele>64.1</ele>
        <time>2015-12-07T10:32:34Z</time>
      </trkpt>
      <trkpt lat="37.687393" lon="-1.030040">
        <ele>64.1</ele>
        <time>2015-12-07T10:32:38Z</time>
      </trkpt>
      <trkpt lat="37.687709" lon="-1.030023">
        <ele>64.1</ele>
        <time>2015-12-07T10:32:59Z</time>
      </trkpt>
      <trkpt lat="37.687732" lon="-1.030027">
        <ele>64.6</ele>
        <time>2015-12-07T10:33:01Z</time>
      </trkpt>
      <trkpt lat="37.687757" lon="-1.030035">
        <ele>64.1</ele>
        <time>2015-12-07T10:33:03Z</time>
      </trkpt>
      <trkpt lat="37.687824" lon="-1.030043">
        <ele>63.6</ele>
        <time>2015-12-07T10:33:08Z</time>
      </trkpt>
      <trkpt lat="37.688100" lon="-1.030025">
        <ele>63.1</ele>
        <time>2015-12-07T10:33:25Z</time>
      </trkpt>
      <trkpt lat="37.688152" lon="-1.030054">
        <ele>63.6</ele>
        <time>2015-12-07T10:33:29Z</time>
      </trkpt>
      <trkpt lat="37.688351" lon="-1.030266">
        <ele>63.6</ele>
        <time>2015-12-07T10:33:47Z</time>
      </trkpt>
      <trkpt lat="37.688381" lon="-1.030304">
        <ele>62.1</ele>
        <time>2015-12-07T10:33:50Z</time>
      </trkpt>
      <trkpt lat="37.688411" lon="-1.030336">
        <ele>65.0</ele>
        <time>2015-12-07T10:33:53Z</time>
      </trkpt>
      <trkpt lat="37.688422" lon="-1.030348">
        <ele>63.6</ele>
        <time>2015-12-07T10:33:54Z</time>
      </trkpt>
      <trkpt lat="37.688639" lon="-1.030577">
        <ele>64.1</ele>
        <time>2015-12-07T10:34:13Z</time>
      </trkpt>
      <trkpt lat="37.688804" lon="-1.030742">
        <ele>65.0</ele>
        <time>2015-12-07T10:34:28Z</time>
      </trkpt>
      <trkpt lat="37.688829" lon="-1.030760">
        <ele>64.6</ele>
        <time>2015-12-07T10:34:30Z</time>
      </trkpt>
      <trkpt lat="37.688968" lon="-1.030961">
        <ele>65.0</ele>
        <time>2015-12-07T10:34:45Z</time>
      </trkpt>
      <trkpt lat="37.689205" lon="-1.031201">
        <ele>65.0</ele>
        <time>2015-12-07T10:35:04Z</time>
      </trkpt>
      <trkpt lat="37.689434" lon="-1.031490">
        <ele>65.5</ele>
        <time>2015-12-07T10:35:25Z</time>
      </trkpt>
      <trkpt lat="37.689625" lon="-1.031690">
        <ele>65.5</ele>
        <time>2015-12-07T10:35:42Z</time>
      </trkpt>
      <trkpt lat="37.689872" lon="-1.031958">
        <ele>66.0</ele>
        <time>2015-12-07T10:36:03Z</time>
      </trkpt>
      <trkpt lat="37.690025" lon="-1.032156">
        <ele>66.0</ele>
        <time>2015-12-07T10:36:18Z</time>
      </trkpt>
      <trkpt lat="37.690098" lon="-1.032230">
        <ele>65.5</ele>
        <time>2015-12-07T10:36:33Z</time>
      </trkpt>
      <trkpt lat="37.690231" lon="-1.032355">
        <ele>66.0</ele>
        <time>2015-12-07T10:36:48Z</time>
      </trkpt>
      <trkpt lat="37.690473" lon="-1.032587">
        <ele>66.5</ele>
        <time>2015-12-07T10:37:07Z</time>
      </trkpt>
      <trkpt lat="37.690608" lon="-1.032734">
        <ele>66.0</ele>
        <time>2015-12-07T10:37:22Z</time>
      </trkpt>
      <trkpt lat="37.690842" lon="-1.033024">
        <ele>66.5</ele>
        <time>2015-12-07T10:37:44Z</time>
      </trkpt>
      <trkpt lat="37.691075" lon="-1.033265">
        <ele>66.5</ele>
        <time>2015-12-07T10:38:04Z</time>
      </trkpt>
      <trkpt lat="37.691319" lon="-1.033502">
        <ele>66.9</ele>
        <time>2015-12-07T10:38:24Z</time>
      </trkpt>
      <trkpt lat="37.691313" lon="-1.033507">
        <ele>66.9</ele>
        <time>2015-12-07T10:38:30Z</time>
      </trkpt>
      <trkpt lat="37.691512" lon="-1.033724">
        <ele>67.9</ele>
        <time>2015-12-07T10:38:48Z</time>
      </trkpt>
      <trkpt lat="37.691647" lon="-1.033890">
        <ele>67.9</ele>
        <time>2015-12-07T10:39:01Z</time>
      </trkpt>
      <trkpt lat="37.691875" lon="-1.034111">
        <ele>66.5</ele>
        <time>2015-12-07T10:39:19Z</time>
      </trkpt>
      <trkpt lat="37.691907" lon="-1.034148">
        <ele>67.4</ele>
        <time>2015-12-07T10:39:22Z</time>
      </trkpt>
      <trkpt lat="37.692099" lon="-1.034382">
        <ele>67.9</ele>
        <time>2015-12-07T10:39:40Z</time>
      </trkpt>
      <trkpt lat="37.692340" lon="-1.034603">
        <ele>68.9</ele>
        <time>2015-12-07T10:39:59Z</time>
      </trkpt>
      <trkpt lat="37.692544" lon="-1.034790">
        <ele>68.9</ele>
        <time>2015-12-07T10:40:16Z</time>
      </trkpt>
      <trkpt lat="37.692734" lon="-1.035009">
        <ele>70.3</ele>
        <time>2015-12-07T10:40:33Z</time>
      </trkpt>
      <trkpt lat="37.692980" lon="-1.035257">
        <ele>71.3</ele>
        <time>2015-12-07T10:40:54Z</time>
      </trkpt>
      <trkpt lat="37.693019" lon="-1.035304">
        <ele>71.3</ele>
        <time>2015-12-07T10:40:58Z</time>
      </trkpt>
      <trkpt lat="37.693135" lon="-1.035468">
        <ele>72.2</ele>
        <time>2015-12-07T10:41:10Z</time>
      </trkpt>
      <trkpt lat="37.693365" lon="-1.035716">
        <ele>73.2</ele>
        <time>2015-12-07T10:41:30Z</time>
      </trkpt>
      <trkpt lat="37.693600" lon="-1.035963">
        <ele>73.7</ele>
        <time>2015-12-07T10:41:52Z</time>
      </trkpt>
      <trkpt lat="37.693825" lon="-1.036218">
        <ele>73.7</ele>
        <time>2015-12-07T10:42:11Z</time>
      </trkpt>
      <trkpt lat="37.694077" lon="-1.036490">
        <ele>74.2</ele>
        <time>2015-12-07T10:42:33Z</time>
      </trkpt>
      <trkpt lat="37.694283" lon="-1.036708">
        <ele>74.6</ele>
        <time>2015-12-07T10:42:52Z</time>
      </trkpt>
      <trkpt lat="37.694486" lon="-1.036947">
        <ele>74.6</ele>
        <time>2015-12-07T10:43:11Z</time>
      </trkpt>
      <trkpt lat="37.694723" lon="-1.037191">
        <ele>74.2</ele>
        <time>2015-12-07T10:43:30Z</time>
      </trkpt>
      <trkpt lat="37.694981" lon="-1.037454">
        <ele>74.2</ele>
        <time>2015-12-07T10:43:52Z</time>
      </trkpt>
      <trkpt lat="37.695194" lon="-1.037675">
        <ele>74.2</ele>
        <time>2015-12-07T10:44:10Z</time>
      </trkpt>
      <trkpt lat="37.695352" lon="-1.037808">
        <ele>74.2</ele>
        <time>2015-12-07T10:44:23Z</time>
      </trkpt>
      <trkpt lat="37.695590" lon="-1.037953">
        <ele>74.2</ele>
        <time>2015-12-07T10:44:41Z</time>
      </trkpt>
      <trkpt lat="37.695814" lon="-1.038073">
        <ele>74.6</ele>
        <time>2015-12-07T10:44:57Z</time>
      </trkpt>
      <trkpt lat="37.695992" lon="-1.038142">
        <ele>74.2</ele>
        <time>2015-12-07T10:45:11Z</time>
      </trkpt>
      <trkpt lat="37.696278" lon="-1.038146">
        <ele>74.2</ele>
        <time>2015-12-07T10:45:30Z</time>
      </trkpt>
      <trkpt lat="37.696493" lon="-1.038137">
        <ele>74.2</ele>
        <time>2015-12-07T10:45:46Z</time>
      </trkpt>
      <trkpt lat="37.696748" lon="-1.038119">
        <ele>73.7</ele>
        <time>2015-12-07T10:46:05Z</time>
      </trkpt>
      <trkpt lat="37.696923" lon="-1.038105">
        <ele>73.7</ele>
        <time>2015-12-07T10:46:19Z</time>
      </trkpt>
      <trkpt lat="37.697058" lon="-1.038269">
        <ele>74.2</ele>
        <time>2015-12-07T10:46:34Z</time>
      </trkpt>
      <trkpt lat="37.697212" lon="-1.038416">
        <ele>74.6</ele>
        <time>2015-12-07T10:46:49Z</time>
      </trkpt>
      <trkpt lat="37.697394" lon="-1.038564">
        <ele>73.7</ele>
        <time>2015-12-07T10:47:06Z</time>
      </trkpt>
      <trkpt lat="37.697510" lon="-1.038735">
        <ele>74.2</ele>
        <time>2015-12-07T10:47:19Z</time>
      </trkpt>
      <trkpt lat="37.697540" lon="-1.038797">
        <ele>73.7</ele>
        <time>2015-12-07T10:47:25Z</time>
      </trkpt>
      <trkpt lat="37.697626" lon="-1.038866">
        <ele>72.7</ele>
        <time>2015-12-07T10:47:33Z</time>
      </trkpt>
      <trkpt lat="37.697678" lon="-1.038935">
        <ele>73.2</ele>
        <time>2015-12-07T10:47:38Z</time>
      </trkpt>
      <trkpt lat="37.697796" lon="-1.039215">
        <ele>74.6</ele>
        <time>2015-12-07T10:47:57Z</time>
      </trkpt>
      <trkpt lat="37.697864" lon="-1.039420">
        <ele>74.2</ele>
        <time>2015-12-07T10:48:10Z</time>
      </trkpt>
      <trkpt lat="37.697934" lon="-1.039629">
        <ele>76.6</ele>
        <time>2015-12-07T10:48:24Z</time>
      </trkpt>
      <trkpt lat="37.697995" lon="-1.039794">
        <ele>73.7</ele>
        <time>2015-12-07T10:48:35Z</time>
      </trkpt>
      <trkpt lat="37.698017" lon="-1.039843">
        <ele>73.7</ele>
        <time>2015-12-07T10:48:39Z</time>
      </trkpt>
      <trkpt lat="37.698054" lon="-1.039875">
        <ele>73.2</ele>
        <time>2015-12-07T10:48:43Z</time>
      </trkpt>
      <trkpt lat="37.698175" lon="-1.039826">
        <ele>74.2</ele>
        <time>2015-12-07T10:48:56Z</time>
      </trkpt>
      <trkpt lat="37.698219" lon="-1.039808">
        <ele>73.7</ele>
        <time>2015-12-07T10:49:06Z</time>
      </trkpt>
      <trkpt lat="37.698239" lon="-1.039794">
        <ele>73.7</ele>
        <time>2015-12-07T10:49:10Z</time>
      </trkpt>
      <trkpt lat="37.698344" lon="-1.039800">
        <ele>73.7</ele>
        <time>2015-12-07T10:49:21Z</time>
      </trkpt>
      <trkpt lat="37.698364" lon="-1.039816">
        <ele>73.2</ele>
        <time>2015-12-07T10:49:26Z</time>
      </trkpt>
      <trkpt lat="37.698414" lon="-1.039794">
        <ele>73.7</ele>
        <time>2015-12-07T10:49:30Z</time>
      </trkpt>
      <trkpt lat="37.698675" lon="-1.039695">
        <ele>73.2</ele>
        <time>2015-12-07T10:49:49Z</time>
      </trkpt>
      <trkpt lat="37.698724" lon="-1.039661">
        <ele>73.7</ele>
        <time>2015-12-07T10:49:53Z</time>
      </trkpt>
      <trkpt lat="37.698809" lon="-1.039632">
        <ele>73.2</ele>
        <time>2015-12-07T10:50:00Z</time>
      </trkpt>
      <trkpt lat="37.698988" lon="-1.039550">
        <ele>73.2</ele>
        <time>2015-12-07T10:50:14Z</time>
      </trkpt>
      <trkpt lat="37.699225" lon="-1.039458">
        <ele>73.2</ele>
        <time>2015-12-07T10:50:32Z</time>
      </trkpt>
      <trkpt lat="37.699398" lon="-1.039347">
        <ele>73.7</ele>
        <time>2015-12-07T10:50:46Z</time>
      </trkpt>
      <trkpt lat="37.699567" lon="-1.039288">
        <ele>73.2</ele>
        <time>2015-12-07T10:51:00Z</time>
      </trkpt>
      <trkpt lat="37.699787" lon="-1.039189">
        <ele>73.2</ele>
        <time>2015-12-07T10:51:16Z</time>
      </trkpt>
      <trkpt lat="37.699917" lon="-1.039141">
        <ele>73.7</ele>
        <time>2015-12-07T10:51:26Z</time>
      </trkpt>
      <trkpt lat="37.699963" lon="-1.039116">
        <ele>73.7</ele>
        <time>2015-12-07T10:51:30Z</time>
      </trkpt>
      <trkpt lat="37.700043" lon="-1.039090">
        <ele>73.7</ele>
        <time>2015-12-07T10:51:37Z</time>
      </trkpt>
      <trkpt lat="37.700251" lon="-1.039012">
        <ele>73.2</ele>
        <time>2015-12-07T10:51:54Z</time>
      </trkpt>
      <trkpt lat="37.700288" lon="-1.039006">
        <ele>73.7</ele>
        <time>2015-12-07T10:51:57Z</time>
      </trkpt>
      <trkpt lat="37.700430" lon="-1.038956">
        <ele>73.2</ele>
        <time>2015-12-07T10:52:12Z</time>
      </trkpt>
      <trkpt lat="37.700474" lon="-1.038932">
        <ele>73.7</ele>
        <time>2015-12-07T10:52:16Z</time>
      </trkpt>
      <trkpt lat="37.700559" lon="-1.038906">
        <ele>73.7</ele>
        <time>2015-12-07T10:52:23Z</time>
      </trkpt>
      <trkpt lat="37.700748" lon="-1.038836">
        <ele>73.7</ele>
        <time>2015-12-07T10:52:39Z</time>
      </trkpt>
      <trkpt lat="37.700957" lon="-1.038760">
        <ele>73.7</ele>
        <time>2015-12-07T10:52:57Z</time>
      </trkpt>
      <trkpt lat="37.701068" lon="-1.038698">
        <ele>73.2</ele>
        <time>2015-12-07T10:53:07Z</time>
      </trkpt>
      <trkpt lat="37.701132" lon="-1.038666">
        <ele>73.2</ele>
        <time>2015-12-07T10:53:12Z</time>
      </trkpt>
      <trkpt lat="37.701329" lon="-1.038597">
        <ele>72.7</ele>
        <time>2015-12-07T10:53:28Z</time>
      </trkpt>
      <trkpt lat="37.701532" lon="-1.038521">
        <ele>72.7</ele>
        <time>2015-12-07T10:53:44Z</time>
      </trkpt>
      <trkpt lat="37.701554" lon="-1.038521">
        <ele>72.7</ele>
        <time>2015-12-07T10:53:47Z</time>
      </trkpt>
      <trkpt lat="37.701603" lon="-1.038523">
        <ele>73.2</ele>
        <time>2015-12-07T10:53:51Z</time>
      </trkpt>
      <trkpt lat="37.701746" lon="-1.038452">
        <ele>72.7</ele>
        <time>2015-12-07T10:54:03Z</time>
      </trkpt>
      <trkpt lat="37.701805" lon="-1.038390">
        <ele>72.7</ele>
        <time>2015-12-07T10:54:09Z</time>
      </trkpt>
      <trkpt lat="37.701946" lon="-1.038289">
        <ele>72.7</ele>
        <time>2015-12-07T10:54:24Z</time>
      </trkpt>
      <trkpt lat="37.701978" lon="-1.038249">
        <ele>73.2</ele>
        <time>2015-12-07T10:54:28Z</time>
      </trkpt>
      <trkpt lat="37.702128" lon="-1.038108">
        <ele>73.2</ele>
        <time>2015-12-07T10:54:43Z</time>
      </trkpt>
      <trkpt lat="37.702173" lon="-1.038060">
        <ele>73.7</ele>
        <time>2015-12-07T10:54:48Z</time>
      </trkpt>
      <trkpt lat="37.702310" lon="-1.037903">
        <ele>73.7</ele>
        <time>2015-12-07T10:55:04Z</time>
      </trkpt>
      <trkpt lat="37.702507" lon="-1.037761">
        <ele>73.2</ele>
        <time>2015-12-07T10:55:22Z</time>
      </trkpt>
      <trkpt lat="37.702558" lon="-1.037754">
        <ele>73.7</ele>
        <time>2015-12-07T10:55:33Z</time>
      </trkpt>
      <trkpt lat="37.702591" lon="-1.037737">
        <ele>74.2</ele>
        <time>2015-12-07T10:55:44Z</time>
      </trkpt>
      <trkpt lat="37.702582" lon="-1.037728">
        <ele>73.2</ele>
        <time>2015-12-07T10:55:57Z</time>
      </trkpt>
      <trkpt lat="37.702713" lon="-1.037577">
        <ele>72.7</ele>
        <time>2015-12-07T10:56:11Z</time>
      </trkpt>
      <trkpt lat="37.702790" lon="-1.037511">
        <ele>72.7</ele>
        <time>2015-12-07T10:56:19Z</time>
      </trkpt>
      <trkpt lat="37.702899" lon="-1.037395">
        <ele>72.7</ele>
        <time>2015-12-07T10:56:30Z</time>
      </trkpt>
      <trkpt lat="37.702998" lon="-1.037317">
        <ele>72.7</ele>
        <time>2015-12-07T10:56:39Z</time>
      </trkpt>
      <trkpt lat="37.703164" lon="-1.037175">
        <ele>72.7</ele>
        <time>2015-12-07T10:56:55Z</time>
      </trkpt>
      <trkpt lat="37.703218" lon="-1.037138">
        <ele>72.2</ele>
        <time>2015-12-07T10:57:00Z</time>
      </trkpt>
      <trkpt lat="37.703387" lon="-1.037017">
        <ele>73.2</ele>
        <time>2015-12-07T10:57:15Z</time>
      </trkpt>
      <trkpt lat="37.703589" lon="-1.036949">
        <ele>73.2</ele>
        <time>2015-12-07T10:57:32Z</time>
      </trkpt>
      <trkpt lat="37.703824" lon="-1.036908">
        <ele>73.7</ele>
        <time>2015-12-07T10:57:51Z</time>
      </trkpt>
      <trkpt lat="37.703951" lon="-1.036878">
        <ele>73.2</ele>
        <time>2015-12-07T10:58:01Z</time>
      </trkpt>
      <trkpt lat="37.704078" lon="-1.036881">
        <ele>73.7</ele>
        <time>2015-12-07T10:58:14Z</time>
      </trkpt>
      <trkpt lat="37.704291" lon="-1.036847">
        <ele>73.7</ele>
        <time>2015-12-07T10:58:29Z</time>
      </trkpt>
      <trkpt lat="37.704486" lon="-1.036796">
        <ele>73.7</ele>
        <time>2015-12-07T10:58:45Z</time>
      </trkpt>
      <trkpt lat="37.704672" lon="-1.036759">
        <ele>74.6</ele>
        <time>2015-12-07T10:59:00Z</time>
      </trkpt>
      <trkpt lat="37.704876" lon="-1.036712">
        <ele>74.6</ele>
        <time>2015-12-07T10:59:17Z</time>
      </trkpt>
      <trkpt lat="37.705094" lon="-1.036663">
        <ele>74.6</ele>
        <time>2015-12-07T10:59:34Z</time>
      </trkpt>
      <trkpt lat="37.705271" lon="-1.036617">
        <ele>74.6</ele>
        <time>2015-12-07T10:59:50Z</time>
      </trkpt>
      <trkpt lat="37.705314" lon="-1.036612">
        <ele>75.1</ele>
        <time>2015-12-07T11:00:01Z</time>
      </trkpt>
      <trkpt lat="37.705311" lon="-1.036604">
        <ele>75.1</ele>
        <time>2015-12-07T11:00:20Z</time>
      </trkpt>
      <trkpt lat="37.705316" lon="-1.036595">
        <ele>74.6</ele>
        <time>2015-12-07T11:00:33Z</time>
      </trkpt>
      <trkpt lat="37.705329" lon="-1.036601">
        <ele>75.1</ele>
        <time>2015-12-07T11:00:45Z</time>
      </trkpt>
      <trkpt lat="37.705402" lon="-1.036572">
        <ele>75.1</ele>
        <time>2015-12-07T11:00:53Z</time>
      </trkpt>
      <trkpt lat="37.705417" lon="-1.036589">
        <ele>75.1</ele>
        <time>2015-12-07T11:01:06Z</time>
      </trkpt>
      <trkpt lat="37.705424" lon="-1.036579">
        <ele>75.1</ele>
        <time>2015-12-07T11:01:13Z</time>
      </trkpt>
      <trkpt lat="37.705423" lon="-1.036527">
        <ele>74.6</ele>
        <time>2015-12-07T11:01:20Z</time>
      </trkpt>
      <trkpt lat="37.705494" lon="-1.036513">
        <ele>75.1</ele>
        <time>2015-12-07T11:01:27Z</time>
      </trkpt>
      <trkpt lat="37.705677" lon="-1.036465">
        <ele>74.6</ele>
        <time>2015-12-07T11:01:41Z</time>
      </trkpt>
      <trkpt lat="37.705732" lon="-1.036451">
        <ele>73.7</ele>
        <time>2015-12-07T11:01:45Z</time>
      </trkpt>
      <trkpt lat="37.705920" lon="-1.036422">
        <ele>74.6</ele>
        <time>2015-12-07T11:02:00Z</time>
      </trkpt>
      <trkpt lat="37.706135" lon="-1.036376">
        <ele>74.6</ele>
        <time>2015-12-07T11:02:17Z</time>
      </trkpt>
      <trkpt lat="37.706359" lon="-1.036340">
        <ele>73.7</ele>
        <time>2015-12-07T11:02:35Z</time>
      </trkpt>
      <trkpt lat="37.706478" lon="-1.036299">
        <ele>73.7</ele>
        <time>2015-12-07T11:02:44Z</time>
      </trkpt>
      <trkpt lat="37.706717" lon="-1.036249">
        <ele>74.2</ele>
        <time>2015-12-07T11:03:02Z</time>
      </trkpt>
      <trkpt lat="37.706941" lon="-1.036208">
        <ele>73.7</ele>
        <time>2015-12-07T11:03:20Z</time>
      </trkpt>
      <trkpt lat="37.707165" lon="-1.036137">
        <ele>74.6</ele>
        <time>2015-12-07T11:03:37Z</time>
      </trkpt>
      <trkpt lat="37.707417" lon="-1.036086">
        <ele>74.2</ele>
        <time>2015-12-07T11:03:57Z</time>
      </trkpt>
      <trkpt lat="37.707652" lon="-1.036044">
        <ele>74.6</ele>
        <time>2015-12-07T11:04:15Z</time>
      </trkpt>
      <trkpt lat="37.707929" lon="-1.035976">
        <ele>74.6</ele>
        <time>2015-12-07T11:04:36Z</time>
      </trkpt>
      <trkpt lat="37.708060" lon="-1.035939">
        <ele>73.7</ele>
        <time>2015-12-07T11:04:46Z</time>
      </trkpt>
      <trkpt lat="37.708134" lon="-1.035918">
        <ele>73.7</ele>
        <time>2015-12-07T11:04:52Z</time>
      </trkpt>
      <trkpt lat="37.708248" lon="-1.035906">
        <ele>74.2</ele>
        <time>2015-12-07T11:05:01Z</time>
      </trkpt>
      <trkpt lat="37.708490" lon="-1.035860">
        <ele>75.1</ele>
        <time>2015-12-07T11:05:20Z</time>
      </trkpt>
      <trkpt lat="37.708699" lon="-1.035782">
        <ele>74.2</ele>
        <time>2015-12-07T11:05:36Z</time>
      </trkpt>
      <trkpt lat="37.708961" lon="-1.035734">
        <ele>75.6</ele>
        <time>2015-12-07T11:05:55Z</time>
      </trkpt>
      <trkpt lat="37.709184" lon="-1.035699">
        <ele>74.6</ele>
        <time>2015-12-07T11:06:13Z</time>
      </trkpt>
      <trkpt lat="37.709441" lon="-1.035603">
        <ele>74.6</ele>
        <time>2015-12-07T11:06:30Z</time>
      </trkpt>
      <trkpt lat="37.709690" lon="-1.035549">
        <ele>76.1</ele>
        <time>2015-12-07T11:06:49Z</time>
      </trkpt>
      <trkpt lat="37.709847" lon="-1.035504">
        <ele>75.6</ele>
        <time>2015-12-07T11:07:01Z</time>
      </trkpt>
      <trkpt lat="37.710072" lon="-1.035453">
        <ele>76.6</ele>
        <time>2015-12-07T11:07:18Z</time>
      </trkpt>
      <trkpt lat="37.710329" lon="-1.035397">
        <ele>76.1</ele>
        <time>2015-12-07T11:07:37Z</time>
      </trkpt>
      <trkpt lat="37.710615" lon="-1.035333">
        <ele>76.6</ele>
        <time>2015-12-07T11:07:58Z</time>
      </trkpt>
      <trkpt lat="37.711021" lon="-1.035240">
        <ele>74.6</ele>
        <time>2015-12-07T11:09:43Z</time>
      </trkpt>
      <trkpt lat="37.711241" lon="-1.035180">
        <ele>74.2</ele>
        <time>2015-12-07T11:10:01Z</time>
      </trkpt>
      <trkpt lat="37.711513" lon="-1.035143">
        <ele>75.1</ele>
        <time>2015-12-07T11:10:21Z</time>
      </trkpt>
      <trkpt lat="37.711792" lon="-1.035083">
        <ele>75.1</ele>
        <time>2015-12-07T11:10:41Z</time>
      </trkpt>
      <trkpt lat="37.712077" lon="-1.034998">
        <ele>74.2</ele>
        <time>2015-12-07T11:11:01Z</time>
      </trkpt>
      <trkpt lat="37.712301" lon="-1.034965">
        <ele>75.1</ele>
        <time>2015-12-07T11:11:18Z</time>
      </trkpt>
      <trkpt lat="37.712559" lon="-1.034890">
        <ele>75.6</ele>
        <time>2015-12-07T11:11:36Z</time>
      </trkpt>
      <trkpt lat="37.712657" lon="-1.034862">
        <ele>75.1</ele>
        <time>2015-12-07T11:11:43Z</time>
      </trkpt>
      <trkpt lat="37.712702" lon="-1.034866">
        <ele>75.1</ele>
        <time>2015-12-07T11:11:47Z</time>
      </trkpt>
      <trkpt lat="37.712971" lon="-1.034782">
        <ele>75.6</ele>
        <time>2015-12-07T11:12:06Z</time>
      </trkpt>
      <trkpt lat="37.713207" lon="-1.034728">
        <ele>74.6</ele>
        <time>2015-12-07T11:12:24Z</time>
      </trkpt>
      <trkpt lat="37.713219" lon="-1.034725">
        <ele>75.1</ele>
        <time>2015-12-07T11:12:25Z</time>
      </trkpt>
      <trkpt lat="37.713305" lon="-1.034732">
        <ele>75.1</ele>
        <time>2015-12-07T11:12:32Z</time>
      </trkpt>
      <trkpt lat="37.713508" lon="-1.034729">
        <ele>75.6</ele>
        <time>2015-12-07T11:12:47Z</time>
      </trkpt>
      <trkpt lat="37.713515" lon="-1.034722">
        <ele>75.1</ele>
        <time>2015-12-07T11:12:49Z</time>
      </trkpt>
      <trkpt lat="37.713532" lon="-1.034726">
        <ele>75.1</ele>
        <time>2015-12-07T11:12:51Z</time>
      </trkpt>
      <trkpt lat="37.713638" lon="-1.034741">
        <ele>76.1</ele>
        <time>2015-12-07T11:12:59Z</time>
      </trkpt>
      <trkpt lat="37.713862" lon="-1.034803">
        <ele>75.6</ele>
        <time>2015-12-07T11:13:16Z</time>
      </trkpt>
      <trkpt lat="37.714019" lon="-1.034873">
        <ele>75.1</ele>
        <time>2015-12-07T11:13:29Z</time>
      </trkpt>
      <trkpt lat="37.714228" lon="-1.034918">
        <ele>75.6</ele>
        <time>2015-12-07T11:13:44Z</time>
      </trkpt>
      <trkpt lat="37.714467" lon="-1.034972">
        <ele>75.6</ele>
        <time>2015-12-07T11:14:02Z</time>
      </trkpt>
      <trkpt lat="37.714718" lon="-1.035045">
        <ele>76.1</ele>
        <time>2015-12-07T11:14:22Z</time>
      </trkpt>
      <trkpt lat="37.714937" lon="-1.035095">
        <ele>76.6</ele>
        <time>2015-12-07T11:14:40Z</time>
      </trkpt>
      <trkpt lat="37.715282" lon="-1.035216">
        <ele>76.1</ele>
        <time>2015-12-07T11:17:00Z</time>
      </trkpt>
      <trkpt lat="37.715482" lon="-1.035285">
        <ele>76.1</ele>
        <time>2015-12-07T11:17:17Z</time>
      </trkpt>
      <trkpt lat="37.715756" lon="-1.035340">
        <ele>75.1</ele>
        <time>2015-12-07T11:17:36Z</time>
      </trkpt>
      <trkpt lat="37.715938" lon="-1.035383">
        <ele>74.6</ele>
        <time>2015-12-07T11:17:49Z</time>
      </trkpt>
      <trkpt lat="37.715975" lon="-1.035398">
        <ele>74.6</ele>
        <time>2015-12-07T11:17:52Z</time>
      </trkpt>
      <trkpt lat="37.716077" lon="-1.035427">
        <ele>74.6</ele>
        <time>2015-12-07T11:18:00Z</time>
      </trkpt>
      <trkpt lat="37.716313" lon="-1.035502">
        <ele>74.6</ele>
        <time>2015-12-07T11:18:18Z</time>
      </trkpt>
      <trkpt lat="37.716522" lon="-1.035581">
        <ele>75.1</ele>
        <time>2015-12-07T11:18:36Z</time>
      </trkpt>
      <trkpt lat="37.716773" lon="-1.035641">
        <ele>75.1</ele>
        <time>2015-12-07T11:18:55Z</time>
      </trkpt>
      <trkpt lat="37.717015" lon="-1.035697">
        <ele>74.6</ele>
        <time>2015-12-07T11:19:13Z</time>
      </trkpt>
      <trkpt lat="37.717073" lon="-1.035711">
        <ele>74.2</ele>
        <time>2015-12-07T11:19:21Z</time>
      </trkpt>
      <trkpt lat="37.717138" lon="-1.035723">
        <ele>73.7</ele>
        <time>2015-12-07T11:19:26Z</time>
      </trkpt>
      <trkpt lat="37.717427" lon="-1.035785">
        <ele>73.7</ele>
        <time>2015-12-07T11:19:46Z</time>
      </trkpt>
      <trkpt lat="37.717692" lon="-1.035893">
        <ele>74.2</ele>
        <time>2015-12-07T11:20:05Z</time>
      </trkpt>
      <trkpt lat="37.717785" lon="-1.035906">
        <ele>73.7</ele>
        <time>2015-12-07T11:20:12Z</time>
      </trkpt>
      <trkpt lat="37.717989" lon="-1.035959">
        <ele>74.2</ele>
        <time>2015-12-07T11:20:28Z</time>
      </trkpt>
      <trkpt lat="37.718009" lon="-1.035961">
        <ele>74.6</ele>
        <time>2015-12-07T11:20:42Z</time>
      </trkpt>
      <trkpt lat="37.718147" lon="-1.036002">
        <ele>74.2</ele>
        <time>2015-12-07T11:20:56Z</time>
      </trkpt>
      <trkpt lat="37.718346" lon="-1.036075">
        <ele>74.2</ele>
        <time>2015-12-07T11:21:12Z</time>
      </trkpt>
      <trkpt lat="37.718563" lon="-1.036161">
        <ele>74.6</ele>
        <time>2015-12-07T11:21:30Z</time>
      </trkpt>
      <trkpt lat="37.718810" lon="-1.036231">
        <ele>75.1</ele>
        <time>2015-12-07T11:21:49Z</time>
      </trkpt>
      <trkpt lat="37.718912" lon="-1.036242">
        <ele>74.6</ele>
        <time>2015-12-07T11:21:56Z</time>
      </trkpt>
      <trkpt lat="37.719157" lon="-1.036299">
        <ele>74.6</ele>
        <time>2015-12-07T11:22:14Z</time>
      </trkpt>
      <trkpt lat="37.719360" lon="-1.036352">
        <ele>76.1</ele>
        <time>2015-12-07T11:22:29Z</time>
      </trkpt>
      <trkpt lat="37.719551" lon="-1.036418">
        <ele>75.6</ele>
        <time>2015-12-07T11:22:46Z</time>
      </trkpt>
      <trkpt lat="37.719793" lon="-1.036450">
        <ele>76.6</ele>
        <time>2015-12-07T11:23:04Z</time>
      </trkpt>
      <trkpt lat="37.720044" lon="-1.036510">
        <ele>75.6</ele>
        <time>2015-12-07T11:23:21Z</time>
      </trkpt>
      <trkpt lat="37.720321" lon="-1.036595">
        <ele>74.6</ele>
        <time>2015-12-07T11:23:41Z</time>
      </trkpt>
      <trkpt lat="37.720483" lon="-1.036604">
        <ele>74.2</ele>
        <time>2015-12-07T11:23:57Z</time>
      </trkpt>
      <trkpt lat="37.720657" lon="-1.036551">
        <ele>74.6</ele>
        <time>2015-12-07T11:24:10Z</time>
      </trkpt>
      <trkpt lat="37.720905" lon="-1.036434">
        <ele>75.1</ele>
        <time>2015-12-07T11:24:29Z</time>
      </trkpt>
      <trkpt lat="37.721027" lon="-1.036374">
        <ele>74.6</ele>
        <time>2015-12-07T11:24:38Z</time>
      </trkpt>
      <trkpt lat="37.721045" lon="-1.036351">
        <ele>74.6</ele>
        <time>2015-12-07T11:24:40Z</time>
      </trkpt>
      <trkpt lat="37.721248" lon="-1.036243">
        <ele>74.6</ele>
        <time>2015-12-07T11:24:57Z</time>
      </trkpt>
      <trkpt lat="37.721393" lon="-1.036147">
        <ele>74.6</ele>
        <time>2015-12-07T11:25:09Z</time>
      </trkpt>
      <trkpt lat="37.721429" lon="-1.036103">
        <ele>74.6</ele>
        <time>2015-12-07T11:25:14Z</time>
      </trkpt>
      <trkpt lat="37.721664" lon="-1.035982">
        <ele>75.1</ele>
        <time>2015-12-07T11:25:33Z</time>
      </trkpt>
      <trkpt lat="37.721863" lon="-1.035861">
        <ele>75.1</ele>
        <time>2015-12-07T11:25:50Z</time>
      </trkpt>
      <trkpt lat="37.722046" lon="-1.035768">
        <ele>74.6</ele>
        <time>2015-12-07T11:26:06Z</time>
      </trkpt>
      <trkpt lat="37.722105" lon="-1.035727">
        <ele>74.6</ele>
        <time>2015-12-07T11:26:18Z</time>
      </trkpt>
      <trkpt lat="37.722119" lon="-1.035696">
        <ele>74.6</ele>
        <time>2015-12-07T11:26:27Z</time>
      </trkpt>
      <trkpt lat="37.722120" lon="-1.035697">
        <ele>74.6</ele>
        <time>2015-12-07T11:26:33Z</time>
      </trkpt>
      <trkpt lat="37.722127" lon="-1.035718">
        <ele>74.6</ele>
        <time>2015-12-07T11:26:41Z</time>
      </trkpt>
      <trkpt lat="37.722185" lon="-1.035688">
        <ele>74.6</ele>
        <time>2015-12-07T11:26:46Z</time>
      </trkpt>
      <trkpt lat="37.722420" lon="-1.035545">
        <ele>74.6</ele>
        <time>2015-12-07T11:27:05Z</time>
      </trkpt>
      <trkpt lat="37.722636" lon="-1.035408">
        <ele>74.6</ele>
        <time>2015-12-07T11:27:23Z</time>
      </trkpt>
      <trkpt lat="37.722867" lon="-1.035277">
        <ele>75.1</ele>
        <time>2015-12-07T11:27:43Z</time>
      </trkpt>
      <trkpt lat="37.723092" lon="-1.035148">
        <ele>74.6</ele>
        <time>2015-12-07T11:28:01Z</time>
      </trkpt>
      <trkpt lat="37.723308" lon="-1.035009">
        <ele>74.6</ele>
        <time>2015-12-07T11:28:20Z</time>
      </trkpt>
      <trkpt lat="37.723529" lon="-1.034878">
        <ele>74.6</ele>
        <time>2015-12-07T11:28:38Z</time>
      </trkpt>
      <trkpt lat="37.723723" lon="-1.034759">
        <ele>74.6</ele>
        <time>2015-12-07T11:28:55Z</time>
      </trkpt>
      <trkpt lat="37.723880" lon="-1.034653">
        <ele>73.7</ele>
        <time>2015-12-07T11:29:09Z</time>
      </trkpt>
      <trkpt lat="37.723952" lon="-1.034612">
        <ele>73.7</ele>
        <time>2015-12-07T11:29:15Z</time>
      </trkpt>
      <trkpt lat="37.723980" lon="-1.034602">
        <ele>74.2</ele>
        <time>2015-12-07T11:29:17Z</time>
      </trkpt>
      <trkpt lat="37.724125" lon="-1.034508">
        <ele>73.7</ele>
        <time>2015-12-07T11:29:29Z</time>
      </trkpt>
      <trkpt lat="37.724181" lon="-1.034490">
        <ele>73.2</ele>
        <time>2015-12-07T11:29:33Z</time>
      </trkpt>
      <trkpt lat="37.724222" lon="-1.034473">
        <ele>73.7</ele>
        <time>2015-12-07T11:29:36Z</time>
      </trkpt>
      <trkpt lat="37.724465" lon="-1.034314">
        <ele>73.7</ele>
        <time>2015-12-07T11:29:56Z</time>
      </trkpt>
      <trkpt lat="37.724629" lon="-1.034220">
        <ele>73.2</ele>
        <time>2015-12-07T11:30:09Z</time>
      </trkpt>
      <trkpt lat="37.724890" lon="-1.034069">
        <ele>73.7</ele>
        <time>2015-12-07T11:30:30Z</time>
      </trkpt>
      <trkpt lat="37.725100" lon="-1.033949">
        <ele>73.7</ele>
        <time>2015-12-07T11:30:47Z</time>
      </trkpt>
      <trkpt lat="37.725142" lon="-1.033909">
        <ele>73.7</ele>
        <time>2015-12-07T11:30:51Z</time>
      </trkpt>
      <trkpt lat="37.725341" lon="-1.033800">
        <ele>73.2</ele>
        <time>2015-12-07T11:31:08Z</time>
      </trkpt>
      <trkpt lat="37.725521" lon="-1.033695">
        <ele>74.2</ele>
        <time>2015-12-07T11:31:22Z</time>
      </trkpt>
      <trkpt lat="37.725714" lon="-1.033556">
        <ele>73.7</ele>
        <time>2015-12-07T11:31:38Z</time>
      </trkpt>
      <trkpt lat="37.725884" lon="-1.033431">
        <ele>73.7</ele>
        <time>2015-12-07T11:31:53Z</time>
      </trkpt>
      <trkpt lat="37.726091" lon="-1.033284">
        <ele>74.2</ele>
        <time>2015-12-07T11:32:11Z</time>
      </trkpt>
      <trkpt lat="37.726258" lon="-1.033147">
        <ele>73.7</ele>
        <time>2015-12-07T11:32:25Z</time>
      </trkpt>
      <trkpt lat="37.726277" lon="-1.033124">
        <ele>74.2</ele>
        <time>2015-12-07T11:32:27Z</time>
      </trkpt>
      <trkpt lat="37.726434" lon="-1.033013">
        <ele>73.7</ele>
        <time>2015-12-07T11:32:41Z</time>
      </trkpt>
      <trkpt lat="37.726507" lon="-1.032951">
        <ele>74.2</ele>
        <time>2015-12-07T11:32:48Z</time>
      </trkpt>
      <trkpt lat="37.726684" lon="-1.032824">
        <ele>74.6</ele>
        <time>2015-12-07T11:33:03Z</time>
      </trkpt>
      <trkpt lat="37.726842" lon="-1.032704">
        <ele>75.6</ele>
        <time>2015-12-07T11:33:17Z</time>
      </trkpt>
      <trkpt lat="37.726980" lon="-1.032608">
        <ele>76.1</ele>
        <time>2015-12-07T11:33:30Z</time>
      </trkpt>
      <trkpt lat="37.727167" lon="-1.032453">
        <ele>78.5</ele>
        <time>2015-12-07T11:33:47Z</time>
      </trkpt>
      <trkpt lat="37.727326" lon="-1.032305">
        <ele>80.4</ele>
        <time>2015-12-07T11:34:03Z</time>
      </trkpt>
      <trkpt lat="37.727329" lon="-1.032302">
        <ele>79.9</ele>
        <time>2015-12-07T11:34:04Z</time>
      </trkpt>
      <trkpt lat="37.727441" lon="-1.032145">
        <ele>80.9</ele>
        <time>2015-12-07T11:34:18Z</time>
      </trkpt>
      <trkpt lat="37.727446" lon="-1.032132">
        <ele>81.4</ele>
        <time>2015-12-07T11:34:19Z</time>
      </trkpt>
      <trkpt lat="37.727512" lon="-1.032026">
        <ele>81.8</ele>
        <time>2015-12-07T11:34:32Z</time>
      </trkpt>
      <trkpt lat="37.727534" lon="-1.031981">
        <ele>81.4</ele>
        <time>2015-12-07T11:34:38Z</time>
      </trkpt>
      <trkpt lat="37.727612" lon="-1.031812">
        <ele>81.4</ele>
        <time>2015-12-07T11:34:51Z</time>
      </trkpt>
      <trkpt lat="37.727667" lon="-1.031671">
        <ele>82.3</ele>
        <time>2015-12-07T11:35:03Z</time>
      </trkpt>
      <trkpt lat="37.727741" lon="-1.031533">
        <ele>83.3</ele>
        <time>2015-12-07T11:35:13Z</time>
      </trkpt>
      <trkpt lat="37.727830" lon="-1.031321">
        <ele>83.3</ele>
        <time>2015-12-07T11:35:30Z</time>
      </trkpt>
      <trkpt lat="37.727917" lon="-1.031103">
        <ele>82.8</ele>
        <time>2015-12-07T11:35:46Z</time>
      </trkpt>
      <trkpt lat="37.728010" lon="-1.030899">
        <ele>81.4</ele>
        <time>2015-12-07T11:36:01Z</time>
      </trkpt>
      <trkpt lat="37.728110" lon="-1.030748">
        <ele>80.4</ele>
        <time>2015-12-07T11:36:14Z</time>
      </trkpt>
      <trkpt lat="37.728184" lon="-1.030684">
        <ele>80.4</ele>
        <time>2015-12-07T11:36:21Z</time>
      </trkpt>
      <trkpt lat="37.728318" lon="-1.030615">
        <ele>79.0</ele>
        <time>2015-12-07T11:36:33Z</time>
      </trkpt>
      <trkpt lat="37.728535" lon="-1.030637">
        <ele>78.0</ele>
        <time>2015-12-07T11:36:50Z</time>
      </trkpt>
      <trkpt lat="37.728700" lon="-1.030751">
        <ele>76.1</ele>
        <time>2015-12-07T11:37:05Z</time>
      </trkpt>
      <trkpt lat="37.728849" lon="-1.030869">
        <ele>75.6</ele>
        <time>2015-12-07T11:37:18Z</time>
      </trkpt>
      <trkpt lat="37.729029" lon="-1.031014">
        <ele>74.2</ele>
        <time>2015-12-07T11:37:35Z</time>
      </trkpt>
      <trkpt lat="37.729222" lon="-1.031115">
        <ele>73.7</ele>
        <time>2015-12-07T11:37:52Z</time>
      </trkpt>
      <trkpt lat="37.729472" lon="-1.031175">
        <ele>74.2</ele>
        <time>2015-12-07T11:38:10Z</time>
      </trkpt>
      <trkpt lat="37.729616" lon="-1.031216">
        <ele>73.7</ele>
        <time>2015-12-07T11:38:20Z</time>
      </trkpt>
      <trkpt lat="37.729691" lon="-1.031203">
        <ele>73.2</ele>
        <time>2015-12-07T11:38:25Z</time>
      </trkpt>
      <trkpt lat="37.729725" lon="-1.031179">
        <ele>73.2</ele>
        <time>2015-12-07T11:38:28Z</time>
      </trkpt>
      <trkpt lat="37.730160" lon="-1.030896">
        <ele>73.7</ele>
        <time>2015-12-07T11:39:11Z</time>
      </trkpt>
      <trkpt lat="37.730217" lon="-1.030878">
        <ele>73.2</ele>
        <time>2015-12-07T11:39:16Z</time>
      </trkpt>
      <trkpt lat="37.730443" lon="-1.030741">
        <ele>73.2</ele>
        <time>2015-12-07T11:39:34Z</time>
      </trkpt>
      <trkpt lat="37.730676" lon="-1.030593">
        <ele>73.7</ele>
        <time>2015-12-07T11:39:52Z</time>
      </trkpt>
      <trkpt lat="37.730831" lon="-1.030511">
        <ele>73.7</ele>
        <time>2015-12-07T11:40:04Z</time>
      </trkpt>
      <trkpt lat="37.730921" lon="-1.030446">
        <ele>73.2</ele>
        <time>2015-12-07T11:40:12Z</time>
      </trkpt>
      <trkpt lat="37.731027" lon="-1.030400">
        <ele>73.2</ele>
        <time>2015-12-07T11:40:22Z</time>
      </trkpt>
      <trkpt lat="37.731259" lon="-1.030279">
        <ele>74.6</ele>
        <time>2015-12-07T11:40:41Z</time>
      </trkpt>
      <trkpt lat="37.731482" lon="-1.030154">
        <ele>74.6</ele>
        <time>2015-12-07T11:41:00Z</time>
      </trkpt>
      <trkpt lat="37.731758" lon="-1.029993">
        <ele>74.6</ele>
        <time>2015-12-07T11:41:22Z</time>
      </trkpt>
      <trkpt lat="37.731991" lon="-1.029834">
        <ele>73.2</ele>
        <time>2015-12-07T11:41:41Z</time>
      </trkpt>
      <trkpt lat="37.732187" lon="-1.029719">
        <ele>73.2</ele>
        <time>2015-12-07T11:41:57Z</time>
      </trkpt>
      <trkpt lat="37.732388" lon="-1.029521">
        <ele>73.2</ele>
        <time>2015-12-07T11:42:15Z</time>
      </trkpt>
      <trkpt lat="37.732632" lon="-1.029270">
        <ele>73.2</ele>
        <time>2015-12-07T11:42:37Z</time>
      </trkpt>
      <trkpt lat="37.732786" lon="-1.029117">
        <ele>74.2</ele>
        <time>2015-12-07T11:42:53Z</time>
      </trkpt>
      <trkpt lat="37.732950" lon="-1.028962">
        <ele>74.2</ele>
        <time>2015-12-07T11:43:09Z</time>
      </trkpt>
      <trkpt lat="37.733137" lon="-1.028775">
        <ele>73.7</ele>
        <time>2015-12-07T11:43:27Z</time>
      </trkpt>
      <trkpt lat="37.733310" lon="-1.028585">
        <ele>74.2</ele>
        <time>2015-12-07T11:43:44Z</time>
      </trkpt>
      <trkpt lat="37.733438" lon="-1.028456">
        <ele>73.7</ele>
        <time>2015-12-07T11:43:56Z</time>
      </trkpt>
      <trkpt lat="37.733493" lon="-1.028410">
        <ele>73.7</ele>
        <time>2015-12-07T11:44:01Z</time>
      </trkpt>
      <trkpt lat="37.733711" lon="-1.028204">
        <ele>73.2</ele>
        <time>2015-12-07T11:44:21Z</time>
      </trkpt>
      <trkpt lat="37.733797" lon="-1.028112">
        <ele>73.7</ele>
        <time>2015-12-07T11:44:36Z</time>
      </trkpt>
      <trkpt lat="37.733796" lon="-1.028109">
        <ele>74.2</ele>
        <time>2015-12-07T11:44:39Z</time>
      </trkpt>
      <trkpt lat="37.733986" lon="-1.027918">
        <ele>73.7</ele>
        <time>2015-12-07T11:44:56Z</time>
      </trkpt>
      <trkpt lat="37.734084" lon="-1.027829">
        <ele>74.2</ele>
        <time>2015-12-07T11:45:10Z</time>
      </trkpt>
      <trkpt lat="37.734286" lon="-1.027619">
        <ele>74.6</ele>
        <time>2015-12-07T11:45:27Z</time>
      </trkpt>
      <trkpt lat="37.734536" lon="-1.027425">
        <ele>74.2</ele>
        <time>2015-12-07T11:45:48Z</time>
      </trkpt>
      <trkpt lat="37.734713" lon="-1.027234">
        <ele>74.2</ele>
        <time>2015-12-07T11:46:06Z</time>
      </trkpt>
      <trkpt lat="37.734890" lon="-1.027077">
        <ele>74.6</ele>
        <time>2015-12-07T11:46:23Z</time>
      </trkpt>
      <trkpt lat="37.735050" lon="-1.026920">
        <ele>74.2</ele>
        <time>2015-12-07T11:46:39Z</time>
      </trkpt>
      <trkpt lat="37.735204" lon="-1.026754">
        <ele>73.2</ele>
        <time>2015-12-07T11:46:55Z</time>
      </trkpt>
      <trkpt lat="37.735339" lon="-1.026610">
        <ele>73.7</ele>
        <time>2015-12-07T11:47:09Z</time>
      </trkpt>
      <trkpt lat="37.735539" lon="-1.026395">
        <ele>73.7</ele>
        <time>2015-12-07T11:47:28Z</time>
      </trkpt>
      <trkpt lat="37.735594" lon="-1.026350">
        <ele>74.2</ele>
        <time>2015-12-07T11:47:34Z</time>
      </trkpt>
      <trkpt lat="37.735771" lon="-1.026171">
        <ele>73.7</ele>
        <time>2015-12-07T11:47:51Z</time>
      </trkpt>
      <trkpt lat="37.735945" lon="-1.025998">
        <ele>73.2</ele>
        <time>2015-12-07T11:48:08Z</time>
      </trkpt>
      <trkpt lat="37.736120" lon="-1.025833">
        <ele>73.2</ele>
        <time>2015-12-07T11:48:24Z</time>
      </trkpt>
      <trkpt lat="37.736307" lon="-1.025640">
        <ele>73.7</ele>
        <time>2015-12-07T11:48:42Z</time>
      </trkpt>
      <trkpt lat="37.736514" lon="-1.025436">
        <ele>74.2</ele>
        <time>2015-12-07T11:49:01Z</time>
      </trkpt>
      <trkpt lat="37.736527" lon="-1.025426">
        <ele>73.7</ele>
        <time>2015-12-07T11:49:02Z</time>
      </trkpt>
      <trkpt lat="37.736627" lon="-1.025306">
        <ele>73.7</ele>
        <time>2015-12-07T11:49:12Z</time>
      </trkpt>
      <trkpt lat="37.736664" lon="-1.025273">
        <ele>73.2</ele>
        <time>2015-12-07T11:49:16Z</time>
      </trkpt>
      <trkpt lat="37.736841" lon="-1.025104">
        <ele>74.2</ele>
        <time>2015-12-07T11:49:33Z</time>
      </trkpt>
      <trkpt lat="37.737024" lon="-1.024917">
        <ele>73.7</ele>
        <time>2015-12-07T11:49:51Z</time>
      </trkpt>
      <trkpt lat="37.737215" lon="-1.024726">
        <ele>74.6</ele>
        <time>2015-12-07T11:50:09Z</time>
      </trkpt>
      <trkpt lat="37.737403" lon="-1.024525">
        <ele>75.1</ele>
        <time>2015-12-07T11:50:27Z</time>
      </trkpt>
      <trkpt lat="37.737612" lon="-1.024344">
        <ele>74.6</ele>
        <time>2015-12-07T11:50:46Z</time>
      </trkpt>
      <trkpt lat="37.737706" lon="-1.024496">
        <ele>75.6</ele>
        <time>2015-12-07T11:50:59Z</time>
      </trkpt>
      <trkpt lat="37.737878" lon="-1.024641">
        <ele>75.1</ele>
        <time>2015-12-07T11:51:14Z</time>
      </trkpt>
      <trkpt lat="37.737936" lon="-1.024672">
        <ele>74.6</ele>
        <time>2015-12-07T11:51:23Z</time>
      </trkpt>
      <trkpt lat="37.738085" lon="-1.024735">
        <ele>74.6</ele>
        <time>2015-12-07T11:51:35Z</time>
      </trkpt>
      <trkpt lat="37.738234" lon="-1.024789">
        <ele>73.7</ele>
        <time>2015-12-07T11:51:42Z</time>
      </trkpt>
      <trkpt lat="37.738301" lon="-1.024833">
        <ele>73.7</ele>
        <time>2015-12-07T11:51:48Z</time>
      </trkpt>
      <trkpt lat="37.738346" lon="-1.024866">
        <ele>74.2</ele>
        <time>2015-12-07T11:51:52Z</time>
      </trkpt>
      <trkpt lat="37.738529" lon="-1.024918">
        <ele>74.2</ele>
        <time>2015-12-07T11:52:07Z</time>
      </trkpt>
      <trkpt lat="37.738729" lon="-1.024978">
        <ele>73.7</ele>
        <time>2015-12-07T11:52:22Z</time>
      </trkpt>
      <trkpt lat="37.738978" lon="-1.025065">
        <ele>74.2</ele>
        <time>2015-12-07T11:52:37Z</time>
      </trkpt>
      <trkpt lat="37.739163" lon="-1.025182">
        <ele>74.2</ele>
        <time>2015-12-07T11:52:54Z</time>
      </trkpt>
      <trkpt lat="37.739310" lon="-1.025274">
        <ele>76.6</ele>
        <time>2015-12-07T12:10:54Z</time>
      </trkpt>
      <trkpt lat="37.739325" lon="-1.025286">
        <ele>77.0</ele>
        <time>2015-12-07T12:10:56Z</time>
      </trkpt>
      <trkpt lat="37.739440" lon="-1.025348">
        <ele>77.0</ele>
        <time>2015-12-07T12:11:10Z</time>
      </trkpt>
      <trkpt lat="37.739528" lon="-1.025396">
        <ele>77.0</ele>
        <time>2015-12-07T12:11:22Z</time>
      </trkpt>
      <trkpt lat="37.739580" lon="-1.025442">
        <ele>77.0</ele>
        <time>2015-12-07T12:11:27Z</time>
      </trkpt>
      <trkpt lat="37.739768" lon="-1.025515">
        <ele>77.0</ele>
        <time>2015-12-07T12:11:43Z</time>
      </trkpt>
      <trkpt lat="37.739965" lon="-1.025615">
        <ele>77.5</ele>
        <time>2015-12-07T12:12:00Z</time>
      </trkpt>
      <trkpt lat="37.740115" lon="-1.025690">
        <ele>77.5</ele>
        <time>2015-12-07T12:12:13Z</time>
      </trkpt>
      <trkpt lat="37.740353" lon="-1.025789">
        <ele>78.5</ele>
        <time>2015-12-07T12:12:32Z</time>
      </trkpt>
      <trkpt lat="37.740589" lon="-1.025874">
        <ele>78.0</ele>
        <time>2015-12-07T12:12:51Z</time>
      </trkpt>
      <trkpt lat="37.740793" lon="-1.025939">
        <ele>78.0</ele>
        <time>2015-12-07T12:13:07Z</time>
      </trkpt>
      <trkpt lat="37.741088" lon="-1.026061">
        <ele>78.5</ele>
        <time>2015-12-07T12:13:30Z</time>
      </trkpt>
      <trkpt lat="37.742192" lon="-1.026563">
        <ele>67.9</ele>
        <time>2015-12-07T12:16:43Z</time>
      </trkpt>
      <trkpt lat="37.742312" lon="-1.026582">
        <ele>69.3</ele>
        <time>2015-12-07T12:16:58Z</time>
      </trkpt>
      <trkpt lat="37.742576" lon="-1.026716">
        <ele>70.3</ele>
        <time>2015-12-07T12:17:17Z</time>
      </trkpt>
      <trkpt lat="37.742794" lon="-1.026809">
        <ele>71.3</ele>
        <time>2015-12-07T12:17:33Z</time>
      </trkpt>
      <trkpt lat="37.742949" lon="-1.026897">
        <ele>73.7</ele>
        <time>2015-12-07T12:17:46Z</time>
      </trkpt>
      <trkpt lat="37.743048" lon="-1.026957">
        <ele>73.7</ele>
        <time>2015-12-07T12:18:01Z</time>
      </trkpt>
      <trkpt lat="37.743095" lon="-1.026976">
        <ele>73.2</ele>
        <time>2015-12-07T12:18:13Z</time>
      </trkpt>
      <trkpt lat="37.743151" lon="-1.027008">
        <ele>73.2</ele>
        <time>2015-12-07T12:18:20Z</time>
      </trkpt>
      <trkpt lat="37.743337" lon="-1.027094">
        <ele>73.7</ele>
        <time>2015-12-07T12:18:37Z</time>
      </trkpt>
      <trkpt lat="37.743479" lon="-1.027155">
        <ele>74.2</ele>
        <time>2015-12-07T12:18:51Z</time>
      </trkpt>
      <trkpt lat="37.743518" lon="-1.027179">
        <ele>74.2</ele>
        <time>2015-12-07T12:18:58Z</time>
      </trkpt>
      <trkpt lat="37.743881" lon="-1.027367">
        <ele>74.6</ele>
        <time>2015-12-07T12:19:36Z</time>
      </trkpt>
      <trkpt lat="37.744073" lon="-1.027462">
        <ele>74.6</ele>
        <time>2015-12-07T12:19:52Z</time>
      </trkpt>
      <trkpt lat="37.744253" lon="-1.027550">
        <ele>75.1</ele>
        <time>2015-12-07T12:20:09Z</time>
      </trkpt>
      <trkpt lat="37.744476" lon="-1.027642">
        <ele>75.6</ele>
        <time>2015-12-07T12:20:27Z</time>
      </trkpt>
      <trkpt lat="37.744700" lon="-1.027749">
        <ele>75.1</ele>
        <time>2015-12-07T12:20:45Z</time>
      </trkpt>
      <trkpt lat="37.744915" lon="-1.027844">
        <ele>75.6</ele>
        <time>2015-12-07T12:21:02Z</time>
      </trkpt>
      <trkpt lat="37.744965" lon="-1.027858">
        <ele>76.1</ele>
        <time>2015-12-07T12:21:06Z</time>
      </trkpt>
      <trkpt lat="37.745184" lon="-1.027992">
        <ele>75.6</ele>
        <time>2015-12-07T12:21:32Z</time>
      </trkpt>
      <trkpt lat="37.745247" lon="-1.028010">
        <ele>76.1</ele>
        <time>2015-12-07T12:21:37Z</time>
      </trkpt>
      <trkpt lat="37.745521" lon="-1.028131">
        <ele>76.1</ele>
        <time>2015-12-07T12:21:58Z</time>
      </trkpt>
      <trkpt lat="37.745738" lon="-1.028220">
        <ele>76.6</ele>
        <time>2015-12-07T12:22:15Z</time>
      </trkpt>
      <trkpt lat="37.746010" lon="-1.028346">
        <ele>76.1</ele>
        <time>2015-12-07T12:22:36Z</time>
      </trkpt>
      <trkpt lat="37.746239" lon="-1.028452">
        <ele>77.0</ele>
        <time>2015-12-07T12:22:55Z</time>
      </trkpt>
      <trkpt lat="37.746289" lon="-1.028472">
        <ele>77.0</ele>
        <time>2015-12-07T12:23:01Z</time>
      </trkpt>
      <trkpt lat="37.746377" lon="-1.028524">
        <ele>76.6</ele>
        <time>2015-12-07T12:23:07Z</time>
      </trkpt>
      <trkpt lat="37.746631" lon="-1.028656">
        <ele>77.0</ele>
        <time>2015-12-07T12:23:27Z</time>
      </trkpt>
      <trkpt lat="37.746875" lon="-1.028789">
        <ele>77.5</ele>
        <time>2015-12-07T12:23:48Z</time>
      </trkpt>
      <trkpt lat="37.746985" lon="-1.028827">
        <ele>78.0</ele>
        <time>2015-12-07T12:24:00Z</time>
      </trkpt>
      <trkpt lat="37.747020" lon="-1.028811">
        <ele>77.5</ele>
        <time>2015-12-07T12:24:06Z</time>
      </trkpt>
      <trkpt lat="37.747277" lon="-1.028928">
        <ele>77.5</ele>
        <time>2015-12-07T12:24:24Z</time>
      </trkpt>
      <trkpt lat="37.747555" lon="-1.029068">
        <ele>78.0</ele>
        <time>2015-12-07T12:24:44Z</time>
      </trkpt>
      <trkpt lat="37.747823" lon="-1.029182">
        <ele>78.0</ele>
        <time>2015-12-07T12:25:03Z</time>
      </trkpt>
      <trkpt lat="37.748054" lon="-1.029292">
        <ele>78.5</ele>
        <time>2015-12-07T12:25:21Z</time>
      </trkpt>
      <trkpt lat="37.748322" lon="-1.029416">
        <ele>79.0</ele>
        <time>2015-12-07T12:25:42Z</time>
      </trkpt>
      <trkpt lat="37.748543" lon="-1.029532">
        <ele>79.4</ele>
        <time>2015-12-07T12:26:00Z</time>
      </trkpt>
      <trkpt lat="37.748756" lon="-1.029634">
        <ele>79.0</ele>
        <time>2015-12-07T12:26:17Z</time>
      </trkpt>
      <trkpt lat="37.748938" lon="-1.029706">
        <ele>79.4</ele>
        <time>2015-12-07T12:26:31Z</time>
      </trkpt>
      <trkpt lat="37.749149" lon="-1.029810">
        <ele>79.4</ele>
        <time>2015-12-07T12:26:48Z</time>
      </trkpt>
      <trkpt lat="37.749207" lon="-1.029834">
        <ele>79.4</ele>
        <time>2015-12-07T12:26:53Z</time>
      </trkpt>
      <trkpt lat="37.749301" lon="-1.029879">
        <ele>79.9</ele>
        <time>2015-12-07T12:27:00Z</time>
      </trkpt>
      <trkpt lat="37.749433" lon="-1.029954">
        <ele>79.4</ele>
        <time>2015-12-07T12:27:11Z</time>
      </trkpt>
      <trkpt lat="37.749457" lon="-1.029956">
        <ele>79.4</ele>
        <time>2015-12-07T12:27:13Z</time>
      </trkpt>
      <trkpt lat="37.749519" lon="-1.029980">
        <ele>79.4</ele>
        <time>2015-12-07T12:27:18Z</time>
      </trkpt>
      <trkpt lat="37.749761" lon="-1.030087">
        <ele>79.9</ele>
        <time>2015-12-07T12:27:37Z</time>
      </trkpt>
      <trkpt lat="37.749986" lon="-1.030211">
        <ele>80.4</ele>
        <time>2015-12-07T12:27:55Z</time>
      </trkpt>
      <trkpt lat="37.750225" lon="-1.030342">
        <ele>80.4</ele>
        <time>2015-12-07T12:28:14Z</time>
      </trkpt>
      <trkpt lat="37.750234" lon="-1.030355">
        <ele>79.9</ele>
        <time>2015-12-07T12:28:15Z</time>
      </trkpt>
      <trkpt lat="37.750429" lon="-1.030433">
        <ele>79.4</ele>
        <time>2015-12-07T12:28:30Z</time>
      </trkpt>
      <trkpt lat="37.750460" lon="-1.030430">
        <ele>79.4</ele>
        <time>2015-12-07T12:28:33Z</time>
      </trkpt>
      <trkpt lat="37.750666" lon="-1.030534">
        <ele>80.4</ele>
        <time>2015-12-07T12:28:50Z</time>
      </trkpt>
      <trkpt lat="37.750894" lon="-1.030616">
        <ele>80.4</ele>
        <time>2015-12-07T12:29:08Z</time>
      </trkpt>
      <trkpt lat="37.750973" lon="-1.030662">
        <ele>79.9</ele>
        <time>2015-12-07T12:29:21Z</time>
      </trkpt>
      <trkpt lat="37.751111" lon="-1.030725">
        <ele>79.9</ele>
        <time>2015-12-07T12:29:35Z</time>
      </trkpt>
      <trkpt lat="37.751377" lon="-1.030884">
        <ele>80.9</ele>
        <time>2015-12-07T12:29:56Z</time>
      </trkpt>
      <trkpt lat="37.751390" lon="-1.030886">
        <ele>79.9</ele>
        <time>2015-12-07T12:30:11Z</time>
      </trkpt>
      <trkpt lat="37.751394" lon="-1.030897">
        <ele>80.9</ele>
        <time>2015-12-07T12:30:43Z</time>
      </trkpt>
      <trkpt lat="37.751409" lon="-1.030902">
        <ele>80.4</ele>
        <time>2015-12-07T12:31:08Z</time>
      </trkpt>
      <trkpt lat="37.751467" lon="-1.030908">
        <ele>80.4</ele>
        <time>2015-12-07T12:31:12Z</time>
      </trkpt>
      <trkpt lat="37.751766" lon="-1.031047">
        <ele>80.4</ele>
        <time>2015-12-07T12:31:32Z</time>
      </trkpt>
      <trkpt lat="37.752093" lon="-1.031173">
        <ele>79.9</ele>
        <time>2015-12-07T12:31:53Z</time>
      </trkpt>
      <trkpt lat="37.752403" lon="-1.031291">
        <ele>81.4</ele>
        <time>2015-12-07T12:32:14Z</time>
      </trkpt>
      <trkpt lat="37.752617" lon="-1.031400">
        <ele>80.4</ele>
        <time>2015-12-07T12:32:30Z</time>
      </trkpt>
      <trkpt lat="37.752866" lon="-1.031553">
        <ele>81.8</ele>
        <time>2015-12-07T12:32:49Z</time>
      </trkpt>
      <trkpt lat="37.753090" lon="-1.031650">
        <ele>81.8</ele>
        <time>2015-12-07T12:33:06Z</time>
      </trkpt>
      <trkpt lat="37.753371" lon="-1.031751">
        <ele>81.4</ele>
        <time>2015-12-07T12:33:25Z</time>
      </trkpt>
      <trkpt lat="37.753642" lon="-1.031896">
        <ele>81.8</ele>
        <time>2015-12-07T12:33:45Z</time>
      </trkpt>
      <trkpt lat="37.753882" lon="-1.032012">
        <ele>82.3</ele>
        <time>2015-12-07T12:34:02Z</time>
      </trkpt>
      <trkpt lat="37.754089" lon="-1.032100">
        <ele>80.9</ele>
        <time>2015-12-07T12:34:19Z</time>
      </trkpt>
      <trkpt lat="37.754267" lon="-1.032182">
        <ele>81.4</ele>
        <time>2015-12-07T12:34:32Z</time>
      </trkpt>
      <trkpt lat="37.754489" lon="-1.032298">
        <ele>82.3</ele>
        <time>2015-12-07T12:34:49Z</time>
      </trkpt>
      <trkpt lat="37.754592" lon="-1.032350">
        <ele>83.3</ele>
        <time>2015-12-07T12:34:56Z</time>
      </trkpt>
      <trkpt lat="37.754839" lon="-1.032456">
        <ele>82.3</ele>
        <time>2015-12-07T12:35:13Z</time>
      </trkpt>
      <trkpt lat="37.755063" lon="-1.032538">
        <ele>82.3</ele>
        <time>2015-12-07T12:35:27Z</time>
      </trkpt>
      <trkpt lat="37.755399" lon="-1.032678">
        <ele>82.8</ele>
        <time>2015-12-07T12:35:51Z</time>
      </trkpt>
      <trkpt lat="37.755695" lon="-1.032827">
        <ele>82.8</ele>
        <time>2015-12-07T12:36:12Z</time>
      </trkpt>
      <trkpt lat="37.755943" lon="-1.032946">
        <ele>83.3</ele>
        <time>2015-12-07T12:36:29Z</time>
      </trkpt>
      <trkpt lat="37.756136" lon="-1.033030">
        <ele>83.8</ele>
        <time>2015-12-07T12:36:43Z</time>
      </trkpt>
      <trkpt lat="37.756378" lon="-1.033154">
        <ele>84.2</ele>
        <time>2015-12-07T12:37:01Z</time>
      </trkpt>
      <trkpt lat="37.756683" lon="-1.033299">
        <ele>85.2</ele>
        <time>2015-12-07T12:37:21Z</time>
      </trkpt>
      <trkpt lat="37.756937" lon="-1.033404">
        <ele>85.7</ele>
        <time>2015-12-07T12:37:38Z</time>
      </trkpt>
      <trkpt lat="37.756960" lon="-1.033437">
        <ele>85.7</ele>
        <time>2015-12-07T12:37:50Z</time>
      </trkpt>
      <trkpt lat="37.757002" lon="-1.033433">
        <ele>85.2</ele>
        <time>2015-12-07T12:37:53Z</time>
      </trkpt>
      <trkpt lat="37.757191" lon="-1.033519">
        <ele>85.7</ele>
        <time>2015-12-07T12:38:06Z</time>
      </trkpt>
      <trkpt lat="37.757272" lon="-1.033579">
        <ele>85.7</ele>
        <time>2015-12-07T12:38:12Z</time>
      </trkpt>
      <trkpt lat="37.757559" lon="-1.033693">
        <ele>86.7</ele>
        <time>2015-12-07T12:38:31Z</time>
      </trkpt>
      <trkpt lat="37.757621" lon="-1.033721">
        <ele>87.1</ele>
        <time>2015-12-07T12:38:37Z</time>
      </trkpt>
      <trkpt lat="37.757677" lon="-1.033741">
        <ele>86.7</ele>
        <time>2015-12-07T12:38:41Z</time>
      </trkpt>
      <trkpt lat="37.757838" lon="-1.033819">
        <ele>87.1</ele>
        <time>2015-12-07T12:39:00Z</time>
      </trkpt>
      <trkpt lat="37.757834" lon="-1.033825">
        <ele>86.7</ele>
        <time>2015-12-07T12:39:06Z</time>
      </trkpt>
      <trkpt lat="37.757882" lon="-1.033854">
        <ele>86.7</ele>
        <time>2015-12-07T12:39:10Z</time>
      </trkpt>
      <trkpt lat="37.757988" lon="-1.033897">
        <ele>86.7</ele>
        <time>2015-12-07T12:39:23Z</time>
      </trkpt>
      <trkpt lat="37.758253" lon="-1.034013">
        <ele>87.1</ele>
        <time>2015-12-07T12:39:41Z</time>
      </trkpt>
      <trkpt lat="37.758488" lon="-1.034145">
        <ele>87.1</ele>
        <time>2015-12-07T12:39:58Z</time>
      </trkpt>
      <trkpt lat="37.758800" lon="-1.034263">
        <ele>88.1</ele>
        <time>2015-12-07T12:40:19Z</time>
      </trkpt>
      <trkpt lat="37.758998" lon="-1.034361">
        <ele>86.7</ele>
        <time>2015-12-07T12:40:33Z</time>
      </trkpt>
      <trkpt lat="37.759157" lon="-1.034458">
        <ele>87.6</ele>
        <time>2015-12-07T12:40:46Z</time>
      </trkpt>
      <trkpt lat="37.759365" lon="-1.034546">
        <ele>88.1</ele>
        <time>2015-12-07T12:41:01Z</time>
      </trkpt>
      <trkpt lat="37.759533" lon="-1.034667">
        <ele>89.1</ele>
        <time>2015-12-07T12:41:16Z</time>
      </trkpt>
      <trkpt lat="37.759534" lon="-1.034669">
        <ele>89.1</ele>
        <time>2015-12-07T12:41:18Z</time>
      </trkpt>
      <trkpt lat="37.759802" lon="-1.034793">
        <ele>90.0</ele>
        <time>2015-12-07T12:41:37Z</time>
      </trkpt>
      <trkpt lat="37.759996" lon="-1.034845">
        <ele>90.0</ele>
        <time>2015-12-07T12:41:53Z</time>
      </trkpt>
      <trkpt lat="37.760004" lon="-1.034840">
        <ele>90.0</ele>
        <time>2015-12-07T12:42:01Z</time>
      </trkpt>
      <trkpt lat="37.760308" lon="-1.035013">
        <ele>89.5</ele>
        <time>2015-12-07T12:42:22Z</time>
      </trkpt>
      <trkpt lat="37.760447" lon="-1.035062">
        <ele>90.5</ele>
        <time>2015-12-07T12:42:37Z</time>
      </trkpt>
      <trkpt lat="37.760449" lon="-1.035069">
        <ele>91.0</ele>
        <time>2015-12-07T12:42:42Z</time>
      </trkpt>
      <trkpt lat="37.760645" lon="-1.035138">
        <ele>90.5</ele>
        <time>2015-12-07T12:42:57Z</time>
      </trkpt>
      <trkpt lat="37.760885" lon="-1.035248">
        <ele>91.0</ele>
        <time>2015-12-07T12:43:14Z</time>
      </trkpt>
      <trkpt lat="37.761144" lon="-1.035364">
        <ele>91.5</ele>
        <time>2015-12-07T12:43:32Z</time>
      </trkpt>
      <trkpt lat="37.761423" lon="-1.035512">
        <ele>91.9</ele>
        <time>2015-12-07T12:43:53Z</time>
      </trkpt>
      <trkpt lat="37.761465" lon="-1.035523">
        <ele>91.5</ele>
        <time>2015-12-07T12:44:05Z</time>
      </trkpt>
      <trkpt lat="37.761669" lon="-1.035641">
        <ele>91.9</ele>
        <time>2015-12-07T12:44:20Z</time>
      </trkpt>
      <trkpt lat="37.761939" lon="-1.035775">
        <ele>92.9</ele>
        <time>2015-12-07T12:44:39Z</time>
      </trkpt>
      <trkpt lat="37.762243" lon="-1.035876">
        <ele>92.9</ele>
        <time>2015-12-07T12:44:58Z</time>
      </trkpt>
      <trkpt lat="37.762515" lon="-1.036000">
        <ele>93.4</ele>
        <time>2015-12-07T12:45:16Z</time>
      </trkpt>
      <trkpt lat="37.762653" lon="-1.036064">
        <ele>93.4</ele>
        <time>2015-12-07T12:45:42Z</time>
      </trkpt>
      <trkpt lat="37.762856" lon="-1.036177">
        <ele>93.9</ele>
        <time>2015-12-07T12:45:56Z</time>
      </trkpt>
      <trkpt lat="37.762954" lon="-1.036189">
        <ele>93.9</ele>
        <time>2015-12-07T12:46:02Z</time>
      </trkpt>
      <trkpt lat="37.763269" lon="-1.036333">
        <ele>94.3</ele>
        <time>2015-12-07T12:46:24Z</time>
      </trkpt>
      <trkpt lat="37.763303" lon="-1.036359">
        <ele>94.3</ele>
        <time>2015-12-07T12:46:27Z</time>
      </trkpt>
      <trkpt lat="37.763421" lon="-1.036395">
        <ele>94.3</ele>
        <time>2015-12-07T12:46:46Z</time>
      </trkpt>
      <trkpt lat="37.763486" lon="-1.036399">
        <ele>94.3</ele>
        <time>2015-12-07T12:47:00Z</time>
      </trkpt>
      <trkpt lat="37.763673" lon="-1.036497">
        <ele>94.8</ele>
        <time>2015-12-07T12:47:14Z</time>
      </trkpt>
      <trkpt lat="37.763868" lon="-1.036602">
        <ele>94.8</ele>
        <time>2015-12-07T12:47:28Z</time>
      </trkpt>
      <trkpt lat="37.764157" lon="-1.036705">
        <ele>96.3</ele>
        <time>2015-12-07T12:48:03Z</time>
      </trkpt>
      <trkpt lat="37.764215" lon="-1.036723">
        <ele>95.8</ele>
        <time>2015-12-07T12:48:07Z</time>
      </trkpt>
      <trkpt lat="37.764536" lon="-1.036862">
        <ele>95.8</ele>
        <time>2015-12-07T12:48:27Z</time>
      </trkpt>
      <trkpt lat="37.765445" lon="-1.037210">
        <ele>96.3</ele>
        <time>2015-12-07T12:49:39Z</time>
      </trkpt>
      <trkpt lat="37.765448" lon="-1.037209">
        <ele>96.3</ele>
        <time>2015-12-07T12:49:40Z</time>
      </trkpt>
      <trkpt lat="37.765494" lon="-1.037241">
        <ele>96.8</ele>
        <time>2015-12-07T12:49:44Z</time>
      </trkpt>
      <trkpt lat="37.765777" lon="-1.037351">
        <ele>96.3</ele>
        <time>2015-12-07T12:50:03Z</time>
      </trkpt>
      <trkpt lat="37.766092" lon="-1.037396">
        <ele>96.8</ele>
        <time>2015-12-07T12:50:23Z</time>
      </trkpt>
      <trkpt lat="37.766361" lon="-1.037486">
        <ele>97.2</ele>
        <time>2015-12-07T12:50:41Z</time>
      </trkpt>
      <trkpt lat="37.766662" lon="-1.037587">
        <ele>96.8</ele>
        <time>2015-12-07T12:51:01Z</time>
      </trkpt>
      <trkpt lat="37.766970" lon="-1.037644">
        <ele>97.7</ele>
        <time>2015-12-07T12:51:21Z</time>
      </trkpt>
      <trkpt lat="37.767191" lon="-1.037717">
        <ele>97.7</ele>
        <time>2015-12-07T12:51:36Z</time>
      </trkpt>
      <trkpt lat="37.767488" lon="-1.037831">
        <ele>98.2</ele>
        <time>2015-12-07T12:51:56Z</time>
      </trkpt>
      <trkpt lat="37.767704" lon="-1.037912">
        <ele>98.7</ele>
        <time>2015-12-07T12:52:11Z</time>
      </trkpt>
      <trkpt lat="37.768028" lon="-1.037999">
        <ele>99.2</ele>
        <time>2015-12-07T12:52:31Z</time>
      </trkpt>
      <trkpt lat="37.768245" lon="-1.038047">
        <ele>98.7</ele>
        <time>2015-12-07T12:52:46Z</time>
      </trkpt>
      <trkpt lat="37.768499" lon="-1.038145">
        <ele>99.6</ele>
        <time>2015-12-07T12:53:03Z</time>
      </trkpt>
      <trkpt lat="37.768763" lon="-1.038256">
        <ele>100.1</ele>
        <time>2015-12-07T12:53:22Z</time>
      </trkpt>
      <trkpt lat="37.768948" lon="-1.038283">
        <ele>100.1</ele>
        <time>2015-12-07T12:53:36Z</time>
      </trkpt>
      <trkpt lat="37.769069" lon="-1.038315">
        <ele>100.1</ele>
        <time>2015-12-07T12:53:47Z</time>
      </trkpt>
      <trkpt lat="37.769238" lon="-1.038363">
        <ele>100.6</ele>
        <time>2015-12-07T12:54:00Z</time>
      </trkpt>
      <trkpt lat="37.769295" lon="-1.038383">
        <ele>100.6</ele>
        <time>2015-12-07T12:54:04Z</time>
      </trkpt>
      <trkpt lat="37.769372" lon="-1.038407">
        <ele>101.1</ele>
        <time>2015-12-07T12:54:09Z</time>
      </trkpt>
      <trkpt lat="37.769673" lon="-1.038540">
        <ele>101.1</ele>
        <time>2015-12-07T12:54:28Z</time>
      </trkpt>
      <trkpt lat="37.769922" lon="-1.038603">
        <ele>101.6</ele>
        <time>2015-12-07T12:54:44Z</time>
      </trkpt>
      <trkpt lat="37.769992" lon="-1.038632">
        <ele>102.0</ele>
        <time>2015-12-07T12:54:49Z</time>
      </trkpt>
      <trkpt lat="37.770241" lon="-1.038689">
        <ele>102.0</ele>
        <time>2015-12-07T12:55:06Z</time>
      </trkpt>
      <trkpt lat="37.770497" lon="-1.038756">
        <ele>102.5</ele>
        <time>2015-12-07T12:55:24Z</time>
      </trkpt>
      <trkpt lat="37.770718" lon="-1.038850">
        <ele>102.5</ele>
        <time>2015-12-07T12:55:40Z</time>
      </trkpt>
      <trkpt lat="37.770958" lon="-1.039049">
        <ele>103.5</ele>
        <time>2015-12-07T12:56:00Z</time>
      </trkpt>
      <trkpt lat="37.771118" lon="-1.039234">
        <ele>103.0</ele>
        <time>2015-12-07T12:56:16Z</time>
      </trkpt>
      <trkpt lat="37.771322" lon="-1.039479">
        <ele>103.5</ele>
        <time>2015-12-07T12:56:36Z</time>
      </trkpt>
      <trkpt lat="37.771525" lon="-1.039737">
        <ele>104.0</ele>
        <time>2015-12-07T12:56:56Z</time>
      </trkpt>
      <trkpt lat="37.771764" lon="-1.039987">
        <ele>104.4</ele>
        <time>2015-12-07T12:57:17Z</time>
      </trkpt>
      <trkpt lat="37.771835" lon="-1.040072">
        <ele>104.4</ele>
        <time>2015-12-07T12:57:24Z</time>
      </trkpt>
      <trkpt lat="37.771989" lon="-1.040244">
        <ele>104.9</ele>
        <time>2015-12-07T12:57:39Z</time>
      </trkpt>
      <trkpt lat="37.772128" lon="-1.040398">
        <ele>104.4</ele>
        <time>2015-12-07T12:57:52Z</time>
      </trkpt>
      <trkpt lat="37.772301" lon="-1.040588">
        <ele>104.9</ele>
        <time>2015-12-07T12:58:08Z</time>
      </trkpt>
      <trkpt lat="37.772396" lon="-1.040718">
        <ele>104.9</ele>
        <time>2015-12-07T12:58:22Z</time>
      </trkpt>
      <trkpt lat="37.772483" lon="-1.040801">
        <ele>105.4</ele>
        <time>2015-12-07T12:58:29Z</time>
      </trkpt>
      <trkpt lat="37.772462" lon="-1.040818">
        <ele>105.4</ele>
        <time>2015-12-07T12:58:40Z</time>
      </trkpt>
      <trkpt lat="37.772603" lon="-1.040988">
        <ele>105.4</ele>
        <time>2015-12-07T12:58:56Z</time>
      </trkpt>
      <trkpt lat="37.772604" lon="-1.040987">
        <ele>105.9</ele>
        <time>2015-12-07T12:59:00Z</time>
      </trkpt>
      <trkpt lat="37.772677" lon="-1.041043">
        <ele>105.9</ele>
        <time>2015-12-07T12:59:11Z</time>
      </trkpt>
      <trkpt lat="37.772673" lon="-1.041077">
        <ele>105.4</ele>
        <time>2015-12-07T12:59:24Z</time>
      </trkpt>
      <trkpt lat="37.772684" lon="-1.041065">
        <ele>105.4</ele>
        <time>2015-12-07T12:59:34Z</time>
      </trkpt>
      <trkpt lat="37.772734" lon="-1.041050">
        <ele>105.4</ele>
        <time>2015-12-07T12:59:38Z</time>
      </trkpt>
      <trkpt lat="37.772977" lon="-1.041141">
        <ele>105.4</ele>
        <time>2015-12-07T12:59:57Z</time>
      </trkpt>
      <trkpt lat="37.773271" lon="-1.041216">
        <ele>105.4</ele>
        <time>2015-12-07T13:00:17Z</time>
      </trkpt>
      <trkpt lat="37.773541" lon="-1.041308">
        <ele>105.4</ele>
        <time>2015-12-07T13:00:37Z</time>
      </trkpt>
      <trkpt lat="37.773728" lon="-1.041353">
        <ele>105.9</ele>
        <time>2015-12-07T13:00:51Z</time>
      </trkpt>
      <trkpt lat="37.773970" lon="-1.041414">
        <ele>105.9</ele>
        <time>2015-12-07T13:01:08Z</time>
      </trkpt>
      <trkpt lat="37.774245" lon="-1.041515">
        <ele>105.9</ele>
        <time>2015-12-07T13:01:27Z</time>
      </trkpt>
      <trkpt lat="37.774527" lon="-1.041575">
        <ele>105.9</ele>
        <time>2015-12-07T13:01:46Z</time>
      </trkpt>
      <trkpt lat="37.774810" lon="-1.041666">
        <ele>104.9</ele>
        <time>2015-12-07T13:02:07Z</time>
      </trkpt>
      <trkpt lat="37.775046" lon="-1.041719">
        <ele>105.4</ele>
        <time>2015-12-07T13:02:25Z</time>
      </trkpt>
      <trkpt lat="37.775290" lon="-1.041790">
        <ele>105.9</ele>
        <time>2015-12-07T13:02:43Z</time>
      </trkpt>
      <trkpt lat="37.775462" lon="-1.041839">
        <ele>105.9</ele>
        <time>2015-12-07T13:02:58Z</time>
      </trkpt>
      <trkpt lat="37.775546" lon="-1.041850">
        <ele>105.9</ele>
        <time>2015-12-07T13:03:03Z</time>
      </trkpt>
      <trkpt lat="37.775789" lon="-1.041949">
        <ele>106.4</ele>
        <time>2015-12-07T13:03:19Z</time>
      </trkpt>
      <trkpt lat="37.776020" lon="-1.042027">
        <ele>106.4</ele>
        <time>2015-12-07T13:03:36Z</time>
      </trkpt>
      <trkpt lat="37.776319" lon="-1.042075">
        <ele>106.8</ele>
        <time>2015-12-07T13:03:55Z</time>
      </trkpt>
      <trkpt lat="37.776470" lon="-1.042130">
        <ele>107.3</ele>
        <time>2015-12-07T13:04:06Z</time>
      </trkpt>
      <trkpt lat="37.776699" lon="-1.042205">
        <ele>107.3</ele>
        <time>2015-12-07T13:04:23Z</time>
      </trkpt>
      <trkpt lat="37.776969" lon="-1.042288">
        <ele>108.3</ele>
        <time>2015-12-07T13:04:42Z</time>
      </trkpt>
      <trkpt lat="37.777232" lon="-1.042342">
        <ele>108.8</ele>
        <time>2015-12-07T13:05:00Z</time>
      </trkpt>
      <trkpt lat="37.777475" lon="-1.042403">
        <ele>109.7</ele>
        <time>2015-12-07T13:05:17Z</time>
      </trkpt>
      <trkpt lat="37.777715" lon="-1.042516">
        <ele>110.7</ele>
        <time>2015-12-07T13:05:35Z</time>
      </trkpt>
      <trkpt lat="37.777951" lon="-1.042702">
        <ele>110.7</ele>
        <time>2015-12-07T13:05:55Z</time>
      </trkpt>
      <trkpt lat="37.778195" lon="-1.042897">
        <ele>111.2</ele>
        <time>2015-12-07T13:06:15Z</time>
      </trkpt>
      <trkpt lat="37.778432" lon="-1.043071">
        <ele>111.7</ele>
        <time>2015-12-07T13:06:34Z</time>
      </trkpt>
      <trkpt lat="37.778443" lon="-1.043081">
        <ele>107.3</ele>
        <time>2015-12-07T13:06:35Z</time>
      </trkpt>
      <trkpt lat="37.778454" lon="-1.043091">
        <ele>114.1</ele>
        <time>2015-12-07T13:06:36Z</time>
      </trkpt>
      <trkpt lat="37.778490" lon="-1.043118">
        <ele>111.2</ele>
        <time>2015-12-07T13:06:39Z</time>
      </trkpt>
      <trkpt lat="37.778606" lon="-1.043224">
        <ele>111.7</ele>
        <time>2015-12-07T13:06:49Z</time>
      </trkpt>
      <trkpt lat="37.778740" lon="-1.043328">
        <ele>111.7</ele>
        <time>2015-12-07T13:06:59Z</time>
      </trkpt>
      <trkpt lat="37.778972" lon="-1.043530">
        <ele>112.6</ele>
        <time>2015-12-07T13:07:19Z</time>
      </trkpt>
      <trkpt lat="37.779193" lon="-1.043709">
        <ele>112.6</ele>
        <time>2015-12-07T13:07:37Z</time>
      </trkpt>
      <trkpt lat="37.779417" lon="-1.043894">
        <ele>113.1</ele>
        <time>2015-12-07T13:07:56Z</time>
      </trkpt>
      <trkpt lat="37.779654" lon="-1.044107">
        <ele>113.6</ele>
        <time>2015-12-07T13:08:16Z</time>
      </trkpt>
      <trkpt lat="37.779843" lon="-1.044246">
        <ele>114.1</ele>
        <time>2015-12-07T13:08:31Z</time>
      </trkpt>
      <trkpt lat="37.780061" lon="-1.044442">
        <ele>114.5</ele>
        <time>2015-12-07T13:08:50Z</time>
      </trkpt>
      <trkpt lat="37.780282" lon="-1.044631">
        <ele>114.5</ele>
        <time>2015-12-07T13:09:09Z</time>
      </trkpt>
      <trkpt lat="37.780505" lon="-1.044812">
        <ele>115.0</ele>
        <time>2015-12-07T13:09:28Z</time>
      </trkpt>
      <trkpt lat="37.780749" lon="-1.045014">
        <ele>115.5</ele>
        <time>2015-12-07T13:09:48Z</time>
      </trkpt>
      <trkpt lat="37.780952" lon="-1.045179">
        <ele>116.0</ele>
        <time>2015-12-07T13:10:05Z</time>
      </trkpt>
      <trkpt lat="37.781151" lon="-1.045356">
        <ele>116.5</ele>
        <time>2015-12-07T13:10:23Z</time>
      </trkpt>
      <trkpt lat="37.781307" lon="-1.045505">
        <ele>116.9</ele>
        <time>2015-12-07T13:10:38Z</time>
      </trkpt>
      <trkpt lat="37.781523" lon="-1.045684">
        <ele>117.4</ele>
        <time>2015-12-07T13:10:56Z</time>
      </trkpt>
      <trkpt lat="37.781726" lon="-1.045844">
        <ele>117.4</ele>
        <time>2015-12-07T13:11:13Z</time>
      </trkpt>
      <trkpt lat="37.781963" lon="-1.046045">
        <ele>117.4</ele>
        <time>2015-12-07T13:11:33Z</time>
      </trkpt>
      <trkpt lat="37.782190" lon="-1.046245">
        <ele>118.4</ele>
        <time>2015-12-07T13:11:53Z</time>
      </trkpt>
      <trkpt lat="37.782416" lon="-1.046426">
        <ele>118.9</ele>
        <time>2015-12-07T13:12:12Z</time>
      </trkpt>
      <trkpt lat="37.782644" lon="-1.046599">
        <ele>118.9</ele>
        <time>2015-12-07T13:12:30Z</time>
      </trkpt>
      <trkpt lat="37.782853" lon="-1.046770">
        <ele>119.3</ele>
        <time>2015-12-07T13:12:48Z</time>
      </trkpt>
      <trkpt lat="37.783061" lon="-1.046960">
        <ele>119.8</ele>
        <time>2015-12-07T13:13:06Z</time>
      </trkpt>
      <trkpt lat="37.783311" lon="-1.047177">
        <ele>119.8</ele>
        <time>2015-12-07T13:13:27Z</time>
      </trkpt>
      <trkpt lat="37.783548" lon="-1.047370">
        <ele>120.3</ele>
        <time>2015-12-07T13:13:47Z</time>
      </trkpt>
      <trkpt lat="37.783761" lon="-1.047547">
        <ele>121.3</ele>
        <time>2015-12-07T13:14:05Z</time>
      </trkpt>
      <trkpt lat="37.783948" lon="-1.047698">
        <ele>121.3</ele>
        <time>2015-12-07T13:14:20Z</time>
      </trkpt>
      <trkpt lat="37.783981" lon="-1.047731">
        <ele>122.2</ele>
        <time>2015-12-07T13:14:30Z</time>
      </trkpt>
      <trkpt lat="37.784206" lon="-1.047829">
        <ele>121.3</ele>
        <time>2015-12-07T13:14:57Z</time>
      </trkpt>
      <trkpt lat="37.784274" lon="-1.047846">
        <ele>121.3</ele>
        <time>2015-12-07T13:15:15Z</time>
      </trkpt>
      <trkpt lat="37.784478" lon="-1.048046">
        <ele>121.3</ele>
        <time>2015-12-07T13:15:27Z</time>
      </trkpt>
      <trkpt lat="37.784731" lon="-1.048210">
        <ele>121.7</ele>
        <time>2015-12-07T13:15:46Z</time>
      </trkpt>
      <trkpt lat="37.784916" lon="-1.048346">
        <ele>122.2</ele>
        <time>2015-12-07T13:16:02Z</time>
      </trkpt>
      <trkpt lat="37.784986" lon="-1.048368">
        <ele>122.2</ele>
        <time>2015-12-07T13:16:07Z</time>
      </trkpt>
      <trkpt lat="37.785186" lon="-1.048514">
        <ele>122.2</ele>
        <time>2015-12-07T13:16:25Z</time>
      </trkpt>
      <trkpt lat="37.785415" lon="-1.048673">
        <ele>122.7</ele>
        <time>2015-12-07T13:16:44Z</time>
      </trkpt>
      <trkpt lat="37.785622" lon="-1.048821">
        <ele>123.7</ele>
        <time>2015-12-07T13:17:01Z</time>
      </trkpt>
      <trkpt lat="37.785823" lon="-1.048942">
        <ele>123.7</ele>
        <time>2015-12-07T13:17:17Z</time>
      </trkpt>
      <trkpt lat="37.786052" lon="-1.049096">
        <ele>124.2</ele>
        <time>2015-12-07T13:17:35Z</time>
      </trkpt>
      <trkpt lat="37.786190" lon="-1.049213">
        <ele>124.2</ele>
        <time>2015-12-07T13:17:47Z</time>
      </trkpt>
      <trkpt lat="37.786285" lon="-1.049310">
        <ele>124.2</ele>
        <time>2015-12-07T13:18:02Z</time>
      </trkpt>
      <trkpt lat="37.786379" lon="-1.049369">
        <ele>124.2</ele>
        <time>2015-12-07T13:18:15Z</time>
      </trkpt>
      <trkpt lat="37.786575" lon="-1.049525">
        <ele>124.2</ele>
        <time>2015-12-07T13:18:32Z</time>
      </trkpt>
      <trkpt lat="37.786731" lon="-1.049661">
        <ele>124.2</ele>
        <time>2015-12-07T13:18:46Z</time>
      </trkpt>
      <trkpt lat="37.786950" lon="-1.049846">
        <ele>125.1</ele>
        <time>2015-12-07T13:19:05Z</time>
      </trkpt>
      <trkpt lat="37.787171" lon="-1.050035">
        <ele>125.6</ele>
        <time>2015-12-07T13:19:24Z</time>
      </trkpt>
      <trkpt lat="37.787411" lon="-1.050214">
        <ele>125.1</ele>
        <time>2015-12-07T13:19:43Z</time>
      </trkpt>
      <trkpt lat="37.787607" lon="-1.050380">
        <ele>125.1</ele>
        <time>2015-12-07T13:20:00Z</time>
      </trkpt>
      <trkpt lat="37.787813" lon="-1.050568">
        <ele>125.1</ele>
        <time>2015-12-07T13:20:18Z</time>
      </trkpt>
      <trkpt lat="37.788064" lon="-1.050786">
        <ele>125.6</ele>
        <time>2015-12-07T13:20:39Z</time>
      </trkpt>
      <trkpt lat="37.788264" lon="-1.050925">
        <ele>126.1</ele>
        <time>2015-12-07T13:20:55Z</time>
      </trkpt>
      <trkpt lat="37.788505" lon="-1.051128">
        <ele>125.6</ele>
        <time>2015-12-07T13:21:15Z</time>
      </trkpt>
      <trkpt lat="37.788724" lon="-1.051331">
        <ele>125.6</ele>
        <time>2015-12-07T13:21:34Z</time>
      </trkpt>
      <trkpt lat="37.788959" lon="-1.051509">
        <ele>126.1</ele>
        <time>2015-12-07T13:21:52Z</time>
      </trkpt>
      <trkpt lat="37.789176" lon="-1.051695">
        <ele>126.1</ele>
        <time>2015-12-07T13:22:10Z</time>
      </trkpt>
      <trkpt lat="37.789310" lon="-1.051802">
        <ele>127.0</ele>
        <time>2015-12-07T13:22:16Z</time>
      </trkpt>
      <trkpt lat="37.789356" lon="-1.051828">
        <ele>126.6</ele>
        <time>2015-12-07T13:22:24Z</time>
      </trkpt>
      <trkpt lat="37.789495" lon="-1.051941">
        <ele>127.0</ele>
        <time>2015-12-07T13:22:36Z</time>
      </trkpt>
      <trkpt lat="37.789688" lon="-1.052125">
        <ele>127.5</ele>
        <time>2015-12-07T13:22:53Z</time>
      </trkpt>
      <trkpt lat="37.789889" lon="-1.052293">
        <ele>127.5</ele>
        <time>2015-12-07T13:23:10Z</time>
      </trkpt>
      <trkpt lat="37.790079" lon="-1.052448">
        <ele>127.5</ele>
        <time>2015-12-07T13:23:26Z</time>
      </trkpt>
      <trkpt lat="37.790305" lon="-1.052654">
        <ele>128.0</ele>
        <time>2015-12-07T13:23:46Z</time>
      </trkpt>
      <trkpt lat="37.790551" lon="-1.052835">
        <ele>128.0</ele>
        <time>2015-12-07T13:24:05Z</time>
      </trkpt>
      <trkpt lat="37.790786" lon="-1.053024">
        <ele>128.5</ele>
        <time>2015-12-07T13:24:24Z</time>
      </trkpt>
      <trkpt lat="37.790986" lon="-1.053215">
        <ele>128.9</ele>
        <time>2015-12-07T13:24:42Z</time>
      </trkpt>
      <trkpt lat="37.791231" lon="-1.053412">
        <ele>129.4</ele>
        <time>2015-12-07T13:25:01Z</time>
      </trkpt>
      <trkpt lat="37.791476" lon="-1.053612">
        <ele>129.4</ele>
        <time>2015-12-07T13:25:21Z</time>
      </trkpt>
      <trkpt lat="37.791688" lon="-1.053793">
        <ele>129.9</ele>
        <time>2015-12-07T13:25:39Z</time>
      </trkpt>
      <trkpt lat="37.791925" lon="-1.053976">
        <ele>130.4</ele>
        <time>2015-12-07T13:25:57Z</time>
      </trkpt>
      <trkpt lat="37.792157" lon="-1.054174">
        <ele>130.9</ele>
        <time>2015-12-07T13:26:16Z</time>
      </trkpt>
      <trkpt lat="37.792359" lon="-1.054331">
        <ele>131.4</ele>
        <time>2015-12-07T13:26:32Z</time>
      </trkpt>
      <trkpt lat="37.792631" lon="-1.054565">
        <ele>131.8</ele>
        <time>2015-12-07T13:26:55Z</time>
      </trkpt>
      <trkpt lat="37.792929" lon="-1.054807">
        <ele>131.8</ele>
        <time>2015-12-07T13:27:18Z</time>
      </trkpt>
      <trkpt lat="37.793195" lon="-1.055036">
        <ele>132.3</ele>
        <time>2015-12-07T13:27:40Z</time>
      </trkpt>
      <trkpt lat="37.793434" lon="-1.055232">
        <ele>132.8</ele>
        <time>2015-12-07T13:27:59Z</time>
      </trkpt>
      <trkpt lat="37.793664" lon="-1.055416">
        <ele>132.3</ele>
        <time>2015-12-07T13:28:18Z</time>
      </trkpt>
      <trkpt lat="37.793959" lon="-1.055675">
        <ele>133.3</ele>
        <time>2015-12-07T13:28:43Z</time>
      </trkpt>
      <trkpt lat="37.794211" lon="-1.055877">
        <ele>133.3</ele>
        <time>2015-12-07T13:29:03Z</time>
      </trkpt>
      <trkpt lat="37.794483" lon="-1.056093">
        <ele>134.2</ele>
        <time>2015-12-07T13:29:25Z</time>
      </trkpt>
      <trkpt lat="37.794747" lon="-1.056312">
        <ele>134.2</ele>
        <time>2015-12-07T13:29:46Z</time>
      </trkpt>
      <trkpt lat="37.795039" lon="-1.056562">
        <ele>135.2</ele>
        <time>2015-12-07T13:30:10Z</time>
      </trkpt>
      <trkpt lat="37.795342" lon="-1.056831">
        <ele>134.2</ele>
        <time>2015-12-07T13:30:35Z</time>
      </trkpt>
      <trkpt lat="37.795640" lon="-1.057055">
        <ele>135.2</ele>
        <time>2015-12-07T13:30:58Z</time>
      </trkpt>
      <trkpt lat="37.795839" lon="-1.057239">
        <ele>135.2</ele>
        <time>2015-12-07T13:31:16Z</time>
      </trkpt>
      <trkpt lat="37.796084" lon="-1.057427">
        <ele>135.7</ele>
        <time>2015-12-07T13:31:35Z</time>
      </trkpt>
      <trkpt lat="37.796278" lon="-1.057609">
        <ele>136.2</ele>
        <time>2015-12-07T13:31:52Z</time>
      </trkpt>
      <trkpt lat="37.796549" lon="-1.057831">
        <ele>135.7</ele>
        <time>2015-12-07T13:32:14Z</time>
      </trkpt>
      <trkpt lat="37.796776" lon="-1.058002">
        <ele>136.2</ele>
        <time>2015-12-07T13:32:32Z</time>
      </trkpt>
      <trkpt lat="37.796981" lon="-1.058191">
        <ele>136.2</ele>
        <time>2015-12-07T13:32:48Z</time>
      </trkpt>
      <trkpt lat="37.797012" lon="-1.058220">
        <ele>137.1</ele>
        <time>2015-12-07T13:32:51Z</time>
      </trkpt>
      <trkpt lat="37.797198" lon="-1.058359">
        <ele>135.2</ele>
        <time>2015-12-07T13:33:06Z</time>
      </trkpt>
      <trkpt lat="37.797481" lon="-1.058595">
        <ele>136.2</ele>
        <time>2015-12-07T13:33:29Z</time>
      </trkpt>
      <trkpt lat="37.797733" lon="-1.058795">
        <ele>136.2</ele>
        <time>2015-12-07T13:33:49Z</time>
      </trkpt>
      <trkpt lat="37.797871" lon="-1.058925">
        <ele>137.1</ele>
        <time>2015-12-07T13:34:02Z</time>
      </trkpt>
      <trkpt lat="37.798072" lon="-1.059082">
        <ele>137.1</ele>
        <time>2015-12-07T13:34:19Z</time>
      </trkpt>
      <trkpt lat="37.798262" lon="-1.059246">
        <ele>137.6</ele>
        <time>2015-12-07T13:34:35Z</time>
      </trkpt>
      <trkpt lat="37.798479" lon="-1.059437">
        <ele>137.6</ele>
        <time>2015-12-07T13:34:54Z</time>
      </trkpt>
      <trkpt lat="37.798729" lon="-1.059656">
        <ele>138.1</ele>
        <time>2015-12-07T13:35:15Z</time>
      </trkpt>
      <trkpt lat="37.798762" lon="-1.059691">
        <ele>138.6</ele>
        <time>2015-12-07T13:35:18Z</time>
      </trkpt>
      <trkpt lat="37.798919" lon="-1.059805">
        <ele>138.6</ele>
        <time>2015-12-07T13:35:31Z</time>
      </trkpt>
      <trkpt lat="37.799153" lon="-1.059991">
        <ele>139.1</ele>
        <time>2015-12-07T13:35:50Z</time>
      </trkpt>
      <trkpt lat="37.799365" lon="-1.060190">
        <ele>138.6</ele>
        <time>2015-12-07T13:36:09Z</time>
      </trkpt>
      <trkpt lat="37.799391" lon="-1.060213">
        <ele>138.1</ele>
        <time>2015-12-07T13:36:12Z</time>
      </trkpt>
      <trkpt lat="37.799437" lon="-1.060239">
        <ele>138.6</ele>
        <time>2015-12-07T13:36:16Z</time>
      </trkpt>
      <trkpt lat="37.799691" lon="-1.060431">
        <ele>139.1</ele>
        <time>2015-12-07T13:36:37Z</time>
      </trkpt>
      <trkpt lat="37.799888" lon="-1.060591">
        <ele>139.1</ele>
        <time>2015-12-07T13:36:53Z</time>
      </trkpt>
      <trkpt lat="37.800154" lon="-1.060820">
        <ele>140.0</ele>
        <time>2015-12-07T13:37:16Z</time>
      </trkpt>
      <trkpt lat="37.800411" lon="-1.061056">
        <ele>140.0</ele>
        <time>2015-12-07T13:37:38Z</time>
      </trkpt>
      <trkpt lat="37.800695" lon="-1.061272">
        <ele>140.5</ele>
        <time>2015-12-07T13:38:00Z</time>
      </trkpt>
      <trkpt lat="37.800973" lon="-1.061541">
        <ele>141.0</ele>
        <time>2015-12-07T13:38:24Z</time>
      </trkpt>
      <trkpt lat="37.801225" lon="-1.061720">
        <ele>141.0</ele>
        <time>2015-12-07T13:38:43Z</time>
      </trkpt>
      <trkpt lat="37.801491" lon="-1.061965">
        <ele>141.0</ele>
        <time>2015-12-07T13:39:06Z</time>
      </trkpt>
      <trkpt lat="37.801797" lon="-1.062194">
        <ele>141.9</ele>
        <time>2015-12-07T13:39:29Z</time>
      </trkpt>
      <trkpt lat="37.801992" lon="-1.062355">
        <ele>141.4</ele>
        <time>2015-12-07T13:39:45Z</time>
      </trkpt>
      <trkpt lat="37.802025" lon="-1.062378">
        <ele>141.9</ele>
        <time>2015-12-07T13:39:55Z</time>
      </trkpt>
      <trkpt lat="37.802050" lon="-1.062357">
        <ele>141.9</ele>
        <time>2015-12-07T13:40:05Z</time>
      </trkpt>
      <trkpt lat="37.802286" lon="-1.062538">
        <ele>142.9</ele>
        <time>2015-12-07T13:40:22Z</time>
      </trkpt>
      <trkpt lat="37.802351" lon="-1.062591">
        <ele>142.4</ele>
        <time>2015-12-07T13:40:34Z</time>
      </trkpt>
      <trkpt lat="37.802356" lon="-1.062594">
        <ele>142.4</ele>
        <time>2015-12-07T13:40:39Z</time>
      </trkpt>
      <trkpt lat="37.802575" lon="-1.062763">
        <ele>142.4</ele>
        <time>2015-12-07T13:40:57Z</time>
      </trkpt>
      <trkpt lat="37.802870" lon="-1.062980">
        <ele>142.4</ele>
        <time>2015-12-07T13:41:20Z</time>
      </trkpt>
      <trkpt lat="37.802973" lon="-1.063055">
        <ele>142.9</ele>
        <time>2015-12-07T13:41:35Z</time>
      </trkpt>
      <trkpt lat="37.803258" lon="-1.063247">
        <ele>142.9</ele>
        <time>2015-12-07T13:41:55Z</time>
      </trkpt>
      <trkpt lat="37.803439" lon="-1.063379">
        <ele>142.9</ele>
        <time>2015-12-07T13:42:11Z</time>
      </trkpt>
      <trkpt lat="37.803442" lon="-1.063380">
        <ele>143.4</ele>
        <time>2015-12-07T13:42:12Z</time>
      </trkpt>
      <trkpt lat="37.803496" lon="-1.063434">
        <ele>142.9</ele>
        <time>2015-12-07T13:42:20Z</time>
      </trkpt>
      <trkpt lat="37.803691" lon="-1.063561">
        <ele>143.9</ele>
        <time>2015-12-07T13:42:36Z</time>
      </trkpt>
      <trkpt lat="37.803918" lon="-1.063745">
        <ele>143.9</ele>
        <time>2015-12-07T13:42:56Z</time>
      </trkpt>
      <trkpt lat="37.803975" lon="-1.063778">
        <ele>143.9</ele>
        <time>2015-12-07T13:43:00Z</time>
      </trkpt>
      <trkpt lat="37.804199" lon="-1.063948">
        <ele>144.3</ele>
        <time>2015-12-07T13:43:19Z</time>
      </trkpt>
      <trkpt lat="37.804280" lon="-1.064008">
        <ele>144.8</ele>
        <time>2015-12-07T13:43:25Z</time>
      </trkpt>
      <trkpt lat="37.804348" lon="-1.064043">
        <ele>144.3</ele>
        <time>2015-12-07T13:43:30Z</time>
      </trkpt>
      <trkpt lat="37.804596" lon="-1.064236">
        <ele>143.9</ele>
        <time>2015-12-07T13:43:50Z</time>
      </trkpt>
      <trkpt lat="37.804890" lon="-1.064426">
        <ele>143.4</ele>
        <time>2015-12-07T13:44:13Z</time>
      </trkpt>
      <trkpt lat="37.805138" lon="-1.064624">
        <ele>145.3</ele>
        <time>2015-12-07T13:44:34Z</time>
      </trkpt>
      <trkpt lat="37.805427" lon="-1.064846">
        <ele>145.8</ele>
        <time>2015-12-07T13:45:09Z</time>
      </trkpt>
      <trkpt lat="37.805694" lon="-1.065036">
        <ele>146.3</ele>
        <time>2015-12-07T13:45:29Z</time>
      </trkpt>
      <trkpt lat="37.805777" lon="-1.065094">
        <ele>146.3</ele>
        <time>2015-12-07T13:45:43Z</time>
      </trkpt>
      <trkpt lat="37.805768" lon="-1.065102">
        <ele>146.3</ele>
        <time>2015-12-07T13:45:48Z</time>
      </trkpt>
      <trkpt lat="37.805920" lon="-1.065215">
        <ele>146.3</ele>
        <time>2015-12-07T13:46:02Z</time>
      </trkpt>
      <trkpt lat="37.806074" lon="-1.065320">
        <ele>146.3</ele>
        <time>2015-12-07T13:46:16Z</time>
      </trkpt>
      <trkpt lat="37.806335" lon="-1.065502">
        <ele>145.8</ele>
        <time>2015-12-07T13:46:36Z</time>
      </trkpt>
      <trkpt lat="37.806521" lon="-1.065619">
        <ele>145.3</ele>
        <time>2015-12-07T13:46:51Z</time>
      </trkpt>
      <trkpt lat="37.806747" lon="-1.065777">
        <ele>145.8</ele>
        <time>2015-12-07T13:47:09Z</time>
      </trkpt>
      <trkpt lat="37.806998" lon="-1.065959">
        <ele>146.7</ele>
        <time>2015-12-07T13:47:29Z</time>
      </trkpt>
      <trkpt lat="37.807256" lon="-1.066164">
        <ele>147.7</ele>
        <time>2015-12-07T13:47:49Z</time>
      </trkpt>
      <trkpt lat="37.807524" lon="-1.066390">
        <ele>148.2</ele>
        <time>2015-12-07T13:48:11Z</time>
      </trkpt>
      <trkpt lat="37.807695" lon="-1.066514">
        <ele>148.2</ele>
        <time>2015-12-07T13:48:27Z</time>
      </trkpt>
      <trkpt lat="37.807882" lon="-1.066651">
        <ele>148.7</ele>
        <time>2015-12-07T13:48:42Z</time>
      </trkpt>
      <trkpt lat="37.808092" lon="-1.066798">
        <ele>149.1</ele>
        <time>2015-12-07T13:48:59Z</time>
      </trkpt>
      <trkpt lat="37.808292" lon="-1.066963">
        <ele>149.1</ele>
        <time>2015-12-07T13:49:16Z</time>
      </trkpt>
      <trkpt lat="37.808551" lon="-1.067123">
        <ele>149.1</ele>
        <time>2015-12-07T13:49:35Z</time>
      </trkpt>
      <trkpt lat="37.808818" lon="-1.067328">
        <ele>149.6</ele>
        <time>2015-12-07T13:49:56Z</time>
      </trkpt>
      <trkpt lat="37.809018" lon="-1.067491">
        <ele>150.1</ele>
        <time>2015-12-07T13:50:13Z</time>
      </trkpt>
      <trkpt lat="37.809315" lon="-1.067668">
        <ele>149.6</ele>
        <time>2015-12-07T13:50:35Z</time>
      </trkpt>
      <trkpt lat="37.809518" lon="-1.067834">
        <ele>150.6</ele>
        <time>2015-12-07T13:50:52Z</time>
      </trkpt>
      <trkpt lat="37.809691" lon="-1.067970">
        <ele>149.1</ele>
        <time>2015-12-07T13:51:06Z</time>
      </trkpt>
      <trkpt lat="37.809787" lon="-1.068060">
        <ele>150.1</ele>
        <time>2015-12-07T13:51:15Z</time>
      </trkpt>
      <trkpt lat="37.809811" lon="-1.068064">
        <ele>150.6</ele>
        <time>2015-12-07T13:51:17Z</time>
      </trkpt>
      <trkpt lat="37.809891" lon="-1.068116">
        <ele>150.1</ele>
        <time>2015-12-07T13:51:23Z</time>
      </trkpt>
      <trkpt lat="37.810147" lon="-1.068316">
        <ele>151.1</ele>
        <time>2015-12-07T13:51:44Z</time>
      </trkpt>
      <trkpt lat="37.810431" lon="-1.068482">
        <ele>151.1</ele>
        <time>2015-12-07T13:52:04Z</time>
      </trkpt>
      <trkpt lat="37.810664" lon="-1.068686">
        <ele>151.1</ele>
        <time>2015-12-07T13:52:24Z</time>
      </trkpt>
      <trkpt lat="37.810891" lon="-1.068827">
        <ele>153.0</ele>
        <time>2015-12-07T13:52:42Z</time>
      </trkpt>
      <trkpt lat="37.811129" lon="-1.069015">
        <ele>153.5</ele>
        <time>2015-12-07T13:53:00Z</time>
      </trkpt>
      <trkpt lat="37.811224" lon="-1.069100">
        <ele>154.4</ele>
        <time>2015-12-07T13:53:08Z</time>
      </trkpt>
      <trkpt lat="37.811307" lon="-1.069103">
        <ele>153.9</ele>
        <time>2015-12-07T13:53:19Z</time>
      </trkpt>
      <trkpt lat="37.811313" lon="-1.069101">
        <ele>153.9</ele>
        <time>2015-12-07T13:53:20Z</time>
      </trkpt>
      <trkpt lat="37.811463" lon="-1.069234">
        <ele>154.4</ele>
        <time>2015-12-07T13:53:34Z</time>
      </trkpt>
      <trkpt lat="37.811658" lon="-1.069382">
        <ele>154.4</ele>
        <time>2015-12-07T13:53:51Z</time>
      </trkpt>
      <trkpt lat="37.811924" lon="-1.069577">
        <ele>155.4</ele>
        <time>2015-12-07T13:54:13Z</time>
      </trkpt>
      <trkpt lat="37.812065" lon="-1.069710">
        <ele>155.4</ele>
        <time>2015-12-07T13:54:26Z</time>
      </trkpt>
      <trkpt lat="37.812106" lon="-1.069748">
        <ele>155.4</ele>
        <time>2015-12-07T13:54:30Z</time>
      </trkpt>
      <trkpt lat="37.812225" lon="-1.069881">
        <ele>156.4</ele>
        <time>2015-12-07T13:54:46Z</time>
      </trkpt>
      <trkpt lat="37.812240" lon="-1.069866">
        <ele>156.8</ele>
        <time>2015-12-07T13:54:56Z</time>
      </trkpt>
      <trkpt lat="37.812283" lon="-1.069987">
        <ele>156.4</ele>
        <time>2015-12-07T13:55:03Z</time>
      </trkpt>
      <trkpt lat="37.812513" lon="-1.070280">
        <ele>156.4</ele>
        <time>2015-12-07T13:55:23Z</time>
      </trkpt>
      <trkpt lat="37.812762" lon="-1.070562">
        <ele>157.3</ele>
        <time>2015-12-07T13:55:44Z</time>
      </trkpt>
      <trkpt lat="37.812947" lon="-1.070790">
        <ele>158.3</ele>
        <time>2015-12-07T13:56:01Z</time>
      </trkpt>
      <trkpt lat="37.813134" lon="-1.071016">
        <ele>158.3</ele>
        <time>2015-12-07T13:56:32Z</time>
      </trkpt>
      <trkpt lat="37.813181" lon="-1.071082">
        <ele>158.3</ele>
        <time>2015-12-07T13:56:44Z</time>
      </trkpt>
      <trkpt lat="37.813233" lon="-1.071143">
        <ele>158.3</ele>
        <time>2015-12-07T13:56:49Z</time>
      </trkpt>
      <trkpt lat="37.813295" lon="-1.071156">
        <ele>158.8</ele>
        <time>2015-12-07T13:56:53Z</time>
      </trkpt>
      <trkpt lat="37.813463" lon="-1.071366">
        <ele>158.8</ele>
        <time>2015-12-07T13:57:10Z</time>
      </trkpt>
      <trkpt lat="37.813652" lon="-1.071582">
        <ele>159.2</ele>
        <time>2015-12-07T13:57:53Z</time>
      </trkpt>
      <trkpt lat="37.813717" lon="-1.071649">
        <ele>159.7</ele>
        <time>2015-12-07T13:58:21Z</time>
      </trkpt>
      <trkpt lat="37.813773" lon="-1.071713">
        <ele>158.8</ele>
        <time>2015-12-07T14:02:13Z</time>
      </trkpt>
      <trkpt lat="37.813851" lon="-1.071895">
        <ele>159.7</ele>
        <time>2015-12-07T14:02:27Z</time>
      </trkpt>
      <trkpt lat="37.813891" lon="-1.071957">
        <ele>159.7</ele>
        <time>2015-12-07T14:02:40Z</time>
      </trkpt>
      <trkpt lat="37.813942" lon="-1.072034">
        <ele>159.2</ele>
        <time>2015-12-07T14:02:53Z</time>
      </trkpt>
      <trkpt lat="37.813954" lon="-1.072052">
        <ele>159.2</ele>
        <time>2015-12-07T14:02:58Z</time>
      </trkpt>
      <trkpt lat="37.813983" lon="-1.072074">
        <ele>158.8</ele>
        <time>2015-12-07T14:03:01Z</time>
      </trkpt>
      <trkpt lat="37.813996" lon="-1.072104">
        <ele>159.2</ele>
        <time>2015-12-07T14:03:04Z</time>
      </trkpt>
      <trkpt lat="37.814226" lon="-1.072361">
        <ele>159.2</ele>
        <time>2015-12-07T14:03:26Z</time>
      </trkpt>
      <trkpt lat="37.814394" lon="-1.072543">
        <ele>159.7</ele>
        <time>2015-12-07T14:03:42Z</time>
      </trkpt>
      <trkpt lat="37.814482" lon="-1.072615">
        <ele>159.2</ele>
        <time>2015-12-07T14:03:53Z</time>
      </trkpt>
      <trkpt lat="37.814653" lon="-1.072843">
        <ele>159.7</ele>
        <time>2015-12-07T14:04:11Z</time>
      </trkpt>
      <trkpt lat="37.814863" lon="-1.073073">
        <ele>160.2</ele>
        <time>2015-12-07T14:04:30Z</time>
      </trkpt>
      <trkpt lat="37.815042" lon="-1.073323">
        <ele>161.2</ele>
        <time>2015-12-07T14:04:50Z</time>
      </trkpt>
      <trkpt lat="37.815202" lon="-1.073537">
        <ele>161.6</ele>
        <time>2015-12-07T14:05:08Z</time>
      </trkpt>
      <trkpt lat="37.815383" lon="-1.073745">
        <ele>162.6</ele>
        <time>2015-12-07T14:05:27Z</time>
      </trkpt>
      <trkpt lat="37.815559" lon="-1.073973">
        <ele>162.1</ele>
        <time>2015-12-07T14:05:46Z</time>
      </trkpt>
      <trkpt lat="37.815711" lon="-1.074275">
        <ele>162.1</ele>
        <time>2015-12-07T14:06:07Z</time>
      </trkpt>
      <trkpt lat="37.815806" lon="-1.074589">
        <ele>163.1</ele>
        <time>2015-12-07T14:06:26Z</time>
      </trkpt>
      <trkpt lat="37.815907" lon="-1.074903">
        <ele>161.6</ele>
        <time>2015-12-07T14:06:46Z</time>
      </trkpt>
      <trkpt lat="37.815923" lon="-1.074962">
        <ele>165.5</ele>
        <time>2015-12-07T14:06:50Z</time>
      </trkpt>
      <trkpt lat="37.815927" lon="-1.074978">
        <ele>160.7</ele>
        <time>2015-12-07T14:06:51Z</time>
      </trkpt>
      <trkpt lat="37.815932" lon="-1.074994">
        <ele>165.0</ele>
        <time>2015-12-07T14:06:52Z</time>
      </trkpt>
      <trkpt lat="37.815946" lon="-1.075045">
        <ele>161.6</ele>
        <time>2015-12-07T14:06:55Z</time>
      </trkpt>
      <trkpt lat="37.816000" lon="-1.075204">
        <ele>165.0</ele>
        <time>2015-12-07T14:07:05Z</time>
      </trkpt>
      <trkpt lat="37.816065" lon="-1.075347">
        <ele>161.2</ele>
        <time>2015-12-07T14:07:15Z</time>
      </trkpt>
      <trkpt lat="37.816073" lon="-1.075359">
        <ele>165.0</ele>
        <time>2015-12-07T14:07:16Z</time>
      </trkpt>
      <trkpt lat="37.816203" lon="-1.075584">
        <ele>165.0</ele>
        <time>2015-12-07T14:07:33Z</time>
      </trkpt>
      <trkpt lat="37.816406" lon="-1.075819">
        <ele>165.5</ele>
        <time>2015-12-07T14:07:54Z</time>
      </trkpt>
      <trkpt lat="37.816577" lon="-1.076018">
        <ele>165.5</ele>
        <time>2015-12-07T14:08:11Z</time>
      </trkpt>
      <trkpt lat="37.816638" lon="-1.076072">
        <ele>166.0</ele>
        <time>2015-12-07T14:08:25Z</time>
      </trkpt>
      <trkpt lat="37.816880" lon="-1.076302">
        <ele>166.4</ele>
        <time>2015-12-07T14:08:44Z</time>
      </trkpt>
      <trkpt lat="37.817071" lon="-1.076472">
        <ele>166.4</ele>
        <time>2015-12-07T14:09:02Z</time>
      </trkpt>
      <trkpt lat="37.817216" lon="-1.076638">
        <ele>166.9</ele>
        <time>2015-12-07T14:09:16Z</time>
      </trkpt>
      <trkpt lat="37.817437" lon="-1.076820">
        <ele>167.4</ele>
        <time>2015-12-07T14:09:34Z</time>
      </trkpt>
      <trkpt lat="37.817570" lon="-1.076981">
        <ele>167.9</ele>
        <time>2015-12-07T14:09:49Z</time>
      </trkpt>
      <trkpt lat="37.817791" lon="-1.077350">
        <ele>168.9</ele>
        <time>2015-12-07T14:10:24Z</time>
      </trkpt>
      <trkpt lat="37.817882" lon="-1.077379">
        <ele>168.9</ele>
        <time>2015-12-07T14:10:31Z</time>
      </trkpt>
      <trkpt lat="37.818038" lon="-1.077613">
        <ele>166.4</ele>
        <time>2016-04-02T06:22:43Z</time>
      </trkpt>
      <trkpt lat="37.818067" lon="-1.077602">
        <ele>166.9</ele>
        <time>2016-04-02T06:22:54Z</time>
      </trkpt>
      <trkpt lat="37.818100" lon="-1.077618">
        <ele>167.4</ele>
        <time>2016-04-02T06:23:08Z</time>
      </trkpt>
      <trkpt lat="37.818107" lon="-1.077620">
        <ele>166.4</ele>
        <time>2016-04-02T06:23:27Z</time>
      </trkpt>
      <trkpt lat="37.818197" lon="-1.077520">
        <ele>166.9</ele>
        <time>2016-04-02T06:23:38Z</time>
      </trkpt>
      <trkpt lat="37.818284" lon="-1.077529">
        <ele>167.4</ele>
        <time>2016-04-02T06:23:47Z</time>
      </trkpt>
      <trkpt lat="37.818430" lon="-1.077610">
        <ele>167.9</ele>
        <time>2016-04-02T06:23:57Z</time>
      </trkpt>
      <trkpt lat="37.818439" lon="-1.077594">
        <ele>168.4</ele>
        <time>2016-04-02T06:25:03Z</time>
      </trkpt>
      <trkpt lat="37.818597" lon="-1.077125">
        <ele>166.0</ele>
        <time>2016-04-02T06:25:39Z</time>
      </trkpt>
      <trkpt lat="37.818681" lon="-1.076944">
        <ele>165.5</ele>
        <time>2016-04-02T06:25:53Z</time>
      </trkpt>
      <trkpt lat="37.818744" lon="-1.076843">
        <ele>166.0</ele>
        <time>2016-04-02T06:26:01Z</time>
      </trkpt>
      <trkpt lat="37.818832" lon="-1.076676">
        <ele>165.0</ele>
        <time>2016-04-02T06:26:14Z</time>
      </trkpt>
      <trkpt lat="37.818882" lon="-1.076607">
        <ele>165.5</ele>
        <time>2016-04-02T06:26:20Z</time>
      </trkpt>
      <trkpt lat="37.819036" lon="-1.076486">
        <ele>165.5</ele>
        <time>2016-04-02T06:26:36Z</time>
      </trkpt>
      <trkpt lat="37.819260" lon="-1.076389">
        <ele>165.0</ele>
        <time>2016-04-02T06:26:53Z</time>
      </trkpt>
      <trkpt lat="37.819472" lon="-1.076319">
        <ele>165.5</ele>
        <time>2016-04-02T06:27:09Z</time>
      </trkpt>
      <trkpt lat="37.819722" lon="-1.076211">
        <ele>164.5</ele>
        <time>2016-04-02T06:27:31Z</time>
      </trkpt>
      <trkpt lat="37.819973" lon="-1.076075">
        <ele>164.5</ele>
        <time>2016-04-02T06:27:51Z</time>
      </trkpt>
      <trkpt lat="37.820203" lon="-1.075954">
        <ele>165.5</ele>
        <time>2016-04-02T06:28:10Z</time>
      </trkpt>
      <trkpt lat="37.820420" lon="-1.075861">
        <ele>166.0</ele>
        <time>2016-04-02T06:28:29Z</time>
      </trkpt>
      <trkpt lat="37.820619" lon="-1.075767">
        <ele>166.0</ele>
        <time>2016-04-02T06:28:45Z</time>
      </trkpt>
      <trkpt lat="37.820853" lon="-1.075715">
        <ele>165.5</ele>
        <time>2016-04-02T06:29:03Z</time>
      </trkpt>
      <trkpt lat="37.820986" lon="-1.075669">
        <ele>166.0</ele>
        <time>2016-04-02T06:29:14Z</time>
      </trkpt>
      <trkpt lat="37.821189" lon="-1.075550">
        <ele>165.0</ele>
        <time>2016-04-02T06:29:30Z</time>
      </trkpt>
      <trkpt lat="37.821335" lon="-1.075464">
        <ele>165.5</ele>
        <time>2016-04-02T06:29:44Z</time>
      </trkpt>
      <trkpt lat="37.821490" lon="-1.075442">
        <ele>165.0</ele>
        <time>2016-04-02T06:29:56Z</time>
      </trkpt>
      <trkpt lat="37.821729" lon="-1.075390">
        <ele>164.5</ele>
        <time>2016-04-02T06:30:15Z</time>
      </trkpt>
      <trkpt lat="37.821770" lon="-1.075373">
        <ele>164.5</ele>
        <time>2016-04-02T06:30:18Z</time>
      </trkpt>
      <trkpt lat="37.821995" lon="-1.075309">
        <ele>164.5</ele>
        <time>2016-04-02T06:30:37Z</time>
      </trkpt>
      <trkpt lat="37.822253" lon="-1.075261">
        <ele>165.0</ele>
        <time>2016-04-02T06:30:58Z</time>
      </trkpt>
      <trkpt lat="37.822497" lon="-1.075207">
        <ele>165.0</ele>
        <time>2016-04-02T06:31:18Z</time>
      </trkpt>
      <trkpt lat="37.822668" lon="-1.075159">
        <ele>165.5</ele>
        <time>2016-04-02T06:31:32Z</time>
      </trkpt>
      <trkpt lat="37.822766" lon="-1.075138">
        <ele>165.0</ele>
        <time>2016-04-02T06:31:41Z</time>
      </trkpt>
      <trkpt lat="37.822879" lon="-1.075101">
        <ele>165.5</ele>
        <time>2016-04-02T06:31:56Z</time>
      </trkpt>
      <trkpt lat="37.822951" lon="-1.075082">
        <ele>165.0</ele>
        <time>2016-04-02T06:32:09Z</time>
      </trkpt>
      <trkpt lat="37.823070" lon="-1.075053">
        <ele>164.5</ele>
        <time>2016-04-02T06:32:25Z</time>
      </trkpt>
      <trkpt lat="37.823198" lon="-1.075023">
        <ele>165.5</ele>
        <time>2016-04-02T06:32:39Z</time>
      </trkpt>
      <trkpt lat="37.823244" lon="-1.075001">
        <ele>165.5</ele>
        <time>2016-04-02T06:32:43Z</time>
      </trkpt>
      <trkpt lat="37.823470" lon="-1.075007">
        <ele>166.0</ele>
        <time>2016-04-02T06:33:01Z</time>
      </trkpt>
      <trkpt lat="37.823541" lon="-1.075024">
        <ele>166.4</ele>
        <time>2016-04-02T06:33:15Z</time>
      </trkpt>
      <trkpt lat="37.823566" lon="-1.075028">
        <ele>166.0</ele>
        <time>2016-04-02T06:33:27Z</time>
      </trkpt>
      <trkpt lat="37.823771" lon="-1.075089">
        <ele>166.9</ele>
        <time>2016-04-02T06:33:45Z</time>
      </trkpt>
      <trkpt lat="37.823990" lon="-1.075164">
        <ele>167.4</ele>
        <time>2016-04-02T06:34:03Z</time>
      </trkpt>
      <trkpt lat="37.824243" lon="-1.075227">
        <ele>166.9</ele>
        <time>2016-04-02T06:34:23Z</time>
      </trkpt>
      <trkpt lat="37.824590" lon="-1.075320">
        <ele>168.4</ele>
        <time>2016-04-02T06:34:50Z</time>
      </trkpt>
      <trkpt lat="37.824871" lon="-1.075360">
        <ele>168.4</ele>
        <time>2016-04-02T06:35:12Z</time>
      </trkpt>
      <trkpt lat="37.824989" lon="-1.075400">
        <ele>168.9</ele>
        <time>2016-04-02T06:35:29Z</time>
      </trkpt>
      <trkpt lat="37.824992" lon="-1.075412">
        <ele>168.9</ele>
        <time>2016-04-02T06:35:31Z</time>
      </trkpt>
      <trkpt lat="37.825233" lon="-1.075383">
        <ele>169.8</ele>
        <time>2016-04-02T06:35:51Z</time>
      </trkpt>
      <trkpt lat="37.825505" lon="-1.075389">
        <ele>169.8</ele>
        <time>2016-04-02T06:36:12Z</time>
      </trkpt>
      <trkpt lat="37.825665" lon="-1.075380">
        <ele>170.3</ele>
        <time>2016-04-02T06:36:27Z</time>
      </trkpt>
      <trkpt lat="37.825835" lon="-1.075201">
        <ele>169.8</ele>
        <time>2016-04-02T06:36:44Z</time>
      </trkpt>
      <trkpt lat="37.825952" lon="-1.074948">
        <ele>170.8</ele>
        <time>2016-04-02T06:37:01Z</time>
      </trkpt>
      <trkpt lat="37.826113" lon="-1.074711">
        <ele>169.8</ele>
        <time>2016-04-02T06:37:20Z</time>
      </trkpt>
      <trkpt lat="37.826311" lon="-1.074498">
        <ele>170.3</ele>
        <time>2016-04-02T06:37:40Z</time>
      </trkpt>
      <trkpt lat="37.826402" lon="-1.074424">
        <ele>170.3</ele>
        <time>2016-04-02T06:37:49Z</time>
      </trkpt>
      <trkpt lat="37.826484" lon="-1.074356">
        <ele>169.8</ele>
        <time>2016-04-02T06:37:57Z</time>
      </trkpt>
      <trkpt lat="37.826703" lon="-1.074190">
        <ele>169.8</ele>
        <time>2016-04-02T06:38:17Z</time>
      </trkpt>
      <trkpt lat="37.826893" lon="-1.074053">
        <ele>169.8</ele>
        <time>2016-04-02T06:38:34Z</time>
      </trkpt>
      <trkpt lat="37.827104" lon="-1.073886">
        <ele>169.8</ele>
        <time>2016-04-02T06:38:53Z</time>
      </trkpt>
      <trkpt lat="37.827303" lon="-1.073693">
        <ele>169.3</ele>
        <time>2016-04-02T06:39:11Z</time>
      </trkpt>
      <trkpt lat="37.827517" lon="-1.073544">
        <ele>169.3</ele>
        <time>2016-04-02T06:39:30Z</time>
      </trkpt>
      <trkpt lat="37.827691" lon="-1.073417">
        <ele>170.3</ele>
        <time>2016-04-02T06:39:46Z</time>
      </trkpt>
      <trkpt lat="37.827895" lon="-1.073245">
        <ele>170.3</ele>
        <time>2016-04-02T06:40:04Z</time>
      </trkpt>
      <trkpt lat="37.827942" lon="-1.073214">
        <ele>170.3</ele>
        <time>2016-04-02T06:40:08Z</time>
      </trkpt>
      <trkpt lat="37.828132" lon="-1.073074">
        <ele>170.8</ele>
        <time>2016-04-02T06:40:24Z</time>
      </trkpt>
      <trkpt lat="37.828232" lon="-1.072996">
        <ele>170.8</ele>
        <time>2016-04-02T06:40:35Z</time>
      </trkpt>
      <trkpt lat="37.828298" lon="-1.072958">
        <ele>171.2</ele>
        <time>2016-04-02T06:40:44Z</time>
      </trkpt>
      <trkpt lat="37.828288" lon="-1.072942">
        <ele>170.8</ele>
        <time>2016-04-02T06:40:56Z</time>
      </trkpt>
      <trkpt lat="37.828289" lon="-1.072940">
        <ele>171.2</ele>
        <time>2016-04-02T06:40:57Z</time>
      </trkpt>
      <trkpt lat="37.828380" lon="-1.072911">
        <ele>171.7</ele>
        <time>2016-04-02T06:41:10Z</time>
      </trkpt>
      <trkpt lat="37.828676" lon="-1.072775">
        <ele>171.7</ele>
        <time>2016-04-02T06:41:32Z</time>
      </trkpt>
      <trkpt lat="37.828987" lon="-1.072666">
        <ele>173.2</ele>
        <time>2016-04-02T06:41:53Z</time>
      </trkpt>
      <trkpt lat="37.829331" lon="-1.072548">
        <ele>174.6</ele>
        <time>2016-04-02T06:42:17Z</time>
      </trkpt>
      <trkpt lat="37.829564" lon="-1.072475">
        <ele>175.1</ele>
        <time>2016-04-02T06:42:36Z</time>
      </trkpt>
      <trkpt lat="37.829801" lon="-1.072384">
        <ele>175.6</ele>
        <time>2016-04-02T06:42:55Z</time>
      </trkpt>
      <trkpt lat="37.830048" lon="-1.072287">
        <ele>175.6</ele>
        <time>2016-04-02T06:43:14Z</time>
      </trkpt>
      <trkpt lat="37.830102" lon="-1.072257">
        <ele>176.1</ele>
        <time>2016-04-02T06:43:25Z</time>
      </trkpt>
      <trkpt lat="37.830150" lon="-1.072232">
        <ele>176.1</ele>
        <time>2016-04-02T06:43:45Z</time>
      </trkpt>
      <trkpt lat="37.830245" lon="-1.072197">
        <ele>176.1</ele>
        <time>2016-04-02T06:43:57Z</time>
      </trkpt>
      <trkpt lat="37.830266" lon="-1.072198">
        <ele>176.5</ele>
        <time>2016-04-02T06:43:59Z</time>
      </trkpt>
      <trkpt lat="37.830476" lon="-1.072127">
        <ele>177.0</ele>
        <time>2016-04-02T06:44:16Z</time>
      </trkpt>
      <trkpt lat="37.830684" lon="-1.072021">
        <ele>176.5</ele>
        <time>2016-04-02T06:44:32Z</time>
      </trkpt>
      <trkpt lat="37.830952" lon="-1.071930">
        <ele>177.0</ele>
        <time>2016-04-02T06:44:53Z</time>
      </trkpt>
      <trkpt lat="37.831202" lon="-1.071839">
        <ele>177.5</ele>
        <time>2016-04-02T06:45:12Z</time>
      </trkpt>
      <trkpt lat="37.831334" lon="-1.071810">
        <ele>178.0</ele>
        <time>2016-04-02T06:45:22Z</time>
      </trkpt>
      <trkpt lat="37.831596" lon="-1.071737">
        <ele>178.0</ele>
        <time>2016-04-02T06:45:42Z</time>
      </trkpt>
      <trkpt lat="37.831680" lon="-1.071686">
        <ele>178.0</ele>
        <time>2016-04-02T06:45:49Z</time>
      </trkpt>
      <trkpt lat="37.831961" lon="-1.071548">
        <ele>178.0</ele>
        <time>2016-04-02T06:46:10Z</time>
      </trkpt>
      <trkpt lat="37.832139" lon="-1.071507">
        <ele>178.9</ele>
        <time>2016-04-02T06:46:24Z</time>
      </trkpt>
      <trkpt lat="37.832437" lon="-1.071381">
        <ele>178.0</ele>
        <time>2016-04-02T06:46:46Z</time>
      </trkpt>
      <trkpt lat="37.832714" lon="-1.071163">
        <ele>176.1</ele>
        <time>2016-04-02T06:47:09Z</time>
      </trkpt>
      <trkpt lat="37.833017" lon="-1.070961">
        <ele>176.5</ele>
        <time>2016-04-02T06:47:33Z</time>
      </trkpt>
      <trkpt lat="37.833276" lon="-1.070895">
        <ele>178.0</ele>
        <time>2016-04-02T06:47:52Z</time>
      </trkpt>
      <trkpt lat="37.833514" lon="-1.070863">
        <ele>178.5</ele>
        <time>2016-04-02T06:48:09Z</time>
      </trkpt>
      <trkpt lat="37.833631" lon="-1.070881">
        <ele>179.4</ele>
        <time>2016-04-02T06:48:24Z</time>
      </trkpt>
      <trkpt lat="37.833727" lon="-1.070952">
        <ele>179.9</ele>
        <time>2016-04-02T06:48:42Z</time>
      </trkpt>
      <trkpt lat="37.833923" lon="-1.071248">
        <ele>179.9</ele>
        <time>2016-04-02T06:49:03Z</time>
      </trkpt>
      <trkpt lat="37.833921" lon="-1.071256">
        <ele>179.9</ele>
        <time>2016-04-02T06:49:05Z</time>
      </trkpt>
      <trkpt lat="37.833956" lon="-1.071312">
        <ele>180.4</ele>
        <time>2016-04-02T06:49:09Z</time>
      </trkpt>
      <trkpt lat="37.834149" lon="-1.071546">
        <ele>179.4</ele>
        <time>2016-04-02T06:49:27Z</time>
      </trkpt>
      <trkpt lat="37.834376" lon="-1.071798">
        <ele>179.9</ele>
        <time>2016-04-02T06:49:47Z</time>
      </trkpt>
      <trkpt lat="37.834453" lon="-1.071900">
        <ele>180.4</ele>
        <time>2016-04-02T06:49:55Z</time>
      </trkpt>
      <trkpt lat="37.834443" lon="-1.071927">
        <ele>180.4</ele>
        <time>2016-04-02T06:50:04Z</time>
      </trkpt>
      <trkpt lat="37.834488" lon="-1.071978">
        <ele>180.9</ele>
        <time>2016-04-02T06:50:09Z</time>
      </trkpt>
      <trkpt lat="37.834714" lon="-1.072210">
        <ele>181.4</ele>
        <time>2016-04-02T06:50:28Z</time>
      </trkpt>
      <trkpt lat="37.834748" lon="-1.072234">
        <ele>181.4</ele>
        <time>2016-04-02T06:50:40Z</time>
      </trkpt>
      <trkpt lat="37.834981" lon="-1.072392">
        <ele>181.4</ele>
        <time>2016-04-02T06:50:58Z</time>
      </trkpt>
      <trkpt lat="37.835193" lon="-1.072551">
        <ele>181.4</ele>
        <time>2016-04-02T06:51:15Z</time>
      </trkpt>
      <trkpt lat="37.835204" lon="-1.072557">
        <ele>181.4</ele>
        <time>2016-04-02T06:51:16Z</time>
      </trkpt>
      <trkpt lat="37.835242" lon="-1.072594">
        <ele>181.4</ele>
        <time>2016-04-02T06:51:20Z</time>
      </trkpt>
      <trkpt lat="37.835422" lon="-1.072730">
        <ele>181.8</ele>
        <time>2016-04-02T06:51:36Z</time>
      </trkpt>
      <trkpt lat="37.835611" lon="-1.072889">
        <ele>182.3</ele>
        <time>2016-04-02T06:51:53Z</time>
      </trkpt>
      <trkpt lat="37.835767" lon="-1.073008">
        <ele>180.9</ele>
        <time>2016-04-02T06:52:07Z</time>
      </trkpt>
      <trkpt lat="37.835923" lon="-1.073164">
        <ele>181.8</ele>
        <time>2016-04-02T06:52:22Z</time>
      </trkpt>
      <trkpt lat="37.836068" lon="-1.073265">
        <ele>182.3</ele>
        <time>2016-04-02T06:52:35Z</time>
      </trkpt>
      <trkpt lat="37.836320" lon="-1.073419">
        <ele>182.3</ele>
        <time>2016-04-02T06:52:55Z</time>
      </trkpt>
      <trkpt lat="37.836532" lon="-1.073521">
        <ele>183.3</ele>
        <time>2016-04-02T06:53:12Z</time>
      </trkpt>
      <trkpt lat="37.836728" lon="-1.073630">
        <ele>184.2</ele>
        <time>2016-04-02T06:53:28Z</time>
      </trkpt>
      <trkpt lat="37.836955" lon="-1.073786">
        <ele>184.2</ele>
        <time>2016-04-02T06:53:47Z</time>
      </trkpt>
      <trkpt lat="37.837175" lon="-1.073940">
        <ele>184.2</ele>
        <time>2016-04-02T06:54:06Z</time>
      </trkpt>
      <trkpt lat="37.837391" lon="-1.074079">
        <ele>184.2</ele>
        <time>2016-04-02T06:54:24Z</time>
      </trkpt>
      <trkpt lat="37.837604" lon="-1.074189">
        <ele>185.2</ele>
        <time>2016-04-02T06:54:41Z</time>
      </trkpt>
      <trkpt lat="37.837868" lon="-1.074295">
        <ele>185.7</ele>
        <time>2016-04-02T06:55:01Z</time>
      </trkpt>
      <trkpt lat="37.838124" lon="-1.074424">
        <ele>186.1</ele>
        <time>2016-04-02T06:55:21Z</time>
      </trkpt>
      <trkpt lat="37.838325" lon="-1.074509">
        <ele>186.1</ele>
        <time>2016-04-02T06:55:37Z</time>
      </trkpt>
      <trkpt lat="37.838562" lon="-1.074598">
        <ele>186.6</ele>
        <time>2016-04-02T06:55:55Z</time>
      </trkpt>
      <trkpt lat="37.838782" lon="-1.074688">
        <ele>187.1</ele>
        <time>2016-04-02T06:56:12Z</time>
      </trkpt>
      <trkpt lat="37.839021" lon="-1.074793">
        <ele>187.1</ele>
        <time>2016-04-02T06:56:31Z</time>
      </trkpt>
      <trkpt lat="37.839206" lon="-1.074889">
        <ele>187.1</ele>
        <time>2016-04-02T06:56:46Z</time>
      </trkpt>
      <trkpt lat="37.839407" lon="-1.074971">
        <ele>187.6</ele>
        <time>2016-04-02T06:57:01Z</time>
      </trkpt>
      <trkpt lat="37.839610" lon="-1.075097">
        <ele>187.6</ele>
        <time>2016-04-02T06:57:18Z</time>
      </trkpt>
      <trkpt lat="37.839817" lon="-1.075280">
        <ele>188.1</ele>
        <time>2016-04-02T06:57:37Z</time>
      </trkpt>
      <trkpt lat="37.839993" lon="-1.075480">
        <ele>188.1</ele>
        <time>2016-04-02T06:57:55Z</time>
      </trkpt>
      <trkpt lat="37.840215" lon="-1.075738">
        <ele>188.1</ele>
        <time>2016-04-02T06:58:17Z</time>
      </trkpt>
      <trkpt lat="37.840397" lon="-1.075959">
        <ele>188.6</ele>
        <time>2016-04-02T06:58:35Z</time>
      </trkpt>
      <trkpt lat="37.840621" lon="-1.076204">
        <ele>189.0</ele>
        <time>2016-04-02T06:58:56Z</time>
      </trkpt>
      <trkpt lat="37.840827" lon="-1.076410">
        <ele>189.0</ele>
        <time>2016-04-02T06:59:16Z</time>
      </trkpt>
      <trkpt lat="37.841030" lon="-1.076619">
        <ele>188.6</ele>
        <time>2016-04-02T06:59:35Z</time>
      </trkpt>
      <trkpt lat="37.841199" lon="-1.076819">
        <ele>189.5</ele>
        <time>2016-04-02T06:59:53Z</time>
      </trkpt>
      <trkpt lat="37.841379" lon="-1.077031">
        <ele>190.5</ele>
        <time>2016-04-02T07:00:10Z</time>
      </trkpt>
      <trkpt lat="37.841560" lon="-1.077244">
        <ele>191.0</ele>
        <time>2016-04-02T07:00:28Z</time>
      </trkpt>
      <trkpt lat="37.841713" lon="-1.077474">
        <ele>190.5</ele>
        <time>2016-04-02T07:00:45Z</time>
      </trkpt>
      <trkpt lat="37.841901" lon="-1.077724">
        <ele>191.0</ele>
        <time>2016-04-02T07:01:04Z</time>
      </trkpt>
      <trkpt lat="37.842125" lon="-1.077950">
        <ele>191.4</ele>
        <time>2016-04-02T07:01:24Z</time>
      </trkpt>
      <trkpt lat="37.842322" lon="-1.078094">
        <ele>191.9</ele>
        <time>2016-04-02T07:01:40Z</time>
      </trkpt>
      <trkpt lat="37.842540" lon="-1.078253">
        <ele>192.4</ele>
        <time>2016-04-02T07:01:58Z</time>
      </trkpt>
      <trkpt lat="37.842705" lon="-1.078416">
        <ele>192.9</ele>
        <time>2016-04-02T07:02:13Z</time>
      </trkpt>
      <trkpt lat="37.842923" lon="-1.078622">
        <ele>192.9</ele>
        <time>2016-04-02T07:02:32Z</time>
      </trkpt>
      <trkpt lat="37.843128" lon="-1.078840">
        <ele>193.8</ele>
        <time>2016-04-02T07:02:51Z</time>
      </trkpt>
      <trkpt lat="37.843280" lon="-1.079072">
        <ele>193.4</ele>
        <time>2016-04-02T07:03:08Z</time>
      </trkpt>
      <trkpt lat="37.843436" lon="-1.079351">
        <ele>194.3</ele>
        <time>2016-04-02T07:03:27Z</time>
      </trkpt>
      <trkpt lat="37.843535" lon="-1.079527">
        <ele>194.3</ele>
        <time>2016-04-02T07:03:39Z</time>
      </trkpt>
      <trkpt lat="37.843679" lon="-1.079689">
        <ele>194.8</ele>
        <time>2016-04-02T07:03:53Z</time>
      </trkpt>
      <trkpt lat="37.843859" lon="-1.079895">
        <ele>195.3</ele>
        <time>2016-04-02T07:04:12Z</time>
      </trkpt>
      <trkpt lat="37.843917" lon="-1.079940">
        <ele>195.3</ele>
        <time>2016-04-02T07:04:17Z</time>
      </trkpt>
      <trkpt lat="37.843955" lon="-1.079974">
        <ele>195.3</ele>
        <time>2016-04-02T07:04:22Z</time>
      </trkpt>
      <trkpt lat="37.844017" lon="-1.080028">
        <ele>195.3</ele>
        <time>2016-04-02T07:04:28Z</time>
      </trkpt>
      <trkpt lat="37.844152" lon="-1.080166">
        <ele>195.8</ele>
        <time>2016-04-02T07:04:42Z</time>
      </trkpt>
      <trkpt lat="37.844381" lon="-1.080343">
        <ele>195.8</ele>
        <time>2016-04-02T07:05:00Z</time>
      </trkpt>
      <trkpt lat="37.844628" lon="-1.080530">
        <ele>196.2</ele>
        <time>2016-04-02T07:05:21Z</time>
      </trkpt>
      <trkpt lat="37.844787" lon="-1.080671">
        <ele>196.2</ele>
        <time>2016-04-02T07:05:36Z</time>
      </trkpt>
      <trkpt lat="37.844934" lon="-1.080833">
        <ele>196.7</ele>
        <time>2016-04-02T07:05:52Z</time>
      </trkpt>
      <trkpt lat="37.845091" lon="-1.081022">
        <ele>196.7</ele>
        <time>2016-04-02T07:06:08Z</time>
      </trkpt>
      <trkpt lat="37.845248" lon="-1.081242">
        <ele>197.2</ele>
        <time>2016-04-02T07:06:25Z</time>
      </trkpt>
      <trkpt lat="37.845404" lon="-1.081485">
        <ele>197.2</ele>
        <time>2016-04-02T07:06:44Z</time>
      </trkpt>
      <trkpt lat="37.845551" lon="-1.081704">
        <ele>197.2</ele>
        <time>2016-04-02T07:07:01Z</time>
      </trkpt>
      <trkpt lat="37.845671" lon="-1.081925">
        <ele>197.7</ele>
        <time>2016-04-02T07:07:18Z</time>
      </trkpt>
      <trkpt lat="37.845788" lon="-1.082088">
        <ele>198.2</ele>
        <time>2016-04-02T07:07:32Z</time>
      </trkpt>
      <trkpt lat="37.845794" lon="-1.082083">
        <ele>198.2</ele>
        <time>2016-04-02T07:07:35Z</time>
      </trkpt>
      <trkpt lat="37.845832" lon="-1.082161">
        <ele>198.6</ele>
        <time>2016-04-02T07:07:41Z</time>
      </trkpt>
      <trkpt lat="37.845861" lon="-1.082198">
        <ele>198.6</ele>
        <time>2016-04-02T07:07:45Z</time>
      </trkpt>
      <trkpt lat="37.845855" lon="-1.082182">
        <ele>197.7</ele>
        <time>2016-04-02T07:08:05Z</time>
      </trkpt>
      <trkpt lat="37.845859" lon="-1.082255">
        <ele>198.2</ele>
        <time>2016-04-02T07:08:19Z</time>
      </trkpt>
      <trkpt lat="37.845961" lon="-1.082420">
        <ele>198.6</ele>
        <time>2016-04-02T07:08:30Z</time>
      </trkpt>
      <trkpt lat="37.845979" lon="-1.082463">
        <ele>198.2</ele>
        <time>2016-04-02T07:08:34Z</time>
      </trkpt>
      <trkpt lat="37.846115" lon="-1.082761">
        <ele>198.6</ele>
        <time>2016-04-02T07:08:51Z</time>
      </trkpt>
      <trkpt lat="37.846281" lon="-1.083036">
        <ele>199.1</ele>
        <time>2016-04-02T07:09:10Z</time>
      </trkpt>
      <trkpt lat="37.846369" lon="-1.083284">
        <ele>198.2</ele>
        <time>2016-04-02T07:09:24Z</time>
      </trkpt>
      <trkpt lat="37.846451" lon="-1.083590">
        <ele>198.6</ele>
        <time>2016-04-02T07:09:42Z</time>
      </trkpt>
      <trkpt lat="37.846512" lon="-1.083768">
        <ele>198.6</ele>
        <time>2016-04-02T07:09:55Z</time>
      </trkpt>
      <trkpt lat="37.846619" lon="-1.084111">
        <ele>198.6</ele>
        <time>2016-04-02T07:10:14Z</time>
      </trkpt>
      <trkpt lat="37.846696" lon="-1.084401">
        <ele>200.1</ele>
        <time>2016-04-02T07:10:30Z</time>
      </trkpt>
      <trkpt lat="37.846824" lon="-1.084731">
        <ele>200.1</ele>
        <time>2016-04-02T07:10:49Z</time>
      </trkpt>
      <trkpt lat="37.846943" lon="-1.084972">
        <ele>200.1</ele>
        <time>2016-04-02T07:11:04Z</time>
      </trkpt>
      <trkpt lat="37.847103" lon="-1.085292">
        <ele>200.6</ele>
        <time>2016-04-02T07:11:24Z</time>
      </trkpt>
      <trkpt lat="37.847297" lon="-1.085609">
        <ele>200.6</ele>
        <time>2016-04-02T07:11:45Z</time>
      </trkpt>
      <trkpt lat="37.847455" lon="-1.085971">
        <ele>200.6</ele>
        <time>2016-04-02T07:12:07Z</time>
      </trkpt>
      <trkpt lat="37.847566" lon="-1.086316">
        <ele>200.6</ele>
        <time>2016-04-02T07:12:27Z</time>
      </trkpt>
      <trkpt lat="37.847707" lon="-1.086611">
        <ele>201.1</ele>
        <time>2016-04-02T07:12:46Z</time>
      </trkpt>
      <trkpt lat="37.847829" lon="-1.086853">
        <ele>201.1</ele>
        <time>2016-04-02T07:13:03Z</time>
      </trkpt>
      <trkpt lat="37.847938" lon="-1.087118">
        <ele>201.5</ele>
        <time>2016-04-02T07:13:20Z</time>
      </trkpt>
      <trkpt lat="37.848056" lon="-1.087332">
        <ele>201.5</ele>
        <time>2016-04-02T07:13:36Z</time>
      </trkpt>
      <trkpt lat="37.848204" lon="-1.087528">
        <ele>201.1</ele>
        <time>2016-04-02T07:13:52Z</time>
      </trkpt>
      <trkpt lat="37.848285" lon="-1.087673">
        <ele>201.5</ele>
        <time>2016-04-02T07:14:08Z</time>
      </trkpt>
      <trkpt lat="37.848283" lon="-1.087683">
        <ele>201.5</ele>
        <time>2016-04-02T07:14:24Z</time>
      </trkpt>
      <trkpt lat="37.848322" lon="-1.087746">
        <ele>201.1</ele>
        <time>2016-04-02T07:14:28Z</time>
      </trkpt>
      <trkpt lat="37.848500" lon="-1.088037">
        <ele>202.5</ele>
        <time>2016-04-02T07:14:41Z</time>
      </trkpt>
      <trkpt lat="37.848637" lon="-1.088231">
        <ele>202.5</ele>
        <time>2016-04-02T07:14:57Z</time>
      </trkpt>
      <trkpt lat="37.848766" lon="-1.088399">
        <ele>202.5</ele>
        <time>2016-04-02T07:15:12Z</time>
      </trkpt>
      <trkpt lat="37.848948" lon="-1.088631">
        <ele>203.5</ele>
        <time>2016-04-02T07:15:31Z</time>
      </trkpt>
      <trkpt lat="37.849058" lon="-1.088811">
        <ele>203.0</ele>
        <time>2016-04-02T07:15:45Z</time>
      </trkpt>
      <trkpt lat="37.849093" lon="-1.088879">
        <ele>203.5</ele>
        <time>2016-04-02T07:15:50Z</time>
      </trkpt>
      <trkpt lat="37.849131" lon="-1.088891">
        <ele>203.0</ele>
        <time>2016-04-02T07:15:55Z</time>
      </trkpt>
      <trkpt lat="37.849263" lon="-1.089189">
        <ele>205.4</ele>
        <time>2016-04-02T07:18:34Z</time>
      </trkpt>
      <trkpt lat="37.849402" lon="-1.089463">
        <ele>203.9</ele>
        <time>2016-04-02T07:18:51Z</time>
      </trkpt>
      <trkpt lat="37.849542" lon="-1.089762">
        <ele>204.4</ele>
        <time>2016-04-02T07:19:10Z</time>
      </trkpt>
      <trkpt lat="37.849647" lon="-1.090008">
        <ele>203.9</ele>
        <time>2016-04-02T07:19:25Z</time>
      </trkpt>
      <trkpt lat="37.849794" lon="-1.090303">
        <ele>204.4</ele>
        <time>2016-04-02T07:19:44Z</time>
      </trkpt>
      <trkpt lat="37.849949" lon="-1.090583">
        <ele>204.4</ele>
        <time>2016-04-02T07:20:02Z</time>
      </trkpt>
      <trkpt lat="37.850126" lon="-1.090958">
        <ele>203.9</ele>
        <time>2016-04-02T07:20:24Z</time>
      </trkpt>
      <trkpt lat="37.850241" lon="-1.091344">
        <ele>204.9</ele>
        <time>2016-04-02T07:20:46Z</time>
      </trkpt>
      <trkpt lat="37.850327" lon="-1.091682">
        <ele>204.9</ele>
        <time>2016-04-02T07:21:05Z</time>
      </trkpt>
      <trkpt lat="37.850476" lon="-1.092000">
        <ele>205.9</ele>
        <time>2016-04-02T07:21:25Z</time>
      </trkpt>
      <trkpt lat="37.850601" lon="-1.092321">
        <ele>206.3</ele>
        <time>2016-04-02T07:21:45Z</time>
      </trkpt>
      <trkpt lat="37.850637" lon="-1.092400">
        <ele>206.3</ele>
        <time>2016-04-02T07:21:50Z</time>
      </trkpt>
      <trkpt lat="37.850815" lon="-1.092714">
        <ele>205.4</ele>
        <time>2016-04-02T07:22:10Z</time>
      </trkpt>
      <trkpt lat="37.851014" lon="-1.093022">
        <ele>207.3</ele>
        <time>2016-04-02T07:22:32Z</time>
      </trkpt>
      <trkpt lat="37.851207" lon="-1.093380">
        <ele>207.3</ele>
        <time>2016-04-02T07:22:56Z</time>
      </trkpt>
      <trkpt lat="37.851275" lon="-1.093733">
        <ele>206.8</ele>
        <time>2016-04-02T07:23:15Z</time>
      </trkpt>
      <trkpt lat="37.851260" lon="-1.093899">
        <ele>207.3</ele>
        <time>2016-04-02T07:23:28Z</time>
      </trkpt>
      <trkpt lat="37.851255" lon="-1.093997">
        <ele>207.8</ele>
        <time>2016-04-02T07:23:34Z</time>
      </trkpt>
      <trkpt lat="37.851281" lon="-1.094085">
        <ele>208.7</ele>
        <time>2016-04-02T07:23:40Z</time>
      </trkpt>
      <trkpt lat="37.851441" lon="-1.094353">
        <ele>209.2</ele>
        <time>2016-04-02T07:23:58Z</time>
      </trkpt>
      <trkpt lat="37.851597" lon="-1.094620">
        <ele>209.7</ele>
        <time>2016-04-02T07:24:16Z</time>
      </trkpt>
      <trkpt lat="37.851787" lon="-1.094844">
        <ele>210.2</ele>
        <time>2016-04-02T07:24:33Z</time>
      </trkpt>
      <trkpt lat="37.852023" lon="-1.095070">
        <ele>210.7</ele>
        <time>2016-04-02T07:24:53Z</time>
      </trkpt>
      <trkpt lat="37.852097" lon="-1.095140">
        <ele>210.7</ele>
        <time>2016-04-02T07:25:00Z</time>
      </trkpt>
      <trkpt lat="37.852132" lon="-1.095151">
        <ele>211.1</ele>
        <time>2016-04-02T07:25:04Z</time>
      </trkpt>
      <trkpt lat="37.852273" lon="-1.095385">
        <ele>211.6</ele>
        <time>2016-04-02T07:25:20Z</time>
      </trkpt>
      <trkpt lat="37.852414" lon="-1.095572">
        <ele>211.1</ele>
        <time>2016-04-02T07:25:35Z</time>
      </trkpt>
      <trkpt lat="37.852599" lon="-1.095687">
        <ele>210.7</ele>
        <time>2016-04-02T07:25:51Z</time>
      </trkpt>
      <trkpt lat="37.852744" lon="-1.095844">
        <ele>211.6</ele>
        <time>2016-04-02T07:26:06Z</time>
      </trkpt>
      <trkpt lat="37.852749" lon="-1.095856">
        <ele>211.1</ele>
        <time>2016-04-02T07:26:07Z</time>
      </trkpt>
      <trkpt lat="37.852891" lon="-1.096020">
        <ele>211.6</ele>
        <time>2016-04-02T07:26:23Z</time>
      </trkpt>
      <trkpt lat="37.853078" lon="-1.096202">
        <ele>212.1</ele>
        <time>2016-04-02T07:26:41Z</time>
      </trkpt>
      <trkpt lat="37.853204" lon="-1.096364">
        <ele>213.1</ele>
        <time>2016-04-02T07:26:56Z</time>
      </trkpt>
      <trkpt lat="37.853234" lon="-1.096400">
        <ele>213.6</ele>
        <time>2016-04-02T07:27:00Z</time>
      </trkpt>
      <trkpt lat="37.853296" lon="-1.096517">
        <ele>213.1</ele>
        <time>2016-04-02T07:27:08Z</time>
      </trkpt>
      <trkpt lat="37.853464" lon="-1.096789">
        <ele>213.6</ele>
        <time>2016-04-02T07:27:28Z</time>
      </trkpt>
      <trkpt lat="37.853603" lon="-1.096968">
        <ele>213.6</ele>
        <time>2016-04-02T07:27:44Z</time>
      </trkpt>
      <trkpt lat="37.853831" lon="-1.097202">
        <ele>214.5</ele>
        <time>2016-04-02T07:28:05Z</time>
      </trkpt>
      <trkpt lat="37.853971" lon="-1.097410">
        <ele>214.5</ele>
        <time>2016-04-02T07:28:23Z</time>
      </trkpt>
      <trkpt lat="37.854135" lon="-1.097636">
        <ele>214.5</ele>
        <time>2016-04-02T07:28:42Z</time>
      </trkpt>
      <trkpt lat="37.854267" lon="-1.097833">
        <ele>215.0</ele>
        <time>2016-04-02T07:28:58Z</time>
      </trkpt>
      <trkpt lat="37.854405" lon="-1.098043">
        <ele>215.0</ele>
        <time>2016-04-02T07:29:15Z</time>
      </trkpt>
      <trkpt lat="37.854458" lon="-1.098141">
        <ele>215.5</ele>
        <time>2016-04-02T07:29:22Z</time>
      </trkpt>
      <trkpt lat="37.854562" lon="-1.098315">
        <ele>215.9</ele>
        <time>2016-04-02T07:29:35Z</time>
      </trkpt>
      <trkpt lat="37.854711" lon="-1.098530">
        <ele>216.4</ele>
        <time>2016-04-02T07:29:52Z</time>
      </trkpt>
      <trkpt lat="37.854858" lon="-1.098706">
        <ele>216.9</ele>
        <time>2016-04-02T07:30:07Z</time>
      </trkpt>
      <trkpt lat="37.855007" lon="-1.098882">
        <ele>217.9</ele>
        <time>2016-04-02T07:30:22Z</time>
      </trkpt>
      <trkpt lat="37.855126" lon="-1.099077">
        <ele>218.8</ele>
        <time>2016-04-02T07:30:37Z</time>
      </trkpt>
      <trkpt lat="37.855228" lon="-1.099293">
        <ele>218.8</ele>
        <time>2016-04-02T07:30:52Z</time>
      </trkpt>
      <trkpt lat="37.855366" lon="-1.099572">
        <ele>219.8</ele>
        <time>2016-04-02T07:31:11Z</time>
      </trkpt>
      <trkpt lat="37.855478" lon="-1.099856">
        <ele>220.8</ele>
        <time>2016-04-02T07:31:29Z</time>
      </trkpt>
      <trkpt lat="37.855572" lon="-1.100065">
        <ele>221.2</ele>
        <time>2016-04-02T07:31:44Z</time>
      </trkpt>
      <trkpt lat="37.855703" lon="-1.100293">
        <ele>221.2</ele>
        <time>2016-04-02T07:32:00Z</time>
      </trkpt>
      <trkpt lat="37.855831" lon="-1.100540">
        <ele>222.7</ele>
        <time>2016-04-02T07:32:17Z</time>
      </trkpt>
      <trkpt lat="37.855929" lon="-1.100753">
        <ele>223.2</ele>
        <time>2016-04-02T07:32:32Z</time>
      </trkpt>
      <trkpt lat="37.856075" lon="-1.101001">
        <ele>223.2</ele>
        <time>2016-04-02T07:32:50Z</time>
      </trkpt>
      <trkpt lat="37.856235" lon="-1.101276">
        <ele>223.6</ele>
        <time>2016-04-02T07:33:10Z</time>
      </trkpt>
      <trkpt lat="37.856373" lon="-1.101543">
        <ele>224.6</ele>
        <time>2016-04-02T07:33:28Z</time>
      </trkpt>
      <trkpt lat="37.856496" lon="-1.101717">
        <ele>225.1</ele>
        <time>2016-04-02T07:33:42Z</time>
      </trkpt>
      <trkpt lat="37.856703" lon="-1.101941">
        <ele>225.6</ele>
        <time>2016-04-02T07:34:02Z</time>
      </trkpt>
      <trkpt lat="37.856925" lon="-1.102165">
        <ele>226.5</ele>
        <time>2016-04-02T07:34:22Z</time>
      </trkpt>
      <trkpt lat="37.857100" lon="-1.102439">
        <ele>227.5</ele>
        <time>2016-04-02T07:34:42Z</time>
      </trkpt>
      <trkpt lat="37.857237" lon="-1.102670">
        <ele>228.0</ele>
        <time>2016-04-02T07:34:59Z</time>
      </trkpt>
      <trkpt lat="37.857360" lon="-1.102883">
        <ele>228.4</ele>
        <time>2016-04-02T07:35:15Z</time>
      </trkpt>
      <trkpt lat="37.857470" lon="-1.103140">
        <ele>228.4</ele>
        <time>2016-04-02T07:35:33Z</time>
      </trkpt>
      <trkpt lat="37.857614" lon="-1.103406">
        <ele>228.9</ele>
        <time>2016-04-02T07:35:51Z</time>
      </trkpt>
      <trkpt lat="37.857778" lon="-1.103667">
        <ele>229.4</ele>
        <time>2016-04-02T07:36:10Z</time>
      </trkpt>
      <trkpt lat="37.857929" lon="-1.103876">
        <ele>229.9</ele>
        <time>2016-04-02T07:36:27Z</time>
      </trkpt>
      <trkpt lat="37.858094" lon="-1.104123">
        <ele>231.3</ele>
        <time>2016-04-02T07:36:46Z</time>
      </trkpt>
      <trkpt lat="37.858215" lon="-1.104293">
        <ele>231.3</ele>
        <time>2016-04-02T07:37:01Z</time>
      </trkpt>
      <trkpt lat="37.858440" lon="-1.104541">
        <ele>232.3</ele>
        <time>2016-04-02T07:37:23Z</time>
      </trkpt>
      <trkpt lat="37.858629" lon="-1.104778">
        <ele>232.8</ele>
        <time>2016-04-02T07:37:43Z</time>
      </trkpt>
      <trkpt lat="37.858768" lon="-1.104960">
        <ele>233.3</ele>
        <time>2016-04-02T07:37:59Z</time>
      </trkpt>
      <trkpt lat="37.858890" lon="-1.105140">
        <ele>233.7</ele>
        <time>2016-04-02T07:38:14Z</time>
      </trkpt>
      <trkpt lat="37.859027" lon="-1.105304">
        <ele>234.2</ele>
        <time>2016-04-02T07:38:29Z</time>
      </trkpt>
      <trkpt lat="37.859147" lon="-1.105479">
        <ele>234.2</ele>
        <time>2016-04-02T07:38:44Z</time>
      </trkpt>
      <trkpt lat="37.859189" lon="-1.105520">
        <ele>234.2</ele>
        <time>2016-04-02T07:38:48Z</time>
      </trkpt>
      <trkpt lat="37.859336" lon="-1.105731">
        <ele>234.7</ele>
        <time>2016-04-02T07:39:05Z</time>
      </trkpt>
      <trkpt lat="37.859376" lon="-1.105783">
        <ele>234.7</ele>
        <time>2016-04-02T07:39:10Z</time>
      </trkpt>
      <trkpt lat="37.859525" lon="-1.105985">
        <ele>234.7</ele>
        <time>2016-04-02T07:39:27Z</time>
      </trkpt>
      <trkpt lat="37.859676" lon="-1.106124">
        <ele>235.7</ele>
        <time>2016-04-02T07:39:42Z</time>
      </trkpt>
      <trkpt lat="37.859746" lon="-1.106144">
        <ele>235.7</ele>
        <time>2016-04-02T07:39:48Z</time>
      </trkpt>
      <trkpt lat="37.859881" lon="-1.106368">
        <ele>235.7</ele>
        <time>2016-04-02T07:40:05Z</time>
      </trkpt>
      <trkpt lat="37.860027" lon="-1.106565">
        <ele>236.6</ele>
        <time>2016-04-02T07:40:20Z</time>
      </trkpt>
      <trkpt lat="37.860188" lon="-1.106753">
        <ele>236.6</ele>
        <time>2016-04-02T07:40:36Z</time>
      </trkpt>
      <trkpt lat="37.860293" lon="-1.106868">
        <ele>238.1</ele>
        <time>2016-04-02T07:40:49Z</time>
      </trkpt>
      <trkpt lat="37.860396" lon="-1.107006">
        <ele>238.5</ele>
        <time>2016-04-02T07:41:01Z</time>
      </trkpt>
      <trkpt lat="37.860536" lon="-1.107213">
        <ele>238.5</ele>
        <time>2016-04-02T07:41:19Z</time>
      </trkpt>
      <trkpt lat="37.860633" lon="-1.107367">
        <ele>239.0</ele>
        <time>2016-04-02T07:41:32Z</time>
      </trkpt>
      <trkpt lat="37.860775" lon="-1.107565">
        <ele>239.0</ele>
        <time>2016-04-02T07:41:49Z</time>
      </trkpt>
      <trkpt lat="37.860907" lon="-1.107751">
        <ele>240.5</ele>
        <time>2016-04-02T07:42:06Z</time>
      </trkpt>
      <trkpt lat="37.861081" lon="-1.107966">
        <ele>241.4</ele>
        <time>2016-04-02T07:42:25Z</time>
      </trkpt>
      <trkpt lat="37.861281" lon="-1.108185">
        <ele>240.9</ele>
        <time>2016-04-02T07:42:46Z</time>
      </trkpt>
      <trkpt lat="37.861465" lon="-1.108370">
        <ele>242.4</ele>
        <time>2016-04-02T07:43:04Z</time>
      </trkpt>
      <trkpt lat="37.861619" lon="-1.108545">
        <ele>243.8</ele>
        <time>2016-04-02T07:43:20Z</time>
      </trkpt>
      <trkpt lat="37.861786" lon="-1.108756">
        <ele>243.4</ele>
        <time>2016-04-02T07:43:38Z</time>
      </trkpt>
      <trkpt lat="37.861902" lon="-1.108938">
        <ele>243.8</ele>
        <time>2016-04-02T07:43:53Z</time>
      </trkpt>
      <trkpt lat="37.862023" lon="-1.109054">
        <ele>243.8</ele>
        <time>2016-04-02T07:44:05Z</time>
      </trkpt>
      <trkpt lat="37.862121" lon="-1.109129">
        <ele>244.8</ele>
        <time>2016-04-02T07:44:14Z</time>
      </trkpt>
      <trkpt lat="37.862203" lon="-1.109181">
        <ele>245.3</ele>
        <time>2016-04-02T07:44:21Z</time>
      </trkpt>
      <trkpt lat="37.862386" lon="-1.109342">
        <ele>245.3</ele>
        <time>2016-04-02T07:44:38Z</time>
      </trkpt>
      <trkpt lat="37.862525" lon="-1.109470">
        <ele>246.2</ele>
        <time>2016-04-02T07:44:51Z</time>
      </trkpt>
      <trkpt lat="37.862688" lon="-1.109627">
        <ele>246.2</ele>
        <time>2016-04-02T07:45:07Z</time>
      </trkpt>
      <trkpt lat="37.862864" lon="-1.109803">
        <ele>247.2</ele>
        <time>2016-04-02T07:45:23Z</time>
      </trkpt>
      <trkpt lat="37.863050" lon="-1.110023">
        <ele>248.2</ele>
        <time>2016-04-02T07:45:42Z</time>
      </trkpt>
      <trkpt lat="37.863185" lon="-1.110186">
        <ele>248.2</ele>
        <time>2016-04-02T07:45:56Z</time>
      </trkpt>
      <trkpt lat="37.863217" lon="-1.110257">
        <ele>248.6</ele>
        <time>2016-04-02T07:46:01Z</time>
      </trkpt>
      <trkpt lat="37.863316" lon="-1.110470">
        <ele>249.1</ele>
        <time>2016-04-02T07:46:16Z</time>
      </trkpt>
      <trkpt lat="37.863443" lon="-1.110675">
        <ele>250.1</ele>
        <time>2016-04-02T07:46:31Z</time>
      </trkpt>
      <trkpt lat="37.863551" lon="-1.110922">
        <ele>250.1</ele>
        <time>2016-04-02T07:46:47Z</time>
      </trkpt>
      <trkpt lat="37.863641" lon="-1.111121">
        <ele>250.1</ele>
        <time>2016-04-02T07:47:00Z</time>
      </trkpt>
      <trkpt lat="37.863758" lon="-1.111353">
        <ele>251.5</ele>
        <time>2016-04-02T07:47:16Z</time>
      </trkpt>
      <trkpt lat="37.863852" lon="-1.111595">
        <ele>252.0</ele>
        <time>2016-04-02T07:47:31Z</time>
      </trkpt>
      <trkpt lat="37.863934" lon="-1.111851">
        <ele>252.5</ele>
        <time>2016-04-02T07:47:47Z</time>
      </trkpt>
      <trkpt lat="37.864049" lon="-1.112080">
        <ele>251.5</ele>
        <time>2016-04-02T07:48:04Z</time>
      </trkpt>
      <trkpt lat="37.864150" lon="-1.112329">
        <ele>253.0</ele>
        <time>2016-04-02T07:48:21Z</time>
      </trkpt>
      <trkpt lat="37.864251" lon="-1.112490">
        <ele>253.9</ele>
        <time>2016-04-02T07:48:34Z</time>
      </trkpt>
      <trkpt lat="37.864282" lon="-1.112503">
        <ele>254.4</ele>
        <time>2016-04-02T07:48:37Z</time>
      </trkpt>
      <trkpt lat="37.864318" lon="-1.112551">
        <ele>254.4</ele>
        <time>2016-04-02T07:48:41Z</time>
      </trkpt>
      <trkpt lat="37.864348" lon="-1.112625">
        <ele>253.9</ele>
        <time>2016-04-02T07:48:46Z</time>
      </trkpt>
      <trkpt lat="37.864412" lon="-1.112711">
        <ele>253.9</ele>
        <time>2016-04-02T07:48:52Z</time>
      </trkpt>
      <trkpt lat="37.864573" lon="-1.112885">
        <ele>254.9</ele>
        <time>2016-04-02T07:49:08Z</time>
      </trkpt>
      <trkpt lat="37.864724" lon="-1.113034">
        <ele>254.9</ele>
        <time>2016-04-02T07:49:23Z</time>
      </trkpt>
      <trkpt lat="37.864874" lon="-1.113268">
        <ele>255.4</ele>
        <time>2016-04-02T07:49:40Z</time>
      </trkpt>
      <trkpt lat="37.864921" lon="-1.113351">
        <ele>255.4</ele>
        <time>2016-04-02T07:49:46Z</time>
      </trkpt>
      <trkpt lat="37.864957" lon="-1.113396">
        <ele>255.9</ele>
        <time>2016-04-02T07:49:50Z</time>
      </trkpt>
      <trkpt lat="37.865121" lon="-1.113606">
        <ele>256.3</ele>
        <time>2016-04-02T07:50:07Z</time>
      </trkpt>
      <trkpt lat="37.865180" lon="-1.113667">
        <ele>255.9</ele>
        <time>2016-04-02T07:50:13Z</time>
      </trkpt>
      <trkpt lat="37.865257" lon="-1.113757">
        <ele>256.3</ele>
        <time>2016-04-02T07:50:21Z</time>
      </trkpt>
      <trkpt lat="37.865311" lon="-1.113824">
        <ele>256.3</ele>
        <time>2016-04-02T07:50:27Z</time>
      </trkpt>
      <trkpt lat="37.865331" lon="-1.113867">
        <ele>256.3</ele>
        <time>2016-04-02T07:50:30Z</time>
      </trkpt>
      <trkpt lat="37.865400" lon="-1.113937">
        <ele>255.9</ele>
        <time>2016-04-02T07:50:37Z</time>
      </trkpt>
      <trkpt lat="37.865520" lon="-1.114145">
        <ele>256.8</ele>
        <time>2016-04-02T07:50:52Z</time>
      </trkpt>
      <trkpt lat="37.865610" lon="-1.114263">
        <ele>256.8</ele>
        <time>2016-04-02T07:51:01Z</time>
      </trkpt>
      <trkpt lat="37.865778" lon="-1.114517">
        <ele>256.8</ele>
        <time>2016-04-02T07:51:21Z</time>
      </trkpt>
      <trkpt lat="37.865890" lon="-1.114751">
        <ele>257.8</ele>
        <time>2016-04-02T07:51:39Z</time>
      </trkpt>
      <trkpt lat="37.865991" lon="-1.114969">
        <ele>257.8</ele>
        <time>2016-04-02T07:51:55Z</time>
      </trkpt>
      <trkpt lat="37.866081" lon="-1.115214">
        <ele>258.7</ele>
        <time>2016-04-02T07:52:11Z</time>
      </trkpt>
      <trkpt lat="37.866099" lon="-1.115316">
        <ele>259.2</ele>
        <time>2016-04-02T07:52:17Z</time>
      </trkpt>
      <trkpt lat="37.866113" lon="-1.115447">
        <ele>259.7</ele>
        <time>2016-04-02T07:52:31Z</time>
      </trkpt>
      <trkpt lat="37.866136" lon="-1.115537">
        <ele>259.2</ele>
        <time>2016-04-02T07:52:47Z</time>
      </trkpt>
      <trkpt lat="37.866163" lon="-1.115645">
        <ele>259.7</ele>
        <time>2016-04-02T07:52:54Z</time>
      </trkpt>
      <trkpt lat="37.866218" lon="-1.115679">
        <ele>260.2</ele>
        <time>2016-04-02T07:53:00Z</time>
      </trkpt>
      <trkpt lat="37.866314" lon="-1.115888">
        <ele>260.6</ele>
        <time>2016-04-02T07:53:17Z</time>
      </trkpt>
      <trkpt lat="37.866432" lon="-1.115969">
        <ele>260.6</ele>
        <time>2016-04-02T07:53:33Z</time>
      </trkpt>
      <trkpt lat="37.866531" lon="-1.115980">
        <ele>260.6</ele>
        <time>2016-04-02T07:53:46Z</time>
      </trkpt>
      <trkpt lat="37.866641" lon="-1.116001">
        <ele>260.2</ele>
        <time>2016-04-02T07:54:14Z</time>
      </trkpt>
      <trkpt lat="37.866693" lon="-1.116001">
        <ele>260.2</ele>
        <time>2016-04-02T07:54:21Z</time>
      </trkpt>
      <trkpt lat="37.866938" lon="-1.115999">
        <ele>260.6</ele>
        <time>2016-04-02T07:54:30Z</time>
      </trkpt>
      <trkpt lat="37.866942" lon="-1.115981">
        <ele>261.6</ele>
        <time>2016-04-02T07:54:32Z</time>
      </trkpt>
      <trkpt lat="37.866934" lon="-1.115918">
        <ele>262.1</ele>
        <time>2016-04-02T07:54:43Z</time>
      </trkpt>
      <trkpt lat="37.866940" lon="-1.115718">
        <ele>262.6</ele>
        <time>2016-04-02T07:54:57Z</time>
      </trkpt>
      <trkpt lat="37.866970" lon="-1.115403">
        <ele>262.6</ele>
        <time>2016-04-02T07:55:14Z</time>
      </trkpt>
      <trkpt lat="37.866981" lon="-1.115274">
        <ele>263.1</ele>
        <time>2016-04-02T07:55:21Z</time>
      </trkpt>
      <trkpt lat="37.866961" lon="-1.115161">
        <ele>263.1</ele>
        <time>2016-04-02T07:55:36Z</time>
      </trkpt>
      <trkpt lat="37.866983" lon="-1.114980">
        <ele>263.5</ele>
        <time>2016-04-02T07:55:48Z</time>
      </trkpt>
      <trkpt lat="37.866997" lon="-1.114845">
        <ele>263.5</ele>
        <time>2016-04-02T07:55:57Z</time>
      </trkpt>
      <trkpt lat="37.867028" lon="-1.114628">
        <ele>263.5</ele>
        <time>2016-04-02T07:56:12Z</time>
      </trkpt>
      <trkpt lat="37.867055" lon="-1.114354">
        <ele>263.5</ele>
        <time>2016-04-02T07:56:29Z</time>
      </trkpt>
      <trkpt lat="37.867090" lon="-1.113998">
        <ele>264.0</ele>
        <time>2016-04-02T07:56:50Z</time>
      </trkpt>
      <trkpt lat="37.867119" lon="-1.113691">
        <ele>264.5</ele>
        <time>2016-04-02T07:57:08Z</time>
      </trkpt>
      <trkpt lat="37.867168" lon="-1.113367">
        <ele>264.5</ele>
        <time>2016-04-02T07:57:28Z</time>
      </trkpt>
      <trkpt lat="37.867198" lon="-1.113114">
        <ele>264.5</ele>
        <time>2016-04-02T07:57:44Z</time>
      </trkpt>
      <trkpt lat="37.867238" lon="-1.112834">
        <ele>265.0</ele>
        <time>2016-04-02T07:58:01Z</time>
      </trkpt>
      <trkpt lat="37.867282" lon="-1.112593">
        <ele>264.5</ele>
        <time>2016-04-02T07:58:15Z</time>
      </trkpt>
      <trkpt lat="37.867319" lon="-1.112333">
        <ele>265.5</ele>
        <time>2016-04-02T07:58:31Z</time>
      </trkpt>
      <trkpt lat="37.867341" lon="-1.112077">
        <ele>264.5</ele>
        <time>2016-04-02T07:58:46Z</time>
      </trkpt>
      <trkpt lat="37.867390" lon="-1.111815">
        <ele>265.5</ele>
        <time>2016-04-02T07:59:02Z</time>
      </trkpt>
      <trkpt lat="37.867420" lon="-1.111539">
        <ele>265.5</ele>
        <time>2016-04-02T07:59:19Z</time>
      </trkpt>
      <trkpt lat="37.867429" lon="-1.111458">
        <ele>265.5</ele>
        <time>2016-04-02T07:59:24Z</time>
      </trkpt>
      <trkpt lat="37.867463" lon="-1.111155">
        <ele>265.0</ele>
        <time>2016-04-02T07:59:42Z</time>
      </trkpt>
      <trkpt lat="37.867467" lon="-1.110825">
        <ele>264.5</ele>
        <time>2016-04-02T08:00:01Z</time>
      </trkpt>
      <trkpt lat="37.867498" lon="-1.110547">
        <ele>264.5</ele>
        <time>2016-04-02T08:00:20Z</time>
      </trkpt>
      <trkpt lat="37.867563" lon="-1.110342">
        <ele>263.5</ele>
        <time>2016-04-02T08:00:35Z</time>
      </trkpt>
      <trkpt lat="37.867634" lon="-1.110326">
        <ele>265.0</ele>
        <time>2016-04-02T08:00:43Z</time>
      </trkpt>
      <trkpt lat="37.867791" lon="-1.110454">
        <ele>264.5</ele>
        <time>2016-04-02T08:00:59Z</time>
      </trkpt>
      <trkpt lat="37.867839" lon="-1.110496">
        <ele>264.0</ele>
        <time>2016-04-02T08:01:13Z</time>
      </trkpt>
      <trkpt lat="37.867856" lon="-1.110517">
        <ele>264.0</ele>
        <time>2016-04-02T08:02:09Z</time>
      </trkpt>
      <trkpt lat="37.867883" lon="-1.110546">
        <ele>265.5</ele>
        <time>2016-04-02T08:02:20Z</time>
      </trkpt>
      <trkpt lat="37.867926" lon="-1.110594">
        <ele>264.0</ele>
        <time>2016-04-02T08:02:24Z</time>
      </trkpt>
      <trkpt lat="37.868093" lon="-1.110804">
        <ele>265.9</ele>
        <time>2016-04-02T08:02:41Z</time>
      </trkpt>
      <trkpt lat="37.868274" lon="-1.110962">
        <ele>266.4</ele>
        <time>2016-04-02T08:02:56Z</time>
      </trkpt>
      <trkpt lat="37.868327" lon="-1.110991">
        <ele>267.9</ele>
        <time>2016-04-02T08:03:00Z</time>
      </trkpt>
      <trkpt lat="37.868392" lon="-1.111067">
        <ele>267.9</ele>
        <time>2016-04-02T08:03:13Z</time>
      </trkpt>
      <trkpt lat="37.868559" lon="-1.111231">
        <ele>267.9</ele>
        <time>2016-04-02T08:03:31Z</time>
      </trkpt>
      <trkpt lat="37.868752" lon="-1.111439">
        <ele>268.4</ele>
        <time>2016-04-02T08:03:48Z</time>
      </trkpt>
      <trkpt lat="37.868867" lon="-1.111578">
        <ele>268.8</ele>
        <time>2016-04-02T08:04:00Z</time>
      </trkpt>
      <trkpt lat="37.868968" lon="-1.111769">
        <ele>270.3</ele>
        <time>2016-04-02T08:04:13Z</time>
      </trkpt>
      <trkpt lat="37.869055" lon="-1.111979">
        <ele>269.8</ele>
        <time>2016-04-02T08:04:28Z</time>
      </trkpt>
      <trkpt lat="37.869085" lon="-1.112053">
        <ele>269.8</ele>
        <time>2016-04-02T08:04:33Z</time>
      </trkpt>
      <trkpt lat="37.869094" lon="-1.112052">
        <ele>269.8</ele>
        <time>2016-04-02T08:04:50Z</time>
      </trkpt>
      <trkpt lat="37.869097" lon="-1.112055">
        <ele>269.8</ele>
        <time>2016-04-02T08:05:04Z</time>
      </trkpt>
      <trkpt lat="37.869103" lon="-1.112096">
        <ele>270.3</ele>
        <time>2016-04-02T08:05:08Z</time>
      </trkpt>
      <trkpt lat="37.869113" lon="-1.112123">
        <ele>270.8</ele>
        <time>2016-04-02T08:05:10Z</time>
      </trkpt>
      <trkpt lat="37.869143" lon="-1.112153">
        <ele>271.2</ele>
        <time>2016-04-02T08:05:27Z</time>
      </trkpt>
      <trkpt lat="37.869146" lon="-1.112152">
        <ele>270.8</ele>
        <time>2016-04-02T08:05:29Z</time>
      </trkpt>
      <trkpt lat="37.869185" lon="-1.112212">
        <ele>270.8</ele>
        <time>2016-04-02T08:05:33Z</time>
      </trkpt>
      <trkpt lat="37.869321" lon="-1.112500">
        <ele>270.3</ele>
        <time>2016-04-02T08:05:50Z</time>
      </trkpt>
      <trkpt lat="37.869385" lon="-1.112579">
        <ele>271.2</ele>
        <time>2016-04-02T08:05:56Z</time>
      </trkpt>
      <trkpt lat="37.869646" lon="-1.112713">
        <ele>271.7</ele>
        <time>2016-04-02T08:06:14Z</time>
      </trkpt>
      <trkpt lat="37.869869" lon="-1.112768">
        <ele>273.1</ele>
        <time>2016-04-02T08:06:29Z</time>
      </trkpt>
      <trkpt lat="37.869943" lon="-1.112810">
        <ele>273.1</ele>
        <time>2016-04-02T08:06:40Z</time>
      </trkpt>
      <trkpt lat="37.869992" lon="-1.112834">
        <ele>272.7</ele>
        <time>2016-04-02T08:06:44Z</time>
      </trkpt>
      <trkpt lat="37.870020" lon="-1.112847">
        <ele>273.1</ele>
        <time>2016-04-02T08:06:52Z</time>
      </trkpt>
      <trkpt lat="37.870270" lon="-1.113037">
        <ele>273.1</ele>
        <time>2016-04-02T08:07:12Z</time>
      </trkpt>
      <trkpt lat="37.870453" lon="-1.113160">
        <ele>274.1</ele>
        <time>2016-04-02T08:07:26Z</time>
      </trkpt>
      <trkpt lat="37.870634" lon="-1.113312">
        <ele>275.1</ele>
        <time>2016-04-02T08:07:41Z</time>
      </trkpt>
      <trkpt lat="37.870823" lon="-1.113462">
        <ele>275.6</ele>
        <time>2016-04-02T08:07:56Z</time>
      </trkpt>
      <trkpt lat="37.870994" lon="-1.113614">
        <ele>276.5</ele>
        <time>2016-04-02T08:08:11Z</time>
      </trkpt>
      <trkpt lat="37.871141" lon="-1.113761">
        <ele>277.0</ele>
        <time>2016-04-02T08:08:25Z</time>
      </trkpt>
      <trkpt lat="37.871364" lon="-1.113903">
        <ele>277.5</ele>
        <time>2016-04-02T08:08:41Z</time>
      </trkpt>
      <trkpt lat="37.871551" lon="-1.114088">
        <ele>278.4</ele>
        <time>2016-04-02T08:08:57Z</time>
      </trkpt>
      <trkpt lat="37.871709" lon="-1.114224">
        <ele>278.9</ele>
        <time>2016-04-02T08:09:11Z</time>
      </trkpt>
      <trkpt lat="37.871882" lon="-1.114360">
        <ele>278.9</ele>
        <time>2016-04-02T08:09:25Z</time>
      </trkpt>
      <trkpt lat="37.872006" lon="-1.114440">
        <ele>279.4</ele>
        <time>2016-04-02T08:09:34Z</time>
      </trkpt>
      <trkpt lat="37.872097" lon="-1.114539">
        <ele>279.9</ele>
        <time>2016-04-02T08:09:43Z</time>
      </trkpt>
      <trkpt lat="37.872150" lon="-1.114615">
        <ele>279.9</ele>
        <time>2016-04-02T08:09:58Z</time>
      </trkpt>
      <trkpt lat="37.872214" lon="-1.114669">
        <ele>280.8</ele>
        <time>2016-04-02T08:10:11Z</time>
      </trkpt>
      <trkpt lat="37.872337" lon="-1.114742">
        <ele>281.3</ele>
        <time>2016-04-02T08:10:21Z</time>
      </trkpt>
      <trkpt lat="37.872375" lon="-1.114761">
        <ele>281.8</ele>
        <time>2016-04-02T08:10:25Z</time>
      </trkpt>
      <trkpt lat="37.872476" lon="-1.114797">
        <ele>282.3</ele>
        <time>2016-04-02T08:10:33Z</time>
      </trkpt>
      <trkpt lat="37.872651" lon="-1.114869">
        <ele>283.2</ele>
        <time>2016-04-02T08:10:46Z</time>
      </trkpt>
      <trkpt lat="37.872701" lon="-1.114881">
        <ele>283.7</ele>
        <time>2016-04-02T08:10:50Z</time>
      </trkpt>
      <trkpt lat="37.872772" lon="-1.114937">
        <ele>283.2</ele>
        <time>2016-04-02T08:10:56Z</time>
      </trkpt>
      <trkpt lat="37.872899" lon="-1.114967">
        <ele>284.7</ele>
        <time>2016-04-02T08:11:06Z</time>
      </trkpt>
      <trkpt lat="37.872976" lon="-1.114961">
        <ele>284.7</ele>
        <time>2016-04-02T08:11:17Z</time>
      </trkpt>
      <trkpt lat="37.872977" lon="-1.114964">
        <ele>285.2</ele>
        <time>2016-04-02T08:11:19Z</time>
      </trkpt>
      <trkpt lat="37.873041" lon="-1.114980">
        <ele>285.6</ele>
        <time>2016-04-02T08:11:35Z</time>
      </trkpt>
      <trkpt lat="37.873220" lon="-1.115023">
        <ele>285.6</ele>
        <time>2016-04-02T08:11:47Z</time>
      </trkpt>
      <trkpt lat="37.873363" lon="-1.115039">
        <ele>287.1</ele>
        <time>2016-04-02T08:11:56Z</time>
      </trkpt>
      <trkpt lat="37.873492" lon="-1.115161">
        <ele>287.6</ele>
        <time>2016-04-02T08:12:11Z</time>
      </trkpt>
      <trkpt lat="37.873620" lon="-1.115274">
        <ele>287.6</ele>
        <time>2016-04-02T08:12:25Z</time>
      </trkpt>
      <trkpt lat="37.873833" lon="-1.115443">
        <ele>289.5</ele>
        <time>2016-04-02T08:12:42Z</time>
      </trkpt>
      <trkpt lat="37.874026" lon="-1.115652">
        <ele>290.0</ele>
        <time>2016-04-02T08:12:59Z</time>
      </trkpt>
      <trkpt lat="37.874047" lon="-1.115634">
        <ele>290.0</ele>
        <time>2016-04-02T08:13:11Z</time>
      </trkpt>
      <trkpt lat="37.874213" lon="-1.115827">
        <ele>290.5</ele>
        <time>2016-04-02T08:13:27Z</time>
      </trkpt>
      <trkpt lat="37.874404" lon="-1.115994">
        <ele>290.5</ele>
        <time>2016-04-02T08:13:43Z</time>
      </trkpt>
      <trkpt lat="37.874541" lon="-1.116140">
        <ele>290.9</ele>
        <time>2016-04-02T08:13:56Z</time>
      </trkpt>
      <trkpt lat="37.874720" lon="-1.116365">
        <ele>291.9</ele>
        <time>2016-04-02T08:14:13Z</time>
      </trkpt>
      <trkpt lat="37.874761" lon="-1.116401">
        <ele>291.4</ele>
        <time>2016-04-02T08:14:17Z</time>
      </trkpt>
      <trkpt lat="37.874883" lon="-1.116480">
        <ele>293.3</ele>
        <time>2016-04-02T08:14:27Z</time>
      </trkpt>
      <trkpt lat="37.875063" lon="-1.116657">
        <ele>293.3</ele>
        <time>2016-04-02T08:14:42Z</time>
      </trkpt>
      <trkpt lat="37.875191" lon="-1.116921">
        <ele>293.3</ele>
        <time>2016-04-02T08:14:58Z</time>
      </trkpt>
      <trkpt lat="37.875226" lon="-1.117053">
        <ele>294.8</ele>
        <time>2016-04-02T08:15:09Z</time>
      </trkpt>
      <trkpt lat="37.875395" lon="-1.117243">
        <ele>295.7</ele>
        <time>2016-04-02T08:15:26Z</time>
      </trkpt>
      <trkpt lat="37.875506" lon="-1.117352">
        <ele>297.2</ele>
        <time>2016-04-02T08:15:39Z</time>
      </trkpt>
      <trkpt lat="37.875643" lon="-1.117500">
        <ele>297.2</ele>
        <time>2016-04-02T08:15:52Z</time>
      </trkpt>
      <trkpt lat="37.875768" lon="-1.117603">
        <ele>297.7</ele>
        <time>2016-04-02T08:16:03Z</time>
      </trkpt>
      <trkpt lat="37.875899" lon="-1.117806">
        <ele>298.1</ele>
        <time>2016-04-02T08:16:17Z</time>
      </trkpt>
      <trkpt lat="37.876040" lon="-1.117944">
        <ele>299.1</ele>
        <time>2016-04-02T08:16:31Z</time>
      </trkpt>
      <trkpt lat="37.876096" lon="-1.117972">
        <ele>299.1</ele>
        <time>2016-04-02T08:16:41Z</time>
      </trkpt>
      <trkpt lat="37.876239" lon="-1.118081">
        <ele>299.6</ele>
        <time>2016-04-02T08:16:55Z</time>
      </trkpt>
      <trkpt lat="37.876317" lon="-1.118190">
        <ele>300.1</ele>
        <time>2016-04-02T08:17:08Z</time>
      </trkpt>
      <trkpt lat="37.876407" lon="-1.118317">
        <ele>301.0</ele>
        <time>2016-04-02T08:17:19Z</time>
      </trkpt>
      <trkpt lat="37.876569" lon="-1.118500">
        <ele>300.5</ele>
        <time>2016-04-02T08:17:34Z</time>
      </trkpt>
      <trkpt lat="37.876610" lon="-1.118545">
        <ele>302.0</ele>
        <time>2016-04-02T08:17:39Z</time>
      </trkpt>
      <trkpt lat="37.876668" lon="-1.118591">
        <ele>302.5</ele>
        <time>2016-04-02T08:17:43Z</time>
      </trkpt>
      <trkpt lat="37.876697" lon="-1.118618">
        <ele>301.5</ele>
        <time>2016-04-02T08:17:45Z</time>
      </trkpt>
      <trkpt lat="37.876872" lon="-1.118738">
        <ele>302.5</ele>
        <time>2016-04-02T08:18:00Z</time>
      </trkpt>
      <trkpt lat="37.877131" lon="-1.118736">
        <ele>302.5</ele>
        <time>2016-04-02T08:18:19Z</time>
      </trkpt>
      <trkpt lat="37.877365" lon="-1.118753">
        <ele>303.9</ele>
        <time>2016-04-02T08:18:36Z</time>
      </trkpt>
      <trkpt lat="37.877564" lon="-1.118838">
        <ele>304.4</ele>
        <time>2016-04-02T08:18:52Z</time>
      </trkpt>
      <trkpt lat="37.877712" lon="-1.118944">
        <ele>304.9</ele>
        <time>2016-04-02T08:19:06Z</time>
      </trkpt>
      <trkpt lat="37.877907" lon="-1.118989">
        <ele>305.4</ele>
        <time>2016-04-02T08:19:22Z</time>
      </trkpt>
      <trkpt lat="37.878103" lon="-1.119023">
        <ele>306.3</ele>
        <time>2016-04-02T08:19:36Z</time>
      </trkpt>
      <trkpt lat="37.878335" lon="-1.119097">
        <ele>307.8</ele>
        <time>2016-04-02T08:19:53Z</time>
      </trkpt>
      <trkpt lat="37.878489" lon="-1.119146">
        <ele>308.2</ele>
        <time>2016-04-02T08:20:04Z</time>
      </trkpt>
      <trkpt lat="37.878693" lon="-1.119192">
        <ele>309.2</ele>
        <time>2016-04-02T08:20:20Z</time>
      </trkpt>
      <trkpt lat="37.878716" lon="-1.119197">
        <ele>309.7</ele>
        <time>2016-04-02T08:20:22Z</time>
      </trkpt>
      <trkpt lat="37.878898" lon="-1.119235">
        <ele>310.6</ele>
        <time>2016-04-02T08:20:36Z</time>
      </trkpt>
      <trkpt lat="37.879160" lon="-1.119231">
        <ele>311.6</ele>
        <time>2016-04-02T08:20:55Z</time>
      </trkpt>
      <trkpt lat="37.879379" lon="-1.119264">
        <ele>314.0</ele>
        <time>2016-04-02T08:21:12Z</time>
      </trkpt>
      <trkpt lat="37.879617" lon="-1.119288">
        <ele>314.5</ele>
        <time>2016-04-02T08:21:29Z</time>
      </trkpt>
      <trkpt lat="37.879861" lon="-1.119342">
        <ele>315.9</ele>
        <time>2016-04-02T08:21:47Z</time>
      </trkpt>
      <trkpt lat="37.880029" lon="-1.119345">
        <ele>317.4</ele>
        <time>2016-04-02T08:22:00Z</time>
      </trkpt>
      <trkpt lat="37.880104" lon="-1.119374">
        <ele>317.4</ele>
        <time>2016-04-02T08:22:14Z</time>
      </trkpt>
      <trkpt lat="37.880294" lon="-1.119544">
        <ele>317.9</ele>
        <time>2016-04-02T08:22:30Z</time>
      </trkpt>
      <trkpt lat="37.880353" lon="-1.119573">
        <ele>318.8</ele>
        <time>2016-04-02T08:22:35Z</time>
      </trkpt>
      <trkpt lat="37.880451" lon="-1.119737">
        <ele>319.8</ele>
        <time>2016-04-02T08:22:47Z</time>
      </trkpt>
      <trkpt lat="37.880525" lon="-1.119953">
        <ele>321.7</ele>
        <time>2016-04-02T08:23:01Z</time>
      </trkpt>
      <trkpt lat="37.880592" lon="-1.120125">
        <ele>323.1</ele>
        <time>2016-04-02T08:23:12Z</time>
      </trkpt>
      <trkpt lat="37.880712" lon="-1.120266">
        <ele>324.6</ele>
        <time>2016-04-02T08:23:25Z</time>
      </trkpt>
      <trkpt lat="37.880922" lon="-1.120382">
        <ele>325.1</ele>
        <time>2016-04-02T08:23:42Z</time>
      </trkpt>
      <trkpt lat="37.880990" lon="-1.120427">
        <ele>326.0</ele>
        <time>2016-04-02T08:23:56Z</time>
      </trkpt>
      <trkpt lat="37.880991" lon="-1.120429">
        <ele>325.5</ele>
        <time>2016-04-02T08:24:02Z</time>
      </trkpt>
      <trkpt lat="37.881038" lon="-1.120473">
        <ele>326.0</ele>
        <time>2016-04-02T08:24:07Z</time>
      </trkpt>
      <trkpt lat="37.881094" lon="-1.120526">
        <ele>326.0</ele>
        <time>2016-04-02T08:24:12Z</time>
      </trkpt>
      <trkpt lat="37.881269" lon="-1.120739">
        <ele>328.0</ele>
        <time>2016-04-02T08:24:29Z</time>
      </trkpt>
      <trkpt lat="37.881435" lon="-1.120927">
        <ele>329.9</ele>
        <time>2016-04-02T08:24:45Z</time>
      </trkpt>
      <trkpt lat="37.881462" lon="-1.120984">
        <ele>329.9</ele>
        <time>2016-04-02T08:24:51Z</time>
      </trkpt>
      <trkpt lat="37.881610" lon="-1.121096">
        <ele>329.4</ele>
        <time>2016-04-02T08:27:25Z</time>
      </trkpt>
      <trkpt lat="37.881682" lon="-1.121155">
        <ele>329.4</ele>
        <time>2016-04-02T08:27:36Z</time>
      </trkpt>
      <trkpt lat="37.881759" lon="-1.121234">
        <ele>329.4</ele>
        <time>2016-04-02T08:27:50Z</time>
      </trkpt>
      <trkpt lat="37.881762" lon="-1.121225">
        <ele>329.4</ele>
        <time>2016-04-02T08:27:52Z</time>
      </trkpt>
      <trkpt lat="37.881859" lon="-1.121472">
        <ele>328.9</ele>
        <time>2016-04-02T08:28:07Z</time>
      </trkpt>
      <trkpt lat="37.881977" lon="-1.121698">
        <ele>328.4</ele>
        <time>2016-04-02T08:28:22Z</time>
      </trkpt>
      <trkpt lat="37.882003" lon="-1.121804">
        <ele>328.0</ele>
        <time>2016-04-02T08:28:28Z</time>
      </trkpt>
      <trkpt lat="37.882042" lon="-1.121911">
        <ele>328.0</ele>
        <time>2016-04-02T08:28:41Z</time>
      </trkpt>
      <trkpt lat="37.882075" lon="-1.121985">
        <ele>328.9</ele>
        <time>2016-04-02T08:28:51Z</time>
      </trkpt>
      <trkpt lat="37.882243" lon="-1.122264">
        <ele>328.4</ele>
        <time>2016-04-02T08:29:08Z</time>
      </trkpt>
      <trkpt lat="37.882269" lon="-1.122312">
        <ele>328.0</ele>
        <time>2016-04-02T08:29:11Z</time>
      </trkpt>
      <trkpt lat="37.882410" lon="-1.122572">
        <ele>329.4</ele>
        <time>2016-04-02T08:29:51Z</time>
      </trkpt>
      <trkpt lat="37.882428" lon="-1.122652">
        <ele>328.9</ele>
        <time>2016-04-02T08:29:55Z</time>
      </trkpt>
      <trkpt lat="37.882587" lon="-1.122954">
        <ele>329.9</ele>
        <time>2016-04-02T08:30:14Z</time>
      </trkpt>
      <trkpt lat="37.882650" lon="-1.123112">
        <ele>327.0</ele>
        <time>2016-04-02T08:30:23Z</time>
      </trkpt>
      <trkpt lat="37.882658" lon="-1.123128">
        <ele>331.8</ele>
        <time>2016-04-02T08:30:24Z</time>
      </trkpt>
      <trkpt lat="37.882666" lon="-1.123163">
        <ele>330.4</ele>
        <time>2016-04-02T08:30:26Z</time>
      </trkpt>
      <trkpt lat="37.882791" lon="-1.123405">
        <ele>330.4</ele>
        <time>2016-04-02T08:30:41Z</time>
      </trkpt>
      <trkpt lat="37.882899" lon="-1.123692">
        <ele>330.8</ele>
        <time>2016-04-02T08:30:58Z</time>
      </trkpt>
      <trkpt lat="37.882948" lon="-1.123885">
        <ele>331.3</ele>
        <time>2016-04-02T08:31:11Z</time>
      </trkpt>
      <trkpt lat="37.883016" lon="-1.124114">
        <ele>331.3</ele>
        <time>2016-04-02T08:31:24Z</time>
      </trkpt>
      <trkpt lat="37.882939" lon="-1.124409">
        <ele>331.8</ele>
        <time>2016-04-02T08:31:40Z</time>
      </trkpt>
      <trkpt lat="37.882887" lon="-1.124553">
        <ele>332.3</ele>
        <time>2016-04-02T08:31:54Z</time>
      </trkpt>
      <trkpt lat="37.882859" lon="-1.124705">
        <ele>332.8</ele>
        <time>2016-04-02T08:32:05Z</time>
      </trkpt>
      <trkpt lat="37.882964" lon="-1.124949">
        <ele>333.2</ele>
        <time>2016-04-02T08:32:20Z</time>
      </trkpt>
      <trkpt lat="37.883142" lon="-1.125144">
        <ele>333.7</ele>
        <time>2016-04-02T08:32:36Z</time>
      </trkpt>
      <trkpt lat="37.883350" lon="-1.125306">
        <ele>335.6</ele>
        <time>2016-04-02T08:32:52Z</time>
      </trkpt>
      <trkpt lat="37.883476" lon="-1.125383">
        <ele>337.1</ele>
        <time>2016-04-02T08:33:07Z</time>
      </trkpt>
      <trkpt lat="37.883559" lon="-1.125424">
        <ele>337.1</ele>
        <time>2016-04-02T08:33:14Z</time>
      </trkpt>
      <trkpt lat="37.883541" lon="-1.125421">
        <ele>337.6</ele>
        <time>2016-04-02T08:33:25Z</time>
      </trkpt>
      <trkpt lat="37.883599" lon="-1.125450">
        <ele>337.6</ele>
        <time>2016-04-02T08:33:29Z</time>
      </trkpt>
      <trkpt lat="37.883850" lon="-1.125448">
        <ele>340.0</ele>
        <time>2016-04-02T08:33:45Z</time>
      </trkpt>
      <trkpt lat="37.884060" lon="-1.125494">
        <ele>340.9</ele>
        <time>2016-04-02T08:34:00Z</time>
      </trkpt>
      <trkpt lat="37.884126" lon="-1.125538">
        <ele>341.9</ele>
        <time>2016-04-02T08:34:05Z</time>
      </trkpt>
      <trkpt lat="37.884197" lon="-1.125660">
        <ele>342.4</ele>
        <time>2016-04-02T08:34:13Z</time>
      </trkpt>
      <trkpt lat="37.884241" lon="-1.125958">
        <ele>343.8</ele>
        <time>2016-04-02T08:34:30Z</time>
      </trkpt>
      <trkpt lat="37.884242" lon="-1.126191">
        <ele>344.3</ele>
        <time>2016-04-02T08:34:43Z</time>
      </trkpt>
      <trkpt lat="37.884275" lon="-1.126507">
        <ele>345.2</ele>
        <time>2016-04-02T08:35:00Z</time>
      </trkpt>
      <trkpt lat="37.884275" lon="-1.126845">
        <ele>346.7</ele>
        <time>2016-04-02T08:35:18Z</time>
      </trkpt>
      <trkpt lat="37.884242" lon="-1.127086">
        <ele>347.2</ele>
        <time>2016-04-02T08:35:32Z</time>
      </trkpt>
      <trkpt lat="37.884216" lon="-1.127329">
        <ele>346.7</ele>
        <time>2016-04-02T08:35:45Z</time>
      </trkpt>
      <trkpt lat="37.884213" lon="-1.127587">
        <ele>347.6</ele>
        <time>2016-04-02T08:35:59Z</time>
      </trkpt>
      <trkpt lat="37.884215" lon="-1.127819">
        <ele>347.6</ele>
        <time>2016-04-02T08:36:12Z</time>
      </trkpt>
      <trkpt lat="37.884228" lon="-1.128076">
        <ele>350.1</ele>
        <time>2016-04-02T08:36:26Z</time>
      </trkpt>
      <trkpt lat="37.884245" lon="-1.128335">
        <ele>351.5</ele>
        <time>2016-04-02T08:36:41Z</time>
      </trkpt>
      <trkpt lat="37.884248" lon="-1.128620">
        <ele>352.5</ele>
        <time>2016-04-02T08:36:57Z</time>
      </trkpt>
      <trkpt lat="37.884255" lon="-1.128924">
        <ele>352.5</ele>
        <time>2016-04-02T08:37:14Z</time>
      </trkpt>
      <trkpt lat="37.884250" lon="-1.129033">
        <ele>353.4</ele>
        <time>2016-04-02T08:37:20Z</time>
      </trkpt>
      <trkpt lat="37.884260" lon="-1.129314">
        <ele>354.9</ele>
        <time>2016-04-02T08:37:36Z</time>
      </trkpt>
      <trkpt lat="37.884262" lon="-1.129484">
        <ele>355.3</ele>
        <time>2016-04-02T08:37:46Z</time>
      </trkpt>
      <trkpt lat="37.884278" lon="-1.129547">
        <ele>355.8</ele>
        <time>2016-04-02T08:37:50Z</time>
      </trkpt>
      <trkpt lat="37.884287" lon="-1.129807">
        <ele>357.8</ele>
        <time>2016-04-02T08:38:04Z</time>
      </trkpt>
      <trkpt lat="37.884259" lon="-1.130039">
        <ele>358.7</ele>
        <time>2016-04-02T08:38:17Z</time>
      </trkpt>
      <trkpt lat="37.884228" lon="-1.130201">
        <ele>358.7</ele>
        <time>2016-04-02T08:38:26Z</time>
      </trkpt>
      <trkpt lat="37.884197" lon="-1.130307">
        <ele>359.7</ele>
        <time>2016-04-02T08:38:32Z</time>
      </trkpt>
      <trkpt lat="37.884206" lon="-1.130558">
        <ele>362.1</ele>
        <time>2016-04-02T08:38:47Z</time>
      </trkpt>
      <trkpt lat="37.884263" lon="-1.130859">
        <ele>363.0</ele>
        <time>2016-04-02T08:39:05Z</time>
      </trkpt>
      <trkpt lat="37.884312" lon="-1.131141">
        <ele>363.5</ele>
        <time>2016-04-02T08:39:21Z</time>
      </trkpt>
      <trkpt lat="37.884350" lon="-1.131404">
        <ele>364.0</ele>
        <time>2016-04-02T08:39:37Z</time>
      </trkpt>
      <trkpt lat="37.884374" lon="-1.131705">
        <ele>365.9</ele>
        <time>2016-04-02T08:39:53Z</time>
      </trkpt>
      <trkpt lat="37.884409" lon="-1.131963">
        <ele>366.4</ele>
        <time>2016-04-02T08:40:08Z</time>
      </trkpt>
      <trkpt lat="37.884409" lon="-1.132042">
        <ele>366.9</ele>
        <time>2016-04-02T08:40:12Z</time>
      </trkpt>
      <trkpt lat="37.884397" lon="-1.132128">
        <ele>368.3</ele>
        <time>2016-04-02T08:40:17Z</time>
      </trkpt>
      <trkpt lat="37.884373" lon="-1.132340">
        <ele>368.8</ele>
        <time>2016-04-02T08:40:29Z</time>
      </trkpt>
      <trkpt lat="37.884346" lon="-1.132426">
        <ele>369.3</ele>
        <time>2016-04-02T08:40:34Z</time>
      </trkpt>
      <trkpt lat="37.884332" lon="-1.132681">
        <ele>369.3</ele>
        <time>2016-04-02T08:40:48Z</time>
      </trkpt>
      <trkpt lat="37.884337" lon="-1.133019">
        <ele>371.7</ele>
        <time>2016-04-02T08:41:06Z</time>
      </trkpt>
      <trkpt lat="37.884372" lon="-1.133307">
        <ele>372.6</ele>
        <time>2016-04-02T08:41:22Z</time>
      </trkpt>
      <trkpt lat="37.884454" lon="-1.133602">
        <ele>372.2</ele>
        <time>2016-04-02T08:41:36Z</time>
      </trkpt>
      <trkpt lat="37.884539" lon="-1.133767">
        <ele>372.2</ele>
        <time>2016-04-02T08:41:49Z</time>
      </trkpt>
      <trkpt lat="37.884710" lon="-1.134047">
        <ele>372.2</ele>
        <time>2016-04-02T08:42:10Z</time>
      </trkpt>
      <trkpt lat="37.884858" lon="-1.134255">
        <ele>371.2</ele>
        <time>2016-04-02T08:42:28Z</time>
      </trkpt>
      <trkpt lat="37.885050" lon="-1.134546">
        <ele>371.2</ele>
        <time>2016-04-02T08:42:43Z</time>
      </trkpt>
      <trkpt lat="37.885218" lon="-1.134782">
        <ele>371.7</ele>
        <time>2016-04-02T08:43:00Z</time>
      </trkpt>
      <trkpt lat="37.885199" lon="-1.134779">
        <ele>372.2</ele>
        <time>2016-04-02T08:43:15Z</time>
      </trkpt>
      <trkpt lat="37.885294" lon="-1.134960">
        <ele>371.7</ele>
        <time>2016-04-02T08:43:32Z</time>
      </trkpt>
      <trkpt lat="37.885355" lon="-1.135088">
        <ele>371.7</ele>
        <time>2016-04-02T08:43:46Z</time>
      </trkpt>
      <trkpt lat="37.885448" lon="-1.135277">
        <ele>371.7</ele>
        <time>2016-04-02T08:43:58Z</time>
      </trkpt>
      <trkpt lat="37.885590" lon="-1.135593">
        <ele>371.7</ele>
        <time>2016-04-02T08:44:18Z</time>
      </trkpt>
      <trkpt lat="37.885629" lon="-1.135664">
        <ele>372.2</ele>
        <time>2016-04-02T08:44:23Z</time>
      </trkpt>
      <trkpt lat="37.885673" lon="-1.135734">
        <ele>372.2</ele>
        <time>2016-04-02T08:44:38Z</time>
      </trkpt>
      <trkpt lat="37.885674" lon="-1.135759">
        <ele>372.6</ele>
        <time>2016-04-02T08:44:53Z</time>
      </trkpt>
      <trkpt lat="37.885670" lon="-1.135762">
        <ele>372.2</ele>
        <time>2016-04-02T08:45:10Z</time>
      </trkpt>
      <trkpt lat="37.885689" lon="-1.135812">
        <ele>371.7</ele>
        <time>2016-04-02T08:45:25Z</time>
      </trkpt>
      <trkpt lat="37.885777" lon="-1.136151">
        <ele>371.7</ele>
        <time>2016-04-02T08:45:46Z</time>
      </trkpt>
      <trkpt lat="37.885849" lon="-1.136480">
        <ele>371.2</ele>
        <time>2016-04-02T08:46:07Z</time>
      </trkpt>
      <trkpt lat="37.885901" lon="-1.136760">
        <ele>371.2</ele>
        <time>2016-04-02T08:46:25Z</time>
      </trkpt>
      <trkpt lat="37.885915" lon="-1.136921">
        <ele>371.2</ele>
        <time>2016-04-02T08:46:35Z</time>
      </trkpt>
      <trkpt lat="37.885896" lon="-1.137018">
        <ele>371.2</ele>
        <time>2016-04-02T08:46:48Z</time>
      </trkpt>
      <trkpt lat="37.885900" lon="-1.137017">
        <ele>371.2</ele>
        <time>2016-04-02T08:46:55Z</time>
      </trkpt>
      <trkpt lat="37.885863" lon="-1.137154">
        <ele>370.2</ele>
        <time>2016-04-02T08:47:07Z</time>
      </trkpt>
      <trkpt lat="37.885896" lon="-1.137408">
        <ele>369.8</ele>
        <time>2016-04-02T08:47:22Z</time>
      </trkpt>
      <trkpt lat="37.885957" lon="-1.137436">
        <ele>370.2</ele>
        <time>2016-04-02T08:47:28Z</time>
      </trkpt>
      <trkpt lat="37.885982" lon="-1.137434">
        <ele>370.2</ele>
        <time>2016-04-02T08:47:41Z</time>
      </trkpt>
      <trkpt lat="37.885994" lon="-1.137425">
        <ele>370.2</ele>
        <time>2016-04-02T08:47:48Z</time>
      </trkpt>
      <trkpt lat="37.886193" lon="-1.137593">
        <ele>370.2</ele>
        <time>2016-04-02T08:48:04Z</time>
      </trkpt>
      <trkpt lat="37.886421" lon="-1.137650">
        <ele>369.8</ele>
        <time>2016-04-02T08:48:20Z</time>
      </trkpt>
      <trkpt lat="37.886709" lon="-1.137730">
        <ele>369.3</ele>
        <time>2016-04-02T08:48:39Z</time>
      </trkpt>
      <trkpt lat="37.886831" lon="-1.138000">
        <ele>368.3</ele>
        <time>2016-04-02T08:48:55Z</time>
      </trkpt>
      <trkpt lat="37.886962" lon="-1.138398">
        <ele>367.4</ele>
        <time>2016-04-02T08:49:19Z</time>
      </trkpt>
      <trkpt lat="37.887179" lon="-1.138603">
        <ele>366.4</ele>
        <time>2016-04-02T08:49:39Z</time>
      </trkpt>
      <trkpt lat="37.887203" lon="-1.138634">
        <ele>366.4</ele>
        <time>2016-04-02T08:49:42Z</time>
      </trkpt>
      <trkpt lat="37.887383" lon="-1.138791">
        <ele>365.9</ele>
        <time>2016-04-02T08:49:59Z</time>
      </trkpt>
      <trkpt lat="37.887593" lon="-1.138948">
        <ele>365.0</ele>
        <time>2016-04-02T08:50:16Z</time>
      </trkpt>
      <trkpt lat="37.887793" lon="-1.139126">
        <ele>364.5</ele>
        <time>2016-04-02T08:50:34Z</time>
      </trkpt>
      <trkpt lat="37.887959" lon="-1.139283">
        <ele>364.0</ele>
        <time>2016-04-02T08:50:49Z</time>
      </trkpt>
      <trkpt lat="37.888178" lon="-1.139481">
        <ele>363.0</ele>
        <time>2016-04-02T08:51:09Z</time>
      </trkpt>
      <trkpt lat="37.888361" lon="-1.139626">
        <ele>362.5</ele>
        <time>2016-04-02T08:51:25Z</time>
      </trkpt>
      <trkpt lat="37.888548" lon="-1.139752">
        <ele>362.1</ele>
        <time>2016-04-02T08:51:41Z</time>
      </trkpt>
      <trkpt lat="37.888780" lon="-1.139910">
        <ele>361.6</ele>
        <time>2016-04-02T08:52:00Z</time>
      </trkpt>
      <trkpt lat="37.888976" lon="-1.140053">
        <ele>361.1</ele>
        <time>2016-04-02T08:52:17Z</time>
      </trkpt>
      <trkpt lat="37.889221" lon="-1.140225">
        <ele>360.6</ele>
        <time>2016-04-02T08:52:37Z</time>
      </trkpt>
      <trkpt lat="37.889325" lon="-1.140280">
        <ele>360.6</ele>
        <time>2016-04-02T08:52:46Z</time>
      </trkpt>
      <trkpt lat="37.889369" lon="-1.140337">
        <ele>361.1</ele>
        <time>2016-04-02T08:52:51Z</time>
      </trkpt>
      <trkpt lat="37.889524" lon="-1.140431">
        <ele>360.1</ele>
        <time>2016-04-02T08:53:04Z</time>
      </trkpt>
      <trkpt lat="37.889610" lon="-1.140493">
        <ele>359.7</ele>
        <time>2016-04-02T08:53:12Z</time>
      </trkpt>
      <trkpt lat="37.889694" lon="-1.140537">
        <ele>359.7</ele>
        <time>2016-04-02T08:53:19Z</time>
      </trkpt>
      <trkpt lat="37.889935" lon="-1.140726">
        <ele>359.7</ele>
        <time>2016-04-02T08:53:40Z</time>
      </trkpt>
      <trkpt lat="37.890167" lon="-1.140892">
        <ele>358.7</ele>
        <time>2016-04-02T08:54:00Z</time>
      </trkpt>
      <trkpt lat="37.890366" lon="-1.141023">
        <ele>358.2</ele>
        <time>2016-04-02T08:54:17Z</time>
      </trkpt>
      <trkpt lat="37.890581" lon="-1.141168">
        <ele>357.3</ele>
        <time>2016-04-02T08:54:35Z</time>
      </trkpt>
      <trkpt lat="37.890760" lon="-1.141267">
        <ele>355.3</ele>
        <time>2016-04-02T08:54:50Z</time>
      </trkpt>
      <trkpt lat="37.890962" lon="-1.141427">
        <ele>354.4</ele>
        <time>2016-04-02T08:55:07Z</time>
      </trkpt>
      <trkpt lat="37.891073" lon="-1.141528">
        <ele>355.8</ele>
        <time>2016-04-02T08:55:18Z</time>
      </trkpt>
      <trkpt lat="37.891246" lon="-1.141634">
        <ele>355.3</ele>
        <time>2016-04-02T08:55:33Z</time>
      </trkpt>
      <trkpt lat="37.891410" lon="-1.141753">
        <ele>355.3</ele>
        <time>2016-04-02T08:55:48Z</time>
      </trkpt>
      <trkpt lat="37.891623" lon="-1.141896">
        <ele>354.4</ele>
        <time>2016-04-02T08:56:06Z</time>
      </trkpt>
      <trkpt lat="37.891850" lon="-1.142015">
        <ele>353.4</ele>
        <time>2016-04-02T08:56:24Z</time>
      </trkpt>
      <trkpt lat="37.892024" lon="-1.142123">
        <ele>353.4</ele>
        <time>2016-04-02T08:56:39Z</time>
      </trkpt>
      <trkpt lat="37.892266" lon="-1.142203">
        <ele>350.5</ele>
        <time>2016-04-02T08:56:58Z</time>
      </trkpt>
      <trkpt lat="37.892489" lon="-1.142253">
        <ele>349.6</ele>
        <time>2016-04-02T08:57:14Z</time>
      </trkpt>
      <trkpt lat="37.892539" lon="-1.142270">
        <ele>349.1</ele>
        <time>2016-04-02T08:57:18Z</time>
      </trkpt>
      <trkpt lat="37.892760" lon="-1.142266">
        <ele>347.2</ele>
        <time>2016-04-02T08:57:35Z</time>
      </trkpt>
      <trkpt lat="37.892988" lon="-1.142257">
        <ele>344.3</ele>
        <time>2016-04-02T08:57:52Z</time>
      </trkpt>
      <trkpt lat="37.893130" lon="-1.142266">
        <ele>342.4</ele>
        <time>2016-04-02T08:58:05Z</time>
      </trkpt>
      <trkpt lat="37.893242" lon="-1.142230">
        <ele>342.4</ele>
        <time>2016-04-02T08:58:19Z</time>
      </trkpt>
      <trkpt lat="37.893282" lon="-1.142190">
        <ele>342.4</ele>
        <time>2016-04-02T08:58:23Z</time>
      </trkpt>
      <trkpt lat="37.893367" lon="-1.142116">
        <ele>342.9</ele>
        <time>2016-04-02T08:58:31Z</time>
      </trkpt>
      <trkpt lat="37.893532" lon="-1.142010">
        <ele>343.8</ele>
        <time>2016-04-02T08:58:45Z</time>
      </trkpt>
      <trkpt lat="37.893718" lon="-1.141850">
        <ele>344.3</ele>
        <time>2016-04-02T08:59:01Z</time>
      </trkpt>
      <trkpt lat="37.893887" lon="-1.141763">
        <ele>343.8</ele>
        <time>2016-04-02T08:59:17Z</time>
      </trkpt>
      <trkpt lat="37.893991" lon="-1.141704">
        <ele>343.3</ele>
        <time>2016-04-02T08:59:29Z</time>
      </trkpt>
      <trkpt lat="37.894065" lon="-1.141627">
        <ele>343.3</ele>
        <time>2016-04-02T08:59:37Z</time>
      </trkpt>
      <trkpt lat="37.894222" lon="-1.141512">
        <ele>341.9</ele>
        <time>2016-04-02T08:59:51Z</time>
      </trkpt>
      <trkpt lat="37.894281" lon="-1.141458">
        <ele>340.9</ele>
        <time>2016-04-02T08:59:57Z</time>
      </trkpt>
      <trkpt lat="37.894395" lon="-1.141393">
        <ele>340.4</ele>
        <time>2016-04-02T09:00:07Z</time>
      </trkpt>
      <trkpt lat="37.894432" lon="-1.141376">
        <ele>340.4</ele>
        <time>2016-04-02T09:00:10Z</time>
      </trkpt>
      <trkpt lat="37.894558" lon="-1.141324">
        <ele>340.0</ele>
        <time>2016-04-02T09:00:21Z</time>
      </trkpt>
      <trkpt lat="37.894578" lon="-1.141335">
        <ele>340.4</ele>
        <time>2016-04-02T09:00:23Z</time>
      </trkpt>
      <trkpt lat="37.894595" lon="-1.141302">
        <ele>340.4</ele>
        <time>2016-04-02T09:00:34Z</time>
      </trkpt>
      <trkpt lat="37.894617" lon="-1.141300">
        <ele>340.4</ele>
        <time>2016-04-02T09:00:37Z</time>
      </trkpt>
      <trkpt lat="37.894720" lon="-1.141280">
        <ele>340.9</ele>
        <time>2016-04-02T09:00:45Z</time>
      </trkpt>
      <trkpt lat="37.894752" lon="-1.141278">
        <ele>340.9</ele>
        <time>2016-04-02T09:00:48Z</time>
      </trkpt>
      <trkpt lat="37.894862" lon="-1.141211">
        <ele>342.9</ele>
        <time>2016-04-02T09:01:01Z</time>
      </trkpt>
      <trkpt lat="37.894902" lon="-1.141216">
        <ele>342.9</ele>
        <time>2016-04-02T09:01:06Z</time>
      </trkpt>
      <trkpt lat="37.895076" lon="-1.141194">
        <ele>343.3</ele>
        <time>2016-04-02T09:01:20Z</time>
      </trkpt>
      <trkpt lat="37.895176" lon="-1.141174">
        <ele>342.9</ele>
        <time>2016-04-02T09:01:27Z</time>
      </trkpt>
      <trkpt lat="37.895382" lon="-1.141125">
        <ele>342.9</ele>
        <time>2016-04-02T09:01:45Z</time>
      </trkpt>
      <trkpt lat="37.895589" lon="-1.141134">
        <ele>341.9</ele>
        <time>2016-04-02T09:02:03Z</time>
      </trkpt>
      <trkpt lat="37.895731" lon="-1.141183">
        <ele>341.4</ele>
        <time>2016-04-02T09:02:15Z</time>
      </trkpt>
      <trkpt lat="37.895809" lon="-1.141217">
        <ele>341.4</ele>
        <time>2016-04-02T09:02:30Z</time>
      </trkpt>
      <trkpt lat="37.895980" lon="-1.141303">
        <ele>340.0</ele>
        <time>2016-04-02T09:02:44Z</time>
      </trkpt>
      <trkpt lat="37.896140" lon="-1.141406">
        <ele>338.5</ele>
        <time>2016-04-02T09:02:57Z</time>
      </trkpt>
      <trkpt lat="37.896340" lon="-1.141494">
        <ele>335.6</ele>
        <time>2016-04-02T09:03:13Z</time>
      </trkpt>
      <trkpt lat="37.896495" lon="-1.141605">
        <ele>333.2</ele>
        <time>2016-04-02T09:03:26Z</time>
      </trkpt>
      <trkpt lat="37.896680" lon="-1.141731">
        <ele>330.8</ele>
        <time>2016-04-02T09:03:42Z</time>
      </trkpt>
      <trkpt lat="37.896829" lon="-1.141834">
        <ele>328.9</ele>
        <time>2016-04-02T09:03:56Z</time>
      </trkpt>
      <trkpt lat="37.896949" lon="-1.141908">
        <ele>327.0</ele>
        <time>2016-04-02T09:04:10Z</time>
      </trkpt>
      <trkpt lat="37.896993" lon="-1.141900">
        <ele>328.0</ele>
        <time>2016-04-02T09:04:24Z</time>
      </trkpt>
      <trkpt lat="37.897021" lon="-1.141894">
        <ele>327.0</ele>
        <time>2016-04-02T09:04:26Z</time>
      </trkpt>
      <trkpt lat="37.897078" lon="-1.141760">
        <ele>327.5</ele>
        <time>2016-04-02T09:04:39Z</time>
      </trkpt>
      <trkpt lat="37.897164" lon="-1.141553">
        <ele>327.5</ele>
        <time>2016-04-02T09:04:51Z</time>
      </trkpt>
      <trkpt lat="37.897228" lon="-1.141336">
        <ele>328.9</ele>
        <time>2016-04-02T09:05:04Z</time>
      </trkpt>
      <trkpt lat="37.897248" lon="-1.141231">
        <ele>330.4</ele>
        <time>2016-04-02T09:05:12Z</time>
      </trkpt>
      <trkpt lat="37.897247" lon="-1.141168">
        <ele>329.4</ele>
        <time>2016-04-02T09:05:17Z</time>
      </trkpt>
      <trkpt lat="37.897205" lon="-1.141043">
        <ele>329.4</ele>
        <time>2016-04-02T09:05:25Z</time>
      </trkpt>
      <trkpt lat="37.897153" lon="-1.140865">
        <ele>330.8</ele>
        <time>2016-04-02T09:05:39Z</time>
      </trkpt>
      <trkpt lat="37.897107" lon="-1.140672">
        <ele>331.8</ele>
        <time>2016-04-02T09:05:51Z</time>
      </trkpt>
      <trkpt lat="37.897076" lon="-1.140607">
        <ele>332.8</ele>
        <time>2016-04-02T09:05:56Z</time>
      </trkpt>
      <trkpt lat="37.897061" lon="-1.140589">
        <ele>333.7</ele>
        <time>2016-04-02T09:05:58Z</time>
      </trkpt>
      <trkpt lat="37.897045" lon="-1.140551">
        <ele>333.7</ele>
        <time>2016-04-02T09:06:01Z</time>
      </trkpt>
      <trkpt lat="37.896895" lon="-1.140461">
        <ele>334.2</ele>
        <time>2016-04-02T09:06:15Z</time>
      </trkpt>
      <trkpt lat="37.896858" lon="-1.140433">
        <ele>334.2</ele>
        <time>2016-04-02T09:06:19Z</time>
      </trkpt>
      <trkpt lat="37.896748" lon="-1.140283">
        <ele>334.7</ele>
        <time>2016-04-02T09:06:29Z</time>
      </trkpt>
      <trkpt lat="37.896761" lon="-1.140161">
        <ele>334.7</ele>
        <time>2016-04-02T09:06:38Z</time>
      </trkpt>
      <trkpt lat="37.896830" lon="-1.140126">
        <ele>335.2</ele>
        <time>2016-04-02T09:06:45Z</time>
      </trkpt>
      <trkpt lat="37.897027" lon="-1.140071">
        <ele>339.0</ele>
        <time>2016-04-02T09:26:17Z</time>
      </trkpt>
      <trkpt lat="37.897088" lon="-1.140054">
        <ele>339.5</ele>
        <time>2016-04-02T09:26:23Z</time>
      </trkpt>
      <trkpt lat="37.897106" lon="-1.140049">
        <ele>340.0</ele>
        <time>2016-04-02T09:26:25Z</time>
      </trkpt>
      <trkpt lat="37.897126" lon="-1.140044">
        <ele>340.0</ele>
        <time>2016-04-02T09:26:28Z</time>
      </trkpt>
      <trkpt lat="37.897305" lon="-1.139977">
        <ele>340.9</ele>
        <time>2016-04-02T09:26:46Z</time>
      </trkpt>
      <trkpt lat="37.897393" lon="-1.139959">
        <ele>341.9</ele>
        <time>2016-04-02T09:26:56Z</time>
      </trkpt>
      <trkpt lat="37.897590" lon="-1.139965">
        <ele>343.8</ele>
        <time>2016-04-02T09:27:15Z</time>
      </trkpt>
      <trkpt lat="37.897611" lon="-1.139971">
        <ele>344.3</ele>
        <time>2016-04-02T09:27:17Z</time>
      </trkpt>
      <trkpt lat="37.897718" lon="-1.140026">
        <ele>346.2</ele>
        <time>2016-04-02T09:27:29Z</time>
      </trkpt>
      <trkpt lat="37.897751" lon="-1.140043">
        <ele>346.7</ele>
        <time>2016-04-02T09:27:33Z</time>
      </trkpt>
      <trkpt lat="37.897771" lon="-1.140044">
        <ele>346.7</ele>
        <time>2016-04-02T09:27:35Z</time>
      </trkpt>
      <trkpt lat="37.897788" lon="-1.140050">
        <ele>347.2</ele>
        <time>2016-04-02T09:27:37Z</time>
      </trkpt>
      <trkpt lat="37.897947" lon="-1.140044">
        <ele>349.1</ele>
        <time>2016-04-02T09:27:51Z</time>
      </trkpt>
      <trkpt lat="37.897976" lon="-1.140031">
        <ele>349.6</ele>
        <time>2016-04-02T09:27:54Z</time>
      </trkpt>
      <trkpt lat="37.898047" lon="-1.140008">
        <ele>350.1</ele>
        <time>2016-04-02T09:28:03Z</time>
      </trkpt>
      <trkpt lat="37.898100" lon="-1.139982">
        <ele>351.5</ele>
        <time>2016-04-02T09:28:09Z</time>
      </trkpt>
      <trkpt lat="37.898161" lon="-1.139945">
        <ele>352.0</ele>
        <time>2016-04-02T09:28:15Z</time>
      </trkpt>
      <trkpt lat="37.898232" lon="-1.139897">
        <ele>352.9</ele>
        <time>2016-04-02T09:28:22Z</time>
      </trkpt>
      <trkpt lat="37.898252" lon="-1.139881">
        <ele>353.9</ele>
        <time>2016-04-02T09:28:24Z</time>
      </trkpt>
      <trkpt lat="37.898400" lon="-1.139781">
        <ele>355.3</ele>
        <time>2016-04-02T09:28:39Z</time>
      </trkpt>
      <trkpt lat="37.898408" lon="-1.139772">
        <ele>354.9</ele>
        <time>2016-04-02T09:28:40Z</time>
      </trkpt>
      <trkpt lat="37.898504" lon="-1.139562">
        <ele>355.8</ele>
        <time>2016-04-02T09:28:56Z</time>
      </trkpt>
      <trkpt lat="37.898528" lon="-1.139475">
        <ele>356.3</ele>
        <time>2016-04-02T09:29:03Z</time>
      </trkpt>
      <trkpt lat="37.898594" lon="-1.139420">
        <ele>356.3</ele>
        <time>2016-04-02T09:29:10Z</time>
      </trkpt>
      <trkpt lat="37.898708" lon="-1.139479">
        <ele>357.3</ele>
        <time>2016-04-02T09:29:24Z</time>
      </trkpt>
      <trkpt lat="37.898816" lon="-1.139593">
        <ele>359.2</ele>
        <time>2016-04-02T09:29:40Z</time>
      </trkpt>
      <trkpt lat="37.898831" lon="-1.139604">
        <ele>359.2</ele>
        <time>2016-04-02T09:29:42Z</time>
      </trkpt>
      <trkpt lat="37.898966" lon="-1.139674">
        <ele>362.1</ele>
        <time>2016-04-02T09:29:56Z</time>
      </trkpt>
      <trkpt lat="37.898990" lon="-1.139670">
        <ele>362.1</ele>
        <time>2016-04-02T09:29:58Z</time>
      </trkpt>
      <trkpt lat="37.899056" lon="-1.139645">
        <ele>362.5</ele>
        <time>2016-04-02T09:30:03Z</time>
      </trkpt>
      <trkpt lat="37.899090" lon="-1.139628">
        <ele>363.0</ele>
        <time>2016-04-02T09:30:06Z</time>
      </trkpt>
      <trkpt lat="37.899159" lon="-1.139421">
        <ele>364.0</ele>
        <time>2016-04-02T09:30:21Z</time>
      </trkpt>
      <trkpt lat="37.899128" lon="-1.139302">
        <ele>364.5</ele>
        <time>2016-04-02T09:30:29Z</time>
      </trkpt>
      <trkpt lat="37.899119" lon="-1.139275">
        <ele>364.5</ele>
        <time>2016-04-02T09:30:31Z</time>
      </trkpt>
      <trkpt lat="37.899114" lon="-1.139202">
        <ele>365.0</ele>
        <time>2016-04-02T09:30:36Z</time>
      </trkpt>
      <trkpt lat="37.899114" lon="-1.139178">
        <ele>365.4</ele>
        <time>2016-04-02T09:30:38Z</time>
      </trkpt>
      <trkpt lat="37.899100" lon="-1.139065">
        <ele>365.9</ele>
        <time>2016-04-02T09:30:47Z</time>
      </trkpt>
      <trkpt lat="37.899025" lon="-1.138902">
        <ele>367.4</ele>
        <time>2016-04-02T09:31:00Z</time>
      </trkpt>
      <trkpt lat="37.899017" lon="-1.138877">
        <ele>367.4</ele>
        <time>2016-04-02T09:31:02Z</time>
      </trkpt>
      <trkpt lat="37.898986" lon="-1.138740">
        <ele>368.8</ele>
        <time>2016-04-02T09:31:14Z</time>
      </trkpt>
      <trkpt lat="37.898989" lon="-1.138679">
        <ele>370.2</ele>
        <time>2016-04-02T09:31:18Z</time>
      </trkpt>
      <trkpt lat="37.898986" lon="-1.138552">
        <ele>371.2</ele>
        <time>2016-04-02T09:31:28Z</time>
      </trkpt>
      <trkpt lat="37.898977" lon="-1.138487">
        <ele>371.7</ele>
        <time>2016-04-02T09:31:33Z</time>
      </trkpt>
      <trkpt lat="37.898953" lon="-1.138391">
        <ele>372.6</ele>
        <time>2016-04-02T09:31:41Z</time>
      </trkpt>
      <trkpt lat="37.898917" lon="-1.138231">
        <ele>374.6</ele>
        <time>2016-04-02T09:31:56Z</time>
      </trkpt>
      <trkpt lat="37.898908" lon="-1.138205">
        <ele>375.0</ele>
        <time>2016-04-02T09:31:59Z</time>
      </trkpt>
      <trkpt lat="37.898896" lon="-1.138116">
        <ele>376.0</ele>
        <time>2016-04-02T09:32:08Z</time>
      </trkpt>
      <trkpt lat="37.898886" lon="-1.137977">
        <ele>377.9</ele>
        <time>2016-04-02T09:32:21Z</time>
      </trkpt>
      <trkpt lat="37.898892" lon="-1.137939">
        <ele>378.9</ele>
        <time>2016-04-02T09:32:24Z</time>
      </trkpt>
      <trkpt lat="37.898889" lon="-1.137900">
        <ele>378.9</ele>
        <time>2016-04-02T09:32:27Z</time>
      </trkpt>
      <trkpt lat="37.898905" lon="-1.137833">
        <ele>379.9</ele>
        <time>2016-04-02T09:32:33Z</time>
      </trkpt>
      <trkpt lat="37.898938" lon="-1.137667">
        <ele>382.7</ele>
        <time>2016-04-02T09:32:47Z</time>
      </trkpt>
      <trkpt lat="37.898939" lon="-1.137643">
        <ele>382.7</ele>
        <time>2016-04-02T09:32:49Z</time>
      </trkpt>
      <trkpt lat="37.898944" lon="-1.137621">
        <ele>382.7</ele>
        <time>2016-04-02T09:32:51Z</time>
      </trkpt>
      <trkpt lat="37.898956" lon="-1.137511">
        <ele>384.2</ele>
        <time>2016-04-02T09:32:59Z</time>
      </trkpt>
      <trkpt lat="37.898944" lon="-1.137480">
        <ele>384.7</ele>
        <time>2016-04-02T09:33:01Z</time>
      </trkpt>
      <trkpt lat="37.898865" lon="-1.137311">
        <ele>385.6</ele>
        <time>2016-04-02T09:33:14Z</time>
      </trkpt>
      <trkpt lat="37.898739" lon="-1.137166">
        <ele>386.6</ele>
        <time>2016-04-02T09:33:29Z</time>
      </trkpt>
      <trkpt lat="37.898628" lon="-1.137034">
        <ele>387.1</ele>
        <time>2016-04-02T09:33:43Z</time>
      </trkpt>
      <trkpt lat="37.898617" lon="-1.136810">
        <ele>386.6</ele>
        <time>2016-04-02T09:33:58Z</time>
      </trkpt>
      <trkpt lat="37.898745" lon="-1.136617">
        <ele>387.1</ele>
        <time>2016-04-02T09:34:15Z</time>
      </trkpt>
      <trkpt lat="37.898896" lon="-1.136443">
        <ele>387.5</ele>
        <time>2016-04-02T09:34:32Z</time>
      </trkpt>
      <trkpt lat="37.898919" lon="-1.136406">
        <ele>386.1</ele>
        <time>2016-04-02T09:34:35Z</time>
      </trkpt>
      <trkpt lat="37.899060" lon="-1.136209">
        <ele>386.1</ele>
        <time>2016-04-02T09:34:52Z</time>
      </trkpt>
      <trkpt lat="37.899189" lon="-1.136111">
        <ele>387.1</ele>
        <time>2016-04-02T09:35:06Z</time>
      </trkpt>
      <trkpt lat="37.899355" lon="-1.136079">
        <ele>388.5</ele>
        <time>2016-04-02T09:35:21Z</time>
      </trkpt>
      <trkpt lat="37.899434" lon="-1.136096">
        <ele>390.0</ele>
        <time>2016-04-02T09:35:29Z</time>
      </trkpt>
      <trkpt lat="37.899602" lon="-1.136110">
        <ele>392.8</ele>
        <time>2016-04-02T09:35:44Z</time>
      </trkpt>
      <trkpt lat="37.899736" lon="-1.136087">
        <ele>390.0</ele>
        <time>2016-04-02T09:35:57Z</time>
      </trkpt>
      <trkpt lat="37.899745" lon="-1.136083">
        <ele>398.1</ele>
        <time>2016-04-02T09:35:58Z</time>
      </trkpt>
      <trkpt lat="37.899756" lon="-1.136073">
        <ele>390.9</ele>
        <time>2016-04-02T09:35:59Z</time>
      </trkpt>
      <trkpt lat="37.899765" lon="-1.136067">
        <ele>398.1</ele>
        <time>2016-04-02T09:36:00Z</time>
      </trkpt>
      <trkpt lat="37.899774" lon="-1.136060">
        <ele>394.8</ele>
        <time>2016-04-02T09:36:01Z</time>
      </trkpt>
      <trkpt lat="37.899915" lon="-1.135955">
        <ele>397.2</ele>
        <time>2016-04-02T09:36:16Z</time>
      </trkpt>
      <trkpt lat="37.899999" lon="-1.135805">
        <ele>399.1</ele>
        <time>2016-04-02T09:36:30Z</time>
      </trkpt>
      <trkpt lat="37.900027" lon="-1.135752">
        <ele>399.6</ele>
        <time>2016-04-02T09:36:34Z</time>
      </trkpt>
      <trkpt lat="37.900054" lon="-1.135591">
        <ele>400.5</ele>
        <time>2016-04-02T09:36:45Z</time>
      </trkpt>
      <trkpt lat="37.900059" lon="-1.135563">
        <ele>401.5</ele>
        <time>2016-04-02T09:36:47Z</time>
      </trkpt>
      <trkpt lat="37.900067" lon="-1.135495">
        <ele>402.0</ele>
        <time>2016-04-02T09:36:52Z</time>
      </trkpt>
      <trkpt lat="37.900110" lon="-1.135314">
        <ele>402.9</ele>
        <time>2016-04-02T09:37:05Z</time>
      </trkpt>
      <trkpt lat="37.900118" lon="-1.135201">
        <ele>405.3</ele>
        <time>2016-04-02T09:37:13Z</time>
      </trkpt>
      <trkpt lat="37.900098" lon="-1.135009">
        <ele>407.3</ele>
        <time>2016-04-02T09:37:26Z</time>
      </trkpt>
      <trkpt lat="37.900077" lon="-1.134948">
        <ele>408.2</ele>
        <time>2016-04-02T09:37:30Z</time>
      </trkpt>
      <trkpt lat="37.900071" lon="-1.134916">
        <ele>408.2</ele>
        <time>2016-04-02T09:37:32Z</time>
      </trkpt>
      <trkpt lat="37.900006" lon="-1.134853">
        <ele>409.2</ele>
        <time>2016-04-02T09:37:40Z</time>
      </trkpt>
      <trkpt lat="37.899974" lon="-1.134800">
        <ele>410.1</ele>
        <time>2016-04-02T09:37:45Z</time>
      </trkpt>
      <trkpt lat="37.899935" lon="-1.134716">
        <ele>411.6</ele>
        <time>2016-04-02T09:37:52Z</time>
      </trkpt>
      <trkpt lat="37.899816" lon="-1.134603">
        <ele>413.0</ele>
        <time>2016-04-02T09:38:05Z</time>
      </trkpt>
      <trkpt lat="37.899680" lon="-1.134434">
        <ele>415.0</ele>
        <time>2016-04-02T09:38:20Z</time>
      </trkpt>
      <trkpt lat="37.899618" lon="-1.134386">
        <ele>415.4</ele>
        <time>2016-04-02T09:38:25Z</time>
      </trkpt>
      <trkpt lat="37.899527" lon="-1.134269">
        <ele>416.4</ele>
        <time>2016-04-02T09:38:35Z</time>
      </trkpt>
      <trkpt lat="37.899495" lon="-1.134184">
        <ele>416.9</ele>
        <time>2016-04-02T09:38:42Z</time>
      </trkpt>
      <trkpt lat="37.899482" lon="-1.134057">
        <ele>418.3</ele>
        <time>2016-04-02T09:38:52Z</time>
      </trkpt>
      <trkpt lat="37.899499" lon="-1.134008">
        <ele>418.8</ele>
        <time>2016-04-02T09:38:57Z</time>
      </trkpt>
      <trkpt lat="37.899469" lon="-1.133901">
        <ele>419.3</ele>
        <time>2016-04-02T09:39:05Z</time>
      </trkpt>
      <trkpt lat="37.899591" lon="-1.133642">
        <ele>421.2</ele>
        <time>2016-04-02T09:39:46Z</time>
      </trkpt>
      <trkpt lat="37.899565" lon="-1.133503">
        <ele>425.0</ele>
        <time>2016-04-02T09:39:57Z</time>
      </trkpt>
      <trkpt lat="37.899562" lon="-1.133461">
        <ele>425.0</ele>
        <time>2016-04-02T09:39:59Z</time>
      </trkpt>
      <trkpt lat="37.899522" lon="-1.133382">
        <ele>426.0</ele>
        <time>2016-04-02T09:40:04Z</time>
      </trkpt>
      <trkpt lat="37.899384" lon="-1.133158">
        <ele>427.9</ele>
        <time>2016-04-02T09:40:21Z</time>
      </trkpt>
      <trkpt lat="37.899257" lon="-1.132987">
        <ele>430.3</ele>
        <time>2016-04-02T09:40:35Z</time>
      </trkpt>
      <trkpt lat="37.899229" lon="-1.132916">
        <ele>430.8</ele>
        <time>2016-04-02T09:40:40Z</time>
      </trkpt>
      <trkpt lat="37.899193" lon="-1.132791">
        <ele>431.8</ele>
        <time>2016-04-02T09:40:48Z</time>
      </trkpt>
      <trkpt lat="37.899182" lon="-1.132644">
        <ele>433.7</ele>
        <time>2016-04-02T09:40:58Z</time>
      </trkpt>
      <trkpt lat="37.899222" lon="-1.132492">
        <ele>434.6</ele>
        <time>2016-04-02T09:41:07Z</time>
      </trkpt>
      <trkpt lat="37.899248" lon="-1.132410">
        <ele>435.1</ele>
        <time>2016-04-02T09:41:12Z</time>
      </trkpt>
      <trkpt lat="37.899281" lon="-1.132325">
        <ele>436.1</ele>
        <time>2016-04-02T09:41:18Z</time>
      </trkpt>
      <trkpt lat="37.899327" lon="-1.132101">
        <ele>438.0</ele>
        <time>2016-04-02T09:41:32Z</time>
      </trkpt>
      <trkpt lat="37.899399" lon="-1.131875">
        <ele>439.9</ele>
        <time>2016-04-02T09:41:47Z</time>
      </trkpt>
      <trkpt lat="37.899513" lon="-1.131709">
        <ele>440.9</ele>
        <time>2016-04-02T09:42:02Z</time>
      </trkpt>
      <trkpt lat="37.899596" lon="-1.131591">
        <ele>442.3</ele>
        <time>2016-04-02T09:42:13Z</time>
      </trkpt>
      <trkpt lat="37.899650" lon="-1.131536">
        <ele>442.8</ele>
        <time>2016-04-02T09:42:19Z</time>
      </trkpt>
      <trkpt lat="37.899700" lon="-1.131349">
        <ele>444.3</ele>
        <time>2016-04-02T09:42:33Z</time>
      </trkpt>
      <trkpt lat="37.899713" lon="-1.131097">
        <ele>446.7</ele>
        <time>2016-04-02T09:42:49Z</time>
      </trkpt>
      <trkpt lat="37.899731" lon="-1.131059">
        <ele>447.1</ele>
        <time>2016-04-02T09:42:52Z</time>
      </trkpt>
      <trkpt lat="37.899770" lon="-1.130945">
        <ele>448.1</ele>
        <time>2016-04-02T09:43:01Z</time>
      </trkpt>
      <trkpt lat="37.899849" lon="-1.130763">
        <ele>450.5</ele>
        <time>2016-04-02T09:43:15Z</time>
      </trkpt>
      <trkpt lat="37.899895" lon="-1.130571">
        <ele>451.0</ele>
        <time>2016-04-02T09:43:29Z</time>
      </trkpt>
      <trkpt lat="37.899911" lon="-1.130355">
        <ele>452.9</ele>
        <time>2016-04-02T09:43:44Z</time>
      </trkpt>
      <trkpt lat="37.899969" lon="-1.130167">
        <ele>454.4</ele>
        <time>2016-04-02T09:43:58Z</time>
      </trkpt>
      <trkpt lat="37.900005" lon="-1.130109">
        <ele>454.4</ele>
        <time>2016-04-02T09:44:03Z</time>
      </trkpt>
      <trkpt lat="37.900145" lon="-1.129995">
        <ele>456.3</ele>
        <time>2016-04-02T09:44:17Z</time>
      </trkpt>
      <trkpt lat="37.900302" lon="-1.129901">
        <ele>458.7</ele>
        <time>2016-04-02T09:44:33Z</time>
      </trkpt>
      <trkpt lat="37.900420" lon="-1.129743">
        <ele>459.6</ele>
        <time>2016-04-02T09:44:47Z</time>
      </trkpt>
      <trkpt lat="37.900460" lon="-1.129673">
        <ele>460.1</ele>
        <time>2016-04-02T09:44:53Z</time>
      </trkpt>
      <trkpt lat="37.900501" lon="-1.129551">
        <ele>461.6</ele>
        <time>2016-04-02T09:45:02Z</time>
      </trkpt>
      <trkpt lat="37.900573" lon="-1.129278">
        <ele>462.5</ele>
        <time>2016-04-02T09:45:21Z</time>
      </trkpt>
      <trkpt lat="37.900598" lon="-1.129149">
        <ele>463.5</ele>
        <time>2016-04-02T09:45:29Z</time>
      </trkpt>
      <trkpt lat="37.900631" lon="-1.128943">
        <ele>465.9</ele>
        <time>2016-04-02T09:45:44Z</time>
      </trkpt>
      <trkpt lat="37.900656" lon="-1.128786">
        <ele>466.9</ele>
        <time>2016-04-02T09:45:55Z</time>
      </trkpt>
      <trkpt lat="37.900669" lon="-1.128727">
        <ele>467.3</ele>
        <time>2016-04-02T09:45:59Z</time>
      </trkpt>
      <trkpt lat="37.900744" lon="-1.128504">
        <ele>468.8</ele>
        <time>2016-04-02T09:46:15Z</time>
      </trkpt>
      <trkpt lat="37.900773" lon="-1.128305">
        <ele>469.7</ele>
        <time>2016-04-02T09:46:29Z</time>
      </trkpt>
      <trkpt lat="37.900806" lon="-1.128188">
        <ele>470.2</ele>
        <time>2016-04-02T09:46:37Z</time>
      </trkpt>
      <trkpt lat="37.900809" lon="-1.128015">
        <ele>471.7</ele>
        <time>2016-04-02T09:46:49Z</time>
      </trkpt>
      <trkpt lat="37.900778" lon="-1.127830">
        <ele>473.1</ele>
        <time>2016-04-02T09:47:02Z</time>
      </trkpt>
      <trkpt lat="37.900766" lon="-1.127753">
        <ele>473.6</ele>
        <time>2016-04-02T09:47:07Z</time>
      </trkpt>
      <trkpt lat="37.900718" lon="-1.127506">
        <ele>475.5</ele>
        <time>2016-04-02T09:47:24Z</time>
      </trkpt>
      <trkpt lat="37.900685" lon="-1.127337">
        <ele>476.0</ele>
        <time>2016-04-02T09:47:35Z</time>
      </trkpt>
      <trkpt lat="37.900670" lon="-1.127296">
        <ele>477.0</ele>
        <time>2016-04-02T09:47:38Z</time>
      </trkpt>
      <trkpt lat="37.900648" lon="-1.127162">
        <ele>477.4</ele>
        <time>2016-04-02T09:47:47Z</time>
      </trkpt>
      <trkpt lat="37.900620" lon="-1.127067">
        <ele>477.9</ele>
        <time>2016-04-02T09:47:54Z</time>
      </trkpt>
      <trkpt lat="37.900585" lon="-1.126957">
        <ele>478.4</ele>
        <time>2016-04-02T09:48:03Z</time>
      </trkpt>
      <trkpt lat="37.900577" lon="-1.126925">
        <ele>478.9</ele>
        <time>2016-04-02T09:48:05Z</time>
      </trkpt>
      <trkpt lat="37.900504" lon="-1.126717">
        <ele>479.8</ele>
        <time>2016-04-02T09:48:21Z</time>
      </trkpt>
      <trkpt lat="37.900476" lon="-1.126638">
        <ele>479.8</ele>
        <time>2016-04-02T09:48:26Z</time>
      </trkpt>
      <trkpt lat="37.900433" lon="-1.126538">
        <ele>480.3</ele>
        <time>2016-04-02T09:48:33Z</time>
      </trkpt>
      <trkpt lat="37.900404" lon="-1.126458">
        <ele>481.3</ele>
        <time>2016-04-02T09:48:38Z</time>
      </trkpt>
      <trkpt lat="37.900343" lon="-1.126248">
        <ele>481.3</ele>
        <time>2016-04-02T09:48:52Z</time>
      </trkpt>
      <trkpt lat="37.900355" lon="-1.125983">
        <ele>482.7</ele>
        <time>2016-04-02T09:49:09Z</time>
      </trkpt>
      <trkpt lat="37.900470" lon="-1.125818">
        <ele>483.7</ele>
        <time>2016-04-02T09:49:22Z</time>
      </trkpt>
      <trkpt lat="37.900561" lon="-1.125715">
        <ele>485.1</ele>
        <time>2016-04-02T09:49:31Z</time>
      </trkpt>
      <trkpt lat="37.900606" lon="-1.125682">
        <ele>485.6</ele>
        <time>2016-04-02T09:49:35Z</time>
      </trkpt>
      <trkpt lat="37.900783" lon="-1.125518">
        <ele>487.0</ele>
        <time>2016-04-02T09:49:52Z</time>
      </trkpt>
      <trkpt lat="37.900925" lon="-1.125307">
        <ele>488.5</ele>
        <time>2016-04-02T09:50:09Z</time>
      </trkpt>
      <trkpt lat="37.900952" lon="-1.125279">
        <ele>489.0</ele>
        <time>2016-04-02T09:50:21Z</time>
      </trkpt>
      <trkpt lat="37.901063" lon="-1.125145">
        <ele>489.5</ele>
        <time>2016-04-02T09:50:36Z</time>
      </trkpt>
      <trkpt lat="37.901072" lon="-1.125139">
        <ele>489.9</ele>
        <time>2016-04-02T09:50:45Z</time>
      </trkpt>
      <trkpt lat="37.901166" lon="-1.125071">
        <ele>490.4</ele>
        <time>2016-04-02T09:50:56Z</time>
      </trkpt>
      <trkpt lat="37.901232" lon="-1.125015">
        <ele>490.9</ele>
        <time>2016-04-02T09:51:04Z</time>
      </trkpt>
      <trkpt lat="37.901319" lon="-1.124914">
        <ele>491.4</ele>
        <time>2016-04-02T09:51:14Z</time>
      </trkpt>
      <trkpt lat="37.901385" lon="-1.124844">
        <ele>492.3</ele>
        <time>2016-04-02T09:51:21Z</time>
      </trkpt>
      <trkpt lat="37.901526" lon="-1.124747">
        <ele>493.3</ele>
        <time>2016-04-02T09:51:34Z</time>
      </trkpt>
      <trkpt lat="37.901732" lon="-1.124634">
        <ele>495.7</ele>
        <time>2016-04-02T09:51:52Z</time>
      </trkpt>
      <trkpt lat="37.901817" lon="-1.124647">
        <ele>495.2</ele>
        <time>2016-04-02T09:51:59Z</time>
      </trkpt>
      <trkpt lat="37.901912" lon="-1.124707">
        <ele>497.1</ele>
        <time>2016-04-02T09:52:07Z</time>
      </trkpt>
      <trkpt lat="37.901975" lon="-1.124757">
        <ele>497.1</ele>
        <time>2016-04-02T09:52:13Z</time>
      </trkpt>
      <trkpt lat="37.902111" lon="-1.124816">
        <ele>499.1</ele>
        <time>2016-04-02T09:52:25Z</time>
      </trkpt>
      <trkpt lat="37.902171" lon="-1.124821">
        <ele>498.6</ele>
        <time>2016-04-02T09:52:30Z</time>
      </trkpt>
      <trkpt lat="37.902321" lon="-1.124807">
        <ele>500.0</ele>
        <time>2016-04-02T09:52:44Z</time>
      </trkpt>
      <trkpt lat="37.902504" lon="-1.124694">
        <ele>499.5</ele>
        <time>2016-04-02T09:52:59Z</time>
      </trkpt>
      <trkpt lat="37.902619" lon="-1.124628">
        <ele>499.5</ele>
        <time>2016-04-02T09:53:10Z</time>
      </trkpt>
      <trkpt lat="37.902717" lon="-1.124553">
        <ele>499.1</ele>
        <time>2016-04-02T09:53:18Z</time>
      </trkpt>
      <trkpt lat="37.902950" lon="-1.124428">
        <ele>497.6</ele>
        <time>2016-04-02T09:53:36Z</time>
      </trkpt>
      <trkpt lat="37.903155" lon="-1.124304">
        <ele>496.7</ele>
        <time>2016-04-02T09:53:54Z</time>
      </trkpt>
      <trkpt lat="37.903350" lon="-1.124227">
        <ele>495.2</ele>
        <time>2016-04-02T09:54:09Z</time>
      </trkpt>
      <trkpt lat="37.903602" lon="-1.124237">
        <ele>494.3</ele>
        <time>2016-04-02T09:54:25Z</time>
      </trkpt>
      <trkpt lat="37.903752" lon="-1.124409">
        <ele>493.3</ele>
        <time>2016-04-02T09:54:41Z</time>
      </trkpt>
      <trkpt lat="37.903749" lon="-1.124645">
        <ele>492.3</ele>
        <time>2016-04-02T09:54:56Z</time>
      </trkpt>
      <trkpt lat="37.903685" lon="-1.124948">
        <ele>490.9</ele>
        <time>2016-04-02T09:55:13Z</time>
      </trkpt>
      <trkpt lat="37.903691" lon="-1.125115">
        <ele>489.9</ele>
        <time>2016-04-02T09:55:22Z</time>
      </trkpt>
      <trkpt lat="37.903783" lon="-1.125142">
        <ele>489.5</ele>
        <time>2016-04-02T09:55:29Z</time>
      </trkpt>
      <trkpt lat="37.903890" lon="-1.125230">
        <ele>489.0</ele>
        <time>2016-04-02T09:55:39Z</time>
      </trkpt>
      <trkpt lat="37.903923" lon="-1.125319">
        <ele>488.5</ele>
        <time>2016-04-02T09:55:45Z</time>
      </trkpt>
      <trkpt lat="37.903952" lon="-1.125486">
        <ele>488.0</ele>
        <time>2016-04-02T09:56:00Z</time>
      </trkpt>
      <trkpt lat="37.904208" lon="-1.125505">
        <ele>487.0</ele>
        <time>2016-04-02T09:56:25Z</time>
      </trkpt>
      <trkpt lat="37.904343" lon="-1.125630">
        <ele>486.6</ele>
        <time>2016-04-02T09:56:39Z</time>
      </trkpt>
      <trkpt lat="37.904419" lon="-1.125902">
        <ele>484.2</ele>
        <time>2016-04-02T09:56:56Z</time>
      </trkpt>
      <trkpt lat="37.904574" lon="-1.126055">
        <ele>482.2</ele>
        <time>2016-04-02T09:57:12Z</time>
      </trkpt>
      <trkpt lat="37.904667" lon="-1.126066">
        <ele>482.7</ele>
        <time>2016-04-02T09:57:25Z</time>
      </trkpt>
      <trkpt lat="37.904846" lon="-1.126166">
        <ele>480.8</ele>
        <time>2016-04-02T09:57:42Z</time>
      </trkpt>
      <trkpt lat="37.905049" lon="-1.126377">
        <ele>481.3</ele>
        <time>2016-04-02T09:58:02Z</time>
      </trkpt>
      <trkpt lat="37.905209" lon="-1.126514">
        <ele>481.8</ele>
        <time>2016-04-02T09:58:16Z</time>
      </trkpt>
      <trkpt lat="37.905238" lon="-1.126544">
        <ele>482.2</ele>
        <time>2016-04-02T09:58:19Z</time>
      </trkpt>
      <trkpt lat="37.905306" lon="-1.126576">
        <ele>482.7</ele>
        <time>2016-04-02T09:58:24Z</time>
      </trkpt>
      <trkpt lat="37.905455" lon="-1.126700">
        <ele>484.6</ele>
        <time>2016-04-02T09:58:39Z</time>
      </trkpt>
      <trkpt lat="37.905624" lon="-1.126849">
        <ele>487.0</ele>
        <time>2016-04-02T09:58:55Z</time>
      </trkpt>
      <trkpt lat="37.905728" lon="-1.126933">
        <ele>489.0</ele>
        <time>2016-04-02T09:59:05Z</time>
      </trkpt>
      <trkpt lat="37.905826" lon="-1.127012">
        <ele>489.9</ele>
        <time>2016-04-02T09:59:14Z</time>
      </trkpt>
      <trkpt lat="37.905913" lon="-1.127039">
        <ele>490.9</ele>
        <time>2016-04-02T09:59:26Z</time>
      </trkpt>
      <trkpt lat="37.905957" lon="-1.127077">
        <ele>490.4</ele>
        <time>2016-04-02T09:59:30Z</time>
      </trkpt>
      <trkpt lat="37.906057" lon="-1.127166">
        <ele>491.9</ele>
        <time>2016-04-02T09:59:39Z</time>
      </trkpt>
      <trkpt lat="37.906085" lon="-1.127169">
        <ele>492.3</ele>
        <time>2016-04-02T09:59:41Z</time>
      </trkpt>
      <trkpt lat="37.906134" lon="-1.127194">
        <ele>492.8</ele>
        <time>2016-04-02T09:59:45Z</time>
      </trkpt>
      <trkpt lat="37.906204" lon="-1.127225">
        <ele>493.8</ele>
        <time>2016-04-02T09:59:51Z</time>
      </trkpt>
      <trkpt lat="37.906257" lon="-1.127242">
        <ele>493.8</ele>
        <time>2016-04-02T09:59:56Z</time>
      </trkpt>
      <trkpt lat="37.906313" lon="-1.127244">
        <ele>494.3</ele>
        <time>2016-04-02T10:00:00Z</time>
      </trkpt>
      <trkpt lat="37.906382" lon="-1.127256">
        <ele>495.2</ele>
        <time>2016-04-02T10:00:05Z</time>
      </trkpt>
      <trkpt lat="37.906564" lon="-1.127309">
        <ele>496.7</ele>
        <time>2016-04-02T10:00:19Z</time>
      </trkpt>
      <trkpt lat="37.906660" lon="-1.127336">
        <ele>497.6</ele>
        <time>2016-04-02T10:00:27Z</time>
      </trkpt>
      <trkpt lat="37.906751" lon="-1.127302">
        <ele>498.6</ele>
        <time>2016-04-02T10:00:38Z</time>
      </trkpt>
      <trkpt lat="37.906826" lon="-1.127327">
        <ele>499.5</ele>
        <time>2016-04-02T10:00:43Z</time>
      </trkpt>
      <trkpt lat="37.906970" lon="-1.127266">
        <ele>501.0</ele>
        <time>2016-04-02T10:00:57Z</time>
      </trkpt>
      <trkpt lat="37.907152" lon="-1.127152">
        <ele>503.4</ele>
        <time>2016-04-02T10:01:12Z</time>
      </trkpt>
      <trkpt lat="37.907285" lon="-1.127022">
        <ele>504.4</ele>
        <time>2016-04-02T10:01:25Z</time>
      </trkpt>
      <trkpt lat="37.907485" lon="-1.126988">
        <ele>506.3</ele>
        <time>2016-04-02T10:01:42Z</time>
      </trkpt>
      <trkpt lat="37.907549" lon="-1.126997">
        <ele>507.2</ele>
        <time>2016-04-02T10:01:47Z</time>
      </trkpt>
      <trkpt lat="37.907742" lon="-1.127024">
        <ele>507.7</ele>
        <time>2016-04-02T10:02:02Z</time>
      </trkpt>
      <trkpt lat="37.907945" lon="-1.127132">
        <ele>508.2</ele>
        <time>2016-04-02T10:02:19Z</time>
      </trkpt>
      <trkpt lat="37.907997" lon="-1.127151">
        <ele>508.7</ele>
        <time>2016-04-02T10:02:23Z</time>
      </trkpt>
      <trkpt lat="37.908071" lon="-1.127139">
        <ele>509.6</ele>
        <time>2016-04-02T10:02:34Z</time>
      </trkpt>
      <trkpt lat="37.908079" lon="-1.127149">
        <ele>509.2</ele>
        <time>2016-04-02T10:02:35Z</time>
      </trkpt>
      <trkpt lat="37.908154" lon="-1.127186">
        <ele>509.2</ele>
        <time>2016-04-02T10:02:45Z</time>
      </trkpt>
      <trkpt lat="37.908290" lon="-1.127223">
        <ele>510.1</ele>
        <time>2016-04-02T10:02:57Z</time>
      </trkpt>
      <trkpt lat="37.908345" lon="-1.127226">
        <ele>510.6</ele>
        <time>2016-04-02T10:03:02Z</time>
      </trkpt>
      <trkpt lat="37.908384" lon="-1.127226">
        <ele>510.6</ele>
        <time>2016-04-02T10:03:07Z</time>
      </trkpt>
      <trkpt lat="37.908420" lon="-1.127255">
        <ele>510.6</ele>
        <time>2016-04-02T10:04:30Z</time>
      </trkpt>
      <trkpt lat="37.908555" lon="-1.127127">
        <ele>513.0</ele>
        <time>2016-04-02T10:05:10Z</time>
      </trkpt>
      <trkpt lat="37.908621" lon="-1.127017">
        <ele>514.4</ele>
        <time>2016-04-02T10:05:22Z</time>
      </trkpt>
      <trkpt lat="37.908677" lon="-1.126939">
        <ele>514.9</ele>
        <time>2016-04-02T10:05:30Z</time>
      </trkpt>
      <trkpt lat="37.908695" lon="-1.126927">
        <ele>514.9</ele>
        <time>2016-04-02T10:05:32Z</time>
      </trkpt>
      <trkpt lat="37.908708" lon="-1.126893">
        <ele>515.4</ele>
        <time>2016-04-02T10:05:35Z</time>
      </trkpt>
      <trkpt lat="37.908728" lon="-1.126819">
        <ele>515.9</ele>
        <time>2016-04-02T10:05:42Z</time>
      </trkpt>
      <trkpt lat="37.908729" lon="-1.126759">
        <ele>516.4</ele>
        <time>2016-04-02T10:05:46Z</time>
      </trkpt>
      <trkpt lat="37.908770" lon="-1.126613">
        <ele>518.3</ele>
        <time>2016-04-02T10:05:58Z</time>
      </trkpt>
      <trkpt lat="37.908801" lon="-1.126526">
        <ele>517.8</ele>
        <time>2016-04-02T10:06:04Z</time>
      </trkpt>
      <trkpt lat="37.908909" lon="-1.126361">
        <ele>520.7</ele>
        <time>2016-04-02T10:06:19Z</time>
      </trkpt>
      <trkpt lat="37.909027" lon="-1.126285">
        <ele>521.7</ele>
        <time>2016-04-02T10:06:30Z</time>
      </trkpt>
      <trkpt lat="37.909043" lon="-1.126268">
        <ele>522.1</ele>
        <time>2016-04-02T10:06:32Z</time>
      </trkpt>
      <trkpt lat="37.909085" lon="-1.126250">
        <ele>522.6</ele>
        <time>2016-04-02T10:06:36Z</time>
      </trkpt>
      <trkpt lat="37.909114" lon="-1.126216">
        <ele>523.6</ele>
        <time>2016-04-02T10:06:39Z</time>
      </trkpt>
      <trkpt lat="37.909199" lon="-1.126144">
        <ele>524.5</ele>
        <time>2016-04-02T10:06:47Z</time>
      </trkpt>
      <trkpt lat="37.909247" lon="-1.126087">
        <ele>524.5</ele>
        <time>2016-04-02T10:06:57Z</time>
      </trkpt>
      <trkpt lat="37.909369" lon="-1.126004">
        <ele>525.5</ele>
        <time>2016-04-02T10:07:10Z</time>
      </trkpt>
      <trkpt lat="37.909513" lon="-1.125847">
        <ele>525.5</ele>
        <time>2016-04-02T10:07:26Z</time>
      </trkpt>
      <trkpt lat="37.909568" lon="-1.125800">
        <ele>526.0</ele>
        <time>2016-04-02T10:07:32Z</time>
      </trkpt>
      <trkpt lat="37.909581" lon="-1.125746">
        <ele>526.0</ele>
        <time>2016-04-02T10:07:37Z</time>
      </trkpt>
      <trkpt lat="37.909451" lon="-1.125712">
        <ele>529.3</ele>
        <time>2016-04-02T10:07:48Z</time>
      </trkpt>
      <trkpt lat="37.909400" lon="-1.125707">
        <ele>530.3</ele>
        <time>2016-04-02T10:07:54Z</time>
      </trkpt>
      <trkpt lat="37.909290" lon="-1.125709">
        <ele>532.7</ele>
        <time>2016-04-02T10:08:07Z</time>
      </trkpt>
      <trkpt lat="37.909258" lon="-1.125703">
        <ele>533.2</ele>
        <time>2016-04-02T10:08:11Z</time>
      </trkpt>
      <trkpt lat="37.909236" lon="-1.125707">
        <ele>533.7</ele>
        <time>2016-04-02T10:08:13Z</time>
      </trkpt>
      <trkpt lat="37.909219" lon="-1.125701">
        <ele>533.7</ele>
        <time>2016-04-02T10:08:15Z</time>
      </trkpt>
      <trkpt lat="37.909073" lon="-1.125724">
        <ele>536.5</ele>
        <time>2016-04-02T10:08:30Z</time>
      </trkpt>
      <trkpt lat="37.908976" lon="-1.125758">
        <ele>538.5</ele>
        <time>2016-04-02T10:08:40Z</time>
      </trkpt>
      <trkpt lat="37.908873" lon="-1.125862">
        <ele>539.9</ele>
        <time>2016-04-02T10:08:55Z</time>
      </trkpt>
      <trkpt lat="37.908727" lon="-1.125874">
        <ele>542.8</ele>
        <time>2016-04-02T10:09:08Z</time>
      </trkpt>
      <trkpt lat="37.908612" lon="-1.125892">
        <ele>544.7</ele>
        <time>2016-04-02T10:09:20Z</time>
      </trkpt>
      <trkpt lat="37.908519" lon="-1.125937">
        <ele>546.7</ele>
        <time>2016-04-02T10:09:30Z</time>
      </trkpt>
      <trkpt lat="37.908400" lon="-1.126041">
        <ele>548.6</ele>
        <time>2016-04-02T10:09:44Z</time>
      </trkpt>
      <trkpt lat="37.908354" lon="-1.126073">
        <ele>549.5</ele>
        <time>2016-04-02T10:09:49Z</time>
      </trkpt>
      <trkpt lat="37.908269" lon="-1.126122">
        <ele>551.0</ele>
        <time>2016-04-02T10:09:58Z</time>
      </trkpt>
      <trkpt lat="37.908234" lon="-1.126155">
        <ele>551.0</ele>
        <time>2016-04-02T10:10:05Z</time>
      </trkpt>
      <trkpt lat="37.908187" lon="-1.126116">
        <ele>551.5</ele>
        <time>2016-04-02T10:10:18Z</time>
      </trkpt>
      <trkpt lat="37.908170" lon="-1.126031">
        <ele>553.9</ele>
        <time>2016-04-02T10:10:27Z</time>
      </trkpt>
      <trkpt lat="37.908125" lon="-1.125945">
        <ele>555.3</ele>
        <time>2016-04-02T10:10:39Z</time>
      </trkpt>
      <trkpt lat="37.908068" lon="-1.125838">
        <ele>558.7</ele>
        <time>2016-04-02T10:10:51Z</time>
      </trkpt>
      <trkpt lat="37.908039" lon="-1.125717">
        <ele>559.6</ele>
        <time>2016-04-02T10:11:04Z</time>
      </trkpt>
      <trkpt lat="37.908073" lon="-1.125594">
        <ele>562.0</ele>
        <time>2016-04-02T10:11:18Z</time>
      </trkpt>
      <trkpt lat="37.908149" lon="-1.125546">
        <ele>564.4</ele>
        <time>2016-04-02T10:11:29Z</time>
      </trkpt>
      <trkpt lat="37.908221" lon="-1.125477">
        <ele>566.3</ele>
        <time>2016-04-02T10:11:41Z</time>
      </trkpt>
      <trkpt lat="37.908265" lon="-1.125433">
        <ele>567.8</ele>
        <time>2016-04-02T10:11:48Z</time>
      </trkpt>
      <trkpt lat="37.908287" lon="-1.125432">
        <ele>567.8</ele>
        <time>2016-04-02T10:11:50Z</time>
      </trkpt>
      <trkpt lat="37.908306" lon="-1.125310">
        <ele>570.2</ele>
        <time>2016-04-02T10:12:02Z</time>
      </trkpt>
      <trkpt lat="37.908341" lon="-1.125230">
        <ele>572.6</ele>
        <time>2016-04-02T10:12:13Z</time>
      </trkpt>
      <trkpt lat="37.908415" lon="-1.125139">
        <ele>575.0</ele>
        <time>2016-04-02T10:12:27Z</time>
      </trkpt>
      <trkpt lat="37.908476" lon="-1.125059">
        <ele>577.4</ele>
        <time>2016-04-02T10:12:39Z</time>
      </trkpt>
      <trkpt lat="37.908520" lon="-1.124974">
        <ele>579.8</ele>
        <time>2016-04-02T10:12:50Z</time>
      </trkpt>
      <trkpt lat="37.908574" lon="-1.124869">
        <ele>581.2</ele>
        <time>2016-04-02T10:13:03Z</time>
      </trkpt>
      <trkpt lat="37.908604" lon="-1.124800">
        <ele>583.2</ele>
        <time>2016-04-02T10:13:13Z</time>
      </trkpt>
      <trkpt lat="37.908616" lon="-1.124750">
        <ele>584.6</ele>
        <time>2016-04-02T10:13:20Z</time>
      </trkpt>
      <trkpt lat="37.908634" lon="-1.124661">
        <ele>585.6</ele>
        <time>2016-04-02T10:13:32Z</time>
      </trkpt>
      <trkpt lat="37.908662" lon="-1.124563">
        <ele>588.0</ele>
        <time>2016-04-02T10:13:44Z</time>
      </trkpt>
      <trkpt lat="37.908671" lon="-1.124459">
        <ele>588.5</ele>
        <time>2016-04-02T10:13:56Z</time>
      </trkpt>
      <trkpt lat="37.908672" lon="-1.124349">
        <ele>591.3</ele>
        <time>2016-04-02T10:14:09Z</time>
      </trkpt>
      <trkpt lat="37.908672" lon="-1.124267">
        <ele>591.8</ele>
        <time>2016-04-02T10:14:18Z</time>
      </trkpt>
      <trkpt lat="37.908670" lon="-1.124201">
        <ele>592.3</ele>
        <time>2016-04-02T10:14:24Z</time>
      </trkpt>
      <trkpt lat="37.908684" lon="-1.124069">
        <ele>594.7</ele>
        <time>2016-04-02T10:14:36Z</time>
      </trkpt>
      <trkpt lat="37.908642" lon="-1.123887">
        <ele>591.3</ele>
        <time>2016-04-02T10:14:51Z</time>
      </trkpt>
      <trkpt lat="37.908608" lon="-1.123799">
        <ele>591.3</ele>
        <time>2016-04-02T10:15:01Z</time>
      </trkpt>
      <trkpt lat="37.908592" lon="-1.123697">
        <ele>590.9</ele>
        <time>2016-04-02T10:15:11Z</time>
      </trkpt>
      <trkpt lat="37.908547" lon="-1.123626">
        <ele>588.5</ele>
        <time>2016-04-02T10:15:22Z</time>
      </trkpt>
      <trkpt lat="37.908545" lon="-1.123605">
        <ele>588.0</ele>
        <time>2016-04-02T10:15:24Z</time>
      </trkpt>
      <trkpt lat="37.908461" lon="-1.123405">
        <ele>588.0</ele>
        <time>2016-04-02T10:15:39Z</time>
      </trkpt>
      <trkpt lat="37.908414" lon="-1.123296">
        <ele>587.5</ele>
        <time>2016-04-02T10:15:47Z</time>
      </trkpt>
      <trkpt lat="37.908260" lon="-1.123134">
        <ele>586.1</ele>
        <time>2016-04-02T10:16:03Z</time>
      </trkpt>
      <trkpt lat="37.908089" lon="-1.123043">
        <ele>585.1</ele>
        <time>2016-04-02T10:16:18Z</time>
      </trkpt>
      <trkpt lat="37.907935" lon="-1.122960">
        <ele>584.6</ele>
        <time>2016-04-02T10:16:31Z</time>
      </trkpt>
      <trkpt lat="37.907949" lon="-1.122870">
        <ele>583.7</ele>
        <time>2016-04-02T10:16:38Z</time>
      </trkpt>
      <trkpt lat="37.907967" lon="-1.122825">
        <ele>583.7</ele>
        <time>2016-04-02T10:16:41Z</time>
      </trkpt>
      <trkpt lat="37.908007" lon="-1.122752">
        <ele>583.7</ele>
        <time>2016-04-02T10:16:47Z</time>
      </trkpt>
      <trkpt lat="37.908080" lon="-1.122650">
        <ele>585.1</ele>
        <time>2016-04-02T10:16:55Z</time>
      </trkpt>
      <trkpt lat="37.908099" lon="-1.122631">
        <ele>585.6</ele>
        <time>2016-04-02T10:16:57Z</time>
      </trkpt>
      <trkpt lat="37.908102" lon="-1.122601">
        <ele>585.6</ele>
        <time>2016-04-02T10:16:59Z</time>
      </trkpt>
      <trkpt lat="37.908108" lon="-1.122582">
        <ele>586.1</ele>
        <time>2016-04-02T10:17:01Z</time>
      </trkpt>
      <trkpt lat="37.908106" lon="-1.122474">
        <ele>587.0</ele>
        <time>2016-04-02T10:17:11Z</time>
      </trkpt>
      <trkpt lat="37.908140" lon="-1.122460">
        <ele>586.5</ele>
        <time>2016-04-02T10:17:14Z</time>
      </trkpt>
      <trkpt lat="37.908197" lon="-1.122379">
        <ele>588.0</ele>
        <time>2016-04-02T10:17:21Z</time>
      </trkpt>
      <trkpt lat="37.908301" lon="-1.122269">
        <ele>589.0</ele>
        <time>2016-04-02T10:17:32Z</time>
      </trkpt>
      <trkpt lat="37.908400" lon="-1.122147">
        <ele>587.5</ele>
        <time>2016-04-02T10:17:42Z</time>
      </trkpt>
      <trkpt lat="37.908410" lon="-1.122119">
        <ele>588.0</ele>
        <time>2016-04-02T10:17:44Z</time>
      </trkpt>
      <trkpt lat="37.908431" lon="-1.122063">
        <ele>589.0</ele>
        <time>2016-04-02T10:17:49Z</time>
      </trkpt>
      <trkpt lat="37.908498" lon="-1.121887">
        <ele>590.4</ele>
        <time>2016-04-02T10:18:02Z</time>
      </trkpt>
      <trkpt lat="37.908527" lon="-1.121867">
        <ele>590.4</ele>
        <time>2016-04-02T10:18:05Z</time>
      </trkpt>
      <trkpt lat="37.908536" lon="-1.121845">
        <ele>590.4</ele>
        <time>2016-04-02T10:18:07Z</time>
      </trkpt>
      <trkpt lat="37.908586" lon="-1.121799">
        <ele>591.8</ele>
        <time>2016-04-02T10:18:15Z</time>
      </trkpt>
      <trkpt lat="37.908657" lon="-1.121746">
        <ele>592.3</ele>
        <time>2016-04-02T10:18:26Z</time>
      </trkpt>
      <trkpt lat="37.908674" lon="-1.121734">
        <ele>592.8</ele>
        <time>2016-04-02T10:18:28Z</time>
      </trkpt>
      <trkpt lat="37.908688" lon="-1.121718">
        <ele>592.3</ele>
        <time>2016-04-02T10:18:30Z</time>
      </trkpt>
      <trkpt lat="37.908755" lon="-1.121677">
        <ele>594.2</ele>
        <time>2016-04-02T10:18:41Z</time>
      </trkpt>
      <trkpt lat="37.908773" lon="-1.121665">
        <ele>594.7</ele>
        <time>2016-04-02T10:18:43Z</time>
      </trkpt>
      <trkpt lat="37.908791" lon="-1.121650">
        <ele>595.2</ele>
        <time>2016-04-02T10:18:45Z</time>
      </trkpt>
      <trkpt lat="37.908862" lon="-1.121615">
        <ele>596.2</ele>
        <time>2016-04-02T10:18:56Z</time>
      </trkpt>
      <trkpt lat="37.908880" lon="-1.121605">
        <ele>596.6</ele>
        <time>2016-04-02T10:18:59Z</time>
      </trkpt>
      <trkpt lat="37.908897" lon="-1.121590">
        <ele>596.6</ele>
        <time>2016-04-02T10:19:01Z</time>
      </trkpt>
      <trkpt lat="37.908921" lon="-1.121581">
        <ele>597.1</ele>
        <time>2016-04-02T10:19:03Z</time>
      </trkpt>
      <trkpt lat="37.908978" lon="-1.121555">
        <ele>598.1</ele>
        <time>2016-04-02T10:19:09Z</time>
      </trkpt>
      <trkpt lat="37.908998" lon="-1.121548">
        <ele>598.1</ele>
        <time>2016-04-02T10:19:11Z</time>
      </trkpt>
      <trkpt lat="37.909037" lon="-1.121522">
        <ele>599.0</ele>
        <time>2016-04-02T10:19:16Z</time>
      </trkpt>
      <trkpt lat="37.909065" lon="-1.121515">
        <ele>599.5</ele>
        <time>2016-04-02T10:19:19Z</time>
      </trkpt>
      <trkpt lat="37.909227" lon="-1.121430">
        <ele>600.0</ele>
        <time>2016-04-02T10:19:34Z</time>
      </trkpt>
      <trkpt lat="37.909436" lon="-1.121254">
        <ele>598.6</ele>
        <time>2016-04-02T10:19:54Z</time>
      </trkpt>
      <trkpt lat="37.909471" lon="-1.121223">
        <ele>599.0</ele>
        <time>2016-04-02T10:19:58Z</time>
      </trkpt>
      <trkpt lat="37.909498" lon="-1.121214">
        <ele>599.0</ele>
        <time>2016-04-02T10:20:01Z</time>
      </trkpt>
      <trkpt lat="37.909654" lon="-1.121078">
        <ele>598.6</ele>
        <time>2016-04-02T10:20:18Z</time>
      </trkpt>
      <trkpt lat="37.909783" lon="-1.121031">
        <ele>597.6</ele>
        <time>2016-04-02T10:20:33Z</time>
      </trkpt>
      <trkpt lat="37.909781" lon="-1.121034">
        <ele>597.6</ele>
        <time>2016-04-02T10:20:36Z</time>
      </trkpt>
      <trkpt lat="37.909981" lon="-1.120898">
        <ele>594.7</ele>
        <time>2016-04-02T10:20:53Z</time>
      </trkpt>
      <trkpt lat="37.910027" lon="-1.120913">
        <ele>593.3</ele>
        <time>2016-04-02T10:20:58Z</time>
      </trkpt>
      <trkpt lat="37.910170" lon="-1.120813">
        <ele>591.8</ele>
        <time>2016-04-02T10:21:13Z</time>
      </trkpt>
      <trkpt lat="37.910185" lon="-1.120796">
        <ele>591.8</ele>
        <time>2016-04-02T10:21:15Z</time>
      </trkpt>
      <trkpt lat="37.910224" lon="-1.120763">
        <ele>590.9</ele>
        <time>2016-04-02T10:21:20Z</time>
      </trkpt>
      <trkpt lat="37.910254" lon="-1.120739">
        <ele>591.3</ele>
        <time>2016-04-02T10:21:23Z</time>
      </trkpt>
      <trkpt lat="37.910297" lon="-1.120710">
        <ele>591.3</ele>
        <time>2016-04-02T10:21:35Z</time>
      </trkpt>
      <trkpt lat="37.910361" lon="-1.120670">
        <ele>589.4</ele>
        <time>2016-04-02T10:21:49Z</time>
      </trkpt>
      <trkpt lat="37.910402" lon="-1.120720">
        <ele>586.5</ele>
        <time>2016-04-02T10:22:00Z</time>
      </trkpt>
      <trkpt lat="37.910508" lon="-1.120645">
        <ele>583.7</ele>
        <time>2016-04-02T10:22:12Z</time>
      </trkpt>
      <trkpt lat="37.910593" lon="-1.120584">
        <ele>581.7</ele>
        <time>2016-04-02T10:22:24Z</time>
      </trkpt>
      <trkpt lat="37.910588" lon="-1.120590">
        <ele>580.8</ele>
        <time>2016-04-02T10:22:35Z</time>
      </trkpt>
      <trkpt lat="37.910637" lon="-1.120564">
        <ele>580.3</ele>
        <time>2016-04-02T10:23:08Z</time>
      </trkpt>
      <trkpt lat="37.910674" lon="-1.120555">
        <ele>579.8</ele>
        <time>2016-04-02T10:23:23Z</time>
      </trkpt>
      <trkpt lat="37.910762" lon="-1.120408">
        <ele>577.9</ele>
        <time>2016-04-02T10:23:37Z</time>
      </trkpt>
      <trkpt lat="37.910945" lon="-1.120204">
        <ele>576.0</ele>
        <time>2016-04-02T10:23:54Z</time>
      </trkpt>
      <trkpt lat="37.911093" lon="-1.120068">
        <ele>576.0</ele>
        <time>2016-04-02T10:24:07Z</time>
      </trkpt>
      <trkpt lat="37.911142" lon="-1.120015">
        <ele>576.9</ele>
        <time>2016-04-02T10:24:12Z</time>
      </trkpt>
      <trkpt lat="37.911208" lon="-1.119980">
        <ele>579.3</ele>
        <time>2016-04-02T10:24:17Z</time>
      </trkpt>
      <trkpt lat="37.911429" lon="-1.119903">
        <ele>579.8</ele>
        <time>2016-04-02T10:24:34Z</time>
      </trkpt>
      <trkpt lat="37.911538" lon="-1.119849">
        <ele>580.8</ele>
        <time>2016-04-02T10:24:42Z</time>
      </trkpt>
      <trkpt lat="37.911588" lon="-1.119838">
        <ele>581.7</ele>
        <time>2016-04-02T10:24:46Z</time>
      </trkpt>
      <trkpt lat="37.911655" lon="-1.119813">
        <ele>583.2</ele>
        <time>2016-04-02T10:24:52Z</time>
      </trkpt>
      <trkpt lat="37.911682" lon="-1.119804">
        <ele>583.7</ele>
        <time>2016-04-02T10:24:55Z</time>
      </trkpt>
      <trkpt lat="37.911701" lon="-1.119795">
        <ele>584.1</ele>
        <time>2016-04-02T10:24:57Z</time>
      </trkpt>
      <trkpt lat="37.911718" lon="-1.119777">
        <ele>584.6</ele>
        <time>2016-04-02T10:24:59Z</time>
      </trkpt>
      <trkpt lat="37.911787" lon="-1.119780">
        <ele>586.5</ele>
        <time>2016-04-02T10:25:06Z</time>
      </trkpt>
      <trkpt lat="37.911812" lon="-1.119743">
        <ele>588.0</ele>
        <time>2016-04-02T10:25:10Z</time>
      </trkpt>
      <trkpt lat="37.911827" lon="-1.119722">
        <ele>588.5</ele>
        <time>2016-04-02T10:25:12Z</time>
      </trkpt>
      <trkpt lat="37.911859" lon="-1.119701">
        <ele>589.9</ele>
        <time>2016-04-02T10:25:16Z</time>
      </trkpt>
      <trkpt lat="37.911881" lon="-1.119676">
        <ele>590.9</ele>
        <time>2016-04-02T10:25:19Z</time>
      </trkpt>
      <trkpt lat="37.911948" lon="-1.119640">
        <ele>592.8</ele>
        <time>2016-04-02T10:25:27Z</time>
      </trkpt>
      <trkpt lat="37.912174" lon="-1.119620">
        <ele>593.3</ele>
        <time>2016-04-02T10:25:43Z</time>
      </trkpt>
      <trkpt lat="37.912219" lon="-1.119592">
        <ele>594.2</ele>
        <time>2016-04-02T10:25:47Z</time>
      </trkpt>
      <trkpt lat="37.912243" lon="-1.119579">
        <ele>594.2</ele>
        <time>2016-04-02T10:25:49Z</time>
      </trkpt>
      <trkpt lat="37.912310" lon="-1.119530">
        <ele>595.7</ele>
        <time>2016-04-02T10:25:57Z</time>
      </trkpt>
      <trkpt lat="37.912326" lon="-1.119523">
        <ele>596.2</ele>
        <time>2016-04-02T10:25:59Z</time>
      </trkpt>
      <trkpt lat="37.912427" lon="-1.119492">
        <ele>599.5</ele>
        <time>2016-04-02T10:26:12Z</time>
      </trkpt>
      <trkpt lat="37.912523" lon="-1.119445">
        <ele>602.4</ele>
        <time>2016-04-02T10:26:24Z</time>
      </trkpt>
      <trkpt lat="37.912530" lon="-1.119446">
        <ele>602.4</ele>
        <time>2016-04-02T10:26:25Z</time>
      </trkpt>
      <trkpt lat="37.912547" lon="-1.119447">
        <ele>603.4</ele>
        <time>2016-04-02T10:26:27Z</time>
      </trkpt>
      <trkpt lat="37.912565" lon="-1.119441">
        <ele>603.8</ele>
        <time>2016-04-02T10:26:29Z</time>
      </trkpt>
      <trkpt lat="37.912593" lon="-1.119472">
        <ele>604.3</ele>
        <time>2016-04-02T10:26:37Z</time>
      </trkpt>
      <trkpt lat="37.912690" lon="-1.119489">
        <ele>604.3</ele>
        <time>2016-04-02T10:26:45Z</time>
      </trkpt>
      <trkpt lat="37.912836" lon="-1.119537">
        <ele>604.3</ele>
        <time>2016-04-02T10:26:56Z</time>
      </trkpt>
      <trkpt lat="37.912951" lon="-1.119584">
        <ele>605.8</ele>
        <time>2016-04-02T10:27:06Z</time>
      </trkpt>
      <trkpt lat="37.912998" lon="-1.119581">
        <ele>606.2</ele>
        <time>2016-04-02T10:27:10Z</time>
      </trkpt>
      <trkpt lat="37.913039" lon="-1.119573">
        <ele>606.7</ele>
        <time>2016-04-02T10:29:14Z</time>
      </trkpt>
      <trkpt lat="37.913061" lon="-1.119525">
        <ele>606.2</ele>
        <time>2016-04-02T10:32:17Z</time>
      </trkpt>
      <trkpt lat="37.913173" lon="-1.119603">
        <ele>604.8</ele>
        <time>2016-04-02T10:34:08Z</time>
      </trkpt>
      <trkpt lat="37.913179" lon="-1.119668">
        <ele>604.8</ele>
        <time>2016-04-02T10:34:21Z</time>
      </trkpt>
      <trkpt lat="37.913202" lon="-1.119674">
        <ele>604.3</ele>
        <time>2016-04-02T10:34:36Z</time>
      </trkpt>
      <trkpt lat="37.913318" lon="-1.119651">
        <ele>601.9</ele>
        <time>2016-04-02T10:34:51Z</time>
      </trkpt>
      <trkpt lat="37.913449" lon="-1.119616">
        <ele>599.5</ele>
        <time>2016-04-02T10:35:07Z</time>
      </trkpt>
      <trkpt lat="37.913456" lon="-1.119612">
        <ele>599.5</ele>
        <time>2016-04-02T10:35:08Z</time>
      </trkpt>
      <trkpt lat="37.913624" lon="-1.119532">
        <ele>596.2</ele>
        <time>2016-04-02T10:35:24Z</time>
      </trkpt>
      <trkpt lat="37.913644" lon="-1.119530">
        <ele>595.2</ele>
        <time>2016-04-02T10:35:26Z</time>
      </trkpt>
      <trkpt lat="37.913680" lon="-1.119501">
        <ele>595.7</ele>
        <time>2016-04-02T10:35:30Z</time>
      </trkpt>
      <trkpt lat="37.913887" lon="-1.119448">
        <ele>592.8</ele>
        <time>2016-04-02T10:35:48Z</time>
      </trkpt>
      <trkpt lat="37.913955" lon="-1.119396">
        <ele>592.8</ele>
        <time>2016-04-02T10:35:55Z</time>
      </trkpt>
      <trkpt lat="37.914067" lon="-1.119375">
        <ele>592.3</ele>
        <time>2016-04-02T10:36:05Z</time>
      </trkpt>
      <trkpt lat="37.914075" lon="-1.119433">
        <ele>592.3</ele>
        <time>2016-04-02T10:36:10Z</time>
      </trkpt>
      <trkpt lat="37.914115" lon="-1.119425">
        <ele>592.8</ele>
        <time>2016-04-02T10:36:14Z</time>
      </trkpt>
      <trkpt lat="37.914331" lon="-1.119519">
        <ele>596.0</ele>
        <time>2016-04-02T10:36:32Z</time>
      </trkpt>
      <trkpt lat="37.914466" lon="-1.119647">
        <ele>595.0</ele>
        <time>2016-04-02T10:36:47Z</time>
      </trkpt>
      <trkpt lat="37.914475" lon="-1.119631">
        <ele>596.0</ele>
        <time>2016-04-02T10:36:57Z</time>
      </trkpt>
      <trkpt lat="37.914393" lon="-1.119527">
        <ele>596.0</ele>
        <time>2016-04-02T10:37:06Z</time>
      </trkpt>
      <trkpt lat="37.914433" lon="-1.119515">
        <ele>595.0</ele>
        <time>2016-04-02T10:38:12Z</time>
      </trkpt>
      <trkpt lat="37.914474" lon="-1.119467">
        <ele>594.0</ele>
        <time>2016-04-02T10:38:19Z</time>
      </trkpt>
      <trkpt lat="37.914516" lon="-1.119452">
        <ele>593.0</ele>
        <time>2016-04-02T10:38:24Z</time>
      </trkpt>
      <trkpt lat="37.914597" lon="-1.119444">
        <ele>590.9</ele>
        <time>2016-04-02T10:38:36Z</time>
      </trkpt>
      <trkpt lat="37.914623" lon="-1.119452">
        <ele>590.4</ele>
        <time>2016-04-02T10:38:38Z</time>
      </trkpt>
      <trkpt lat="37.914642" lon="-1.119461">
        <ele>589.9</ele>
        <time>2016-04-02T10:38:40Z</time>
      </trkpt>
      <trkpt lat="37.914664" lon="-1.119459">
        <ele>588.5</ele>
        <time>2016-04-02T10:38:42Z</time>
      </trkpt>
      <trkpt lat="37.914685" lon="-1.119452">
        <ele>588.0</ele>
        <time>2016-04-02T10:38:44Z</time>
      </trkpt>
      <trkpt lat="37.914711" lon="-1.119440">
        <ele>586.5</ele>
        <time>2016-04-02T10:38:57Z</time>
      </trkpt>
      <trkpt lat="37.914824" lon="-1.119394">
        <ele>584.6</ele>
        <time>2016-04-02T10:39:14Z</time>
      </trkpt>
      <trkpt lat="37.914898" lon="-1.119373">
        <ele>583.7</ele>
        <time>2016-04-02T10:39:20Z</time>
      </trkpt>
      <trkpt lat="37.914948" lon="-1.119373">
        <ele>583.2</ele>
        <time>2016-04-02T10:39:24Z</time>
      </trkpt>
      <trkpt lat="37.915214" lon="-1.119329">
        <ele>580.8</ele>
        <time>2016-04-02T10:39:43Z</time>
      </trkpt>
      <trkpt lat="37.915429" lon="-1.119307">
        <ele>577.9</ele>
        <time>2016-04-02T10:40:00Z</time>
      </trkpt>
      <trkpt lat="37.915501" lon="-1.119297">
        <ele>576.0</ele>
        <time>2016-04-02T10:40:06Z</time>
      </trkpt>
      <trkpt lat="37.915587" lon="-1.119266">
        <ele>574.0</ele>
        <time>2016-04-02T10:40:13Z</time>
      </trkpt>
      <trkpt lat="37.915667" lon="-1.119253">
        <ele>573.1</ele>
        <time>2016-04-02T10:40:19Z</time>
      </trkpt>
      <trkpt lat="37.915779" lon="-1.119247">
        <ele>573.1</ele>
        <time>2016-04-02T10:40:28Z</time>
      </trkpt>
      <trkpt lat="37.915825" lon="-1.119199">
        <ele>572.1</ele>
        <time>2016-04-02T10:40:32Z</time>
      </trkpt>
      <trkpt lat="37.915986" lon="-1.119143">
        <ele>572.1</ele>
        <time>2016-04-02T10:40:47Z</time>
      </trkpt>
      <trkpt lat="37.916029" lon="-1.119119">
        <ele>572.1</ele>
        <time>2016-04-02T10:40:51Z</time>
      </trkpt>
      <trkpt lat="37.916076" lon="-1.119109">
        <ele>571.6</ele>
        <time>2016-04-02T10:40:55Z</time>
      </trkpt>
      <trkpt lat="37.916186" lon="-1.119081">
        <ele>571.2</ele>
        <time>2016-04-02T10:41:07Z</time>
      </trkpt>
      <trkpt lat="37.916394" lon="-1.118951">
        <ele>569.7</ele>
        <time>2016-04-02T10:41:23Z</time>
      </trkpt>
      <trkpt lat="37.916489" lon="-1.118903">
        <ele>568.3</ele>
        <time>2016-04-02T10:41:36Z</time>
      </trkpt>
      <trkpt lat="37.916504" lon="-1.118897">
        <ele>568.3</ele>
        <time>2016-04-02T10:41:38Z</time>
      </trkpt>
      <trkpt lat="37.916582" lon="-1.118904">
        <ele>565.9</ele>
        <time>2016-04-02T10:41:47Z</time>
      </trkpt>
      <trkpt lat="37.916663" lon="-1.118861">
        <ele>564.9</ele>
        <time>2016-04-02T10:41:58Z</time>
      </trkpt>
      <trkpt lat="37.916678" lon="-1.118843">
        <ele>564.4</ele>
        <time>2016-04-02T10:42:00Z</time>
      </trkpt>
      <trkpt lat="37.916726" lon="-1.118809">
        <ele>563.0</ele>
        <time>2016-04-02T10:42:06Z</time>
      </trkpt>
      <trkpt lat="37.916779" lon="-1.118774">
        <ele>561.1</ele>
        <time>2016-04-02T10:42:18Z</time>
      </trkpt>
      <trkpt lat="37.916839" lon="-1.118744">
        <ele>558.7</ele>
        <time>2016-04-02T10:42:29Z</time>
      </trkpt>
      <trkpt lat="37.916885" lon="-1.118732">
        <ele>557.2</ele>
        <time>2016-04-02T10:42:42Z</time>
      </trkpt>
      <trkpt lat="37.916907" lon="-1.118702">
        <ele>556.3</ele>
        <time>2016-04-02T10:42:50Z</time>
      </trkpt>
      <trkpt lat="37.916944" lon="-1.118735">
        <ele>554.8</ele>
        <time>2016-04-02T10:43:00Z</time>
      </trkpt>
      <trkpt lat="37.917024" lon="-1.118694">
        <ele>552.4</ele>
        <time>2016-04-02T10:43:10Z</time>
      </trkpt>
      <trkpt lat="37.917063" lon="-1.118620">
        <ele>549.5</ele>
        <time>2016-04-02T10:43:22Z</time>
      </trkpt>
      <trkpt lat="37.917101" lon="-1.118628">
        <ele>548.1</ele>
        <time>2016-04-02T10:43:32Z</time>
      </trkpt>
      <trkpt lat="37.917108" lon="-1.118623">
        <ele>548.1</ele>
        <time>2016-04-02T10:43:39Z</time>
      </trkpt>
      <trkpt lat="37.917139" lon="-1.118603">
        <ele>546.7</ele>
        <time>2016-04-02T10:43:43Z</time>
      </trkpt>
      <trkpt lat="37.917184" lon="-1.118589">
        <ele>545.7</ele>
        <time>2016-04-02T10:43:52Z</time>
      </trkpt>
      <trkpt lat="37.917196" lon="-1.118539">
        <ele>544.2</ele>
        <time>2016-04-02T10:43:58Z</time>
      </trkpt>
      <trkpt lat="37.917219" lon="-1.118503">
        <ele>542.3</ele>
        <time>2016-04-02T10:44:06Z</time>
      </trkpt>
      <trkpt lat="37.917310" lon="-1.118488">
        <ele>539.4</ele>
        <time>2016-04-02T10:44:19Z</time>
      </trkpt>
      <trkpt lat="37.917346" lon="-1.118488">
        <ele>538.5</ele>
        <time>2016-04-02T10:44:25Z</time>
      </trkpt>
      <trkpt lat="37.917436" lon="-1.118496">
        <ele>535.1</ele>
        <time>2016-04-02T10:44:39Z</time>
      </trkpt>
      <trkpt lat="37.917479" lon="-1.118547">
        <ele>534.2</ele>
        <time>2016-04-02T10:44:49Z</time>
      </trkpt>
      <trkpt lat="37.917526" lon="-1.118547">
        <ele>533.2</ele>
        <time>2016-04-02T10:45:01Z</time>
      </trkpt>
      <trkpt lat="37.917529" lon="-1.118612">
        <ele>532.2</ele>
        <time>2016-04-02T10:45:12Z</time>
      </trkpt>
      <trkpt lat="37.917563" lon="-1.118664">
        <ele>529.8</ele>
        <time>2016-04-02T10:45:25Z</time>
      </trkpt>
      <trkpt lat="37.917583" lon="-1.118673">
        <ele>529.8</ele>
        <time>2016-04-02T10:45:29Z</time>
      </trkpt>
      <trkpt lat="37.917628" lon="-1.118698">
        <ele>527.4</ele>
        <time>2016-04-02T10:45:36Z</time>
      </trkpt>
      <trkpt lat="37.917657" lon="-1.118772">
        <ele>524.1</ele>
        <time>2016-04-02T10:45:45Z</time>
      </trkpt>
      <trkpt lat="37.917710" lon="-1.118789">
        <ele>523.1</ele>
        <time>2016-04-02T10:45:57Z</time>
      </trkpt>
      <trkpt lat="37.917788" lon="-1.118807">
        <ele>519.7</ele>
        <time>2016-04-02T10:46:11Z</time>
      </trkpt>
      <trkpt lat="37.917854" lon="-1.118840">
        <ele>516.8</ele>
        <time>2016-04-02T10:46:25Z</time>
      </trkpt>
      <trkpt lat="37.917924" lon="-1.118830">
        <ele>514.9</ele>
        <time>2016-04-02T10:46:37Z</time>
      </trkpt>
      <trkpt lat="37.917993" lon="-1.118859">
        <ele>512.5</ele>
        <time>2016-04-02T10:46:50Z</time>
      </trkpt>
      <trkpt lat="37.918072" lon="-1.118838">
        <ele>510.1</ele>
        <time>2016-04-02T10:47:02Z</time>
      </trkpt>
      <trkpt lat="37.918185" lon="-1.118863">
        <ele>506.8</ele>
        <time>2016-04-02T10:47:17Z</time>
      </trkpt>
      <trkpt lat="37.918251" lon="-1.118897">
        <ele>505.8</ele>
        <time>2016-04-02T10:47:26Z</time>
      </trkpt>
      <trkpt lat="37.918340" lon="-1.118933">
        <ele>503.9</ele>
        <time>2016-04-02T10:47:39Z</time>
      </trkpt>
      <trkpt lat="37.918388" lon="-1.118946">
        <ele>503.4</ele>
        <time>2016-04-02T10:47:51Z</time>
      </trkpt>
      <trkpt lat="37.918425" lon="-1.118960">
        <ele>502.4</ele>
        <time>2016-04-02T10:48:06Z</time>
      </trkpt>
      <trkpt lat="37.918493" lon="-1.119054">
        <ele>500.0</ele>
        <time>2016-04-02T10:48:14Z</time>
      </trkpt>
      <trkpt lat="37.918552" lon="-1.119228">
        <ele>497.6</ele>
        <time>2016-04-02T10:48:26Z</time>
      </trkpt>
      <trkpt lat="37.918672" lon="-1.119446">
        <ele>495.7</ele>
        <time>2016-04-02T10:48:41Z</time>
      </trkpt>
      <trkpt lat="37.918753" lon="-1.119584">
        <ele>495.7</ele>
        <time>2016-04-02T10:48:51Z</time>
      </trkpt>
      <trkpt lat="37.918753" lon="-1.119735">
        <ele>494.3</ele>
        <time>2016-04-02T10:49:00Z</time>
      </trkpt>
      <trkpt lat="37.918705" lon="-1.119798">
        <ele>493.8</ele>
        <time>2016-04-02T10:49:05Z</time>
      </trkpt>
      <trkpt lat="37.918623" lon="-1.119980">
        <ele>491.9</ele>
        <time>2016-04-02T10:49:20Z</time>
      </trkpt>
      <trkpt lat="37.918641" lon="-1.120071">
        <ele>492.8</ele>
        <time>2016-04-02T10:49:27Z</time>
      </trkpt>
      <trkpt lat="37.918651" lon="-1.120156">
        <ele>492.8</ele>
        <time>2016-04-02T10:49:32Z</time>
      </trkpt>
      <trkpt lat="37.918682" lon="-1.120268">
        <ele>492.8</ele>
        <time>2016-04-02T10:49:39Z</time>
      </trkpt>
      <trkpt lat="37.918797" lon="-1.120491">
        <ele>492.3</ele>
        <time>2016-04-02T10:49:55Z</time>
      </trkpt>
      <trkpt lat="37.918945" lon="-1.120709">
        <ele>489.9</ele>
        <time>2016-04-02T10:50:12Z</time>
      </trkpt>
      <trkpt lat="37.918993" lon="-1.120754">
        <ele>488.5</ele>
        <time>2016-04-02T10:50:17Z</time>
      </trkpt>
      <trkpt lat="37.919102" lon="-1.120961">
        <ele>485.1</ele>
        <time>2016-04-02T10:50:34Z</time>
      </trkpt>
      <trkpt lat="37.919125" lon="-1.121138">
        <ele>484.2</ele>
        <time>2016-04-02T10:50:46Z</time>
      </trkpt>
      <trkpt lat="37.919194" lon="-1.121381">
        <ele>481.3</ele>
        <time>2016-04-02T10:51:04Z</time>
      </trkpt>
      <trkpt lat="37.919245" lon="-1.121491">
        <ele>480.3</ele>
        <time>2016-04-02T10:51:19Z</time>
      </trkpt>
      <trkpt lat="37.919321" lon="-1.121662">
        <ele>477.9</ele>
        <time>2016-04-02T10:51:33Z</time>
      </trkpt>
      <trkpt lat="37.919374" lon="-1.121822">
        <ele>475.5</ele>
        <time>2016-04-02T10:51:49Z</time>
      </trkpt>
      <trkpt lat="37.919413" lon="-1.121979">
        <ele>474.1</ele>
        <time>2016-04-02T10:52:01Z</time>
      </trkpt>
      <trkpt lat="37.919481" lon="-1.122169">
        <ele>471.7</ele>
        <time>2016-04-02T10:52:15Z</time>
      </trkpt>
      <trkpt lat="37.919645" lon="-1.122239">
        <ele>470.2</ele>
        <time>2016-04-02T10:52:30Z</time>
      </trkpt>
      <trkpt lat="37.919817" lon="-1.122311">
        <ele>467.8</ele>
        <time>2016-04-02T10:52:44Z</time>
      </trkpt>
      <trkpt lat="37.920028" lon="-1.122388">
        <ele>465.9</ele>
        <time>2016-04-02T10:53:01Z</time>
      </trkpt>
      <trkpt lat="37.920243" lon="-1.122370">
        <ele>464.5</ele>
        <time>2016-04-02T10:53:18Z</time>
      </trkpt>
      <trkpt lat="37.920417" lon="-1.122399">
        <ele>462.5</ele>
        <time>2016-04-02T10:53:34Z</time>
      </trkpt>
      <trkpt lat="37.920555" lon="-1.122482">
        <ele>461.1</ele>
        <time>2016-04-02T10:53:46Z</time>
      </trkpt>
      <trkpt lat="37.920721" lon="-1.122623">
        <ele>457.7</ele>
        <time>2016-04-02T10:54:01Z</time>
      </trkpt>
      <trkpt lat="37.920912" lon="-1.122729">
        <ele>456.8</ele>
        <time>2016-04-02T10:54:18Z</time>
      </trkpt>
      <trkpt lat="37.920944" lon="-1.122741">
        <ele>455.8</ele>
        <time>2016-04-02T10:54:21Z</time>
      </trkpt>
      <trkpt lat="37.920980" lon="-1.122770">
        <ele>455.3</ele>
        <time>2016-04-02T10:54:25Z</time>
      </trkpt>
      <trkpt lat="37.921152" lon="-1.122770">
        <ele>453.9</ele>
        <time>2016-04-02T10:54:43Z</time>
      </trkpt>
      <trkpt lat="37.921164" lon="-1.122770">
        <ele>453.9</ele>
        <time>2016-04-02T10:54:44Z</time>
      </trkpt>
      <trkpt lat="37.921221" lon="-1.122804">
        <ele>452.9</ele>
        <time>2016-04-02T10:54:49Z</time>
      </trkpt>
      <trkpt lat="37.921308" lon="-1.122812">
        <ele>452.4</ele>
        <time>2016-04-02T10:54:59Z</time>
      </trkpt>
      <trkpt lat="37.921328" lon="-1.122818">
        <ele>452.4</ele>
        <time>2016-04-02T10:55:01Z</time>
      </trkpt>
      <trkpt lat="37.921357" lon="-1.122834">
        <ele>452.0</ele>
        <time>2016-04-02T10:55:04Z</time>
      </trkpt>
      <trkpt lat="37.921482" lon="-1.122878">
        <ele>451.0</ele>
        <time>2016-04-02T10:55:19Z</time>
      </trkpt>
      <trkpt lat="37.921629" lon="-1.122992">
        <ele>448.6</ele>
        <time>2016-04-02T10:55:34Z</time>
      </trkpt>
      <trkpt lat="37.921731" lon="-1.123120">
        <ele>447.6</ele>
        <time>2016-04-02T10:55:48Z</time>
      </trkpt>
      <trkpt lat="37.921748" lon="-1.123150">
        <ele>447.6</ele>
        <time>2016-04-02T10:55:50Z</time>
      </trkpt>
      <trkpt lat="37.921859" lon="-1.123252">
        <ele>446.2</ele>
        <time>2016-04-02T10:56:06Z</time>
      </trkpt>
      <trkpt lat="37.921960" lon="-1.123355">
        <ele>444.8</ele>
        <time>2016-04-02T10:56:19Z</time>
      </trkpt>
      <trkpt lat="37.922050" lon="-1.123452">
        <ele>443.3</ele>
        <time>2016-04-02T10:56:29Z</time>
      </trkpt>
      <trkpt lat="37.922179" lon="-1.123580">
        <ele>442.3</ele>
        <time>2016-04-02T10:56:44Z</time>
      </trkpt>
      <trkpt lat="37.922241" lon="-1.123637">
        <ele>440.4</ele>
        <time>2016-04-02T10:56:55Z</time>
      </trkpt>
      <trkpt lat="37.922297" lon="-1.123692">
        <ele>439.9</ele>
        <time>2016-04-02T10:57:02Z</time>
      </trkpt>
      <trkpt lat="37.922318" lon="-1.123729">
        <ele>439.9</ele>
        <time>2016-04-02T10:57:05Z</time>
      </trkpt>
      <trkpt lat="37.922341" lon="-1.123749">
        <ele>439.5</ele>
        <time>2016-04-02T10:57:08Z</time>
      </trkpt>
      <trkpt lat="37.922429" lon="-1.123932">
        <ele>437.1</ele>
        <time>2016-04-02T10:57:24Z</time>
      </trkpt>
      <trkpt lat="37.922435" lon="-1.123941">
        <ele>437.1</ele>
        <time>2016-04-02T10:57:25Z</time>
      </trkpt>
      <trkpt lat="37.922462" lon="-1.123979">
        <ele>436.6</ele>
        <time>2016-04-02T10:57:29Z</time>
      </trkpt>
      <trkpt lat="37.922528" lon="-1.124135">
        <ele>435.1</ele>
        <time>2016-04-02T10:57:42Z</time>
      </trkpt>
      <trkpt lat="37.922551" lon="-1.124199">
        <ele>434.6</ele>
        <time>2016-04-02T10:57:49Z</time>
      </trkpt>
      <trkpt lat="37.922570" lon="-1.124200">
        <ele>432.7</ele>
        <time>2016-04-02T10:58:02Z</time>
      </trkpt>
      <trkpt lat="37.922554" lon="-1.124198">
        <ele>433.7</ele>
        <time>2016-04-02T10:58:27Z</time>
      </trkpt>
      <trkpt lat="37.922559" lon="-1.124212">
        <ele>434.2</ele>
        <time>2016-04-02T10:58:40Z</time>
      </trkpt>
      <trkpt lat="37.922607" lon="-1.124247">
        <ele>434.2</ele>
        <time>2016-04-02T10:58:50Z</time>
      </trkpt>
      <trkpt lat="37.922618" lon="-1.124254">
        <ele>433.2</ele>
        <time>2016-04-02T10:59:06Z</time>
      </trkpt>
      <trkpt lat="37.922654" lon="-1.124335">
        <ele>432.7</ele>
        <time>2016-04-02T10:59:15Z</time>
      </trkpt>
      <trkpt lat="37.922672" lon="-1.124367">
        <ele>432.2</ele>
        <time>2016-04-02T10:59:18Z</time>
      </trkpt>
      <trkpt lat="37.922706" lon="-1.124458">
        <ele>431.8</ele>
        <time>2016-04-02T10:59:31Z</time>
      </trkpt>
      <trkpt lat="37.922705" lon="-1.124486">
        <ele>431.8</ele>
        <time>2016-04-02T10:59:35Z</time>
      </trkpt>
      <trkpt lat="37.922700" lon="-1.124591">
        <ele>430.8</ele>
        <time>2016-04-02T10:59:45Z</time>
      </trkpt>
      <trkpt lat="37.922696" lon="-1.124629">
        <ele>429.9</ele>
        <time>2016-04-02T10:59:48Z</time>
      </trkpt>
      <trkpt lat="37.922643" lon="-1.124804">
        <ele>428.9</ele>
        <time>2016-04-02T11:00:02Z</time>
      </trkpt>
      <trkpt lat="37.922619" lon="-1.124942">
        <ele>427.4</ele>
        <time>2016-04-02T11:00:12Z</time>
      </trkpt>
      <trkpt lat="37.922685" lon="-1.125142">
        <ele>426.5</ele>
        <time>2016-04-02T11:00:27Z</time>
      </trkpt>
      <trkpt lat="37.922744" lon="-1.125225">
        <ele>426.0</ele>
        <time>2016-04-02T11:00:35Z</time>
      </trkpt>
      <trkpt lat="37.922775" lon="-1.125277">
        <ele>425.0</ele>
        <time>2016-04-02T11:00:39Z</time>
      </trkpt>
      <trkpt lat="37.922813" lon="-1.125344">
        <ele>424.1</ele>
        <time>2016-04-02T11:00:43Z</time>
      </trkpt>
      <trkpt lat="37.922836" lon="-1.125406">
        <ele>423.1</ele>
        <time>2016-04-02T11:00:47Z</time>
      </trkpt>
      <trkpt lat="37.922850" lon="-1.125478">
        <ele>422.2</ele>
        <time>2016-04-02T11:00:51Z</time>
      </trkpt>
      <trkpt lat="37.922833" lon="-1.125685">
        <ele>419.8</ele>
        <time>2016-04-02T11:01:04Z</time>
      </trkpt>
      <trkpt lat="37.922818" lon="-1.125732">
        <ele>419.8</ele>
        <time>2016-04-02T11:01:07Z</time>
      </trkpt>
      <trkpt lat="37.922759" lon="-1.125921">
        <ele>417.4</ele>
        <time>2016-04-02T11:01:20Z</time>
      </trkpt>
      <trkpt lat="37.922705" lon="-1.126039">
        <ele>415.9</ele>
        <time>2016-04-02T11:01:28Z</time>
      </trkpt>
      <trkpt lat="37.922640" lon="-1.126171">
        <ele>415.0</ele>
        <time>2016-04-02T11:01:36Z</time>
      </trkpt>
      <trkpt lat="37.922636" lon="-1.126226">
        <ele>413.0</ele>
        <time>2016-04-02T11:01:41Z</time>
      </trkpt>
      <trkpt lat="37.922732" lon="-1.126178">
        <ele>412.1</ele>
        <time>2016-04-02T11:01:49Z</time>
      </trkpt>
      <trkpt lat="37.922917" lon="-1.126066">
        <ele>409.7</ele>
        <time>2016-04-02T11:02:04Z</time>
      </trkpt>
      <trkpt lat="37.923104" lon="-1.125939">
        <ele>407.7</ele>
        <time>2016-04-02T11:02:19Z</time>
      </trkpt>
      <trkpt lat="37.923204" lon="-1.125851">
        <ele>405.8</ele>
        <time>2016-04-02T11:02:29Z</time>
      </trkpt>
      <trkpt lat="37.923348" lon="-1.125738">
        <ele>404.9</ele>
        <time>2016-04-02T11:02:59Z</time>
      </trkpt>
      <trkpt lat="37.923414" lon="-1.125753">
        <ele>402.5</ele>
        <time>2016-04-02T11:03:06Z</time>
      </trkpt>
      <trkpt lat="37.923434" lon="-1.125742">
        <ele>401.5</ele>
        <time>2016-04-02T11:03:08Z</time>
      </trkpt>
      <trkpt lat="37.923518" lon="-1.125719">
        <ele>399.6</ele>
        <time>2016-04-02T11:03:15Z</time>
      </trkpt>
      <trkpt lat="37.923542" lon="-1.125716">
        <ele>398.6</ele>
        <time>2016-04-02T11:03:17Z</time>
      </trkpt>
      <trkpt lat="37.923563" lon="-1.125696">
        <ele>399.1</ele>
        <time>2016-04-02T11:03:19Z</time>
      </trkpt>
      <trkpt lat="37.923619" lon="-1.125611">
        <ele>398.6</ele>
        <time>2016-04-02T11:03:25Z</time>
      </trkpt>
      <trkpt lat="37.923754" lon="-1.125428">
        <ele>397.2</ele>
        <time>2016-04-02T11:03:40Z</time>
      </trkpt>
      <trkpt lat="37.923916" lon="-1.125352">
        <ele>396.2</ele>
        <time>2016-04-02T11:03:54Z</time>
      </trkpt>
      <trkpt lat="37.924000" lon="-1.125384">
        <ele>394.8</ele>
        <time>2016-04-02T11:04:00Z</time>
      </trkpt>
      <trkpt lat="37.924013" lon="-1.125389">
        <ele>394.8</ele>
        <time>2016-04-02T11:04:01Z</time>
      </trkpt>
      <trkpt lat="37.924055" lon="-1.125417">
        <ele>394.3</ele>
        <time>2016-04-02T11:04:12Z</time>
      </trkpt>
      <trkpt lat="37.924211" lon="-1.125475">
        <ele>391.4</ele>
        <time>2016-04-02T11:04:27Z</time>
      </trkpt>
      <trkpt lat="37.924409" lon="-1.125563">
        <ele>389.0</ele>
        <time>2016-04-02T11:04:43Z</time>
      </trkpt>
      <trkpt lat="37.924553" lon="-1.125643">
        <ele>387.5</ele>
        <time>2016-04-02T11:04:57Z</time>
      </trkpt>
      <trkpt lat="37.924650" lon="-1.125619">
        <ele>385.6</ele>
        <time>2016-04-02T11:05:06Z</time>
      </trkpt>
      <trkpt lat="37.924812" lon="-1.125560">
        <ele>384.2</ele>
        <time>2016-04-02T11:05:19Z</time>
      </trkpt>
      <trkpt lat="37.924968" lon="-1.125482">
        <ele>383.2</ele>
        <time>2016-04-02T11:05:34Z</time>
      </trkpt>
      <trkpt lat="37.925132" lon="-1.125360">
        <ele>380.8</ele>
        <time>2016-04-02T11:05:50Z</time>
      </trkpt>
      <trkpt lat="37.925256" lon="-1.125249">
        <ele>379.9</ele>
        <time>2016-04-02T11:06:03Z</time>
      </trkpt>
      <trkpt lat="37.925326" lon="-1.125067">
        <ele>377.9</ele>
        <time>2016-04-02T11:06:18Z</time>
      </trkpt>
      <trkpt lat="37.925356" lon="-1.125021">
        <ele>377.5</ele>
        <time>2016-04-02T11:06:22Z</time>
      </trkpt>
      <trkpt lat="37.925407" lon="-1.124849">
        <ele>375.0</ele>
        <time>2016-04-02T11:06:36Z</time>
      </trkpt>
      <trkpt lat="37.925433" lon="-1.124768">
        <ele>374.6</ele>
        <time>2016-04-02T11:06:41Z</time>
      </trkpt>
      <trkpt lat="37.925457" lon="-1.124747">
        <ele>374.6</ele>
        <time>2016-04-02T11:06:43Z</time>
      </trkpt>
      <trkpt lat="37.925503" lon="-1.124953">
        <ele>372.2</ele>
        <time>2016-04-02T11:06:58Z</time>
      </trkpt>
      <trkpt lat="37.925453" lon="-1.125103">
        <ele>371.2</ele>
        <time>2016-04-02T11:07:11Z</time>
      </trkpt>
      <trkpt lat="37.925384" lon="-1.125334">
        <ele>370.2</ele>
        <time>2016-04-02T11:07:27Z</time>
      </trkpt>
      <trkpt lat="37.925329" lon="-1.125507">
        <ele>367.8</ele>
        <time>2016-04-02T11:07:45Z</time>
      </trkpt>
      <trkpt lat="37.925402" lon="-1.125401">
        <ele>366.9</ele>
        <time>2016-04-02T11:07:55Z</time>
      </trkpt>
      <trkpt lat="37.925532" lon="-1.125245">
        <ele>365.0</ele>
        <time>2016-04-02T11:08:10Z</time>
      </trkpt>
      <trkpt lat="37.925684" lon="-1.125151">
        <ele>363.0</ele>
        <time>2016-04-02T11:08:26Z</time>
      </trkpt>
      <trkpt lat="37.925837" lon="-1.125044">
        <ele>360.6</ele>
        <time>2016-04-02T11:08:42Z</time>
      </trkpt>
      <trkpt lat="37.925847" lon="-1.125037">
        <ele>360.6</ele>
        <time>2016-04-02T11:08:43Z</time>
      </trkpt>
      <trkpt lat="37.925898" lon="-1.124897">
        <ele>359.2</ele>
        <time>2016-04-02T11:08:56Z</time>
      </trkpt>
      <trkpt lat="37.925903" lon="-1.124830">
        <ele>358.7</ele>
        <time>2016-04-02T11:09:01Z</time>
      </trkpt>
      <trkpt lat="37.925856" lon="-1.124680">
        <ele>358.2</ele>
        <time>2016-04-02T11:09:13Z</time>
      </trkpt>
      <trkpt lat="37.925898" lon="-1.124660">
        <ele>356.8</ele>
        <time>2016-04-02T11:09:24Z</time>
      </trkpt>
      <trkpt lat="37.925903" lon="-1.124665">
        <ele>356.3</ele>
        <time>2016-04-02T11:09:34Z</time>
      </trkpt>
      <trkpt lat="37.925962" lon="-1.124680">
        <ele>355.3</ele>
        <time>2016-04-02T11:09:40Z</time>
      </trkpt>
      <trkpt lat="37.926043" lon="-1.124862">
        <ele>353.4</ele>
        <time>2016-04-02T11:09:54Z</time>
      </trkpt>
      <trkpt lat="37.926114" lon="-1.125003">
        <ele>352.0</ele>
        <time>2016-04-02T11:10:05Z</time>
      </trkpt>
      <trkpt lat="37.926157" lon="-1.125008">
        <ele>352.0</ele>
        <time>2016-04-02T11:10:14Z</time>
      </trkpt>
      <trkpt lat="37.926145" lon="-1.124904">
        <ele>351.0</ele>
        <time>2016-04-02T11:10:26Z</time>
      </trkpt>
      <trkpt lat="37.926125" lon="-1.124713">
        <ele>349.1</ele>
        <time>2016-04-02T11:10:41Z</time>
      </trkpt>
      <trkpt lat="37.926092" lon="-1.124620">
        <ele>349.1</ele>
        <time>2016-04-02T11:10:48Z</time>
      </trkpt>
      <trkpt lat="37.926088" lon="-1.124542">
        <ele>348.6</ele>
        <time>2016-04-02T11:10:56Z</time>
      </trkpt>
      <trkpt lat="37.926114" lon="-1.124379">
        <ele>347.2</ele>
        <time>2016-04-02T11:11:07Z</time>
      </trkpt>
      <trkpt lat="37.926167" lon="-1.124243">
        <ele>346.2</ele>
        <time>2016-04-02T11:11:16Z</time>
      </trkpt>
      <trkpt lat="37.926228" lon="-1.124135">
        <ele>344.3</ele>
        <time>2016-04-02T11:11:25Z</time>
      </trkpt>
      <trkpt lat="37.926292" lon="-1.124039">
        <ele>343.3</ele>
        <time>2016-04-02T11:11:33Z</time>
      </trkpt>
      <trkpt lat="37.926317" lon="-1.124002">
        <ele>342.9</ele>
        <time>2016-04-02T11:11:36Z</time>
      </trkpt>
      <trkpt lat="37.926363" lon="-1.123929">
        <ele>342.4</ele>
        <time>2016-04-02T11:11:42Z</time>
      </trkpt>
      <trkpt lat="37.926439" lon="-1.123722">
        <ele>340.4</ele>
        <time>2016-04-02T11:11:56Z</time>
      </trkpt>
      <trkpt lat="37.926472" lon="-1.123600">
        <ele>340.0</ele>
        <time>2016-04-02T11:12:04Z</time>
      </trkpt>
      <trkpt lat="37.926590" lon="-1.123557">
        <ele>340.4</ele>
        <time>2016-04-02T11:12:14Z</time>
      </trkpt>
      <trkpt lat="37.926759" lon="-1.123635">
        <ele>341.9</ele>
        <time>2016-04-02T11:12:28Z</time>
      </trkpt>
      <trkpt lat="37.926893" lon="-1.123640">
        <ele>342.4</ele>
        <time>2016-04-02T11:12:38Z</time>
      </trkpt>
      <trkpt lat="37.926972" lon="-1.123619">
        <ele>342.9</ele>
        <time>2016-04-02T11:12:44Z</time>
      </trkpt>
      <trkpt lat="37.927034" lon="-1.123566">
        <ele>342.9</ele>
        <time>2016-04-02T11:12:50Z</time>
      </trkpt>
      <trkpt lat="37.927062" lon="-1.123532">
        <ele>342.9</ele>
        <time>2016-04-02T11:12:53Z</time>
      </trkpt>
      <trkpt lat="37.927119" lon="-1.123431">
        <ele>343.8</ele>
        <time>2016-04-02T11:13:01Z</time>
      </trkpt>
      <trkpt lat="37.927159" lon="-1.123329">
        <ele>343.8</ele>
        <time>2016-04-02T11:13:08Z</time>
      </trkpt>
      <trkpt lat="37.927167" lon="-1.123300">
        <ele>343.8</ele>
        <time>2016-04-02T11:13:10Z</time>
      </trkpt>
      <trkpt lat="37.927143" lon="-1.123083">
        <ele>344.3</ele>
        <time>2016-04-02T11:13:25Z</time>
      </trkpt>
      <trkpt lat="37.927123" lon="-1.123040">
        <ele>344.3</ele>
        <time>2016-04-02T11:13:29Z</time>
      </trkpt>
      <trkpt lat="37.927021" lon="-1.122821">
        <ele>343.3</ele>
        <time>2016-04-02T11:13:45Z</time>
      </trkpt>
      <trkpt lat="37.927013" lon="-1.122812">
        <ele>343.3</ele>
        <time>2016-04-02T11:13:51Z</time>
      </trkpt>
      <trkpt lat="37.926970" lon="-1.122687">
        <ele>343.8</ele>
        <time>2016-04-02T11:14:01Z</time>
      </trkpt>
      <trkpt lat="37.926893" lon="-1.122459">
        <ele>343.8</ele>
        <time>2016-04-02T11:14:18Z</time>
      </trkpt>
      <trkpt lat="37.926898" lon="-1.122426">
        <ele>343.3</ele>
        <time>2016-04-02T11:14:20Z</time>
      </trkpt>
      <trkpt lat="37.926967" lon="-1.122347">
        <ele>340.9</ele>
        <time>2016-04-02T11:14:31Z</time>
      </trkpt>
      <trkpt lat="37.927028" lon="-1.122299">
        <ele>340.0</ele>
        <time>2016-04-02T11:14:38Z</time>
      </trkpt>
      <trkpt lat="37.927169" lon="-1.122178">
        <ele>337.6</ele>
        <time>2016-04-02T11:14:53Z</time>
      </trkpt>
      <trkpt lat="37.927306" lon="-1.122152">
        <ele>335.2</ele>
        <time>2016-04-02T11:15:08Z</time>
      </trkpt>
      <trkpt lat="37.927314" lon="-1.122151">
        <ele>335.6</ele>
        <time>2016-04-02T11:15:09Z</time>
      </trkpt>
      <trkpt lat="37.927397" lon="-1.122156">
        <ele>332.8</ele>
        <time>2016-04-02T11:15:23Z</time>
      </trkpt>
      <trkpt lat="37.927437" lon="-1.122137">
        <ele>332.3</ele>
        <time>2016-04-02T11:15:33Z</time>
      </trkpt>
      <trkpt lat="37.927602" lon="-1.122046">
        <ele>329.9</ele>
        <time>2016-04-02T11:15:49Z</time>
      </trkpt>
      <trkpt lat="37.927684" lon="-1.121952">
        <ele>328.4</ele>
        <time>2016-04-02T11:16:04Z</time>
      </trkpt>
      <trkpt lat="37.927708" lon="-1.121930">
        <ele>327.5</ele>
        <time>2016-04-02T11:16:08Z</time>
      </trkpt>
      <trkpt lat="37.927873" lon="-1.121814">
        <ele>324.6</ele>
        <time>2016-04-02T11:16:23Z</time>
      </trkpt>
      <trkpt lat="37.928007" lon="-1.121626">
        <ele>322.2</ele>
        <time>2016-04-02T11:16:38Z</time>
      </trkpt>
      <trkpt lat="37.928009" lon="-1.121591">
        <ele>321.7</ele>
        <time>2016-04-02T11:16:40Z</time>
      </trkpt>
      <trkpt lat="37.928004" lon="-1.121519">
        <ele>320.7</ele>
        <time>2016-04-02T11:16:45Z</time>
      </trkpt>
      <trkpt lat="37.928096" lon="-1.121512">
        <ele>319.3</ele>
        <time>2016-04-02T11:16:54Z</time>
      </trkpt>
      <trkpt lat="37.928231" lon="-1.121568">
        <ele>315.0</ele>
        <time>2016-04-02T11:17:06Z</time>
      </trkpt>
      <trkpt lat="37.928363" lon="-1.121677">
        <ele>314.5</ele>
        <time>2016-04-02T11:17:21Z</time>
      </trkpt>
      <trkpt lat="37.928373" lon="-1.121710">
        <ele>314.0</ele>
        <time>2016-04-02T11:17:23Z</time>
      </trkpt>
      <trkpt lat="37.928337" lon="-1.121871">
        <ele>312.1</ele>
        <time>2016-04-02T11:17:33Z</time>
      </trkpt>
      <trkpt lat="37.928286" lon="-1.122046">
        <ele>309.7</ele>
        <time>2016-04-02T11:17:44Z</time>
      </trkpt>
      <trkpt lat="37.928168" lon="-1.122153">
        <ele>306.8</ele>
        <time>2016-04-02T11:17:57Z</time>
      </trkpt>
      <trkpt lat="37.928121" lon="-1.122205">
        <ele>306.3</ele>
        <time>2016-04-02T11:18:02Z</time>
      </trkpt>
      <trkpt lat="37.928101" lon="-1.122245">
        <ele>305.4</ele>
        <time>2016-04-02T11:18:05Z</time>
      </trkpt>
      <trkpt lat="37.928099" lon="-1.122307">
        <ele>304.9</ele>
        <time>2016-04-02T11:18:09Z</time>
      </trkpt>
      <trkpt lat="37.928190" lon="-1.122478">
        <ele>303.4</ele>
        <time>2016-04-02T11:18:22Z</time>
      </trkpt>
      <trkpt lat="37.928305" lon="-1.122616">
        <ele>302.0</ele>
        <time>2016-04-02T11:18:35Z</time>
      </trkpt>
      <trkpt lat="37.928362" lon="-1.122692">
        <ele>301.0</ele>
        <time>2016-04-02T11:18:42Z</time>
      </trkpt>
      <trkpt lat="37.928416" lon="-1.122766">
        <ele>300.1</ele>
        <time>2016-04-02T11:18:48Z</time>
      </trkpt>
      <trkpt lat="37.928520" lon="-1.122924">
        <ele>298.1</ele>
        <time>2016-04-02T11:19:01Z</time>
      </trkpt>
      <trkpt lat="37.928644" lon="-1.123154">
        <ele>295.7</ele>
        <time>2016-04-02T11:19:16Z</time>
      </trkpt>
      <trkpt lat="37.928711" lon="-1.123236">
        <ele>295.3</ele>
        <time>2016-04-02T11:19:24Z</time>
      </trkpt>
      <trkpt lat="37.928749" lon="-1.123221">
        <ele>294.8</ele>
        <time>2016-04-02T11:19:27Z</time>
      </trkpt>
      <trkpt lat="37.928781" lon="-1.123175">
        <ele>294.3</ele>
        <time>2016-04-02T11:19:32Z</time>
      </trkpt>
      <trkpt lat="37.928798" lon="-1.123134">
        <ele>293.8</ele>
        <time>2016-04-02T11:19:35Z</time>
      </trkpt>
      <trkpt lat="37.928907" lon="-1.123015">
        <ele>292.4</ele>
        <time>2016-04-02T11:19:47Z</time>
      </trkpt>
      <trkpt lat="37.928921" lon="-1.123003">
        <ele>292.4</ele>
        <time>2016-04-02T11:19:48Z</time>
      </trkpt>
      <trkpt lat="37.929034" lon="-1.122854">
        <ele>291.4</ele>
        <time>2016-04-02T11:20:00Z</time>
      </trkpt>
      <trkpt lat="37.929061" lon="-1.122817">
        <ele>290.5</ele>
        <time>2016-04-02T11:20:03Z</time>
      </trkpt>
      <trkpt lat="37.929073" lon="-1.122807">
        <ele>290.5</ele>
        <time>2016-04-02T11:20:05Z</time>
      </trkpt>
      <trkpt lat="37.929206" lon="-1.122640">
        <ele>288.0</ele>
        <time>2016-04-02T11:20:19Z</time>
      </trkpt>
      <trkpt lat="37.929396" lon="-1.122477">
        <ele>286.1</ele>
        <time>2016-04-02T11:20:35Z</time>
      </trkpt>
      <trkpt lat="37.929464" lon="-1.122436">
        <ele>285.2</ele>
        <time>2016-04-02T11:20:41Z</time>
      </trkpt>
      <trkpt lat="37.929591" lon="-1.122341">
        <ele>284.2</ele>
        <time>2016-04-02T11:20:53Z</time>
      </trkpt>
      <trkpt lat="37.929703" lon="-1.122247">
        <ele>282.8</ele>
        <time>2016-04-02T11:21:04Z</time>
      </trkpt>
      <trkpt lat="37.929759" lon="-1.122226">
        <ele>281.8</ele>
        <time>2016-04-02T11:21:09Z</time>
      </trkpt>
      <trkpt lat="37.929894" lon="-1.122225">
        <ele>279.9</ele>
        <time>2016-04-02T11:21:21Z</time>
      </trkpt>
      <trkpt lat="37.930087" lon="-1.122251">
        <ele>277.5</ele>
        <time>2016-04-02T11:21:37Z</time>
      </trkpt>
      <trkpt lat="37.930249" lon="-1.122227">
        <ele>275.1</ele>
        <time>2016-04-02T11:21:50Z</time>
      </trkpt>
      <trkpt lat="37.930337" lon="-1.122220">
        <ele>274.6</ele>
        <time>2016-04-02T11:21:56Z</time>
      </trkpt>
      <trkpt lat="37.930400" lon="-1.122154">
        <ele>273.6</ele>
        <time>2016-04-02T11:22:04Z</time>
      </trkpt>
      <trkpt lat="37.930306" lon="-1.122079">
        <ele>271.7</ele>
        <time>2016-04-02T11:22:13Z</time>
      </trkpt>
      <trkpt lat="37.930134" lon="-1.121968">
        <ele>268.4</ele>
        <time>2016-04-02T11:22:29Z</time>
      </trkpt>
      <trkpt lat="37.930056" lon="-1.121783">
        <ele>266.4</ele>
        <time>2016-04-02T11:22:42Z</time>
      </trkpt>
      <trkpt lat="37.930058" lon="-1.121643">
        <ele>264.5</ele>
        <time>2016-04-02T11:22:50Z</time>
      </trkpt>
      <trkpt lat="37.930087" lon="-1.121564">
        <ele>263.5</ele>
        <time>2016-04-02T11:22:55Z</time>
      </trkpt>
      <trkpt lat="37.930046" lon="-1.121394">
        <ele>259.7</ele>
        <time>2016-04-02T11:23:06Z</time>
      </trkpt>
      <trkpt lat="37.930012" lon="-1.121317">
        <ele>259.7</ele>
        <time>2016-04-02T11:23:11Z</time>
      </trkpt>
      <trkpt lat="37.930084" lon="-1.121309">
        <ele>258.2</ele>
        <time>2016-04-02T11:23:19Z</time>
      </trkpt>
      <trkpt lat="37.930200" lon="-1.121397">
        <ele>256.3</ele>
        <time>2016-04-02T11:23:32Z</time>
      </trkpt>
      <trkpt lat="37.930249" lon="-1.121439">
        <ele>255.4</ele>
        <time>2016-04-02T11:23:37Z</time>
      </trkpt>
      <trkpt lat="37.930370" lon="-1.121509">
        <ele>252.0</ele>
        <time>2016-04-02T11:23:49Z</time>
      </trkpt>
      <trkpt lat="37.930393" lon="-1.121533">
        <ele>252.0</ele>
        <time>2016-04-02T11:23:51Z</time>
      </trkpt>
      <trkpt lat="37.930476" lon="-1.121563">
        <ele>251.0</ele>
        <time>2016-04-02T11:23:57Z</time>
      </trkpt>
      <trkpt lat="37.930647" lon="-1.121461">
        <ele>249.1</ele>
        <time>2016-04-02T11:24:11Z</time>
      </trkpt>
      <trkpt lat="37.930704" lon="-1.121409">
        <ele>246.7</ele>
        <time>2016-04-02T11:24:16Z</time>
      </trkpt>
      <trkpt lat="37.930778" lon="-1.121352">
        <ele>245.3</ele>
        <time>2016-04-02T11:24:24Z</time>
      </trkpt>
      <trkpt lat="37.930913" lon="-1.121237">
        <ele>242.4</ele>
        <time>2016-04-02T11:24:37Z</time>
      </trkpt>
      <trkpt lat="37.930986" lon="-1.121179">
        <ele>241.4</ele>
        <time>2016-04-02T11:24:50Z</time>
      </trkpt>
      <trkpt lat="37.930993" lon="-1.121171">
        <ele>241.9</ele>
        <time>2016-04-02T11:24:51Z</time>
      </trkpt>
      <trkpt lat="37.931054" lon="-1.121141">
        <ele>240.0</ele>
        <time>2016-04-02T11:24:57Z</time>
      </trkpt>
      <trkpt lat="37.931169" lon="-1.121149">
        <ele>237.6</ele>
        <time>2016-04-02T11:25:08Z</time>
      </trkpt>
      <trkpt lat="37.931190" lon="-1.121151">
        <ele>237.6</ele>
        <time>2016-04-02T11:25:10Z</time>
      </trkpt>
      <trkpt lat="37.931208" lon="-1.121062">
        <ele>236.1</ele>
        <time>2016-04-02T11:25:22Z</time>
      </trkpt>
      <trkpt lat="37.931207" lon="-1.121060">
        <ele>236.1</ele>
        <time>2016-04-02T11:25:24Z</time>
      </trkpt>
      <trkpt lat="37.931139" lon="-1.120985">
        <ele>234.7</ele>
        <time>2016-04-02T11:25:33Z</time>
      </trkpt>
      <trkpt lat="37.931022" lon="-1.120868">
        <ele>231.8</ele>
        <time>2016-04-02T11:25:47Z</time>
      </trkpt>
      <trkpt lat="37.930997" lon="-1.120840">
        <ele>230.4</ele>
        <time>2016-04-02T11:25:50Z</time>
      </trkpt>
      <trkpt lat="37.930986" lon="-1.120772">
        <ele>229.9</ele>
        <time>2016-04-02T11:25:55Z</time>
      </trkpt>
      <trkpt lat="37.930998" lon="-1.120751">
        <ele>228.9</ele>
        <time>2016-04-02T11:25:57Z</time>
      </trkpt>
      <trkpt lat="37.931133" lon="-1.120796">
        <ele>225.6</ele>
        <time>2016-04-02T11:26:10Z</time>
      </trkpt>
      <trkpt lat="37.931252" lon="-1.120777">
        <ele>224.1</ele>
        <time>2016-04-02T11:26:20Z</time>
      </trkpt>
      <trkpt lat="37.931410" lon="-1.120830">
        <ele>220.3</ele>
        <time>2016-04-02T11:26:33Z</time>
      </trkpt>
      <trkpt lat="37.931418" lon="-1.120834">
        <ele>220.8</ele>
        <time>2016-04-02T11:26:34Z</time>
      </trkpt>
      <trkpt lat="37.931456" lon="-1.120748">
        <ele>219.3</ele>
        <time>2016-04-02T11:26:40Z</time>
      </trkpt>
      <trkpt lat="37.931440" lon="-1.120706">
        <ele>218.4</ele>
        <time>2016-04-02T11:26:43Z</time>
      </trkpt>
      <trkpt lat="37.931363" lon="-1.120556">
        <ele>215.9</ele>
        <time>2016-04-02T11:26:56Z</time>
      </trkpt>
      <trkpt lat="37.931274" lon="-1.120390">
        <ele>212.6</ele>
        <time>2016-04-02T11:27:08Z</time>
      </trkpt>
      <trkpt lat="37.931243" lon="-1.120355">
        <ele>212.1</ele>
        <time>2016-04-02T11:27:11Z</time>
      </trkpt>
      <trkpt lat="37.931144" lon="-1.120388">
        <ele>209.7</ele>
        <time>2016-04-02T11:27:21Z</time>
      </trkpt>
      <trkpt lat="37.931102" lon="-1.120396">
        <ele>209.7</ele>
        <time>2016-04-02T11:27:25Z</time>
      </trkpt>
      <trkpt lat="37.931048" lon="-1.120391">
        <ele>208.3</ele>
        <time>2016-04-02T11:27:29Z</time>
      </trkpt>
      <trkpt lat="37.930924" lon="-1.120364">
        <ele>207.3</ele>
        <time>2016-04-02T11:27:42Z</time>
      </trkpt>
      <trkpt lat="37.930692" lon="-1.120351">
        <ele>205.4</ele>
        <time>2016-04-02T11:27:57Z</time>
      </trkpt>
      <trkpt lat="37.930664" lon="-1.120351">
        <ele>204.4</ele>
        <time>2016-04-02T11:27:59Z</time>
      </trkpt>
      <trkpt lat="37.930625" lon="-1.120351">
        <ele>204.4</ele>
        <time>2016-04-02T11:28:03Z</time>
      </trkpt>
      <trkpt lat="37.930624" lon="-1.120334">
        <ele>203.9</ele>
        <time>2016-04-02T11:28:05Z</time>
      </trkpt>
      <trkpt lat="37.930809" lon="-1.120292">
        <ele>201.1</ele>
        <time>2016-04-02T11:28:21Z</time>
      </trkpt>
      <trkpt lat="37.930820" lon="-1.120288">
        <ele>200.6</ele>
        <time>2016-04-02T11:28:22Z</time>
      </trkpt>
      <trkpt lat="37.930860" lon="-1.120242">
        <ele>200.6</ele>
        <time>2016-04-02T11:28:26Z</time>
      </trkpt>
      <trkpt lat="37.931021" lon="-1.120201">
        <ele>197.2</ele>
        <time>2016-04-02T11:28:38Z</time>
      </trkpt>
      <trkpt lat="37.931043" lon="-1.120171">
        <ele>197.2</ele>
        <time>2016-04-02T11:28:40Z</time>
      </trkpt>
      <trkpt lat="37.931007" lon="-1.120112">
        <ele>195.8</ele>
        <time>2016-04-02T11:28:46Z</time>
      </trkpt>
      <trkpt lat="37.930892" lon="-1.120103">
        <ele>192.4</ele>
        <time>2016-04-02T11:29:00Z</time>
      </trkpt>
      <trkpt lat="37.930881" lon="-1.120102">
        <ele>192.9</ele>
        <time>2016-04-02T11:29:02Z</time>
      </trkpt>
      <trkpt lat="37.930706" lon="-1.120086">
        <ele>190.5</ele>
        <time>2016-04-02T11:29:17Z</time>
      </trkpt>
      <trkpt lat="37.930688" lon="-1.120088">
        <ele>190.0</ele>
        <time>2016-04-02T11:29:19Z</time>
      </trkpt>
      <trkpt lat="37.930683" lon="-1.120004">
        <ele>189.0</ele>
        <time>2016-04-02T11:29:24Z</time>
      </trkpt>
      <trkpt lat="37.930819" lon="-1.119939">
        <ele>186.1</ele>
        <time>2016-04-02T11:29:39Z</time>
      </trkpt>
      <trkpt lat="37.930882" lon="-1.119926">
        <ele>184.7</ele>
        <time>2016-04-02T11:29:51Z</time>
      </trkpt>
      <trkpt lat="37.930852" lon="-1.119913">
        <ele>184.2</ele>
        <time>2016-04-02T11:29:57Z</time>
      </trkpt>
      <trkpt lat="37.930835" lon="-1.119901">
        <ele>183.8</ele>
        <time>2016-04-02T11:29:59Z</time>
      </trkpt>
      <trkpt lat="37.930734" lon="-1.119875">
        <ele>181.4</ele>
        <time>2016-04-02T11:30:10Z</time>
      </trkpt>
      <trkpt lat="37.930723" lon="-1.119875">
        <ele>181.8</ele>
        <time>2016-04-02T11:30:11Z</time>
      </trkpt>
      <trkpt lat="37.930759" lon="-1.119814">
        <ele>179.4</ele>
        <time>2016-04-02T11:30:22Z</time>
      </trkpt>
      <trkpt lat="37.930905" lon="-1.119785">
        <ele>178.5</ele>
        <time>2016-04-02T11:30:34Z</time>
      </trkpt>
      <trkpt lat="37.931101" lon="-1.119818">
        <ele>177.5</ele>
        <time>2016-04-02T11:30:49Z</time>
      </trkpt>
      <trkpt lat="37.931282" lon="-1.119897">
        <ele>176.5</ele>
        <time>2016-04-02T11:31:05Z</time>
      </trkpt>
      <trkpt lat="37.931430" lon="-1.119864">
        <ele>175.6</ele>
        <time>2016-04-02T11:31:18Z</time>
      </trkpt>
      <trkpt lat="37.931625" lon="-1.119762">
        <ele>173.7</ele>
        <time>2016-04-02T11:31:33Z</time>
      </trkpt>
      <trkpt lat="37.931822" lon="-1.119616">
        <ele>172.2</ele>
        <time>2016-04-02T11:31:50Z</time>
      </trkpt>
      <trkpt lat="37.932000" lon="-1.119563">
        <ele>171.2</ele>
        <time>2016-04-02T11:32:04Z</time>
      </trkpt>
      <trkpt lat="37.932208" lon="-1.119611">
        <ele>170.3</ele>
        <time>2016-04-02T11:32:21Z</time>
      </trkpt>
      <trkpt lat="37.932291" lon="-1.119732">
        <ele>169.3</ele>
        <time>2016-04-02T11:32:31Z</time>
      </trkpt>
      <trkpt lat="37.932374" lon="-1.119946">
        <ele>167.4</ele>
        <time>2016-04-02T11:32:45Z</time>
      </trkpt>
      <trkpt lat="37.932420" lon="-1.120018">
        <ele>166.4</ele>
        <time>2016-04-02T11:32:52Z</time>
      </trkpt>
      <trkpt lat="37.932415" lon="-1.120097">
        <ele>165.5</ele>
        <time>2016-04-02T11:32:57Z</time>
      </trkpt>
      <trkpt lat="37.932484" lon="-1.120188">
        <ele>165.0</ele>
        <time>2016-04-02T11:33:10Z</time>
      </trkpt>
      <trkpt lat="37.932493" lon="-1.120091">
        <ele>164.5</ele>
        <time>2016-04-02T11:33:18Z</time>
      </trkpt>
      <trkpt lat="37.932493" lon="-1.119830">
        <ele>164.5</ele>
        <time>2016-04-02T11:33:35Z</time>
      </trkpt>
      <trkpt lat="37.932407" lon="-1.119589">
        <ele>165.5</ele>
        <time>2016-04-02T11:33:51Z</time>
      </trkpt>
      <trkpt lat="37.932338" lon="-1.119491">
        <ele>166.4</ele>
        <time>2016-04-02T11:33:59Z</time>
      </trkpt>
      <trkpt lat="37.932283" lon="-1.119458">
        <ele>166.0</ele>
        <time>2016-04-02T11:34:04Z</time>
      </trkpt>
      <trkpt lat="37.932214" lon="-1.119431">
        <ele>165.5</ele>
        <time>2016-04-02T11:34:09Z</time>
      </trkpt>
      <trkpt lat="37.932075" lon="-1.119380">
        <ele>165.5</ele>
        <time>2016-04-02T11:34:19Z</time>
      </trkpt>
      <trkpt lat="37.932009" lon="-1.119384">
        <ele>164.0</ele>
        <time>2016-04-02T11:34:24Z</time>
      </trkpt>
      <trkpt lat="37.931851" lon="-1.119410">
        <ele>163.1</ele>
        <time>2016-04-02T11:34:37Z</time>
      </trkpt>
      <trkpt lat="37.931649" lon="-1.119322">
        <ele>162.6</ele>
        <time>2016-04-02T11:34:55Z</time>
      </trkpt>
      <trkpt lat="37.931618" lon="-1.119252">
        <ele>162.1</ele>
        <time>2016-04-02T11:35:00Z</time>
      </trkpt>
      <trkpt lat="37.931612" lon="-1.119222">
        <ele>161.6</ele>
        <time>2016-04-02T11:35:02Z</time>
      </trkpt>
      <trkpt lat="37.931648" lon="-1.118965">
        <ele>161.2</ele>
        <time>2016-04-02T11:35:17Z</time>
      </trkpt>
      <trkpt lat="37.931689" lon="-1.118899">
        <ele>160.2</ele>
        <time>2016-04-02T11:35:22Z</time>
      </trkpt>
      <trkpt lat="37.931734" lon="-1.118884">
        <ele>160.2</ele>
        <time>2016-04-02T11:35:27Z</time>
      </trkpt>
      <trkpt lat="37.931948" lon="-1.118960">
        <ele>159.7</ele>
        <time>2016-04-02T11:35:44Z</time>
      </trkpt>
      <trkpt lat="37.931965" lon="-1.118943">
        <ele>159.7</ele>
        <time>2016-04-02T11:35:46Z</time>
      </trkpt>
      <trkpt lat="37.931950" lon="-1.118948">
        <ele>159.2</ele>
        <time>2016-04-02T11:35:58Z</time>
      </trkpt>
      <trkpt lat="37.931966" lon="-1.118950">
        <ele>159.2</ele>
        <time>2016-04-02T11:36:04Z</time>
      </trkpt>
      <trkpt lat="37.932199" lon="-1.118965">
        <ele>157.8</ele>
        <time>2016-04-02T11:36:21Z</time>
      </trkpt>
      <trkpt lat="37.932419" lon="-1.118931">
        <ele>155.9</ele>
        <time>2016-04-02T11:36:37Z</time>
      </trkpt>
      <trkpt lat="37.932664" lon="-1.118907">
        <ele>153.5</ele>
        <time>2016-04-02T11:36:55Z</time>
      </trkpt>
      <trkpt lat="37.932849" lon="-1.118978">
        <ele>153.0</ele>
        <time>2016-04-02T11:37:09Z</time>
      </trkpt>
      <trkpt lat="37.933038" lon="-1.119141">
        <ele>153.5</ele>
        <time>2016-04-02T11:37:24Z</time>
      </trkpt>
      <trkpt lat="37.933250" lon="-1.119371">
        <ele>152.5</ele>
        <time>2016-04-02T11:37:43Z</time>
      </trkpt>
      <trkpt lat="37.933457" lon="-1.119580">
        <ele>151.1</ele>
        <time>2016-04-02T11:38:03Z</time>
      </trkpt>
      <trkpt lat="37.933623" lon="-1.119794">
        <ele>151.1</ele>
        <time>2016-04-02T11:38:20Z</time>
      </trkpt>
      <trkpt lat="37.933720" lon="-1.119931">
        <ele>150.6</ele>
        <time>2016-04-02T11:38:30Z</time>
      </trkpt>
      <trkpt lat="37.933835" lon="-1.120208">
        <ele>152.0</ele>
        <time>2016-04-02T11:38:47Z</time>
      </trkpt>
      <trkpt lat="37.933902" lon="-1.120427">
        <ele>153.0</ele>
        <time>2016-04-02T11:38:59Z</time>
      </trkpt>
      <trkpt lat="37.934149" lon="-1.120651">
        <ele>153.9</ele>
        <time>2016-04-02T11:39:19Z</time>
      </trkpt>
      <trkpt lat="37.934374" lon="-1.120737">
        <ele>155.9</ele>
        <time>2016-04-02T11:39:36Z</time>
      </trkpt>
      <trkpt lat="37.934672" lon="-1.120733">
        <ele>156.8</ele>
        <time>2016-04-02T11:39:56Z</time>
      </trkpt>
      <trkpt lat="37.934887" lon="-1.120569">
        <ele>157.3</ele>
        <time>2016-04-02T11:40:13Z</time>
      </trkpt>
      <trkpt lat="37.935055" lon="-1.120367">
        <ele>157.3</ele>
        <time>2016-04-02T11:40:29Z</time>
      </trkpt>
      <trkpt lat="37.935127" lon="-1.120212">
        <ele>155.4</ele>
        <time>2016-04-02T11:40:39Z</time>
      </trkpt>
      <trkpt lat="37.935136" lon="-1.120196">
        <ele>159.2</ele>
        <time>2016-04-02T11:40:40Z</time>
      </trkpt>
      <trkpt lat="37.935142" lon="-1.120181">
        <ele>157.8</ele>
        <time>2016-04-02T11:40:41Z</time>
      </trkpt>
      <trkpt lat="37.935154" lon="-1.120151">
        <ele>157.3</ele>
        <time>2016-04-02T11:40:43Z</time>
      </trkpt>
      <trkpt lat="37.935286" lon="-1.119919">
        <ele>158.8</ele>
        <time>2016-04-02T11:41:00Z</time>
      </trkpt>
      <trkpt lat="37.935433" lon="-1.119723">
        <ele>159.2</ele>
        <time>2016-04-02T11:41:16Z</time>
      </trkpt>
      <trkpt lat="37.935547" lon="-1.119471">
        <ele>158.3</ele>
        <time>2016-04-02T11:41:34Z</time>
      </trkpt>
      <trkpt lat="37.935663" lon="-1.119235">
        <ele>156.8</ele>
        <time>2016-04-02T11:41:51Z</time>
      </trkpt>
      <trkpt lat="37.935760" lon="-1.118987">
        <ele>154.9</ele>
        <time>2016-04-02T11:42:08Z</time>
      </trkpt>
      <trkpt lat="37.935769" lon="-1.118935">
        <ele>154.4</ele>
        <time>2016-04-02T11:42:12Z</time>
      </trkpt>
      <trkpt lat="37.935808" lon="-1.118874">
        <ele>153.9</ele>
        <time>2016-04-02T11:42:17Z</time>
      </trkpt>
      <trkpt lat="37.935855" lon="-1.118757">
        <ele>153.5</ele>
        <time>2016-04-02T11:42:24Z</time>
      </trkpt>
      <trkpt lat="37.935969" lon="-1.118553">
        <ele>151.5</ele>
        <time>2016-04-02T11:42:42Z</time>
      </trkpt>
      <trkpt lat="37.936054" lon="-1.118402">
        <ele>151.1</ele>
        <time>2016-04-02T11:42:59Z</time>
      </trkpt>
      <trkpt lat="37.936196" lon="-1.118205">
        <ele>148.7</ele>
        <time>2016-04-02T11:43:17Z</time>
      </trkpt>
      <trkpt lat="37.936312" lon="-1.118008">
        <ele>147.2</ele>
        <time>2016-04-02T11:43:33Z</time>
      </trkpt>
      <trkpt lat="37.936438" lon="-1.117786">
        <ele>146.3</ele>
        <time>2016-04-02T11:43:52Z</time>
      </trkpt>
      <trkpt lat="37.936565" lon="-1.117579">
        <ele>144.3</ele>
        <time>2016-04-02T11:44:09Z</time>
      </trkpt>
      <trkpt lat="37.936681" lon="-1.117429">
        <ele>142.9</ele>
        <time>2016-04-02T11:44:22Z</time>
      </trkpt>
      <trkpt lat="37.936875" lon="-1.117289">
        <ele>141.9</ele>
        <time>2016-04-02T11:44:42Z</time>
      </trkpt>
      <trkpt lat="37.937079" lon="-1.117287">
        <ele>141.0</ele>
        <time>2016-04-02T11:44:58Z</time>
      </trkpt>
      <trkpt lat="37.937305" lon="-1.117370">
        <ele>140.5</ele>
        <time>2016-04-02T11:45:16Z</time>
      </trkpt>
      <trkpt lat="37.937398" lon="-1.117432">
        <ele>140.5</ele>
        <time>2016-04-02T11:45:24Z</time>
      </trkpt>
      <trkpt lat="37.937418" lon="-1.117431">
        <ele>140.5</ele>
        <time>2016-04-02T11:45:26Z</time>
      </trkpt>
      <trkpt lat="37.937455" lon="-1.117420">
        <ele>139.5</ele>
        <time>2016-04-02T11:45:32Z</time>
      </trkpt>
      <trkpt lat="37.937490" lon="-1.117444">
        <ele>139.5</ele>
        <time>2016-04-02T11:45:36Z</time>
      </trkpt>
      <trkpt lat="37.937671" lon="-1.117596">
        <ele>138.6</ele>
        <time>2016-04-02T11:45:53Z</time>
      </trkpt>
      <trkpt lat="37.937708" lon="-1.117632">
        <ele>139.1</ele>
        <time>2016-04-02T11:45:57Z</time>
      </trkpt>
      <trkpt lat="37.937724" lon="-1.117777">
        <ele>140.0</ele>
        <time>2016-04-02T11:46:06Z</time>
      </trkpt>
      <trkpt lat="37.937803" lon="-1.117909">
        <ele>141.0</ele>
        <time>2016-04-02T11:46:17Z</time>
      </trkpt>
      <trkpt lat="37.937890" lon="-1.118070">
        <ele>138.6</ele>
        <time>2016-04-02T11:46:30Z</time>
      </trkpt>
      <trkpt lat="37.937929" lon="-1.118167">
        <ele>138.1</ele>
        <time>2016-04-02T11:46:44Z</time>
      </trkpt>
      <trkpt lat="37.937928" lon="-1.118185">
        <ele>138.6</ele>
        <time>2016-04-02T11:46:49Z</time>
      </trkpt>
      <trkpt lat="37.937910" lon="-1.118217">
        <ele>138.1</ele>
        <time>2016-04-02T11:46:52Z</time>
      </trkpt>
      <trkpt lat="37.937939" lon="-1.118211">
        <ele>139.1</ele>
        <time>2016-04-02T11:50:29Z</time>
      </trkpt>
      <trkpt lat="37.937972" lon="-1.118199">
        <ele>137.6</ele>
        <time>2016-04-02T11:50:41Z</time>
      </trkpt>
      <trkpt lat="37.937995" lon="-1.118184">
        <ele>137.1</ele>
        <time>2016-04-02T11:51:14Z</time>
      </trkpt>
      <trkpt lat="37.938000" lon="-1.118199">
        <ele>137.1</ele>
        <time>2016-04-02T11:51:16Z</time>
      </trkpt>
      <trkpt lat="37.937947" lon="-1.118388">
        <ele>134.2</ele>
        <time>2016-04-02T11:51:31Z</time>
      </trkpt>
      <trkpt lat="37.937824" lon="-1.118501">
        <ele>132.3</ele>
        <time>2016-04-02T11:51:47Z</time>
      </trkpt>
      <trkpt lat="37.937804" lon="-1.118648">
        <ele>130.9</ele>
        <time>2016-04-02T11:51:59Z</time>
      </trkpt>
      <trkpt lat="37.937800" lon="-1.118651">
        <ele>130.9</ele>
        <time>2016-04-02T11:52:01Z</time>
      </trkpt>
      <trkpt lat="37.937803" lon="-1.118778">
        <ele>128.5</ele>
        <time>2016-04-02T11:52:11Z</time>
      </trkpt>
      <trkpt lat="37.937898" lon="-1.118745">
        <ele>126.6</ele>
        <time>2016-04-02T11:52:20Z</time>
      </trkpt>
      <trkpt lat="37.937962" lon="-1.118809">
        <ele>125.1</ele>
        <time>2016-04-02T11:52:34Z</time>
      </trkpt>
      <trkpt lat="37.937960" lon="-1.118849">
        <ele>125.1</ele>
        <time>2016-04-02T11:53:47Z</time>
      </trkpt>
      <trkpt lat="37.937947" lon="-1.118987">
        <ele>122.2</ele>
        <time>2016-04-02T11:53:58Z</time>
      </trkpt>
      <trkpt lat="37.937942" lon="-1.119129">
        <ele>120.3</ele>
        <time>2016-04-02T11:54:11Z</time>
      </trkpt>
      <trkpt lat="37.937907" lon="-1.119190">
        <ele>120.3</ele>
        <time>2016-04-02T11:54:19Z</time>
      </trkpt>
      <trkpt lat="37.937808" lon="-1.119199">
        <ele>118.4</ele>
        <time>2016-04-02T11:54:28Z</time>
      </trkpt>
      <trkpt lat="37.937690" lon="-1.119122">
        <ele>116.0</ele>
        <time>2016-04-02T11:54:38Z</time>
      </trkpt>
      <trkpt lat="37.937654" lon="-1.119117">
        <ele>113.6</ele>
        <time>2016-04-02T11:54:41Z</time>
      </trkpt>
      <trkpt lat="37.937641" lon="-1.119116">
        <ele>121.3</ele>
        <time>2016-04-02T11:54:42Z</time>
      </trkpt>
      <trkpt lat="37.937630" lon="-1.119115">
        <ele>116.9</ele>
        <time>2016-04-02T11:54:43Z</time>
      </trkpt>
      <trkpt lat="37.937605" lon="-1.119119">
        <ele>116.5</ele>
        <time>2016-04-02T11:54:45Z</time>
      </trkpt>
      <trkpt lat="37.937571" lon="-1.119140">
        <ele>116.0</ele>
        <time>2016-04-02T11:54:48Z</time>
      </trkpt>
      <trkpt lat="37.937568" lon="-1.119208">
        <ele>115.5</ele>
        <time>2016-04-02T11:54:53Z</time>
      </trkpt>
      <trkpt lat="37.937720" lon="-1.119309">
        <ele>112.6</ele>
        <time>2016-04-02T11:55:04Z</time>
      </trkpt>
      <trkpt lat="37.937737" lon="-1.119324">
        <ele>112.1</ele>
        <time>2016-04-02T11:55:06Z</time>
      </trkpt>
      <trkpt lat="37.937741" lon="-1.119379">
        <ele>112.1</ele>
        <time>2016-04-02T11:55:10Z</time>
      </trkpt>
      <trkpt lat="37.937714" lon="-1.119435">
        <ele>110.7</ele>
        <time>2016-04-02T11:55:15Z</time>
      </trkpt>
      <trkpt lat="37.937661" lon="-1.119479">
        <ele>109.7</ele>
        <time>2016-04-02T11:55:21Z</time>
      </trkpt>
      <trkpt lat="37.937650" lon="-1.119643">
        <ele>109.2</ele>
        <time>2016-04-02T11:57:17Z</time>
      </trkpt>
      <trkpt lat="37.937649" lon="-1.119667">
        <ele>109.2</ele>
        <time>2016-04-02T11:57:20Z</time>
      </trkpt>
      <trkpt lat="37.937704" lon="-1.119924">
        <ele>107.3</ele>
        <time>2016-04-02T11:57:36Z</time>
      </trkpt>
      <trkpt lat="37.937799" lon="-1.120170">
        <ele>104.9</ele>
        <time>2016-04-02T11:57:54Z</time>
      </trkpt>
      <trkpt lat="37.937877" lon="-1.120373">
        <ele>104.0</ele>
        <time>2016-04-02T11:58:10Z</time>
      </trkpt>
      <trkpt lat="37.937885" lon="-1.120413">
        <ele>103.5</ele>
        <time>2016-04-02T11:58:13Z</time>
      </trkpt>
      <trkpt lat="37.937941" lon="-1.120538">
        <ele>103.0</ele>
        <time>2016-04-02T11:58:26Z</time>
      </trkpt>
      <trkpt lat="37.937947" lon="-1.120551">
        <ele>102.5</ele>
        <time>2016-04-02T11:58:33Z</time>
      </trkpt>
      <trkpt lat="37.938062" lon="-1.120770">
        <ele>101.1</ele>
        <time>2016-04-02T11:58:50Z</time>
      </trkpt>
      <trkpt lat="37.938179" lon="-1.120980">
        <ele>99.2</ele>
        <time>2016-04-02T11:59:08Z</time>
      </trkpt>
      <trkpt lat="37.938226" lon="-1.121017">
        <ele>99.2</ele>
        <time>2016-04-02T12:00:12Z</time>
      </trkpt>
      <trkpt lat="37.938386" lon="-1.121204">
        <ele>98.2</ele>
        <time>2016-04-02T12:00:25Z</time>
      </trkpt>
      <trkpt lat="37.938548" lon="-1.121330">
        <ele>97.7</ele>
        <time>2016-04-02T12:00:39Z</time>
      </trkpt>
      <trkpt lat="37.938694" lon="-1.121383">
        <ele>96.8</ele>
        <time>2016-04-02T12:00:49Z</time>
      </trkpt>
      <trkpt lat="37.938766" lon="-1.121333">
        <ele>96.3</ele>
        <time>2016-04-02T12:00:54Z</time>
      </trkpt>
      <trkpt lat="37.938981" lon="-1.121201">
        <ele>95.3</ele>
        <time>2016-04-02T12:01:11Z</time>
      </trkpt>
      <trkpt lat="37.939011" lon="-1.121126">
        <ele>94.3</ele>
        <time>2016-04-02T12:01:25Z</time>
      </trkpt>
      <trkpt lat="37.939036" lon="-1.121099">
        <ele>94.3</ele>
        <time>2016-04-02T12:01:28Z</time>
      </trkpt>
      <trkpt lat="37.939151" lon="-1.120945">
        <ele>92.9</ele>
        <time>2016-04-02T12:01:40Z</time>
      </trkpt>
      <trkpt lat="37.939187" lon="-1.120847">
        <ele>91.9</ele>
        <time>2016-04-02T12:01:49Z</time>
      </trkpt>
      <trkpt lat="37.939342" lon="-1.120611">
        <ele>89.5</ele>
        <time>2016-04-02T12:02:23Z</time>
      </trkpt>
      <trkpt lat="37.939500" lon="-1.120388">
        <ele>87.6</ele>
        <time>2016-04-02T12:02:40Z</time>
      </trkpt>
      <trkpt lat="37.939520" lon="-1.120373">
        <ele>87.6</ele>
        <time>2016-04-02T12:02:42Z</time>
      </trkpt>
      <trkpt lat="37.939574" lon="-1.120296">
        <ele>86.2</ele>
        <time>2016-04-02T12:02:48Z</time>
      </trkpt>
      <trkpt lat="37.939594" lon="-1.120270">
        <ele>86.7</ele>
        <time>2016-04-02T12:02:50Z</time>
      </trkpt>
      <trkpt lat="37.939709" lon="-1.120094">
        <ele>84.2</ele>
        <time>2016-04-02T12:03:03Z</time>
      </trkpt>
      <trkpt lat="37.939851" lon="-1.119853">
        <ele>82.3</ele>
        <time>2016-04-02T12:03:20Z</time>
      </trkpt>
      <trkpt lat="37.940020" lon="-1.119590">
        <ele>80.4</ele>
        <time>2016-04-02T12:03:39Z</time>
      </trkpt>
      <trkpt lat="37.940172" lon="-1.119369">
        <ele>78.0</ele>
        <time>2016-04-02T12:03:55Z</time>
      </trkpt>
      <trkpt lat="37.940242" lon="-1.119293">
        <ele>76.6</ele>
        <time>2016-04-02T12:04:02Z</time>
      </trkpt>
      <trkpt lat="37.940312" lon="-1.119261">
        <ele>76.1</ele>
        <time>2016-04-02T12:04:08Z</time>
      </trkpt>
      <trkpt lat="37.940497" lon="-1.118962">
        <ele>76.1</ele>
        <time>2016-04-02T12:04:28Z</time>
      </trkpt>
      <trkpt lat="37.940586" lon="-1.118831">
        <ele>75.6</ele>
        <time>2016-04-02T12:04:43Z</time>
      </trkpt>
      <trkpt lat="37.940666" lon="-1.118694">
        <ele>75.1</ele>
        <time>2016-04-02T12:04:57Z</time>
      </trkpt>
      <trkpt lat="37.940681" lon="-1.118701">
        <ele>74.6</ele>
        <time>2016-04-02T12:05:04Z</time>
      </trkpt>
      <trkpt lat="37.940729" lon="-1.118588">
        <ele>73.7</ele>
        <time>2016-04-02T12:05:13Z</time>
      </trkpt>
      <trkpt lat="37.940780" lon="-1.118522">
        <ele>73.2</ele>
        <time>2016-04-02T12:05:18Z</time>
      </trkpt>
      <trkpt lat="37.940910" lon="-1.118294">
        <ele>71.3</ele>
        <time>2016-04-02T12:05:33Z</time>
      </trkpt>
      <trkpt lat="37.941020" lon="-1.118075">
        <ele>69.3</ele>
        <time>2016-04-02T12:05:48Z</time>
      </trkpt>
      <trkpt lat="37.941105" lon="-1.117847">
        <ele>67.4</ele>
        <time>2016-04-02T12:06:04Z</time>
      </trkpt>
      <trkpt lat="37.941111" lon="-1.117796">
        <ele>67.4</ele>
        <time>2016-04-02T12:06:07Z</time>
      </trkpt>
      <trkpt lat="37.941247" lon="-1.117504">
        <ele>65.0</ele>
        <time>2016-04-02T12:06:26Z</time>
      </trkpt>
      <trkpt lat="37.941346" lon="-1.117209">
        <ele>63.1</ele>
        <time>2016-04-02T12:06:45Z</time>
      </trkpt>
      <trkpt lat="37.941380" lon="-1.117139">
        <ele>62.6</ele>
        <time>2016-04-02T12:06:50Z</time>
      </trkpt>
      <trkpt lat="37.941516" lon="-1.116888">
        <ele>62.6</ele>
        <time>2016-04-02T12:07:06Z</time>
      </trkpt>
      <trkpt lat="37.941589" lon="-1.116746">
        <ele>61.7</ele>
        <time>2016-04-02T12:07:38Z</time>
      </trkpt>
      <trkpt lat="37.941602" lon="-1.116693">
        <ele>59.3</ele>
        <time>2016-04-02T12:11:38Z</time>
      </trkpt>
      <trkpt lat="37.941670" lon="-1.116531">
        <ele>57.8</ele>
        <time>2016-04-02T12:11:52Z</time>
      </trkpt>
      <trkpt lat="37.941666" lon="-1.116504">
        <ele>58.8</ele>
        <time>2016-04-02T12:11:56Z</time>
      </trkpt>
      <trkpt lat="37.941671" lon="-1.116425">
        <ele>58.3</ele>
        <time>2016-04-02T12:12:01Z</time>
      </trkpt>
      <trkpt lat="37.941775" lon="-1.116175">
        <ele>57.8</ele>
        <time>2016-04-02T12:12:18Z</time>
      </trkpt>
      <trkpt lat="37.941850" lon="-1.116001">
        <ele>57.3</ele>
        <time>2016-04-02T12:12:33Z</time>
      </trkpt>
      <trkpt lat="37.941896" lon="-1.115931">
        <ele>57.3</ele>
        <time>2016-04-02T12:12:44Z</time>
      </trkpt>
      <trkpt lat="37.941905" lon="-1.115718">
        <ele>56.9</ele>
        <time>2016-04-02T12:12:57Z</time>
      </trkpt>
      <trkpt lat="37.941925" lon="-1.115544">
        <ele>56.9</ele>
        <time>2016-04-02T12:13:09Z</time>
      </trkpt>
      <trkpt lat="37.941945" lon="-1.115474">
        <ele>56.9</ele>
        <time>2016-04-02T12:13:13Z</time>
      </trkpt>
      <trkpt lat="37.941989" lon="-1.115343">
        <ele>56.4</ele>
        <time>2016-04-02T12:13:21Z</time>
      </trkpt>
      <trkpt lat="37.941991" lon="-1.115307">
        <ele>56.4</ele>
        <time>2016-04-02T12:13:23Z</time>
      </trkpt>
      <trkpt lat="37.942000" lon="-1.115253">
        <ele>56.4</ele>
        <time>2016-04-02T12:13:26Z</time>
      </trkpt>
      <trkpt lat="37.941995" lon="-1.115096">
        <ele>55.9</ele>
        <time>2016-04-02T12:13:35Z</time>
      </trkpt>
      <trkpt lat="37.942047" lon="-1.114884">
        <ele>56.4</ele>
        <time>2016-04-02T12:13:49Z</time>
      </trkpt>
      <trkpt lat="37.942106" lon="-1.114612">
        <ele>54.9</ele>
        <time>2016-04-02T12:14:05Z</time>
      </trkpt>
      <trkpt lat="37.942174" lon="-1.114497">
        <ele>55.9</ele>
        <time>2016-04-02T12:14:14Z</time>
      </trkpt>
      <trkpt lat="37.942191" lon="-1.114459">
        <ele>56.4</ele>
        <time>2016-04-02T12:14:17Z</time>
      </trkpt>
      <trkpt lat="37.942294" lon="-1.114324">
        <ele>55.9</ele>
        <time>2016-04-02T12:14:28Z</time>
      </trkpt>
      <trkpt lat="37.942319" lon="-1.114269">
        <ele>55.4</ele>
        <time>2016-04-02T12:14:32Z</time>
      </trkpt>
      <trkpt lat="37.942397" lon="-1.114194">
        <ele>55.9</ele>
        <time>2016-04-02T12:14:39Z</time>
      </trkpt>
      <trkpt lat="37.942573" lon="-1.114131">
        <ele>54.9</ele>
        <time>2016-04-02T12:14:54Z</time>
      </trkpt>
      <trkpt lat="37.942732" lon="-1.114019">
        <ele>54.9</ele>
        <time>2016-04-02T12:15:09Z</time>
      </trkpt>
      <trkpt lat="37.942791" lon="-1.113929">
        <ele>55.4</ele>
        <time>2016-04-02T12:15:16Z</time>
      </trkpt>
      <trkpt lat="37.942885" lon="-1.113901">
        <ele>55.4</ele>
        <time>2016-04-02T12:15:22Z</time>
      </trkpt>
      <trkpt lat="37.943065" lon="-1.113931">
        <ele>55.4</ele>
        <time>2016-04-02T12:15:38Z</time>
      </trkpt>
      <trkpt lat="37.943066" lon="-1.113922">
        <ele>54.9</ele>
        <time>2016-04-02T12:15:44Z</time>
      </trkpt>
      <trkpt lat="37.943083" lon="-1.113916">
        <ele>54.9</ele>
        <time>2016-04-02T12:15:46Z</time>
      </trkpt>
      <trkpt lat="37.943322" lon="-1.113891">
        <ele>54.9</ele>
        <time>2016-04-02T12:16:04Z</time>
      </trkpt>
      <trkpt lat="37.943429" lon="-1.113847">
        <ele>55.4</ele>
        <time>2016-04-02T12:16:13Z</time>
      </trkpt>
      <trkpt lat="37.943520" lon="-1.113791">
        <ele>55.4</ele>
        <time>2016-04-02T12:16:21Z</time>
      </trkpt>
      <trkpt lat="37.943620" lon="-1.113724">
        <ele>55.9</ele>
        <time>2016-04-02T12:16:30Z</time>
      </trkpt>
      <trkpt lat="37.943696" lon="-1.113697">
        <ele>55.4</ele>
        <time>2016-04-02T12:16:36Z</time>
      </trkpt>
      <trkpt lat="37.943845" lon="-1.113627">
        <ele>55.9</ele>
        <time>2016-04-02T12:16:51Z</time>
      </trkpt>
      <trkpt lat="37.943890" lon="-1.113603">
        <ele>55.9</ele>
        <time>2016-04-02T12:16:55Z</time>
      </trkpt>
      <trkpt lat="37.944093" lon="-1.113461">
        <ele>56.4</ele>
        <time>2016-04-02T12:17:12Z</time>
      </trkpt>
      <trkpt lat="37.944196" lon="-1.113363">
        <ele>55.4</ele>
        <time>2016-04-02T12:17:23Z</time>
      </trkpt>
      <trkpt lat="37.944313" lon="-1.113278">
        <ele>55.9</ele>
        <time>2016-04-02T12:17:33Z</time>
      </trkpt>
      <trkpt lat="37.944438" lon="-1.113066">
        <ele>56.4</ele>
        <time>2016-04-02T12:17:41Z</time>
      </trkpt>
      <trkpt lat="37.944549" lon="-1.112901">
        <ele>56.4</ele>
        <time>2016-04-02T12:17:57Z</time>
      </trkpt>
      <trkpt lat="37.944617" lon="-1.112787">
        <ele>55.9</ele>
        <time>2016-04-02T12:18:11Z</time>
      </trkpt>
      <trkpt lat="37.944748" lon="-1.112549">
        <ele>55.9</ele>
        <time>2016-04-02T12:18:26Z</time>
      </trkpt>
      <trkpt lat="37.944809" lon="-1.112451">
        <ele>55.9</ele>
        <time>2016-04-02T12:18:33Z</time>
      </trkpt>
      <trkpt lat="37.944882" lon="-1.112359">
        <ele>56.4</ele>
        <time>2016-04-02T12:18:41Z</time>
      </trkpt>
      <trkpt lat="37.944965" lon="-1.112246">
        <ele>55.4</ele>
        <time>2016-04-02T12:18:48Z</time>
      </trkpt>
      <trkpt lat="37.945080" lon="-1.112016">
        <ele>55.9</ele>
        <time>2016-04-02T12:19:04Z</time>
      </trkpt>
      <trkpt lat="37.945082" lon="-1.112008">
        <ele>55.9</ele>
        <time>2016-04-02T12:19:05Z</time>
      </trkpt>
      <trkpt lat="37.945110" lon="-1.111945">
        <ele>55.9</ele>
        <time>2016-04-02T12:19:10Z</time>
      </trkpt>
      <trkpt lat="37.945189" lon="-1.111852">
        <ele>55.9</ele>
        <time>2016-04-02T12:19:24Z</time>
      </trkpt>
      <trkpt lat="37.945221" lon="-1.111761">
        <ele>55.4</ele>
        <time>2016-04-02T12:19:39Z</time>
      </trkpt>
      <trkpt lat="37.945255" lon="-1.111719">
        <ele>55.9</ele>
        <time>2016-04-02T12:19:43Z</time>
      </trkpt>
      <trkpt lat="37.945331" lon="-1.111663">
        <ele>55.9</ele>
        <time>2016-04-02T12:19:51Z</time>
      </trkpt>
      <trkpt lat="37.945392" lon="-1.111649">
        <ele>56.9</ele>
        <time>2016-04-02T12:19:56Z</time>
      </trkpt>
      <trkpt lat="37.945573" lon="-1.111813">
        <ele>55.4</ele>
        <time>2016-04-02T12:20:11Z</time>
      </trkpt>
      <trkpt lat="37.945644" lon="-1.111829">
        <ele>54.9</ele>
        <time>2016-04-02T12:20:16Z</time>
      </trkpt>
      <trkpt lat="37.945770" lon="-1.111865">
        <ele>54.0</ele>
        <time>2016-04-02T12:20:28Z</time>
      </trkpt>
      <trkpt lat="37.945787" lon="-1.111859">
        <ele>54.5</ele>
        <time>2016-04-02T12:20:40Z</time>
      </trkpt>
      <trkpt lat="37.945998" lon="-1.111955">
        <ele>53.0</ele>
        <time>2016-04-02T12:20:56Z</time>
      </trkpt>
      <trkpt lat="37.946201" lon="-1.112063">
        <ele>52.0</ele>
        <time>2016-04-02T12:21:13Z</time>
      </trkpt>
      <trkpt lat="37.946407" lon="-1.112144">
        <ele>51.6</ele>
        <time>2016-04-02T12:21:28Z</time>
      </trkpt>
      <trkpt lat="37.946552" lon="-1.112187">
        <ele>51.6</ele>
        <time>2016-04-02T12:21:39Z</time>
      </trkpt>
      <trkpt lat="37.946775" lon="-1.112353">
        <ele>50.1</ele>
        <time>2016-04-02T12:21:58Z</time>
      </trkpt>
      <trkpt lat="37.946845" lon="-1.112582">
        <ele>50.1</ele>
        <time>2016-04-02T12:22:11Z</time>
      </trkpt>
      <trkpt lat="37.947016" lon="-1.112683">
        <ele>51.1</ele>
        <time>2016-04-02T12:22:24Z</time>
      </trkpt>
      <trkpt lat="37.947058" lon="-1.112822">
        <ele>50.6</ele>
        <time>2016-04-02T12:22:33Z</time>
      </trkpt>
      <trkpt lat="37.947050" lon="-1.113006">
        <ele>50.1</ele>
        <time>2016-04-02T12:22:48Z</time>
      </trkpt>
      <trkpt lat="37.947056" lon="-1.113012">
        <ele>50.6</ele>
        <time>2016-04-02T12:22:51Z</time>
      </trkpt>
      <trkpt lat="37.947260" lon="-1.113005">
        <ele>51.1</ele>
        <time>2016-04-02T12:23:07Z</time>
      </trkpt>
      <trkpt lat="37.947324" lon="-1.112788">
        <ele>51.1</ele>
        <time>2016-04-02T12:23:21Z</time>
      </trkpt>
      <trkpt lat="37.947392" lon="-1.112715">
        <ele>50.6</ele>
        <time>2016-04-02T12:23:35Z</time>
      </trkpt>
      <trkpt lat="37.947436" lon="-1.112688">
        <ele>50.6</ele>
        <time>2016-04-02T12:23:46Z</time>
      </trkpt>
      <trkpt lat="37.947593" lon="-1.112745">
        <ele>50.1</ele>
        <time>2016-04-02T12:23:59Z</time>
      </trkpt>
      <trkpt lat="37.947768" lon="-1.112864">
        <ele>50.6</ele>
        <time>2016-04-02T12:24:15Z</time>
      </trkpt>
      <trkpt lat="37.947956" lon="-1.112962">
        <ele>50.1</ele>
        <time>2016-04-02T12:24:31Z</time>
      </trkpt>
      <trkpt lat="37.948044" lon="-1.113034">
        <ele>51.1</ele>
        <time>2016-04-02T12:24:41Z</time>
      </trkpt>
      <trkpt lat="37.948090" lon="-1.113074">
        <ele>50.6</ele>
        <time>2016-04-02T12:24:46Z</time>
      </trkpt>
      <trkpt lat="37.948245" lon="-1.113154">
        <ele>50.1</ele>
        <time>2016-04-02T12:24:59Z</time>
      </trkpt>
      <trkpt lat="37.948499" lon="-1.113321">
        <ele>50.6</ele>
        <time>2016-04-02T12:25:19Z</time>
      </trkpt>
      <trkpt lat="37.948740" lon="-1.113442">
        <ele>50.1</ele>
        <time>2016-04-02T12:25:35Z</time>
      </trkpt>
      <trkpt lat="37.948866" lon="-1.113502">
        <ele>50.6</ele>
        <time>2016-04-02T12:25:45Z</time>
      </trkpt>
      <trkpt lat="37.949035" lon="-1.113542">
        <ele>50.6</ele>
        <time>2016-04-02T12:25:57Z</time>
      </trkpt>
      <trkpt lat="37.949137" lon="-1.113589">
        <ele>50.1</ele>
        <time>2016-04-02T12:26:06Z</time>
      </trkpt>
      <trkpt lat="37.949203" lon="-1.113637">
        <ele>51.1</ele>
        <time>2016-04-02T12:26:13Z</time>
      </trkpt>
      <trkpt lat="37.949444" lon="-1.113754">
        <ele>51.6</ele>
        <time>2016-04-02T12:26:34Z</time>
      </trkpt>
      <trkpt lat="37.949683" lon="-1.113859">
        <ele>51.1</ele>
        <time>2016-04-02T12:26:54Z</time>
      </trkpt>
      <trkpt lat="37.950032" lon="-1.113968">
        <ele>51.1</ele>
        <time>2016-04-02T12:27:19Z</time>
      </trkpt>
      <trkpt lat="37.950212" lon="-1.114049">
        <ele>50.1</ele>
        <time>2016-04-02T12:27:35Z</time>
      </trkpt>
      <trkpt lat="37.950194" lon="-1.114087">
        <ele>50.6</ele>
        <time>2016-04-02T12:28:00Z</time>
      </trkpt>
      <trkpt lat="37.950286" lon="-1.114124">
        <ele>50.6</ele>
        <time>2016-04-02T12:28:17Z</time>
      </trkpt>
      <trkpt lat="37.950547" lon="-1.114221">
        <ele>50.1</ele>
        <time>2016-04-02T12:28:37Z</time>
      </trkpt>
      <trkpt lat="37.950547" lon="-1.114225">
        <ele>50.6</ele>
        <time>2016-04-02T12:28:54Z</time>
      </trkpt>
      <trkpt lat="37.950801" lon="-1.114297">
        <ele>50.6</ele>
        <time>2016-04-02T12:29:12Z</time>
      </trkpt>
      <trkpt lat="37.951100" lon="-1.114395">
        <ele>50.1</ele>
        <time>2016-04-02T12:29:33Z</time>
      </trkpt>
      <trkpt lat="37.951360" lon="-1.114466">
        <ele>51.1</ele>
        <time>2016-04-02T12:29:52Z</time>
      </trkpt>
      <trkpt lat="37.951591" lon="-1.114524">
        <ele>51.1</ele>
        <time>2016-04-02T12:30:08Z</time>
      </trkpt>
      <trkpt lat="37.951804" lon="-1.114633">
        <ele>50.6</ele>
        <time>2016-04-02T12:30:24Z</time>
      </trkpt>
      <trkpt lat="37.952044" lon="-1.114729">
        <ele>51.1</ele>
        <time>2016-04-02T12:30:41Z</time>
      </trkpt>
      <trkpt lat="37.952310" lon="-1.114859">
        <ele>51.1</ele>
        <time>2016-04-02T12:31:00Z</time>
      </trkpt>
      <trkpt lat="37.952523" lon="-1.115021">
        <ele>52.0</ele>
        <time>2016-04-02T12:31:18Z</time>
      </trkpt>
      <trkpt lat="37.952767" lon="-1.115146">
        <ele>51.6</ele>
        <time>2016-04-02T12:31:36Z</time>
      </trkpt>
      <trkpt lat="37.953022" lon="-1.115249">
        <ele>52.0</ele>
        <time>2016-04-02T12:31:55Z</time>
      </trkpt>
      <trkpt lat="37.953193" lon="-1.115344">
        <ele>52.5</ele>
        <time>2016-04-02T12:32:10Z</time>
      </trkpt>
      <trkpt lat="37.953428" lon="-1.115514">
        <ele>52.5</ele>
        <time>2016-04-02T12:32:29Z</time>
      </trkpt>
      <trkpt lat="37.953660" lon="-1.115672">
        <ele>53.0</ele>
        <time>2016-04-02T12:32:47Z</time>
      </trkpt>
      <trkpt lat="37.953750" lon="-1.115726">
        <ele>54.0</ele>
        <time>2016-04-02T12:32:54Z</time>
      </trkpt>
      <trkpt lat="37.953961" lon="-1.115884">
        <ele>55.9</ele>
        <time>2016-04-02T12:33:12Z</time>
      </trkpt>
      <trkpt lat="37.954083" lon="-1.116007">
        <ele>56.4</ele>
        <time>2016-04-02T12:33:24Z</time>
      </trkpt>
      <trkpt lat="37.954130" lon="-1.116029">
        <ele>56.9</ele>
        <time>2016-04-02T12:33:28Z</time>
      </trkpt>
      <trkpt lat="37.954246" lon="-1.116080">
        <ele>57.3</ele>
        <time>2016-04-02T12:33:40Z</time>
      </trkpt>
      <trkpt lat="37.954420" lon="-1.116192">
        <ele>56.9</ele>
        <time>2016-04-02T12:33:57Z</time>
      </trkpt>
      <trkpt lat="37.954475" lon="-1.116243">
        <ele>57.3</ele>
        <time>2016-04-02T12:34:04Z</time>
      </trkpt>
      <trkpt lat="37.954653" lon="-1.116349">
        <ele>55.4</ele>
        <time>2016-04-02T12:34:21Z</time>
      </trkpt>
      <trkpt lat="37.954808" lon="-1.116456">
        <ele>54.9</ele>
        <time>2016-04-02T12:34:36Z</time>
      </trkpt>
      <trkpt lat="37.954984" lon="-1.116578">
        <ele>53.5</ele>
        <time>2016-04-02T12:34:52Z</time>
      </trkpt>
      <trkpt lat="37.955188" lon="-1.116728">
        <ele>53.0</ele>
        <time>2016-04-02T12:35:07Z</time>
      </trkpt>
      <trkpt lat="37.955274" lon="-1.116790">
        <ele>51.6</ele>
        <time>2016-04-02T12:35:14Z</time>
      </trkpt>
      <trkpt lat="37.955492" lon="-1.116941">
        <ele>51.1</ele>
        <time>2016-04-02T12:35:32Z</time>
      </trkpt>
      <trkpt lat="37.955762" lon="-1.117112">
        <ele>51.1</ele>
        <time>2016-04-02T12:35:53Z</time>
      </trkpt>
      <trkpt lat="37.955931" lon="-1.117199">
        <ele>50.6</ele>
        <time>2016-04-02T12:36:08Z</time>
      </trkpt>
      <trkpt lat="37.955990" lon="-1.117216">
        <ele>51.1</ele>
        <time>2016-04-02T12:36:13Z</time>
      </trkpt>
      <trkpt lat="37.956213" lon="-1.117303">
        <ele>50.6</ele>
        <time>2016-04-02T12:36:30Z</time>
      </trkpt>
      <trkpt lat="37.956385" lon="-1.117369">
        <ele>51.1</ele>
        <time>2016-04-02T12:36:44Z</time>
      </trkpt>
      <trkpt lat="37.956590" lon="-1.117461">
        <ele>51.1</ele>
        <time>2016-04-02T12:37:01Z</time>
      </trkpt>
      <trkpt lat="37.956785" lon="-1.117535">
        <ele>50.6</ele>
        <time>2016-04-02T12:37:15Z</time>
      </trkpt>
      <trkpt lat="37.956797" lon="-1.117538">
        <ele>50.6</ele>
        <time>2016-04-02T12:37:16Z</time>
      </trkpt>
      <trkpt lat="37.956851" lon="-1.117571">
        <ele>51.1</ele>
        <time>2016-04-02T12:37:21Z</time>
      </trkpt>
      <trkpt lat="37.957126" lon="-1.117705">
        <ele>51.1</ele>
        <time>2016-04-02T12:37:42Z</time>
      </trkpt>
      <trkpt lat="37.957319" lon="-1.117794">
        <ele>51.1</ele>
        <time>2016-04-02T12:37:59Z</time>
      </trkpt>
      <trkpt lat="37.957526" lon="-1.117897">
        <ele>50.6</ele>
        <time>2016-04-02T12:38:16Z</time>
      </trkpt>
      <trkpt lat="37.957671" lon="-1.117979">
        <ele>50.1</ele>
        <time>2016-04-02T12:38:30Z</time>
      </trkpt>
      <trkpt lat="37.957845" lon="-1.118053">
        <ele>50.6</ele>
        <time>2016-04-02T12:38:45Z</time>
      </trkpt>
      <trkpt lat="37.957902" lon="-1.118070">
        <ele>49.7</ele>
        <time>2016-04-02T12:38:49Z</time>
      </trkpt>
      <trkpt lat="37.958078" lon="-1.118130">
        <ele>50.6</ele>
        <time>2016-04-02T12:39:05Z</time>
      </trkpt>
      <trkpt lat="37.958193" lon="-1.118163">
        <ele>50.6</ele>
        <time>2016-04-02T12:39:16Z</time>
      </trkpt>
      <trkpt lat="37.958389" lon="-1.118246">
        <ele>50.6</ele>
        <time>2016-04-02T12:39:30Z</time>
      </trkpt>
      <trkpt lat="37.958615" lon="-1.118371">
        <ele>51.1</ele>
        <time>2016-04-02T12:39:46Z</time>
      </trkpt>
      <trkpt lat="37.958859" lon="-1.118499">
        <ele>51.1</ele>
        <time>2016-04-02T12:40:04Z</time>
      </trkpt>
      <trkpt lat="37.959082" lon="-1.118607">
        <ele>50.6</ele>
        <time>2016-04-02T12:40:22Z</time>
      </trkpt>
      <trkpt lat="37.959338" lon="-1.118713">
        <ele>50.6</ele>
        <time>2016-04-02T12:40:41Z</time>
      </trkpt>
      <trkpt lat="37.959531" lon="-1.118798">
        <ele>50.1</ele>
        <time>2016-04-02T12:40:58Z</time>
      </trkpt>
      <trkpt lat="37.959692" lon="-1.118866">
        <ele>50.1</ele>
        <time>2016-04-02T12:41:13Z</time>
      </trkpt>
      <trkpt lat="37.959702" lon="-1.118870">
        <ele>49.7</ele>
        <time>2016-04-02T12:41:14Z</time>
      </trkpt>
      <trkpt lat="37.959958" lon="-1.118991">
        <ele>50.6</ele>
        <time>2016-04-02T12:41:32Z</time>
      </trkpt>
      <trkpt lat="37.960189" lon="-1.119105">
        <ele>50.6</ele>
        <time>2016-04-02T12:41:49Z</time>
      </trkpt>
      <trkpt lat="37.960315" lon="-1.119145">
        <ele>50.6</ele>
        <time>2016-04-02T12:41:59Z</time>
      </trkpt>
      <trkpt lat="37.960503" lon="-1.119301">
        <ele>50.6</ele>
        <time>2016-04-02T12:42:14Z</time>
      </trkpt>
      <trkpt lat="37.960749" lon="-1.119383">
        <ele>50.1</ele>
        <time>2016-04-02T12:42:30Z</time>
      </trkpt>
      <trkpt lat="37.960952" lon="-1.119486">
        <ele>50.6</ele>
        <time>2016-04-02T12:42:45Z</time>
      </trkpt>
      <trkpt lat="37.961010" lon="-1.119507">
        <ele>50.6</ele>
        <time>2016-04-02T12:42:49Z</time>
      </trkpt>
      <trkpt lat="37.961032" lon="-1.119521">
        <ele>50.6</ele>
        <time>2016-04-02T12:42:51Z</time>
      </trkpt>
      <trkpt lat="37.961052" lon="-1.119528">
        <ele>51.1</ele>
        <time>2016-04-02T12:42:53Z</time>
      </trkpt>
      <trkpt lat="37.961322" lon="-1.119634">
        <ele>50.6</ele>
        <time>2016-04-02T12:43:12Z</time>
      </trkpt>
      <trkpt lat="37.961360" lon="-1.119652">
        <ele>51.1</ele>
        <time>2016-04-02T12:43:15Z</time>
      </trkpt>
      <trkpt lat="37.961490" lon="-1.119706">
        <ele>51.1</ele>
        <time>2016-04-02T12:43:26Z</time>
      </trkpt>
      <trkpt lat="37.961654" lon="-1.119764">
        <ele>52.0</ele>
        <time>2016-04-02T12:43:40Z</time>
      </trkpt>
      <trkpt lat="37.961896" lon="-1.119791">
        <ele>50.1</ele>
        <time>2016-04-02T12:43:57Z</time>
      </trkpt>
      <trkpt lat="37.962089" lon="-1.119878">
        <ele>50.1</ele>
        <time>2016-04-02T12:44:13Z</time>
      </trkpt>
      <trkpt lat="37.962398" lon="-1.119915">
        <ele>49.7</ele>
        <time>2016-04-02T12:44:34Z</time>
      </trkpt>
      <trkpt lat="37.962423" lon="-1.119924">
        <ele>49.7</ele>
        <time>2016-04-02T12:44:36Z</time>
      </trkpt>
      <trkpt lat="37.962474" lon="-1.119956">
        <ele>49.2</ele>
        <time>2016-04-02T12:44:42Z</time>
      </trkpt>
      <trkpt lat="37.962561" lon="-1.119930">
        <ele>50.1</ele>
        <time>2016-04-02T12:44:55Z</time>
      </trkpt>
      <trkpt lat="37.962615" lon="-1.119976">
        <ele>49.7</ele>
        <time>2016-04-02T12:45:06Z</time>
      </trkpt>
      <trkpt lat="37.962705" lon="-1.120080">
        <ele>49.7</ele>
        <time>2016-04-02T12:45:18Z</time>
      </trkpt>
      <trkpt lat="37.962850" lon="-1.120050">
        <ele>49.7</ele>
        <time>2016-04-02T12:45:23Z</time>
      </trkpt>
      <trkpt lat="37.962927" lon="-1.120035">
        <ele>50.1</ele>
        <time>2016-04-02T12:45:27Z</time>
      </trkpt>
      <trkpt lat="37.963100" lon="-1.120115">
        <ele>50.1</ele>
        <time>2016-04-02T12:45:42Z</time>
      </trkpt>
      <trkpt lat="37.963128" lon="-1.120131">
        <ele>50.1</ele>
        <time>2016-04-02T12:45:45Z</time>
      </trkpt>
      <trkpt lat="37.963367" lon="-1.120148">
        <ele>50.1</ele>
        <time>2016-04-02T12:46:01Z</time>
      </trkpt>
      <trkpt lat="37.963466" lon="-1.120160">
        <ele>50.1</ele>
        <time>2016-04-02T12:46:07Z</time>
      </trkpt>
      <trkpt lat="37.963651" lon="-1.120239">
        <ele>49.2</ele>
        <time>2016-04-02T12:46:20Z</time>
      </trkpt>
      <trkpt lat="37.963798" lon="-1.120247">
        <ele>50.1</ele>
        <time>2016-04-02T12:46:28Z</time>
      </trkpt>
      <trkpt lat="37.963849" lon="-1.120253">
        <ele>50.1</ele>
        <time>2016-04-02T12:46:31Z</time>
      </trkpt>
      <trkpt lat="37.964073" lon="-1.120323">
        <ele>50.1</ele>
        <time>2016-04-02T12:46:47Z</time>
      </trkpt>
      <trkpt lat="37.964183" lon="-1.120324">
        <ele>50.6</ele>
        <time>2016-04-02T12:46:57Z</time>
      </trkpt>
      <trkpt lat="37.964209" lon="-1.120322">
        <ele>51.1</ele>
        <time>2016-04-02T12:46:59Z</time>
      </trkpt>
      <trkpt lat="37.964307" lon="-1.120371">
        <ele>50.6</ele>
        <time>2016-04-02T12:47:08Z</time>
      </trkpt>
      <trkpt lat="37.964351" lon="-1.120500">
        <ele>50.1</ele>
        <time>2016-04-02T12:47:19Z</time>
      </trkpt>
      <trkpt lat="37.964474" lon="-1.120552">
        <ele>50.1</ele>
        <time>2016-04-02T12:47:31Z</time>
      </trkpt>
      <trkpt lat="37.964762" lon="-1.120609">
        <ele>50.1</ele>
        <time>2016-04-02T12:47:45Z</time>
      </trkpt>
      <trkpt lat="37.964866" lon="-1.120684">
        <ele>49.7</ele>
        <time>2016-04-02T12:47:58Z</time>
      </trkpt>
      <trkpt lat="37.964899" lon="-1.120660">
        <ele>49.7</ele>
        <time>2016-04-02T12:48:02Z</time>
      </trkpt>
      <trkpt lat="37.964899" lon="-1.120664">
        <ele>50.1</ele>
        <time>2016-04-02T12:48:17Z</time>
      </trkpt>
      <trkpt lat="37.964930" lon="-1.120663">
        <ele>49.7</ele>
        <time>2016-04-02T12:48:21Z</time>
      </trkpt>
      <trkpt lat="37.965163" lon="-1.120701">
        <ele>49.7</ele>
        <time>2016-04-02T12:48:35Z</time>
      </trkpt>
      <trkpt lat="37.965221" lon="-1.120722">
        <ele>49.7</ele>
        <time>2016-04-02T12:48:39Z</time>
      </trkpt>
      <trkpt lat="37.965271" lon="-1.120767">
        <ele>49.7</ele>
        <time>2016-04-02T12:48:44Z</time>
      </trkpt>
      <trkpt lat="37.965371" lon="-1.120812">
        <ele>50.1</ele>
        <time>2016-04-02T12:48:52Z</time>
      </trkpt>
      <trkpt lat="37.965507" lon="-1.120855">
        <ele>49.2</ele>
        <time>2016-04-02T12:49:06Z</time>
      </trkpt>
      <trkpt lat="37.965560" lon="-1.120940">
        <ele>48.7</ele>
        <time>2016-04-02T12:49:10Z</time>
      </trkpt>
      <trkpt lat="37.965604" lon="-1.120950">
        <ele>49.2</ele>
        <time>2016-04-02T12:49:12Z</time>
      </trkpt>
      <trkpt lat="37.965982" lon="-1.120985">
        <ele>49.7</ele>
        <time>2016-04-02T12:49:27Z</time>
      </trkpt>
      <trkpt lat="37.966199" lon="-1.121063">
        <ele>49.7</ele>
        <time>2016-04-02T12:49:41Z</time>
      </trkpt>
      <trkpt lat="37.966345" lon="-1.121128">
        <ele>48.7</ele>
        <time>2016-04-02T12:49:55Z</time>
      </trkpt>
      <trkpt lat="37.966472" lon="-1.121162">
        <ele>49.2</ele>
        <time>2016-04-02T12:50:07Z</time>
      </trkpt>
      <trkpt lat="37.966575" lon="-1.121171">
        <ele>49.2</ele>
        <time>2016-04-02T12:50:13Z</time>
      </trkpt>
      <trkpt lat="37.966700" lon="-1.121204">
        <ele>49.2</ele>
        <time>2016-04-02T12:50:26Z</time>
      </trkpt>
      <trkpt lat="37.966795" lon="-1.121202">
        <ele>49.2</ele>
        <time>2016-04-02T12:50:32Z</time>
      </trkpt>
      <trkpt lat="37.966871" lon="-1.121242">
        <ele>49.7</ele>
        <time>2016-04-02T12:50:46Z</time>
      </trkpt>
      <trkpt lat="37.967209" lon="-1.121242">
        <ele>48.7</ele>
        <time>2016-04-02T12:52:39Z</time>
      </trkpt>
      <trkpt lat="37.967304" lon="-1.121195">
        <ele>49.2</ele>
        <time>2016-04-02T12:52:51Z</time>
      </trkpt>
      <trkpt lat="37.967389" lon="-1.121186">
        <ele>49.2</ele>
        <time>2016-04-02T12:52:57Z</time>
      </trkpt>
      <trkpt lat="37.967492" lon="-1.121232">
        <ele>49.2</ele>
        <time>2016-04-02T12:53:09Z</time>
      </trkpt>
      <trkpt lat="37.967549" lon="-1.121240">
        <ele>48.7</ele>
        <time>2016-04-02T12:53:13Z</time>
      </trkpt>
      <trkpt lat="37.967604" lon="-1.121276">
        <ele>48.7</ele>
        <time>2016-04-02T12:53:17Z</time>
      </trkpt>
      <trkpt lat="37.967634" lon="-1.121286">
        <ele>48.2</ele>
        <time>2016-04-02T12:53:19Z</time>
      </trkpt>
      <trkpt lat="37.967709" lon="-1.121302">
        <ele>48.2</ele>
        <time>2016-04-02T12:53:26Z</time>
      </trkpt>
      <trkpt lat="37.967755" lon="-1.121275">
        <ele>48.7</ele>
        <time>2016-04-02T12:53:33Z</time>
      </trkpt>
      <trkpt lat="37.967911" lon="-1.121345">
        <ele>48.7</ele>
        <time>2016-04-02T12:53:45Z</time>
      </trkpt>
      <trkpt lat="37.967981" lon="-1.121337">
        <ele>48.2</ele>
        <time>2016-04-02T12:53:51Z</time>
      </trkpt>
      <trkpt lat="37.968168" lon="-1.121363">
        <ele>47.7</ele>
        <time>2016-04-02T12:54:04Z</time>
      </trkpt>
      <trkpt lat="37.968203" lon="-1.121418">
        <ele>48.2</ele>
        <time>2016-04-02T12:54:16Z</time>
      </trkpt>
      <trkpt lat="37.968230" lon="-1.121422">
        <ele>48.2</ele>
        <time>2016-04-02T12:54:21Z</time>
      </trkpt>
      <trkpt lat="37.968253" lon="-1.121416">
        <ele>48.2</ele>
        <time>2016-04-02T12:54:25Z</time>
      </trkpt>
      <trkpt lat="37.968289" lon="-1.121408">
        <ele>48.7</ele>
        <time>2016-04-02T12:54:28Z</time>
      </trkpt>
      <trkpt lat="37.968346" lon="-1.121412">
        <ele>48.2</ele>
        <time>2016-04-02T12:54:32Z</time>
      </trkpt>
      <trkpt lat="37.968413" lon="-1.121432">
        <ele>48.2</ele>
        <time>2016-04-02T12:54:38Z</time>
      </trkpt>
      <trkpt lat="37.968572" lon="-1.121497">
        <ele>48.2</ele>
        <time>2016-04-02T12:54:48Z</time>
      </trkpt>
      <trkpt lat="37.968696" lon="-1.121491">
        <ele>48.2</ele>
        <time>2016-04-02T12:55:00Z</time>
      </trkpt>
      <trkpt lat="37.968977" lon="-1.121428">
        <ele>48.7</ele>
        <time>2016-04-02T12:55:14Z</time>
      </trkpt>
      <trkpt lat="37.969175" lon="-1.121444">
        <ele>48.2</ele>
        <time>2016-04-02T12:55:28Z</time>
      </trkpt>
      <trkpt lat="37.969332" lon="-1.121503">
        <ele>48.2</ele>
        <time>2016-04-02T12:55:40Z</time>
      </trkpt>
      <trkpt lat="37.969391" lon="-1.121518">
        <ele>48.2</ele>
        <time>2016-04-02T12:55:51Z</time>
      </trkpt>
      <trkpt lat="37.969628" lon="-1.121493">
        <ele>48.7</ele>
        <time>2016-04-02T12:56:06Z</time>
      </trkpt>
      <trkpt lat="37.969821" lon="-1.121599">
        <ele>48.7</ele>
        <time>2016-04-02T12:56:18Z</time>
      </trkpt>
      <trkpt lat="37.969900" lon="-1.121612">
        <ele>48.7</ele>
        <time>2016-04-02T12:56:26Z</time>
      </trkpt>
      <trkpt lat="37.970006" lon="-1.121625">
        <ele>48.2</ele>
        <time>2016-04-02T12:56:33Z</time>
      </trkpt>
      <trkpt lat="37.970080" lon="-1.121665">
        <ele>48.7</ele>
        <time>2016-04-02T12:56:37Z</time>
      </trkpt>
      <trkpt lat="37.970103" lon="-1.121701">
        <ele>48.7</ele>
        <time>2016-04-02T12:56:39Z</time>
      </trkpt>
      <trkpt lat="37.970128" lon="-1.121875">
        <ele>48.2</ele>
        <time>2016-04-02T12:56:49Z</time>
      </trkpt>
      <trkpt lat="37.970211" lon="-1.121916">
        <ele>48.7</ele>
        <time>2016-04-02T12:56:57Z</time>
      </trkpt>
      <trkpt lat="37.970315" lon="-1.121973">
        <ele>48.7</ele>
        <time>2016-04-02T12:57:05Z</time>
      </trkpt>
      <trkpt lat="37.970350" lon="-1.122009">
        <ele>48.7</ele>
        <time>2016-04-02T12:57:08Z</time>
      </trkpt>
      <trkpt lat="37.970408" lon="-1.122012">
        <ele>48.2</ele>
        <time>2016-04-02T12:57:15Z</time>
      </trkpt>
      <trkpt lat="37.970561" lon="-1.121919">
        <ele>48.2</ele>
        <time>2016-04-02T12:57:29Z</time>
      </trkpt>
      <trkpt lat="37.970730" lon="-1.121890">
        <ele>47.7</ele>
        <time>2016-04-02T12:57:44Z</time>
      </trkpt>
      <trkpt lat="37.970923" lon="-1.121985">
        <ele>47.7</ele>
        <time>2016-04-02T12:58:02Z</time>
      </trkpt>
      <trkpt lat="37.970996" lon="-1.121983">
        <ele>48.2</ele>
        <time>2016-04-02T12:58:08Z</time>
      </trkpt>
      <trkpt lat="37.971078" lon="-1.122010">
        <ele>48.2</ele>
        <time>2016-04-02T12:58:18Z</time>
      </trkpt>
      <trkpt lat="37.971107" lon="-1.122013">
        <ele>48.7</ele>
        <time>2016-04-02T12:58:20Z</time>
      </trkpt>
      <trkpt lat="37.971279" lon="-1.122071">
        <ele>48.2</ele>
        <time>2016-04-02T12:58:35Z</time>
      </trkpt>
      <trkpt lat="37.971297" lon="-1.122095">
        <ele>48.2</ele>
        <time>2016-04-02T12:58:38Z</time>
      </trkpt>
      <trkpt lat="37.971453" lon="-1.122142">
        <ele>48.2</ele>
        <time>2016-04-02T12:58:53Z</time>
      </trkpt>
      <trkpt lat="37.971589" lon="-1.122189">
        <ele>48.7</ele>
        <time>2016-04-02T12:59:05Z</time>
      </trkpt>
      <trkpt lat="37.971792" lon="-1.122248">
        <ele>48.7</ele>
        <time>2016-04-02T12:59:20Z</time>
      </trkpt>
      <trkpt lat="37.971915" lon="-1.122342">
        <ele>48.7</ele>
        <time>2016-04-02T12:59:33Z</time>
      </trkpt>
      <trkpt lat="37.972025" lon="-1.122416">
        <ele>48.7</ele>
        <time>2016-04-02T12:59:47Z</time>
      </trkpt>
      <trkpt lat="37.972142" lon="-1.122516">
        <ele>48.7</ele>
        <time>2016-04-02T13:00:01Z</time>
      </trkpt>
      <trkpt lat="37.972299" lon="-1.122620">
        <ele>49.2</ele>
        <time>2016-04-02T13:00:12Z</time>
      </trkpt>
      <trkpt lat="37.972317" lon="-1.122631">
        <ele>49.2</ele>
        <time>2016-04-02T13:00:14Z</time>
      </trkpt>
      <trkpt lat="37.972430" lon="-1.122658">
        <ele>49.2</ele>
        <time>2016-04-02T13:00:21Z</time>
      </trkpt>
      <trkpt lat="37.972652" lon="-1.122778">
        <ele>49.2</ele>
        <time>2016-04-02T13:00:38Z</time>
      </trkpt>
      <trkpt lat="37.972906" lon="-1.122852">
        <ele>49.7</ele>
        <time>2016-04-02T13:00:55Z</time>
      </trkpt>
      <trkpt lat="37.973053" lon="-1.122957">
        <ele>49.2</ele>
        <time>2016-04-02T13:01:07Z</time>
      </trkpt>
      <trkpt lat="37.973101" lon="-1.122995">
        <ele>49.7</ele>
        <time>2016-04-02T13:01:11Z</time>
      </trkpt>
      <trkpt lat="37.973332" lon="-1.122991">
        <ele>49.7</ele>
        <time>2016-04-02T13:01:27Z</time>
      </trkpt>
      <trkpt lat="37.973349" lon="-1.122991">
        <ele>49.7</ele>
        <time>2016-04-02T13:01:28Z</time>
      </trkpt>
      <trkpt lat="37.973592" lon="-1.123137">
        <ele>50.1</ele>
        <time>2016-04-02T13:01:39Z</time>
      </trkpt>
      <trkpt lat="37.973611" lon="-1.123177">
        <ele>51.1</ele>
        <time>2016-04-02T13:01:41Z</time>
      </trkpt>
      <trkpt lat="37.973648" lon="-1.123194">
        <ele>50.1</ele>
        <time>2016-04-02T13:01:44Z</time>
      </trkpt>
      <trkpt lat="37.973818" lon="-1.123208">
        <ele>50.1</ele>
        <time>2016-04-02T13:01:58Z</time>
      </trkpt>
      <trkpt lat="37.973936" lon="-1.123226">
        <ele>50.1</ele>
        <time>2016-04-02T13:02:08Z</time>
      </trkpt>
      <trkpt lat="37.974108" lon="-1.123249">
        <ele>50.1</ele>
        <time>2016-04-02T13:02:22Z</time>
      </trkpt>
      <trkpt lat="37.974169" lon="-1.123269">
        <ele>50.1</ele>
        <time>2016-04-02T13:02:26Z</time>
      </trkpt>
      <trkpt lat="37.974369" lon="-1.123320">
        <ele>50.1</ele>
        <time>2016-04-02T13:02:41Z</time>
      </trkpt>
      <trkpt lat="37.974542" lon="-1.123365">
        <ele>50.1</ele>
        <time>2016-04-02T13:02:53Z</time>
      </trkpt>
      <trkpt lat="37.974646" lon="-1.123381">
        <ele>50.1</ele>
        <time>2016-04-02T13:03:02Z</time>
      </trkpt>
      <trkpt lat="37.974842" lon="-1.123408">
        <ele>50.1</ele>
        <time>2016-04-02T13:03:16Z</time>
      </trkpt>
      <trkpt lat="37.974967" lon="-1.123425">
        <ele>50.1</ele>
        <time>2016-04-02T13:03:27Z</time>
      </trkpt>
      <trkpt lat="37.975039" lon="-1.123452">
        <ele>49.7</ele>
        <time>2016-04-02T13:03:35Z</time>
      </trkpt>
      <trkpt lat="37.975327" lon="-1.123490">
        <ele>50.6</ele>
        <time>2016-04-02T13:03:54Z</time>
      </trkpt>
      <trkpt lat="37.975526" lon="-1.123563">
        <ele>51.1</ele>
        <time>2016-04-02T13:04:07Z</time>
      </trkpt>
      <trkpt lat="37.975658" lon="-1.123594">
        <ele>51.1</ele>
        <time>2016-04-02T13:04:16Z</time>
      </trkpt>
      <trkpt lat="37.975774" lon="-1.123681">
        <ele>51.1</ele>
        <time>2016-04-02T13:04:27Z</time>
      </trkpt>
      <trkpt lat="37.975867" lon="-1.123717">
        <ele>51.6</ele>
        <time>2016-04-02T13:04:33Z</time>
      </trkpt>
      <trkpt lat="37.975927" lon="-1.123845">
        <ele>51.6</ele>
        <time>2016-04-02T13:04:43Z</time>
      </trkpt>
      <trkpt lat="37.975962" lon="-1.123880">
        <ele>51.1</ele>
        <time>2016-04-02T13:04:46Z</time>
      </trkpt>
      <trkpt lat="37.976191" lon="-1.123997">
        <ele>51.1</ele>
        <time>2016-04-02T13:04:59Z</time>
      </trkpt>
      <trkpt lat="37.976319" lon="-1.124107">
        <ele>51.6</ele>
        <time>2016-04-02T13:05:11Z</time>
      </trkpt>
      <trkpt lat="37.976410" lon="-1.124213">
        <ele>51.1</ele>
        <time>2016-04-02T13:05:23Z</time>
      </trkpt>
      <trkpt lat="37.976455" lon="-1.124287">
        <ele>51.6</ele>
        <time>2016-04-02T13:05:29Z</time>
      </trkpt>
      <trkpt lat="37.976596" lon="-1.124511">
        <ele>52.0</ele>
        <time>2016-04-02T13:05:43Z</time>
      </trkpt>
      <trkpt lat="37.976703" lon="-1.124653">
        <ele>52.5</ele>
        <time>2016-04-02T13:05:50Z</time>
      </trkpt>
      <trkpt lat="37.976760" lon="-1.124764">
        <ele>52.0</ele>
        <time>2016-04-02T13:05:55Z</time>
      </trkpt>
      <trkpt lat="37.976870" lon="-1.124986">
        <ele>52.0</ele>
        <time>2016-04-02T13:06:10Z</time>
      </trkpt>
      <trkpt lat="37.976911" lon="-1.125091">
        <ele>52.0</ele>
        <time>2016-04-02T13:06:17Z</time>
      </trkpt>
      <trkpt lat="37.976934" lon="-1.125142">
        <ele>52.5</ele>
        <time>2016-04-02T13:06:21Z</time>
      </trkpt>
      <trkpt lat="37.977008" lon="-1.125277">
        <ele>52.0</ele>
        <time>2016-04-02T13:06:30Z</time>
      </trkpt>
      <trkpt lat="37.977070" lon="-1.125407">
        <ele>52.5</ele>
        <time>2016-04-02T13:06:40Z</time>
      </trkpt>
      <trkpt lat="37.977172" lon="-1.125487">
        <ele>52.0</ele>
        <time>2016-04-02T13:06:49Z</time>
      </trkpt>
      <trkpt lat="37.977290" lon="-1.125593">
        <ele>52.0</ele>
        <time>2016-04-02T13:07:00Z</time>
      </trkpt>
      <trkpt lat="37.977301" lon="-1.125648">
        <ele>52.5</ele>
        <time>2016-04-02T13:07:04Z</time>
      </trkpt>
      <trkpt lat="37.977320" lon="-1.125738">
        <ele>52.5</ele>
        <time>2016-04-02T13:07:09Z</time>
      </trkpt>
      <trkpt lat="37.977335" lon="-1.125767">
        <ele>52.5</ele>
        <time>2016-04-02T13:07:11Z</time>
      </trkpt>
      <trkpt lat="37.977363" lon="-1.125868">
        <ele>52.5</ele>
        <time>2016-04-02T13:07:18Z</time>
      </trkpt>
      <trkpt lat="37.977391" lon="-1.125935">
        <ele>52.0</ele>
        <time>2016-04-02T13:07:22Z</time>
      </trkpt>
      <trkpt lat="37.977412" lon="-1.125961">
        <ele>52.5</ele>
        <time>2016-04-02T13:07:24Z</time>
      </trkpt>
      <trkpt lat="37.977454" lon="-1.126180">
        <ele>52.5</ele>
        <time>2016-04-02T13:07:38Z</time>
      </trkpt>
      <trkpt lat="37.977575" lon="-1.126371">
        <ele>52.5</ele>
        <time>2016-04-02T13:07:52Z</time>
      </trkpt>
      <trkpt lat="37.977657" lon="-1.126409">
        <ele>52.5</ele>
        <time>2016-04-02T13:07:58Z</time>
      </trkpt>
      <trkpt lat="37.977729" lon="-1.126616">
        <ele>52.5</ele>
        <time>2016-04-02T13:08:12Z</time>
      </trkpt>
      <trkpt lat="37.977836" lon="-1.126689">
        <ele>52.0</ele>
        <time>2016-04-02T13:08:22Z</time>
      </trkpt>
      <trkpt lat="37.978020" lon="-1.126726">
        <ele>52.5</ele>
        <time>2016-04-02T13:08:31Z</time>
      </trkpt>
      <trkpt lat="37.978049" lon="-1.126749">
        <ele>52.0</ele>
        <time>2016-04-02T13:08:33Z</time>
      </trkpt>
      <trkpt lat="37.978086" lon="-1.127049">
        <ele>52.5</ele>
        <time>2016-04-02T13:08:50Z</time>
      </trkpt>
      <trkpt lat="37.978136" lon="-1.127084">
        <ele>52.0</ele>
        <time>2016-04-02T13:08:54Z</time>
      </trkpt>
      <trkpt lat="37.978304" lon="-1.127254">
        <ele>51.6</ele>
        <time>2016-04-02T13:09:09Z</time>
      </trkpt>
      <trkpt lat="37.978351" lon="-1.127355">
        <ele>51.6</ele>
        <time>2016-04-02T13:09:15Z</time>
      </trkpt>
      <trkpt lat="37.978354" lon="-1.127415">
        <ele>52.0</ele>
        <time>2016-04-02T13:09:19Z</time>
      </trkpt>
      <trkpt lat="37.978392" lon="-1.127603">
        <ele>50.6</ele>
        <time>2016-04-02T13:09:35Z</time>
      </trkpt>
      <trkpt lat="37.978540" lon="-1.127716">
        <ele>51.1</ele>
        <time>2016-04-02T13:09:48Z</time>
      </trkpt>
      <trkpt lat="37.978638" lon="-1.127797">
        <ele>50.6</ele>
        <time>2016-04-02T13:09:58Z</time>
      </trkpt>
      <trkpt lat="37.978795" lon="-1.127952">
        <ele>50.6</ele>
        <time>2016-04-02T13:10:14Z</time>
      </trkpt>
      <trkpt lat="37.978935" lon="-1.128108">
        <ele>49.7</ele>
        <time>2016-04-02T13:10:27Z</time>
      </trkpt>
      <trkpt lat="37.978993" lon="-1.128197">
        <ele>51.1</ele>
        <time>2016-04-02T13:10:33Z</time>
      </trkpt>
      <trkpt lat="37.979040" lon="-1.128292">
        <ele>50.6</ele>
        <time>2016-04-02T13:10:38Z</time>
      </trkpt>
      <trkpt lat="37.979066" lon="-1.128340">
        <ele>50.6</ele>
        <time>2016-04-02T13:10:41Z</time>
      </trkpt>
      <trkpt lat="37.979767" lon="-1.129133">
        <ele>50.1</ele>
        <time>2016-04-02T13:12:04Z</time>
      </trkpt>
      <trkpt lat="37.979863" lon="-1.129247">
        <ele>51.1</ele>
        <time>2016-04-02T13:12:18Z</time>
      </trkpt>
      <trkpt lat="37.979886" lon="-1.129314">
        <ele>50.1</ele>
        <time>2016-04-02T13:12:24Z</time>
      </trkpt>
      <trkpt lat="37.979880" lon="-1.129530">
        <ele>51.1</ele>
        <time>2016-04-02T13:12:37Z</time>
      </trkpt>
      <trkpt lat="37.979873" lon="-1.129539">
        <ele>51.1</ele>
        <time>2016-04-02T13:12:41Z</time>
      </trkpt>
      <trkpt lat="37.980001" lon="-1.129714">
        <ele>50.6</ele>
        <time>2016-04-02T13:12:56Z</time>
      </trkpt>
      <trkpt lat="37.980012" lon="-1.129717">
        <ele>51.1</ele>
        <time>2016-04-02T13:12:58Z</time>
      </trkpt>
      <trkpt lat="37.980054" lon="-1.129730">
        <ele>51.1</ele>
        <time>2016-04-02T13:13:02Z</time>
      </trkpt>
      <trkpt lat="37.980131" lon="-1.129785">
        <ele>51.1</ele>
        <time>2016-04-02T13:13:12Z</time>
      </trkpt>
      <trkpt lat="37.980244" lon="-1.129854">
        <ele>50.6</ele>
        <time>2016-04-02T13:13:20Z</time>
      </trkpt>
      <trkpt lat="37.980333" lon="-1.129898">
        <ele>51.1</ele>
        <time>2016-04-02T13:13:25Z</time>
      </trkpt>
      <trkpt lat="37.980564" lon="-1.130079">
        <ele>51.1</ele>
        <time>2016-04-02T13:13:43Z</time>
      </trkpt>
      <trkpt lat="37.980702" lon="-1.130211">
        <ele>51.1</ele>
        <time>2016-04-02T13:13:55Z</time>
      </trkpt>
      <trkpt lat="37.980891" lon="-1.130341">
        <ele>51.1</ele>
        <time>2016-04-02T13:14:12Z</time>
      </trkpt>
      <trkpt lat="37.981005" lon="-1.130385">
        <ele>50.6</ele>
        <time>2016-04-02T13:14:27Z</time>
      </trkpt>
      <trkpt lat="37.981165" lon="-1.130576">
        <ele>50.6</ele>
        <time>2016-04-02T13:14:44Z</time>
      </trkpt>
      <trkpt lat="37.981228" lon="-1.130612">
        <ele>50.6</ele>
        <time>2016-04-02T13:14:49Z</time>
      </trkpt>
      <trkpt lat="37.981276" lon="-1.130659">
        <ele>51.1</ele>
        <time>2016-04-02T13:14:54Z</time>
      </trkpt>
      <trkpt lat="37.981343" lon="-1.130743">
        <ele>51.1</ele>
        <time>2016-04-02T13:15:05Z</time>
      </trkpt>
      <trkpt lat="37.981369" lon="-1.130806">
        <ele>50.6</ele>
        <time>2016-04-02T13:15:16Z</time>
      </trkpt>
      <trkpt lat="37.981417" lon="-1.130831">
        <ele>51.1</ele>
        <time>2016-04-02T13:15:21Z</time>
      </trkpt>
      <trkpt lat="37.981569" lon="-1.130923">
        <ele>50.6</ele>
        <time>2016-04-02T13:15:34Z</time>
      </trkpt>
      <trkpt lat="37.981638" lon="-1.130907">
        <ele>50.6</ele>
        <time>2016-04-02T13:15:46Z</time>
      </trkpt>
      <trkpt lat="37.981646" lon="-1.130905">
        <ele>51.1</ele>
        <time>2016-04-02T13:15:50Z</time>
      </trkpt>
      <trkpt lat="37.981805" lon="-1.131060">
        <ele>50.6</ele>
        <time>2016-04-02T13:16:04Z</time>
      </trkpt>
      <trkpt lat="37.981964" lon="-1.131209">
        <ele>50.1</ele>
        <time>2016-04-02T13:16:17Z</time>
      </trkpt>
      <trkpt lat="37.982067" lon="-1.131287">
        <ele>50.6</ele>
        <time>2016-04-02T13:16:25Z</time>
      </trkpt>
      <trkpt lat="37.982203" lon="-1.131418">
        <ele>51.1</ele>
        <time>2016-04-02T13:16:40Z</time>
      </trkpt>
      <trkpt lat="37.982419" lon="-1.131530">
        <ele>52.0</ele>
        <time>2016-04-02T13:16:56Z</time>
      </trkpt>
      <trkpt lat="37.982543" lon="-1.131507">
        <ele>53.0</ele>
        <time>2016-04-02T13:17:07Z</time>
      </trkpt>
      <trkpt lat="37.982575" lon="-1.131493">
        <ele>53.5</ele>
        <time>2016-04-02T13:17:19Z</time>
      </trkpt>
      <trkpt lat="37.982656" lon="-1.131521">
        <ele>54.0</ele>
        <time>2016-04-02T13:17:31Z</time>
      </trkpt>
      <trkpt lat="37.982809" lon="-1.131558">
        <ele>53.5</ele>
        <time>2016-04-02T13:17:46Z</time>
      </trkpt>
      <trkpt lat="37.982934" lon="-1.131603">
        <ele>53.5</ele>
        <time>2016-04-02T13:17:58Z</time>
      </trkpt>
      <trkpt lat="37.982996" lon="-1.131637">
        <ele>53.5</ele>
        <time>2016-04-02T13:18:11Z</time>
      </trkpt>
      <trkpt lat="37.982993" lon="-1.131636">
        <ele>53.5</ele>
        <time>2016-04-02T13:18:17Z</time>
      </trkpt>
      <trkpt lat="37.983023" lon="-1.131586">
        <ele>53.5</ele>
        <time>2016-04-02T13:18:32Z</time>
      </trkpt>
      <trkpt lat="37.982993" lon="-1.131582">
        <ele>54.0</ele>
        <time>2016-04-02T13:18:49Z</time>
      </trkpt>
      <trkpt lat="37.983012" lon="-1.131602">
        <ele>53.5</ele>
        <time>2016-04-02T13:19:00Z</time>
      </trkpt>
      <trkpt lat="37.983003" lon="-1.131570">
        <ele>54.0</ele>
        <time>2016-04-02T13:19:17Z</time>
      </trkpt>
      <trkpt lat="37.983007" lon="-1.131569">
        <ele>54.0</ele>
        <time>2016-04-02T13:19:34Z</time>
      </trkpt>
      <trkpt lat="37.983018" lon="-1.131576">
        <ele>53.5</ele>
        <time>2016-04-02T13:19:47Z</time>
      </trkpt>
      <trkpt lat="37.983023" lon="-1.131576">
        <ele>53.5</ele>
        <time>2016-04-02T13:20:04Z</time>
      </trkpt>
      <trkpt lat="37.983048" lon="-1.131588">
        <ele>53.0</ele>
        <time>2016-04-02T13:20:15Z</time>
      </trkpt>
      <trkpt lat="37.983048" lon="-1.131576">
        <ele>53.5</ele>
        <time>2016-04-02T13:20:35Z</time>
      </trkpt>
      <trkpt lat="37.983037" lon="-1.131465">
        <ele>53.5</ele>
        <time>2016-04-02T13:20:45Z</time>
      </trkpt>
      <trkpt lat="37.983042" lon="-1.131417">
        <ele>53.0</ele>
        <time>2016-04-02T13:21:00Z</time>
      </trkpt>
      <trkpt lat="37.983072" lon="-1.131390">
        <ele>53.0</ele>
        <time>2016-04-02T13:21:07Z</time>
      </trkpt>
      <trkpt lat="37.983077" lon="-1.131335">
        <ele>52.5</ele>
        <time>2016-04-02T13:21:11Z</time>
      </trkpt>
      <trkpt lat="37.983057" lon="-1.131121">
        <ele>51.6</ele>
        <time>2016-04-02T13:21:26Z</time>
      </trkpt>
      <trkpt lat="37.983052" lon="-1.131111">
        <ele>51.1</ele>
        <time>2016-04-02T13:21:47Z</time>
      </trkpt>
      <trkpt lat="37.983044" lon="-1.131143">
        <ele>52.0</ele>
        <time>2016-04-02T13:22:07Z</time>
      </trkpt>
      <trkpt lat="37.983061" lon="-1.131120">
        <ele>52.0</ele>
        <time>2016-04-02T13:22:22Z</time>
      </trkpt>
      <trkpt lat="37.983096" lon="-1.131143">
        <ele>52.0</ele>
        <time>2016-04-02T13:22:26Z</time>
      </trkpt>
      <trkpt lat="37.983156" lon="-1.131149">
        <ele>52.5</ele>
        <time>2016-04-02T13:22:31Z</time>
      </trkpt>
      <trkpt lat="37.983236" lon="-1.131119">
        <ele>52.5</ele>
        <time>2016-04-02T13:22:38Z</time>
      </trkpt>
      <trkpt lat="37.983254" lon="-1.131100">
        <ele>52.0</ele>
        <time>2016-04-02T13:22:40Z</time>
      </trkpt>
      <trkpt lat="37.983245" lon="-1.130878">
        <ele>51.1</ele>
        <time>2016-04-02T13:22:54Z</time>
      </trkpt>
      <trkpt lat="37.983250" lon="-1.130807">
        <ele>51.6</ele>
        <time>2016-04-02T13:22:59Z</time>
      </trkpt>
      <trkpt lat="37.983243" lon="-1.130705">
        <ele>51.1</ele>
        <time>2016-04-02T13:23:04Z</time>
      </trkpt>
      <trkpt lat="37.983215" lon="-1.130584">
        <ele>51.1</ele>
        <time>2016-04-02T13:23:15Z</time>
      </trkpt>
      <trkpt lat="37.983209" lon="-1.130552">
        <ele>51.1</ele>
        <time>2016-04-02T13:23:17Z</time>
      </trkpt>
      <trkpt lat="37.983221" lon="-1.130470">
        <ele>51.1</ele>
        <time>2016-04-02T13:23:22Z</time>
      </trkpt>
      <trkpt lat="37.983233" lon="-1.130355">
        <ele>51.1</ele>
        <time>2016-04-02T13:23:32Z</time>
      </trkpt>
      <trkpt lat="37.983302" lon="-1.130350">
        <ele>50.6</ele>
        <time>2016-04-02T13:23:41Z</time>
      </trkpt>
      <trkpt lat="37.983304" lon="-1.130283">
        <ele>50.6</ele>
        <time>2016-04-02T13:23:46Z</time>
      </trkpt>
      <trkpt lat="37.983304" lon="-1.130190">
        <ele>51.1</ele>
        <time>2016-04-02T13:23:52Z</time>
      </trkpt>
      <trkpt lat="37.983280" lon="-1.130069">
        <ele>50.6</ele>
        <time>2016-04-02T13:24:00Z</time>
      </trkpt>
      <trkpt lat="37.983252" lon="-1.130064">
        <ele>51.1</ele>
        <time>2016-04-02T13:24:07Z</time>
      </trkpt>
      <trkpt lat="37.983393" lon="-1.129930">
        <ele>50.6</ele>
        <time>2016-04-02T13:24:21Z</time>
      </trkpt>
      <trkpt lat="37.983434" lon="-1.129934">
        <ele>50.6</ele>
        <time>2016-04-02T13:24:24Z</time>
      </trkpt>
      <trkpt lat="37.983740" lon="-1.129922">
        <ele>49.7</ele>
        <time>2016-04-02T13:24:45Z</time>
      </trkpt>
      <trkpt lat="37.983882" lon="-1.129817">
        <ele>49.2</ele>
        <time>2016-04-02T13:25:08Z</time>
      </trkpt>
      <trkpt lat="37.983895" lon="-1.129771">
        <ele>49.2</ele>
        <time>2016-04-02T13:25:14Z</time>
      </trkpt>
      <trkpt lat="37.983907" lon="-1.129597">
        <ele>49.7</ele>
        <time>2016-04-02T13:25:27Z</time>
      </trkpt>
      <trkpt lat="37.983935" lon="-1.129475">
        <ele>50.6</ele>
        <time>2016-04-02T13:29:33Z</time>
      </trkpt>
      <trkpt lat="37.983950" lon="-1.129350">
        <ele>50.1</ele>
        <time>2016-04-02T13:29:46Z</time>
      </trkpt>
      <trkpt lat="37.983994" lon="-1.129332">
        <ele>50.6</ele>
        <time>2016-04-02T13:29:52Z</time>
      </trkpt>
      <trkpt lat="37.984153" lon="-1.129356">
        <ele>51.6</ele>
        <time>2016-04-02T13:30:07Z</time>
      </trkpt>
      <trkpt lat="37.984222" lon="-1.129303">
        <ele>51.6</ele>
        <time>2016-04-02T13:30:14Z</time>
      </trkpt>
      <trkpt lat="37.984391" lon="-1.129233">
        <ele>51.6</ele>
        <time>2016-04-02T13:30:23Z</time>
      </trkpt>
      <trkpt lat="37.984499" lon="-1.129205">
        <ele>52.0</ele>
        <time>2016-04-02T13:30:32Z</time>
      </trkpt>
      <trkpt lat="37.984536" lon="-1.128993">
        <ele>51.6</ele>
        <time>2016-04-02T13:30:48Z</time>
      </trkpt>
      <trkpt lat="37.984671" lon="-1.128881">
        <ele>51.1</ele>
        <time>2016-04-02T13:31:02Z</time>
      </trkpt>
      <trkpt lat="37.984740" lon="-1.128898">
        <ele>50.6</ele>
        <time>2016-04-02T13:31:14Z</time>
      </trkpt>
      <trkpt lat="37.984775" lon="-1.128919">
        <ele>50.6</ele>
        <time>2016-04-02T13:31:19Z</time>
      </trkpt>
      <trkpt lat="37.984921" lon="-1.129017">
        <ele>50.6</ele>
        <time>2016-04-02T13:31:36Z</time>
      </trkpt>
      <trkpt lat="37.985068" lon="-1.129069">
        <ele>50.6</ele>
        <time>2016-04-02T13:31:50Z</time>
      </trkpt>
      <trkpt lat="37.985109" lon="-1.129071">
        <ele>50.6</ele>
        <time>2016-04-02T13:31:53Z</time>
      </trkpt>
      <trkpt lat="37.985280" lon="-1.129100">
        <ele>51.1</ele>
        <time>2016-04-02T13:33:05Z</time>
      </trkpt>
      <trkpt lat="37.985484" lon="-1.129101">
        <ele>51.1</ele>
        <time>2016-04-02T13:33:22Z</time>
      </trkpt>
      <trkpt lat="37.985615" lon="-1.129171">
        <ele>51.6</ele>
        <time>2016-04-02T13:33:34Z</time>
      </trkpt>
      <trkpt lat="37.985688" lon="-1.129238">
        <ele>51.1</ele>
        <time>2016-04-02T13:33:43Z</time>
      </trkpt>
      <trkpt lat="37.985875" lon="-1.129298">
        <ele>51.6</ele>
        <time>2016-04-02T13:34:01Z</time>
      </trkpt>
      <trkpt lat="37.986069" lon="-1.129309">
        <ele>51.1</ele>
        <time>2016-04-02T13:34:16Z</time>
      </trkpt>
      <trkpt lat="37.986713" lon="-1.129544">
        <ele>50.1</ele>
        <time>2016-04-02T13:35:09Z</time>
      </trkpt>
      <trkpt lat="37.986881" lon="-1.129581">
        <ele>50.1</ele>
        <time>2016-04-02T13:35:23Z</time>
      </trkpt>
      <trkpt lat="37.986940" lon="-1.129596">
        <ele>49.7</ele>
        <time>2016-04-02T13:35:29Z</time>
      </trkpt>
      <trkpt lat="37.987152" lon="-1.129584">
        <ele>49.7</ele>
        <time>2016-04-02T13:35:47Z</time>
      </trkpt>
      <trkpt lat="37.987324" lon="-1.129586">
        <ele>50.1</ele>
        <time>2016-04-02T13:36:03Z</time>
      </trkpt>
      <trkpt lat="37.987413" lon="-1.129517">
        <ele>49.7</ele>
        <time>2016-04-02T13:36:10Z</time>
      </trkpt>
      <trkpt lat="37.987621" lon="-1.129578">
        <ele>50.1</ele>
        <time>2016-04-02T13:36:27Z</time>
      </trkpt>
      <trkpt lat="37.987778" lon="-1.129678">
        <ele>50.6</ele>
        <time>2016-04-02T13:36:39Z</time>
      </trkpt>
      <trkpt lat="37.987907" lon="-1.129757">
        <ele>51.1</ele>
        <time>2016-04-02T13:36:52Z</time>
      </trkpt>
      <trkpt lat="37.987984" lon="-1.129767">
        <ele>51.1</ele>
        <time>2016-04-02T13:36:58Z</time>
      </trkpt>
      <trkpt lat="37.988156" lon="-1.129830">
        <ele>51.6</ele>
        <time>2016-04-02T13:37:10Z</time>
      </trkpt>
      <trkpt lat="37.988215" lon="-1.129864">
        <ele>51.6</ele>
        <time>2016-04-02T13:37:17Z</time>
      </trkpt>
      <trkpt lat="37.988326" lon="-1.129826">
        <ele>51.6</ele>
        <time>2016-04-02T13:37:30Z</time>
      </trkpt>
      <trkpt lat="37.988674" lon="-1.129867">
        <ele>51.6</ele>
        <time>2016-04-02T13:38:21Z</time>
      </trkpt>
      <trkpt lat="37.988831" lon="-1.129911">
        <ele>51.6</ele>
        <time>2016-04-02T13:38:35Z</time>
      </trkpt>
      <trkpt lat="37.988932" lon="-1.129965">
        <ele>51.6</ele>
        <time>2016-04-02T13:38:44Z</time>
      </trkpt>
      <trkpt lat="37.989025" lon="-1.130023">
        <ele>52.0</ele>
        <time>2016-04-02T13:38:51Z</time>
      </trkpt>
      <trkpt lat="37.989230" lon="-1.130022">
        <ele>52.0</ele>
        <time>2016-04-02T13:39:06Z</time>
      </trkpt>
      <trkpt lat="37.989410" lon="-1.130088">
        <ele>51.6</ele>
        <time>2016-04-02T13:39:18Z</time>
      </trkpt>
      <trkpt lat="37.989461" lon="-1.130102">
        <ele>51.6</ele>
        <time>2016-04-02T13:39:22Z</time>
      </trkpt>
      <trkpt lat="37.989582" lon="-1.130041">
        <ele>51.6</ele>
        <time>2016-04-02T13:39:35Z</time>
      </trkpt>
      <trkpt lat="37.989599" lon="-1.130041">
        <ele>51.6</ele>
        <time>2016-04-02T13:39:38Z</time>
      </trkpt>
      <trkpt lat="37.989630" lon="-1.130047">
        <ele>51.6</ele>
        <time>2016-04-02T13:39:41Z</time>
      </trkpt>
      <trkpt lat="37.989759" lon="-1.130076">
        <ele>51.1</ele>
        <time>2016-04-02T13:39:53Z</time>
      </trkpt>
      <trkpt lat="37.989769" lon="-1.130080">
        <ele>51.1</ele>
        <time>2016-04-02T13:39:54Z</time>
      </trkpt>
      <trkpt lat="37.989842" lon="-1.130106">
        <ele>50.6</ele>
        <time>2016-04-02T13:40:00Z</time>
      </trkpt>
      <trkpt lat="37.989876" lon="-1.130124">
        <ele>51.1</ele>
        <time>2016-04-02T13:40:03Z</time>
      </trkpt>
      <trkpt lat="37.990073" lon="-1.130191">
        <ele>50.6</ele>
        <time>2016-04-02T13:40:21Z</time>
      </trkpt>
      <trkpt lat="37.990252" lon="-1.130237">
        <ele>51.1</ele>
        <time>2016-04-02T13:40:35Z</time>
      </trkpt>
      <trkpt lat="37.990264" lon="-1.130238">
        <ele>50.1</ele>
        <time>2016-04-02T13:40:36Z</time>
      </trkpt>
      <trkpt lat="37.990435" lon="-1.130282">
        <ele>50.6</ele>
        <time>2016-04-02T13:40:49Z</time>
      </trkpt>
      <trkpt lat="37.990583" lon="-1.130301">
        <ele>50.6</ele>
        <time>2016-04-02T13:41:03Z</time>
      </trkpt>
      <trkpt lat="37.990672" lon="-1.130325">
        <ele>50.6</ele>
        <time>2016-04-02T13:41:14Z</time>
      </trkpt>
      <trkpt lat="37.990677" lon="-1.130326">
        <ele>50.6</ele>
        <time>2016-04-02T13:41:15Z</time>
      </trkpt>
      <trkpt lat="37.990760" lon="-1.130387">
        <ele>50.6</ele>
        <time>2016-04-02T13:41:25Z</time>
      </trkpt>
      <trkpt lat="37.990897" lon="-1.130375">
        <ele>50.6</ele>
        <time>2016-04-02T13:41:39Z</time>
      </trkpt>
      <trkpt lat="37.990935" lon="-1.130375">
        <ele>50.6</ele>
        <time>2016-04-02T13:41:42Z</time>
      </trkpt>
      <trkpt lat="37.991077" lon="-1.130409">
        <ele>50.6</ele>
        <time>2016-04-02T13:41:56Z</time>
      </trkpt>
      <trkpt lat="37.991151" lon="-1.130417">
        <ele>50.6</ele>
        <time>2016-04-02T13:42:01Z</time>
      </trkpt>
      <trkpt lat="37.991344" lon="-1.130579">
        <ele>50.6</ele>
        <time>2016-04-02T13:42:17Z</time>
      </trkpt>
      <trkpt lat="37.991378" lon="-1.130610">
        <ele>51.6</ele>
        <time>2016-04-02T13:42:29Z</time>
      </trkpt>
      <trkpt lat="37.991452" lon="-1.130718">
        <ele>51.1</ele>
        <time>2016-04-02T13:42:41Z</time>
      </trkpt>
      <trkpt lat="37.991462" lon="-1.130723">
        <ele>51.6</ele>
        <time>2016-04-02T13:42:42Z</time>
      </trkpt>
      <trkpt lat="37.991433" lon="-1.130793">
        <ele>50.6</ele>
        <time>2016-04-02T13:42:47Z</time>
      </trkpt>
      <trkpt lat="37.991445" lon="-1.130815">
        <ele>51.1</ele>
        <time>2016-04-02T13:42:49Z</time>
      </trkpt>
      <trkpt lat="37.991495" lon="-1.130926">
        <ele>50.6</ele>
        <time>2016-04-02T13:43:01Z</time>
      </trkpt>
      <trkpt lat="37.991547" lon="-1.131015">
        <ele>51.1</ele>
        <time>2016-04-02T13:43:07Z</time>
      </trkpt>
      <trkpt lat="37.991560" lon="-1.131130">
        <ele>50.6</ele>
        <time>2016-04-02T13:43:16Z</time>
      </trkpt>
      <trkpt lat="37.991564" lon="-1.131191">
        <ele>50.6</ele>
        <time>2016-04-02T13:43:20Z</time>
      </trkpt>
      <trkpt lat="37.991608" lon="-1.131275">
        <ele>50.6</ele>
        <time>2016-04-02T13:43:27Z</time>
      </trkpt>
      <trkpt lat="37.991634" lon="-1.131322">
        <ele>50.6</ele>
        <time>2016-04-02T13:43:32Z</time>
      </trkpt>
      <trkpt lat="37.991746" lon="-1.131471">
        <ele>50.1</ele>
        <time>2016-04-02T13:43:41Z</time>
      </trkpt>
      <trkpt lat="37.991943" lon="-1.131612">
        <ele>50.1</ele>
        <time>2016-04-02T13:43:53Z</time>
      </trkpt>
      <trkpt lat="37.991986" lon="-1.131649">
        <ele>49.7</ele>
        <time>2016-04-02T13:43:57Z</time>
      </trkpt>
      <trkpt lat="37.992064" lon="-1.131665">
        <ele>50.1</ele>
        <time>2016-04-02T13:44:05Z</time>
      </trkpt>
      <trkpt lat="37.992180" lon="-1.131708">
        <ele>50.6</ele>
        <time>2016-04-02T13:44:13Z</time>
      </trkpt>
      <trkpt lat="37.992416" lon="-1.131673">
        <ele>49.7</ele>
        <time>2016-04-02T13:44:30Z</time>
      </trkpt>
      <trkpt lat="37.992547" lon="-1.131639">
        <ele>50.1</ele>
        <time>2016-04-02T13:44:39Z</time>
      </trkpt>
      <trkpt lat="37.992640" lon="-1.131595">
        <ele>50.1</ele>
        <time>2016-04-02T13:44:45Z</time>
      </trkpt>
      <trkpt lat="37.992705" lon="-1.131635">
        <ele>49.7</ele>
        <time>2016-04-02T13:44:58Z</time>
      </trkpt>
      <trkpt lat="37.992716" lon="-1.131635">
        <ele>48.7</ele>
        <time>2016-04-02T13:45:38Z</time>
      </trkpt>
      <trkpt lat="37.992726" lon="-1.131634">
        <ele>48.7</ele>
        <time>2016-04-02T13:45:39Z</time>
      </trkpt>
      <trkpt lat="37.992772" lon="-1.131643">
        <ele>48.7</ele>
        <time>2016-04-02T13:45:43Z</time>
      </trkpt>
      <trkpt lat="37.992869" lon="-1.131642">
        <ele>48.7</ele>
        <time>2016-04-02T13:45:51Z</time>
      </trkpt>
      <trkpt lat="37.992964" lon="-1.131673">
        <ele>49.2</ele>
        <time>2016-04-02T13:46:01Z</time>
      </trkpt>
      <trkpt lat="37.993011" lon="-1.131718">
        <ele>48.7</ele>
        <time>2016-04-02T13:46:07Z</time>
      </trkpt>
      <trkpt lat="37.993171" lon="-1.131834">
        <ele>49.2</ele>
        <time>2016-04-02T13:46:23Z</time>
      </trkpt>
      <trkpt lat="37.993296" lon="-1.131983">
        <ele>49.2</ele>
        <time>2016-04-02T13:46:36Z</time>
      </trkpt>
      <trkpt lat="37.993322" lon="-1.132011">
        <ele>48.7</ele>
        <time>2016-04-02T13:46:38Z</time>
      </trkpt>
      <trkpt lat="37.993426" lon="-1.132090">
        <ele>49.7</ele>
        <time>2016-04-02T13:46:46Z</time>
      </trkpt>
      <trkpt lat="37.993579" lon="-1.132185">
        <ele>49.2</ele>
        <time>2016-04-02T13:46:59Z</time>
      </trkpt>
      <trkpt lat="37.993992" lon="-1.132426">
        <ele>50.1</ele>
        <time>2016-04-02T13:47:46Z</time>
      </trkpt>
      <trkpt lat="37.994081" lon="-1.132514">
        <ele>50.6</ele>
        <time>2016-04-02T13:47:58Z</time>
      </trkpt>
      <trkpt lat="37.994085" lon="-1.132532">
        <ele>50.1</ele>
        <time>2016-04-02T13:48:00Z</time>
      </trkpt>
      <trkpt lat="37.994574" lon="-1.132950">
        <ele>49.7</ele>
        <time>2016-04-02T13:48:42Z</time>
      </trkpt>
      <trkpt lat="37.994688" lon="-1.133015">
        <ele>50.6</ele>
        <time>2016-04-02T13:48:57Z</time>
      </trkpt>
      <trkpt lat="37.994729" lon="-1.133219">
        <ele>50.1</ele>
        <time>2016-04-02T13:49:04Z</time>
      </trkpt>
      <trkpt lat="37.994753" lon="-1.133258">
        <ele>50.1</ele>
        <time>2016-04-02T13:49:06Z</time>
      </trkpt>
      <trkpt lat="37.994815" lon="-1.133331">
        <ele>50.1</ele>
        <time>2016-04-02T13:49:12Z</time>
      </trkpt>
      <trkpt lat="37.995012" lon="-1.133524">
        <ele>49.7</ele>
        <time>2016-04-02T13:49:30Z</time>
      </trkpt>
      <trkpt lat="37.995153" lon="-1.133679">
        <ele>49.7</ele>
        <time>2016-04-02T13:49:45Z</time>
      </trkpt>
      <trkpt lat="37.995284" lon="-1.133821">
        <ele>50.1</ele>
        <time>2016-04-02T13:49:59Z</time>
      </trkpt>
      <trkpt lat="37.995531" lon="-1.134043">
        <ele>50.6</ele>
        <time>2016-04-02T13:50:19Z</time>
      </trkpt>
      <trkpt lat="37.995705" lon="-1.134173">
        <ele>48.7</ele>
        <time>2016-04-02T13:50:34Z</time>
      </trkpt>
      <trkpt lat="37.995818" lon="-1.134306">
        <ele>50.1</ele>
        <time>2016-04-02T13:50:47Z</time>
      </trkpt>
      <trkpt lat="37.995942" lon="-1.134463">
        <ele>50.6</ele>
        <time>2016-04-02T13:51:01Z</time>
      </trkpt>
      <trkpt lat="37.996068" lon="-1.134712">
        <ele>50.6</ele>
        <time>2016-04-02T13:51:18Z</time>
      </trkpt>
      <trkpt lat="37.996193" lon="-1.134925">
        <ele>50.1</ele>
        <time>2016-04-02T13:51:35Z</time>
      </trkpt>
      <trkpt lat="37.996201" lon="-1.134947">
        <ele>50.1</ele>
        <time>2016-04-02T13:51:37Z</time>
      </trkpt>
      <trkpt lat="37.996305" lon="-1.135157">
        <ele>50.6</ele>
        <time>2016-04-02T13:51:54Z</time>
      </trkpt>
      <trkpt lat="37.996358" lon="-1.135385">
        <ele>51.1</ele>
        <time>2016-04-02T13:52:09Z</time>
      </trkpt>
      <trkpt lat="37.996374" lon="-1.135487">
        <ele>50.6</ele>
        <time>2016-04-02T13:52:21Z</time>
      </trkpt>
      <trkpt lat="37.996385" lon="-1.135590">
        <ele>51.1</ele>
        <time>2016-04-02T13:52:27Z</time>
      </trkpt>
      <trkpt lat="37.996386" lon="-1.135887">
        <ele>50.1</ele>
        <time>2016-04-02T13:52:44Z</time>
      </trkpt>
      <trkpt lat="37.996423" lon="-1.136153">
        <ele>50.1</ele>
        <time>2016-04-02T13:52:59Z</time>
      </trkpt>
      <trkpt lat="37.996426" lon="-1.136184">
        <ele>50.1</ele>
        <time>2016-04-02T13:53:01Z</time>
      </trkpt>
      <trkpt lat="37.996438" lon="-1.136268">
        <ele>50.6</ele>
        <time>2016-04-02T13:53:06Z</time>
      </trkpt>
      <trkpt lat="37.996473" lon="-1.136375">
        <ele>50.6</ele>
        <time>2016-04-02T13:53:12Z</time>
      </trkpt>
      <trkpt lat="37.996476" lon="-1.136413">
        <ele>50.1</ele>
        <time>2016-04-02T13:53:15Z</time>
      </trkpt>
      <trkpt lat="37.996546" lon="-1.136611">
        <ele>49.7</ele>
        <time>2016-04-02T13:53:28Z</time>
      </trkpt>
      <trkpt lat="37.996731" lon="-1.136579">
        <ele>50.1</ele>
        <time>2016-04-02T13:53:40Z</time>
      </trkpt>
      <trkpt lat="37.996886" lon="-1.136616">
        <ele>50.1</ele>
        <time>2016-04-02T13:53:54Z</time>
      </trkpt>
      <trkpt lat="37.996913" lon="-1.136690">
        <ele>49.7</ele>
        <time>2016-04-02T13:54:04Z</time>
      </trkpt>
      <trkpt lat="37.996922" lon="-1.136713">
        <ele>49.7</ele>
        <time>2016-04-02T13:54:06Z</time>
      </trkpt>
      <trkpt lat="37.996936" lon="-1.136748">
        <ele>49.7</ele>
        <time>2016-04-02T13:54:09Z</time>
      </trkpt>
      <trkpt lat="37.996969" lon="-1.136850">
        <ele>50.1</ele>
        <time>2016-04-02T13:54:17Z</time>
      </trkpt>
      <trkpt lat="37.997007" lon="-1.137056">
        <ele>49.7</ele>
        <time>2016-04-02T13:54:31Z</time>
      </trkpt>
      <trkpt lat="37.997059" lon="-1.137294">
        <ele>49.7</ele>
        <time>2016-04-02T13:54:47Z</time>
      </trkpt>
      <trkpt lat="37.997067" lon="-1.137316">
        <ele>49.2</ele>
        <time>2016-04-02T13:54:49Z</time>
      </trkpt>
      <trkpt lat="37.997139" lon="-1.137491">
        <ele>49.7</ele>
        <time>2016-04-02T13:55:02Z</time>
      </trkpt>
      <trkpt lat="37.997230" lon="-1.137762">
        <ele>49.7</ele>
        <time>2016-04-02T13:55:18Z</time>
      </trkpt>
      <trkpt lat="37.997282" lon="-1.137903">
        <ele>49.7</ele>
        <time>2016-04-02T13:55:27Z</time>
      </trkpt>
      <trkpt lat="37.997373" lon="-1.138118">
        <ele>49.7</ele>
        <time>2016-04-02T13:55:43Z</time>
      </trkpt>
      <trkpt lat="37.997434" lon="-1.138268">
        <ele>49.7</ele>
        <time>2016-04-02T13:55:55Z</time>
      </trkpt>
      <trkpt lat="37.997469" lon="-1.138375">
        <ele>49.2</ele>
        <time>2016-04-02T13:56:02Z</time>
      </trkpt>
      <trkpt lat="37.997531" lon="-1.138491">
        <ele>49.2</ele>
        <time>2016-04-02T13:56:10Z</time>
      </trkpt>
      <trkpt lat="37.997605" lon="-1.138691">
        <ele>48.7</ele>
        <time>2016-04-02T13:56:25Z</time>
      </trkpt>
      <trkpt lat="37.997677" lon="-1.138874">
        <ele>48.7</ele>
        <time>2016-04-02T13:56:37Z</time>
      </trkpt>
      <trkpt lat="37.997726" lon="-1.138995">
        <ele>48.7</ele>
        <time>2016-04-02T13:56:45Z</time>
      </trkpt>
      <trkpt lat="37.997745" lon="-1.139075">
        <ele>48.2</ele>
        <time>2016-04-02T13:56:51Z</time>
      </trkpt>
      <trkpt lat="37.997769" lon="-1.139112">
        <ele>48.7</ele>
        <time>2016-04-02T13:56:54Z</time>
      </trkpt>
      <trkpt lat="37.997835" lon="-1.139313">
        <ele>48.7</ele>
        <time>2016-04-02T13:57:09Z</time>
      </trkpt>
      <trkpt lat="37.997905" lon="-1.139470">
        <ele>48.2</ele>
        <time>2016-04-02T13:57:19Z</time>
      </trkpt>
      <trkpt lat="37.998011" lon="-1.139555">
        <ele>48.2</ele>
        <time>2016-04-02T14:00:00Z</time>
      </trkpt>
      <trkpt lat="37.998017" lon="-1.139604">
        <ele>48.7</ele>
        <time>2016-04-02T14:00:15Z</time>
      </trkpt>
      <trkpt lat="37.998080" lon="-1.139661">
        <ele>48.7</ele>
        <time>2016-04-02T14:00:27Z</time>
      </trkpt>
      <trkpt lat="37.998128" lon="-1.139662">
        <ele>48.2</ele>
        <time>2016-04-02T14:00:34Z</time>
      </trkpt>
      <trkpt lat="37.998155" lon="-1.139750">
        <ele>48.2</ele>
        <time>2016-04-02T14:00:40Z</time>
      </trkpt>
      <trkpt lat="37.998187" lon="-1.139816">
        <ele>48.2</ele>
        <time>2016-04-02T14:00:45Z</time>
      </trkpt>
      <trkpt lat="37.998227" lon="-1.139999">
        <ele>48.2</ele>
        <time>2016-04-02T14:01:01Z</time>
      </trkpt>
      <trkpt lat="37.998233" lon="-1.139997">
        <ele>48.2</ele>
        <time>2016-04-02T14:01:06Z</time>
      </trkpt>
      <trkpt lat="37.998249" lon="-1.140245">
        <ele>47.7</ele>
        <time>2016-04-02T14:01:20Z</time>
      </trkpt>
      <trkpt lat="37.998310" lon="-1.140386">
        <ele>47.7</ele>
        <time>2016-04-02T14:01:30Z</time>
      </trkpt>
      <trkpt lat="37.998406" lon="-1.140612">
        <ele>49.2</ele>
        <time>2016-04-02T14:01:46Z</time>
      </trkpt>
      <trkpt lat="37.998461" lon="-1.140731">
        <ele>49.2</ele>
        <time>2016-04-02T14:01:54Z</time>
      </trkpt>
      <trkpt lat="37.998549" lon="-1.141001">
        <ele>49.2</ele>
        <time>2016-04-02T14:02:12Z</time>
      </trkpt>
      <trkpt lat="37.998636" lon="-1.141200">
        <ele>49.7</ele>
        <time>2016-04-02T14:02:26Z</time>
      </trkpt>
      <trkpt lat="37.998670" lon="-1.141294">
        <ele>49.7</ele>
        <time>2016-04-02T14:02:32Z</time>
      </trkpt>
      <trkpt lat="37.998795" lon="-1.141554">
        <ele>49.2</ele>
        <time>2016-04-02T14:02:48Z</time>
      </trkpt>
      <trkpt lat="37.998905" lon="-1.141818">
        <ele>50.6</ele>
        <time>2016-04-02T14:03:06Z</time>
      </trkpt>
      <trkpt lat="37.998911" lon="-1.141829">
        <ele>50.1</ele>
        <time>2016-04-02T14:03:07Z</time>
      </trkpt>
      <trkpt lat="37.999037" lon="-1.142042">
        <ele>50.6</ele>
        <time>2016-04-02T14:03:23Z</time>
      </trkpt>
      <trkpt lat="37.999071" lon="-1.142137">
        <ele>50.6</ele>
        <time>2016-04-02T14:03:30Z</time>
      </trkpt>
      <trkpt lat="37.999092" lon="-1.142180">
        <ele>50.1</ele>
        <time>2016-04-02T14:03:33Z</time>
      </trkpt>
      <trkpt lat="37.999098" lon="-1.142242">
        <ele>50.6</ele>
        <time>2016-04-02T14:03:37Z</time>
      </trkpt>
      <trkpt lat="37.999182" lon="-1.142400">
        <ele>50.1</ele>
        <time>2016-04-02T14:03:49Z</time>
      </trkpt>
      <trkpt lat="37.999329" lon="-1.142632">
        <ele>50.6</ele>
        <time>2016-04-02T14:04:05Z</time>
      </trkpt>
      <trkpt lat="37.999408" lon="-1.142702">
        <ele>50.6</ele>
        <time>2016-04-02T14:04:12Z</time>
      </trkpt>
      <trkpt lat="37.999502" lon="-1.142809">
        <ele>50.1</ele>
        <time>2016-04-02T14:04:21Z</time>
      </trkpt>
      <trkpt lat="37.999604" lon="-1.143012">
        <ele>50.1</ele>
        <time>2016-04-02T14:04:35Z</time>
      </trkpt>
      <trkpt lat="37.999759" lon="-1.143244">
        <ele>50.6</ele>
        <time>2016-04-02T14:04:52Z</time>
      </trkpt>
      <trkpt lat="37.999926" lon="-1.143323">
        <ele>50.1</ele>
        <time>2016-04-02T14:05:03Z</time>
      </trkpt>
      <trkpt lat="38.000024" lon="-1.143371">
        <ele>49.7</ele>
        <time>2016-04-02T14:05:08Z</time>
      </trkpt>
      <trkpt lat="38.000183" lon="-1.143498">
        <ele>50.1</ele>
        <time>2016-04-02T14:05:19Z</time>
      </trkpt>
      <trkpt lat="38.000274" lon="-1.143536">
        <ele>49.2</ele>
        <time>2016-04-02T14:05:31Z</time>
      </trkpt>
      <trkpt lat="38.000397" lon="-1.143592">
        <ele>48.2</ele>
        <time>2016-04-02T14:05:39Z</time>
      </trkpt>
      <trkpt lat="38.000503" lon="-1.143649">
        <ele>49.7</ele>
        <time>2016-04-02T14:05:45Z</time>
      </trkpt>
      <trkpt lat="38.000666" lon="-1.143658">
        <ele>50.1</ele>
        <time>2016-05-14T05:53:47Z</time>
      </trkpt>
      <trkpt lat="38.000819" lon="-1.143744">
        <ele>50.1</ele>
        <time>2016-05-14T05:54:03Z</time>
      </trkpt>
      <trkpt lat="38.000949" lon="-1.143829">
        <ele>50.1</ele>
        <time>2016-05-14T05:54:15Z</time>
      </trkpt>
      <trkpt lat="38.001073" lon="-1.143902">
        <ele>50.1</ele>
        <time>2016-05-14T05:54:28Z</time>
      </trkpt>
      <trkpt lat="38.001231" lon="-1.143936">
        <ele>50.6</ele>
        <time>2016-05-14T05:54:42Z</time>
      </trkpt>
      <trkpt lat="38.001319" lon="-1.143978">
        <ele>49.7</ele>
        <time>2016-05-14T05:54:50Z</time>
      </trkpt>
      <trkpt lat="38.001454" lon="-1.144124">
        <ele>50.6</ele>
        <time>2016-05-14T05:55:06Z</time>
      </trkpt>
      <trkpt lat="38.001480" lon="-1.144142">
        <ele>50.6</ele>
        <time>2016-05-14T05:55:09Z</time>
      </trkpt>
      <trkpt lat="38.001562" lon="-1.144224">
        <ele>50.1</ele>
        <time>2016-05-14T05:55:18Z</time>
      </trkpt>
      <trkpt lat="38.001697" lon="-1.144365">
        <ele>50.6</ele>
        <time>2016-05-14T05:55:33Z</time>
      </trkpt>
      <trkpt lat="38.001805" lon="-1.144534">
        <ele>50.1</ele>
        <time>2016-05-14T05:55:48Z</time>
      </trkpt>
      <trkpt lat="38.001920" lon="-1.144706">
        <ele>50.1</ele>
        <time>2016-05-14T05:56:04Z</time>
      </trkpt>
      <trkpt lat="38.002041" lon="-1.144859">
        <ele>50.1</ele>
        <time>2016-05-14T05:56:19Z</time>
      </trkpt>
      <trkpt lat="38.002047" lon="-1.144869">
        <ele>50.1</ele>
        <time>2016-05-14T05:56:20Z</time>
      </trkpt>
      <trkpt lat="38.002156" lon="-1.145074">
        <ele>50.1</ele>
        <time>2016-05-14T05:56:38Z</time>
      </trkpt>
      <trkpt lat="38.002283" lon="-1.145287">
        <ele>49.7</ele>
        <time>2016-05-14T05:56:55Z</time>
      </trkpt>
      <trkpt lat="38.002381" lon="-1.145463">
        <ele>50.6</ele>
        <time>2016-05-14T05:57:09Z</time>
      </trkpt>
      <trkpt lat="38.002505" lon="-1.145622">
        <ele>50.1</ele>
        <time>2016-05-14T05:57:22Z</time>
      </trkpt>
      <trkpt lat="38.002622" lon="-1.145763">
        <ele>50.1</ele>
        <time>2016-05-14T05:57:38Z</time>
      </trkpt>
      <trkpt lat="38.002693" lon="-1.145897">
        <ele>50.1</ele>
        <time>2016-05-14T05:57:52Z</time>
      </trkpt>
      <trkpt lat="38.002784" lon="-1.146047">
        <ele>49.7</ele>
        <time>2016-05-14T05:58:05Z</time>
      </trkpt>
      <trkpt lat="38.002819" lon="-1.146085">
        <ele>49.7</ele>
        <time>2016-05-14T05:58:21Z</time>
      </trkpt>
      <trkpt lat="38.002925" lon="-1.146201">
        <ele>48.7</ele>
        <time>2016-05-14T05:58:42Z</time>
      </trkpt>
      <trkpt lat="38.003021" lon="-1.146318">
        <ele>49.7</ele>
        <time>2016-05-14T05:58:53Z</time>
      </trkpt>
      <trkpt lat="38.003059" lon="-1.146328">
        <ele>50.1</ele>
        <time>2016-05-14T05:58:56Z</time>
      </trkpt>
      <trkpt lat="38.003197" lon="-1.146211">
        <ele>50.1</ele>
        <time>2016-05-14T05:59:10Z</time>
      </trkpt>
      <trkpt lat="38.003227" lon="-1.146087">
        <ele>50.6</ele>
        <time>2016-05-14T05:59:19Z</time>
      </trkpt>
      <trkpt lat="38.003338" lon="-1.146133">
        <ele>50.1</ele>
        <time>2016-05-14T05:59:29Z</time>
      </trkpt>
      <trkpt lat="38.003360" lon="-1.146214">
        <ele>50.1</ele>
        <time>2016-05-14T05:59:36Z</time>
      </trkpt>
      <trkpt lat="38.003479" lon="-1.146216">
        <ele>50.1</ele>
        <time>2016-05-14T05:59:45Z</time>
      </trkpt>
      <trkpt lat="38.003624" lon="-1.146267">
        <ele>50.1</ele>
        <time>2016-05-14T05:59:59Z</time>
      </trkpt>
      <trkpt lat="38.003677" lon="-1.146266">
        <ele>49.7</ele>
        <time>2016-05-14T06:00:04Z</time>
      </trkpt>
      <trkpt lat="38.003705" lon="-1.146281">
        <ele>50.1</ele>
        <time>2016-05-14T06:00:16Z</time>
      </trkpt>
      <trkpt lat="38.003776" lon="-1.146408">
        <ele>49.2</ele>
        <time>2016-05-14T06:00:25Z</time>
      </trkpt>
      <trkpt lat="38.003830" lon="-1.146571">
        <ele>49.7</ele>
        <time>2016-05-14T06:00:38Z</time>
      </trkpt>
      <trkpt lat="38.003819" lon="-1.146636">
        <ele>49.7</ele>
        <time>2016-05-14T06:00:42Z</time>
      </trkpt>
      <trkpt lat="38.003751" lon="-1.146863">
        <ele>49.7</ele>
        <time>2016-05-14T06:00:59Z</time>
      </trkpt>
      <trkpt lat="38.003761" lon="-1.146871">
        <ele>49.2</ele>
        <time>2016-05-14T06:01:01Z</time>
      </trkpt>
      <trkpt lat="38.003752" lon="-1.147013">
        <ele>49.7</ele>
        <time>2016-05-14T06:01:13Z</time>
      </trkpt>
      <trkpt lat="38.003759" lon="-1.147045">
        <ele>49.7</ele>
        <time>2016-05-14T06:01:16Z</time>
      </trkpt>
      <trkpt lat="38.003891" lon="-1.147157">
        <ele>49.7</ele>
        <time>2016-05-14T06:01:30Z</time>
      </trkpt>
      <trkpt lat="38.003902" lon="-1.147167">
        <ele>49.2</ele>
        <time>2016-05-14T06:01:31Z</time>
      </trkpt>
      <trkpt lat="38.004045" lon="-1.147286">
        <ele>49.7</ele>
        <time>2016-05-14T06:01:47Z</time>
      </trkpt>
      <trkpt lat="38.004083" lon="-1.147320">
        <ele>50.1</ele>
        <time>2016-05-14T06:01:51Z</time>
      </trkpt>
      <trkpt lat="38.004103" lon="-1.147391">
        <ele>50.6</ele>
        <time>2016-05-14T06:01:56Z</time>
      </trkpt>
      <trkpt lat="38.004140" lon="-1.147431">
        <ele>49.7</ele>
        <time>2016-05-14T06:02:00Z</time>
      </trkpt>
      <trkpt lat="38.004267" lon="-1.147548">
        <ele>50.1</ele>
        <time>2016-05-14T06:02:15Z</time>
      </trkpt>
      <trkpt lat="38.004374" lon="-1.147639">
        <ele>50.6</ele>
        <time>2016-05-14T06:02:25Z</time>
      </trkpt>
      <trkpt lat="38.004456" lon="-1.147709">
        <ele>51.1</ele>
        <time>2016-05-14T06:02:32Z</time>
      </trkpt>
      <trkpt lat="38.004481" lon="-1.147743">
        <ele>51.1</ele>
        <time>2016-05-14T06:02:35Z</time>
      </trkpt>
      <trkpt lat="38.004648" lon="-1.147837">
        <ele>51.6</ele>
        <time>2016-05-14T06:02:52Z</time>
      </trkpt>
      <trkpt lat="38.004731" lon="-1.147915">
        <ele>51.6</ele>
        <time>2016-05-14T06:03:00Z</time>
      </trkpt>
      <trkpt lat="38.004882" lon="-1.148041">
        <ele>51.6</ele>
        <time>2016-05-14T06:03:16Z</time>
      </trkpt>
      <trkpt lat="38.005026" lon="-1.148132">
        <ele>52.0</ele>
        <time>2016-05-14T06:03:30Z</time>
      </trkpt>
      <trkpt lat="38.005182" lon="-1.148301">
        <ele>52.5</ele>
        <time>2016-05-14T06:03:45Z</time>
      </trkpt>
      <trkpt lat="38.005216" lon="-1.148329">
        <ele>52.0</ele>
        <time>2016-05-14T06:03:48Z</time>
      </trkpt>
      <trkpt lat="38.005298" lon="-1.148416">
        <ele>52.0</ele>
        <time>2016-05-14T06:03:58Z</time>
      </trkpt>
      <trkpt lat="38.005458" lon="-1.148514">
        <ele>53.0</ele>
        <time>2016-05-14T06:04:13Z</time>
      </trkpt>
      <trkpt lat="38.005600" lon="-1.148680">
        <ele>52.5</ele>
        <time>2016-05-14T06:04:26Z</time>
      </trkpt>
      <trkpt lat="38.005621" lon="-1.148722">
        <ele>53.0</ele>
        <time>2016-05-14T06:04:30Z</time>
      </trkpt>
      <trkpt lat="38.005734" lon="-1.148898">
        <ele>54.0</ele>
        <time>2016-05-14T06:04:46Z</time>
      </trkpt>
      <trkpt lat="38.005869" lon="-1.149112">
        <ele>54.0</ele>
        <time>2016-05-14T06:05:05Z</time>
      </trkpt>
      <trkpt lat="38.005873" lon="-1.149124">
        <ele>54.0</ele>
        <time>2016-05-14T06:05:06Z</time>
      </trkpt>
      <trkpt lat="38.005908" lon="-1.149182">
        <ele>54.5</ele>
        <time>2016-05-14T06:05:12Z</time>
      </trkpt>
      <trkpt lat="38.006000" lon="-1.149289">
        <ele>54.5</ele>
        <time>2016-05-14T06:05:23Z</time>
      </trkpt>
      <trkpt lat="38.006158" lon="-1.149441">
        <ele>54.9</ele>
        <time>2016-05-14T06:05:39Z</time>
      </trkpt>
      <trkpt lat="38.006198" lon="-1.149490">
        <ele>54.9</ele>
        <time>2016-05-14T06:05:44Z</time>
      </trkpt>
      <trkpt lat="38.006370" lon="-1.149671">
        <ele>54.9</ele>
        <time>2016-05-14T06:06:02Z</time>
      </trkpt>
      <trkpt lat="38.006425" lon="-1.149716">
        <ele>54.9</ele>
        <time>2016-05-14T06:06:08Z</time>
      </trkpt>
      <trkpt lat="38.006551" lon="-1.149887">
        <ele>54.9</ele>
        <time>2016-05-14T06:06:23Z</time>
      </trkpt>
      <trkpt lat="38.006698" lon="-1.150063">
        <ele>55.4</ele>
        <time>2016-05-14T06:06:40Z</time>
      </trkpt>
      <trkpt lat="38.006894" lon="-1.150219">
        <ele>55.9</ele>
        <time>2016-05-14T06:07:00Z</time>
      </trkpt>
      <trkpt lat="38.006934" lon="-1.150201">
        <ele>55.9</ele>
        <time>2016-05-14T06:07:04Z</time>
      </trkpt>
      <trkpt lat="38.007033" lon="-1.150117">
        <ele>55.9</ele>
        <time>2016-05-14T06:07:13Z</time>
      </trkpt>
      <trkpt lat="38.007220" lon="-1.150126">
        <ele>56.4</ele>
        <time>2016-05-14T06:07:29Z</time>
      </trkpt>
      <trkpt lat="38.007266" lon="-1.150112">
        <ele>56.4</ele>
        <time>2016-05-14T06:07:33Z</time>
      </trkpt>
      <trkpt lat="38.007374" lon="-1.150080">
        <ele>56.4</ele>
        <time>2016-05-14T06:07:42Z</time>
      </trkpt>
      <trkpt lat="38.007434" lon="-1.150034">
        <ele>55.9</ele>
        <time>2016-05-14T06:07:49Z</time>
      </trkpt>
      <trkpt lat="38.007481" lon="-1.150093">
        <ele>56.9</ele>
        <time>2016-05-14T06:07:55Z</time>
      </trkpt>
      <trkpt lat="38.007446" lon="-1.150226">
        <ele>55.9</ele>
        <time>2016-05-14T06:08:07Z</time>
      </trkpt>
      <trkpt lat="38.007408" lon="-1.150447">
        <ele>57.3</ele>
        <time>2016-05-14T06:08:24Z</time>
      </trkpt>
      <trkpt lat="38.007424" lon="-1.150481">
        <ele>56.4</ele>
        <time>2016-05-14T06:08:27Z</time>
      </trkpt>
      <trkpt lat="38.007483" lon="-1.150523">
        <ele>56.9</ele>
        <time>2016-05-14T06:08:32Z</time>
      </trkpt>
      <trkpt lat="38.007500" lon="-1.150570">
        <ele>57.3</ele>
        <time>2016-05-14T06:08:35Z</time>
      </trkpt>
      <trkpt lat="38.007539" lon="-1.150626">
        <ele>57.3</ele>
        <time>2016-05-14T06:08:40Z</time>
      </trkpt>
      <trkpt lat="38.007683" lon="-1.150785">
        <ele>56.4</ele>
        <time>2016-05-14T06:08:56Z</time>
      </trkpt>
      <trkpt lat="38.007734" lon="-1.150854">
        <ele>56.9</ele>
        <time>2016-05-14T06:09:02Z</time>
      </trkpt>
      <trkpt lat="38.007802" lon="-1.150954">
        <ele>57.3</ele>
        <time>2016-05-14T06:09:11Z</time>
      </trkpt>
      <trkpt lat="38.007934" lon="-1.151089">
        <ele>57.8</ele>
        <time>2016-05-14T06:09:25Z</time>
      </trkpt>
      <trkpt lat="38.008078" lon="-1.151224">
        <ele>57.3</ele>
        <time>2016-05-14T06:09:40Z</time>
      </trkpt>
      <trkpt lat="38.008248" lon="-1.151351">
        <ele>56.9</ele>
        <time>2016-05-14T06:09:55Z</time>
      </trkpt>
      <trkpt lat="38.008383" lon="-1.151455">
        <ele>57.3</ele>
        <time>2016-05-14T06:10:09Z</time>
      </trkpt>
      <trkpt lat="38.008553" lon="-1.151570">
        <ele>57.3</ele>
        <time>2016-05-14T06:10:25Z</time>
      </trkpt>
      <trkpt lat="38.008620" lon="-1.151643">
        <ele>57.3</ele>
        <time>2016-05-14T06:10:33Z</time>
      </trkpt>
      <trkpt lat="38.008747" lon="-1.151759">
        <ele>57.8</ele>
        <time>2016-05-14T06:10:47Z</time>
      </trkpt>
      <trkpt lat="38.008780" lon="-1.151813">
        <ele>57.3</ele>
        <time>2016-05-14T06:10:51Z</time>
      </trkpt>
      <trkpt lat="38.008835" lon="-1.151903">
        <ele>58.3</ele>
        <time>2016-05-14T06:10:59Z</time>
      </trkpt>
      <trkpt lat="38.008945" lon="-1.152032">
        <ele>58.3</ele>
        <time>2016-05-14T06:11:13Z</time>
      </trkpt>
      <trkpt lat="38.009193" lon="-1.152258">
        <ele>59.3</ele>
        <time>2016-05-14T06:11:38Z</time>
      </trkpt>
      <trkpt lat="38.009310" lon="-1.152587">
        <ele>59.3</ele>
        <time>2016-05-14T06:11:58Z</time>
      </trkpt>
      <trkpt lat="38.009331" lon="-1.152606">
        <ele>59.3</ele>
        <time>2016-05-14T06:12:00Z</time>
      </trkpt>
      <trkpt lat="38.009444" lon="-1.152672">
        <ele>58.8</ele>
        <time>2016-05-14T06:12:10Z</time>
      </trkpt>
      <trkpt lat="38.009603" lon="-1.152829">
        <ele>59.3</ele>
        <time>2016-05-14T06:12:26Z</time>
      </trkpt>
      <trkpt lat="38.009703" lon="-1.152913">
        <ele>60.2</ele>
        <time>2016-05-14T06:12:36Z</time>
      </trkpt>
      <trkpt lat="38.009786" lon="-1.153027">
        <ele>59.7</ele>
        <time>2016-05-14T06:12:46Z</time>
      </trkpt>
      <trkpt lat="38.009915" lon="-1.153182">
        <ele>60.2</ele>
        <time>2016-05-14T06:13:03Z</time>
      </trkpt>
      <trkpt lat="38.010044" lon="-1.153383">
        <ele>60.7</ele>
        <time>2016-05-14T06:13:17Z</time>
      </trkpt>
      <trkpt lat="38.010257" lon="-1.153558">
        <ele>61.2</ele>
        <time>2016-05-14T06:13:31Z</time>
      </trkpt>
      <trkpt lat="38.010338" lon="-1.153690">
        <ele>60.2</ele>
        <time>2016-05-14T06:13:42Z</time>
      </trkpt>
      <trkpt lat="38.010449" lon="-1.153796">
        <ele>61.7</ele>
        <time>2016-05-14T06:13:52Z</time>
      </trkpt>
      <trkpt lat="38.010550" lon="-1.153916">
        <ele>61.2</ele>
        <time>2016-05-14T06:14:04Z</time>
      </trkpt>
      <trkpt lat="38.010597" lon="-1.153923">
        <ele>61.2</ele>
        <time>2016-05-14T06:14:11Z</time>
      </trkpt>
      <trkpt lat="38.010627" lon="-1.153982">
        <ele>62.1</ele>
        <time>2016-05-14T06:14:16Z</time>
      </trkpt>
      <trkpt lat="38.010653" lon="-1.153996">
        <ele>61.7</ele>
        <time>2016-05-14T06:14:19Z</time>
      </trkpt>
      <trkpt lat="38.010693" lon="-1.154042">
        <ele>62.1</ele>
        <time>2016-05-14T06:14:23Z</time>
      </trkpt>
      <trkpt lat="38.010767" lon="-1.154147">
        <ele>62.6</ele>
        <time>2016-05-14T06:14:46Z</time>
      </trkpt>
      <trkpt lat="38.010767" lon="-1.154168">
        <ele>62.6</ele>
        <time>2016-05-14T06:15:15Z</time>
      </trkpt>
      <trkpt lat="38.010904" lon="-1.154246">
        <ele>62.6</ele>
        <time>2016-05-14T06:15:33Z</time>
      </trkpt>
      <trkpt lat="38.010988" lon="-1.154307">
        <ele>62.6</ele>
        <time>2016-05-14T06:15:41Z</time>
      </trkpt>
      <trkpt lat="38.011153" lon="-1.154433">
        <ele>64.1</ele>
        <time>2016-05-14T06:15:57Z</time>
      </trkpt>
      <trkpt lat="38.011238" lon="-1.154546">
        <ele>63.6</ele>
        <time>2016-05-14T06:16:12Z</time>
      </trkpt>
      <trkpt lat="38.011236" lon="-1.154548">
        <ele>63.6</ele>
        <time>2016-05-14T06:16:13Z</time>
      </trkpt>
      <trkpt lat="38.011272" lon="-1.154632">
        <ele>64.1</ele>
        <time>2016-05-14T06:16:19Z</time>
      </trkpt>
      <trkpt lat="38.011349" lon="-1.154732">
        <ele>63.6</ele>
        <time>2016-05-14T06:16:34Z</time>
      </trkpt>
      <trkpt lat="38.011375" lon="-1.154743">
        <ele>64.1</ele>
        <time>2016-05-14T06:16:37Z</time>
      </trkpt>
      <trkpt lat="38.011308" lon="-1.154881">
        <ele>64.1</ele>
        <time>2016-05-14T06:16:45Z</time>
      </trkpt>
      <trkpt lat="38.011195" lon="-1.155038">
        <ele>63.6</ele>
        <time>2016-05-14T06:17:01Z</time>
      </trkpt>
      <trkpt lat="38.011018" lon="-1.155260">
        <ele>63.1</ele>
        <time>2016-05-14T06:17:15Z</time>
      </trkpt>
      <trkpt lat="38.011015" lon="-1.155355">
        <ele>63.6</ele>
        <time>2016-05-14T06:17:19Z</time>
      </trkpt>
      <trkpt lat="38.010994" lon="-1.155432">
        <ele>63.1</ele>
        <time>2016-05-14T06:17:30Z</time>
      </trkpt>
      <trkpt lat="38.010919" lon="-1.155560">
        <ele>63.1</ele>
        <time>2016-05-14T06:17:37Z</time>
      </trkpt>
      <trkpt lat="38.011022" lon="-1.155710">
        <ele>62.6</ele>
        <time>2016-05-14T06:17:49Z</time>
      </trkpt>
      <trkpt lat="38.011012" lon="-1.155736">
        <ele>62.1</ele>
        <time>2016-05-14T06:17:52Z</time>
      </trkpt>
      <trkpt lat="38.010967" lon="-1.155783">
        <ele>61.7</ele>
        <time>2016-05-14T06:17:57Z</time>
      </trkpt>
      <trkpt lat="38.010959" lon="-1.155808">
        <ele>61.7</ele>
        <time>2016-05-14T06:17:59Z</time>
      </trkpt>
      <trkpt lat="38.011194" lon="-1.155962">
        <ele>62.6</ele>
        <time>2016-05-14T06:18:17Z</time>
      </trkpt>
      <trkpt lat="38.011314" lon="-1.156059">
        <ele>63.1</ele>
        <time>2016-05-14T06:18:31Z</time>
      </trkpt>
      <trkpt lat="38.011442" lon="-1.156290">
        <ele>63.6</ele>
        <time>2016-05-14T06:18:47Z</time>
      </trkpt>
      <trkpt lat="38.011519" lon="-1.156411">
        <ele>63.6</ele>
        <time>2016-05-14T06:18:56Z</time>
      </trkpt>
      <trkpt lat="38.011682" lon="-1.156595">
        <ele>63.6</ele>
        <time>2016-05-14T06:19:13Z</time>
      </trkpt>
      <trkpt lat="38.011824" lon="-1.156730">
        <ele>63.6</ele>
        <time>2016-05-14T06:19:29Z</time>
      </trkpt>
      <trkpt lat="38.011868" lon="-1.156778">
        <ele>64.6</ele>
        <time>2016-05-14T06:19:33Z</time>
      </trkpt>
      <trkpt lat="38.011916" lon="-1.156861">
        <ele>64.6</ele>
        <time>2016-05-14T06:19:46Z</time>
      </trkpt>
      <trkpt lat="38.011929" lon="-1.156897">
        <ele>64.6</ele>
        <time>2016-05-14T06:19:49Z</time>
      </trkpt>
      <trkpt lat="38.012009" lon="-1.157118">
        <ele>64.6</ele>
        <time>2016-05-14T06:20:04Z</time>
      </trkpt>
      <trkpt lat="38.012141" lon="-1.157349">
        <ele>64.6</ele>
        <time>2016-05-14T06:20:22Z</time>
      </trkpt>
      <trkpt lat="38.012234" lon="-1.157505">
        <ele>66.5</ele>
        <time>2016-05-14T06:20:34Z</time>
      </trkpt>
      <trkpt lat="38.012340" lon="-1.157682">
        <ele>62.1</ele>
        <time>2016-05-14T06:20:47Z</time>
      </trkpt>
      <trkpt lat="38.012348" lon="-1.157699">
        <ele>69.3</ele>
        <time>2016-05-14T06:20:48Z</time>
      </trkpt>
      <trkpt lat="38.012386" lon="-1.157831">
        <ele>66.5</ele>
        <time>2016-05-14T06:20:56Z</time>
      </trkpt>
      <trkpt lat="38.012406" lon="-1.157995">
        <ele>66.5</ele>
        <time>2016-05-14T06:21:08Z</time>
      </trkpt>
      <trkpt lat="38.012468" lon="-1.158118">
        <ele>66.9</ele>
        <time>2016-05-14T06:21:15Z</time>
      </trkpt>
      <trkpt lat="38.012486" lon="-1.158162">
        <ele>65.5</ele>
        <time>2016-05-14T06:21:18Z</time>
      </trkpt>
      <trkpt lat="38.012457" lon="-1.158279">
        <ele>66.5</ele>
        <time>2016-05-14T06:21:26Z</time>
      </trkpt>
      <trkpt lat="38.012350" lon="-1.158420">
        <ele>68.4</ele>
        <time>2016-05-14T06:21:37Z</time>
      </trkpt>
      <trkpt lat="38.012193" lon="-1.158648">
        <ele>69.3</ele>
        <time>2016-05-14T06:21:57Z</time>
      </trkpt>
      <trkpt lat="38.012170" lon="-1.158736">
        <ele>68.4</ele>
        <time>2016-05-14T06:22:03Z</time>
      </trkpt>
      <trkpt lat="38.012172" lon="-1.158821">
        <ele>69.3</ele>
        <time>2016-05-14T06:22:08Z</time>
      </trkpt>
      <trkpt lat="38.012238" lon="-1.159023">
        <ele>69.3</ele>
        <time>2016-05-14T06:22:22Z</time>
      </trkpt>
      <trkpt lat="38.012245" lon="-1.159033">
        <ele>69.3</ele>
        <time>2016-05-14T06:22:23Z</time>
      </trkpt>
      <trkpt lat="38.012236" lon="-1.159107">
        <ele>69.8</ele>
        <time>2016-05-14T06:22:28Z</time>
      </trkpt>
      <trkpt lat="38.012212" lon="-1.159201">
        <ele>69.8</ele>
        <time>2016-05-14T06:22:35Z</time>
      </trkpt>
      <trkpt lat="38.012198" lon="-1.159273">
        <ele>67.9</ele>
        <time>2016-05-14T06:22:47Z</time>
      </trkpt>
      <trkpt lat="38.012197" lon="-1.159272">
        <ele>72.7</ele>
        <time>2016-05-14T06:22:48Z</time>
      </trkpt>
      <trkpt lat="38.012197" lon="-1.159274">
        <ele>70.3</ele>
        <time>2016-05-14T06:22:49Z</time>
      </trkpt>
      <trkpt lat="38.012141" lon="-1.159466">
        <ele>70.8</ele>
        <time>2016-05-14T06:23:03Z</time>
      </trkpt>
      <trkpt lat="38.012080" lon="-1.159684">
        <ele>71.3</ele>
        <time>2016-05-14T06:23:18Z</time>
      </trkpt>
      <trkpt lat="38.012076" lon="-1.159710">
        <ele>71.3</ele>
        <time>2016-05-14T06:23:20Z</time>
      </trkpt>
      <trkpt lat="38.012026" lon="-1.159887">
        <ele>72.2</ele>
        <time>2016-05-14T06:23:33Z</time>
      </trkpt>
      <trkpt lat="38.011990" lon="-1.160149">
        <ele>73.2</ele>
        <time>2016-05-14T06:23:51Z</time>
      </trkpt>
      <trkpt lat="38.011988" lon="-1.160252">
        <ele>72.7</ele>
        <time>2016-05-14T06:23:58Z</time>
      </trkpt>
      <trkpt lat="38.012000" lon="-1.160434">
        <ele>72.7</ele>
        <time>2016-05-14T06:24:10Z</time>
      </trkpt>
      <trkpt lat="38.011992" lon="-1.160571">
        <ele>73.2</ele>
        <time>2016-05-14T06:24:23Z</time>
      </trkpt>
      <trkpt lat="38.012027" lon="-1.160633">
        <ele>72.7</ele>
        <time>2016-05-14T06:24:33Z</time>
      </trkpt>
      <trkpt lat="38.012035" lon="-1.160860">
        <ele>73.7</ele>
        <time>2016-05-14T06:24:46Z</time>
      </trkpt>
      <trkpt lat="38.012082" lon="-1.161110">
        <ele>75.1</ele>
        <time>2016-05-14T06:25:01Z</time>
      </trkpt>
      <trkpt lat="38.012092" lon="-1.161139">
        <ele>74.2</ele>
        <time>2016-05-14T06:25:03Z</time>
      </trkpt>
      <trkpt lat="38.012122" lon="-1.161258">
        <ele>74.6</ele>
        <time>2016-05-14T06:25:11Z</time>
      </trkpt>
      <trkpt lat="38.012175" lon="-1.161412">
        <ele>75.1</ele>
        <time>2016-05-14T06:25:21Z</time>
      </trkpt>
      <trkpt lat="38.012194" lon="-1.161460">
        <ele>75.1</ele>
        <time>2016-05-14T06:25:25Z</time>
      </trkpt>
      <trkpt lat="38.012207" lon="-1.161530">
        <ele>75.1</ele>
        <time>2016-05-14T06:25:29Z</time>
      </trkpt>
      <trkpt lat="38.012291" lon="-1.161752">
        <ele>76.1</ele>
        <time>2016-05-14T06:25:45Z</time>
      </trkpt>
      <trkpt lat="38.012290" lon="-1.161775">
        <ele>75.6</ele>
        <time>2016-05-14T06:25:51Z</time>
      </trkpt>
      <trkpt lat="38.012303" lon="-1.161912">
        <ele>76.1</ele>
        <time>2016-05-14T06:25:59Z</time>
      </trkpt>
      <trkpt lat="38.012430" lon="-1.162130">
        <ele>75.6</ele>
        <time>2016-05-14T06:26:14Z</time>
      </trkpt>
      <trkpt lat="38.012499" lon="-1.162344">
        <ele>76.6</ele>
        <time>2016-05-14T06:26:28Z</time>
      </trkpt>
      <trkpt lat="38.012489" lon="-1.162411">
        <ele>77.5</ele>
        <time>2016-05-14T06:26:34Z</time>
      </trkpt>
      <trkpt lat="38.012508" lon="-1.162680">
        <ele>77.5</ele>
        <time>2016-05-14T06:26:51Z</time>
      </trkpt>
      <trkpt lat="38.012538" lon="-1.162975">
        <ele>76.6</ele>
        <time>2016-05-14T06:27:10Z</time>
      </trkpt>
      <trkpt lat="38.012517" lon="-1.163249">
        <ele>76.6</ele>
        <time>2016-05-14T06:27:27Z</time>
      </trkpt>
      <trkpt lat="38.012520" lon="-1.163454">
        <ele>76.6</ele>
        <time>2016-05-14T06:27:41Z</time>
      </trkpt>
      <trkpt lat="38.012517" lon="-1.163506">
        <ele>76.6</ele>
        <time>2016-05-14T06:27:44Z</time>
      </trkpt>
      <trkpt lat="38.012513" lon="-1.163540">
        <ele>76.1</ele>
        <time>2016-05-14T06:27:46Z</time>
      </trkpt>
      <trkpt lat="38.012521" lon="-1.163610">
        <ele>75.6</ele>
        <time>2016-05-14T06:27:52Z</time>
      </trkpt>
      <trkpt lat="38.012502" lon="-1.163672">
        <ele>76.6</ele>
        <time>2016-05-14T06:27:56Z</time>
      </trkpt>
      <trkpt lat="38.012447" lon="-1.163870">
        <ele>79.0</ele>
        <time>2016-05-14T06:28:08Z</time>
      </trkpt>
      <trkpt lat="38.012423" lon="-1.163949">
        <ele>79.4</ele>
        <time>2016-05-14T06:28:14Z</time>
      </trkpt>
      <trkpt lat="38.012323" lon="-1.164139">
        <ele>80.4</ele>
        <time>2016-05-14T06:28:28Z</time>
      </trkpt>
      <trkpt lat="38.012238" lon="-1.164376">
        <ele>80.9</ele>
        <time>2016-05-14T06:28:40Z</time>
      </trkpt>
      <trkpt lat="38.012254" lon="-1.164374">
        <ele>80.9</ele>
        <time>2016-05-14T06:28:54Z</time>
      </trkpt>
      <trkpt lat="38.012248" lon="-1.164360">
        <ele>80.9</ele>
        <time>2016-05-14T06:29:06Z</time>
      </trkpt>
      <trkpt lat="38.012209" lon="-1.164395">
        <ele>80.9</ele>
        <time>2016-05-14T06:29:16Z</time>
      </trkpt>
      <trkpt lat="38.012209" lon="-1.164461">
        <ele>81.4</ele>
        <time>2016-05-14T06:29:36Z</time>
      </trkpt>
      <trkpt lat="38.012200" lon="-1.164593">
        <ele>81.8</ele>
        <time>2016-05-14T06:29:48Z</time>
      </trkpt>
      <trkpt lat="38.012215" lon="-1.164809">
        <ele>81.8</ele>
        <time>2016-05-14T06:30:02Z</time>
      </trkpt>
      <trkpt lat="38.012242" lon="-1.165049">
        <ele>83.3</ele>
        <time>2016-05-14T06:30:18Z</time>
      </trkpt>
      <trkpt lat="38.012240" lon="-1.165089">
        <ele>82.8</ele>
        <time>2016-05-14T06:30:22Z</time>
      </trkpt>
      <trkpt lat="38.012238" lon="-1.165129">
        <ele>82.8</ele>
        <time>2016-05-14T06:30:25Z</time>
      </trkpt>
      <trkpt lat="38.012240" lon="-1.165340">
        <ele>83.3</ele>
        <time>2016-05-14T06:30:39Z</time>
      </trkpt>
      <trkpt lat="38.012251" lon="-1.165406">
        <ele>83.3</ele>
        <time>2016-05-14T06:30:43Z</time>
      </trkpt>
      <trkpt lat="38.012160" lon="-1.165703">
        <ele>84.7</ele>
        <time>2016-05-14T06:31:02Z</time>
      </trkpt>
      <trkpt lat="38.012105" lon="-1.165862">
        <ele>86.7</ele>
        <time>2016-05-14T06:31:13Z</time>
      </trkpt>
      <trkpt lat="38.012052" lon="-1.165962">
        <ele>87.1</ele>
        <time>2016-05-14T06:31:35Z</time>
      </trkpt>
      <trkpt lat="38.012172" lon="-1.166058">
        <ele>86.7</ele>
        <time>2016-05-14T06:31:48Z</time>
      </trkpt>
      <trkpt lat="38.012180" lon="-1.166068">
        <ele>86.2</ele>
        <time>2016-05-14T06:31:49Z</time>
      </trkpt>
      <trkpt lat="38.012153" lon="-1.166185">
        <ele>87.6</ele>
        <time>2016-05-14T06:32:01Z</time>
      </trkpt>
      <trkpt lat="38.012149" lon="-1.166198">
        <ele>89.1</ele>
        <time>2016-05-14T06:32:02Z</time>
      </trkpt>
      <trkpt lat="38.012184" lon="-1.166323">
        <ele>88.6</ele>
        <time>2016-05-14T06:32:11Z</time>
      </trkpt>
      <trkpt lat="38.012215" lon="-1.166357">
        <ele>89.1</ele>
        <time>2016-05-14T06:32:15Z</time>
      </trkpt>
      <trkpt lat="38.012408" lon="-1.166408">
        <ele>90.0</ele>
        <time>2016-05-14T06:32:32Z</time>
      </trkpt>
      <trkpt lat="38.012438" lon="-1.166433">
        <ele>90.0</ele>
        <time>2016-05-14T06:32:43Z</time>
      </trkpt>
      <trkpt lat="38.012436" lon="-1.166432">
        <ele>89.5</ele>
        <time>2016-05-14T06:32:58Z</time>
      </trkpt>
      <trkpt lat="38.012440" lon="-1.166434">
        <ele>89.5</ele>
        <time>2016-05-14T06:33:00Z</time>
      </trkpt>
      <trkpt lat="38.012497" lon="-1.166687">
        <ele>89.5</ele>
        <time>2016-05-14T06:33:16Z</time>
      </trkpt>
      <trkpt lat="38.012321" lon="-1.166751">
        <ele>90.5</ele>
        <time>2016-05-14T06:33:31Z</time>
      </trkpt>
      <trkpt lat="38.012178" lon="-1.166824">
        <ele>91.0</ele>
        <time>2016-05-14T06:33:45Z</time>
      </trkpt>
      <trkpt lat="38.012170" lon="-1.166834">
        <ele>91.5</ele>
        <time>2016-05-14T06:33:46Z</time>
      </trkpt>
      <trkpt lat="38.011948" lon="-1.166960">
        <ele>92.9</ele>
        <time>2016-05-14T06:34:05Z</time>
      </trkpt>
      <trkpt lat="38.011861" lon="-1.167012">
        <ele>92.4</ele>
        <time>2016-05-14T06:34:14Z</time>
      </trkpt>
      <trkpt lat="38.011831" lon="-1.167128">
        <ele>93.9</ele>
        <time>2016-05-14T06:34:27Z</time>
      </trkpt>
      <trkpt lat="38.011815" lon="-1.167215">
        <ele>93.9</ele>
        <time>2016-05-14T06:34:40Z</time>
      </trkpt>
      <trkpt lat="38.011806" lon="-1.167253">
        <ele>94.3</ele>
        <time>2016-05-14T06:34:48Z</time>
      </trkpt>
      <trkpt lat="38.011806" lon="-1.167317">
        <ele>94.8</ele>
        <time>2016-05-14T06:34:53Z</time>
      </trkpt>
      <trkpt lat="38.011806" lon="-1.167470">
        <ele>94.8</ele>
        <time>2016-05-14T06:35:04Z</time>
      </trkpt>
      <trkpt lat="38.011813" lon="-1.167582">
        <ele>95.3</ele>
        <time>2016-05-14T06:35:12Z</time>
      </trkpt>
      <trkpt lat="38.011814" lon="-1.167844">
        <ele>95.3</ele>
        <time>2016-05-14T06:35:29Z</time>
      </trkpt>
      <trkpt lat="38.011831" lon="-1.167859">
        <ele>95.3</ele>
        <time>2016-05-14T06:35:35Z</time>
      </trkpt>
      <trkpt lat="38.011831" lon="-1.167956">
        <ele>95.3</ele>
        <time>2016-05-14T06:35:41Z</time>
      </trkpt>
      <trkpt lat="38.011863" lon="-1.168243">
        <ele>94.8</ele>
        <time>2016-05-14T06:36:02Z</time>
      </trkpt>
      <trkpt lat="38.011860" lon="-1.168288">
        <ele>94.8</ele>
        <time>2016-05-14T06:36:07Z</time>
      </trkpt>
      <trkpt lat="38.011882" lon="-1.168353">
        <ele>94.8</ele>
        <time>2016-05-14T06:36:12Z</time>
      </trkpt>
      <trkpt lat="38.011969" lon="-1.168623">
        <ele>93.9</ele>
        <time>2016-05-14T06:36:32Z</time>
      </trkpt>
      <trkpt lat="38.011998" lon="-1.168653">
        <ele>93.4</ele>
        <time>2016-05-14T06:36:37Z</time>
      </trkpt>
      <trkpt lat="38.012141" lon="-1.168711">
        <ele>92.4</ele>
        <time>2016-05-14T06:36:49Z</time>
      </trkpt>
      <trkpt lat="38.012283" lon="-1.168756">
        <ele>91.9</ele>
        <time>2016-05-14T06:37:03Z</time>
      </trkpt>
      <trkpt lat="38.012280" lon="-1.168782">
        <ele>91.5</ele>
        <time>2016-05-14T06:37:10Z</time>
      </trkpt>
      <trkpt lat="38.012293" lon="-1.169019">
        <ele>92.4</ele>
        <time>2016-05-14T06:37:26Z</time>
      </trkpt>
      <trkpt lat="38.012468" lon="-1.169238">
        <ele>92.9</ele>
        <time>2016-05-14T06:37:44Z</time>
      </trkpt>
      <trkpt lat="38.012486" lon="-1.169263">
        <ele>92.4</ele>
        <time>2016-05-14T06:37:46Z</time>
      </trkpt>
      <trkpt lat="38.012492" lon="-1.169337">
        <ele>92.4</ele>
        <time>2016-05-14T06:37:51Z</time>
      </trkpt>
      <trkpt lat="38.012522" lon="-1.169377">
        <ele>92.4</ele>
        <time>2016-05-14T06:37:55Z</time>
      </trkpt>
      <trkpt lat="38.012699" lon="-1.169347">
        <ele>92.4</ele>
        <time>2016-05-14T06:38:10Z</time>
      </trkpt>
      <trkpt lat="38.012720" lon="-1.169356">
        <ele>92.4</ele>
        <time>2016-05-14T06:38:12Z</time>
      </trkpt>
      <trkpt lat="38.012755" lon="-1.169431">
        <ele>92.4</ele>
        <time>2016-05-14T06:38:18Z</time>
      </trkpt>
      <trkpt lat="38.012823" lon="-1.169648">
        <ele>93.4</ele>
        <time>2016-05-14T06:38:33Z</time>
      </trkpt>
      <trkpt lat="38.012833" lon="-1.169825">
        <ele>94.3</ele>
        <time>2016-05-14T06:38:44Z</time>
      </trkpt>
      <trkpt lat="38.012836" lon="-1.170089">
        <ele>95.3</ele>
        <time>2016-05-14T06:39:00Z</time>
      </trkpt>
      <trkpt lat="38.012827" lon="-1.170269">
        <ele>96.8</ele>
        <time>2016-05-14T06:39:13Z</time>
      </trkpt>
      <trkpt lat="38.012799" lon="-1.170505">
        <ele>97.2</ele>
        <time>2016-05-14T06:39:28Z</time>
      </trkpt>
      <trkpt lat="38.012790" lon="-1.170540">
        <ele>97.2</ele>
        <time>2016-05-14T06:39:30Z</time>
      </trkpt>
      <trkpt lat="38.012777" lon="-1.170610">
        <ele>97.2</ele>
        <time>2016-05-14T06:39:35Z</time>
      </trkpt>
      <trkpt lat="38.012739" lon="-1.170790">
        <ele>97.7</ele>
        <time>2016-05-14T06:39:46Z</time>
      </trkpt>
      <trkpt lat="38.012693" lon="-1.171021">
        <ele>98.7</ele>
        <time>2016-05-14T06:40:00Z</time>
      </trkpt>
      <trkpt lat="38.012689" lon="-1.171238">
        <ele>99.2</ele>
        <time>2016-05-14T06:40:13Z</time>
      </trkpt>
      <trkpt lat="38.012695" lon="-1.171473">
        <ele>100.1</ele>
        <time>2016-05-14T06:40:26Z</time>
      </trkpt>
      <trkpt lat="38.012723" lon="-1.171723">
        <ele>100.1</ele>
        <time>2016-05-14T06:40:42Z</time>
      </trkpt>
      <trkpt lat="38.012735" lon="-1.171874">
        <ele>100.6</ele>
        <time>2016-05-14T06:40:51Z</time>
      </trkpt>
      <trkpt lat="38.012762" lon="-1.171956">
        <ele>101.6</ele>
        <time>2016-05-14T06:40:57Z</time>
      </trkpt>
      <trkpt lat="38.012783" lon="-1.172042">
        <ele>102.5</ele>
        <time>2016-05-14T06:41:07Z</time>
      </trkpt>
      <trkpt lat="38.012851" lon="-1.172228">
        <ele>102.5</ele>
        <time>2016-05-14T06:41:18Z</time>
      </trkpt>
      <trkpt lat="38.012850" lon="-1.172251">
        <ele>103.0</ele>
        <time>2016-05-14T06:41:20Z</time>
      </trkpt>
      <trkpt lat="38.012887" lon="-1.172335">
        <ele>103.0</ele>
        <time>2016-05-14T06:41:26Z</time>
      </trkpt>
      <trkpt lat="38.012918" lon="-1.172420">
        <ele>103.0</ele>
        <time>2016-05-14T06:41:32Z</time>
      </trkpt>
      <trkpt lat="38.012982" lon="-1.172568">
        <ele>103.5</ele>
        <time>2016-05-14T06:41:42Z</time>
      </trkpt>
      <trkpt lat="38.013040" lon="-1.172680">
        <ele>104.0</ele>
        <time>2016-05-14T06:41:50Z</time>
      </trkpt>
      <trkpt lat="38.013108" lon="-1.172776">
        <ele>104.9</ele>
        <time>2016-05-14T06:41:58Z</time>
      </trkpt>
      <trkpt lat="38.013150" lon="-1.172832">
        <ele>104.9</ele>
        <time>2016-05-14T06:42:03Z</time>
      </trkpt>
      <trkpt lat="38.013335" lon="-1.172984">
        <ele>104.9</ele>
        <time>2016-05-14T06:42:24Z</time>
      </trkpt>
      <trkpt lat="38.013466" lon="-1.173144">
        <ele>106.4</ele>
        <time>2016-05-14T06:42:38Z</time>
      </trkpt>
      <trkpt lat="38.013511" lon="-1.173170">
        <ele>106.8</ele>
        <time>2016-05-14T06:42:42Z</time>
      </trkpt>
      <trkpt lat="38.013689" lon="-1.173312">
        <ele>107.8</ele>
        <time>2016-05-14T06:42:59Z</time>
      </trkpt>
      <trkpt lat="38.013706" lon="-1.173327">
        <ele>107.3</ele>
        <time>2016-05-14T06:43:01Z</time>
      </trkpt>
      <trkpt lat="38.013873" lon="-1.173387">
        <ele>108.3</ele>
        <time>2016-05-14T06:43:15Z</time>
      </trkpt>
      <trkpt lat="38.013900" lon="-1.173402">
        <ele>108.3</ele>
        <time>2016-05-14T06:43:18Z</time>
      </trkpt>
      <trkpt lat="38.013912" lon="-1.173414">
        <ele>106.8</ele>
        <time>2016-05-14T06:43:22Z</time>
      </trkpt>
      <trkpt lat="38.014057" lon="-1.173462">
        <ele>108.8</ele>
        <time>2016-05-14T06:44:11Z</time>
      </trkpt>
      <trkpt lat="38.014259" lon="-1.173540">
        <ele>109.7</ele>
        <time>2016-05-14T06:44:27Z</time>
      </trkpt>
      <trkpt lat="38.014454" lon="-1.173609">
        <ele>110.7</ele>
        <time>2016-05-14T06:44:43Z</time>
      </trkpt>
      <trkpt lat="38.014625" lon="-1.173636">
        <ele>111.2</ele>
        <time>2016-05-14T06:44:56Z</time>
      </trkpt>
      <trkpt lat="38.014888" lon="-1.173729">
        <ele>111.2</ele>
        <time>2016-05-14T06:45:16Z</time>
      </trkpt>
      <trkpt lat="38.014931" lon="-1.173764">
        <ele>112.1</ele>
        <time>2016-05-14T06:45:20Z</time>
      </trkpt>
      <trkpt lat="38.015012" lon="-1.173769">
        <ele>112.6</ele>
        <time>2016-05-14T06:45:26Z</time>
      </trkpt>
      <trkpt lat="38.015012" lon="-1.174025">
        <ele>113.1</ele>
        <time>2016-05-14T06:45:47Z</time>
      </trkpt>
      <trkpt lat="38.015376" lon="-1.174021">
        <ele>115.5</ele>
        <time>2016-05-14T06:46:03Z</time>
      </trkpt>
      <trkpt lat="38.015491" lon="-1.174023">
        <ele>113.1</ele>
        <time>2016-05-14T06:46:05Z</time>
      </trkpt>
      <trkpt lat="38.015579" lon="-1.174006">
        <ele>113.1</ele>
        <time>2016-05-14T06:46:12Z</time>
      </trkpt>
      <trkpt lat="38.015656" lon="-1.173989">
        <ele>113.1</ele>
        <time>2016-05-14T06:46:27Z</time>
      </trkpt>
      <trkpt lat="38.015696" lon="-1.173981">
        <ele>113.6</ele>
        <time>2016-05-14T06:46:34Z</time>
      </trkpt>
      <trkpt lat="38.015734" lon="-1.173974">
        <ele>113.6</ele>
        <time>2016-05-14T06:46:43Z</time>
      </trkpt>
      <trkpt lat="38.015783" lon="-1.173976">
        <ele>114.1</ele>
        <time>2016-05-14T06:47:32Z</time>
      </trkpt>
      <trkpt lat="38.015792" lon="-1.174017">
        <ele>114.1</ele>
        <time>2016-05-14T06:47:45Z</time>
      </trkpt>
      <trkpt lat="38.015802" lon="-1.174105">
        <ele>113.1</ele>
        <time>2016-05-14T06:47:50Z</time>
      </trkpt>
      <trkpt lat="38.015809" lon="-1.174200">
        <ele>115.5</ele>
        <time>2016-05-14T06:48:02Z</time>
      </trkpt>
      <trkpt lat="38.015868" lon="-1.174260">
        <ele>116.0</ele>
        <time>2016-05-14T06:48:08Z</time>
      </trkpt>
      <trkpt lat="38.015931" lon="-1.174345">
        <ele>117.4</ele>
        <time>2016-05-14T06:48:21Z</time>
      </trkpt>
      <trkpt lat="38.015873" lon="-1.174424">
        <ele>118.9</ele>
        <time>2016-05-14T06:48:33Z</time>
      </trkpt>
      <trkpt lat="38.015869" lon="-1.174438">
        <ele>118.4</ele>
        <time>2016-05-14T06:48:37Z</time>
      </trkpt>
      <trkpt lat="38.015904" lon="-1.174554">
        <ele>117.9</ele>
        <time>2016-05-14T06:48:45Z</time>
      </trkpt>
      <trkpt lat="38.015868" lon="-1.174608">
        <ele>118.4</ele>
        <time>2016-05-14T06:48:49Z</time>
      </trkpt>
      <trkpt lat="38.015791" lon="-1.174766">
        <ele>118.4</ele>
        <time>2016-05-14T06:49:01Z</time>
      </trkpt>
      <trkpt lat="38.015796" lon="-1.174922">
        <ele>118.4</ele>
        <time>2016-05-14T06:49:12Z</time>
      </trkpt>
      <trkpt lat="38.015853" lon="-1.174951">
        <ele>119.8</ele>
        <time>2016-05-14T06:49:17Z</time>
      </trkpt>
      <trkpt lat="38.015914" lon="-1.175106">
        <ele>120.3</ele>
        <time>2016-05-14T06:49:29Z</time>
      </trkpt>
      <trkpt lat="38.015895" lon="-1.175154">
        <ele>119.8</ele>
        <time>2016-05-14T06:49:32Z</time>
      </trkpt>
      <trkpt lat="38.015863" lon="-1.175223">
        <ele>119.8</ele>
        <time>2016-05-14T06:49:38Z</time>
      </trkpt>
      <trkpt lat="38.015834" lon="-1.175267">
        <ele>120.3</ele>
        <time>2016-05-14T06:49:44Z</time>
      </trkpt>
      <trkpt lat="38.015768" lon="-1.175366">
        <ele>120.3</ele>
        <time>2016-05-14T06:49:52Z</time>
      </trkpt>
      <trkpt lat="38.015678" lon="-1.175603">
        <ele>121.3</ele>
        <time>2016-05-14T06:50:10Z</time>
      </trkpt>
      <trkpt lat="38.015578" lon="-1.175807">
        <ele>123.2</ele>
        <time>2016-05-14T06:50:26Z</time>
      </trkpt>
      <trkpt lat="38.015499" lon="-1.176005">
        <ele>123.2</ele>
        <time>2016-05-14T06:50:40Z</time>
      </trkpt>
      <trkpt lat="38.015409" lon="-1.176218">
        <ele>123.7</ele>
        <time>2016-05-14T06:50:55Z</time>
      </trkpt>
      <trkpt lat="38.015303" lon="-1.176449">
        <ele>123.7</ele>
        <time>2016-05-14T06:51:12Z</time>
      </trkpt>
      <trkpt lat="38.015258" lon="-1.176588">
        <ele>123.2</ele>
        <time>2016-05-14T06:51:23Z</time>
      </trkpt>
      <trkpt lat="38.015134" lon="-1.176885">
        <ele>123.7</ele>
        <time>2016-05-14T06:51:42Z</time>
      </trkpt>
      <trkpt lat="38.015088" lon="-1.177062">
        <ele>124.2</ele>
        <time>2016-05-14T06:51:54Z</time>
      </trkpt>
      <trkpt lat="38.015038" lon="-1.177219">
        <ele>124.2</ele>
        <time>2016-05-14T06:52:05Z</time>
      </trkpt>
      <trkpt lat="38.014977" lon="-1.177441">
        <ele>124.2</ele>
        <time>2016-05-14T06:52:20Z</time>
      </trkpt>
      <trkpt lat="38.014944" lon="-1.177645">
        <ele>124.6</ele>
        <time>2016-05-14T06:52:34Z</time>
      </trkpt>
      <trkpt lat="38.014905" lon="-1.177901">
        <ele>126.1</ele>
        <time>2016-05-14T06:52:50Z</time>
      </trkpt>
      <trkpt lat="38.014904" lon="-1.177934">
        <ele>126.1</ele>
        <time>2016-05-14T06:52:52Z</time>
      </trkpt>
      <trkpt lat="38.014895" lon="-1.177986">
        <ele>126.6</ele>
        <time>2016-05-14T06:52:56Z</time>
      </trkpt>
      <trkpt lat="38.014862" lon="-1.178061">
        <ele>126.1</ele>
        <time>2016-05-14T06:53:01Z</time>
      </trkpt>
      <trkpt lat="38.014858" lon="-1.178118">
        <ele>126.1</ele>
        <time>2016-05-14T06:53:04Z</time>
      </trkpt>
      <trkpt lat="38.014814" lon="-1.178425">
        <ele>126.6</ele>
        <time>2016-05-14T06:53:20Z</time>
      </trkpt>
      <trkpt lat="38.014813" lon="-1.178494">
        <ele>127.0</ele>
        <time>2016-05-14T06:53:25Z</time>
      </trkpt>
      <trkpt lat="38.014809" lon="-1.178740">
        <ele>127.0</ele>
        <time>2016-05-14T06:53:40Z</time>
      </trkpt>
      <trkpt lat="38.014802" lon="-1.178944">
        <ele>127.5</ele>
        <time>2016-05-14T06:53:52Z</time>
      </trkpt>
      <trkpt lat="38.014796" lon="-1.179028">
        <ele>127.0</ele>
        <time>2016-05-14T06:53:57Z</time>
      </trkpt>
      <trkpt lat="38.014793" lon="-1.179105">
        <ele>128.0</ele>
        <time>2016-05-14T06:54:01Z</time>
      </trkpt>
      <trkpt lat="38.014803" lon="-1.179364">
        <ele>128.5</ele>
        <time>2016-05-14T06:54:16Z</time>
      </trkpt>
      <trkpt lat="38.014836" lon="-1.179659">
        <ele>128.9</ele>
        <time>2016-05-14T06:54:33Z</time>
      </trkpt>
      <trkpt lat="38.014877" lon="-1.179859">
        <ele>128.9</ele>
        <time>2016-05-14T06:54:45Z</time>
      </trkpt>
      <trkpt lat="38.014895" lon="-1.179985">
        <ele>129.4</ele>
        <time>2016-05-14T06:54:53Z</time>
      </trkpt>
      <trkpt lat="38.014972" lon="-1.180228">
        <ele>129.4</ele>
        <time>2016-05-14T06:55:10Z</time>
      </trkpt>
      <trkpt lat="38.014985" lon="-1.180272">
        <ele>129.9</ele>
        <time>2016-05-14T06:55:13Z</time>
      </trkpt>
      <trkpt lat="38.015058" lon="-1.180462">
        <ele>129.9</ele>
        <time>2016-05-14T06:55:27Z</time>
      </trkpt>
      <trkpt lat="38.015111" lon="-1.180687">
        <ele>130.4</ele>
        <time>2016-05-14T06:55:41Z</time>
      </trkpt>
      <trkpt lat="38.015137" lon="-1.180746">
        <ele>130.9</ele>
        <time>2016-05-14T06:55:45Z</time>
      </trkpt>
      <trkpt lat="38.015171" lon="-1.180867">
        <ele>131.4</ele>
        <time>2016-05-14T06:55:59Z</time>
      </trkpt>
      <trkpt lat="38.015171" lon="-1.180868">
        <ele>131.8</ele>
        <time>2016-05-14T06:56:01Z</time>
      </trkpt>
      <trkpt lat="38.015202" lon="-1.180915">
        <ele>131.4</ele>
        <time>2016-05-14T06:56:05Z</time>
      </trkpt>
      <trkpt lat="38.015275" lon="-1.181034">
        <ele>131.4</ele>
        <time>2016-05-14T06:56:15Z</time>
      </trkpt>
      <trkpt lat="38.015383" lon="-1.181293">
        <ele>131.8</ele>
        <time>2016-05-14T06:56:31Z</time>
      </trkpt>
      <trkpt lat="38.015497" lon="-1.181467">
        <ele>132.3</ele>
        <time>2016-05-14T06:56:45Z</time>
      </trkpt>
      <trkpt lat="38.015515" lon="-1.181491">
        <ele>131.8</ele>
        <time>2016-05-14T06:56:57Z</time>
      </trkpt>
      <trkpt lat="38.015666" lon="-1.181675">
        <ele>132.8</ele>
        <time>2016-05-14T06:57:11Z</time>
      </trkpt>
      <trkpt lat="38.015824" lon="-1.181875">
        <ele>133.3</ele>
        <time>2016-05-14T06:57:25Z</time>
      </trkpt>
      <trkpt lat="38.015963" lon="-1.182016">
        <ele>133.8</ele>
        <time>2016-05-14T06:57:36Z</time>
      </trkpt>
      <trkpt lat="38.016055" lon="-1.182127">
        <ele>133.8</ele>
        <time>2016-05-14T06:57:46Z</time>
      </trkpt>
      <trkpt lat="38.016058" lon="-1.182171">
        <ele>133.8</ele>
        <time>2016-05-14T06:57:51Z</time>
      </trkpt>
      <trkpt lat="38.016176" lon="-1.182313">
        <ele>133.8</ele>
        <time>2016-05-14T06:58:06Z</time>
      </trkpt>
      <trkpt lat="38.016193" lon="-1.182335">
        <ele>133.8</ele>
        <time>2016-05-14T06:58:08Z</time>
      </trkpt>
      <trkpt lat="38.016293" lon="-1.182434">
        <ele>133.3</ele>
        <time>2016-05-14T06:58:19Z</time>
      </trkpt>
      <trkpt lat="38.016353" lon="-1.182481">
        <ele>134.2</ele>
        <time>2016-05-14T06:58:25Z</time>
      </trkpt>
      <trkpt lat="38.016463" lon="-1.182607">
        <ele>133.8</ele>
        <time>2016-05-14T06:58:37Z</time>
      </trkpt>
      <trkpt lat="38.016516" lon="-1.182655">
        <ele>133.3</ele>
        <time>2016-05-14T06:58:47Z</time>
      </trkpt>
      <trkpt lat="38.016601" lon="-1.182718">
        <ele>133.3</ele>
        <time>2016-05-14T06:59:28Z</time>
      </trkpt>
      <trkpt lat="38.016793" lon="-1.182871">
        <ele>133.3</ele>
        <time>2016-05-14T06:59:46Z</time>
      </trkpt>
      <trkpt lat="38.016900" lon="-1.182985">
        <ele>133.3</ele>
        <time>2016-05-14T06:59:58Z</time>
      </trkpt>
      <trkpt lat="38.017054" lon="-1.183131">
        <ele>131.8</ele>
        <time>2016-05-14T07:00:13Z</time>
      </trkpt>
      <trkpt lat="38.017061" lon="-1.183142">
        <ele>132.8</ele>
        <time>2016-05-14T07:00:14Z</time>
      </trkpt>
      <trkpt lat="38.017243" lon="-1.183316">
        <ele>132.3</ele>
        <time>2016-05-14T07:00:31Z</time>
      </trkpt>
      <trkpt lat="38.017271" lon="-1.183360">
        <ele>132.3</ele>
        <time>2016-05-14T07:00:35Z</time>
      </trkpt>
      <trkpt lat="38.017293" lon="-1.183388">
        <ele>131.8</ele>
        <time>2016-05-14T07:00:38Z</time>
      </trkpt>
      <trkpt lat="38.017486" lon="-1.183559">
        <ele>131.4</ele>
        <time>2016-05-14T07:00:55Z</time>
      </trkpt>
      <trkpt lat="38.017562" lon="-1.183641">
        <ele>130.9</ele>
        <time>2016-05-14T07:01:03Z</time>
      </trkpt>
      <trkpt lat="38.017741" lon="-1.183787">
        <ele>129.9</ele>
        <time>2016-05-14T07:01:19Z</time>
      </trkpt>
      <trkpt lat="38.017909" lon="-1.183949">
        <ele>129.9</ele>
        <time>2016-05-14T07:01:35Z</time>
      </trkpt>
      <trkpt lat="38.017999" lon="-1.184027">
        <ele>129.9</ele>
        <time>2016-05-14T07:01:43Z</time>
      </trkpt>
      <trkpt lat="38.018038" lon="-1.184073">
        <ele>130.4</ele>
        <time>2016-05-14T07:01:47Z</time>
      </trkpt>
      <trkpt lat="38.018185" lon="-1.184204">
        <ele>129.4</ele>
        <time>2016-05-14T07:02:01Z</time>
      </trkpt>
      <trkpt lat="38.018272" lon="-1.184300">
        <ele>129.4</ele>
        <time>2016-05-14T07:02:10Z</time>
      </trkpt>
      <trkpt lat="38.018478" lon="-1.184496">
        <ele>128.9</ele>
        <time>2016-05-14T07:02:30Z</time>
      </trkpt>
      <trkpt lat="38.018611" lon="-1.184627">
        <ele>128.5</ele>
        <time>2016-05-14T07:02:44Z</time>
      </trkpt>
      <trkpt lat="38.018789" lon="-1.184812">
        <ele>128.0</ele>
        <time>2016-05-14T07:03:02Z</time>
      </trkpt>
      <trkpt lat="38.018981" lon="-1.184994">
        <ele>127.0</ele>
        <time>2016-05-14T07:03:20Z</time>
      </trkpt>
      <trkpt lat="38.019159" lon="-1.185147">
        <ele>126.6</ele>
        <time>2016-05-14T07:03:37Z</time>
      </trkpt>
      <trkpt lat="38.019183" lon="-1.185189">
        <ele>126.1</ele>
        <time>2016-05-14T07:03:41Z</time>
      </trkpt>
      <trkpt lat="38.019248" lon="-1.185228">
        <ele>126.1</ele>
        <time>2016-05-14T07:03:47Z</time>
      </trkpt>
      <trkpt lat="38.019267" lon="-1.185259">
        <ele>126.1</ele>
        <time>2016-05-14T07:03:50Z</time>
      </trkpt>
      <trkpt lat="38.019449" lon="-1.185405">
        <ele>125.6</ele>
        <time>2016-05-14T07:04:07Z</time>
      </trkpt>
      <trkpt lat="38.019611" lon="-1.185570">
        <ele>125.6</ele>
        <time>2016-05-14T07:04:24Z</time>
      </trkpt>
      <trkpt lat="38.019783" lon="-1.185709">
        <ele>124.6</ele>
        <time>2016-05-14T07:04:40Z</time>
      </trkpt>
      <trkpt lat="38.019969" lon="-1.185869">
        <ele>125.1</ele>
        <time>2016-05-14T07:04:58Z</time>
      </trkpt>
      <trkpt lat="38.020183" lon="-1.186045">
        <ele>124.2</ele>
        <time>2016-05-14T07:05:17Z</time>
      </trkpt>
      <trkpt lat="38.020238" lon="-1.186107">
        <ele>123.7</ele>
        <time>2016-05-14T07:05:23Z</time>
      </trkpt>
      <trkpt lat="38.020433" lon="-1.186286">
        <ele>123.7</ele>
        <time>2016-05-14T07:05:41Z</time>
      </trkpt>
      <trkpt lat="38.020619" lon="-1.186468">
        <ele>122.7</ele>
        <time>2016-05-14T07:05:58Z</time>
      </trkpt>
      <trkpt lat="38.020756" lon="-1.186654">
        <ele>122.7</ele>
        <time>2016-05-14T07:06:13Z</time>
      </trkpt>
      <trkpt lat="38.020942" lon="-1.186878">
        <ele>121.7</ele>
        <time>2016-05-14T07:06:31Z</time>
      </trkpt>
      <trkpt lat="38.021068" lon="-1.187056">
        <ele>121.3</ele>
        <time>2016-05-14T07:06:46Z</time>
      </trkpt>
      <trkpt lat="38.021062" lon="-1.187059">
        <ele>120.8</ele>
        <time>2016-05-14T07:06:48Z</time>
      </trkpt>
      <trkpt lat="38.021088" lon="-1.187113">
        <ele>121.7</ele>
        <time>2016-05-14T07:06:52Z</time>
      </trkpt>
      <trkpt lat="38.021282" lon="-1.187426">
        <ele>120.3</ele>
        <time>2016-05-14T07:07:14Z</time>
      </trkpt>
      <trkpt lat="38.021420" lon="-1.187675">
        <ele>119.8</ele>
        <time>2016-05-14T07:07:31Z</time>
      </trkpt>
      <trkpt lat="38.021550" lon="-1.187959">
        <ele>119.3</ele>
        <time>2016-05-14T07:07:50Z</time>
      </trkpt>
      <trkpt lat="38.021680" lon="-1.188310">
        <ele>118.9</ele>
        <time>2016-05-14T07:08:12Z</time>
      </trkpt>
      <trkpt lat="38.021774" lon="-1.188570">
        <ele>117.9</ele>
        <time>2016-05-14T07:08:29Z</time>
      </trkpt>
      <trkpt lat="38.021858" lon="-1.188860">
        <ele>117.9</ele>
        <time>2016-05-14T07:08:47Z</time>
      </trkpt>
      <trkpt lat="38.021935" lon="-1.189146">
        <ele>117.4</ele>
        <time>2016-05-14T07:09:05Z</time>
      </trkpt>
      <trkpt lat="38.021990" lon="-1.189446">
        <ele>116.5</ele>
        <time>2016-05-14T07:09:23Z</time>
      </trkpt>
      <trkpt lat="38.022017" lon="-1.189563">
        <ele>116.5</ele>
        <time>2016-05-14T07:09:30Z</time>
      </trkpt>
      <trkpt lat="38.022055" lon="-1.189782">
        <ele>116.0</ele>
        <time>2016-05-14T07:09:44Z</time>
      </trkpt>
      <trkpt lat="38.022105" lon="-1.190063">
        <ele>115.0</ele>
        <time>2016-05-14T07:10:01Z</time>
      </trkpt>
      <trkpt lat="38.022160" lon="-1.190416">
        <ele>115.0</ele>
        <time>2016-05-14T07:10:22Z</time>
      </trkpt>
      <trkpt lat="38.022213" lon="-1.190702">
        <ele>114.5</ele>
        <time>2016-05-14T07:10:40Z</time>
      </trkpt>
      <trkpt lat="38.022267" lon="-1.191020">
        <ele>113.6</ele>
        <time>2016-05-14T07:10:59Z</time>
      </trkpt>
      <trkpt lat="38.022317" lon="-1.191328">
        <ele>113.1</ele>
        <time>2016-05-14T07:11:17Z</time>
      </trkpt>
      <trkpt lat="38.022373" lon="-1.191612">
        <ele>113.1</ele>
        <time>2016-05-14T07:11:33Z</time>
      </trkpt>
      <trkpt lat="38.022436" lon="-1.191951">
        <ele>113.1</ele>
        <time>2016-05-14T07:11:53Z</time>
      </trkpt>
      <trkpt lat="38.022499" lon="-1.192284">
        <ele>112.6</ele>
        <time>2016-05-14T07:12:13Z</time>
      </trkpt>
      <trkpt lat="38.022561" lon="-1.192583">
        <ele>112.6</ele>
        <time>2016-05-14T07:12:32Z</time>
      </trkpt>
      <trkpt lat="38.022622" lon="-1.192862">
        <ele>111.2</ele>
        <time>2016-05-14T07:12:49Z</time>
      </trkpt>
      <trkpt lat="38.022694" lon="-1.193228">
        <ele>110.7</ele>
        <time>2016-05-14T07:13:10Z</time>
      </trkpt>
      <trkpt lat="38.022750" lon="-1.193522">
        <ele>109.7</ele>
        <time>2016-05-14T07:13:28Z</time>
      </trkpt>
      <trkpt lat="38.022800" lon="-1.193775">
        <ele>109.7</ele>
        <time>2016-05-14T07:13:43Z</time>
      </trkpt>
      <trkpt lat="38.022861" lon="-1.194027">
        <ele>109.7</ele>
        <time>2016-05-14T07:13:58Z</time>
      </trkpt>
      <trkpt lat="38.022896" lon="-1.194261">
        <ele>109.2</ele>
        <time>2016-05-14T07:14:12Z</time>
      </trkpt>
      <trkpt lat="38.022916" lon="-1.194382">
        <ele>108.8</ele>
        <time>2016-05-14T07:14:19Z</time>
      </trkpt>
      <trkpt lat="38.022933" lon="-1.194509">
        <ele>108.8</ele>
        <time>2016-05-14T07:14:27Z</time>
      </trkpt>
      <trkpt lat="38.022955" lon="-1.194841">
        <ele>108.3</ele>
        <time>2016-05-14T07:14:46Z</time>
      </trkpt>
      <trkpt lat="38.022966" lon="-1.194966">
        <ele>107.8</ele>
        <time>2016-05-14T07:15:00Z</time>
      </trkpt>
      <trkpt lat="38.022966" lon="-1.195332">
        <ele>106.8</ele>
        <time>2016-05-14T07:17:55Z</time>
      </trkpt>
      <trkpt lat="38.022915" lon="-1.195597">
        <ele>105.9</ele>
        <time>2016-05-14T07:18:10Z</time>
      </trkpt>
      <trkpt lat="38.022868" lon="-1.195904">
        <ele>105.9</ele>
        <time>2016-05-14T07:18:28Z</time>
      </trkpt>
      <trkpt lat="38.022862" lon="-1.195934">
        <ele>105.9</ele>
        <time>2016-05-14T07:18:30Z</time>
      </trkpt>
      <trkpt lat="38.022813" lon="-1.196248">
        <ele>106.8</ele>
        <time>2016-05-14T07:18:49Z</time>
      </trkpt>
      <trkpt lat="38.022771" lon="-1.196608">
        <ele>105.4</ele>
        <time>2016-05-14T07:19:10Z</time>
      </trkpt>
      <trkpt lat="38.022729" lon="-1.196943">
        <ele>105.4</ele>
        <time>2016-05-14T07:19:29Z</time>
      </trkpt>
      <trkpt lat="38.022717" lon="-1.197214">
        <ele>104.9</ele>
        <time>2016-05-14T07:19:46Z</time>
      </trkpt>
      <trkpt lat="38.022701" lon="-1.197275">
        <ele>104.9</ele>
        <time>2016-05-14T07:19:51Z</time>
      </trkpt>
      <trkpt lat="38.022694" lon="-1.197343">
        <ele>104.9</ele>
        <time>2016-05-14T07:19:56Z</time>
      </trkpt>
      <trkpt lat="38.022655" lon="-1.197600">
        <ele>104.0</ele>
        <time>2016-05-14T07:20:11Z</time>
      </trkpt>
      <trkpt lat="38.022641" lon="-1.197703">
        <ele>104.0</ele>
        <time>2016-05-14T07:20:24Z</time>
      </trkpt>
      <trkpt lat="38.022642" lon="-1.197829">
        <ele>103.5</ele>
        <time>2016-05-14T07:20:43Z</time>
      </trkpt>
      <trkpt lat="38.022618" lon="-1.198122">
        <ele>103.0</ele>
        <time>2016-05-14T07:20:58Z</time>
      </trkpt>
      <trkpt lat="38.022604" lon="-1.198260">
        <ele>103.0</ele>
        <time>2016-05-14T07:21:05Z</time>
      </trkpt>
      <trkpt lat="38.022582" lon="-1.198411">
        <ele>103.0</ele>
        <time>2016-05-14T07:21:19Z</time>
      </trkpt>
      <trkpt lat="38.022558" lon="-1.198691">
        <ele>102.5</ele>
        <time>2016-05-14T07:21:35Z</time>
      </trkpt>
      <trkpt lat="38.022566" lon="-1.198976">
        <ele>102.5</ele>
        <time>2016-05-14T07:21:51Z</time>
      </trkpt>
      <trkpt lat="38.022588" lon="-1.199381">
        <ele>101.6</ele>
        <time>2016-05-14T07:22:13Z</time>
      </trkpt>
      <trkpt lat="38.022603" lon="-1.199446">
        <ele>101.1</ele>
        <time>2016-05-14T07:22:17Z</time>
      </trkpt>
      <trkpt lat="38.022612" lon="-1.199557">
        <ele>101.1</ele>
        <time>2016-05-14T07:22:23Z</time>
      </trkpt>
      <trkpt lat="38.022650" lon="-1.199825">
        <ele>100.1</ele>
        <time>2016-05-14T07:22:37Z</time>
      </trkpt>
      <trkpt lat="38.022655" lon="-1.199861">
        <ele>100.6</ele>
        <time>2016-05-14T07:22:39Z</time>
      </trkpt>
      <trkpt lat="38.022676" lon="-1.199955">
        <ele>100.1</ele>
        <time>2016-05-14T07:22:44Z</time>
      </trkpt>
      <trkpt lat="38.022715" lon="-1.200074">
        <ele>100.1</ele>
        <time>2016-05-14T07:22:51Z</time>
      </trkpt>
      <trkpt lat="38.022762" lon="-1.200181">
        <ele>99.2</ele>
        <time>2016-05-14T07:23:04Z</time>
      </trkpt>
      <trkpt lat="38.022847" lon="-1.200294">
        <ele>99.6</ele>
        <time>2016-05-14T07:23:17Z</time>
      </trkpt>
      <trkpt lat="38.022898" lon="-1.200356">
        <ele>99.2</ele>
        <time>2016-05-14T07:23:32Z</time>
      </trkpt>
      <trkpt lat="38.022993" lon="-1.200620">
        <ele>98.7</ele>
        <time>2016-05-14T07:23:47Z</time>
      </trkpt>
      <trkpt lat="38.023100" lon="-1.200883">
        <ele>98.2</ele>
        <time>2016-05-14T07:24:02Z</time>
      </trkpt>
      <trkpt lat="38.023233" lon="-1.201091">
        <ele>98.2</ele>
        <time>2016-05-14T07:24:17Z</time>
      </trkpt>
      <trkpt lat="38.023362" lon="-1.201322">
        <ele>97.2</ele>
        <time>2016-05-14T07:24:32Z</time>
      </trkpt>
      <trkpt lat="38.023405" lon="-1.201425">
        <ele>97.2</ele>
        <time>2016-05-14T07:24:39Z</time>
      </trkpt>
      <trkpt lat="38.023571" lon="-1.201650">
        <ele>96.3</ele>
        <time>2016-05-14T07:24:55Z</time>
      </trkpt>
      <trkpt lat="38.023722" lon="-1.201944">
        <ele>96.3</ele>
        <time>2016-05-14T07:25:15Z</time>
      </trkpt>
      <trkpt lat="38.023892" lon="-1.202205">
        <ele>94.8</ele>
        <time>2016-05-14T07:25:34Z</time>
      </trkpt>
      <trkpt lat="38.024022" lon="-1.202447">
        <ele>93.9</ele>
        <time>2016-05-14T07:25:51Z</time>
      </trkpt>
      <trkpt lat="38.024223" lon="-1.202801">
        <ele>93.4</ele>
        <time>2016-05-14T07:26:15Z</time>
      </trkpt>
      <trkpt lat="38.024389" lon="-1.203120">
        <ele>92.9</ele>
        <time>2016-05-14T07:26:36Z</time>
      </trkpt>
      <trkpt lat="38.024435" lon="-1.203183">
        <ele>93.4</ele>
        <time>2016-05-14T07:26:41Z</time>
      </trkpt>
      <trkpt lat="38.024604" lon="-1.203420">
        <ele>92.4</ele>
        <time>2016-05-14T07:26:58Z</time>
      </trkpt>
      <trkpt lat="38.024747" lon="-1.203738">
        <ele>91.0</ele>
        <time>2016-05-14T07:27:19Z</time>
      </trkpt>
      <trkpt lat="38.024766" lon="-1.203762">
        <ele>91.5</ele>
        <time>2016-05-14T07:27:21Z</time>
      </trkpt>
      <trkpt lat="38.024801" lon="-1.203809">
        <ele>91.5</ele>
        <time>2016-05-14T07:27:25Z</time>
      </trkpt>
      <trkpt lat="38.024922" lon="-1.204004">
        <ele>91.5</ele>
        <time>2016-05-14T07:27:41Z</time>
      </trkpt>
      <trkpt lat="38.024946" lon="-1.204004">
        <ele>91.0</ele>
        <time>2016-05-14T07:27:55Z</time>
      </trkpt>
      <trkpt lat="38.024951" lon="-1.204012">
        <ele>91.0</ele>
        <time>2016-05-14T07:28:07Z</time>
      </trkpt>
      <trkpt lat="38.024964" lon="-1.204037">
        <ele>90.5</ele>
        <time>2016-05-14T07:28:09Z</time>
      </trkpt>
      <trkpt lat="38.025057" lon="-1.204222">
        <ele>90.5</ele>
        <time>2016-05-14T07:28:23Z</time>
      </trkpt>
      <trkpt lat="38.025090" lon="-1.204269">
        <ele>90.0</ele>
        <time>2016-05-14T07:28:28Z</time>
      </trkpt>
      <trkpt lat="38.025149" lon="-1.204370">
        <ele>90.0</ele>
        <time>2016-05-14T07:28:37Z</time>
      </trkpt>
      <trkpt lat="38.025193" lon="-1.204468">
        <ele>90.0</ele>
        <time>2016-05-14T07:28:44Z</time>
      </trkpt>
      <trkpt lat="38.025208" lon="-1.204501">
        <ele>90.0</ele>
        <time>2016-05-14T07:28:55Z</time>
      </trkpt>
      <trkpt lat="38.025253" lon="-1.204566">
        <ele>90.5</ele>
        <time>2016-05-14T07:29:00Z</time>
      </trkpt>
      <trkpt lat="38.025289" lon="-1.204592">
        <ele>90.0</ele>
        <time>2016-05-14T07:29:14Z</time>
      </trkpt>
      <trkpt lat="38.025291" lon="-1.204615">
        <ele>90.0</ele>
        <time>2016-05-14T07:29:20Z</time>
      </trkpt>
      <trkpt lat="38.025336" lon="-1.204697">
        <ele>90.0</ele>
        <time>2016-05-14T07:29:31Z</time>
      </trkpt>
      <trkpt lat="38.025370" lon="-1.204773">
        <ele>90.0</ele>
        <time>2016-05-14T07:29:36Z</time>
      </trkpt>
      <trkpt lat="38.025499" lon="-1.205019">
        <ele>89.5</ele>
        <time>2016-05-14T07:29:51Z</time>
      </trkpt>
      <trkpt lat="38.026616" lon="-1.206924">
        <ele>85.2</ele>
        <time>2016-05-14T07:32:25Z</time>
      </trkpt>
      <trkpt lat="38.026784" lon="-1.207178">
        <ele>84.7</ele>
        <time>2016-05-14T07:32:44Z</time>
      </trkpt>
      <trkpt lat="38.026948" lon="-1.207409">
        <ele>84.2</ele>
        <time>2016-05-14T07:33:01Z</time>
      </trkpt>
      <trkpt lat="38.027024" lon="-1.207459">
        <ele>80.4</ele>
        <time>2016-05-14T07:33:13Z</time>
      </trkpt>
      <trkpt lat="38.027037" lon="-1.207454">
        <ele>86.2</ele>
        <time>2016-05-14T07:33:16Z</time>
      </trkpt>
      <trkpt lat="38.027036" lon="-1.207451">
        <ele>82.8</ele>
        <time>2016-05-14T07:33:17Z</time>
      </trkpt>
      <trkpt lat="38.027049" lon="-1.207520">
        <ele>83.8</ele>
        <time>2016-05-14T07:33:26Z</time>
      </trkpt>
      <trkpt lat="38.027056" lon="-1.207516">
        <ele>83.3</ele>
        <time>2016-05-14T07:33:43Z</time>
      </trkpt>
      <trkpt lat="38.027146" lon="-1.207630">
        <ele>83.8</ele>
        <time>2016-05-14T07:33:54Z</time>
      </trkpt>
      <trkpt lat="38.027243" lon="-1.207760">
        <ele>83.8</ele>
        <time>2016-05-14T07:34:09Z</time>
      </trkpt>
      <trkpt lat="38.027312" lon="-1.207809">
        <ele>83.3</ele>
        <time>2016-05-14T07:34:23Z</time>
      </trkpt>
      <trkpt lat="38.027548" lon="-1.207998">
        <ele>82.8</ele>
        <time>2016-05-14T07:34:42Z</time>
      </trkpt>
      <trkpt lat="38.027615" lon="-1.208049">
        <ele>82.8</ele>
        <time>2016-05-14T07:34:48Z</time>
      </trkpt>
      <trkpt lat="38.027829" lon="-1.208156">
        <ele>82.8</ele>
        <time>2016-05-14T07:35:05Z</time>
      </trkpt>
      <trkpt lat="38.028067" lon="-1.208240">
        <ele>82.8</ele>
        <time>2016-05-14T07:35:23Z</time>
      </trkpt>
      <trkpt lat="38.028187" lon="-1.208242">
        <ele>80.4</ele>
        <time>2016-05-14T07:35:32Z</time>
      </trkpt>
      <trkpt lat="38.028430" lon="-1.208343">
        <ele>82.3</ele>
        <time>2016-05-14T07:35:52Z</time>
      </trkpt>
      <trkpt lat="38.028613" lon="-1.208335">
        <ele>82.3</ele>
        <time>2016-05-14T07:36:06Z</time>
      </trkpt>
      <trkpt lat="38.028647" lon="-1.208332">
        <ele>82.3</ele>
        <time>2016-05-14T07:36:09Z</time>
      </trkpt>
      <trkpt lat="38.028830" lon="-1.208409">
        <ele>81.4</ele>
        <time>2016-05-14T07:36:24Z</time>
      </trkpt>
      <trkpt lat="38.028886" lon="-1.208438">
        <ele>82.8</ele>
        <time>2016-05-14T07:36:32Z</time>
      </trkpt>
      <trkpt lat="38.028969" lon="-1.208415">
        <ele>82.8</ele>
        <time>2016-05-14T07:36:43Z</time>
      </trkpt>
      <trkpt lat="38.028988" lon="-1.208445">
        <ele>82.8</ele>
        <time>2016-05-14T07:36:56Z</time>
      </trkpt>
      <trkpt lat="38.028989" lon="-1.208454">
        <ele>82.8</ele>
        <time>2016-05-14T07:37:04Z</time>
      </trkpt>
      <trkpt lat="38.029232" lon="-1.208558">
        <ele>83.3</ele>
        <time>2016-05-14T07:37:22Z</time>
      </trkpt>
      <trkpt lat="38.029452" lon="-1.208583">
        <ele>83.3</ele>
        <time>2016-05-14T07:37:41Z</time>
      </trkpt>
      <trkpt lat="38.029531" lon="-1.208576">
        <ele>83.3</ele>
        <time>2016-05-14T07:37:50Z</time>
      </trkpt>
      <trkpt lat="38.029626" lon="-1.208629">
        <ele>82.8</ele>
        <time>2016-05-14T07:38:01Z</time>
      </trkpt>
      <trkpt lat="38.029672" lon="-1.208585">
        <ele>83.3</ele>
        <time>2016-05-14T07:38:13Z</time>
      </trkpt>
      <trkpt lat="38.029662" lon="-1.208601">
        <ele>83.3</ele>
        <time>2016-05-14T07:38:28Z</time>
      </trkpt>
      <trkpt lat="38.029671" lon="-1.208587">
        <ele>83.3</ele>
        <time>2016-05-14T07:38:37Z</time>
      </trkpt>
      <trkpt lat="38.029659" lon="-1.208580">
        <ele>83.3</ele>
        <time>2016-05-14T07:38:54Z</time>
      </trkpt>
      <trkpt lat="38.029662" lon="-1.208596">
        <ele>83.3</ele>
        <time>2016-05-14T07:39:09Z</time>
      </trkpt>
      <trkpt lat="38.029632" lon="-1.208632">
        <ele>82.8</ele>
        <time>2016-05-14T07:39:19Z</time>
      </trkpt>
      <trkpt lat="38.029655" lon="-1.208604">
        <ele>82.8</ele>
        <time>2016-05-14T07:39:29Z</time>
      </trkpt>
      <trkpt lat="38.029864" lon="-1.208678">
        <ele>82.8</ele>
        <time>2016-05-14T07:39:46Z</time>
      </trkpt>
      <trkpt lat="38.029928" lon="-1.208662">
        <ele>82.3</ele>
        <time>2016-05-14T07:39:53Z</time>
      </trkpt>
      <trkpt lat="38.029961" lon="-1.208617">
        <ele>83.8</ele>
        <time>2016-05-14T07:40:03Z</time>
      </trkpt>
      <trkpt lat="38.029984" lon="-1.208685">
        <ele>83.3</ele>
        <time>2016-05-14T07:40:08Z</time>
      </trkpt>
      <trkpt lat="38.030188" lon="-1.208777">
        <ele>83.8</ele>
        <time>2016-05-14T07:40:24Z</time>
      </trkpt>
      <trkpt lat="38.030383" lon="-1.208827">
        <ele>83.3</ele>
        <time>2016-05-14T07:40:39Z</time>
      </trkpt>
      <trkpt lat="38.030588" lon="-1.208887">
        <ele>84.2</ele>
        <time>2016-05-14T07:40:56Z</time>
      </trkpt>
      <trkpt lat="38.030702" lon="-1.208895">
        <ele>83.8</ele>
        <time>2016-05-14T07:41:09Z</time>
      </trkpt>
      <trkpt lat="38.030710" lon="-1.208898">
        <ele>83.3</ele>
        <time>2016-05-14T07:41:10Z</time>
      </trkpt>
      <trkpt lat="38.030749" lon="-1.208927">
        <ele>83.8</ele>
        <time>2016-05-14T07:41:14Z</time>
      </trkpt>
      <trkpt lat="38.030952" lon="-1.209083">
        <ele>84.2</ele>
        <time>2016-05-14T07:41:32Z</time>
      </trkpt>
      <trkpt lat="38.031126" lon="-1.209193">
        <ele>83.8</ele>
        <time>2016-05-14T07:41:47Z</time>
      </trkpt>
      <trkpt lat="38.031333" lon="-1.209347">
        <ele>83.3</ele>
        <time>2016-05-14T07:42:06Z</time>
      </trkpt>
      <trkpt lat="38.031527" lon="-1.209462">
        <ele>83.8</ele>
        <time>2016-05-14T07:42:21Z</time>
      </trkpt>
      <trkpt lat="38.031700" lon="-1.209604">
        <ele>83.3</ele>
        <time>2016-05-14T07:42:37Z</time>
      </trkpt>
      <trkpt lat="38.031838" lon="-1.209726">
        <ele>82.8</ele>
        <time>2016-05-14T07:42:50Z</time>
      </trkpt>
      <trkpt lat="38.032039" lon="-1.209866">
        <ele>81.8</ele>
        <time>2016-05-14T07:43:08Z</time>
      </trkpt>
      <trkpt lat="38.032112" lon="-1.209926">
        <ele>82.8</ele>
        <time>2016-05-14T07:43:15Z</time>
      </trkpt>
      <trkpt lat="38.032182" lon="-1.209954">
        <ele>82.8</ele>
        <time>2016-05-14T07:43:21Z</time>
      </trkpt>
      <trkpt lat="38.032227" lon="-1.209986">
        <ele>82.8</ele>
        <time>2016-05-14T07:43:25Z</time>
      </trkpt>
      <trkpt lat="38.032434" lon="-1.210167">
        <ele>82.8</ele>
        <time>2016-05-14T07:43:43Z</time>
      </trkpt>
      <trkpt lat="38.032651" lon="-1.210297">
        <ele>82.8</ele>
        <time>2016-05-14T07:44:02Z</time>
      </trkpt>
      <trkpt lat="38.032817" lon="-1.210435">
        <ele>82.8</ele>
        <time>2016-05-14T07:44:18Z</time>
      </trkpt>
      <trkpt lat="38.033000" lon="-1.210579">
        <ele>82.8</ele>
        <time>2016-05-14T07:44:35Z</time>
      </trkpt>
      <trkpt lat="38.033075" lon="-1.210627">
        <ele>82.8</ele>
        <time>2016-05-14T07:44:41Z</time>
      </trkpt>
      <trkpt lat="38.033266" lon="-1.210783">
        <ele>83.3</ele>
        <time>2016-05-14T07:44:59Z</time>
      </trkpt>
      <trkpt lat="38.033310" lon="-1.210813">
        <ele>82.8</ele>
        <time>2016-05-14T07:45:03Z</time>
      </trkpt>
      <trkpt lat="38.033517" lon="-1.211010">
        <ele>82.8</ele>
        <time>2016-05-14T07:45:23Z</time>
      </trkpt>
      <trkpt lat="38.033699" lon="-1.211122">
        <ele>82.8</ele>
        <time>2016-05-14T07:45:39Z</time>
      </trkpt>
      <trkpt lat="38.033892" lon="-1.211221">
        <ele>82.8</ele>
        <time>2016-05-14T07:45:55Z</time>
      </trkpt>
      <trkpt lat="38.033916" lon="-1.211231">
        <ele>82.3</ele>
        <time>2016-05-14T07:45:57Z</time>
      </trkpt>
      <trkpt lat="38.034027" lon="-1.211277">
        <ele>82.8</ele>
        <time>2016-05-14T07:46:06Z</time>
      </trkpt>
      <trkpt lat="38.034257" lon="-1.211353">
        <ele>83.3</ele>
        <time>2016-05-14T07:46:24Z</time>
      </trkpt>
      <trkpt lat="38.034493" lon="-1.211410">
        <ele>83.3</ele>
        <time>2016-05-14T07:46:41Z</time>
      </trkpt>
      <trkpt lat="38.034713" lon="-1.211430">
        <ele>82.8</ele>
        <time>2016-05-14T07:46:56Z</time>
      </trkpt>
      <trkpt lat="38.034898" lon="-1.211388">
        <ele>81.8</ele>
        <time>2016-05-14T07:47:09Z</time>
      </trkpt>
      <trkpt lat="38.034953" lon="-1.211391">
        <ele>80.9</ele>
        <time>2016-05-14T07:47:13Z</time>
      </trkpt>
      <trkpt lat="38.035146" lon="-1.211361">
        <ele>81.8</ele>
        <time>2016-05-14T07:47:29Z</time>
      </trkpt>
      <trkpt lat="38.035310" lon="-1.211332">
        <ele>79.9</ele>
        <time>2016-05-14T07:47:41Z</time>
      </trkpt>
      <trkpt lat="38.035376" lon="-1.211311">
        <ele>80.4</ele>
        <time>2016-05-14T07:47:53Z</time>
      </trkpt>
      <trkpt lat="38.035621" lon="-1.211265">
        <ele>82.3</ele>
        <time>2016-05-14T07:48:08Z</time>
      </trkpt>
      <trkpt lat="38.035751" lon="-1.211271">
        <ele>81.8</ele>
        <time>2016-05-14T07:48:18Z</time>
      </trkpt>
      <trkpt lat="38.035909" lon="-1.211216">
        <ele>81.8</ele>
        <time>2016-05-14T07:48:33Z</time>
      </trkpt>
      <trkpt lat="38.035970" lon="-1.211181">
        <ele>81.8</ele>
        <time>2016-05-14T07:48:39Z</time>
      </trkpt>
      <trkpt lat="38.036087" lon="-1.211138">
        <ele>82.8</ele>
        <time>2016-05-14T07:48:49Z</time>
      </trkpt>
      <trkpt lat="38.036161" lon="-1.211133">
        <ele>81.8</ele>
        <time>2016-05-14T07:48:55Z</time>
      </trkpt>
      <trkpt lat="38.036263" lon="-1.211132">
        <ele>82.3</ele>
        <time>2016-05-14T07:49:06Z</time>
      </trkpt>
      <trkpt lat="38.036334" lon="-1.211111">
        <ele>81.4</ele>
        <time>2016-05-14T07:49:11Z</time>
      </trkpt>
      <trkpt lat="38.036377" lon="-1.211125">
        <ele>82.3</ele>
        <time>2016-05-14T07:49:24Z</time>
      </trkpt>
      <trkpt lat="38.036433" lon="-1.211108">
        <ele>81.4</ele>
        <time>2016-05-14T07:49:28Z</time>
      </trkpt>
      <trkpt lat="38.036659" lon="-1.211035">
        <ele>82.3</ele>
        <time>2016-05-14T07:49:45Z</time>
      </trkpt>
      <trkpt lat="38.036765" lon="-1.211016">
        <ele>83.3</ele>
        <time>2016-05-14T07:49:59Z</time>
      </trkpt>
      <trkpt lat="38.036993" lon="-1.210952">
        <ele>82.3</ele>
        <time>2016-05-14T07:50:16Z</time>
      </trkpt>
      <trkpt lat="38.037187" lon="-1.210888">
        <ele>82.3</ele>
        <time>2016-05-14T07:50:33Z</time>
      </trkpt>
      <trkpt lat="38.037385" lon="-1.210853">
        <ele>81.8</ele>
        <time>2016-05-14T07:50:49Z</time>
      </trkpt>
      <trkpt lat="38.037624" lon="-1.210803">
        <ele>82.3</ele>
        <time>2016-05-14T07:51:07Z</time>
      </trkpt>
      <trkpt lat="38.037833" lon="-1.210746">
        <ele>82.3</ele>
        <time>2016-05-14T07:51:24Z</time>
      </trkpt>
      <trkpt lat="38.037868" lon="-1.210747">
        <ele>82.3</ele>
        <time>2016-05-14T07:51:27Z</time>
      </trkpt>
      <trkpt lat="38.037896" lon="-1.210760">
        <ele>82.3</ele>
        <time>2016-05-14T07:51:30Z</time>
      </trkpt>
      <trkpt lat="38.037918" lon="-1.210756">
        <ele>81.4</ele>
        <time>2016-05-14T07:51:32Z</time>
      </trkpt>
      <trkpt lat="38.038121" lon="-1.210705">
        <ele>82.3</ele>
        <time>2016-05-14T07:51:47Z</time>
      </trkpt>
      <trkpt lat="38.038346" lon="-1.210666">
        <ele>81.8</ele>
        <time>2016-05-14T07:52:03Z</time>
      </trkpt>
      <trkpt lat="38.038528" lon="-1.210646">
        <ele>81.8</ele>
        <time>2016-05-14T07:52:18Z</time>
      </trkpt>
      <trkpt lat="38.038675" lon="-1.210649">
        <ele>81.8</ele>
        <time>2016-05-14T07:52:30Z</time>
      </trkpt>
      <trkpt lat="38.038801" lon="-1.210653">
        <ele>81.8</ele>
        <time>2016-05-14T07:52:40Z</time>
      </trkpt>
      <trkpt lat="38.038998" lon="-1.210661">
        <ele>81.4</ele>
        <time>2016-05-14T07:52:56Z</time>
      </trkpt>
      <trkpt lat="38.039194" lon="-1.210667">
        <ele>81.4</ele>
        <time>2016-05-14T07:53:12Z</time>
      </trkpt>
      <trkpt lat="38.039397" lon="-1.210689">
        <ele>81.4</ele>
        <time>2016-05-14T07:53:29Z</time>
      </trkpt>
      <trkpt lat="38.039589" lon="-1.210704">
        <ele>80.9</ele>
        <time>2016-05-14T07:53:44Z</time>
      </trkpt>
      <trkpt lat="38.039825" lon="-1.210739">
        <ele>81.4</ele>
        <time>2016-05-14T07:54:03Z</time>
      </trkpt>
      <trkpt lat="38.040052" lon="-1.210761">
        <ele>80.9</ele>
        <time>2016-05-14T07:54:21Z</time>
      </trkpt>
      <trkpt lat="38.040292" lon="-1.210778">
        <ele>80.4</ele>
        <time>2016-05-14T07:54:39Z</time>
      </trkpt>
      <trkpt lat="38.040504" lon="-1.210782">
        <ele>79.9</ele>
        <time>2016-05-14T07:54:57Z</time>
      </trkpt>
      <trkpt lat="38.040748" lon="-1.210833">
        <ele>80.9</ele>
        <time>2016-05-14T07:55:17Z</time>
      </trkpt>
      <trkpt lat="38.040993" lon="-1.210861">
        <ele>80.9</ele>
        <time>2016-05-14T07:55:36Z</time>
      </trkpt>
      <trkpt lat="38.041015" lon="-1.210870">
        <ele>81.4</ele>
        <time>2016-05-14T07:55:38Z</time>
      </trkpt>
      <trkpt lat="38.041073" lon="-1.210866">
        <ele>80.9</ele>
        <time>2016-05-14T07:55:43Z</time>
      </trkpt>
      <trkpt lat="38.041286" lon="-1.210889">
        <ele>80.9</ele>
        <time>2016-05-14T07:55:59Z</time>
      </trkpt>
      <trkpt lat="38.041580" lon="-1.210891">
        <ele>81.4</ele>
        <time>2016-05-14T07:56:19Z</time>
      </trkpt>
      <trkpt lat="38.041668" lon="-1.210894">
        <ele>80.9</ele>
        <time>2016-05-14T07:56:32Z</time>
      </trkpt>
      <trkpt lat="38.041898" lon="-1.210930">
        <ele>81.4</ele>
        <time>2016-05-14T07:56:50Z</time>
      </trkpt>
      <trkpt lat="38.042083" lon="-1.210944">
        <ele>81.4</ele>
        <time>2016-05-14T07:57:04Z</time>
      </trkpt>
      <trkpt lat="38.042241" lon="-1.210959">
        <ele>81.4</ele>
        <time>2016-05-14T07:57:18Z</time>
      </trkpt>
      <trkpt lat="38.042496" lon="-1.210999">
        <ele>80.9</ele>
        <time>2016-05-14T07:57:37Z</time>
      </trkpt>
      <trkpt lat="38.042618" lon="-1.211008">
        <ele>79.9</ele>
        <time>2016-05-14T07:57:46Z</time>
      </trkpt>
      <trkpt lat="38.042842" lon="-1.211042">
        <ele>80.9</ele>
        <time>2016-05-14T07:58:02Z</time>
      </trkpt>
      <trkpt lat="38.043064" lon="-1.211065">
        <ele>80.4</ele>
        <time>2016-05-14T07:58:19Z</time>
      </trkpt>
      <trkpt lat="38.043285" lon="-1.211078">
        <ele>80.9</ele>
        <time>2016-05-14T07:58:36Z</time>
      </trkpt>
      <trkpt lat="38.043536" lon="-1.211091">
        <ele>81.4</ele>
        <time>2016-05-14T07:58:55Z</time>
      </trkpt>
      <trkpt lat="38.043758" lon="-1.211103">
        <ele>80.4</ele>
        <time>2016-05-14T07:59:12Z</time>
      </trkpt>
      <trkpt lat="38.044004" lon="-1.211119">
        <ele>79.9</ele>
        <time>2016-05-14T07:59:31Z</time>
      </trkpt>
      <trkpt lat="38.044236" lon="-1.211150">
        <ele>79.9</ele>
        <time>2016-05-14T07:59:48Z</time>
      </trkpt>
      <trkpt lat="38.044455" lon="-1.211164">
        <ele>79.9</ele>
        <time>2016-05-14T08:00:05Z</time>
      </trkpt>
      <trkpt lat="38.044683" lon="-1.211186">
        <ele>79.9</ele>
        <time>2016-05-14T08:00:23Z</time>
      </trkpt>
      <trkpt lat="38.044932" lon="-1.211179">
        <ele>79.9</ele>
        <time>2016-05-14T08:00:42Z</time>
      </trkpt>
      <trkpt lat="38.045177" lon="-1.211197">
        <ele>79.4</ele>
        <time>2016-05-14T08:01:00Z</time>
      </trkpt>
      <trkpt lat="38.045334" lon="-1.211213">
        <ele>79.4</ele>
        <time>2016-05-14T08:01:12Z</time>
      </trkpt>
      <trkpt lat="38.045398" lon="-1.211199">
        <ele>79.9</ele>
        <time>2016-05-14T08:01:16Z</time>
      </trkpt>
      <trkpt lat="38.045427" lon="-1.211196">
        <ele>79.9</ele>
        <time>2016-05-14T08:01:18Z</time>
      </trkpt>
      <trkpt lat="38.045644" lon="-1.211234">
        <ele>79.4</ele>
        <time>2016-05-14T08:01:36Z</time>
      </trkpt>
      <trkpt lat="38.045802" lon="-1.211248">
        <ele>79.9</ele>
        <time>2016-05-14T08:01:49Z</time>
      </trkpt>
      <trkpt lat="38.045865" lon="-1.211244">
        <ele>79.4</ele>
        <time>2016-05-14T08:01:54Z</time>
      </trkpt>
      <trkpt lat="38.046071" lon="-1.211279">
        <ele>79.4</ele>
        <time>2016-05-14T08:02:11Z</time>
      </trkpt>
      <trkpt lat="38.046151" lon="-1.211289">
        <ele>79.4</ele>
        <time>2016-05-14T08:02:25Z</time>
      </trkpt>
      <trkpt lat="38.046151" lon="-1.211289">
        <ele>79.9</ele>
        <time>2016-05-14T08:02:28Z</time>
      </trkpt>
      <trkpt lat="38.046138" lon="-1.211294">
        <ele>79.4</ele>
        <time>2016-05-14T08:02:43Z</time>
      </trkpt>
      <trkpt lat="38.046144" lon="-1.211274">
        <ele>79.9</ele>
        <time>2016-05-14T08:03:05Z</time>
      </trkpt>
      <trkpt lat="38.046183" lon="-1.211234">
        <ele>80.4</ele>
        <time>2016-05-14T08:03:09Z</time>
      </trkpt>
      <trkpt lat="38.046160" lon="-1.211238">
        <ele>79.9</ele>
        <time>2016-05-14T08:03:17Z</time>
      </trkpt>
      <trkpt lat="38.046106" lon="-1.211307">
        <ele>79.0</ele>
        <time>2016-05-14T08:03:28Z</time>
      </trkpt>
      <trkpt lat="38.046113" lon="-1.211296">
        <ele>79.4</ele>
        <time>2016-05-14T08:03:33Z</time>
      </trkpt>
      <trkpt lat="38.046206" lon="-1.211226">
        <ele>79.9</ele>
        <time>2016-05-14T08:03:44Z</time>
      </trkpt>
      <trkpt lat="38.046148" lon="-1.211252">
        <ele>79.4</ele>
        <time>2016-05-14T08:03:49Z</time>
      </trkpt>
      <trkpt lat="38.046136" lon="-1.211260">
        <ele>79.4</ele>
        <time>2016-05-14T08:03:56Z</time>
      </trkpt>
      <trkpt lat="38.046155" lon="-1.211255">
        <ele>79.0</ele>
        <time>2016-05-14T08:03:58Z</time>
      </trkpt>
      <trkpt lat="38.046233" lon="-1.211211">
        <ele>79.4</ele>
        <time>2016-05-14T08:04:13Z</time>
      </trkpt>
      <trkpt lat="38.046319" lon="-1.211177">
        <ele>79.4</ele>
        <time>2016-05-14T08:04:27Z</time>
      </trkpt>
      <trkpt lat="38.046422" lon="-1.211235">
        <ele>79.9</ele>
        <time>2016-05-14T08:04:38Z</time>
      </trkpt>
      <trkpt lat="38.046615" lon="-1.211331">
        <ele>79.0</ele>
        <time>2016-05-14T08:04:52Z</time>
      </trkpt>
      <trkpt lat="38.046781" lon="-1.211357">
        <ele>79.9</ele>
        <time>2016-05-14T08:05:06Z</time>
      </trkpt>
      <trkpt lat="38.046920" lon="-1.211350">
        <ele>79.4</ele>
        <time>2016-05-14T08:05:17Z</time>
      </trkpt>
      <trkpt lat="38.047035" lon="-1.211327">
        <ele>79.9</ele>
        <time>2016-05-14T08:05:27Z</time>
      </trkpt>
      <trkpt lat="38.047230" lon="-1.211439">
        <ele>79.4</ele>
        <time>2016-05-14T08:05:43Z</time>
      </trkpt>
      <trkpt lat="38.047419" lon="-1.211523">
        <ele>79.4</ele>
        <time>2016-05-14T08:05:58Z</time>
      </trkpt>
      <trkpt lat="38.047634" lon="-1.211637">
        <ele>79.4</ele>
        <time>2016-05-14T08:06:15Z</time>
      </trkpt>
      <trkpt lat="38.047920" lon="-1.211845">
        <ele>79.9</ele>
        <time>2016-05-14T08:06:34Z</time>
      </trkpt>
      <trkpt lat="38.047918" lon="-1.211861">
        <ele>79.4</ele>
        <time>2016-05-14T08:06:36Z</time>
      </trkpt>
      <trkpt lat="38.048079" lon="-1.212015">
        <ele>79.4</ele>
        <time>2016-05-14T08:06:50Z</time>
      </trkpt>
      <trkpt lat="38.048138" lon="-1.212061">
        <ele>79.9</ele>
        <time>2016-05-14T08:06:55Z</time>
      </trkpt>
      <trkpt lat="38.048219" lon="-1.212157">
        <ele>79.4</ele>
        <time>2016-05-14T08:07:08Z</time>
      </trkpt>
      <trkpt lat="38.048280" lon="-1.212244">
        <ele>79.0</ele>
        <time>2016-05-14T08:07:19Z</time>
      </trkpt>
      <trkpt lat="38.048282" lon="-1.212278">
        <ele>79.0</ele>
        <time>2016-05-14T08:07:30Z</time>
      </trkpt>
      <trkpt lat="38.048262" lon="-1.212289">
        <ele>78.5</ele>
        <time>2016-05-14T08:07:37Z</time>
      </trkpt>
      <trkpt lat="38.048304" lon="-1.212317">
        <ele>79.0</ele>
        <time>2016-05-14T08:07:41Z</time>
      </trkpt>
      <trkpt lat="38.048466" lon="-1.212474">
        <ele>78.0</ele>
        <time>2016-05-14T08:07:56Z</time>
      </trkpt>
      <trkpt lat="38.048507" lon="-1.212536">
        <ele>76.6</ele>
        <time>2016-05-14T08:08:06Z</time>
      </trkpt>
      <trkpt lat="38.048632" lon="-1.212672">
        <ele>75.1</ele>
        <time>2016-05-14T08:08:21Z</time>
      </trkpt>
      <trkpt lat="38.048641" lon="-1.212668">
        <ele>75.6</ele>
        <time>2016-05-14T08:08:23Z</time>
      </trkpt>
      <trkpt lat="38.048691" lon="-1.212628">
        <ele>75.6</ele>
        <time>2016-05-14T08:08:28Z</time>
      </trkpt>
      <trkpt lat="38.048787" lon="-1.212444">
        <ele>76.1</ele>
        <time>2016-05-14T08:08:42Z</time>
      </trkpt>
      <trkpt lat="38.049012" lon="-1.212388">
        <ele>78.0</ele>
        <time>2016-05-14T08:08:52Z</time>
      </trkpt>
      <trkpt lat="38.049220" lon="-1.212345">
        <ele>79.0</ele>
        <time>2016-05-14T08:09:07Z</time>
      </trkpt>
      <trkpt lat="38.049359" lon="-1.212167">
        <ele>80.4</ele>
        <time>2016-05-14T08:09:20Z</time>
      </trkpt>
      <trkpt lat="38.049363" lon="-1.212151">
        <ele>80.9</ele>
        <time>2016-05-14T08:09:22Z</time>
      </trkpt>
      <trkpt lat="38.049374" lon="-1.212129">
        <ele>80.9</ele>
        <time>2016-05-14T08:09:24Z</time>
      </trkpt>
      <trkpt lat="38.049496" lon="-1.212057">
        <ele>82.3</ele>
        <time>2016-05-14T08:09:37Z</time>
      </trkpt>
      <trkpt lat="38.049671" lon="-1.211896">
        <ele>81.8</ele>
        <time>2016-05-14T08:09:53Z</time>
      </trkpt>
      <trkpt lat="38.049680" lon="-1.211902">
        <ele>82.8</ele>
        <time>2016-05-14T08:09:57Z</time>
      </trkpt>
      <trkpt lat="38.049797" lon="-1.211984">
        <ele>83.8</ele>
        <time>2016-05-14T08:10:14Z</time>
      </trkpt>
      <trkpt lat="38.049786" lon="-1.211987">
        <ele>84.2</ele>
        <time>2016-05-14T08:10:17Z</time>
      </trkpt>
      <trkpt lat="38.049841" lon="-1.212096">
        <ele>84.7</ele>
        <time>2016-05-14T08:10:23Z</time>
      </trkpt>
      <trkpt lat="38.049909" lon="-1.212284">
        <ele>86.2</ele>
        <time>2016-05-14T08:10:38Z</time>
      </trkpt>
      <trkpt lat="38.049924" lon="-1.212322">
        <ele>87.1</ele>
        <time>2016-05-14T08:10:40Z</time>
      </trkpt>
      <trkpt lat="38.049931" lon="-1.212351">
        <ele>87.1</ele>
        <time>2016-05-14T08:10:43Z</time>
      </trkpt>
      <trkpt lat="38.049949" lon="-1.212406">
        <ele>88.6</ele>
        <time>2016-05-14T08:10:47Z</time>
      </trkpt>
      <trkpt lat="38.049984" lon="-1.212512">
        <ele>89.1</ele>
        <time>2016-05-14T08:10:57Z</time>
      </trkpt>
      <trkpt lat="38.050011" lon="-1.212571">
        <ele>90.5</ele>
        <time>2016-05-14T08:11:13Z</time>
      </trkpt>
      <trkpt lat="38.050042" lon="-1.212695">
        <ele>91.9</ele>
        <time>2016-05-14T08:11:24Z</time>
      </trkpt>
      <trkpt lat="38.050057" lon="-1.212769">
        <ele>90.5</ele>
        <time>2016-05-14T08:11:27Z</time>
      </trkpt>
      <trkpt lat="38.050011" lon="-1.212808">
        <ele>91.0</ele>
        <time>2016-05-14T08:11:29Z</time>
      </trkpt>
      <trkpt lat="38.050087" lon="-1.213072">
        <ele>94.3</ele>
        <time>2016-05-14T08:11:45Z</time>
      </trkpt>
      <trkpt lat="38.050178" lon="-1.212957">
        <ele>95.8</ele>
        <time>2016-05-14T08:12:07Z</time>
      </trkpt>
      <trkpt lat="38.050241" lon="-1.213114">
        <ele>96.8</ele>
        <time>2016-05-14T08:14:00Z</time>
      </trkpt>
      <trkpt lat="38.050245" lon="-1.212962">
        <ele>96.3</ele>
        <time>2016-05-14T08:14:13Z</time>
      </trkpt>
      <trkpt lat="38.050268" lon="-1.212898">
        <ele>95.3</ele>
        <time>2016-05-14T08:14:19Z</time>
      </trkpt>
      <trkpt lat="38.050351" lon="-1.212893">
        <ele>95.3</ele>
        <time>2016-05-14T08:14:24Z</time>
      </trkpt>
      <trkpt lat="38.050454" lon="-1.212843">
        <ele>94.3</ele>
        <time>2016-05-14T08:14:32Z</time>
      </trkpt>
      <trkpt lat="38.050495" lon="-1.212723">
        <ele>93.4</ele>
        <time>2016-05-14T08:14:38Z</time>
      </trkpt>
      <trkpt lat="38.050523" lon="-1.212530">
        <ele>91.5</ele>
        <time>2016-05-14T08:14:49Z</time>
      </trkpt>
      <trkpt lat="38.050493" lon="-1.212429">
        <ele>91.9</ele>
        <time>2016-05-14T08:15:03Z</time>
      </trkpt>
      <trkpt lat="38.050475" lon="-1.212403">
        <ele>91.5</ele>
        <time>2016-05-14T08:15:13Z</time>
      </trkpt>
      <trkpt lat="38.050464" lon="-1.212335">
        <ele>91.0</ele>
        <time>2016-05-14T08:15:17Z</time>
      </trkpt>
      <trkpt lat="38.050471" lon="-1.212226">
        <ele>90.5</ele>
        <time>2016-05-14T08:15:23Z</time>
      </trkpt>
      <trkpt lat="38.050473" lon="-1.212161">
        <ele>90.0</ele>
        <time>2016-05-14T08:15:29Z</time>
      </trkpt>
      <trkpt lat="38.050485" lon="-1.212089">
        <ele>89.5</ele>
        <time>2016-05-14T08:15:34Z</time>
      </trkpt>
      <trkpt lat="38.050490" lon="-1.211948">
        <ele>87.6</ele>
        <time>2016-05-14T08:15:45Z</time>
      </trkpt>
      <trkpt lat="38.050469" lon="-1.211913">
        <ele>87.1</ele>
        <time>2016-05-14T08:15:58Z</time>
      </trkpt>
      <trkpt lat="38.050542" lon="-1.211782">
        <ele>87.6</ele>
        <time>2016-05-14T08:18:31Z</time>
      </trkpt>
      <trkpt lat="38.050549" lon="-1.211736">
        <ele>87.1</ele>
        <time>2016-05-14T08:18:34Z</time>
      </trkpt>
      <trkpt lat="38.050651" lon="-1.211634">
        <ele>86.7</ele>
        <time>2016-05-14T08:18:48Z</time>
      </trkpt>
      <trkpt lat="38.050735" lon="-1.211674">
        <ele>83.8</ele>
        <time>2016-05-14T08:19:01Z</time>
      </trkpt>
      <trkpt lat="38.051055" lon="-1.211750">
        <ele>84.2</ele>
        <time>2016-05-14T08:20:03Z</time>
      </trkpt>
      <trkpt lat="38.051094" lon="-1.211537">
        <ele>85.7</ele>
        <time>2016-05-14T08:20:18Z</time>
      </trkpt>
      <trkpt lat="38.051116" lon="-1.211457">
        <ele>86.2</ele>
        <time>2016-05-14T08:20:22Z</time>
      </trkpt>
      <trkpt lat="38.051219" lon="-1.211485">
        <ele>86.2</ele>
        <time>2016-05-14T08:20:26Z</time>
      </trkpt>
      <trkpt lat="38.051247" lon="-1.211547">
        <ele>86.2</ele>
        <time>2016-05-14T08:20:36Z</time>
      </trkpt>
      <trkpt lat="38.051302" lon="-1.211580">
        <ele>86.2</ele>
        <time>2016-05-14T08:20:40Z</time>
      </trkpt>
      <trkpt lat="38.051515" lon="-1.211723">
        <ele>85.7</ele>
        <time>2016-05-14T08:20:56Z</time>
      </trkpt>
      <trkpt lat="38.051588" lon="-1.211785">
        <ele>85.7</ele>
        <time>2016-05-14T08:21:02Z</time>
      </trkpt>
      <trkpt lat="38.052387" lon="-1.212691">
        <ele>84.7</ele>
        <time>2016-05-14T08:22:34Z</time>
      </trkpt>
      <trkpt lat="38.052434" lon="-1.212737">
        <ele>84.7</ele>
        <time>2016-05-14T08:22:40Z</time>
      </trkpt>
      <trkpt lat="38.052486" lon="-1.212859">
        <ele>84.2</ele>
        <time>2016-05-14T08:22:49Z</time>
      </trkpt>
      <trkpt lat="38.052596" lon="-1.212983">
        <ele>83.8</ele>
        <time>2016-05-14T08:23:04Z</time>
      </trkpt>
      <trkpt lat="38.052701" lon="-1.213103">
        <ele>84.2</ele>
        <time>2016-05-14T08:23:16Z</time>
      </trkpt>
      <trkpt lat="38.052745" lon="-1.213133">
        <ele>84.7</ele>
        <time>2016-05-14T08:23:20Z</time>
      </trkpt>
      <trkpt lat="38.052804" lon="-1.213192">
        <ele>84.7</ele>
        <time>2016-05-14T08:23:27Z</time>
      </trkpt>
      <trkpt lat="38.052963" lon="-1.213387">
        <ele>84.7</ele>
        <time>2016-05-14T08:23:44Z</time>
      </trkpt>
      <trkpt lat="38.053141" lon="-1.213597">
        <ele>85.2</ele>
        <time>2016-05-14T08:24:01Z</time>
      </trkpt>
      <trkpt lat="38.053313" lon="-1.213820">
        <ele>85.2</ele>
        <time>2016-05-14T08:24:20Z</time>
      </trkpt>
      <trkpt lat="38.053477" lon="-1.213947">
        <ele>85.2</ele>
        <time>2016-05-14T08:24:35Z</time>
      </trkpt>
      <trkpt lat="38.053727" lon="-1.214207">
        <ele>86.2</ele>
        <time>2016-05-14T08:25:06Z</time>
      </trkpt>
      <trkpt lat="38.053735" lon="-1.214229">
        <ele>85.7</ele>
        <time>2016-05-14T08:25:08Z</time>
      </trkpt>
      <trkpt lat="38.053735" lon="-1.214313">
        <ele>85.7</ele>
        <time>2016-05-14T08:25:15Z</time>
      </trkpt>
      <trkpt lat="38.053758" lon="-1.214390">
        <ele>85.7</ele>
        <time>2016-05-14T08:25:23Z</time>
      </trkpt>
      <trkpt lat="38.053824" lon="-1.214414">
        <ele>85.7</ele>
        <time>2016-05-14T08:25:29Z</time>
      </trkpt>
      <trkpt lat="38.053904" lon="-1.214460">
        <ele>86.2</ele>
        <time>2016-05-14T08:25:37Z</time>
      </trkpt>
      <trkpt lat="38.053942" lon="-1.214492">
        <ele>85.7</ele>
        <time>2016-05-14T08:25:41Z</time>
      </trkpt>
      <trkpt lat="38.053967" lon="-1.214501">
        <ele>85.7</ele>
        <time>2016-05-14T08:25:44Z</time>
      </trkpt>
      <trkpt lat="38.054112" lon="-1.214577">
        <ele>86.2</ele>
        <time>2016-05-14T08:25:59Z</time>
      </trkpt>
      <trkpt lat="38.054136" lon="-1.214603">
        <ele>85.7</ele>
        <time>2016-05-14T08:26:02Z</time>
      </trkpt>
      <trkpt lat="38.054236" lon="-1.214691">
        <ele>86.2</ele>
        <time>2016-05-14T08:26:17Z</time>
      </trkpt>
      <trkpt lat="38.054231" lon="-1.214708">
        <ele>86.2</ele>
        <time>2016-05-14T08:26:19Z</time>
      </trkpt>
      <trkpt lat="38.054254" lon="-1.214806">
        <ele>86.2</ele>
        <time>2016-05-14T08:26:31Z</time>
      </trkpt>
      <trkpt lat="38.054254" lon="-1.214809">
        <ele>86.2</ele>
        <time>2016-05-14T08:26:32Z</time>
      </trkpt>
      <trkpt lat="38.054348" lon="-1.214881">
        <ele>86.2</ele>
        <time>2016-05-14T08:26:42Z</time>
      </trkpt>
      <trkpt lat="38.054458" lon="-1.214845">
        <ele>86.7</ele>
        <time>2016-05-14T08:26:53Z</time>
      </trkpt>
      <trkpt lat="38.054544" lon="-1.215008">
        <ele>86.7</ele>
        <time>2016-05-14T08:27:08Z</time>
      </trkpt>
      <trkpt lat="38.054597" lon="-1.215102">
        <ele>86.7</ele>
        <time>2016-05-14T08:27:19Z</time>
      </trkpt>
      <trkpt lat="38.054633" lon="-1.215134">
        <ele>86.2</ele>
        <time>2016-05-14T08:27:32Z</time>
      </trkpt>
      <trkpt lat="38.054686" lon="-1.215195">
        <ele>86.2</ele>
        <time>2016-05-14T08:27:40Z</time>
      </trkpt>
      <trkpt lat="38.054804" lon="-1.215398">
        <ele>87.6</ele>
        <time>2016-05-14T08:27:54Z</time>
      </trkpt>
      <trkpt lat="38.054938" lon="-1.215594">
        <ele>86.7</ele>
        <time>2016-05-14T08:28:08Z</time>
      </trkpt>
      <trkpt lat="38.055125" lon="-1.215650">
        <ele>86.7</ele>
        <time>2016-05-14T08:28:23Z</time>
      </trkpt>
      <trkpt lat="38.055359" lon="-1.215793">
        <ele>87.1</ele>
        <time>2016-05-14T08:28:42Z</time>
      </trkpt>
      <trkpt lat="38.055506" lon="-1.215762">
        <ele>87.6</ele>
        <time>2016-05-14T08:28:53Z</time>
      </trkpt>
      <trkpt lat="38.055571" lon="-1.215745">
        <ele>87.1</ele>
        <time>2016-05-14T08:28:59Z</time>
      </trkpt>
      <trkpt lat="38.055621" lon="-1.215722">
        <ele>88.1</ele>
        <time>2016-05-14T08:29:04Z</time>
      </trkpt>
      <trkpt lat="38.055699" lon="-1.215686">
        <ele>88.6</ele>
        <time>2016-05-14T08:29:14Z</time>
      </trkpt>
      <trkpt lat="38.055791" lon="-1.215812">
        <ele>87.6</ele>
        <time>2016-05-14T08:29:27Z</time>
      </trkpt>
      <trkpt lat="38.055873" lon="-1.215972">
        <ele>88.1</ele>
        <time>2016-05-14T08:29:41Z</time>
      </trkpt>
      <trkpt lat="38.055957" lon="-1.216120">
        <ele>88.1</ele>
        <time>2016-05-14T08:29:53Z</time>
      </trkpt>
      <trkpt lat="38.056061" lon="-1.216313">
        <ele>87.6</ele>
        <time>2016-05-14T08:30:08Z</time>
      </trkpt>
      <trkpt lat="38.056055" lon="-1.216328">
        <ele>87.6</ele>
        <time>2016-05-14T08:30:10Z</time>
      </trkpt>
      <trkpt lat="38.056090" lon="-1.216420">
        <ele>88.1</ele>
        <time>2016-05-14T08:30:16Z</time>
      </trkpt>
      <trkpt lat="38.056137" lon="-1.216502">
        <ele>87.1</ele>
        <time>2016-05-14T08:30:32Z</time>
      </trkpt>
      <trkpt lat="38.056230" lon="-1.216357">
        <ele>87.6</ele>
        <time>2016-05-14T08:30:45Z</time>
      </trkpt>
      <trkpt lat="38.056315" lon="-1.216203">
        <ele>88.1</ele>
        <time>2016-05-14T08:30:57Z</time>
      </trkpt>
      <trkpt lat="38.056688" lon="-1.216630">
        <ele>89.1</ele>
        <time>2016-05-14T08:31:12Z</time>
      </trkpt>
      <trkpt lat="38.056758" lon="-1.216705">
        <ele>89.1</ele>
        <time>2016-05-14T08:31:16Z</time>
      </trkpt>
      <trkpt lat="38.056902" lon="-1.216876">
        <ele>89.1</ele>
        <time>2016-05-14T08:31:33Z</time>
      </trkpt>
      <trkpt lat="38.056992" lon="-1.217007">
        <ele>89.1</ele>
        <time>2016-05-14T08:31:37Z</time>
      </trkpt>
      <trkpt lat="38.057088" lon="-1.217112">
        <ele>89.1</ele>
        <time>2016-05-14T08:31:40Z</time>
      </trkpt>
      <trkpt lat="38.057143" lon="-1.217172">
        <ele>89.1</ele>
        <time>2016-05-14T08:31:55Z</time>
      </trkpt>
      <trkpt lat="38.057187" lon="-1.217234">
        <ele>89.5</ele>
        <time>2016-05-14T08:32:01Z</time>
      </trkpt>
      <trkpt lat="38.057484" lon="-1.217546">
        <ele>88.6</ele>
        <time>2016-05-14T08:33:06Z</time>
      </trkpt>
      <trkpt lat="38.057601" lon="-1.217673">
        <ele>89.1</ele>
        <time>2016-05-14T08:33:17Z</time>
      </trkpt>
      <trkpt lat="38.057766" lon="-1.217719">
        <ele>89.5</ele>
        <time>2016-05-14T08:33:29Z</time>
      </trkpt>
      <trkpt lat="38.057815" lon="-1.217714">
        <ele>90.0</ele>
        <time>2016-05-14T08:33:33Z</time>
      </trkpt>
      <trkpt lat="38.057848" lon="-1.217727">
        <ele>90.5</ele>
        <time>2016-05-14T08:33:36Z</time>
      </trkpt>
      <trkpt lat="38.058044" lon="-1.217723">
        <ele>89.5</ele>
        <time>2016-05-14T08:33:50Z</time>
      </trkpt>
      <trkpt lat="38.058155" lon="-1.217704">
        <ele>89.5</ele>
        <time>2016-05-14T08:34:01Z</time>
      </trkpt>
      <trkpt lat="38.058276" lon="-1.217688">
        <ele>89.5</ele>
        <time>2016-05-14T08:34:14Z</time>
      </trkpt>
      <trkpt lat="38.058328" lon="-1.217686">
        <ele>89.1</ele>
        <time>2016-05-14T08:34:19Z</time>
      </trkpt>
      <trkpt lat="38.058394" lon="-1.217684">
        <ele>89.1</ele>
        <time>2016-05-14T08:34:24Z</time>
      </trkpt>
      <trkpt lat="38.058438" lon="-1.217686">
        <ele>89.5</ele>
        <time>2016-05-14T08:34:28Z</time>
      </trkpt>
      <trkpt lat="38.058508" lon="-1.217670">
        <ele>90.0</ele>
        <time>2016-05-14T08:34:33Z</time>
      </trkpt>
      <trkpt lat="38.058727" lon="-1.217701">
        <ele>90.5</ele>
        <time>2016-05-14T08:34:51Z</time>
      </trkpt>
      <trkpt lat="38.058746" lon="-1.217719">
        <ele>90.5</ele>
        <time>2016-05-14T08:34:54Z</time>
      </trkpt>
      <trkpt lat="38.058754" lon="-1.217822">
        <ele>90.0</ele>
        <time>2016-05-14T08:35:00Z</time>
      </trkpt>
      <trkpt lat="38.058775" lon="-1.218019">
        <ele>90.5</ele>
        <time>2016-05-14T08:35:13Z</time>
      </trkpt>
      <trkpt lat="38.058980" lon="-1.218044">
        <ele>90.5</ele>
        <time>2016-05-14T08:35:29Z</time>
      </trkpt>
      <trkpt lat="38.059091" lon="-1.218024">
        <ele>90.0</ele>
        <time>2016-05-14T08:35:39Z</time>
      </trkpt>
      <trkpt lat="38.059316" lon="-1.217989">
        <ele>90.0</ele>
        <time>2016-05-14T08:35:56Z</time>
      </trkpt>
      <trkpt lat="38.059379" lon="-1.217980">
        <ele>91.0</ele>
        <time>2016-05-14T08:36:00Z</time>
      </trkpt>
      <trkpt lat="38.059401" lon="-1.217993">
        <ele>91.0</ele>
        <time>2016-05-14T08:36:02Z</time>
      </trkpt>
      <trkpt lat="38.059727" lon="-1.218030">
        <ele>91.5</ele>
        <time>2016-05-14T08:36:28Z</time>
      </trkpt>
      <trkpt lat="38.059790" lon="-1.218127">
        <ele>92.4</ele>
        <time>2016-05-14T08:36:43Z</time>
      </trkpt>
      <trkpt lat="38.059788" lon="-1.218136">
        <ele>92.4</ele>
        <time>2016-05-14T08:36:49Z</time>
      </trkpt>
      <trkpt lat="38.059878" lon="-1.218359">
        <ele>91.5</ele>
        <time>2016-05-14T08:37:02Z</time>
      </trkpt>
      <trkpt lat="38.059885" lon="-1.218417">
        <ele>91.5</ele>
        <time>2016-05-14T08:37:06Z</time>
      </trkpt>
      <trkpt lat="38.059747" lon="-1.218661">
        <ele>90.0</ele>
        <time>2016-05-14T08:37:23Z</time>
      </trkpt>
      <trkpt lat="38.059543" lon="-1.219008">
        <ele>90.0</ele>
        <time>2016-05-14T08:37:45Z</time>
      </trkpt>
      <trkpt lat="38.059399" lon="-1.219248">
        <ele>88.6</ele>
        <time>2016-05-14T08:38:00Z</time>
      </trkpt>
      <trkpt lat="38.059301" lon="-1.219447">
        <ele>89.5</ele>
        <time>2016-05-14T08:38:17Z</time>
      </trkpt>
      <trkpt lat="38.059294" lon="-1.219459">
        <ele>90.0</ele>
        <time>2016-05-14T08:38:18Z</time>
      </trkpt>
      <trkpt lat="38.059270" lon="-1.219508">
        <ele>90.5</ele>
        <time>2016-05-14T08:38:21Z</time>
      </trkpt>
      <trkpt lat="38.059415" lon="-1.219687">
        <ele>90.0</ele>
        <time>2016-05-14T08:38:35Z</time>
      </trkpt>
      <trkpt lat="38.059645" lon="-1.219857">
        <ele>89.5</ele>
        <time>2016-05-14T08:38:54Z</time>
      </trkpt>
      <trkpt lat="38.059832" lon="-1.219979">
        <ele>90.0</ele>
        <time>2016-05-14T08:39:10Z</time>
      </trkpt>
      <trkpt lat="38.059882" lon="-1.220000">
        <ele>89.5</ele>
        <time>2016-05-14T08:39:14Z</time>
      </trkpt>
      <trkpt lat="38.060108" lon="-1.220080">
        <ele>90.0</ele>
        <time>2016-05-14T08:39:31Z</time>
      </trkpt>
      <trkpt lat="38.060189" lon="-1.220122">
        <ele>89.5</ele>
        <time>2016-05-14T08:39:37Z</time>
      </trkpt>
      <trkpt lat="38.060204" lon="-1.220140">
        <ele>89.5</ele>
        <time>2016-05-14T08:39:39Z</time>
      </trkpt>
      <trkpt lat="38.060389" lon="-1.220246">
        <ele>90.0</ele>
        <time>2016-05-14T08:39:56Z</time>
      </trkpt>
      <trkpt lat="38.060553" lon="-1.220341">
        <ele>90.0</ele>
        <time>2016-05-14T08:40:11Z</time>
      </trkpt>
      <trkpt lat="38.060694" lon="-1.220415">
        <ele>89.1</ele>
        <time>2016-05-14T08:40:23Z</time>
      </trkpt>
      <trkpt lat="38.060871" lon="-1.220583">
        <ele>89.5</ele>
        <time>2016-05-14T08:40:41Z</time>
      </trkpt>
      <trkpt lat="38.061040" lon="-1.220720">
        <ele>89.1</ele>
        <time>2016-05-14T08:40:57Z</time>
      </trkpt>
      <trkpt lat="38.061245" lon="-1.220862">
        <ele>90.0</ele>
        <time>2016-05-14T08:41:16Z</time>
      </trkpt>
      <trkpt lat="38.061367" lon="-1.220907">
        <ele>90.0</ele>
        <time>2016-05-14T08:41:27Z</time>
      </trkpt>
      <trkpt lat="38.061386" lon="-1.220919">
        <ele>89.1</ele>
        <time>2016-05-14T08:41:29Z</time>
      </trkpt>
      <trkpt lat="38.061448" lon="-1.220998">
        <ele>89.1</ele>
        <time>2016-05-14T08:41:36Z</time>
      </trkpt>
      <trkpt lat="38.061494" lon="-1.221232">
        <ele>89.5</ele>
        <time>2016-05-14T08:41:50Z</time>
      </trkpt>
      <trkpt lat="38.061621" lon="-1.221449">
        <ele>89.5</ele>
        <time>2016-05-14T08:42:05Z</time>
      </trkpt>
      <trkpt lat="38.061805" lon="-1.221616">
        <ele>88.6</ele>
        <time>2016-05-14T08:42:21Z</time>
      </trkpt>
      <trkpt lat="38.061893" lon="-1.221685">
        <ele>89.1</ele>
        <time>2016-05-14T08:42:28Z</time>
      </trkpt>
      <trkpt lat="38.061931" lon="-1.221700">
        <ele>89.5</ele>
        <time>2016-05-14T08:42:32Z</time>
      </trkpt>
      <trkpt lat="38.062017" lon="-1.221739">
        <ele>89.5</ele>
        <time>2016-05-14T08:42:40Z</time>
      </trkpt>
      <trkpt lat="38.062095" lon="-1.221782">
        <ele>89.1</ele>
        <time>2016-05-14T08:42:47Z</time>
      </trkpt>
      <trkpt lat="38.062135" lon="-1.221809">
        <ele>89.1</ele>
        <time>2016-05-14T08:42:53Z</time>
      </trkpt>
      <trkpt lat="38.062152" lon="-1.221805">
        <ele>88.1</ele>
        <time>2016-05-14T08:42:55Z</time>
      </trkpt>
      <trkpt lat="38.062252" lon="-1.221821">
        <ele>88.6</ele>
        <time>2016-05-14T08:43:06Z</time>
      </trkpt>
      <trkpt lat="38.062447" lon="-1.221890">
        <ele>88.6</ele>
        <time>2016-05-14T08:43:22Z</time>
      </trkpt>
      <trkpt lat="38.062663" lon="-1.221958">
        <ele>89.1</ele>
        <time>2016-05-14T08:43:40Z</time>
      </trkpt>
      <trkpt lat="38.062847" lon="-1.222003">
        <ele>89.1</ele>
        <time>2016-05-14T08:43:55Z</time>
      </trkpt>
      <trkpt lat="38.063065" lon="-1.221978">
        <ele>89.5</ele>
        <time>2016-05-14T08:44:12Z</time>
      </trkpt>
      <trkpt lat="38.063282" lon="-1.221940">
        <ele>89.1</ele>
        <time>2016-05-14T08:45:18Z</time>
      </trkpt>
      <trkpt lat="38.063364" lon="-1.221940">
        <ele>89.5</ele>
        <time>2016-05-14T08:46:54Z</time>
      </trkpt>
      <trkpt lat="38.063566" lon="-1.221999">
        <ele>89.5</ele>
        <time>2016-05-14T08:47:09Z</time>
      </trkpt>
      <trkpt lat="38.063845" lon="-1.222059">
        <ele>89.1</ele>
        <time>2016-05-14T08:47:28Z</time>
      </trkpt>
      <trkpt lat="38.064118" lon="-1.222152">
        <ele>89.5</ele>
        <time>2016-05-14T08:47:48Z</time>
      </trkpt>
      <trkpt lat="38.064389" lon="-1.222259">
        <ele>89.1</ele>
        <time>2016-05-14T08:48:07Z</time>
      </trkpt>
      <trkpt lat="38.064567" lon="-1.222336">
        <ele>89.5</ele>
        <time>2016-05-14T08:48:21Z</time>
      </trkpt>
      <trkpt lat="38.064824" lon="-1.222428">
        <ele>89.5</ele>
        <time>2016-05-14T08:48:40Z</time>
      </trkpt>
      <trkpt lat="38.065049" lon="-1.222478">
        <ele>90.0</ele>
        <time>2016-05-14T08:48:56Z</time>
      </trkpt>
      <trkpt lat="38.065269" lon="-1.222574">
        <ele>89.5</ele>
        <time>2016-05-14T08:49:14Z</time>
      </trkpt>
      <trkpt lat="38.065401" lon="-1.222677">
        <ele>90.0</ele>
        <time>2016-05-14T08:49:26Z</time>
      </trkpt>
      <trkpt lat="38.065464" lon="-1.222734">
        <ele>89.5</ele>
        <time>2016-05-14T08:49:32Z</time>
      </trkpt>
      <trkpt lat="38.065629" lon="-1.222875">
        <ele>89.1</ele>
        <time>2016-05-14T08:49:46Z</time>
      </trkpt>
      <trkpt lat="38.065783" lon="-1.223020">
        <ele>90.0</ele>
        <time>2016-05-14T08:50:00Z</time>
      </trkpt>
      <trkpt lat="38.065864" lon="-1.223074">
        <ele>89.1</ele>
        <time>2016-05-14T08:50:06Z</time>
      </trkpt>
      <trkpt lat="38.065974" lon="-1.223163">
        <ele>91.0</ele>
        <time>2016-05-14T08:50:22Z</time>
      </trkpt>
      <trkpt lat="38.066063" lon="-1.223307">
        <ele>89.5</ele>
        <time>2016-05-14T08:50:32Z</time>
      </trkpt>
      <trkpt lat="38.066314" lon="-1.223529">
        <ele>88.1</ele>
        <time>2016-05-14T08:50:51Z</time>
      </trkpt>
      <trkpt lat="38.066503" lon="-1.223755">
        <ele>90.0</ele>
        <time>2016-05-14T08:51:08Z</time>
      </trkpt>
      <trkpt lat="38.066698" lon="-1.223944">
        <ele>89.5</ele>
        <time>2016-05-14T08:51:27Z</time>
      </trkpt>
      <trkpt lat="38.066869" lon="-1.224135">
        <ele>90.0</ele>
        <time>2016-05-14T08:51:43Z</time>
      </trkpt>
      <trkpt lat="38.067007" lon="-1.224200">
        <ele>90.5</ele>
        <time>2016-05-14T08:51:53Z</time>
      </trkpt>
      <trkpt lat="38.067206" lon="-1.224247">
        <ele>90.0</ele>
        <time>2016-05-14T08:52:08Z</time>
      </trkpt>
      <trkpt lat="38.067483" lon="-1.224254">
        <ele>89.1</ele>
        <time>2016-05-14T08:52:27Z</time>
      </trkpt>
      <trkpt lat="38.067752" lon="-1.224268">
        <ele>89.1</ele>
        <time>2016-05-14T08:52:47Z</time>
      </trkpt>
      <trkpt lat="38.067930" lon="-1.224408">
        <ele>90.0</ele>
        <time>2016-05-14T08:53:03Z</time>
      </trkpt>
      <trkpt lat="38.068092" lon="-1.224638">
        <ele>90.0</ele>
        <time>2016-05-14T08:53:21Z</time>
      </trkpt>
      <trkpt lat="38.068260" lon="-1.224893">
        <ele>90.0</ele>
        <time>2016-05-14T08:53:40Z</time>
      </trkpt>
      <trkpt lat="38.068428" lon="-1.225162">
        <ele>89.5</ele>
        <time>2016-05-14T08:54:00Z</time>
      </trkpt>
      <trkpt lat="38.068622" lon="-1.225427">
        <ele>90.5</ele>
        <time>2016-05-14T08:54:21Z</time>
      </trkpt>
      <trkpt lat="38.068812" lon="-1.225691">
        <ele>90.0</ele>
        <time>2016-05-14T08:54:41Z</time>
      </trkpt>
      <trkpt lat="38.068939" lon="-1.225933">
        <ele>90.5</ele>
        <time>2016-05-14T08:54:58Z</time>
      </trkpt>
      <trkpt lat="38.069101" lon="-1.226211">
        <ele>91.0</ele>
        <time>2016-05-14T08:55:17Z</time>
      </trkpt>
      <trkpt lat="38.069234" lon="-1.226442">
        <ele>91.0</ele>
        <time>2016-05-14T08:55:34Z</time>
      </trkpt>
      <trkpt lat="38.069369" lon="-1.226699">
        <ele>90.5</ele>
        <time>2016-05-14T08:55:51Z</time>
      </trkpt>
      <trkpt lat="38.069514" lon="-1.226986">
        <ele>91.0</ele>
        <time>2016-05-14T08:56:10Z</time>
      </trkpt>
      <trkpt lat="38.069658" lon="-1.227247">
        <ele>90.5</ele>
        <time>2016-05-14T08:56:29Z</time>
      </trkpt>
      <trkpt lat="38.069777" lon="-1.227480">
        <ele>90.0</ele>
        <time>2016-05-14T08:56:45Z</time>
      </trkpt>
      <trkpt lat="38.069927" lon="-1.227709">
        <ele>90.5</ele>
        <time>2016-05-14T08:57:02Z</time>
      </trkpt>
      <trkpt lat="38.070090" lon="-1.227953">
        <ele>91.0</ele>
        <time>2016-05-14T08:57:20Z</time>
      </trkpt>
      <trkpt lat="38.070227" lon="-1.228142">
        <ele>90.5</ele>
        <time>2016-05-14T08:57:36Z</time>
      </trkpt>
      <trkpt lat="38.070363" lon="-1.228410">
        <ele>90.5</ele>
        <time>2016-05-14T08:57:54Z</time>
      </trkpt>
      <trkpt lat="38.070472" lon="-1.228672">
        <ele>91.0</ele>
        <time>2016-05-14T08:58:11Z</time>
      </trkpt>
      <trkpt lat="38.070579" lon="-1.228911">
        <ele>90.0</ele>
        <time>2016-05-14T08:58:27Z</time>
      </trkpt>
      <trkpt lat="38.070684" lon="-1.229147">
        <ele>89.1</ele>
        <time>2016-05-14T08:58:44Z</time>
      </trkpt>
      <trkpt lat="38.070723" lon="-1.229245">
        <ele>89.1</ele>
        <time>2016-05-14T08:58:51Z</time>
      </trkpt>
      <trkpt lat="38.070827" lon="-1.229553">
        <ele>90.0</ele>
        <time>2016-05-14T08:59:11Z</time>
      </trkpt>
      <trkpt lat="38.070923" lon="-1.229863">
        <ele>90.5</ele>
        <time>2016-05-14T08:59:30Z</time>
      </trkpt>
      <trkpt lat="38.071030" lon="-1.230180">
        <ele>89.5</ele>
        <time>2016-05-14T08:59:50Z</time>
      </trkpt>
      <trkpt lat="38.071152" lon="-1.230463">
        <ele>91.0</ele>
        <time>2016-05-14T09:00:08Z</time>
      </trkpt>
      <trkpt lat="38.071295" lon="-1.230694">
        <ele>90.0</ele>
        <time>2016-05-14T09:00:25Z</time>
      </trkpt>
      <trkpt lat="38.071331" lon="-1.230781">
        <ele>91.0</ele>
        <time>2016-05-14T09:00:31Z</time>
      </trkpt>
      <trkpt lat="38.071412" lon="-1.231016">
        <ele>91.0</ele>
        <time>2016-05-14T09:00:47Z</time>
      </trkpt>
      <trkpt lat="38.071462" lon="-1.231197">
        <ele>90.0</ele>
        <time>2016-05-14T09:01:01Z</time>
      </trkpt>
      <trkpt lat="38.071470" lon="-1.231200">
        <ele>90.5</ele>
        <time>2016-05-14T09:01:11Z</time>
      </trkpt>
      <trkpt lat="38.071515" lon="-1.231261">
        <ele>91.5</ele>
        <time>2016-05-14T09:01:15Z</time>
      </trkpt>
      <trkpt lat="38.071523" lon="-1.231307">
        <ele>91.0</ele>
        <time>2016-05-14T09:01:25Z</time>
      </trkpt>
      <trkpt lat="38.071591" lon="-1.231487">
        <ele>91.0</ele>
        <time>2016-05-14T09:01:40Z</time>
      </trkpt>
      <trkpt lat="38.071677" lon="-1.231813">
        <ele>91.0</ele>
        <time>2016-05-14T09:01:58Z</time>
      </trkpt>
      <trkpt lat="38.071750" lon="-1.232052">
        <ele>89.5</ele>
        <time>2016-05-14T09:02:11Z</time>
      </trkpt>
      <trkpt lat="38.071825" lon="-1.232242">
        <ele>88.6</ele>
        <time>2016-05-14T09:02:22Z</time>
      </trkpt>
      <trkpt lat="38.071847" lon="-1.232314">
        <ele>88.6</ele>
        <time>2016-05-14T09:02:27Z</time>
      </trkpt>
      <trkpt lat="38.071927" lon="-1.232578">
        <ele>90.5</ele>
        <time>2016-05-14T09:02:43Z</time>
      </trkpt>
      <trkpt lat="38.071990" lon="-1.232815">
        <ele>91.0</ele>
        <time>2016-05-14T09:02:58Z</time>
      </trkpt>
      <trkpt lat="38.072056" lon="-1.233110">
        <ele>90.0</ele>
        <time>2016-05-14T09:03:15Z</time>
      </trkpt>
      <trkpt lat="38.072148" lon="-1.233395">
        <ele>90.0</ele>
        <time>2016-05-14T09:03:33Z</time>
      </trkpt>
      <trkpt lat="38.072229" lon="-1.233658">
        <ele>90.0</ele>
        <time>2016-05-14T09:03:49Z</time>
      </trkpt>
      <trkpt lat="38.072312" lon="-1.233955">
        <ele>90.0</ele>
        <time>2016-05-14T09:04:07Z</time>
      </trkpt>
      <trkpt lat="38.072381" lon="-1.234238">
        <ele>89.1</ele>
        <time>2016-05-14T09:04:24Z</time>
      </trkpt>
      <trkpt lat="38.072449" lon="-1.234500">
        <ele>89.5</ele>
        <time>2016-05-14T09:04:40Z</time>
      </trkpt>
      <trkpt lat="38.072527" lon="-1.234819">
        <ele>90.5</ele>
        <time>2016-05-14T09:04:59Z</time>
      </trkpt>
      <trkpt lat="38.072604" lon="-1.235078">
        <ele>90.0</ele>
        <time>2016-05-14T09:05:14Z</time>
      </trkpt>
      <trkpt lat="38.072632" lon="-1.235189">
        <ele>89.1</ele>
        <time>2016-05-14T09:05:25Z</time>
      </trkpt>
      <trkpt lat="38.072716" lon="-1.235454">
        <ele>88.1</ele>
        <time>2016-05-14T09:05:41Z</time>
      </trkpt>
      <trkpt lat="38.072788" lon="-1.235758">
        <ele>89.1</ele>
        <time>2016-05-14T09:06:00Z</time>
      </trkpt>
      <trkpt lat="38.072824" lon="-1.235912">
        <ele>88.6</ele>
        <time>2016-05-14T09:06:09Z</time>
      </trkpt>
      <trkpt lat="38.072902" lon="-1.236224">
        <ele>89.1</ele>
        <time>2016-05-14T09:06:28Z</time>
      </trkpt>
      <trkpt lat="38.072879" lon="-1.236486">
        <ele>89.1</ele>
        <time>2016-05-14T09:06:44Z</time>
      </trkpt>
      <trkpt lat="38.072796" lon="-1.236732">
        <ele>89.5</ele>
        <time>2016-05-14T09:06:59Z</time>
      </trkpt>
      <trkpt lat="38.072770" lon="-1.236843">
        <ele>89.5</ele>
        <time>2016-05-14T09:07:06Z</time>
      </trkpt>
      <trkpt lat="38.072691" lon="-1.237120">
        <ele>89.5</ele>
        <time>2016-05-14T09:07:23Z</time>
      </trkpt>
      <trkpt lat="38.072606" lon="-1.237426">
        <ele>89.1</ele>
        <time>2016-05-14T09:07:42Z</time>
      </trkpt>
      <trkpt lat="38.072574" lon="-1.237607">
        <ele>88.6</ele>
        <time>2016-05-14T09:07:53Z</time>
      </trkpt>
      <trkpt lat="38.072540" lon="-1.237662">
        <ele>88.6</ele>
        <time>2016-05-14T09:07:57Z</time>
      </trkpt>
      <trkpt lat="38.072510" lon="-1.237775">
        <ele>88.1</ele>
        <time>2016-05-14T09:08:05Z</time>
      </trkpt>
      <trkpt lat="38.072523" lon="-1.237805">
        <ele>88.6</ele>
        <time>2016-05-14T09:08:08Z</time>
      </trkpt>
      <trkpt lat="38.072704" lon="-1.238042">
        <ele>88.1</ele>
        <time>2016-05-14T09:08:27Z</time>
      </trkpt>
      <trkpt lat="38.072838" lon="-1.238215">
        <ele>88.6</ele>
        <time>2016-05-14T09:08:42Z</time>
      </trkpt>
      <trkpt lat="38.072867" lon="-1.238267">
        <ele>88.6</ele>
        <time>2016-05-14T09:08:46Z</time>
      </trkpt>
      <trkpt lat="38.073052" lon="-1.238486">
        <ele>88.6</ele>
        <time>2016-05-14T09:09:05Z</time>
      </trkpt>
      <trkpt lat="38.073100" lon="-1.238538">
        <ele>88.6</ele>
        <time>2016-05-14T09:09:10Z</time>
      </trkpt>
      <trkpt lat="38.073136" lon="-1.238586">
        <ele>88.1</ele>
        <time>2016-05-14T09:09:15Z</time>
      </trkpt>
      <trkpt lat="38.073248" lon="-1.238682">
        <ele>88.1</ele>
        <time>2016-05-14T09:09:29Z</time>
      </trkpt>
      <trkpt lat="38.073402" lon="-1.238727">
        <ele>89.1</ele>
        <time>2016-05-14T09:09:44Z</time>
      </trkpt>
      <trkpt lat="38.073432" lon="-1.238731">
        <ele>89.1</ele>
        <time>2016-05-14T09:09:48Z</time>
      </trkpt>
      <trkpt lat="38.073609" lon="-1.238825">
        <ele>89.5</ele>
        <time>2016-05-14T09:10:03Z</time>
      </trkpt>
      <trkpt lat="38.073707" lon="-1.238933">
        <ele>90.5</ele>
        <time>2016-05-14T09:10:13Z</time>
      </trkpt>
      <trkpt lat="38.073875" lon="-1.239051">
        <ele>89.5</ele>
        <time>2016-05-14T09:10:29Z</time>
      </trkpt>
      <trkpt lat="38.073923" lon="-1.239097">
        <ele>89.5</ele>
        <time>2016-05-14T09:10:34Z</time>
      </trkpt>
      <trkpt lat="38.073936" lon="-1.239108">
        <ele>89.5</ele>
        <time>2016-05-14T09:10:46Z</time>
      </trkpt>
      <trkpt lat="38.073936" lon="-1.239149">
        <ele>90.5</ele>
        <time>2016-05-14T09:11:02Z</time>
      </trkpt>
      <trkpt lat="38.073953" lon="-1.239142">
        <ele>91.0</ele>
        <time>2016-05-14T09:11:07Z</time>
      </trkpt>
      <trkpt lat="38.074126" lon="-1.239052">
        <ele>91.0</ele>
        <time>2016-05-14T09:11:21Z</time>
      </trkpt>
      <trkpt lat="38.074340" lon="-1.238973">
        <ele>90.5</ele>
        <time>2016-05-14T09:11:38Z</time>
      </trkpt>
      <trkpt lat="38.074512" lon="-1.238913">
        <ele>90.5</ele>
        <time>2016-05-14T09:11:55Z</time>
      </trkpt>
      <trkpt lat="38.074709" lon="-1.238807">
        <ele>90.5</ele>
        <time>2016-05-14T09:12:12Z</time>
      </trkpt>
      <trkpt lat="38.074746" lon="-1.238789">
        <ele>91.0</ele>
        <time>2016-05-14T09:12:16Z</time>
      </trkpt>
      <trkpt lat="38.074747" lon="-1.238745">
        <ele>90.5</ele>
        <time>2016-05-14T09:12:19Z</time>
      </trkpt>
      <trkpt lat="38.074815" lon="-1.238720">
        <ele>90.5</ele>
        <time>2016-05-14T09:12:25Z</time>
      </trkpt>
      <trkpt lat="38.074892" lon="-1.238693">
        <ele>91.0</ele>
        <time>2016-05-14T09:12:33Z</time>
      </trkpt>
      <trkpt lat="38.074936" lon="-1.238864">
        <ele>90.5</ele>
        <time>2016-05-14T09:12:45Z</time>
      </trkpt>
      <trkpt lat="38.074970" lon="-1.238959">
        <ele>91.0</ele>
        <time>2016-05-14T09:12:51Z</time>
      </trkpt>
      <trkpt lat="38.075085" lon="-1.239207">
        <ele>91.9</ele>
        <time>2016-05-14T09:13:08Z</time>
      </trkpt>
      <trkpt lat="38.075145" lon="-1.239505">
        <ele>92.4</ele>
        <time>2016-05-14T09:13:28Z</time>
      </trkpt>
      <trkpt lat="38.075152" lon="-1.239519">
        <ele>92.4</ele>
        <time>2016-05-14T09:13:29Z</time>
      </trkpt>
      <trkpt lat="38.075166" lon="-1.239591">
        <ele>93.4</ele>
        <time>2016-05-14T09:13:34Z</time>
      </trkpt>
      <trkpt lat="38.075250" lon="-1.239784">
        <ele>92.4</ele>
        <time>2016-05-14T09:13:50Z</time>
      </trkpt>
      <trkpt lat="38.075249" lon="-1.239787">
        <ele>91.9</ele>
        <time>2016-05-14T09:13:52Z</time>
      </trkpt>
      <trkpt lat="38.075322" lon="-1.240099">
        <ele>92.4</ele>
        <time>2016-05-14T09:14:11Z</time>
      </trkpt>
      <trkpt lat="38.075396" lon="-1.240310">
        <ele>92.9</ele>
        <time>2016-05-14T09:14:24Z</time>
      </trkpt>
      <trkpt lat="38.075422" lon="-1.240385">
        <ele>91.9</ele>
        <time>2016-05-14T09:14:28Z</time>
      </trkpt>
      <trkpt lat="38.075449" lon="-1.240522">
        <ele>92.4</ele>
        <time>2016-05-14T09:14:37Z</time>
      </trkpt>
      <trkpt lat="38.075505" lon="-1.240710">
        <ele>93.4</ele>
        <time>2016-05-14T09:14:51Z</time>
      </trkpt>
      <trkpt lat="38.075523" lon="-1.240779">
        <ele>93.4</ele>
        <time>2016-05-14T09:14:55Z</time>
      </trkpt>
      <trkpt lat="38.075571" lon="-1.241009">
        <ele>92.9</ele>
        <time>2016-05-14T09:15:10Z</time>
      </trkpt>
      <trkpt lat="38.075574" lon="-1.241107">
        <ele>92.4</ele>
        <time>2016-05-14T09:15:16Z</time>
      </trkpt>
      <trkpt lat="38.075570" lon="-1.241139">
        <ele>92.9</ele>
        <time>2016-05-14T09:15:18Z</time>
      </trkpt>
      <trkpt lat="38.075582" lon="-1.241205">
        <ele>92.9</ele>
        <time>2016-05-14T09:15:28Z</time>
      </trkpt>
      <trkpt lat="38.075598" lon="-1.241215">
        <ele>93.4</ele>
        <time>2016-05-14T09:15:46Z</time>
      </trkpt>
      <trkpt lat="38.075758" lon="-1.241170">
        <ele>92.4</ele>
        <time>2016-05-14T09:16:00Z</time>
      </trkpt>
      <trkpt lat="38.075781" lon="-1.241501">
        <ele>91.9</ele>
        <time>2016-05-14T09:16:01Z</time>
      </trkpt>
      <trkpt lat="38.075778" lon="-1.241731">
        <ele>92.9</ele>
        <time>2016-05-14T09:16:15Z</time>
      </trkpt>
      <trkpt lat="38.075952" lon="-1.241756">
        <ele>91.9</ele>
        <time>2016-05-14T09:16:30Z</time>
      </trkpt>
      <trkpt lat="38.076183" lon="-1.241723">
        <ele>91.9</ele>
        <time>2016-05-14T09:16:48Z</time>
      </trkpt>
      <trkpt lat="38.076379" lon="-1.241667">
        <ele>91.9</ele>
        <time>2016-05-14T09:17:04Z</time>
      </trkpt>
      <trkpt lat="38.076513" lon="-1.241742">
        <ele>93.4</ele>
        <time>2016-05-14T09:17:17Z</time>
      </trkpt>
      <trkpt lat="38.076591" lon="-1.241916">
        <ele>91.9</ele>
        <time>2016-05-14T09:17:29Z</time>
      </trkpt>
      <trkpt lat="38.076597" lon="-1.241948">
        <ele>91.5</ele>
        <time>2016-05-14T09:17:31Z</time>
      </trkpt>
      <trkpt lat="38.076605" lon="-1.241976">
        <ele>91.5</ele>
        <time>2016-05-14T09:17:33Z</time>
      </trkpt>
      <trkpt lat="38.076734" lon="-1.242219">
        <ele>92.4</ele>
        <time>2016-05-14T09:17:49Z</time>
      </trkpt>
      <trkpt lat="38.076758" lon="-1.242273">
        <ele>92.9</ele>
        <time>2016-05-14T09:17:54Z</time>
      </trkpt>
      <trkpt lat="38.076822" lon="-1.242428">
        <ele>93.9</ele>
        <time>2016-05-14T09:18:10Z</time>
      </trkpt>
      <trkpt lat="38.076814" lon="-1.242492">
        <ele>94.8</ele>
        <time>2016-05-14T09:18:22Z</time>
      </trkpt>
      <trkpt lat="38.076843" lon="-1.242543">
        <ele>93.4</ele>
        <time>2016-05-14T09:18:26Z</time>
      </trkpt>
      <trkpt lat="38.076797" lon="-1.242753">
        <ele>94.8</ele>
        <time>2016-05-14T09:18:41Z</time>
      </trkpt>
      <trkpt lat="38.076796" lon="-1.242763">
        <ele>94.3</ele>
        <time>2016-05-14T09:18:42Z</time>
      </trkpt>
      <trkpt lat="38.076761" lon="-1.243027">
        <ele>94.3</ele>
        <time>2016-05-14T09:18:58Z</time>
      </trkpt>
      <trkpt lat="38.076759" lon="-1.243137">
        <ele>95.3</ele>
        <time>2016-05-14T09:19:15Z</time>
      </trkpt>
      <trkpt lat="38.076759" lon="-1.243259">
        <ele>94.3</ele>
        <time>2016-05-14T09:19:32Z</time>
      </trkpt>
      <trkpt lat="38.076735" lon="-1.243239">
        <ele>94.3</ele>
        <time>2016-05-14T09:19:43Z</time>
      </trkpt>
      <trkpt lat="38.076736" lon="-1.243220">
        <ele>94.3</ele>
        <time>2016-05-14T09:19:58Z</time>
      </trkpt>
      <trkpt lat="38.076750" lon="-1.243249">
        <ele>94.3</ele>
        <time>2016-05-14T09:20:00Z</time>
      </trkpt>
      <trkpt lat="38.076809" lon="-1.243460">
        <ele>96.3</ele>
        <time>2016-05-14T09:20:17Z</time>
      </trkpt>
      <trkpt lat="38.076878" lon="-1.243694">
        <ele>97.2</ele>
        <time>2016-05-14T09:20:31Z</time>
      </trkpt>
      <trkpt lat="38.076892" lon="-1.243753">
        <ele>95.3</ele>
        <time>2016-05-14T09:20:34Z</time>
      </trkpt>
      <trkpt lat="38.076989" lon="-1.244052">
        <ele>97.2</ele>
        <time>2016-05-14T09:20:51Z</time>
      </trkpt>
      <trkpt lat="38.077029" lon="-1.244124">
        <ele>94.8</ele>
        <time>2016-05-14T09:20:56Z</time>
      </trkpt>
      <trkpt lat="38.077086" lon="-1.244230">
        <ele>98.2</ele>
        <time>2016-05-14T09:21:03Z</time>
      </trkpt>
      <trkpt lat="38.077102" lon="-1.244235">
        <ele>97.2</ele>
        <time>2016-05-14T09:21:09Z</time>
      </trkpt>
      <trkpt lat="38.077122" lon="-1.244295">
        <ele>98.2</ele>
        <time>2016-05-14T09:21:14Z</time>
      </trkpt>
      <trkpt lat="38.077172" lon="-1.244388">
        <ele>98.2</ele>
        <time>2016-05-14T09:21:26Z</time>
      </trkpt>
      <trkpt lat="38.077233" lon="-1.244511">
        <ele>97.7</ele>
        <time>2016-05-14T09:21:39Z</time>
      </trkpt>
      <trkpt lat="38.077365" lon="-1.244750">
        <ele>94.3</ele>
        <time>2016-05-14T09:21:56Z</time>
      </trkpt>
      <trkpt lat="38.077500" lon="-1.245057">
        <ele>93.4</ele>
        <time>2016-05-14T09:22:15Z</time>
      </trkpt>
      <trkpt lat="38.077565" lon="-1.245293">
        <ele>91.9</ele>
        <time>2016-05-14T09:22:33Z</time>
      </trkpt>
      <trkpt lat="38.077545" lon="-1.245300">
        <ele>91.9</ele>
        <time>2016-05-14T09:22:44Z</time>
      </trkpt>
      <trkpt lat="38.077581" lon="-1.245665">
        <ele>91.9</ele>
        <time>2016-05-14T09:23:05Z</time>
      </trkpt>
      <trkpt lat="38.077560" lon="-1.245749">
        <ele>91.9</ele>
        <time>2016-05-14T09:23:12Z</time>
      </trkpt>
      <trkpt lat="38.077645" lon="-1.246016">
        <ele>91.9</ele>
        <time>2016-05-14T09:23:29Z</time>
      </trkpt>
      <trkpt lat="38.077650" lon="-1.246031">
        <ele>91.9</ele>
        <time>2016-05-14T09:23:30Z</time>
      </trkpt>
      <trkpt lat="38.077698" lon="-1.246210">
        <ele>91.9</ele>
        <time>2016-05-14T09:23:41Z</time>
      </trkpt>
      <trkpt lat="38.077741" lon="-1.246296">
        <ele>91.5</ele>
        <time>2016-05-14T09:23:46Z</time>
      </trkpt>
      <trkpt lat="38.077763" lon="-1.246339">
        <ele>91.5</ele>
        <time>2016-05-14T09:23:49Z</time>
      </trkpt>
      <trkpt lat="38.077750" lon="-1.246466">
        <ele>91.5</ele>
        <time>2016-05-14T09:23:56Z</time>
      </trkpt>
      <trkpt lat="38.077822" lon="-1.246653">
        <ele>92.9</ele>
        <time>2016-05-14T09:24:07Z</time>
      </trkpt>
      <trkpt lat="38.077858" lon="-1.246783">
        <ele>92.4</ele>
        <time>2016-05-14T09:24:16Z</time>
      </trkpt>
      <trkpt lat="38.077900" lon="-1.246976">
        <ele>92.4</ele>
        <time>2016-05-14T09:24:29Z</time>
      </trkpt>
      <trkpt lat="38.077954" lon="-1.247175">
        <ele>93.4</ele>
        <time>2016-05-14T09:24:42Z</time>
      </trkpt>
      <trkpt lat="38.078005" lon="-1.247346">
        <ele>94.3</ele>
        <time>2016-05-14T09:24:52Z</time>
      </trkpt>
      <trkpt lat="38.078110" lon="-1.247631">
        <ele>95.3</ele>
        <time>2016-05-14T09:25:10Z</time>
      </trkpt>
      <trkpt lat="38.078212" lon="-1.247843">
        <ele>95.8</ele>
        <time>2016-05-14T09:25:25Z</time>
      </trkpt>
      <trkpt lat="38.078334" lon="-1.248085">
        <ele>97.7</ele>
        <time>2016-05-14T09:25:44Z</time>
      </trkpt>
      <trkpt lat="38.078337" lon="-1.248098">
        <ele>97.7</ele>
        <time>2016-05-14T09:25:45Z</time>
      </trkpt>
      <trkpt lat="38.078420" lon="-1.248257">
        <ele>97.7</ele>
        <time>2016-05-14T09:25:58Z</time>
      </trkpt>
      <trkpt lat="38.078683" lon="-1.248734">
        <ele>98.7</ele>
        <time>2016-05-14T09:26:38Z</time>
      </trkpt>
      <trkpt lat="38.078700" lon="-1.248778">
        <ele>100.1</ele>
        <time>2016-05-14T09:26:41Z</time>
      </trkpt>
      <trkpt lat="38.078793" lon="-1.248910">
        <ele>98.2</ele>
        <time>2016-05-14T09:26:51Z</time>
      </trkpt>
      <trkpt lat="38.078868" lon="-1.249047">
        <ele>100.6</ele>
        <time>2016-05-14T09:27:02Z</time>
      </trkpt>
      <trkpt lat="38.078924" lon="-1.249115">
        <ele>100.6</ele>
        <time>2016-05-14T09:27:08Z</time>
      </trkpt>
      <trkpt lat="38.078986" lon="-1.249148">
        <ele>101.1</ele>
        <time>2016-05-14T09:27:15Z</time>
      </trkpt>
      <trkpt lat="38.079127" lon="-1.249267">
        <ele>100.6</ele>
        <time>2016-05-14T09:27:28Z</time>
      </trkpt>
      <trkpt lat="38.079667" lon="-1.250456">
        <ele>97.2</ele>
        <time>2016-05-14T09:28:46Z</time>
      </trkpt>
      <trkpt lat="38.079714" lon="-1.250612">
        <ele>98.7</ele>
        <time>2016-05-14T09:29:00Z</time>
      </trkpt>
      <trkpt lat="38.079716" lon="-1.250624">
        <ele>98.2</ele>
        <time>2016-05-14T09:29:01Z</time>
      </trkpt>
      <trkpt lat="38.079765" lon="-1.250798">
        <ele>98.7</ele>
        <time>2016-05-14T09:29:11Z</time>
      </trkpt>
      <trkpt lat="38.079835" lon="-1.250900">
        <ele>98.2</ele>
        <time>2016-05-14T09:29:18Z</time>
      </trkpt>
      <trkpt lat="38.079876" lon="-1.250973">
        <ele>98.2</ele>
        <time>2016-05-14T09:29:23Z</time>
      </trkpt>
      <trkpt lat="38.079981" lon="-1.251190">
        <ele>97.7</ele>
        <time>2016-05-14T09:29:38Z</time>
      </trkpt>
      <trkpt lat="38.080035" lon="-1.251299">
        <ele>97.2</ele>
        <time>2016-05-14T09:29:46Z</time>
      </trkpt>
      <trkpt lat="38.080102" lon="-1.251561">
        <ele>97.2</ele>
        <time>2016-05-14T09:29:59Z</time>
      </trkpt>
      <trkpt lat="38.080215" lon="-1.251768">
        <ele>98.2</ele>
        <time>2016-05-14T09:30:15Z</time>
      </trkpt>
      <trkpt lat="38.080236" lon="-1.251839">
        <ele>98.2</ele>
        <time>2016-05-14T09:30:20Z</time>
      </trkpt>
      <trkpt lat="38.080333" lon="-1.252008">
        <ele>97.7</ele>
        <time>2016-05-14T09:30:35Z</time>
      </trkpt>
      <trkpt lat="38.080336" lon="-1.252013">
        <ele>97.7</ele>
        <time>2016-05-14T09:30:38Z</time>
      </trkpt>
      <trkpt lat="38.080382" lon="-1.252062">
        <ele>96.8</ele>
        <time>2016-05-14T09:30:44Z</time>
      </trkpt>
      <trkpt lat="38.080437" lon="-1.252179">
        <ele>96.3</ele>
        <time>2016-05-14T09:30:52Z</time>
      </trkpt>
      <trkpt lat="38.080541" lon="-1.252324">
        <ele>96.3</ele>
        <time>2016-05-14T09:31:03Z</time>
      </trkpt>
      <trkpt lat="38.080628" lon="-1.252542">
        <ele>97.7</ele>
        <time>2016-05-14T09:31:16Z</time>
      </trkpt>
      <trkpt lat="38.080725" lon="-1.252749">
        <ele>97.7</ele>
        <time>2016-05-14T09:31:29Z</time>
      </trkpt>
      <trkpt lat="38.080766" lon="-1.252804">
        <ele>97.7</ele>
        <time>2016-05-14T09:31:33Z</time>
      </trkpt>
      <trkpt lat="38.080897" lon="-1.252992">
        <ele>96.8</ele>
        <time>2016-05-14T09:31:46Z</time>
      </trkpt>
      <trkpt lat="38.081027" lon="-1.253115">
        <ele>96.3</ele>
        <time>2016-05-14T09:31:59Z</time>
      </trkpt>
      <trkpt lat="38.081037" lon="-1.253102">
        <ele>96.8</ele>
        <time>2016-05-14T09:32:01Z</time>
      </trkpt>
      <trkpt lat="38.081129" lon="-1.253299">
        <ele>96.8</ele>
        <time>2016-05-14T09:32:15Z</time>
      </trkpt>
      <trkpt lat="38.081189" lon="-1.253537">
        <ele>95.3</ele>
        <time>2016-05-14T09:32:31Z</time>
      </trkpt>
      <trkpt lat="38.081221" lon="-1.253696">
        <ele>95.8</ele>
        <time>2016-05-14T09:32:45Z</time>
      </trkpt>
      <trkpt lat="38.081240" lon="-1.253844">
        <ele>96.3</ele>
        <time>2016-05-14T09:32:57Z</time>
      </trkpt>
      <trkpt lat="38.081279" lon="-1.253921">
        <ele>96.8</ele>
        <time>2016-05-14T09:32:58Z</time>
      </trkpt>
      <trkpt lat="38.081334" lon="-1.253961">
        <ele>96.8</ele>
        <time>2016-05-14T09:33:12Z</time>
      </trkpt>
      <trkpt lat="38.081375" lon="-1.254015">
        <ele>97.2</ele>
        <time>2016-05-14T09:33:23Z</time>
      </trkpt>
      <trkpt lat="38.081406" lon="-1.254043">
        <ele>96.8</ele>
        <time>2016-05-14T09:33:26Z</time>
      </trkpt>
      <trkpt lat="38.081454" lon="-1.254076">
        <ele>96.3</ele>
        <time>2016-05-14T09:33:30Z</time>
      </trkpt>
      <trkpt lat="38.081521" lon="-1.254128">
        <ele>96.3</ele>
        <time>2016-05-14T09:33:46Z</time>
      </trkpt>
      <trkpt lat="38.081584" lon="-1.254185">
        <ele>96.3</ele>
        <time>2016-05-14T09:33:59Z</time>
      </trkpt>
      <trkpt lat="38.081635" lon="-1.254233">
        <ele>96.3</ele>
        <time>2016-05-14T09:35:38Z</time>
      </trkpt>
      <trkpt lat="38.081697" lon="-1.254300">
        <ele>95.8</ele>
        <time>2016-05-14T09:35:49Z</time>
      </trkpt>
      <trkpt lat="38.081732" lon="-1.254341">
        <ele>94.8</ele>
        <time>2016-05-14T09:35:52Z</time>
      </trkpt>
      <trkpt lat="38.081744" lon="-1.254393">
        <ele>94.8</ele>
        <time>2016-05-14T09:36:08Z</time>
      </trkpt>
      <trkpt lat="38.081815" lon="-1.254476">
        <ele>94.8</ele>
        <time>2016-05-14T09:37:24Z</time>
      </trkpt>
      <trkpt lat="38.081789" lon="-1.254482">
        <ele>94.3</ele>
        <time>2016-05-14T09:37:49Z</time>
      </trkpt>
      <trkpt lat="38.081767" lon="-1.254544">
        <ele>95.8</ele>
        <time>2016-05-14T09:39:30Z</time>
      </trkpt>
      <trkpt lat="38.081317" lon="-1.255285">
        <ele>97.0</ele>
        <time>2016-05-14T10:02:38Z</time>
      </trkpt>
      <trkpt lat="38.081188" lon="-1.256000">
        <ele>98.0</ele>
        <time>2016-05-14T10:03:30Z</time>
      </trkpt>
      <trkpt lat="38.080936" lon="-1.256855">
        <ele>99.0</ele>
        <time>2016-05-14T10:04:54Z</time>
      </trkpt>
      <trkpt lat="38.081034" lon="-1.257248">
        <ele>100.0</ele>
        <time>2016-05-14T10:05:51Z</time>
      </trkpt>
      <trkpt lat="38.081261" lon="-1.258274">
        <ele>100.0</ele>
        <time>2016-05-14T10:07:20Z</time>
      </trkpt>
      <trkpt lat="38.081436" lon="-1.258455">
        <ele>100.1</ele>
        <time>2016-05-14T10:07:35Z</time>
      </trkpt>
      <trkpt lat="38.081542" lon="-1.258674">
        <ele>99.6</ele>
        <time>2016-05-14T10:07:50Z</time>
      </trkpt>
      <trkpt lat="38.081785" lon="-1.258612">
        <ele>100.6</ele>
        <time>2016-05-14T10:08:08Z</time>
      </trkpt>
      <trkpt lat="38.081972" lon="-1.258537">
        <ele>100.1</ele>
        <time>2016-05-14T10:08:24Z</time>
      </trkpt>
      <trkpt lat="38.082153" lon="-1.258469">
        <ele>100.1</ele>
        <time>2016-05-14T10:08:40Z</time>
      </trkpt>
      <trkpt lat="38.082238" lon="-1.258394">
        <ele>100.1</ele>
        <time>2016-05-14T10:08:53Z</time>
      </trkpt>
      <trkpt lat="38.082288" lon="-1.258408">
        <ele>100.1</ele>
        <time>2016-05-14T10:09:00Z</time>
      </trkpt>
      <trkpt lat="38.082377" lon="-1.258396">
        <ele>99.6</ele>
        <time>2016-05-14T10:09:13Z</time>
      </trkpt>
      <trkpt lat="38.082688" lon="-1.258244">
        <ele>99.2</ele>
        <time>2016-05-14T10:09:36Z</time>
      </trkpt>
      <trkpt lat="38.082964" lon="-1.258173">
        <ele>99.6</ele>
        <time>2016-05-14T10:09:56Z</time>
      </trkpt>
      <trkpt lat="38.082974" lon="-1.258172">
        <ele>99.6</ele>
        <time>2016-05-14T10:09:57Z</time>
      </trkpt>
      <trkpt lat="38.083019" lon="-1.258153">
        <ele>99.2</ele>
        <time>2016-05-14T10:10:01Z</time>
      </trkpt>
      <trkpt lat="38.083098" lon="-1.258140">
        <ele>99.2</ele>
        <time>2016-05-14T10:10:08Z</time>
      </trkpt>
      <trkpt lat="38.083118" lon="-1.258134">
        <ele>99.2</ele>
        <time>2016-05-14T10:10:10Z</time>
      </trkpt>
      <trkpt lat="38.083148" lon="-1.258132">
        <ele>99.2</ele>
        <time>2016-05-14T10:10:13Z</time>
      </trkpt>
      <trkpt lat="38.083377" lon="-1.258087">
        <ele>99.6</ele>
        <time>2016-05-14T10:10:32Z</time>
      </trkpt>
      <trkpt lat="38.083556" lon="-1.258035">
        <ele>99.2</ele>
        <time>2016-05-14T10:10:47Z</time>
      </trkpt>
      <trkpt lat="38.083624" lon="-1.258023">
        <ele>99.2</ele>
        <time>2016-05-14T10:10:53Z</time>
      </trkpt>
      <trkpt lat="38.083683" lon="-1.258001">
        <ele>98.7</ele>
        <time>2016-05-14T10:10:58Z</time>
      </trkpt>
      <trkpt lat="38.083746" lon="-1.257999">
        <ele>98.2</ele>
        <time>2016-05-14T10:11:03Z</time>
      </trkpt>
      <trkpt lat="38.083787" lon="-1.257998">
        <ele>98.7</ele>
        <time>2016-05-14T10:11:07Z</time>
      </trkpt>
      <trkpt lat="38.084039" lon="-1.257957">
        <ele>99.2</ele>
        <time>2016-05-14T10:11:26Z</time>
      </trkpt>
      <trkpt lat="38.084141" lon="-1.257960">
        <ele>98.7</ele>
        <time>2016-05-14T10:11:34Z</time>
      </trkpt>
      <trkpt lat="38.084369" lon="-1.257910">
        <ele>99.2</ele>
        <time>2016-05-14T10:11:53Z</time>
      </trkpt>
      <trkpt lat="38.084570" lon="-1.257873">
        <ele>98.7</ele>
        <time>2016-05-14T10:12:10Z</time>
      </trkpt>
      <trkpt lat="38.084615" lon="-1.257865">
        <ele>98.7</ele>
        <time>2016-05-14T10:12:14Z</time>
      </trkpt>
      <trkpt lat="38.084775" lon="-1.257841">
        <ele>98.2</ele>
        <time>2016-05-14T10:12:28Z</time>
      </trkpt>
      <trkpt lat="38.084953" lon="-1.257848">
        <ele>97.7</ele>
        <time>2016-05-14T10:12:43Z</time>
      </trkpt>
      <trkpt lat="38.085160" lon="-1.257868">
        <ele>95.8</ele>
        <time>2016-05-14T10:13:00Z</time>
      </trkpt>
      <trkpt lat="38.085377" lon="-1.257862">
        <ele>94.8</ele>
        <time>2016-05-14T10:13:17Z</time>
      </trkpt>
      <trkpt lat="38.085566" lon="-1.257846">
        <ele>95.3</ele>
        <time>2016-05-14T10:13:30Z</time>
      </trkpt>
      <trkpt lat="38.085666" lon="-1.257849">
        <ele>97.2</ele>
        <time>2016-05-14T10:13:39Z</time>
      </trkpt>
      <trkpt lat="38.085845" lon="-1.257881">
        <ele>97.7</ele>
        <time>2016-05-14T10:13:54Z</time>
      </trkpt>
      <trkpt lat="38.085866" lon="-1.257892">
        <ele>97.7</ele>
        <time>2016-05-14T10:13:56Z</time>
      </trkpt>
      <trkpt lat="38.086030" lon="-1.257942">
        <ele>97.2</ele>
        <time>2016-05-14T10:14:10Z</time>
      </trkpt>
      <trkpt lat="38.086276" lon="-1.258022">
        <ele>96.8</ele>
        <time>2016-05-14T10:14:29Z</time>
      </trkpt>
      <trkpt lat="38.086306" lon="-1.258036">
        <ele>96.8</ele>
        <time>2016-05-14T10:14:32Z</time>
      </trkpt>
      <trkpt lat="38.086495" lon="-1.258091">
        <ele>96.8</ele>
        <time>2016-05-14T10:14:48Z</time>
      </trkpt>
      <trkpt lat="38.086683" lon="-1.258158">
        <ele>96.3</ele>
        <time>2016-05-14T10:15:04Z</time>
      </trkpt>
      <trkpt lat="38.086873" lon="-1.258237">
        <ele>96.3</ele>
        <time>2016-05-14T10:15:20Z</time>
      </trkpt>
      <trkpt lat="38.087059" lon="-1.258351">
        <ele>96.3</ele>
        <time>2016-05-14T10:15:37Z</time>
      </trkpt>
      <trkpt lat="38.087231" lon="-1.258454">
        <ele>96.3</ele>
        <time>2016-05-14T10:15:52Z</time>
      </trkpt>
      <trkpt lat="38.087389" lon="-1.258634">
        <ele>96.3</ele>
        <time>2016-05-14T10:16:09Z</time>
      </trkpt>
      <trkpt lat="38.087509" lon="-1.258828">
        <ele>95.8</ele>
        <time>2016-05-14T10:16:24Z</time>
      </trkpt>
      <trkpt lat="38.087584" lon="-1.258981">
        <ele>95.8</ele>
        <time>2016-05-14T10:16:38Z</time>
      </trkpt>
      <trkpt lat="38.087590" lon="-1.258986">
        <ele>95.8</ele>
        <time>2016-05-14T10:16:40Z</time>
      </trkpt>
      <trkpt lat="38.087623" lon="-1.259033">
        <ele>95.8</ele>
        <time>2016-05-14T10:16:44Z</time>
      </trkpt>
      <trkpt lat="38.087644" lon="-1.259112">
        <ele>95.8</ele>
        <time>2016-05-14T10:16:49Z</time>
      </trkpt>
      <trkpt lat="38.087736" lon="-1.259343">
        <ele>95.8</ele>
        <time>2016-05-14T10:17:05Z</time>
      </trkpt>
      <trkpt lat="38.087830" lon="-1.259562">
        <ele>95.8</ele>
        <time>2016-05-14T10:17:23Z</time>
      </trkpt>
      <trkpt lat="38.087909" lon="-1.259718">
        <ele>95.8</ele>
        <time>2016-05-14T10:17:35Z</time>
      </trkpt>
      <trkpt lat="38.088028" lon="-1.260006">
        <ele>94.8</ele>
        <time>2016-05-14T10:17:55Z</time>
      </trkpt>
      <trkpt lat="38.088123" lon="-1.260286">
        <ele>95.8</ele>
        <time>2016-05-14T10:18:14Z</time>
      </trkpt>
      <trkpt lat="38.088225" lon="-1.260552">
        <ele>94.8</ele>
        <time>2016-05-14T10:18:32Z</time>
      </trkpt>
      <trkpt lat="38.088297" lon="-1.260828">
        <ele>94.8</ele>
        <time>2016-05-14T10:18:50Z</time>
      </trkpt>
      <trkpt lat="38.088338" lon="-1.261073">
        <ele>94.8</ele>
        <time>2016-05-14T10:19:05Z</time>
      </trkpt>
      <trkpt lat="38.088353" lon="-1.261220">
        <ele>95.3</ele>
        <time>2016-05-14T10:19:15Z</time>
      </trkpt>
      <trkpt lat="38.088385" lon="-1.261474">
        <ele>94.8</ele>
        <time>2016-05-14T10:19:31Z</time>
      </trkpt>
      <trkpt lat="38.088395" lon="-1.261528">
        <ele>94.8</ele>
        <time>2016-05-14T10:19:34Z</time>
      </trkpt>
      <trkpt lat="38.088414" lon="-1.261755">
        <ele>94.8</ele>
        <time>2016-05-14T10:19:49Z</time>
      </trkpt>
      <trkpt lat="38.088437" lon="-1.261828">
        <ele>94.3</ele>
        <time>2016-05-14T10:19:54Z</time>
      </trkpt>
      <trkpt lat="38.088495" lon="-1.262072">
        <ele>95.3</ele>
        <time>2016-05-14T10:20:10Z</time>
      </trkpt>
      <trkpt lat="38.088563" lon="-1.262310">
        <ele>94.8</ele>
        <time>2016-05-14T10:20:25Z</time>
      </trkpt>
      <trkpt lat="38.088645" lon="-1.262518">
        <ele>94.3</ele>
        <time>2016-05-14T10:20:40Z</time>
      </trkpt>
      <trkpt lat="38.088816" lon="-1.262799">
        <ele>94.3</ele>
        <time>2016-05-14T10:21:01Z</time>
      </trkpt>
      <trkpt lat="38.088921" lon="-1.262948">
        <ele>94.3</ele>
        <time>2016-05-14T10:21:16Z</time>
      </trkpt>
      <trkpt lat="38.088936" lon="-1.262957">
        <ele>94.8</ele>
        <time>2016-05-14T10:21:18Z</time>
      </trkpt>
      <trkpt lat="38.089085" lon="-1.263171">
        <ele>94.3</ele>
        <time>2016-05-14T10:21:35Z</time>
      </trkpt>
      <trkpt lat="38.089227" lon="-1.263357">
        <ele>94.3</ele>
        <time>2016-05-14T10:21:51Z</time>
      </trkpt>
      <trkpt lat="38.089386" lon="-1.263519">
        <ele>93.9</ele>
        <time>2016-05-14T10:22:07Z</time>
      </trkpt>
      <trkpt lat="38.089561" lon="-1.263709">
        <ele>93.9</ele>
        <time>2016-05-14T10:22:25Z</time>
      </trkpt>
      <trkpt lat="38.089720" lon="-1.263892">
        <ele>94.3</ele>
        <time>2016-05-14T10:22:42Z</time>
      </trkpt>
      <trkpt lat="38.089881" lon="-1.264081">
        <ele>94.8</ele>
        <time>2016-05-14T10:22:59Z</time>
      </trkpt>
      <trkpt lat="38.090029" lon="-1.264247">
        <ele>94.3</ele>
        <time>2016-05-14T10:23:15Z</time>
      </trkpt>
      <trkpt lat="38.090050" lon="-1.264255">
        <ele>93.9</ele>
        <time>2016-05-14T10:23:17Z</time>
      </trkpt>
      <trkpt lat="38.090102" lon="-1.264297">
        <ele>93.9</ele>
        <time>2016-05-14T10:23:22Z</time>
      </trkpt>
      <trkpt lat="38.090341" lon="-1.264457">
        <ele>94.8</ele>
        <time>2016-05-14T10:23:43Z</time>
      </trkpt>
      <trkpt lat="38.090462" lon="-1.264439">
        <ele>94.8</ele>
        <time>2016-05-14T10:23:54Z</time>
      </trkpt>
      <trkpt lat="38.090654" lon="-1.264299">
        <ele>94.3</ele>
        <time>2016-05-14T10:24:12Z</time>
      </trkpt>
      <trkpt lat="38.090701" lon="-1.264260">
        <ele>93.9</ele>
        <time>2016-05-14T10:24:17Z</time>
      </trkpt>
      <trkpt lat="38.090841" lon="-1.264107">
        <ele>94.8</ele>
        <time>2016-05-14T10:24:33Z</time>
      </trkpt>
      <trkpt lat="38.090955" lon="-1.263983">
        <ele>93.4</ele>
        <time>2016-05-14T10:24:46Z</time>
      </trkpt>
      <trkpt lat="38.091102" lon="-1.263825">
        <ele>93.9</ele>
        <time>2016-05-14T10:25:02Z</time>
      </trkpt>
      <trkpt lat="38.091244" lon="-1.263684">
        <ele>93.9</ele>
        <time>2016-05-14T10:25:17Z</time>
      </trkpt>
      <trkpt lat="38.091392" lon="-1.263545">
        <ele>94.3</ele>
        <time>2016-05-14T10:25:32Z</time>
      </trkpt>
      <trkpt lat="38.091507" lon="-1.263461">
        <ele>94.3</ele>
        <time>2016-05-14T10:25:43Z</time>
      </trkpt>
      <trkpt lat="38.091542" lon="-1.263415">
        <ele>94.3</ele>
        <time>2016-05-14T10:25:47Z</time>
      </trkpt>
      <trkpt lat="38.091730" lon="-1.263305">
        <ele>93.9</ele>
        <time>2016-05-14T10:26:05Z</time>
      </trkpt>
      <trkpt lat="38.091914" lon="-1.263205">
        <ele>93.4</ele>
        <time>2016-05-14T10:26:22Z</time>
      </trkpt>
      <trkpt lat="38.092074" lon="-1.263102">
        <ele>93.4</ele>
        <time>2016-05-14T10:26:36Z</time>
      </trkpt>
      <trkpt lat="38.092246" lon="-1.262965">
        <ele>93.9</ele>
        <time>2016-05-14T10:26:52Z</time>
      </trkpt>
      <trkpt lat="38.092313" lon="-1.262820">
        <ele>93.9</ele>
        <time>2016-05-14T10:27:02Z</time>
      </trkpt>
      <trkpt lat="38.092386" lon="-1.262654">
        <ele>93.4</ele>
        <time>2016-05-14T10:27:14Z</time>
      </trkpt>
      <trkpt lat="38.092417" lon="-1.262548">
        <ele>93.4</ele>
        <time>2016-05-14T10:27:21Z</time>
      </trkpt>
      <trkpt lat="38.092515" lon="-1.262296">
        <ele>92.4</ele>
        <time>2016-05-14T10:27:38Z</time>
      </trkpt>
      <trkpt lat="38.092594" lon="-1.262087">
        <ele>93.4</ele>
        <time>2016-05-14T10:27:54Z</time>
      </trkpt>
      <trkpt lat="38.092593" lon="-1.261880">
        <ele>91.9</ele>
        <time>2016-05-14T10:28:08Z</time>
      </trkpt>
      <trkpt lat="38.092590" lon="-1.261752">
        <ele>91.0</ele>
        <time>2016-05-14T10:28:20Z</time>
      </trkpt>
      <trkpt lat="38.092742" lon="-1.261669">
        <ele>90.5</ele>
        <time>2016-05-14T10:28:34Z</time>
      </trkpt>
      <trkpt lat="38.092843" lon="-1.261574">
        <ele>91.5</ele>
        <time>2016-05-14T10:28:43Z</time>
      </trkpt>
      <trkpt lat="38.092863" lon="-1.261576">
        <ele>91.5</ele>
        <time>2016-05-14T10:28:46Z</time>
      </trkpt>
      <trkpt lat="38.092915" lon="-1.261535">
        <ele>91.0</ele>
        <time>2016-05-14T10:28:52Z</time>
      </trkpt>
      <trkpt lat="38.093031" lon="-1.261367">
        <ele>91.0</ele>
        <time>2016-05-14T10:29:07Z</time>
      </trkpt>
      <trkpt lat="38.093138" lon="-1.261201">
        <ele>90.5</ele>
        <time>2016-05-14T10:29:21Z</time>
      </trkpt>
      <trkpt lat="38.093206" lon="-1.261121">
        <ele>91.5</ele>
        <time>2016-05-14T10:29:29Z</time>
      </trkpt>
      <trkpt lat="38.093249" lon="-1.261104">
        <ele>91.5</ele>
        <time>2016-05-14T10:29:33Z</time>
      </trkpt>
      <trkpt lat="38.093392" lon="-1.261139">
        <ele>91.5</ele>
        <time>2016-05-14T10:29:45Z</time>
      </trkpt>
      <trkpt lat="38.093592" lon="-1.261281">
        <ele>91.0</ele>
        <time>2016-05-14T10:30:03Z</time>
      </trkpt>
      <trkpt lat="38.093673" lon="-1.261367">
        <ele>90.5</ele>
        <time>2016-05-14T10:30:11Z</time>
      </trkpt>
      <trkpt lat="38.093716" lon="-1.261395">
        <ele>91.5</ele>
        <time>2016-05-14T10:30:21Z</time>
      </trkpt>
      <trkpt lat="38.093873" lon="-1.261542">
        <ele>91.5</ele>
        <time>2016-05-14T10:30:36Z</time>
      </trkpt>
      <trkpt lat="38.094057" lon="-1.261726">
        <ele>91.9</ele>
        <time>2016-05-14T10:30:54Z</time>
      </trkpt>
      <trkpt lat="38.094075" lon="-1.261751">
        <ele>91.5</ele>
        <time>2016-05-14T10:30:57Z</time>
      </trkpt>
      <trkpt lat="38.094085" lon="-1.261774">
        <ele>91.5</ele>
        <time>2016-05-14T10:30:59Z</time>
      </trkpt>
      <trkpt lat="38.094301" lon="-1.261953">
        <ele>91.5</ele>
        <time>2016-05-14T10:31:17Z</time>
      </trkpt>
      <trkpt lat="38.094325" lon="-1.261933">
        <ele>91.5</ele>
        <time>2016-05-14T10:31:28Z</time>
      </trkpt>
      <trkpt lat="38.094354" lon="-1.261985">
        <ele>91.0</ele>
        <time>2016-05-14T10:31:53Z</time>
      </trkpt>
      <trkpt lat="38.094522" lon="-1.262154">
        <ele>91.5</ele>
        <time>2016-05-14T10:32:09Z</time>
      </trkpt>
      <trkpt lat="38.094539" lon="-1.262144">
        <ele>91.5</ele>
        <time>2016-05-14T10:32:20Z</time>
      </trkpt>
      <trkpt lat="38.094681" lon="-1.262295">
        <ele>91.0</ele>
        <time>2016-05-14T10:32:37Z</time>
      </trkpt>
      <trkpt lat="38.094685" lon="-1.262295">
        <ele>91.5</ele>
        <time>2016-05-14T10:32:39Z</time>
      </trkpt>
      <trkpt lat="38.094865" lon="-1.262626">
        <ele>91.5</ele>
        <time>2016-05-14T10:33:00Z</time>
      </trkpt>
      <trkpt lat="38.094993" lon="-1.262847">
        <ele>91.0</ele>
        <time>2016-05-14T10:33:15Z</time>
      </trkpt>
      <trkpt lat="38.095002" lon="-1.262856">
        <ele>90.5</ele>
        <time>2016-05-14T10:33:17Z</time>
      </trkpt>
      <trkpt lat="38.095021" lon="-1.262898">
        <ele>91.9</ele>
        <time>2016-05-14T10:33:21Z</time>
      </trkpt>
      <trkpt lat="38.095157" lon="-1.263134">
        <ele>91.5</ele>
        <time>2016-05-14T10:33:39Z</time>
      </trkpt>
      <trkpt lat="38.095239" lon="-1.263333">
        <ele>91.0</ele>
        <time>2016-05-14T10:33:53Z</time>
      </trkpt>
      <trkpt lat="38.095343" lon="-1.263616">
        <ele>91.5</ele>
        <time>2016-05-14T10:34:11Z</time>
      </trkpt>
      <trkpt lat="38.095435" lon="-1.263898">
        <ele>90.5</ele>
        <time>2016-05-14T10:34:29Z</time>
      </trkpt>
      <trkpt lat="38.095479" lon="-1.263970">
        <ele>90.0</ele>
        <time>2016-05-14T10:34:34Z</time>
      </trkpt>
      <trkpt lat="38.095598" lon="-1.264152">
        <ele>89.5</ele>
        <time>2016-05-14T10:34:49Z</time>
      </trkpt>
      <trkpt lat="38.095602" lon="-1.264148">
        <ele>89.5</ele>
        <time>2016-05-14T10:34:51Z</time>
      </trkpt>
      <trkpt lat="38.095666" lon="-1.264200">
        <ele>89.1</ele>
        <time>2016-05-14T10:34:56Z</time>
      </trkpt>
      <trkpt lat="38.095731" lon="-1.264284">
        <ele>89.1</ele>
        <time>2016-05-14T10:35:05Z</time>
      </trkpt>
      <trkpt lat="38.095762" lon="-1.264379">
        <ele>89.1</ele>
        <time>2016-05-14T10:35:12Z</time>
      </trkpt>
      <trkpt lat="38.095791" lon="-1.264454">
        <ele>89.1</ele>
        <time>2016-05-14T10:35:17Z</time>
      </trkpt>
      <trkpt lat="38.095847" lon="-1.264707">
        <ele>89.5</ele>
        <time>2016-05-14T10:35:34Z</time>
      </trkpt>
      <trkpt lat="38.095848" lon="-1.264723">
        <ele>89.1</ele>
        <time>2016-05-14T10:35:35Z</time>
      </trkpt>
      <trkpt lat="38.095896" lon="-1.264843">
        <ele>88.6</ele>
        <time>2016-05-14T10:35:43Z</time>
      </trkpt>
      <trkpt lat="38.095929" lon="-1.265142">
        <ele>89.1</ele>
        <time>2016-05-14T10:36:02Z</time>
      </trkpt>
      <trkpt lat="38.095946" lon="-1.265272">
        <ele>90.5</ele>
        <time>2016-05-14T10:36:10Z</time>
      </trkpt>
      <trkpt lat="38.095977" lon="-1.265443">
        <ele>90.0</ele>
        <time>2016-05-14T10:36:20Z</time>
      </trkpt>
      <trkpt lat="38.095968" lon="-1.265690">
        <ele>89.1</ele>
        <time>2016-05-14T10:36:37Z</time>
      </trkpt>
      <trkpt lat="38.095998" lon="-1.266035">
        <ele>89.1</ele>
        <time>2016-05-14T10:36:58Z</time>
      </trkpt>
      <trkpt lat="38.095997" lon="-1.266062">
        <ele>89.1</ele>
        <time>2016-05-14T10:37:00Z</time>
      </trkpt>
      <trkpt lat="38.095928" lon="-1.266265">
        <ele>89.1</ele>
        <time>2016-05-14T10:37:14Z</time>
      </trkpt>
      <trkpt lat="38.095874" lon="-1.266499">
        <ele>89.1</ele>
        <time>2016-05-14T10:37:30Z</time>
      </trkpt>
      <trkpt lat="38.095865" lon="-1.266528">
        <ele>88.6</ele>
        <time>2016-05-14T10:37:32Z</time>
      </trkpt>
      <trkpt lat="38.095841" lon="-1.266605">
        <ele>89.1</ele>
        <time>2016-05-14T10:37:37Z</time>
      </trkpt>
      <trkpt lat="38.095856" lon="-1.266999">
        <ele>89.1</ele>
        <time>2016-05-14T10:37:59Z</time>
      </trkpt>
      <trkpt lat="38.095823" lon="-1.267352">
        <ele>90.0</ele>
        <time>2016-05-14T10:38:19Z</time>
      </trkpt>
      <trkpt lat="38.095786" lon="-1.267619">
        <ele>91.0</ele>
        <time>2016-05-14T10:38:35Z</time>
      </trkpt>
      <trkpt lat="38.095794" lon="-1.267903">
        <ele>91.5</ele>
        <time>2016-05-14T10:38:52Z</time>
      </trkpt>
      <trkpt lat="38.095897" lon="-1.268209">
        <ele>91.5</ele>
        <time>2016-05-14T10:39:11Z</time>
      </trkpt>
      <trkpt lat="38.096022" lon="-1.268394">
        <ele>91.0</ele>
        <time>2016-05-14T10:39:27Z</time>
      </trkpt>
      <trkpt lat="38.096081" lon="-1.268355">
        <ele>90.5</ele>
        <time>2016-05-14T10:39:32Z</time>
      </trkpt>
      <trkpt lat="38.096224" lon="-1.268210">
        <ele>89.5</ele>
        <time>2016-05-14T10:39:46Z</time>
      </trkpt>
      <trkpt lat="38.096271" lon="-1.268285">
        <ele>90.0</ele>
        <time>2016-05-14T10:39:52Z</time>
      </trkpt>
      <trkpt lat="38.096295" lon="-1.268451">
        <ele>89.1</ele>
        <time>2016-05-14T10:40:05Z</time>
      </trkpt>
      <trkpt lat="38.096296" lon="-1.268475">
        <ele>89.1</ele>
        <time>2016-05-14T10:40:08Z</time>
      </trkpt>
      <trkpt lat="38.096302" lon="-1.268561">
        <ele>89.1</ele>
        <time>2016-05-14T10:40:14Z</time>
      </trkpt>
      <trkpt lat="38.096329" lon="-1.268688">
        <ele>89.5</ele>
        <time>2016-05-14T10:40:22Z</time>
      </trkpt>
      <trkpt lat="38.096421" lon="-1.268963">
        <ele>89.1</ele>
        <time>2016-05-14T10:40:40Z</time>
      </trkpt>
      <trkpt lat="38.096606" lon="-1.269157">
        <ele>89.5</ele>
        <time>2016-05-14T10:40:58Z</time>
      </trkpt>
      <trkpt lat="38.096815" lon="-1.269336">
        <ele>89.5</ele>
        <time>2016-05-14T10:41:17Z</time>
      </trkpt>
      <trkpt lat="38.096983" lon="-1.269493">
        <ele>89.5</ele>
        <time>2016-05-14T10:41:33Z</time>
      </trkpt>
      <trkpt lat="38.097010" lon="-1.269534">
        <ele>89.5</ele>
        <time>2016-05-14T10:41:36Z</time>
      </trkpt>
      <trkpt lat="38.097161" lon="-1.269659">
        <ele>89.1</ele>
        <time>2016-05-14T10:41:50Z</time>
      </trkpt>
      <trkpt lat="38.097379" lon="-1.269812">
        <ele>89.1</ele>
        <time>2016-05-14T10:42:09Z</time>
      </trkpt>
      <trkpt lat="38.097604" lon="-1.269901">
        <ele>89.5</ele>
        <time>2016-05-14T10:42:27Z</time>
      </trkpt>
      <trkpt lat="38.097856" lon="-1.269964">
        <ele>89.5</ele>
        <time>2016-05-14T10:42:46Z</time>
      </trkpt>
      <trkpt lat="38.098088" lon="-1.270011">
        <ele>89.5</ele>
        <time>2016-05-14T10:43:04Z</time>
      </trkpt>
      <trkpt lat="38.098308" lon="-1.270064">
        <ele>88.6</ele>
        <time>2016-05-14T10:43:21Z</time>
      </trkpt>
      <trkpt lat="38.098530" lon="-1.270076">
        <ele>89.1</ele>
        <time>2016-05-14T10:43:39Z</time>
      </trkpt>
      <trkpt lat="38.098718" lon="-1.270046">
        <ele>89.1</ele>
        <time>2016-05-14T10:43:54Z</time>
      </trkpt>
      <trkpt lat="38.098897" lon="-1.269944">
        <ele>89.1</ele>
        <time>2016-05-14T10:44:08Z</time>
      </trkpt>
      <trkpt lat="38.099106" lon="-1.269854">
        <ele>89.1</ele>
        <time>2016-05-14T10:44:25Z</time>
      </trkpt>
      <trkpt lat="38.099308" lon="-1.269790">
        <ele>89.5</ele>
        <time>2016-05-14T10:44:42Z</time>
      </trkpt>
      <trkpt lat="38.099528" lon="-1.269781">
        <ele>89.5</ele>
        <time>2016-05-14T10:44:59Z</time>
      </trkpt>
      <trkpt lat="38.099611" lon="-1.269793">
        <ele>89.5</ele>
        <time>2016-05-14T10:45:07Z</time>
      </trkpt>
      <trkpt lat="38.099695" lon="-1.269794">
        <ele>89.5</ele>
        <time>2016-05-14T10:45:13Z</time>
      </trkpt>
      <trkpt lat="38.099932" lon="-1.269820">
        <ele>89.5</ele>
        <time>2016-05-14T10:45:31Z</time>
      </trkpt>
      <trkpt lat="38.100171" lon="-1.269855">
        <ele>89.5</ele>
        <time>2016-05-14T10:45:49Z</time>
      </trkpt>
      <trkpt lat="38.100377" lon="-1.269910">
        <ele>89.5</ele>
        <time>2016-05-14T10:46:05Z</time>
      </trkpt>
      <trkpt lat="38.100606" lon="-1.269976">
        <ele>89.1</ele>
        <time>2016-05-14T10:46:23Z</time>
      </trkpt>
      <trkpt lat="38.100812" lon="-1.270032">
        <ele>89.1</ele>
        <time>2016-05-14T10:46:40Z</time>
      </trkpt>
      <trkpt lat="38.101056" lon="-1.270117">
        <ele>89.1</ele>
        <time>2016-05-14T10:46:58Z</time>
      </trkpt>
      <trkpt lat="38.101272" lon="-1.270207">
        <ele>89.1</ele>
        <time>2016-05-14T10:47:15Z</time>
      </trkpt>
      <trkpt lat="38.101511" lon="-1.270295">
        <ele>89.5</ele>
        <time>2016-05-14T10:47:34Z</time>
      </trkpt>
      <trkpt lat="38.101721" lon="-1.270389">
        <ele>88.6</ele>
        <time>2016-05-14T10:47:52Z</time>
      </trkpt>
      <trkpt lat="38.101790" lon="-1.270424">
        <ele>88.6</ele>
        <time>2016-05-14T10:47:58Z</time>
      </trkpt>
      <trkpt lat="38.101972" lon="-1.270516">
        <ele>89.1</ele>
        <time>2016-05-14T10:48:14Z</time>
      </trkpt>
      <trkpt lat="38.102185" lon="-1.270655">
        <ele>89.5</ele>
        <time>2016-05-14T10:48:32Z</time>
      </trkpt>
      <trkpt lat="38.102272" lon="-1.270736">
        <ele>89.5</ele>
        <time>2016-05-14T10:48:40Z</time>
      </trkpt>
      <trkpt lat="38.102497" lon="-1.270875">
        <ele>89.1</ele>
        <time>2016-05-14T10:48:59Z</time>
      </trkpt>
      <trkpt lat="38.102602" lon="-1.270974">
        <ele>89.1</ele>
        <time>2016-05-14T10:49:09Z</time>
      </trkpt>
      <trkpt lat="38.102652" lon="-1.270993">
        <ele>89.1</ele>
        <time>2016-05-14T10:49:14Z</time>
      </trkpt>
      <trkpt lat="38.102838" lon="-1.271134">
        <ele>89.1</ele>
        <time>2016-05-14T10:49:31Z</time>
      </trkpt>
      <trkpt lat="38.103034" lon="-1.271320">
        <ele>87.6</ele>
        <time>2016-05-14T10:49:49Z</time>
      </trkpt>
      <trkpt lat="38.103246" lon="-1.271524">
        <ele>89.5</ele>
        <time>2016-05-14T10:50:09Z</time>
      </trkpt>
      <trkpt lat="38.103455" lon="-1.271709">
        <ele>88.1</ele>
        <time>2016-05-14T10:50:27Z</time>
      </trkpt>
      <trkpt lat="38.103608" lon="-1.271812">
        <ele>88.6</ele>
        <time>2016-05-14T10:50:43Z</time>
      </trkpt>
      <trkpt lat="38.103783" lon="-1.271938">
        <ele>88.6</ele>
        <time>2016-05-14T10:50:58Z</time>
      </trkpt>
      <trkpt lat="38.103880" lon="-1.271981">
        <ele>89.1</ele>
        <time>2016-05-14T10:51:06Z</time>
      </trkpt>
      <trkpt lat="38.103901" lon="-1.271988">
        <ele>88.6</ele>
        <time>2016-05-14T10:51:08Z</time>
      </trkpt>
      <trkpt lat="38.104125" lon="-1.272221">
        <ele>88.6</ele>
        <time>2016-05-14T10:51:28Z</time>
      </trkpt>
      <trkpt lat="38.104248" lon="-1.272484">
        <ele>88.6</ele>
        <time>2016-05-14T10:51:46Z</time>
      </trkpt>
      <trkpt lat="38.104287" lon="-1.272833">
        <ele>88.6</ele>
        <time>2016-05-14T10:52:06Z</time>
      </trkpt>
      <trkpt lat="38.104288" lon="-1.273158">
        <ele>88.6</ele>
        <time>2016-05-14T10:52:25Z</time>
      </trkpt>
      <trkpt lat="38.104299" lon="-1.273514">
        <ele>88.6</ele>
        <time>2016-05-14T10:52:45Z</time>
      </trkpt>
      <trkpt lat="38.104302" lon="-1.273696">
        <ele>88.1</ele>
        <time>2016-05-14T10:53:00Z</time>
      </trkpt>
      <trkpt lat="38.104306" lon="-1.273938">
        <ele>88.6</ele>
        <time>2016-05-14T10:53:15Z</time>
      </trkpt>
      <trkpt lat="38.104316" lon="-1.274224">
        <ele>88.6</ele>
        <time>2016-05-14T10:53:32Z</time>
      </trkpt>
      <trkpt lat="38.104336" lon="-1.274504">
        <ele>89.1</ele>
        <time>2016-05-14T10:53:48Z</time>
      </trkpt>
      <trkpt lat="38.104333" lon="-1.274548">
        <ele>89.5</ele>
        <time>2016-05-14T10:53:51Z</time>
      </trkpt>
      <trkpt lat="38.104331" lon="-1.274579">
        <ele>89.5</ele>
        <time>2016-05-14T10:53:53Z</time>
      </trkpt>
      <trkpt lat="38.104382" lon="-1.274923">
        <ele>89.5</ele>
        <time>2016-05-14T10:54:13Z</time>
      </trkpt>
      <trkpt lat="38.104427" lon="-1.275168">
        <ele>89.5</ele>
        <time>2016-05-14T10:54:27Z</time>
      </trkpt>
      <trkpt lat="38.104441" lon="-1.275226">
        <ele>88.6</ele>
        <time>2016-05-14T10:54:31Z</time>
      </trkpt>
      <trkpt lat="38.104442" lon="-1.275350">
        <ele>88.6</ele>
        <time>2016-05-14T10:54:43Z</time>
      </trkpt>
      <trkpt lat="38.104411" lon="-1.275662">
        <ele>89.1</ele>
        <time>2016-05-14T10:55:00Z</time>
      </trkpt>
      <trkpt lat="38.104409" lon="-1.275830">
        <ele>89.1</ele>
        <time>2016-05-14T10:55:09Z</time>
      </trkpt>
      <trkpt lat="38.104351" lon="-1.276051">
        <ele>88.6</ele>
        <time>2016-05-14T10:55:24Z</time>
      </trkpt>
      <trkpt lat="38.104272" lon="-1.276367">
        <ele>89.1</ele>
        <time>2016-05-14T10:55:43Z</time>
      </trkpt>
      <trkpt lat="38.104265" lon="-1.276391">
        <ele>89.5</ele>
        <time>2016-05-14T10:55:45Z</time>
      </trkpt>
      <trkpt lat="38.104195" lon="-1.276723">
        <ele>89.5</ele>
        <time>2016-05-14T10:56:05Z</time>
      </trkpt>
      <trkpt lat="38.104096" lon="-1.277007">
        <ele>89.5</ele>
        <time>2016-05-14T10:56:23Z</time>
      </trkpt>
      <trkpt lat="38.104011" lon="-1.277241">
        <ele>91.0</ele>
        <time>2016-05-14T10:56:39Z</time>
      </trkpt>
      <trkpt lat="38.103874" lon="-1.277537">
        <ele>90.5</ele>
        <time>2016-05-14T10:56:59Z</time>
      </trkpt>
      <trkpt lat="38.103874" lon="-1.277549">
        <ele>89.5</ele>
        <time>2016-05-14T10:57:13Z</time>
      </trkpt>
      <trkpt lat="38.103839" lon="-1.277607">
        <ele>89.5</ele>
        <time>2016-05-14T10:57:28Z</time>
      </trkpt>
      <trkpt lat="38.103794" lon="-1.277676">
        <ele>90.0</ele>
        <time>2016-05-14T10:57:34Z</time>
      </trkpt>
      <trkpt lat="38.103609" lon="-1.277864">
        <ele>89.5</ele>
        <time>2016-05-14T10:57:53Z</time>
      </trkpt>
      <trkpt lat="38.103484" lon="-1.278065">
        <ele>90.5</ele>
        <time>2016-05-14T10:58:08Z</time>
      </trkpt>
      <trkpt lat="38.103369" lon="-1.278316">
        <ele>90.5</ele>
        <time>2016-05-14T10:58:25Z</time>
      </trkpt>
      <trkpt lat="38.103363" lon="-1.278329">
        <ele>90.5</ele>
        <time>2016-05-14T10:58:26Z</time>
      </trkpt>
      <trkpt lat="38.103318" lon="-1.278514">
        <ele>90.0</ele>
        <time>2016-05-14T10:58:37Z</time>
      </trkpt>
      <trkpt lat="38.103247" lon="-1.278799">
        <ele>90.0</ele>
        <time>2016-05-14T10:58:55Z</time>
      </trkpt>
      <trkpt lat="38.103216" lon="-1.279047">
        <ele>88.1</ele>
        <time>2016-05-14T10:59:10Z</time>
      </trkpt>
      <trkpt lat="38.103209" lon="-1.279167">
        <ele>89.1</ele>
        <time>2016-05-14T10:59:17Z</time>
      </trkpt>
      <trkpt lat="38.103211" lon="-1.279212">
        <ele>88.6</ele>
        <time>2016-05-14T10:59:20Z</time>
      </trkpt>
      <trkpt lat="38.103195" lon="-1.279288">
        <ele>89.5</ele>
        <time>2016-05-14T10:59:24Z</time>
      </trkpt>
      <trkpt lat="38.103194" lon="-1.279320">
        <ele>89.1</ele>
        <time>2016-05-14T10:59:26Z</time>
      </trkpt>
      <trkpt lat="38.103177" lon="-1.279414">
        <ele>88.6</ele>
        <time>2016-05-14T10:59:33Z</time>
      </trkpt>
      <trkpt lat="38.103123" lon="-1.279588">
        <ele>88.6</ele>
        <time>2016-05-14T10:59:44Z</time>
      </trkpt>
      <trkpt lat="38.103062" lon="-1.279783">
        <ele>88.6</ele>
        <time>2016-05-14T10:59:59Z</time>
      </trkpt>
      <trkpt lat="38.103005" lon="-1.279990">
        <ele>88.1</ele>
        <time>2016-05-14T11:00:14Z</time>
      </trkpt>
      <trkpt lat="38.102934" lon="-1.280274">
        <ele>88.1</ele>
        <time>2016-05-14T11:00:31Z</time>
      </trkpt>
      <trkpt lat="38.102919" lon="-1.280382">
        <ele>88.6</ele>
        <time>2016-05-14T11:00:37Z</time>
      </trkpt>
      <trkpt lat="38.102879" lon="-1.280622">
        <ele>90.0</ele>
        <time>2016-05-14T11:00:51Z</time>
      </trkpt>
      <trkpt lat="38.102847" lon="-1.280874">
        <ele>90.0</ele>
        <time>2016-05-14T11:01:06Z</time>
      </trkpt>
      <trkpt lat="38.102778" lon="-1.281228">
        <ele>89.1</ele>
        <time>2016-05-14T11:01:26Z</time>
      </trkpt>
      <trkpt lat="38.102746" lon="-1.281378">
        <ele>89.5</ele>
        <time>2016-05-14T11:01:37Z</time>
      </trkpt>
      <trkpt lat="38.102709" lon="-1.281716">
        <ele>89.5</ele>
        <time>2016-05-14T11:01:57Z</time>
      </trkpt>
      <trkpt lat="38.102701" lon="-1.281744">
        <ele>90.0</ele>
        <time>2016-05-14T11:01:59Z</time>
      </trkpt>
      <trkpt lat="38.102703" lon="-1.281831">
        <ele>90.0</ele>
        <time>2016-05-14T11:02:04Z</time>
      </trkpt>
      <trkpt lat="38.102700" lon="-1.281883">
        <ele>89.5</ele>
        <time>2016-05-14T11:02:07Z</time>
      </trkpt>
      <trkpt lat="38.102698" lon="-1.281905">
        <ele>90.0</ele>
        <time>2016-05-14T11:02:09Z</time>
      </trkpt>
      <trkpt lat="38.102690" lon="-1.282166">
        <ele>89.5</ele>
        <time>2016-05-14T11:02:26Z</time>
      </trkpt>
      <trkpt lat="38.102710" lon="-1.282322">
        <ele>90.0</ele>
        <time>2016-05-14T11:02:37Z</time>
      </trkpt>
      <trkpt lat="38.102713" lon="-1.282380">
        <ele>89.5</ele>
        <time>2016-05-14T11:02:41Z</time>
      </trkpt>
      <trkpt lat="38.102787" lon="-1.282707">
        <ele>89.5</ele>
        <time>2016-05-14T11:03:01Z</time>
      </trkpt>
      <trkpt lat="38.102795" lon="-1.282745">
        <ele>89.1</ele>
        <time>2016-05-14T11:03:04Z</time>
      </trkpt>
      <trkpt lat="38.102799" lon="-1.282794">
        <ele>89.1</ele>
        <time>2016-05-14T11:03:08Z</time>
      </trkpt>
      <trkpt lat="38.102820" lon="-1.282839">
        <ele>90.0</ele>
        <time>2016-05-14T11:03:13Z</time>
      </trkpt>
      <trkpt lat="38.102852" lon="-1.283071">
        <ele>89.1</ele>
        <time>2016-05-14T11:03:27Z</time>
      </trkpt>
      <trkpt lat="38.102879" lon="-1.283202">
        <ele>89.1</ele>
        <time>2016-05-14T11:03:38Z</time>
      </trkpt>
      <trkpt lat="38.102913" lon="-1.283515">
        <ele>89.1</ele>
        <time>2016-05-14T11:03:56Z</time>
      </trkpt>
      <trkpt lat="38.102928" lon="-1.283776">
        <ele>88.6</ele>
        <time>2016-05-14T11:04:11Z</time>
      </trkpt>
      <trkpt lat="38.102953" lon="-1.283839">
        <ele>89.1</ele>
        <time>2016-05-14T11:04:17Z</time>
      </trkpt>
      <trkpt lat="38.103005" lon="-1.283875">
        <ele>88.1</ele>
        <time>2016-05-14T11:04:22Z</time>
      </trkpt>
      <trkpt lat="38.103088" lon="-1.283922">
        <ele>89.5</ele>
        <time>2016-05-14T11:04:30Z</time>
      </trkpt>
      <trkpt lat="38.103130" lon="-1.283933">
        <ele>90.0</ele>
        <time>2016-05-14T11:04:34Z</time>
      </trkpt>
      <trkpt lat="38.103173" lon="-1.284017">
        <ele>90.0</ele>
        <time>2016-05-14T11:04:47Z</time>
      </trkpt>
      <trkpt lat="38.103168" lon="-1.284020">
        <ele>90.5</ele>
        <time>2016-05-14T11:04:53Z</time>
      </trkpt>
      <trkpt lat="38.103396" lon="-1.284151">
        <ele>89.5</ele>
        <time>2016-05-14T11:05:10Z</time>
      </trkpt>
      <trkpt lat="38.103612" lon="-1.284247">
        <ele>88.6</ele>
        <time>2016-05-14T11:05:27Z</time>
      </trkpt>
      <trkpt lat="38.103769" lon="-1.284337">
        <ele>89.1</ele>
        <time>2016-05-14T11:05:41Z</time>
      </trkpt>
      <trkpt lat="38.103974" lon="-1.284457">
        <ele>89.1</ele>
        <time>2016-05-14T11:05:59Z</time>
      </trkpt>
      <trkpt lat="38.104067" lon="-1.284507">
        <ele>89.5</ele>
        <time>2016-05-14T11:06:07Z</time>
      </trkpt>
      <trkpt lat="38.104247" lon="-1.284614">
        <ele>89.1</ele>
        <time>2016-05-14T11:06:23Z</time>
      </trkpt>
      <trkpt lat="38.104327" lon="-1.284653">
        <ele>89.5</ele>
        <time>2016-05-14T11:06:29Z</time>
      </trkpt>
      <trkpt lat="38.104379" lon="-1.284677">
        <ele>89.5</ele>
        <time>2016-05-14T11:06:33Z</time>
      </trkpt>
      <trkpt lat="38.104588" lon="-1.284800">
        <ele>89.5</ele>
        <time>2016-05-14T11:06:50Z</time>
      </trkpt>
      <trkpt lat="38.104763" lon="-1.284894">
        <ele>89.5</ele>
        <time>2016-05-14T11:07:05Z</time>
      </trkpt>
      <trkpt lat="38.104956" lon="-1.285018">
        <ele>89.5</ele>
        <time>2016-05-14T11:07:21Z</time>
      </trkpt>
      <trkpt lat="38.105100" lon="-1.285220">
        <ele>91.0</ele>
        <time>2016-05-14T11:07:39Z</time>
      </trkpt>
      <trkpt lat="38.105154" lon="-1.285363">
        <ele>92.4</ele>
        <time>2016-05-14T11:07:49Z</time>
      </trkpt>
      <trkpt lat="38.105178" lon="-1.285415">
        <ele>92.9</ele>
        <time>2016-05-14T11:07:53Z</time>
      </trkpt>
      <trkpt lat="38.105186" lon="-1.285435">
        <ele>93.4</ele>
        <time>2016-05-14T11:07:55Z</time>
      </trkpt>
      <trkpt lat="38.105236" lon="-1.285527">
        <ele>93.4</ele>
        <time>2016-05-14T11:08:02Z</time>
      </trkpt>
      <trkpt lat="38.105367" lon="-1.285676">
        <ele>94.3</ele>
        <time>2016-05-14T11:08:17Z</time>
      </trkpt>
      <trkpt lat="38.105378" lon="-1.285680">
        <ele>93.9</ele>
        <time>2016-05-14T11:08:18Z</time>
      </trkpt>
      <trkpt lat="38.105392" lon="-1.285699">
        <ele>94.3</ele>
        <time>2016-05-14T11:08:20Z</time>
      </trkpt>
      <trkpt lat="38.105457" lon="-1.285739">
        <ele>93.9</ele>
        <time>2016-05-14T11:08:26Z</time>
      </trkpt>
      <trkpt lat="38.105595" lon="-1.285861">
        <ele>95.3</ele>
        <time>2016-05-14T11:08:41Z</time>
      </trkpt>
      <trkpt lat="38.105759" lon="-1.286079">
        <ele>95.3</ele>
        <time>2016-05-14T11:08:58Z</time>
      </trkpt>
      <trkpt lat="38.105841" lon="-1.286232">
        <ele>95.8</ele>
        <time>2016-05-14T11:09:09Z</time>
      </trkpt>
      <trkpt lat="38.105856" lon="-1.286276">
        <ele>96.3</ele>
        <time>2016-05-14T11:09:12Z</time>
      </trkpt>
      <trkpt lat="38.105945" lon="-1.286381">
        <ele>98.2</ele>
        <time>2016-05-14T11:09:22Z</time>
      </trkpt>
      <trkpt lat="38.105986" lon="-1.286433">
        <ele>97.7</ele>
        <time>2016-05-14T11:09:27Z</time>
      </trkpt>
      <trkpt lat="38.106087" lon="-1.286488">
        <ele>98.7</ele>
        <time>2016-05-14T11:09:36Z</time>
      </trkpt>
      <trkpt lat="38.106215" lon="-1.286575">
        <ele>100.6</ele>
        <time>2016-05-14T11:09:48Z</time>
      </trkpt>
      <trkpt lat="38.106270" lon="-1.286590">
        <ele>100.6</ele>
        <time>2016-05-14T11:09:58Z</time>
      </trkpt>
      <trkpt lat="38.106289" lon="-1.286611">
        <ele>100.1</ele>
        <time>2016-05-14T11:10:01Z</time>
      </trkpt>
      <trkpt lat="38.106343" lon="-1.286611">
        <ele>101.1</ele>
        <time>2016-05-14T11:10:06Z</time>
      </trkpt>
      <trkpt lat="38.106490" lon="-1.286641">
        <ele>102.0</ele>
        <time>2016-05-14T11:10:20Z</time>
      </trkpt>
      <trkpt lat="38.106563" lon="-1.286651">
        <ele>102.0</ele>
        <time>2016-05-14T11:12:56Z</time>
      </trkpt>
      <trkpt lat="38.106674" lon="-1.286744">
        <ele>104.9</ele>
        <time>2016-05-14T11:17:01Z</time>
      </trkpt>
      <trkpt lat="38.106795" lon="-1.286792">
        <ele>105.9</ele>
        <time>2016-05-14T11:17:12Z</time>
      </trkpt>
      <trkpt lat="38.106943" lon="-1.286819">
        <ele>106.4</ele>
        <time>2016-05-14T11:17:23Z</time>
      </trkpt>
      <trkpt lat="38.107078" lon="-1.286810">
        <ele>109.7</ele>
        <time>2016-05-14T11:17:34Z</time>
      </trkpt>
      <trkpt lat="38.107086" lon="-1.286805">
        <ele>109.2</ele>
        <time>2016-05-14T11:17:48Z</time>
      </trkpt>
      <trkpt lat="38.107102" lon="-1.286812">
        <ele>109.7</ele>
        <time>2016-05-14T11:17:53Z</time>
      </trkpt>
      <trkpt lat="38.107152" lon="-1.286820">
        <ele>110.7</ele>
        <time>2016-05-14T11:17:57Z</time>
      </trkpt>
      <trkpt lat="38.107284" lon="-1.286866">
        <ele>111.7</ele>
        <time>2016-05-14T11:18:11Z</time>
      </trkpt>
      <trkpt lat="38.107290" lon="-1.286864">
        <ele>111.7</ele>
        <time>2016-05-14T11:18:20Z</time>
      </trkpt>
      <trkpt lat="38.107357" lon="-1.286927">
        <ele>111.7</ele>
        <time>2016-05-14T11:18:26Z</time>
      </trkpt>
      <trkpt lat="38.107489" lon="-1.286880">
        <ele>113.6</ele>
        <time>2016-05-14T11:18:37Z</time>
      </trkpt>
      <trkpt lat="38.107591" lon="-1.286930">
        <ele>114.1</ele>
        <time>2016-05-14T11:18:44Z</time>
      </trkpt>
      <trkpt lat="38.107608" lon="-1.286937">
        <ele>115.0</ele>
        <time>2016-05-14T11:18:46Z</time>
      </trkpt>
      <trkpt lat="38.107720" lon="-1.286979">
        <ele>116.9</ele>
        <time>2016-05-14T11:19:00Z</time>
      </trkpt>
      <trkpt lat="38.107758" lon="-1.286990">
        <ele>116.9</ele>
        <time>2016-05-14T11:19:04Z</time>
      </trkpt>
      <trkpt lat="38.107840" lon="-1.286986">
        <ele>119.3</ele>
        <time>2016-05-14T11:19:12Z</time>
      </trkpt>
      <trkpt lat="38.107888" lon="-1.287006">
        <ele>119.3</ele>
        <time>2016-05-14T11:19:15Z</time>
      </trkpt>
      <trkpt lat="38.107917" lon="-1.287005">
        <ele>119.3</ele>
        <time>2016-05-14T11:19:17Z</time>
      </trkpt>
      <trkpt lat="38.108108" lon="-1.287008">
        <ele>121.7</ele>
        <time>2016-05-14T11:19:31Z</time>
      </trkpt>
      <trkpt lat="38.108297" lon="-1.286944">
        <ele>121.7</ele>
        <time>2016-05-14T11:19:46Z</time>
      </trkpt>
      <trkpt lat="38.108403" lon="-1.286956">
        <ele>122.2</ele>
        <time>2016-05-14T11:19:54Z</time>
      </trkpt>
      <trkpt lat="38.108520" lon="-1.287208">
        <ele>121.7</ele>
        <time>2016-05-14T11:20:11Z</time>
      </trkpt>
      <trkpt lat="38.108624" lon="-1.287445">
        <ele>122.7</ele>
        <time>2016-05-14T11:20:27Z</time>
      </trkpt>
      <trkpt lat="38.108757" lon="-1.287630">
        <ele>123.2</ele>
        <time>2016-05-14T11:20:42Z</time>
      </trkpt>
      <trkpt lat="38.108850" lon="-1.287668">
        <ele>124.2</ele>
        <time>2016-05-14T11:20:50Z</time>
      </trkpt>
      <trkpt lat="38.108892" lon="-1.287686">
        <ele>124.2</ele>
        <time>2016-05-14T11:20:53Z</time>
      </trkpt>
      <trkpt lat="38.109083" lon="-1.287629">
        <ele>125.6</ele>
        <time>2016-05-14T11:21:07Z</time>
      </trkpt>
      <trkpt lat="38.109227" lon="-1.287579">
        <ele>129.9</ele>
        <time>2016-05-14T11:21:20Z</time>
      </trkpt>
      <trkpt lat="38.109273" lon="-1.287594">
        <ele>128.0</ele>
        <time>2016-05-14T11:21:24Z</time>
      </trkpt>
      <trkpt lat="38.109302" lon="-1.287671">
        <ele>128.5</ele>
        <time>2016-05-14T11:21:29Z</time>
      </trkpt>
      <trkpt lat="38.109371" lon="-1.287900">
        <ele>130.9</ele>
        <time>2016-05-14T11:21:45Z</time>
      </trkpt>
      <trkpt lat="38.109383" lon="-1.287912">
        <ele>130.4</ele>
        <time>2016-05-14T11:21:46Z</time>
      </trkpt>
      <trkpt lat="38.109505" lon="-1.287973">
        <ele>131.8</ele>
        <time>2016-05-14T11:21:59Z</time>
      </trkpt>
      <trkpt lat="38.109697" lon="-1.288025">
        <ele>131.4</ele>
        <time>2016-05-14T11:22:17Z</time>
      </trkpt>
      <trkpt lat="38.109844" lon="-1.288047">
        <ele>131.4</ele>
        <time>2016-05-14T11:22:30Z</time>
      </trkpt>
      <trkpt lat="38.110013" lon="-1.288068">
        <ele>130.4</ele>
        <time>2016-05-14T11:22:44Z</time>
      </trkpt>
      <trkpt lat="38.110059" lon="-1.288081">
        <ele>130.9</ele>
        <time>2016-05-14T11:22:48Z</time>
      </trkpt>
      <trkpt lat="38.110085" lon="-1.288091">
        <ele>130.9</ele>
        <time>2016-05-14T11:22:50Z</time>
      </trkpt>
      <trkpt lat="38.110299" lon="-1.288108">
        <ele>129.4</ele>
        <time>2016-05-14T11:23:06Z</time>
      </trkpt>
      <trkpt lat="38.110307" lon="-1.288113">
        <ele>129.4</ele>
        <time>2016-05-14T11:23:07Z</time>
      </trkpt>
      <trkpt lat="38.110356" lon="-1.288121">
        <ele>129.9</ele>
        <time>2016-05-14T11:23:11Z</time>
      </trkpt>
      <trkpt lat="38.110560" lon="-1.288131">
        <ele>128.5</ele>
        <time>2016-05-14T11:23:29Z</time>
      </trkpt>
      <trkpt lat="38.110601" lon="-1.288125">
        <ele>127.5</ele>
        <time>2016-05-14T11:23:33Z</time>
      </trkpt>
      <trkpt lat="38.110622" lon="-1.288132">
        <ele>127.0</ele>
        <time>2016-05-14T11:23:35Z</time>
      </trkpt>
      <trkpt lat="38.110810" lon="-1.288121">
        <ele>127.0</ele>
        <time>2016-05-14T11:23:51Z</time>
      </trkpt>
      <trkpt lat="38.110889" lon="-1.288130">
        <ele>127.0</ele>
        <time>2016-05-14T11:24:09Z</time>
      </trkpt>
      <trkpt lat="38.110961" lon="-1.288153">
        <ele>125.1</ele>
        <time>2016-05-14T11:24:19Z</time>
      </trkpt>
      <trkpt lat="38.110975" lon="-1.288157">
        <ele>128.9</ele>
        <time>2016-05-14T11:24:20Z</time>
      </trkpt>
      <trkpt lat="38.110987" lon="-1.288161">
        <ele>125.1</ele>
        <time>2016-05-14T11:24:21Z</time>
      </trkpt>
      <trkpt lat="38.111000" lon="-1.288162">
        <ele>128.5</ele>
        <time>2016-05-14T11:24:22Z</time>
      </trkpt>
      <trkpt lat="38.111190" lon="-1.288212">
        <ele>127.5</ele>
        <time>2016-05-14T11:24:38Z</time>
      </trkpt>
      <trkpt lat="38.111343" lon="-1.288253">
        <ele>127.5</ele>
        <time>2016-05-14T11:24:50Z</time>
      </trkpt>
      <trkpt lat="38.111487" lon="-1.288310">
        <ele>128.0</ele>
        <time>2016-05-14T11:25:04Z</time>
      </trkpt>
      <trkpt lat="38.111622" lon="-1.288349">
        <ele>128.0</ele>
        <time>2016-05-14T11:25:16Z</time>
      </trkpt>
      <trkpt lat="38.111712" lon="-1.288360">
        <ele>128.5</ele>
        <time>2016-05-14T11:25:26Z</time>
      </trkpt>
      <trkpt lat="38.111763" lon="-1.288340">
        <ele>128.9</ele>
        <time>2016-05-14T11:25:30Z</time>
      </trkpt>
      <trkpt lat="38.111843" lon="-1.288340">
        <ele>129.4</ele>
        <time>2016-05-14T11:25:34Z</time>
      </trkpt>
      <trkpt lat="38.112110" lon="-1.288074">
        <ele>127.5</ele>
        <time>2016-05-14T11:25:51Z</time>
      </trkpt>
      <trkpt lat="38.112180" lon="-1.288011">
        <ele>128.0</ele>
        <time>2016-05-14T11:26:07Z</time>
      </trkpt>
      <trkpt lat="38.112278" lon="-1.287970">
        <ele>128.5</ele>
        <time>2016-05-14T11:26:20Z</time>
      </trkpt>
      <trkpt lat="38.112487" lon="-1.287900">
        <ele>127.5</ele>
        <time>2016-05-14T11:26:36Z</time>
      </trkpt>
      <trkpt lat="38.112674" lon="-1.287839">
        <ele>127.0</ele>
        <time>2016-05-14T11:26:53Z</time>
      </trkpt>
      <trkpt lat="38.112854" lon="-1.287817">
        <ele>127.0</ele>
        <time>2016-05-14T11:27:07Z</time>
      </trkpt>
      <trkpt lat="38.112951" lon="-1.287903">
        <ele>127.0</ele>
        <time>2016-05-14T11:27:16Z</time>
      </trkpt>
      <trkpt lat="38.113019" lon="-1.287905">
        <ele>127.0</ele>
        <time>2016-05-14T11:27:23Z</time>
      </trkpt>
      <trkpt lat="38.113072" lon="-1.288018">
        <ele>127.0</ele>
        <time>2016-05-14T11:27:30Z</time>
      </trkpt>
      <trkpt lat="38.113037" lon="-1.288337">
        <ele>127.0</ele>
        <time>2016-05-14T11:27:48Z</time>
      </trkpt>
      <trkpt lat="38.113017" lon="-1.288460">
        <ele>128.0</ele>
        <time>2016-05-14T11:27:56Z</time>
      </trkpt>
      <trkpt lat="38.113012" lon="-1.288724">
        <ele>128.0</ele>
        <time>2016-05-14T11:28:12Z</time>
      </trkpt>
      <trkpt lat="38.113102" lon="-1.289014">
        <ele>128.9</ele>
        <time>2016-05-14T11:28:30Z</time>
      </trkpt>
      <trkpt lat="38.113272" lon="-1.289196">
        <ele>128.9</ele>
        <time>2016-05-14T11:28:46Z</time>
      </trkpt>
      <trkpt lat="38.113421" lon="-1.289333">
        <ele>128.9</ele>
        <time>2016-05-14T11:29:00Z</time>
      </trkpt>
      <trkpt lat="38.113530" lon="-1.289407">
        <ele>129.4</ele>
        <time>2016-05-14T11:29:10Z</time>
      </trkpt>
      <trkpt lat="38.113606" lon="-1.289410">
        <ele>128.5</ele>
        <time>2016-05-14T11:29:17Z</time>
      </trkpt>
      <trkpt lat="38.113768" lon="-1.289478">
        <ele>126.1</ele>
        <time>2016-05-14T11:29:35Z</time>
      </trkpt>
      <trkpt lat="38.113804" lon="-1.289507">
        <ele>126.6</ele>
        <time>2016-05-14T11:29:48Z</time>
      </trkpt>
      <trkpt lat="38.113850" lon="-1.289523">
        <ele>125.6</ele>
        <time>2016-05-14T11:29:52Z</time>
      </trkpt>
      <trkpt lat="38.113905" lon="-1.289535">
        <ele>124.6</ele>
        <time>2016-05-14T11:29:57Z</time>
      </trkpt>
      <trkpt lat="38.113983" lon="-1.289581">
        <ele>124.2</ele>
        <time>2016-05-14T11:30:05Z</time>
      </trkpt>
      <trkpt lat="38.114153" lon="-1.289666">
        <ele>120.8</ele>
        <time>2016-05-14T11:30:20Z</time>
      </trkpt>
      <trkpt lat="38.114261" lon="-1.289716">
        <ele>117.9</ele>
        <time>2016-05-14T11:30:30Z</time>
      </trkpt>
      <trkpt lat="38.114357" lon="-1.289789">
        <ele>116.9</ele>
        <time>2016-05-14T11:30:40Z</time>
      </trkpt>
      <trkpt lat="38.114491" lon="-1.289826">
        <ele>114.1</ele>
        <time>2016-05-14T11:30:53Z</time>
      </trkpt>
      <trkpt lat="38.114575" lon="-1.289847">
        <ele>111.7</ele>
        <time>2016-05-14T11:31:01Z</time>
      </trkpt>
      <trkpt lat="38.114736" lon="-1.289941">
        <ele>111.2</ele>
        <time>2016-05-14T11:31:15Z</time>
      </trkpt>
      <trkpt lat="38.114875" lon="-1.289995">
        <ele>110.7</ele>
        <time>2016-05-14T11:31:29Z</time>
      </trkpt>
      <trkpt lat="38.114981" lon="-1.290028">
        <ele>110.7</ele>
        <time>2016-05-14T11:31:35Z</time>
      </trkpt>
      <trkpt lat="38.114995" lon="-1.290079">
        <ele>109.7</ele>
        <time>2016-05-14T11:31:39Z</time>
      </trkpt>
      <trkpt lat="38.115072" lon="-1.290130">
        <ele>110.2</ele>
        <time>2016-05-14T11:31:46Z</time>
      </trkpt>
      <trkpt lat="38.115211" lon="-1.290174">
        <ele>110.7</ele>
        <time>2016-05-14T11:31:58Z</time>
      </trkpt>
      <trkpt lat="38.115295" lon="-1.290227">
        <ele>110.7</ele>
        <time>2016-05-14T11:32:07Z</time>
      </trkpt>
      <trkpt lat="38.115469" lon="-1.290289">
        <ele>110.7</ele>
        <time>2016-05-14T11:32:21Z</time>
      </trkpt>
      <trkpt lat="38.115576" lon="-1.290424">
        <ele>110.7</ele>
        <time>2016-05-14T11:32:33Z</time>
      </trkpt>
      <trkpt lat="38.115450" lon="-1.290997">
        <ele>109.7</ele>
        <time>2016-05-14T11:33:34Z</time>
      </trkpt>
      <trkpt lat="38.115443" lon="-1.291025">
        <ele>109.2</ele>
        <time>2016-05-14T11:33:37Z</time>
      </trkpt>
      <trkpt lat="38.115269" lon="-1.291838">
        <ele>107.3</ele>
        <time>2016-05-14T11:34:26Z</time>
      </trkpt>
      <trkpt lat="38.115246" lon="-1.291974">
        <ele>108.3</ele>
        <time>2016-05-14T11:34:36Z</time>
      </trkpt>
      <trkpt lat="38.115245" lon="-1.292013">
        <ele>108.3</ele>
        <time>2016-05-14T11:34:39Z</time>
      </trkpt>
      <trkpt lat="38.115219" lon="-1.292150">
        <ele>107.8</ele>
        <time>2016-05-14T11:34:57Z</time>
      </trkpt>
      <trkpt lat="38.115183" lon="-1.292437">
        <ele>108.3</ele>
        <time>2016-05-14T11:36:00Z</time>
      </trkpt>
      <trkpt lat="38.115162" lon="-1.292498">
        <ele>107.8</ele>
        <time>2016-05-14T11:36:29Z</time>
      </trkpt>
      <trkpt lat="38.115144" lon="-1.292552">
        <ele>107.8</ele>
        <time>2016-05-14T11:36:33Z</time>
      </trkpt>
      <trkpt lat="38.115092" lon="-1.292779">
        <ele>107.3</ele>
        <time>2016-05-14T11:36:49Z</time>
      </trkpt>
      <trkpt lat="38.115091" lon="-1.292810">
        <ele>107.3</ele>
        <time>2016-05-14T11:36:51Z</time>
      </trkpt>
      <trkpt lat="38.115071" lon="-1.292911">
        <ele>107.3</ele>
        <time>2016-05-14T11:37:03Z</time>
      </trkpt>
      <trkpt lat="38.115073" lon="-1.292959">
        <ele>107.8</ele>
        <time>2016-05-14T11:37:17Z</time>
      </trkpt>
      <trkpt lat="38.115081" lon="-1.293001">
        <ele>107.8</ele>
        <time>2016-05-14T11:37:29Z</time>
      </trkpt>
      <trkpt lat="38.115058" lon="-1.293160">
        <ele>107.3</ele>
        <time>2016-05-14T11:37:42Z</time>
      </trkpt>
      <trkpt lat="38.115077" lon="-1.293612">
        <ele>108.3</ele>
        <time>2016-05-14T11:39:01Z</time>
      </trkpt>
      <trkpt lat="38.115077" lon="-1.293641">
        <ele>108.3</ele>
        <time>2016-05-14T11:39:47Z</time>
      </trkpt>
      <trkpt lat="38.115078" lon="-1.293667">
        <ele>107.8</ele>
        <time>2016-05-14T11:39:49Z</time>
      </trkpt>
      <trkpt lat="38.115071" lon="-1.293996">
        <ele>107.8</ele>
        <time>2016-05-14T11:40:06Z</time>
      </trkpt>
      <trkpt lat="38.115061" lon="-1.294114">
        <ele>107.3</ele>
        <time>2016-05-14T11:40:22Z</time>
      </trkpt>
      <trkpt lat="38.115069" lon="-1.294192">
        <ele>107.3</ele>
        <time>2016-05-14T11:40:38Z</time>
      </trkpt>
      <trkpt lat="38.115083" lon="-1.294549">
        <ele>106.8</ele>
        <time>2016-05-14T11:41:14Z</time>
      </trkpt>
      <trkpt lat="38.115073" lon="-1.294820">
        <ele>106.8</ele>
        <time>2016-05-14T11:41:59Z</time>
      </trkpt>
      <trkpt lat="38.115079" lon="-1.294862">
        <ele>107.8</ele>
        <time>2016-05-14T11:42:02Z</time>
      </trkpt>
      <trkpt lat="38.115143" lon="-1.295035">
        <ele>107.3</ele>
        <time>2016-05-14T11:42:14Z</time>
      </trkpt>
      <trkpt lat="38.115154" lon="-1.295062">
        <ele>107.3</ele>
        <time>2016-05-14T11:42:22Z</time>
      </trkpt>
      <trkpt lat="38.115192" lon="-1.295070">
        <ele>106.8</ele>
        <time>2016-05-14T11:42:35Z</time>
      </trkpt>
      <trkpt lat="38.115193" lon="-1.295079">
        <ele>106.4</ele>
        <time>2016-05-14T11:42:44Z</time>
      </trkpt>
      <trkpt lat="38.115430" lon="-1.295046">
        <ele>103.0</ele>
        <time>2016-05-14T11:43:00Z</time>
      </trkpt>
      <trkpt lat="38.115474" lon="-1.295013">
        <ele>102.5</ele>
        <time>2016-05-14T11:43:12Z</time>
      </trkpt>
      <trkpt lat="38.115474" lon="-1.294994">
        <ele>102.5</ele>
        <time>2016-05-14T11:43:16Z</time>
      </trkpt>
      <trkpt lat="38.115311" lon="-1.294943">
        <ele>101.6</ele>
        <time>2016-05-14T11:43:28Z</time>
      </trkpt>
      <trkpt lat="38.115271" lon="-1.294919">
        <ele>101.6</ele>
        <time>2016-05-14T11:43:36Z</time>
      </trkpt>
      <trkpt lat="38.115233" lon="-1.294822">
        <ele>101.1</ele>
        <time>2016-05-14T11:44:08Z</time>
      </trkpt>
      <trkpt lat="38.115222" lon="-1.294575">
        <ele>100.1</ele>
        <time>2016-05-14T11:45:08Z</time>
      </trkpt>
      <trkpt lat="38.115240" lon="-1.294537">
        <ele>100.1</ele>
        <time>2016-05-14T11:45:18Z</time>
      </trkpt>
      <trkpt lat="38.115288" lon="-1.294493">
        <ele>100.1</ele>
        <time>2016-05-14T11:45:31Z</time>
      </trkpt>
      <trkpt lat="38.115449" lon="-1.294398">
        <ele>100.1</ele>
        <time>2016-05-14T11:45:44Z</time>
      </trkpt>
      <trkpt lat="38.115646" lon="-1.294258">
        <ele>100.1</ele>
        <time>2016-05-14T11:46:00Z</time>
      </trkpt>
      <trkpt lat="38.115650" lon="-1.294253">
        <ele>99.6</ele>
        <time>2016-05-14T11:46:01Z</time>
      </trkpt>
      <trkpt lat="38.115668" lon="-1.294245">
        <ele>100.1</ele>
        <time>2016-05-14T11:46:03Z</time>
      </trkpt>
      <trkpt lat="38.115717" lon="-1.294214">
        <ele>100.1</ele>
        <time>2016-05-14T11:46:07Z</time>
      </trkpt>
      <trkpt lat="38.115858" lon="-1.294136">
        <ele>100.1</ele>
        <time>2016-05-14T11:46:18Z</time>
      </trkpt>
      <trkpt lat="38.116029" lon="-1.294013">
        <ele>99.6</ele>
        <time>2016-05-14T11:46:33Z</time>
      </trkpt>
      <trkpt lat="38.116155" lon="-1.293911">
        <ele>100.1</ele>
        <time>2016-05-14T11:46:47Z</time>
      </trkpt>
      <trkpt lat="38.116284" lon="-1.293840">
        <ele>100.1</ele>
        <time>2016-05-14T11:47:01Z</time>
      </trkpt>
      <trkpt lat="38.116437" lon="-1.293745">
        <ele>100.6</ele>
        <time>2016-05-14T11:47:17Z</time>
      </trkpt>
      <trkpt lat="38.116638" lon="-1.293650">
        <ele>101.6</ele>
        <time>2016-05-14T11:47:33Z</time>
      </trkpt>
      <trkpt lat="38.116663" lon="-1.293642">
        <ele>102.0</ele>
        <time>2016-05-14T11:47:35Z</time>
      </trkpt>
      <trkpt lat="38.116866" lon="-1.293519">
        <ele>101.6</ele>
        <time>2016-05-14T11:47:54Z</time>
      </trkpt>
      <trkpt lat="38.116876" lon="-1.293519">
        <ele>101.1</ele>
        <time>2016-05-14T11:47:55Z</time>
      </trkpt>
      <trkpt lat="38.117024" lon="-1.293466">
        <ele>101.6</ele>
        <time>2016-05-14T11:48:08Z</time>
      </trkpt>
      <trkpt lat="38.117242" lon="-1.293373">
        <ele>102.0</ele>
        <time>2016-05-14T11:48:26Z</time>
      </trkpt>
      <trkpt lat="38.117464" lon="-1.293242">
        <ele>102.0</ele>
        <time>2016-05-14T11:48:45Z</time>
      </trkpt>
      <trkpt lat="38.117491" lon="-1.293222">
        <ele>101.6</ele>
        <time>2016-05-14T11:48:48Z</time>
      </trkpt>
      <trkpt lat="38.117700" lon="-1.293127">
        <ele>101.6</ele>
        <time>2016-05-14T11:49:07Z</time>
      </trkpt>
      <trkpt lat="38.117771" lon="-1.293095">
        <ele>101.6</ele>
        <time>2016-05-14T11:49:13Z</time>
      </trkpt>
      <trkpt lat="38.118035" lon="-1.292995">
        <ele>101.6</ele>
        <time>2016-05-14T11:49:35Z</time>
      </trkpt>
      <trkpt lat="38.118193" lon="-1.292934">
        <ele>101.6</ele>
        <time>2016-05-14T11:49:49Z</time>
      </trkpt>
      <trkpt lat="38.118255" lon="-1.292908">
        <ele>101.6</ele>
        <time>2016-05-14T11:49:58Z</time>
      </trkpt>
      <trkpt lat="38.118505" lon="-1.292910">
        <ele>101.1</ele>
        <time>2016-05-14T11:50:17Z</time>
      </trkpt>
      <trkpt lat="38.118701" lon="-1.292940">
        <ele>102.0</ele>
        <time>2016-05-14T11:50:34Z</time>
      </trkpt>
      <trkpt lat="38.118898" lon="-1.292961">
        <ele>101.1</ele>
        <time>2016-05-14T11:50:51Z</time>
      </trkpt>
      <trkpt lat="38.119044" lon="-1.292983">
        <ele>101.6</ele>
        <time>2016-05-14T11:51:06Z</time>
      </trkpt>
      <trkpt lat="38.119284" lon="-1.293017">
        <ele>100.6</ele>
        <time>2016-05-14T11:51:23Z</time>
      </trkpt>
      <trkpt lat="38.119453" lon="-1.293040">
        <ele>101.1</ele>
        <time>2016-05-14T11:51:38Z</time>
      </trkpt>
      <trkpt lat="38.119652" lon="-1.293060">
        <ele>101.6</ele>
        <time>2016-05-14T11:51:55Z</time>
      </trkpt>
      <trkpt lat="38.119838" lon="-1.293094">
        <ele>101.1</ele>
        <time>2016-05-14T11:52:11Z</time>
      </trkpt>
      <trkpt lat="38.120041" lon="-1.293108">
        <ele>102.0</ele>
        <time>2016-05-14T11:52:28Z</time>
      </trkpt>
      <trkpt lat="38.120230" lon="-1.293118">
        <ele>102.5</ele>
        <time>2016-05-14T11:52:44Z</time>
      </trkpt>
      <trkpt lat="38.120426" lon="-1.293122">
        <ele>102.0</ele>
        <time>2016-05-14T11:53:00Z</time>
      </trkpt>
      <trkpt lat="38.120575" lon="-1.293132">
        <ele>102.0</ele>
        <time>2016-05-14T11:53:12Z</time>
      </trkpt>
      <trkpt lat="38.120724" lon="-1.293154">
        <ele>102.5</ele>
        <time>2016-05-14T11:53:25Z</time>
      </trkpt>
      <trkpt lat="38.120917" lon="-1.293267">
        <ele>103.5</ele>
        <time>2016-05-14T11:53:43Z</time>
      </trkpt>
      <trkpt lat="38.120986" lon="-1.293277">
        <ele>103.5</ele>
        <time>2016-05-14T11:53:49Z</time>
      </trkpt>
      <trkpt lat="38.121009" lon="-1.293282">
        <ele>103.5</ele>
        <time>2016-05-14T11:53:51Z</time>
      </trkpt>
      <trkpt lat="38.121189" lon="-1.293243">
        <ele>103.5</ele>
        <time>2016-05-14T11:54:06Z</time>
      </trkpt>
      <trkpt lat="38.121281" lon="-1.293262">
        <ele>103.5</ele>
        <time>2016-05-14T11:54:15Z</time>
      </trkpt>
      <trkpt lat="38.121307" lon="-1.293274">
        <ele>103.5</ele>
        <time>2016-05-14T11:54:19Z</time>
      </trkpt>
      <trkpt lat="38.121384" lon="-1.293270">
        <ele>103.0</ele>
        <time>2016-05-14T11:54:25Z</time>
      </trkpt>
      <trkpt lat="38.121489" lon="-1.293258">
        <ele>104.0</ele>
        <time>2016-05-14T11:54:33Z</time>
      </trkpt>
      <trkpt lat="38.121636" lon="-1.293279">
        <ele>104.0</ele>
        <time>2016-05-14T11:54:46Z</time>
      </trkpt>
      <trkpt lat="38.121892" lon="-1.293339">
        <ele>104.4</ele>
        <time>2016-05-14T11:55:07Z</time>
      </trkpt>
      <trkpt lat="38.122105" lon="-1.293417">
        <ele>104.0</ele>
        <time>2016-05-14T11:55:26Z</time>
      </trkpt>
      <trkpt lat="38.122311" lon="-1.293487">
        <ele>104.0</ele>
        <time>2016-05-14T11:55:44Z</time>
      </trkpt>
      <trkpt lat="38.122531" lon="-1.293517">
        <ele>103.5</ele>
        <time>2016-05-14T11:56:02Z</time>
      </trkpt>
      <trkpt lat="38.122738" lon="-1.293578">
        <ele>103.5</ele>
        <time>2016-05-14T11:56:18Z</time>
      </trkpt>
      <trkpt lat="38.122894" lon="-1.293677">
        <ele>103.0</ele>
        <time>2016-05-14T11:56:33Z</time>
      </trkpt>
      <trkpt lat="38.122921" lon="-1.293700">
        <ele>103.5</ele>
        <time>2016-05-14T11:56:36Z</time>
      </trkpt>
      <trkpt lat="38.123063" lon="-1.293851">
        <ele>104.0</ele>
        <time>2016-05-14T11:56:52Z</time>
      </trkpt>
      <trkpt lat="38.123210" lon="-1.294031">
        <ele>104.0</ele>
        <time>2016-05-14T11:57:09Z</time>
      </trkpt>
      <trkpt lat="38.123316" lon="-1.294138">
        <ele>104.9</ele>
        <time>2016-05-14T11:57:21Z</time>
      </trkpt>
      <trkpt lat="38.123374" lon="-1.294157">
        <ele>105.4</ele>
        <time>2016-05-14T11:57:26Z</time>
      </trkpt>
      <trkpt lat="38.123411" lon="-1.294165">
        <ele>105.9</ele>
        <time>2016-05-14T11:57:30Z</time>
      </trkpt>
      <trkpt lat="38.123469" lon="-1.294134">
        <ele>105.9</ele>
        <time>2016-05-14T11:57:40Z</time>
      </trkpt>
      <trkpt lat="38.123505" lon="-1.294157">
        <ele>105.9</ele>
        <time>2016-05-14T11:57:44Z</time>
      </trkpt>
      <trkpt lat="38.123608" lon="-1.294182">
        <ele>105.4</ele>
        <time>2016-05-14T11:57:52Z</time>
      </trkpt>
      <trkpt lat="38.123673" lon="-1.294176">
        <ele>105.9</ele>
        <time>2016-05-14T11:57:57Z</time>
      </trkpt>
      <trkpt lat="38.123892" lon="-1.294263">
        <ele>106.4</ele>
        <time>2016-05-14T11:58:14Z</time>
      </trkpt>
      <trkpt lat="38.124037" lon="-1.294377">
        <ele>106.4</ele>
        <time>2016-05-14T11:58:28Z</time>
      </trkpt>
      <trkpt lat="38.124160" lon="-1.294560">
        <ele>106.4</ele>
        <time>2016-05-14T11:58:44Z</time>
      </trkpt>
      <trkpt lat="38.124197" lon="-1.294709">
        <ele>105.9</ele>
        <time>2016-05-14T11:58:57Z</time>
      </trkpt>
      <trkpt lat="38.124237" lon="-1.294819">
        <ele>106.4</ele>
        <time>2016-05-14T11:59:04Z</time>
      </trkpt>
      <trkpt lat="38.124274" lon="-1.294938">
        <ele>106.8</ele>
        <time>2016-05-14T11:59:10Z</time>
      </trkpt>
      <trkpt lat="38.124354" lon="-1.295210">
        <ele>107.3</ele>
        <time>2016-05-14T11:59:28Z</time>
      </trkpt>
      <trkpt lat="38.124374" lon="-1.295346">
        <ele>107.3</ele>
        <time>2016-05-14T11:59:39Z</time>
      </trkpt>
      <trkpt lat="38.124394" lon="-1.295464">
        <ele>107.8</ele>
        <time>2016-05-14T11:59:46Z</time>
      </trkpt>
      <trkpt lat="38.124414" lon="-1.295662">
        <ele>107.8</ele>
        <time>2016-05-14T11:59:58Z</time>
      </trkpt>
      <trkpt lat="38.124442" lon="-1.295946">
        <ele>107.8</ele>
        <time>2016-05-14T12:00:16Z</time>
      </trkpt>
      <trkpt lat="38.124447" lon="-1.295972">
        <ele>107.8</ele>
        <time>2016-05-14T12:00:19Z</time>
      </trkpt>
      <trkpt lat="38.124452" lon="-1.296216">
        <ele>106.8</ele>
        <time>2016-05-14T12:00:32Z</time>
      </trkpt>
      <trkpt lat="38.124417" lon="-1.296357">
        <ele>106.8</ele>
        <time>2016-05-14T12:00:44Z</time>
      </trkpt>
      <trkpt lat="38.124240" lon="-1.296395">
        <ele>108.3</ele>
        <time>2016-05-14T12:01:01Z</time>
      </trkpt>
      <trkpt lat="38.124136" lon="-1.296607">
        <ele>109.7</ele>
        <time>2016-05-14T12:01:16Z</time>
      </trkpt>
      <trkpt lat="38.124167" lon="-1.296711">
        <ele>109.7</ele>
        <time>2016-05-14T12:01:26Z</time>
      </trkpt>
      <trkpt lat="38.124299" lon="-1.296844">
        <ele>109.2</ele>
        <time>2016-05-14T12:01:41Z</time>
      </trkpt>
      <trkpt lat="38.124392" lon="-1.297039">
        <ele>108.8</ele>
        <time>2016-05-14T12:01:56Z</time>
      </trkpt>
      <trkpt lat="38.124461" lon="-1.297197">
        <ele>108.8</ele>
        <time>2016-05-14T12:02:09Z</time>
      </trkpt>
      <trkpt lat="38.124536" lon="-1.297420">
        <ele>109.2</ele>
        <time>2016-05-14T12:02:24Z</time>
      </trkpt>
      <trkpt lat="38.124558" lon="-1.297537">
        <ele>109.2</ele>
        <time>2016-05-14T12:02:33Z</time>
      </trkpt>
      <trkpt lat="38.124571" lon="-1.297632">
        <ele>107.8</ele>
        <time>2016-05-14T12:02:40Z</time>
      </trkpt>
      <trkpt lat="38.124639" lon="-1.297840">
        <ele>108.3</ele>
        <time>2016-05-14T12:02:55Z</time>
      </trkpt>
      <trkpt lat="38.124666" lon="-1.297914">
        <ele>108.3</ele>
        <time>2016-05-14T12:03:00Z</time>
      </trkpt>
      <trkpt lat="38.124716" lon="-1.298101">
        <ele>108.3</ele>
        <time>2016-05-14T12:03:14Z</time>
      </trkpt>
      <trkpt lat="38.124750" lon="-1.298313">
        <ele>107.8</ele>
        <time>2016-05-14T12:03:29Z</time>
      </trkpt>
      <trkpt lat="38.124805" lon="-1.298547">
        <ele>108.3</ele>
        <time>2016-05-14T12:03:45Z</time>
      </trkpt>
      <trkpt lat="38.124885" lon="-1.299163">
        <ele>108.8</ele>
        <time>2016-05-14T12:04:45Z</time>
      </trkpt>
      <trkpt lat="38.124907" lon="-1.299400">
        <ele>109.2</ele>
        <time>2016-05-14T12:04:59Z</time>
      </trkpt>
      <trkpt lat="38.124912" lon="-1.299455">
        <ele>108.8</ele>
        <time>2016-05-14T12:05:03Z</time>
      </trkpt>
      <trkpt lat="38.124952" lon="-1.299524">
        <ele>108.8</ele>
        <time>2016-05-14T12:05:07Z</time>
      </trkpt>
      <trkpt lat="38.125036" lon="-1.299661">
        <ele>109.2</ele>
        <time>2016-05-14T12:05:22Z</time>
      </trkpt>
      <trkpt lat="38.125033" lon="-1.299741">
        <ele>108.8</ele>
        <time>2016-05-14T12:05:34Z</time>
      </trkpt>
      <trkpt lat="38.125106" lon="-1.299873">
        <ele>108.8</ele>
        <time>2016-05-14T12:05:45Z</time>
      </trkpt>
      <trkpt lat="38.125205" lon="-1.300051">
        <ele>110.2</ele>
        <time>2016-05-14T12:06:01Z</time>
      </trkpt>
      <trkpt lat="38.125290" lon="-1.300235">
        <ele>110.7</ele>
        <time>2016-05-14T12:06:15Z</time>
      </trkpt>
      <trkpt lat="38.125346" lon="-1.300355">
        <ele>111.7</ele>
        <time>2016-05-14T12:06:25Z</time>
      </trkpt>
      <trkpt lat="38.125472" lon="-1.300527">
        <ele>110.7</ele>
        <time>2016-05-14T12:09:13Z</time>
      </trkpt>
      <trkpt lat="38.125528" lon="-1.300616">
        <ele>111.2</ele>
        <time>2016-05-14T12:09:24Z</time>
      </trkpt>
      <trkpt lat="38.125584" lon="-1.300713">
        <ele>112.6</ele>
        <time>2016-05-14T12:09:34Z</time>
      </trkpt>
      <trkpt lat="38.125712" lon="-1.300858">
        <ele>112.1</ele>
        <time>2016-05-14T12:09:50Z</time>
      </trkpt>
      <trkpt lat="38.125752" lon="-1.300892">
        <ele>112.1</ele>
        <time>2016-05-14T12:10:00Z</time>
      </trkpt>
      <trkpt lat="38.125857" lon="-1.301032">
        <ele>113.1</ele>
        <time>2016-05-14T12:10:16Z</time>
      </trkpt>
      <trkpt lat="38.125994" lon="-1.301215">
        <ele>113.6</ele>
        <time>2016-05-14T12:10:33Z</time>
      </trkpt>
      <trkpt lat="38.126072" lon="-1.301318">
        <ele>112.6</ele>
        <time>2016-05-14T12:10:43Z</time>
      </trkpt>
      <trkpt lat="38.126094" lon="-1.301333">
        <ele>112.6</ele>
        <time>2016-05-14T12:10:45Z</time>
      </trkpt>
      <trkpt lat="38.126145" lon="-1.301399">
        <ele>112.6</ele>
        <time>2016-05-14T12:10:52Z</time>
      </trkpt>
      <trkpt lat="38.126180" lon="-1.301447">
        <ele>112.6</ele>
        <time>2016-05-14T12:10:57Z</time>
      </trkpt>
      <trkpt lat="38.126304" lon="-1.301614">
        <ele>112.1</ele>
        <time>2016-05-14T12:11:13Z</time>
      </trkpt>
      <trkpt lat="38.126313" lon="-1.301640">
        <ele>112.6</ele>
        <time>2016-05-14T12:11:15Z</time>
      </trkpt>
      <trkpt lat="38.126417" lon="-1.301792">
        <ele>112.1</ele>
        <time>2016-05-14T12:11:30Z</time>
      </trkpt>
      <trkpt lat="38.126487" lon="-1.301873">
        <ele>112.1</ele>
        <time>2016-05-14T12:11:41Z</time>
      </trkpt>
      <trkpt lat="38.126602" lon="-1.301965">
        <ele>111.7</ele>
        <time>2016-05-14T12:11:54Z</time>
      </trkpt>
      <trkpt lat="38.126604" lon="-1.301966">
        <ele>111.7</ele>
        <time>2016-05-14T12:11:57Z</time>
      </trkpt>
      <trkpt lat="38.126683" lon="-1.302083">
        <ele>111.7</ele>
        <time>2016-05-14T12:12:10Z</time>
      </trkpt>
      <trkpt lat="38.126716" lon="-1.302151">
        <ele>111.2</ele>
        <time>2016-05-14T12:12:17Z</time>
      </trkpt>
      <trkpt lat="38.126854" lon="-1.302258">
        <ele>111.2</ele>
        <time>2016-05-14T12:13:12Z</time>
      </trkpt>
      <trkpt lat="38.126977" lon="-1.302374">
        <ele>110.7</ele>
        <time>2016-05-14T12:13:26Z</time>
      </trkpt>
      <trkpt lat="38.127141" lon="-1.302540">
        <ele>110.2</ele>
        <time>2016-05-14T12:13:43Z</time>
      </trkpt>
      <trkpt lat="38.127164" lon="-1.302552">
        <ele>109.7</ele>
        <time>2016-05-14T12:13:51Z</time>
      </trkpt>
      <trkpt lat="38.127225" lon="-1.302521">
        <ele>109.2</ele>
        <time>2016-05-14T12:13:56Z</time>
      </trkpt>
      <trkpt lat="38.127428" lon="-1.302533">
        <ele>106.4</ele>
        <time>2016-05-14T12:14:10Z</time>
      </trkpt>
      <trkpt lat="38.127417" lon="-1.302520">
        <ele>106.4</ele>
        <time>2016-05-14T12:14:31Z</time>
      </trkpt>
      <trkpt lat="38.127473" lon="-1.302559">
        <ele>106.8</ele>
        <time>2016-05-14T12:14:35Z</time>
      </trkpt>
      <trkpt lat="38.127512" lon="-1.302593">
        <ele>105.9</ele>
        <time>2016-05-14T12:14:38Z</time>
      </trkpt>
      <trkpt lat="38.127510" lon="-1.302621">
        <ele>106.8</ele>
        <time>2016-05-14T12:14:47Z</time>
      </trkpt>
      <trkpt lat="38.127528" lon="-1.302623">
        <ele>107.3</ele>
        <time>2016-05-14T12:14:49Z</time>
      </trkpt>
      <trkpt lat="38.127737" lon="-1.302770">
        <ele>106.4</ele>
        <time>2016-05-14T12:15:05Z</time>
      </trkpt>
      <trkpt lat="38.127751" lon="-1.302780">
        <ele>106.4</ele>
        <time>2016-05-14T12:15:06Z</time>
      </trkpt>
      <trkpt lat="38.127906" lon="-1.302920">
        <ele>106.4</ele>
        <time>2016-05-14T12:15:21Z</time>
      </trkpt>
      <trkpt lat="38.128015" lon="-1.303048">
        <ele>105.9</ele>
        <time>2016-05-14T12:15:35Z</time>
      </trkpt>
      <trkpt lat="38.128060" lon="-1.303089">
        <ele>106.4</ele>
        <time>2016-05-14T12:15:39Z</time>
      </trkpt>
      <trkpt lat="38.128210" lon="-1.303243">
        <ele>106.4</ele>
        <time>2016-05-14T12:15:50Z</time>
      </trkpt>
      <trkpt lat="38.128422" lon="-1.303424">
        <ele>106.4</ele>
        <time>2016-05-14T12:16:06Z</time>
      </trkpt>
      <trkpt lat="38.128431" lon="-1.303437">
        <ele>106.4</ele>
        <time>2016-05-14T12:16:07Z</time>
      </trkpt>
      <trkpt lat="38.128581" lon="-1.303628">
        <ele>107.3</ele>
        <time>2016-05-14T12:16:21Z</time>
      </trkpt>
      <trkpt lat="38.128695" lon="-1.303734">
        <ele>108.3</ele>
        <time>2016-05-14T12:16:31Z</time>
      </trkpt>
      <trkpt lat="38.128877" lon="-1.303891">
        <ele>107.8</ele>
        <time>2016-05-14T12:16:46Z</time>
      </trkpt>
      <trkpt lat="38.128975" lon="-1.304038">
        <ele>107.8</ele>
        <time>2016-05-14T12:17:00Z</time>
      </trkpt>
      <trkpt lat="38.129029" lon="-1.304132">
        <ele>108.3</ele>
        <time>2016-05-14T12:17:09Z</time>
      </trkpt>
      <trkpt lat="38.129166" lon="-1.304279">
        <ele>107.8</ele>
        <time>2016-05-14T12:17:24Z</time>
      </trkpt>
      <trkpt lat="38.129170" lon="-1.304298">
        <ele>109.2</ele>
        <time>2016-05-14T12:17:37Z</time>
      </trkpt>
      <trkpt lat="38.129225" lon="-1.304339">
        <ele>108.8</ele>
        <time>2016-05-14T12:17:48Z</time>
      </trkpt>
      <trkpt lat="38.129310" lon="-1.304396">
        <ele>108.3</ele>
        <time>2016-05-14T12:17:55Z</time>
      </trkpt>
      <trkpt lat="38.129343" lon="-1.304443">
        <ele>108.8</ele>
        <time>2016-05-14T12:17:59Z</time>
      </trkpt>
      <trkpt lat="38.129450" lon="-1.304537">
        <ele>108.3</ele>
        <time>2016-05-14T12:18:13Z</time>
      </trkpt>
      <trkpt lat="38.129560" lon="-1.304692">
        <ele>108.8</ele>
        <time>2016-05-14T12:18:27Z</time>
      </trkpt>
      <trkpt lat="38.129695" lon="-1.304835">
        <ele>108.3</ele>
        <time>2016-05-14T12:18:43Z</time>
      </trkpt>
      <trkpt lat="38.129774" lon="-1.304860">
        <ele>107.8</ele>
        <time>2016-05-14T12:18:50Z</time>
      </trkpt>
      <trkpt lat="38.129839" lon="-1.304870">
        <ele>107.3</ele>
        <time>2016-05-14T12:18:56Z</time>
      </trkpt>
      <trkpt lat="38.129922" lon="-1.304861">
        <ele>107.8</ele>
        <time>2016-05-14T12:19:02Z</time>
      </trkpt>
      <trkpt lat="38.129945" lon="-1.304866">
        <ele>108.3</ele>
        <time>2016-05-14T12:19:04Z</time>
      </trkpt>
      <trkpt lat="38.130111" lon="-1.305010">
        <ele>107.8</ele>
        <time>2016-05-14T12:19:22Z</time>
      </trkpt>
      <trkpt lat="38.130241" lon="-1.305141">
        <ele>107.8</ele>
        <time>2016-05-14T12:19:36Z</time>
      </trkpt>
      <trkpt lat="38.130364" lon="-1.305306">
        <ele>107.3</ele>
        <time>2016-05-14T12:19:50Z</time>
      </trkpt>
      <trkpt lat="38.130380" lon="-1.305329">
        <ele>107.3</ele>
        <time>2016-05-14T12:20:02Z</time>
      </trkpt>
      <trkpt lat="38.130397" lon="-1.305428">
        <ele>107.3</ele>
        <time>2016-05-14T12:20:08Z</time>
      </trkpt>
      <trkpt lat="38.130468" lon="-1.305711">
        <ele>107.3</ele>
        <time>2016-05-14T12:20:24Z</time>
      </trkpt>
      <trkpt lat="38.130476" lon="-1.305951">
        <ele>106.8</ele>
        <time>2016-05-14T12:20:39Z</time>
      </trkpt>
      <trkpt lat="38.130417" lon="-1.306236">
        <ele>108.8</ele>
        <time>2016-05-14T12:20:56Z</time>
      </trkpt>
      <trkpt lat="38.130349" lon="-1.306412">
        <ele>106.8</ele>
        <time>2016-05-14T12:21:08Z</time>
      </trkpt>
      <trkpt lat="38.130276" lon="-1.306668">
        <ele>108.3</ele>
        <time>2016-05-14T12:21:24Z</time>
      </trkpt>
      <trkpt lat="38.130199" lon="-1.306886">
        <ele>108.8</ele>
        <time>2016-05-14T12:21:39Z</time>
      </trkpt>
      <trkpt lat="38.130133" lon="-1.307095">
        <ele>107.8</ele>
        <time>2016-05-14T12:21:53Z</time>
      </trkpt>
      <trkpt lat="38.130015" lon="-1.307268">
        <ele>107.8</ele>
        <time>2016-05-14T12:22:07Z</time>
      </trkpt>
      <trkpt lat="38.129894" lon="-1.307425">
        <ele>108.3</ele>
        <time>2016-05-14T12:22:18Z</time>
      </trkpt>
      <trkpt lat="38.129805" lon="-1.307552">
        <ele>108.3</ele>
        <time>2016-05-14T12:22:28Z</time>
      </trkpt>
      <trkpt lat="38.129629" lon="-1.307621">
        <ele>108.8</ele>
        <time>2016-05-14T12:22:44Z</time>
      </trkpt>
      <trkpt lat="38.129616" lon="-1.307600">
        <ele>108.8</ele>
        <time>2016-05-14T12:22:49Z</time>
      </trkpt>
      <trkpt lat="38.129552" lon="-1.307609">
        <ele>108.8</ele>
        <time>2016-05-14T12:22:55Z</time>
      </trkpt>
      <trkpt lat="38.129387" lon="-1.307519">
        <ele>109.7</ele>
        <time>2016-05-14T12:23:11Z</time>
      </trkpt>
      <trkpt lat="38.129277" lon="-1.307429">
        <ele>109.7</ele>
        <time>2016-05-14T12:23:22Z</time>
      </trkpt>
      <trkpt lat="38.129256" lon="-1.307423">
        <ele>110.2</ele>
        <time>2016-05-14T12:23:24Z</time>
      </trkpt>
      <trkpt lat="38.129242" lon="-1.307410">
        <ele>110.2</ele>
        <time>2016-05-14T12:23:26Z</time>
      </trkpt>
      <trkpt lat="38.129149" lon="-1.307319">
        <ele>111.2</ele>
        <time>2016-05-14T12:23:34Z</time>
      </trkpt>
      <trkpt lat="38.129130" lon="-1.307307">
        <ele>111.7</ele>
        <time>2016-05-14T12:23:36Z</time>
      </trkpt>
      <trkpt lat="38.129069" lon="-1.307273">
        <ele>111.7</ele>
        <time>2016-05-14T12:23:41Z</time>
      </trkpt>
      <trkpt lat="38.129020" lon="-1.307262">
        <ele>112.1</ele>
        <time>2016-05-14T12:23:50Z</time>
      </trkpt>
      <trkpt lat="38.128966" lon="-1.307176">
        <ele>112.1</ele>
        <time>2016-05-14T12:23:57Z</time>
      </trkpt>
      <trkpt lat="38.128912" lon="-1.307142">
        <ele>112.6</ele>
        <time>2016-05-14T12:24:02Z</time>
      </trkpt>
      <trkpt lat="38.128756" lon="-1.307048">
        <ele>112.6</ele>
        <time>2016-05-14T12:24:17Z</time>
      </trkpt>
      <trkpt lat="38.128600" lon="-1.306900">
        <ele>112.6</ele>
        <time>2016-05-14T12:24:33Z</time>
      </trkpt>
      <trkpt lat="38.128486" lon="-1.306849">
        <ele>112.1</ele>
        <time>2016-05-14T12:24:43Z</time>
      </trkpt>
      <trkpt lat="38.128316" lon="-1.306780">
        <ele>112.1</ele>
        <time>2016-05-14T12:25:01Z</time>
      </trkpt>
      <trkpt lat="38.128236" lon="-1.306746">
        <ele>111.7</ele>
        <time>2016-05-14T12:25:09Z</time>
      </trkpt>
      <trkpt lat="38.128153" lon="-1.306701">
        <ele>111.2</ele>
        <time>2016-05-14T12:25:17Z</time>
      </trkpt>
      <trkpt lat="38.128093" lon="-1.306674">
        <ele>110.7</ele>
        <time>2016-05-14T12:25:22Z</time>
      </trkpt>
      <trkpt lat="38.128017" lon="-1.306626">
        <ele>111.2</ele>
        <time>2016-05-14T12:25:30Z</time>
      </trkpt>
      <trkpt lat="38.127975" lon="-1.306627">
        <ele>111.7</ele>
        <time>2016-05-14T12:25:34Z</time>
      </trkpt>
      <trkpt lat="38.127797" lon="-1.306587">
        <ele>110.7</ele>
        <time>2016-05-14T12:25:50Z</time>
      </trkpt>
      <trkpt lat="38.127795" lon="-1.306577">
        <ele>110.7</ele>
        <time>2016-05-14T12:25:55Z</time>
      </trkpt>
      <trkpt lat="38.127691" lon="-1.306619">
        <ele>111.2</ele>
        <time>2016-05-14T12:26:01Z</time>
      </trkpt>
      <trkpt lat="38.127404" lon="-1.306775">
        <ele>110.7</ele>
        <time>2016-05-14T12:26:22Z</time>
      </trkpt>
      <trkpt lat="38.127221" lon="-1.307012">
        <ele>111.2</ele>
        <time>2016-05-14T12:26:39Z</time>
      </trkpt>
      <trkpt lat="38.127103" lon="-1.307201">
        <ele>111.2</ele>
        <time>2016-05-14T12:26:54Z</time>
      </trkpt>
      <trkpt lat="38.127090" lon="-1.307213">
        <ele>109.7</ele>
        <time>2016-05-14T12:27:12Z</time>
      </trkpt>
      <trkpt lat="38.127089" lon="-1.307215">
        <ele>109.7</ele>
        <time>2016-05-14T12:27:13Z</time>
      </trkpt>
      <trkpt lat="38.127050" lon="-1.307309">
        <ele>110.2</ele>
        <time>2016-05-14T12:27:18Z</time>
      </trkpt>
      <trkpt lat="38.126964" lon="-1.307712">
        <ele>110.7</ele>
        <time>2016-05-14T12:27:36Z</time>
      </trkpt>
      <trkpt lat="38.126930" lon="-1.307886">
        <ele>110.2</ele>
        <time>2016-05-14T12:27:52Z</time>
      </trkpt>
      <trkpt lat="38.126902" lon="-1.307945">
        <ele>109.7</ele>
        <time>2016-05-14T12:28:06Z</time>
      </trkpt>
      <trkpt lat="38.126900" lon="-1.307949">
        <ele>110.2</ele>
        <time>2016-05-14T12:28:08Z</time>
      </trkpt>
      <trkpt lat="38.126878" lon="-1.308017">
        <ele>110.7</ele>
        <time>2016-05-14T12:28:12Z</time>
      </trkpt>
      <trkpt lat="38.126808" lon="-1.308335">
        <ele>109.7</ele>
        <time>2016-05-14T12:28:31Z</time>
      </trkpt>
      <trkpt lat="38.126636" lon="-1.308629">
        <ele>110.2</ele>
        <time>2016-05-14T12:28:51Z</time>
      </trkpt>
      <trkpt lat="38.126410" lon="-1.308764">
        <ele>111.2</ele>
        <time>2016-05-14T12:29:09Z</time>
      </trkpt>
      <trkpt lat="38.126371" lon="-1.308779">
        <ele>111.2</ele>
        <time>2016-05-14T12:29:12Z</time>
      </trkpt>
      <trkpt lat="38.126357" lon="-1.308799">
        <ele>111.7</ele>
        <time>2016-05-14T12:29:14Z</time>
      </trkpt>
      <trkpt lat="38.126423" lon="-1.308993">
        <ele>108.3</ele>
        <time>2016-05-14T12:29:29Z</time>
      </trkpt>
      <trkpt lat="38.126473" lon="-1.308991">
        <ele>108.8</ele>
        <time>2016-05-14T12:29:34Z</time>
      </trkpt>
      <trkpt lat="38.126492" lon="-1.308970">
        <ele>107.8</ele>
        <time>2016-05-14T12:29:36Z</time>
      </trkpt>
      <trkpt lat="38.126530" lon="-1.308914">
        <ele>108.8</ele>
        <time>2016-05-14T12:29:41Z</time>
      </trkpt>
      <trkpt lat="38.126556" lon="-1.308914">
        <ele>108.8</ele>
        <time>2016-05-14T12:29:43Z</time>
      </trkpt>
      <trkpt lat="38.126617" lon="-1.308786">
        <ele>108.8</ele>
        <time>2016-05-14T12:29:53Z</time>
      </trkpt>
      <trkpt lat="38.126703" lon="-1.308749">
        <ele>109.2</ele>
        <time>2016-05-14T12:30:05Z</time>
      </trkpt>
      <trkpt lat="38.126710" lon="-1.308751">
        <ele>108.3</ele>
        <time>2016-05-14T12:30:06Z</time>
      </trkpt>
      <trkpt lat="38.126790" lon="-1.308837">
        <ele>107.8</ele>
        <time>2016-05-14T12:30:16Z</time>
      </trkpt>
      <trkpt lat="38.126830" lon="-1.308838">
        <ele>107.8</ele>
        <time>2016-05-14T12:30:28Z</time>
      </trkpt>
      <trkpt lat="38.126835" lon="-1.308848">
        <ele>107.8</ele>
        <time>2016-05-14T12:33:24Z</time>
      </trkpt>
      <trkpt lat="38.126896" lon="-1.309102">
        <ele>107.3</ele>
        <time>2016-05-14T12:33:40Z</time>
      </trkpt>
      <trkpt lat="38.126977" lon="-1.309381">
        <ele>107.8</ele>
        <time>2016-05-14T12:33:57Z</time>
      </trkpt>
      <trkpt lat="38.127084" lon="-1.309649">
        <ele>107.3</ele>
        <time>2016-05-14T12:34:13Z</time>
      </trkpt>
      <trkpt lat="38.127240" lon="-1.309918">
        <ele>106.8</ele>
        <time>2016-05-14T12:34:32Z</time>
      </trkpt>
      <trkpt lat="38.127388" lon="-1.310178">
        <ele>107.3</ele>
        <time>2016-05-14T12:34:50Z</time>
      </trkpt>
      <trkpt lat="38.127503" lon="-1.310422">
        <ele>107.3</ele>
        <time>2016-05-14T12:35:07Z</time>
      </trkpt>
      <trkpt lat="38.127529" lon="-1.310464">
        <ele>107.3</ele>
        <time>2016-05-14T12:35:16Z</time>
      </trkpt>
      <trkpt lat="38.127555" lon="-1.310482">
        <ele>107.8</ele>
        <time>2016-05-14T12:35:58Z</time>
      </trkpt>
      <trkpt lat="38.127622" lon="-1.310615">
        <ele>107.8</ele>
        <time>2016-05-14T12:36:12Z</time>
      </trkpt>
      <trkpt lat="38.127620" lon="-1.310624">
        <ele>107.8</ele>
        <time>2016-05-14T12:36:14Z</time>
      </trkpt>
      <trkpt lat="38.127658" lon="-1.310661">
        <ele>108.3</ele>
        <time>2016-05-14T12:36:18Z</time>
      </trkpt>
      <trkpt lat="38.127816" lon="-1.310913">
        <ele>108.3</ele>
        <time>2016-05-14T12:36:34Z</time>
      </trkpt>
      <trkpt lat="38.127931" lon="-1.311196">
        <ele>107.8</ele>
        <time>2016-05-14T12:36:52Z</time>
      </trkpt>
      <trkpt lat="38.128084" lon="-1.311477">
        <ele>107.3</ele>
        <time>2016-05-14T12:37:11Z</time>
      </trkpt>
      <trkpt lat="38.128145" lon="-1.311691">
        <ele>107.3</ele>
        <time>2016-05-14T12:37:24Z</time>
      </trkpt>
      <trkpt lat="38.128219" lon="-1.311929">
        <ele>107.3</ele>
        <time>2016-05-14T12:37:38Z</time>
      </trkpt>
      <trkpt lat="38.128252" lon="-1.312061">
        <ele>106.8</ele>
        <time>2016-05-14T12:37:47Z</time>
      </trkpt>
      <trkpt lat="38.128265" lon="-1.312108">
        <ele>104.4</ele>
        <time>2016-05-14T12:37:51Z</time>
      </trkpt>
      <trkpt lat="38.128267" lon="-1.312122">
        <ele>111.7</ele>
        <time>2016-05-14T12:37:52Z</time>
      </trkpt>
      <trkpt lat="38.128271" lon="-1.312134">
        <ele>108.8</ele>
        <time>2016-05-14T12:37:53Z</time>
      </trkpt>
      <trkpt lat="38.128279" lon="-1.312164">
        <ele>106.8</ele>
        <time>2016-05-14T12:37:55Z</time>
      </trkpt>
      <trkpt lat="38.128356" lon="-1.312404">
        <ele>106.8</ele>
        <time>2016-05-14T12:38:12Z</time>
      </trkpt>
      <trkpt lat="38.128462" lon="-1.312571">
        <ele>107.8</ele>
        <time>2016-05-14T12:38:22Z</time>
      </trkpt>
      <trkpt lat="38.128464" lon="-1.312610">
        <ele>106.8</ele>
        <time>2016-05-14T12:38:24Z</time>
      </trkpt>
      <trkpt lat="38.128500" lon="-1.312685">
        <ele>106.8</ele>
        <time>2016-05-14T12:38:30Z</time>
      </trkpt>
      <trkpt lat="38.128512" lon="-1.312726">
        <ele>106.4</ele>
        <time>2016-05-14T12:38:33Z</time>
      </trkpt>
      <trkpt lat="38.128627" lon="-1.312982">
        <ele>106.4</ele>
        <time>2016-05-14T12:38:49Z</time>
      </trkpt>
      <trkpt lat="38.128766" lon="-1.313157">
        <ele>105.9</ele>
        <time>2016-05-14T12:39:04Z</time>
      </trkpt>
      <trkpt lat="38.128857" lon="-1.313260">
        <ele>105.9</ele>
        <time>2016-05-14T12:39:14Z</time>
      </trkpt>
      <trkpt lat="38.128997" lon="-1.313438">
        <ele>106.8</ele>
        <time>2016-05-14T12:39:30Z</time>
      </trkpt>
      <trkpt lat="38.129178" lon="-1.313628">
        <ele>105.4</ele>
        <time>2016-05-14T12:39:45Z</time>
      </trkpt>
      <trkpt lat="38.129254" lon="-1.313707">
        <ele>105.9</ele>
        <time>2016-05-14T12:39:52Z</time>
      </trkpt>
      <trkpt lat="38.129290" lon="-1.313730">
        <ele>105.9</ele>
        <time>2016-05-14T12:39:55Z</time>
      </trkpt>
      <trkpt lat="38.129353" lon="-1.313777">
        <ele>107.3</ele>
        <time>2016-05-14T12:40:01Z</time>
      </trkpt>
      <trkpt lat="38.129508" lon="-1.313871">
        <ele>107.8</ele>
        <time>2016-05-14T12:40:14Z</time>
      </trkpt>
      <trkpt lat="38.129643" lon="-1.313952">
        <ele>107.8</ele>
        <time>2016-05-14T12:40:25Z</time>
      </trkpt>
      <trkpt lat="38.129686" lon="-1.313989">
        <ele>107.3</ele>
        <time>2016-05-14T12:40:29Z</time>
      </trkpt>
      <trkpt lat="38.129939" lon="-1.313985">
        <ele>106.8</ele>
        <time>2016-05-14T12:40:46Z</time>
      </trkpt>
      <trkpt lat="38.130179" lon="-1.314024">
        <ele>106.8</ele>
        <time>2016-05-14T12:41:05Z</time>
      </trkpt>
      <trkpt lat="38.130399" lon="-1.314205">
        <ele>107.3</ele>
        <time>2016-05-14T12:41:25Z</time>
      </trkpt>
      <trkpt lat="38.130475" lon="-1.314290">
        <ele>107.8</ele>
        <time>2016-05-14T12:41:34Z</time>
      </trkpt>
      <trkpt lat="38.130486" lon="-1.314318">
        <ele>107.8</ele>
        <time>2016-05-14T12:41:39Z</time>
      </trkpt>
      <trkpt lat="38.130516" lon="-1.314360">
        <ele>107.3</ele>
        <time>2016-05-14T12:41:49Z</time>
      </trkpt>
      <trkpt lat="38.130617" lon="-1.314448">
        <ele>106.8</ele>
        <time>2016-05-14T12:42:02Z</time>
      </trkpt>
      <trkpt lat="38.130653" lon="-1.314482">
        <ele>107.3</ele>
        <time>2016-05-14T12:42:05Z</time>
      </trkpt>
      <trkpt lat="38.130744" lon="-1.314546">
        <ele>107.3</ele>
        <time>2016-05-14T12:42:12Z</time>
      </trkpt>
      <trkpt lat="38.130799" lon="-1.314591">
        <ele>107.3</ele>
        <time>2016-05-14T12:42:17Z</time>
      </trkpt>
      <trkpt lat="38.131040" lon="-1.314740">
        <ele>107.3</ele>
        <time>2016-05-14T12:42:45Z</time>
      </trkpt>
      <trkpt lat="38.131264" lon="-1.314893">
        <ele>107.8</ele>
        <time>2016-05-14T12:43:04Z</time>
      </trkpt>
      <trkpt lat="38.131491" lon="-1.315012">
        <ele>107.3</ele>
        <time>2016-05-14T12:43:23Z</time>
      </trkpt>
      <trkpt lat="38.131726" lon="-1.315121">
        <ele>108.3</ele>
        <time>2016-05-14T12:43:41Z</time>
      </trkpt>
      <trkpt lat="38.131911" lon="-1.315204">
        <ele>108.3</ele>
        <time>2016-05-14T12:43:56Z</time>
      </trkpt>
      <trkpt lat="38.132053" lon="-1.315253">
        <ele>107.8</ele>
        <time>2016-05-14T12:44:08Z</time>
      </trkpt>
      <trkpt lat="38.132105" lon="-1.315320">
        <ele>108.8</ele>
        <time>2016-05-14T12:44:19Z</time>
      </trkpt>
      <trkpt lat="38.132196" lon="-1.315367">
        <ele>108.3</ele>
        <time>2016-05-14T12:44:34Z</time>
      </trkpt>
      <trkpt lat="38.132180" lon="-1.315374">
        <ele>108.8</ele>
        <time>2016-05-14T12:45:01Z</time>
      </trkpt>
      <trkpt lat="38.132300" lon="-1.315453">
        <ele>109.2</ele>
        <time>2016-05-14T12:45:11Z</time>
      </trkpt>
      <trkpt lat="38.132473" lon="-1.315608">
        <ele>109.2</ele>
        <time>2016-05-14T12:45:27Z</time>
      </trkpt>
      <trkpt lat="38.132487" lon="-1.315615">
        <ele>109.2</ele>
        <time>2016-05-14T12:45:28Z</time>
      </trkpt>
      <trkpt lat="38.132584" lon="-1.315679">
        <ele>109.2</ele>
        <time>2016-05-14T12:45:36Z</time>
      </trkpt>
      <trkpt lat="38.132815" lon="-1.315812">
        <ele>108.8</ele>
        <time>2016-05-14T12:45:54Z</time>
      </trkpt>
      <trkpt lat="38.132972" lon="-1.315947">
        <ele>109.2</ele>
        <time>2016-05-14T12:46:09Z</time>
      </trkpt>
      <trkpt lat="38.133163" lon="-1.316026">
        <ele>106.8</ele>
        <time>2016-05-14T12:46:23Z</time>
      </trkpt>
      <trkpt lat="38.133187" lon="-1.316041">
        <ele>109.7</ele>
        <time>2016-05-14T12:46:25Z</time>
      </trkpt>
      <trkpt lat="38.133199" lon="-1.316049">
        <ele>108.8</ele>
        <time>2016-05-14T12:46:26Z</time>
      </trkpt>
      <trkpt lat="38.133403" lon="-1.316197">
        <ele>109.2</ele>
        <time>2016-05-14T12:46:43Z</time>
      </trkpt>
      <trkpt lat="38.133426" lon="-1.316207">
        <ele>108.8</ele>
        <time>2016-05-14T12:46:45Z</time>
      </trkpt>
      <trkpt lat="38.133636" lon="-1.316383">
        <ele>109.2</ele>
        <time>2016-05-14T12:47:04Z</time>
      </trkpt>
      <trkpt lat="38.133846" lon="-1.316529">
        <ele>109.7</ele>
        <time>2016-05-14T12:47:21Z</time>
      </trkpt>
      <trkpt lat="38.133902" lon="-1.316565">
        <ele>108.8</ele>
        <time>2016-05-14T12:47:25Z</time>
      </trkpt>
      <trkpt lat="38.134090" lon="-1.316692">
        <ele>110.7</ele>
        <time>2016-05-14T12:47:41Z</time>
      </trkpt>
      <trkpt lat="38.134100" lon="-1.316698">
        <ele>110.7</ele>
        <time>2016-05-14T12:47:42Z</time>
      </trkpt>
      <trkpt lat="38.134124" lon="-1.316715">
        <ele>114.5</ele>
        <time>2016-05-14T12:47:44Z</time>
      </trkpt>
      <trkpt lat="38.134141" lon="-1.316723">
        <ele>110.2</ele>
        <time>2016-05-14T12:47:45Z</time>
      </trkpt>
      <trkpt lat="38.134180" lon="-1.316759">
        <ele>108.8</ele>
        <time>2016-05-14T12:47:48Z</time>
      </trkpt>
      <trkpt lat="38.134423" lon="-1.316925">
        <ele>109.7</ele>
        <time>2016-05-14T12:48:08Z</time>
      </trkpt>
      <trkpt lat="38.134586" lon="-1.317023">
        <ele>110.2</ele>
        <time>2016-05-14T12:48:23Z</time>
      </trkpt>
      <trkpt lat="38.134725" lon="-1.317113">
        <ele>109.7</ele>
        <time>2016-05-14T12:48:37Z</time>
      </trkpt>
      <trkpt lat="38.134951" lon="-1.317232">
        <ele>110.2</ele>
        <time>2016-05-14T12:48:54Z</time>
      </trkpt>
      <trkpt lat="38.135190" lon="-1.317371">
        <ele>110.2</ele>
        <time>2016-05-14T12:49:14Z</time>
      </trkpt>
      <trkpt lat="38.135361" lon="-1.317457">
        <ele>109.7</ele>
        <time>2016-05-14T12:49:31Z</time>
      </trkpt>
      <trkpt lat="38.135425" lon="-1.317500">
        <ele>109.2</ele>
        <time>2016-05-14T12:49:59Z</time>
      </trkpt>
      <trkpt lat="38.135518" lon="-1.317554">
        <ele>108.3</ele>
        <time>2016-05-14T12:50:06Z</time>
      </trkpt>
      <trkpt lat="38.135657" lon="-1.317650">
        <ele>108.3</ele>
        <time>2016-05-14T12:50:16Z</time>
      </trkpt>
      <trkpt lat="38.135867" lon="-1.317782">
        <ele>108.3</ele>
        <time>2016-05-14T12:50:35Z</time>
      </trkpt>
      <trkpt lat="38.136015" lon="-1.317877">
        <ele>108.3</ele>
        <time>2016-05-14T12:50:48Z</time>
      </trkpt>
      <trkpt lat="38.136193" lon="-1.317989">
        <ele>108.8</ele>
        <time>2016-05-14T12:51:04Z</time>
      </trkpt>
      <trkpt lat="38.136257" lon="-1.318043">
        <ele>108.8</ele>
        <time>2016-05-14T12:51:15Z</time>
      </trkpt>
      <trkpt lat="38.136327" lon="-1.318112">
        <ele>108.8</ele>
        <time>2016-05-14T12:51:29Z</time>
      </trkpt>
      <trkpt lat="38.136323" lon="-1.318129">
        <ele>108.8</ele>
        <time>2016-05-14T12:51:33Z</time>
      </trkpt>
      <trkpt lat="38.136264" lon="-1.318349">
        <ele>111.2</ele>
        <time>2016-05-14T12:51:49Z</time>
      </trkpt>
      <trkpt lat="38.136234" lon="-1.318631">
        <ele>111.7</ele>
        <time>2016-05-14T12:52:06Z</time>
      </trkpt>
      <trkpt lat="38.136251" lon="-1.318748">
        <ele>112.1</ele>
        <time>2016-05-14T12:52:46Z</time>
      </trkpt>
      <trkpt lat="38.136284" lon="-1.319061">
        <ele>112.6</ele>
        <time>2016-05-14T12:53:04Z</time>
      </trkpt>
      <trkpt lat="38.136302" lon="-1.319187">
        <ele>112.6</ele>
        <time>2016-05-14T12:53:12Z</time>
      </trkpt>
      <trkpt lat="38.136321" lon="-1.319335">
        <ele>112.6</ele>
        <time>2016-05-14T12:53:21Z</time>
      </trkpt>
      <trkpt lat="38.136337" lon="-1.319611">
        <ele>112.6</ele>
        <time>2016-05-14T12:53:36Z</time>
      </trkpt>
      <trkpt lat="38.136337" lon="-1.319684">
        <ele>113.1</ele>
        <time>2016-05-14T12:53:40Z</time>
      </trkpt>
      <trkpt lat="38.136376" lon="-1.319883">
        <ele>114.1</ele>
        <time>2016-05-14T12:53:54Z</time>
      </trkpt>
      <trkpt lat="38.136397" lon="-1.320015">
        <ele>114.1</ele>
        <time>2016-05-14T12:54:03Z</time>
      </trkpt>
      <trkpt lat="38.136432" lon="-1.320244">
        <ele>114.5</ele>
        <time>2016-05-14T12:54:17Z</time>
      </trkpt>
      <trkpt lat="38.136462" lon="-1.320540">
        <ele>115.0</ele>
        <time>2016-05-14T12:54:33Z</time>
      </trkpt>
      <trkpt lat="38.136455" lon="-1.320589">
        <ele>114.5</ele>
        <time>2016-05-14T12:54:46Z</time>
      </trkpt>
      <trkpt lat="38.136454" lon="-1.320594">
        <ele>115.0</ele>
        <time>2016-05-14T12:54:48Z</time>
      </trkpt>
      <trkpt lat="38.136452" lon="-1.320717">
        <ele>115.0</ele>
        <time>2016-05-14T12:55:01Z</time>
      </trkpt>
      <trkpt lat="38.136438" lon="-1.321007">
        <ele>116.0</ele>
        <time>2016-05-14T12:55:20Z</time>
      </trkpt>
      <trkpt lat="38.136439" lon="-1.321011">
        <ele>116.0</ele>
        <time>2016-05-14T12:55:21Z</time>
      </trkpt>
      <trkpt lat="38.136447" lon="-1.321083">
        <ele>116.0</ele>
        <time>2016-05-14T12:55:25Z</time>
      </trkpt>
      <trkpt lat="38.136464" lon="-1.321406">
        <ele>116.5</ele>
        <time>2016-05-14T12:55:43Z</time>
      </trkpt>
      <trkpt lat="38.136459" lon="-1.321699">
        <ele>117.4</ele>
        <time>2016-05-14T12:55:59Z</time>
      </trkpt>
      <trkpt lat="38.136452" lon="-1.321862">
        <ele>116.9</ele>
        <time>2016-05-14T12:56:08Z</time>
      </trkpt>
      <trkpt lat="38.136443" lon="-1.322156">
        <ele>117.4</ele>
        <time>2016-05-14T12:56:24Z</time>
      </trkpt>
      <trkpt lat="38.136384" lon="-1.322518">
        <ele>117.9</ele>
        <time>2016-05-14T12:56:44Z</time>
      </trkpt>
      <trkpt lat="38.136340" lon="-1.322781">
        <ele>120.8</ele>
        <time>2016-05-14T12:56:59Z</time>
      </trkpt>
      <trkpt lat="38.136359" lon="-1.322885">
        <ele>121.3</ele>
        <time>2016-05-14T12:57:07Z</time>
      </trkpt>
      <trkpt lat="38.136338" lon="-1.322954">
        <ele>121.7</ele>
        <time>2016-05-14T12:57:15Z</time>
      </trkpt>
      <trkpt lat="38.136364" lon="-1.323013">
        <ele>121.3</ele>
        <time>2016-05-14T12:57:19Z</time>
      </trkpt>
      <trkpt lat="38.136454" lon="-1.323059">
        <ele>123.2</ele>
        <time>2016-05-14T12:57:27Z</time>
      </trkpt>
      <trkpt lat="38.136558" lon="-1.323094">
        <ele>124.2</ele>
        <time>2016-05-14T12:57:54Z</time>
      </trkpt>
      <trkpt lat="38.136696" lon="-1.323120">
        <ele>125.6</ele>
        <time>2016-05-14T12:58:07Z</time>
      </trkpt>
      <trkpt lat="38.136900" lon="-1.323245">
        <ele>127.0</ele>
        <time>2016-05-14T12:58:22Z</time>
      </trkpt>
      <trkpt lat="38.136989" lon="-1.323305">
        <ele>127.5</ele>
        <time>2016-05-14T12:58:31Z</time>
      </trkpt>
      <trkpt lat="38.137074" lon="-1.323495">
        <ele>130.4</ele>
        <time>2016-05-14T12:58:46Z</time>
      </trkpt>
      <trkpt lat="38.137092" lon="-1.323575">
        <ele>130.9</ele>
        <time>2016-05-14T12:58:51Z</time>
      </trkpt>
      <trkpt lat="38.137090" lon="-1.323640">
        <ele>130.9</ele>
        <time>2016-05-14T12:58:55Z</time>
      </trkpt>
      <trkpt lat="38.137094" lon="-1.323709">
        <ele>131.8</ele>
        <time>2016-05-14T12:59:06Z</time>
      </trkpt>
      <trkpt lat="38.137111" lon="-1.323887">
        <ele>131.8</ele>
        <time>2016-05-14T12:59:17Z</time>
      </trkpt>
      <trkpt lat="38.137076" lon="-1.324154">
        <ele>133.3</ele>
        <time>2016-05-14T12:59:32Z</time>
      </trkpt>
      <trkpt lat="38.137072" lon="-1.324329">
        <ele>134.2</ele>
        <time>2016-05-14T13:01:56Z</time>
      </trkpt>
      <trkpt lat="38.137090" lon="-1.324352">
        <ele>134.2</ele>
        <time>2016-05-14T13:02:05Z</time>
      </trkpt>
      <trkpt lat="38.137062" lon="-1.324622">
        <ele>133.3</ele>
        <time>2016-05-14T13:02:22Z</time>
      </trkpt>
      <trkpt lat="38.137086" lon="-1.324717">
        <ele>132.3</ele>
        <time>2016-05-14T13:02:30Z</time>
      </trkpt>
      <trkpt lat="38.137110" lon="-1.324718">
        <ele>132.3</ele>
        <time>2016-05-14T13:02:34Z</time>
      </trkpt>
      <trkpt lat="38.137177" lon="-1.324819">
        <ele>132.8</ele>
        <time>2016-05-14T13:02:40Z</time>
      </trkpt>
      <trkpt lat="38.137073" lon="-1.324984">
        <ele>132.3</ele>
        <time>2016-05-14T13:02:53Z</time>
      </trkpt>
      <trkpt lat="38.136980" lon="-1.325031">
        <ele>133.3</ele>
        <time>2016-05-14T13:03:17Z</time>
      </trkpt>
      <trkpt lat="38.136929" lon="-1.325092">
        <ele>133.3</ele>
        <time>2016-05-14T13:03:33Z</time>
      </trkpt>
      <trkpt lat="38.136836" lon="-1.325152">
        <ele>131.4</ele>
        <time>2016-05-14T13:03:45Z</time>
      </trkpt>
      <trkpt lat="38.136819" lon="-1.325244">
        <ele>128.5</ele>
        <time>2016-05-14T13:03:50Z</time>
      </trkpt>
      <trkpt lat="38.136822" lon="-1.325404">
        <ele>127.0</ele>
        <time>2016-05-14T13:03:58Z</time>
      </trkpt>
      <trkpt lat="38.136871" lon="-1.325420">
        <ele>125.6</ele>
        <time>2016-05-14T13:04:05Z</time>
      </trkpt>
      <trkpt lat="38.136892" lon="-1.325394">
        <ele>124.6</ele>
        <time>2016-05-14T13:04:07Z</time>
      </trkpt>
      <trkpt lat="38.136949" lon="-1.325301">
        <ele>123.2</ele>
        <time>2016-05-14T13:04:14Z</time>
      </trkpt>
      <trkpt lat="38.136975" lon="-1.325289">
        <ele>122.2</ele>
        <time>2016-05-14T13:04:16Z</time>
      </trkpt>
      <trkpt lat="38.137008" lon="-1.325280">
        <ele>121.7</ele>
        <time>2016-05-14T13:04:19Z</time>
      </trkpt>
      <trkpt lat="38.137011" lon="-1.325458">
        <ele>118.4</ele>
        <time>2016-05-14T13:04:30Z</time>
      </trkpt>
      <trkpt lat="38.137019" lon="-1.325536">
        <ele>118.4</ele>
        <time>2016-05-14T13:04:41Z</time>
      </trkpt>
      <trkpt lat="38.137102" lon="-1.325703">
        <ele>118.4</ele>
        <time>2016-05-14T13:04:52Z</time>
      </trkpt>
      <trkpt lat="38.137245" lon="-1.325956">
        <ele>118.4</ele>
        <time>2016-05-14T13:05:09Z</time>
      </trkpt>
      <trkpt lat="38.137303" lon="-1.326024">
        <ele>117.9</ele>
        <time>2016-05-14T13:05:20Z</time>
      </trkpt>
      <trkpt lat="38.137315" lon="-1.326058">
        <ele>117.4</ele>
        <time>2016-05-14T13:05:25Z</time>
      </trkpt>
      <trkpt lat="38.137365" lon="-1.326153">
        <ele>117.4</ele>
        <time>2016-05-14T13:05:37Z</time>
      </trkpt>
      <trkpt lat="38.137373" lon="-1.326240">
        <ele>117.9</ele>
        <time>2016-05-14T13:06:03Z</time>
      </trkpt>
      <trkpt lat="38.137384" lon="-1.326296">
        <ele>117.9</ele>
        <time>2016-05-14T13:06:06Z</time>
      </trkpt>
      <trkpt lat="38.137463" lon="-1.326479">
        <ele>118.4</ele>
        <time>2016-05-14T13:06:22Z</time>
      </trkpt>
      <trkpt lat="38.137483" lon="-1.326561">
        <ele>117.4</ele>
        <time>2016-05-14T13:06:27Z</time>
      </trkpt>
      <trkpt lat="38.137529" lon="-1.326649">
        <ele>116.9</ele>
        <time>2016-05-14T13:07:06Z</time>
      </trkpt>
      <trkpt lat="38.137514" lon="-1.326653">
        <ele>116.9</ele>
        <time>2016-05-14T13:07:19Z</time>
      </trkpt>
      <trkpt lat="38.137494" lon="-1.326650">
        <ele>116.0</ele>
        <time>2016-05-14T13:07:27Z</time>
      </trkpt>
      <trkpt lat="38.137454" lon="-1.326652">
        <ele>115.0</ele>
        <time>2016-05-14T13:07:42Z</time>
      </trkpt>
      <trkpt lat="38.137455" lon="-1.326644">
        <ele>115.0</ele>
        <time>2016-05-14T13:07:48Z</time>
      </trkpt>
      <trkpt lat="38.137419" lon="-1.326591">
        <ele>114.5</ele>
        <time>2016-05-14T13:07:55Z</time>
      </trkpt>
      <trkpt lat="38.137272" lon="-1.326388">
        <ele>115.0</ele>
        <time>2016-05-14T13:08:12Z</time>
      </trkpt>
      <trkpt lat="38.137244" lon="-1.326389">
        <ele>114.5</ele>
        <time>2016-05-14T13:08:14Z</time>
      </trkpt>
      <trkpt lat="38.137221" lon="-1.326409">
        <ele>115.0</ele>
        <time>2016-05-14T13:08:16Z</time>
      </trkpt>
      <trkpt lat="38.137177" lon="-1.326429">
        <ele>115.0</ele>
        <time>2016-05-14T13:08:20Z</time>
      </trkpt>
      <trkpt lat="38.136991" lon="-1.326622">
        <ele>114.1</ele>
        <time>2016-05-14T13:08:36Z</time>
      </trkpt>
      <trkpt lat="38.136818" lon="-1.326742">
        <ele>114.5</ele>
        <time>2016-05-14T13:08:50Z</time>
      </trkpt>
      <trkpt lat="38.136680" lon="-1.326886">
        <ele>115.5</ele>
        <time>2016-05-14T13:09:05Z</time>
      </trkpt>
      <trkpt lat="38.136530" lon="-1.327037">
        <ele>115.0</ele>
        <time>2016-05-14T13:09:24Z</time>
      </trkpt>
      <trkpt lat="38.136522" lon="-1.327047">
        <ele>115.0</ele>
        <time>2016-05-14T13:09:29Z</time>
      </trkpt>
      <trkpt lat="38.136477" lon="-1.327106">
        <ele>115.0</ele>
        <time>2016-05-14T13:09:34Z</time>
      </trkpt>
      <trkpt lat="38.136298" lon="-1.327306">
        <ele>113.6</ele>
        <time>2016-05-14T13:09:52Z</time>
      </trkpt>
      <trkpt lat="38.136196" lon="-1.327467">
        <ele>113.6</ele>
        <time>2016-05-14T13:10:05Z</time>
      </trkpt>
      <trkpt lat="38.136117" lon="-1.327724">
        <ele>114.1</ele>
        <time>2016-05-14T13:10:20Z</time>
      </trkpt>
      <trkpt lat="38.136104" lon="-1.327759">
        <ele>113.1</ele>
        <time>2016-05-14T13:10:22Z</time>
      </trkpt>
      <trkpt lat="38.136064" lon="-1.327864">
        <ele>113.6</ele>
        <time>2016-05-14T13:10:29Z</time>
      </trkpt>
      <trkpt lat="38.135943" lon="-1.328105">
        <ele>112.6</ele>
        <time>2016-05-14T13:10:46Z</time>
      </trkpt>
      <trkpt lat="38.135926" lon="-1.328190">
        <ele>113.6</ele>
        <time>2016-05-14T13:10:51Z</time>
      </trkpt>
      <trkpt lat="38.135907" lon="-1.328240">
        <ele>114.1</ele>
        <time>2016-05-14T13:10:55Z</time>
      </trkpt>
      <trkpt lat="38.135901" lon="-1.328255">
        <ele>113.6</ele>
        <time>2016-05-14T13:10:57Z</time>
      </trkpt>
      <trkpt lat="38.135780" lon="-1.328485">
        <ele>114.1</ele>
        <time>2016-05-14T13:11:13Z</time>
      </trkpt>
      <trkpt lat="38.135638" lon="-1.328783">
        <ele>114.5</ele>
        <time>2016-05-14T13:11:32Z</time>
      </trkpt>
      <trkpt lat="38.135515" lon="-1.328976">
        <ele>115.0</ele>
        <time>2016-05-14T13:11:46Z</time>
      </trkpt>
      <trkpt lat="38.135393" lon="-1.329194">
        <ele>115.5</ele>
        <time>2016-05-14T13:12:00Z</time>
      </trkpt>
      <trkpt lat="38.135375" lon="-1.329223">
        <ele>115.0</ele>
        <time>2016-05-14T13:12:02Z</time>
      </trkpt>
      <trkpt lat="38.135275" lon="-1.329362">
        <ele>114.5</ele>
        <time>2016-05-14T13:12:17Z</time>
      </trkpt>
      <trkpt lat="38.135173" lon="-1.329460">
        <ele>113.6</ele>
        <time>2016-05-14T13:12:28Z</time>
      </trkpt>
      <trkpt lat="38.135057" lon="-1.329529">
        <ele>114.5</ele>
        <time>2016-05-14T13:12:39Z</time>
      </trkpt>
      <trkpt lat="38.134806" lon="-1.329646">
        <ele>114.5</ele>
        <time>2016-05-14T13:12:58Z</time>
      </trkpt>
      <trkpt lat="38.134589" lon="-1.329806">
        <ele>114.5</ele>
        <time>2016-05-14T13:13:16Z</time>
      </trkpt>
      <trkpt lat="38.134405" lon="-1.329974">
        <ele>114.1</ele>
        <time>2016-05-14T13:13:32Z</time>
      </trkpt>
      <trkpt lat="38.134486" lon="-1.330081">
        <ele>114.5</ele>
        <time>2016-05-14T13:13:43Z</time>
      </trkpt>
      <trkpt lat="38.134591" lon="-1.330123">
        <ele>115.0</ele>
        <time>2016-05-14T13:14:41Z</time>
      </trkpt>
      <trkpt lat="38.134648" lon="-1.330156">
        <ele>115.0</ele>
        <time>2016-05-14T13:14:46Z</time>
      </trkpt>
      <trkpt lat="38.134949" lon="-1.330249">
        <ele>116.0</ele>
        <time>2016-05-14T13:15:08Z</time>
      </trkpt>
      <trkpt lat="38.135076" lon="-1.330270">
        <ele>115.5</ele>
        <time>2016-05-14T13:15:21Z</time>
      </trkpt>
      <trkpt lat="38.135379" lon="-1.330316">
        <ele>115.5</ele>
        <time>2016-05-14T13:15:43Z</time>
      </trkpt>
      <trkpt lat="38.135655" lon="-1.330311">
        <ele>115.5</ele>
        <time>2016-05-14T13:16:02Z</time>
      </trkpt>
      <trkpt lat="38.135939" lon="-1.330383">
        <ele>116.5</ele>
        <time>2016-05-14T13:16:22Z</time>
      </trkpt>
      <trkpt lat="38.135969" lon="-1.330393">
        <ele>116.5</ele>
        <time>2016-05-14T13:16:24Z</time>
      </trkpt>
      <trkpt lat="38.135996" lon="-1.330409">
        <ele>116.9</ele>
        <time>2016-05-14T13:16:29Z</time>
      </trkpt>
      <trkpt lat="38.136120" lon="-1.330507">
        <ele>117.9</ele>
        <time>2016-05-14T13:16:43Z</time>
      </trkpt>
      <trkpt lat="38.136241" lon="-1.330570">
        <ele>117.4</ele>
        <time>2016-05-14T13:16:53Z</time>
      </trkpt>
      <trkpt lat="38.136349" lon="-1.330604">
        <ele>117.9</ele>
        <time>2016-05-14T13:17:05Z</time>
      </trkpt>
      <trkpt lat="38.136604" lon="-1.330712">
        <ele>118.4</ele>
        <time>2016-05-14T13:17:25Z</time>
      </trkpt>
      <trkpt lat="38.136756" lon="-1.330774">
        <ele>118.9</ele>
        <time>2016-05-14T13:17:38Z</time>
      </trkpt>
      <trkpt lat="38.137007" lon="-1.330928">
        <ele>118.9</ele>
        <time>2016-05-14T13:17:57Z</time>
      </trkpt>
      <trkpt lat="38.137216" lon="-1.331049">
        <ele>118.9</ele>
        <time>2016-05-14T13:18:13Z</time>
      </trkpt>
      <trkpt lat="38.137405" lon="-1.331120">
        <ele>118.4</ele>
        <time>2016-05-14T13:18:30Z</time>
      </trkpt>
      <trkpt lat="38.137519" lon="-1.331192">
        <ele>118.9</ele>
        <time>2016-05-14T13:18:41Z</time>
      </trkpt>
      <trkpt lat="38.137658" lon="-1.331315">
        <ele>120.8</ele>
        <time>2016-05-14T13:18:55Z</time>
      </trkpt>
      <trkpt lat="38.137770" lon="-1.331412">
        <ele>121.3</ele>
        <time>2016-05-14T13:19:08Z</time>
      </trkpt>
      <trkpt lat="38.137826" lon="-1.331483">
        <ele>122.2</ele>
        <time>2016-05-14T13:19:16Z</time>
      </trkpt>
      <trkpt lat="38.137931" lon="-1.331566">
        <ele>123.2</ele>
        <time>2016-05-14T13:19:28Z</time>
      </trkpt>
      <trkpt lat="38.137940" lon="-1.331577">
        <ele>123.2</ele>
        <time>2016-05-14T13:19:29Z</time>
      </trkpt>
      <trkpt lat="38.137991" lon="-1.331619">
        <ele>124.6</ele>
        <time>2016-05-14T13:19:34Z</time>
      </trkpt>
      <trkpt lat="38.138011" lon="-1.331642">
        <ele>123.2</ele>
        <time>2016-05-14T13:20:26Z</time>
      </trkpt>
      <trkpt lat="38.137933" lon="-1.331914">
        <ele>125.1</ele>
        <time>2016-05-14T13:21:47Z</time>
      </trkpt>
      <trkpt lat="38.137892" lon="-1.332072">
        <ele>125.1</ele>
        <time>2016-05-14T13:21:54Z</time>
      </trkpt>
      <trkpt lat="38.137876" lon="-1.332166">
        <ele>125.6</ele>
        <time>2016-05-14T13:22:01Z</time>
      </trkpt>
      <trkpt lat="38.137880" lon="-1.332250">
        <ele>126.1</ele>
        <time>2016-05-14T13:22:12Z</time>
      </trkpt>
      <trkpt lat="38.137947" lon="-1.332333">
        <ele>115.0</ele>
        <time>2016-09-16T14:55:51Z</time>
      </trkpt>
      <trkpt lat="38.137917" lon="-1.332439">
        <ele>116.5</ele>
        <time>2016-09-16T14:56:06Z</time>
      </trkpt>
      <trkpt lat="38.137901" lon="-1.332551">
        <ele>119.8</ele>
        <time>2016-09-16T14:57:38Z</time>
      </trkpt>
      <trkpt lat="38.137917" lon="-1.332662">
        <ele>120.8</ele>
        <time>2016-09-16T14:57:44Z</time>
      </trkpt>
      <trkpt lat="38.137947" lon="-1.332741">
        <ele>120.8</ele>
        <time>2016-09-16T14:57:48Z</time>
      </trkpt>
      <trkpt lat="38.137913" lon="-1.333001">
        <ele>122.2</ele>
        <time>2016-09-16T14:58:03Z</time>
      </trkpt>
      <trkpt lat="38.137899" lon="-1.333101">
        <ele>122.2</ele>
        <time>2016-09-16T14:58:09Z</time>
      </trkpt>
      <trkpt lat="38.137913" lon="-1.333157">
        <ele>122.2</ele>
        <time>2016-09-16T14:58:16Z</time>
      </trkpt>
      <trkpt lat="38.137888" lon="-1.333286">
        <ele>120.8</ele>
        <time>2016-09-16T14:58:23Z</time>
      </trkpt>
      <trkpt lat="38.137842" lon="-1.333570">
        <ele>121.3</ele>
        <time>2016-09-16T14:58:37Z</time>
      </trkpt>
      <trkpt lat="38.137922" lon="-1.333728">
        <ele>122.7</ele>
        <time>2016-09-16T14:58:47Z</time>
      </trkpt>
      <trkpt lat="38.137919" lon="-1.333970">
        <ele>123.7</ele>
        <time>2016-09-16T14:59:04Z</time>
      </trkpt>
      <trkpt lat="38.137945" lon="-1.334061">
        <ele>124.2</ele>
        <time>2016-09-16T14:59:16Z</time>
      </trkpt>
      <trkpt lat="38.137930" lon="-1.334125">
        <ele>123.7</ele>
        <time>2016-09-16T14:59:20Z</time>
      </trkpt>
      <trkpt lat="38.137858" lon="-1.334480">
        <ele>123.2</ele>
        <time>2016-09-16T14:59:39Z</time>
      </trkpt>
      <trkpt lat="38.137887" lon="-1.334629">
        <ele>122.2</ele>
        <time>2016-09-16T14:59:48Z</time>
      </trkpt>
      <trkpt lat="38.137955" lon="-1.334700">
        <ele>120.8</ele>
        <time>2016-09-16T14:59:54Z</time>
      </trkpt>
      <trkpt lat="38.137947" lon="-1.334736">
        <ele>121.3</ele>
        <time>2016-09-16T15:00:01Z</time>
      </trkpt>
      <trkpt lat="38.138102" lon="-1.334911">
        <ele>119.8</ele>
        <time>2016-09-16T15:00:14Z</time>
      </trkpt>
      <trkpt lat="38.138217" lon="-1.335079">
        <ele>118.4</ele>
        <time>2016-09-16T15:00:29Z</time>
      </trkpt>
      <trkpt lat="38.138322" lon="-1.335304">
        <ele>117.9</ele>
        <time>2016-09-16T15:00:44Z</time>
      </trkpt>
      <trkpt lat="38.138431" lon="-1.335555">
        <ele>117.4</ele>
        <time>2016-09-16T15:00:58Z</time>
      </trkpt>
      <trkpt lat="38.138563" lon="-1.335856">
        <ele>118.4</ele>
        <time>2016-09-16T15:01:14Z</time>
      </trkpt>
      <trkpt lat="38.138571" lon="-1.335884">
        <ele>118.9</ele>
        <time>2016-09-16T15:01:16Z</time>
      </trkpt>
      <trkpt lat="38.138728" lon="-1.336098">
        <ele>121.3</ele>
        <time>2016-09-16T15:01:32Z</time>
      </trkpt>
      <trkpt lat="38.138856" lon="-1.336165">
        <ele>123.2</ele>
        <time>2016-09-16T15:01:44Z</time>
      </trkpt>
      <trkpt lat="38.139041" lon="-1.336186">
        <ele>124.6</ele>
        <time>2016-09-16T15:02:01Z</time>
      </trkpt>
      <trkpt lat="38.139253" lon="-1.336168">
        <ele>126.6</ele>
        <time>2016-09-16T15:02:17Z</time>
      </trkpt>
      <trkpt lat="38.139359" lon="-1.336233">
        <ele>127.0</ele>
        <time>2016-09-16T15:02:27Z</time>
      </trkpt>
      <trkpt lat="38.139381" lon="-1.336260">
        <ele>126.1</ele>
        <time>2016-09-16T15:02:33Z</time>
      </trkpt>
      <trkpt lat="38.139508" lon="-1.336631">
        <ele>127.0</ele>
        <time>2016-09-16T15:02:53Z</time>
      </trkpt>
      <trkpt lat="38.139674" lon="-1.336851">
        <ele>126.6</ele>
        <time>2016-09-16T15:03:11Z</time>
      </trkpt>
      <trkpt lat="38.139880" lon="-1.337034">
        <ele>125.6</ele>
        <time>2016-09-16T15:03:29Z</time>
      </trkpt>
      <trkpt lat="38.140044" lon="-1.337262">
        <ele>126.6</ele>
        <time>2016-09-16T15:03:46Z</time>
      </trkpt>
      <trkpt lat="38.140215" lon="-1.337510">
        <ele>127.5</ele>
        <time>2016-09-16T15:04:03Z</time>
      </trkpt>
      <trkpt lat="38.140264" lon="-1.337555">
        <ele>129.9</ele>
        <time>2016-09-16T15:04:08Z</time>
      </trkpt>
      <trkpt lat="38.140327" lon="-1.337597">
        <ele>129.9</ele>
        <time>2016-09-16T15:04:14Z</time>
      </trkpt>
      <trkpt lat="38.140428" lon="-1.337833">
        <ele>132.8</ele>
        <time>2016-09-16T15:04:30Z</time>
      </trkpt>
      <trkpt lat="38.140463" lon="-1.338138">
        <ele>134.7</ele>
        <time>2016-09-16T15:04:47Z</time>
      </trkpt>
      <trkpt lat="38.140469" lon="-1.338153">
        <ele>134.7</ele>
        <time>2016-09-16T15:04:48Z</time>
      </trkpt>
      <trkpt lat="38.140518" lon="-1.338164">
        <ele>134.7</ele>
        <time>2016-09-16T15:04:52Z</time>
      </trkpt>
      <trkpt lat="38.140629" lon="-1.338126">
        <ele>134.2</ele>
        <time>2016-09-16T15:05:01Z</time>
      </trkpt>
      <trkpt lat="38.140799" lon="-1.338112">
        <ele>132.3</ele>
        <time>2016-09-16T15:05:14Z</time>
      </trkpt>
      <trkpt lat="38.140829" lon="-1.338152">
        <ele>132.3</ele>
        <time>2016-09-16T15:05:27Z</time>
      </trkpt>
      <trkpt lat="38.140835" lon="-1.338158">
        <ele>132.3</ele>
        <time>2016-09-16T15:05:42Z</time>
      </trkpt>
      <trkpt lat="38.141000" lon="-1.338301">
        <ele>131.8</ele>
        <time>2016-09-16T15:05:57Z</time>
      </trkpt>
      <trkpt lat="38.141104" lon="-1.338375">
        <ele>130.9</ele>
        <time>2016-09-16T15:06:08Z</time>
      </trkpt>
      <trkpt lat="38.141350" lon="-1.338382">
        <ele>127.5</ele>
        <time>2016-09-16T15:06:25Z</time>
      </trkpt>
      <trkpt lat="38.141365" lon="-1.338378">
        <ele>130.9</ele>
        <time>2016-09-16T15:06:26Z</time>
      </trkpt>
      <trkpt lat="38.141410" lon="-1.338378">
        <ele>128.5</ele>
        <time>2016-09-16T15:06:29Z</time>
      </trkpt>
      <trkpt lat="38.141423" lon="-1.338381">
        <ele>133.8</ele>
        <time>2016-09-16T15:06:30Z</time>
      </trkpt>
      <trkpt lat="38.141434" lon="-1.338382">
        <ele>133.8</ele>
        <time>2016-09-16T15:06:31Z</time>
      </trkpt>
      <trkpt lat="38.141621" lon="-1.338433">
        <ele>132.3</ele>
        <time>2016-09-16T15:06:46Z</time>
      </trkpt>
      <trkpt lat="38.141688" lon="-1.338426">
        <ele>131.8</ele>
        <time>2016-09-16T15:06:51Z</time>
      </trkpt>
      <trkpt lat="38.141919" lon="-1.338372">
        <ele>131.8</ele>
        <time>2016-09-16T15:07:08Z</time>
      </trkpt>
      <trkpt lat="38.142158" lon="-1.338344">
        <ele>132.8</ele>
        <time>2016-09-16T15:07:25Z</time>
      </trkpt>
      <trkpt lat="38.142169" lon="-1.338347">
        <ele>132.8</ele>
        <time>2016-09-16T15:07:26Z</time>
      </trkpt>
      <trkpt lat="38.142188" lon="-1.338339">
        <ele>133.3</ele>
        <time>2016-09-16T15:07:28Z</time>
      </trkpt>
      <trkpt lat="38.142418" lon="-1.338318">
        <ele>133.3</ele>
        <time>2016-09-16T15:07:46Z</time>
      </trkpt>
      <trkpt lat="38.142623" lon="-1.338364">
        <ele>131.4</ele>
        <time>2016-09-16T15:08:02Z</time>
      </trkpt>
      <trkpt lat="38.142828" lon="-1.338498">
        <ele>129.9</ele>
        <time>2016-09-16T15:08:20Z</time>
      </trkpt>
      <trkpt lat="38.142837" lon="-1.338511">
        <ele>129.4</ele>
        <time>2016-09-16T15:08:21Z</time>
      </trkpt>
      <trkpt lat="38.143032" lon="-1.338703">
        <ele>129.4</ele>
        <time>2016-09-16T15:08:40Z</time>
      </trkpt>
      <trkpt lat="38.143289" lon="-1.338720">
        <ele>130.9</ele>
        <time>2016-09-16T15:08:58Z</time>
      </trkpt>
      <trkpt lat="38.143530" lon="-1.338549">
        <ele>131.8</ele>
        <time>2016-09-16T15:09:17Z</time>
      </trkpt>
      <trkpt lat="38.143739" lon="-1.338576">
        <ele>133.3</ele>
        <time>2016-09-16T15:09:34Z</time>
      </trkpt>
      <trkpt lat="38.143917" lon="-1.338626">
        <ele>133.8</ele>
        <time>2016-09-16T15:09:49Z</time>
      </trkpt>
      <trkpt lat="38.144077" lon="-1.338799">
        <ele>133.3</ele>
        <time>2016-09-16T15:10:06Z</time>
      </trkpt>
      <trkpt lat="38.144302" lon="-1.338868">
        <ele>131.8</ele>
        <time>2016-09-16T15:10:23Z</time>
      </trkpt>
      <trkpt lat="38.144496" lon="-1.338825">
        <ele>128.5</ele>
        <time>2016-09-16T15:10:38Z</time>
      </trkpt>
      <trkpt lat="38.144755" lon="-1.338823">
        <ele>127.0</ele>
        <time>2016-09-16T15:10:58Z</time>
      </trkpt>
      <trkpt lat="38.144997" lon="-1.338746">
        <ele>125.6</ele>
        <time>2016-09-16T15:11:16Z</time>
      </trkpt>
      <trkpt lat="38.145243" lon="-1.338765">
        <ele>124.2</ele>
        <time>2016-09-16T15:11:35Z</time>
      </trkpt>
      <trkpt lat="38.145445" lon="-1.338704">
        <ele>124.2</ele>
        <time>2016-09-16T15:11:51Z</time>
      </trkpt>
      <trkpt lat="38.145540" lon="-1.338669">
        <ele>124.2</ele>
        <time>2016-09-16T15:11:58Z</time>
      </trkpt>
      <trkpt lat="38.145766" lon="-1.338712">
        <ele>123.7</ele>
        <time>2016-09-16T15:12:17Z</time>
      </trkpt>
      <trkpt lat="38.145912" lon="-1.338770">
        <ele>121.7</ele>
        <time>2016-09-16T15:12:29Z</time>
      </trkpt>
      <trkpt lat="38.145923" lon="-1.338775">
        <ele>120.8</ele>
        <time>2016-09-16T15:12:30Z</time>
      </trkpt>
      <trkpt lat="38.146072" lon="-1.338915">
        <ele>117.9</ele>
        <time>2016-09-16T15:12:45Z</time>
      </trkpt>
      <trkpt lat="38.146077" lon="-1.338923">
        <ele>117.9</ele>
        <time>2016-09-16T15:12:49Z</time>
      </trkpt>
      <trkpt lat="38.146080" lon="-1.338999">
        <ele>116.9</ele>
        <time>2016-09-16T15:12:53Z</time>
      </trkpt>
      <trkpt lat="38.146077" lon="-1.339085">
        <ele>115.5</ele>
        <time>2016-09-16T15:12:57Z</time>
      </trkpt>
      <trkpt lat="38.146061" lon="-1.339289">
        <ele>112.1</ele>
        <time>2016-09-16T15:13:07Z</time>
      </trkpt>
      <trkpt lat="38.146068" lon="-1.339412">
        <ele>111.2</ele>
        <time>2016-09-16T15:13:15Z</time>
      </trkpt>
      <trkpt lat="38.146143" lon="-1.339442">
        <ele>110.7</ele>
        <time>2016-09-16T15:13:21Z</time>
      </trkpt>
      <trkpt lat="38.146196" lon="-1.339442">
        <ele>110.2</ele>
        <time>2016-09-16T15:13:25Z</time>
      </trkpt>
      <trkpt lat="38.146413" lon="-1.339437">
        <ele>110.2</ele>
        <time>2016-09-16T15:13:42Z</time>
      </trkpt>
      <trkpt lat="38.146597" lon="-1.339446">
        <ele>109.2</ele>
        <time>2016-09-16T15:13:56Z</time>
      </trkpt>
      <trkpt lat="38.146742" lon="-1.339442">
        <ele>108.8</ele>
        <time>2016-09-16T15:14:07Z</time>
      </trkpt>
      <trkpt lat="38.146765" lon="-1.339389">
        <ele>110.2</ele>
        <time>2016-09-16T15:14:11Z</time>
      </trkpt>
      <trkpt lat="38.146783" lon="-1.339292">
        <ele>110.7</ele>
        <time>2016-09-16T15:14:19Z</time>
      </trkpt>
      <trkpt lat="38.146782" lon="-1.339442">
        <ele>113.6</ele>
        <time>2016-09-16T15:14:32Z</time>
      </trkpt>
      <trkpt lat="38.146783" lon="-1.339450">
        <ele>113.6</ele>
        <time>2016-09-16T15:14:33Z</time>
      </trkpt>
      <trkpt lat="38.146768" lon="-1.339643">
        <ele>113.1</ele>
        <time>2016-09-16T15:14:47Z</time>
      </trkpt>
      <trkpt lat="38.146764" lon="-1.339756">
        <ele>113.1</ele>
        <time>2016-09-16T15:14:57Z</time>
      </trkpt>
      <trkpt lat="38.146757" lon="-1.339790">
        <ele>113.1</ele>
        <time>2016-09-16T15:15:00Z</time>
      </trkpt>
      <trkpt lat="38.146774" lon="-1.339999">
        <ele>111.7</ele>
        <time>2016-09-16T15:15:15Z</time>
      </trkpt>
      <trkpt lat="38.146748" lon="-1.340158">
        <ele>113.1</ele>
        <time>2016-09-16T15:15:28Z</time>
      </trkpt>
      <trkpt lat="38.146667" lon="-1.340148">
        <ele>112.1</ele>
        <time>2016-09-16T15:15:33Z</time>
      </trkpt>
      <trkpt lat="38.146591" lon="-1.340179">
        <ele>112.6</ele>
        <time>2016-09-16T15:15:38Z</time>
      </trkpt>
      <trkpt lat="38.146574" lon="-1.340280">
        <ele>113.1</ele>
        <time>2016-09-16T15:15:44Z</time>
      </trkpt>
      <trkpt lat="38.146587" lon="-1.340369">
        <ele>113.1</ele>
        <time>2016-09-16T15:15:53Z</time>
      </trkpt>
      <trkpt lat="38.146627" lon="-1.340724">
        <ele>114.1</ele>
        <time>2016-09-16T15:16:12Z</time>
      </trkpt>
      <trkpt lat="38.146736" lon="-1.341058">
        <ele>115.0</ele>
        <time>2016-09-16T15:16:31Z</time>
      </trkpt>
      <trkpt lat="38.146798" lon="-1.341140">
        <ele>115.0</ele>
        <time>2016-09-16T15:16:38Z</time>
      </trkpt>
      <trkpt lat="38.146836" lon="-1.341270">
        <ele>116.5</ele>
        <time>2016-09-16T15:16:47Z</time>
      </trkpt>
      <trkpt lat="38.146871" lon="-1.341330">
        <ele>116.5</ele>
        <time>2016-09-16T15:16:51Z</time>
      </trkpt>
      <trkpt lat="38.146959" lon="-1.341634">
        <ele>116.5</ele>
        <time>2016-09-16T15:17:09Z</time>
      </trkpt>
      <trkpt lat="38.146983" lon="-1.341737">
        <ele>116.5</ele>
        <time>2016-09-16T15:17:14Z</time>
      </trkpt>
      <trkpt lat="38.146990" lon="-1.342005">
        <ele>116.9</ele>
        <time>2016-09-16T15:17:29Z</time>
      </trkpt>
      <trkpt lat="38.147035" lon="-1.342278">
        <ele>116.9</ele>
        <time>2016-09-16T15:17:44Z</time>
      </trkpt>
      <trkpt lat="38.147086" lon="-1.342312">
        <ele>116.5</ele>
        <time>2016-09-16T15:17:57Z</time>
      </trkpt>
      <trkpt lat="38.147114" lon="-1.342303">
        <ele>117.9</ele>
        <time>2016-09-16T15:18:00Z</time>
      </trkpt>
      <trkpt lat="38.147310" lon="-1.342272">
        <ele>116.9</ele>
        <time>2016-09-16T15:18:14Z</time>
      </trkpt>
      <trkpt lat="38.147574" lon="-1.342211">
        <ele>119.3</ele>
        <time>2016-09-16T15:18:31Z</time>
      </trkpt>
      <trkpt lat="38.147737" lon="-1.342130">
        <ele>113.1</ele>
        <time>2016-09-16T15:18:40Z</time>
      </trkpt>
      <trkpt lat="38.147758" lon="-1.342124">
        <ele>115.0</ele>
        <time>2016-09-16T15:18:41Z</time>
      </trkpt>
      <trkpt lat="38.147780" lon="-1.342121">
        <ele>125.1</ele>
        <time>2016-09-16T15:18:42Z</time>
      </trkpt>
      <trkpt lat="38.147799" lon="-1.342119">
        <ele>123.2</ele>
        <time>2016-09-16T15:18:43Z</time>
      </trkpt>
      <trkpt lat="38.147823" lon="-1.342116">
        <ele>120.8</ele>
        <time>2016-09-16T15:18:45Z</time>
      </trkpt>
      <trkpt lat="38.147970" lon="-1.342138">
        <ele>120.8</ele>
        <time>2016-09-16T15:19:00Z</time>
      </trkpt>
      <trkpt lat="38.148127" lon="-1.342200">
        <ele>121.3</ele>
        <time>2016-09-16T15:19:15Z</time>
      </trkpt>
      <trkpt lat="38.148171" lon="-1.342245">
        <ele>120.8</ele>
        <time>2016-09-16T15:19:21Z</time>
      </trkpt>
      <trkpt lat="38.148266" lon="-1.342309">
        <ele>121.3</ele>
        <time>2016-09-16T15:19:34Z</time>
      </trkpt>
      <trkpt lat="38.148535" lon="-1.342454">
        <ele>121.3</ele>
        <time>2016-09-16T15:22:47Z</time>
      </trkpt>
      <trkpt lat="38.148587" lon="-1.342510">
        <ele>121.3</ele>
        <time>2016-09-16T15:22:51Z</time>
      </trkpt>
      <trkpt lat="38.148673" lon="-1.342606">
        <ele>121.7</ele>
        <time>2016-09-16T15:23:03Z</time>
      </trkpt>
      <trkpt lat="38.148764" lon="-1.342695">
        <ele>121.7</ele>
        <time>2016-09-16T15:23:12Z</time>
      </trkpt>
      <trkpt lat="38.148945" lon="-1.342792">
        <ele>122.2</ele>
        <time>2016-09-16T15:23:25Z</time>
      </trkpt>
      <trkpt lat="38.149013" lon="-1.342810">
        <ele>122.7</ele>
        <time>2016-09-16T15:23:43Z</time>
      </trkpt>
      <trkpt lat="38.149051" lon="-1.342845">
        <ele>122.7</ele>
        <time>2016-09-16T15:23:47Z</time>
      </trkpt>
      <trkpt lat="38.149235" lon="-1.342921">
        <ele>122.7</ele>
        <time>2016-09-16T15:24:00Z</time>
      </trkpt>
      <trkpt lat="38.149476" lon="-1.343091">
        <ele>122.7</ele>
        <time>2016-09-16T15:24:17Z</time>
      </trkpt>
      <trkpt lat="38.149679" lon="-1.343211">
        <ele>122.7</ele>
        <time>2016-09-16T15:24:32Z</time>
      </trkpt>
      <trkpt lat="38.149903" lon="-1.343321">
        <ele>123.7</ele>
        <time>2016-09-16T15:24:48Z</time>
      </trkpt>
      <trkpt lat="38.150122" lon="-1.343491">
        <ele>123.7</ele>
        <time>2016-09-16T15:25:05Z</time>
      </trkpt>
      <trkpt lat="38.150190" lon="-1.343553">
        <ele>123.7</ele>
        <time>2016-09-16T15:25:13Z</time>
      </trkpt>
      <trkpt lat="38.150219" lon="-1.343586">
        <ele>122.2</ele>
        <time>2016-09-16T15:25:16Z</time>
      </trkpt>
      <trkpt lat="38.150231" lon="-1.343604">
        <ele>123.2</ele>
        <time>2016-09-16T15:25:17Z</time>
      </trkpt>
      <trkpt lat="38.150338" lon="-1.343725">
        <ele>125.1</ele>
        <time>2016-09-16T15:25:32Z</time>
      </trkpt>
      <trkpt lat="38.150339" lon="-1.343738">
        <ele>125.1</ele>
        <time>2016-09-16T15:25:40Z</time>
      </trkpt>
      <trkpt lat="38.150366" lon="-1.343745">
        <ele>125.6</ele>
        <time>2016-09-16T15:25:42Z</time>
      </trkpt>
      <trkpt lat="38.150423" lon="-1.343785">
        <ele>126.6</ele>
        <time>2016-09-16T15:25:46Z</time>
      </trkpt>
      <trkpt lat="38.150592" lon="-1.343811">
        <ele>123.2</ele>
        <time>2016-09-16T15:25:57Z</time>
      </trkpt>
      <trkpt lat="38.150629" lon="-1.343818">
        <ele>127.5</ele>
        <time>2016-09-16T15:26:00Z</time>
      </trkpt>
      <trkpt lat="38.150644" lon="-1.343820">
        <ele>127.0</ele>
        <time>2016-09-16T15:26:01Z</time>
      </trkpt>
      <trkpt lat="38.150896" lon="-1.343900">
        <ele>124.2</ele>
        <time>2016-09-16T15:26:17Z</time>
      </trkpt>
      <trkpt lat="38.151091" lon="-1.344048">
        <ele>126.1</ele>
        <time>2016-09-16T15:26:32Z</time>
      </trkpt>
      <trkpt lat="38.151197" lon="-1.344116">
        <ele>126.1</ele>
        <time>2016-09-16T15:26:40Z</time>
      </trkpt>
      <trkpt lat="38.151246" lon="-1.344147">
        <ele>126.1</ele>
        <time>2016-09-16T15:26:44Z</time>
      </trkpt>
      <trkpt lat="38.151574" lon="-1.344255">
        <ele>128.9</ele>
        <time>2016-09-16T15:27:17Z</time>
      </trkpt>
      <trkpt lat="38.151574" lon="-1.344259">
        <ele>128.5</ele>
        <time>2016-09-16T15:27:22Z</time>
      </trkpt>
      <trkpt lat="38.151626" lon="-1.344284">
        <ele>128.9</ele>
        <time>2016-09-16T15:27:30Z</time>
      </trkpt>
      <trkpt lat="38.151658" lon="-1.344297">
        <ele>128.5</ele>
        <time>2016-09-16T15:27:33Z</time>
      </trkpt>
      <trkpt lat="38.151711" lon="-1.344345">
        <ele>128.5</ele>
        <time>2016-09-16T15:27:37Z</time>
      </trkpt>
      <trkpt lat="38.151941" lon="-1.344443">
        <ele>128.9</ele>
        <time>2016-09-16T15:27:53Z</time>
      </trkpt>
      <trkpt lat="38.152187" lon="-1.344633">
        <ele>128.0</ele>
        <time>2016-09-16T15:28:10Z</time>
      </trkpt>
      <trkpt lat="38.152308" lon="-1.344845">
        <ele>127.5</ele>
        <time>2016-09-16T15:28:25Z</time>
      </trkpt>
      <trkpt lat="38.152347" lon="-1.344922">
        <ele>127.5</ele>
        <time>2016-09-16T15:28:31Z</time>
      </trkpt>
      <trkpt lat="38.152461" lon="-1.345190">
        <ele>126.6</ele>
        <time>2016-09-16T15:28:50Z</time>
      </trkpt>
      <trkpt lat="38.152483" lon="-1.345237">
        <ele>127.0</ele>
        <time>2016-09-16T15:28:55Z</time>
      </trkpt>
      <trkpt lat="38.152588" lon="-1.345356">
        <ele>126.1</ele>
        <time>2016-09-16T15:29:09Z</time>
      </trkpt>
      <trkpt lat="38.152591" lon="-1.345364">
        <ele>127.0</ele>
        <time>2016-09-16T15:29:33Z</time>
      </trkpt>
      <trkpt lat="38.152601" lon="-1.345636">
        <ele>128.0</ele>
        <time>2016-09-16T15:29:47Z</time>
      </trkpt>
      <trkpt lat="38.152658" lon="-1.345940">
        <ele>128.5</ele>
        <time>2016-09-16T15:30:05Z</time>
      </trkpt>
      <trkpt lat="38.152790" lon="-1.346119">
        <ele>129.4</ele>
        <time>2016-09-16T15:30:21Z</time>
      </trkpt>
      <trkpt lat="38.152862" lon="-1.346147">
        <ele>128.9</ele>
        <time>2016-09-16T15:30:27Z</time>
      </trkpt>
      <trkpt lat="38.152928" lon="-1.346136">
        <ele>128.5</ele>
        <time>2016-09-16T15:30:32Z</time>
      </trkpt>
      <trkpt lat="38.152982" lon="-1.346153">
        <ele>128.5</ele>
        <time>2016-09-16T15:30:36Z</time>
      </trkpt>
      <trkpt lat="38.153207" lon="-1.346300">
        <ele>128.0</ele>
        <time>2016-09-16T15:30:53Z</time>
      </trkpt>
      <trkpt lat="38.153386" lon="-1.346509">
        <ele>126.1</ele>
        <time>2016-09-16T15:31:10Z</time>
      </trkpt>
      <trkpt lat="38.153421" lon="-1.346557">
        <ele>126.6</ele>
        <time>2016-09-16T15:31:14Z</time>
      </trkpt>
      <trkpt lat="38.153550" lon="-1.346753">
        <ele>128.0</ele>
        <time>2016-09-16T15:31:29Z</time>
      </trkpt>
      <trkpt lat="38.153752" lon="-1.347029">
        <ele>129.4</ele>
        <time>2016-09-16T15:31:48Z</time>
      </trkpt>
      <trkpt lat="38.153780" lon="-1.347079">
        <ele>129.4</ele>
        <time>2016-09-16T15:31:51Z</time>
      </trkpt>
      <trkpt lat="38.153937" lon="-1.347295">
        <ele>130.9</ele>
        <time>2016-09-16T15:32:07Z</time>
      </trkpt>
      <trkpt lat="38.154004" lon="-1.347320">
        <ele>131.4</ele>
        <time>2016-09-16T15:32:13Z</time>
      </trkpt>
      <trkpt lat="38.154112" lon="-1.347351">
        <ele>131.8</ele>
        <time>2016-09-16T15:32:28Z</time>
      </trkpt>
      <trkpt lat="38.154120" lon="-1.347348">
        <ele>131.8</ele>
        <time>2016-09-16T15:32:36Z</time>
      </trkpt>
      <trkpt lat="38.154141" lon="-1.347386">
        <ele>130.4</ele>
        <time>2016-09-16T15:32:39Z</time>
      </trkpt>
      <trkpt lat="38.154238" lon="-1.347542">
        <ele>132.8</ele>
        <time>2016-09-16T15:32:52Z</time>
      </trkpt>
      <trkpt lat="38.154259" lon="-1.347640">
        <ele>133.3</ele>
        <time>2016-09-16T15:33:03Z</time>
      </trkpt>
      <trkpt lat="38.154260" lon="-1.347706">
        <ele>133.3</ele>
        <time>2016-09-16T15:33:07Z</time>
      </trkpt>
      <trkpt lat="38.154293" lon="-1.347785">
        <ele>133.8</ele>
        <time>2016-09-16T15:33:11Z</time>
      </trkpt>
      <trkpt lat="38.154384" lon="-1.348043">
        <ele>135.2</ele>
        <time>2016-09-16T15:33:26Z</time>
      </trkpt>
      <trkpt lat="38.154528" lon="-1.348300">
        <ele>136.2</ele>
        <time>2016-09-16T15:34:20Z</time>
      </trkpt>
      <trkpt lat="38.154624" lon="-1.348589">
        <ele>136.6</ele>
        <time>2016-09-16T15:34:36Z</time>
      </trkpt>
      <trkpt lat="38.154685" lon="-1.348674">
        <ele>138.1</ele>
        <time>2016-09-16T15:34:42Z</time>
      </trkpt>
      <trkpt lat="38.154691" lon="-1.348731">
        <ele>135.7</ele>
        <time>2016-09-16T15:34:45Z</time>
      </trkpt>
      <trkpt lat="38.154696" lon="-1.348782">
        <ele>138.6</ele>
        <time>2016-09-16T15:34:48Z</time>
      </trkpt>
      <trkpt lat="38.154712" lon="-1.348851">
        <ele>136.2</ele>
        <time>2016-09-16T15:34:52Z</time>
      </trkpt>
      <trkpt lat="38.154736" lon="-1.348896">
        <ele>138.6</ele>
        <time>2016-09-16T15:34:55Z</time>
      </trkpt>
      <trkpt lat="38.154830" lon="-1.349127">
        <ele>136.6</ele>
        <time>2016-09-16T15:35:09Z</time>
      </trkpt>
      <trkpt lat="38.154870" lon="-1.349167">
        <ele>136.6</ele>
        <time>2016-09-16T15:35:15Z</time>
      </trkpt>
      <trkpt lat="38.154902" lon="-1.349258">
        <ele>137.1</ele>
        <time>2016-09-16T15:35:22Z</time>
      </trkpt>
      <trkpt lat="38.154943" lon="-1.349375">
        <ele>133.8</ele>
        <time>2016-09-16T15:35:28Z</time>
      </trkpt>
      <trkpt lat="38.154957" lon="-1.349400">
        <ele>139.5</ele>
        <time>2016-09-16T15:35:30Z</time>
      </trkpt>
      <trkpt lat="38.154966" lon="-1.349415">
        <ele>136.2</ele>
        <time>2016-09-16T15:35:32Z</time>
      </trkpt>
      <trkpt lat="38.155088" lon="-1.349560">
        <ele>134.7</ele>
        <time>2016-09-16T15:35:42Z</time>
      </trkpt>
      <trkpt lat="38.155295" lon="-1.349743">
        <ele>133.8</ele>
        <time>2016-09-16T15:35:57Z</time>
      </trkpt>
      <trkpt lat="38.155567" lon="-1.349949">
        <ele>135.2</ele>
        <time>2016-09-16T15:36:13Z</time>
      </trkpt>
      <trkpt lat="38.155598" lon="-1.350003">
        <ele>135.2</ele>
        <time>2016-09-16T15:36:16Z</time>
      </trkpt>
      <trkpt lat="38.155667" lon="-1.350180">
        <ele>136.6</ele>
        <time>2016-09-16T15:36:31Z</time>
      </trkpt>
      <trkpt lat="38.155703" lon="-1.350288">
        <ele>137.6</ele>
        <time>2016-09-16T15:36:38Z</time>
      </trkpt>
      <trkpt lat="38.155720" lon="-1.350341">
        <ele>137.6</ele>
        <time>2016-09-16T15:36:42Z</time>
      </trkpt>
      <trkpt lat="38.155784" lon="-1.350393">
        <ele>138.1</ele>
        <time>2016-09-16T15:36:48Z</time>
      </trkpt>
      <trkpt lat="38.155960" lon="-1.350563">
        <ele>139.5</ele>
        <time>2016-09-16T15:37:01Z</time>
      </trkpt>
      <trkpt lat="38.155962" lon="-1.350618">
        <ele>140.0</ele>
        <time>2016-09-16T15:37:03Z</time>
      </trkpt>
      <trkpt lat="38.155970" lon="-1.350710">
        <ele>140.5</ele>
        <time>2016-09-16T15:37:07Z</time>
      </trkpt>
      <trkpt lat="38.156040" lon="-1.350889">
        <ele>141.0</ele>
        <time>2016-09-16T15:37:17Z</time>
      </trkpt>
      <trkpt lat="38.156099" lon="-1.351009">
        <ele>142.4</ele>
        <time>2016-09-16T15:37:24Z</time>
      </trkpt>
      <trkpt lat="38.156166" lon="-1.351062">
        <ele>142.4</ele>
        <time>2016-09-16T15:37:30Z</time>
      </trkpt>
      <trkpt lat="38.156241" lon="-1.351089">
        <ele>143.4</ele>
        <time>2016-09-16T15:37:35Z</time>
      </trkpt>
      <trkpt lat="38.156446" lon="-1.351146">
        <ele>145.8</ele>
        <time>2016-09-16T15:37:50Z</time>
      </trkpt>
      <trkpt lat="38.156659" lon="-1.351136">
        <ele>145.8</ele>
        <time>2016-09-16T15:38:05Z</time>
      </trkpt>
      <trkpt lat="38.156842" lon="-1.351166">
        <ele>146.7</ele>
        <time>2016-09-16T15:38:18Z</time>
      </trkpt>
      <trkpt lat="38.157040" lon="-1.351118">
        <ele>149.1</ele>
        <time>2016-09-16T15:38:32Z</time>
      </trkpt>
      <trkpt lat="38.157202" lon="-1.351047">
        <ele>150.6</ele>
        <time>2016-09-16T15:38:44Z</time>
      </trkpt>
      <trkpt lat="38.157386" lon="-1.350832">
        <ele>153.0</ele>
        <time>2016-09-16T15:39:01Z</time>
      </trkpt>
      <trkpt lat="38.157440" lon="-1.350790">
        <ele>153.9</ele>
        <time>2016-09-16T15:39:06Z</time>
      </trkpt>
      <trkpt lat="38.157635" lon="-1.350702">
        <ele>156.4</ele>
        <time>2016-09-16T15:39:20Z</time>
      </trkpt>
      <trkpt lat="38.157798" lon="-1.350658">
        <ele>158.3</ele>
        <time>2016-09-16T15:39:34Z</time>
      </trkpt>
      <trkpt lat="38.157918" lon="-1.350630">
        <ele>159.2</ele>
        <time>2016-09-16T15:39:45Z</time>
      </trkpt>
      <trkpt lat="38.158055" lon="-1.350611">
        <ele>159.2</ele>
        <time>2016-09-16T15:39:56Z</time>
      </trkpt>
      <trkpt lat="38.158204" lon="-1.350499">
        <ele>160.7</ele>
        <time>2016-09-16T15:40:10Z</time>
      </trkpt>
      <trkpt lat="38.158314" lon="-1.350476">
        <ele>162.1</ele>
        <time>2016-09-16T15:40:17Z</time>
      </trkpt>
      <trkpt lat="38.158348" lon="-1.350472">
        <ele>161.6</ele>
        <time>2016-09-16T15:40:19Z</time>
      </trkpt>
      <trkpt lat="38.158399" lon="-1.350455">
        <ele>161.6</ele>
        <time>2016-09-16T15:40:23Z</time>
      </trkpt>
      <trkpt lat="38.158422" lon="-1.350424">
        <ele>162.6</ele>
        <time>2016-09-16T15:40:25Z</time>
      </trkpt>
      <trkpt lat="38.158463" lon="-1.350401">
        <ele>162.6</ele>
        <time>2016-09-16T15:40:29Z</time>
      </trkpt>
      <trkpt lat="38.158585" lon="-1.350366">
        <ele>163.1</ele>
        <time>2016-09-16T15:40:38Z</time>
      </trkpt>
      <trkpt lat="38.158791" lon="-1.350283">
        <ele>165.5</ele>
        <time>2016-09-16T15:40:54Z</time>
      </trkpt>
      <trkpt lat="38.158912" lon="-1.350214">
        <ele>164.5</ele>
        <time>2016-09-16T15:41:06Z</time>
      </trkpt>
      <trkpt lat="38.159063" lon="-1.350238">
        <ele>162.1</ele>
        <time>2016-09-16T15:41:17Z</time>
      </trkpt>
      <trkpt lat="38.159119" lon="-1.350201">
        <ele>163.1</ele>
        <time>2016-09-16T15:41:21Z</time>
      </trkpt>
      <trkpt lat="38.159233" lon="-1.350150">
        <ele>160.7</ele>
        <time>2016-09-16T15:42:09Z</time>
      </trkpt>
      <trkpt lat="38.159364" lon="-1.350280">
        <ele>158.8</ele>
        <time>2016-09-16T15:42:24Z</time>
      </trkpt>
      <trkpt lat="38.159377" lon="-1.350324">
        <ele>158.8</ele>
        <time>2016-09-16T15:42:27Z</time>
      </trkpt>
      <trkpt lat="38.159405" lon="-1.350466">
        <ele>157.8</ele>
        <time>2016-09-16T15:42:36Z</time>
      </trkpt>
      <trkpt lat="38.159438" lon="-1.350508">
        <ele>156.8</ele>
        <time>2016-09-16T15:42:41Z</time>
      </trkpt>
      <trkpt lat="38.159556" lon="-1.350743">
        <ele>154.4</ele>
        <time>2016-09-16T15:42:58Z</time>
      </trkpt>
      <trkpt lat="38.159570" lon="-1.351062">
        <ele>152.5</ele>
        <time>2016-09-16T15:43:17Z</time>
      </trkpt>
      <trkpt lat="38.159627" lon="-1.351290">
        <ele>150.1</ele>
        <time>2016-09-16T15:43:31Z</time>
      </trkpt>
      <trkpt lat="38.159663" lon="-1.351463">
        <ele>149.6</ele>
        <time>2016-09-16T15:43:44Z</time>
      </trkpt>
      <trkpt lat="38.159693" lon="-1.351480">
        <ele>150.1</ele>
        <time>2016-09-16T15:43:54Z</time>
      </trkpt>
      <trkpt lat="38.159830" lon="-1.351612">
        <ele>148.2</ele>
        <time>2016-09-16T15:44:10Z</time>
      </trkpt>
      <trkpt lat="38.159844" lon="-1.351604">
        <ele>147.2</ele>
        <time>2016-09-16T15:44:14Z</time>
      </trkpt>
      <trkpt lat="38.159999" lon="-1.351816">
        <ele>144.8</ele>
        <time>2016-09-16T15:44:28Z</time>
      </trkpt>
      <trkpt lat="38.160115" lon="-1.351914">
        <ele>143.4</ele>
        <time>2016-09-16T15:44:39Z</time>
      </trkpt>
      <trkpt lat="38.160239" lon="-1.352030">
        <ele>141.9</ele>
        <time>2016-09-16T15:44:52Z</time>
      </trkpt>
      <trkpt lat="38.160343" lon="-1.352097">
        <ele>141.4</ele>
        <time>2016-09-16T15:45:01Z</time>
      </trkpt>
      <trkpt lat="38.160396" lon="-1.352165">
        <ele>141.9</ele>
        <time>2016-09-16T15:45:11Z</time>
      </trkpt>
      <trkpt lat="38.160449" lon="-1.352208">
        <ele>142.4</ele>
        <time>2016-09-16T15:45:16Z</time>
      </trkpt>
      <trkpt lat="38.160648" lon="-1.352288">
        <ele>141.9</ele>
        <time>2016-09-16T15:45:32Z</time>
      </trkpt>
      <trkpt lat="38.160657" lon="-1.352288">
        <ele>141.4</ele>
        <time>2016-09-16T15:45:33Z</time>
      </trkpt>
      <trkpt lat="38.160692" lon="-1.352307">
        <ele>141.4</ele>
        <time>2016-09-16T15:45:37Z</time>
      </trkpt>
      <trkpt lat="38.160919" lon="-1.352374">
        <ele>141.9</ele>
        <time>2016-09-16T15:45:54Z</time>
      </trkpt>
      <trkpt lat="38.161000" lon="-1.352389">
        <ele>141.0</ele>
        <time>2016-09-16T15:46:05Z</time>
      </trkpt>
      <trkpt lat="38.161054" lon="-1.352341">
        <ele>141.9</ele>
        <time>2016-09-16T15:46:09Z</time>
      </trkpt>
      <trkpt lat="38.161142" lon="-1.352179">
        <ele>143.4</ele>
        <time>2016-09-16T15:46:20Z</time>
      </trkpt>
      <trkpt lat="38.161186" lon="-1.352102">
        <ele>142.9</ele>
        <time>2016-09-16T15:46:37Z</time>
      </trkpt>
      <trkpt lat="38.161203" lon="-1.352072">
        <ele>142.4</ele>
        <time>2016-09-16T15:46:39Z</time>
      </trkpt>
      <trkpt lat="38.161229" lon="-1.352023">
        <ele>143.9</ele>
        <time>2016-09-16T15:46:52Z</time>
      </trkpt>
      <trkpt lat="38.161260" lon="-1.351981">
        <ele>142.4</ele>
        <time>2016-09-16T15:46:58Z</time>
      </trkpt>
      <trkpt lat="38.161276" lon="-1.351918">
        <ele>142.9</ele>
        <time>2016-09-16T15:47:08Z</time>
      </trkpt>
      <trkpt lat="38.161279" lon="-1.351868">
        <ele>141.9</ele>
        <time>2016-09-16T15:47:25Z</time>
      </trkpt>
      <trkpt lat="38.161370" lon="-1.351774">
        <ele>142.4</ele>
        <time>2016-09-16T15:47:29Z</time>
      </trkpt>
      <trkpt lat="38.161831" lon="-1.351870">
        <ele>141.4</ele>
        <time>2016-09-16T15:49:55Z</time>
      </trkpt>
      <trkpt lat="38.162076" lon="-1.351879">
        <ele>141.0</ele>
        <time>2016-09-16T15:49:59Z</time>
      </trkpt>
      <trkpt lat="38.162270" lon="-1.351901">
        <ele>141.9</ele>
        <time>2016-09-16T15:50:17Z</time>
      </trkpt>
      <trkpt lat="38.162334" lon="-1.351855">
        <ele>139.1</ele>
        <time>2016-09-16T15:50:28Z</time>
      </trkpt>
      <trkpt lat="38.162391" lon="-1.351819">
        <ele>141.4</ele>
        <time>2016-09-16T15:50:34Z</time>
      </trkpt>
      <trkpt lat="38.162589" lon="-1.351686">
        <ele>141.9</ele>
        <time>2016-09-16T15:50:49Z</time>
      </trkpt>
      <trkpt lat="38.162783" lon="-1.351569">
        <ele>144.3</ele>
        <time>2016-09-16T15:51:04Z</time>
      </trkpt>
      <trkpt lat="38.162947" lon="-1.351510">
        <ele>148.7</ele>
        <time>2016-09-16T15:51:16Z</time>
      </trkpt>
      <trkpt lat="38.162961" lon="-1.351503">
        <ele>146.3</ele>
        <time>2016-09-16T15:51:17Z</time>
      </trkpt>
      <trkpt lat="38.162992" lon="-1.351484">
        <ele>145.8</ele>
        <time>2016-09-16T15:51:19Z</time>
      </trkpt>
      <trkpt lat="38.163232" lon="-1.351392">
        <ele>146.7</ele>
        <time>2016-09-16T15:51:35Z</time>
      </trkpt>
      <trkpt lat="38.163411" lon="-1.351322">
        <ele>148.2</ele>
        <time>2016-09-16T15:51:50Z</time>
      </trkpt>
      <trkpt lat="38.163544" lon="-1.351305">
        <ele>150.6</ele>
        <time>2016-09-16T15:52:03Z</time>
      </trkpt>
      <trkpt lat="38.163826" lon="-1.351238">
        <ele>153.0</ele>
        <time>2016-09-16T15:52:25Z</time>
      </trkpt>
      <trkpt lat="38.163859" lon="-1.351236">
        <ele>153.5</ele>
        <time>2016-09-16T15:52:27Z</time>
      </trkpt>
      <trkpt lat="38.164049" lon="-1.351312">
        <ele>154.9</ele>
        <time>2016-09-16T15:52:39Z</time>
      </trkpt>
      <trkpt lat="38.164256" lon="-1.351408">
        <ele>156.8</ele>
        <time>2016-09-16T15:52:54Z</time>
      </trkpt>
      <trkpt lat="38.164455" lon="-1.351509">
        <ele>157.8</ele>
        <time>2016-09-16T15:53:08Z</time>
      </trkpt>
      <trkpt lat="38.164618" lon="-1.351622">
        <ele>158.8</ele>
        <time>2016-09-16T15:53:21Z</time>
      </trkpt>
      <trkpt lat="38.164823" lon="-1.351737">
        <ele>159.2</ele>
        <time>2016-09-16T15:53:37Z</time>
      </trkpt>
      <trkpt lat="38.165069" lon="-1.351795">
        <ele>159.7</ele>
        <time>2016-09-16T15:53:56Z</time>
      </trkpt>
      <trkpt lat="38.165335" lon="-1.351887">
        <ele>159.7</ele>
        <time>2016-09-16T15:54:17Z</time>
      </trkpt>
      <trkpt lat="38.165483" lon="-1.351949">
        <ele>159.7</ele>
        <time>2016-09-16T15:54:33Z</time>
      </trkpt>
      <trkpt lat="38.165540" lon="-1.351982">
        <ele>159.2</ele>
        <time>2016-09-16T15:54:38Z</time>
      </trkpt>
      <trkpt lat="38.165771" lon="-1.352135">
        <ele>157.8</ele>
        <time>2016-09-16T15:54:59Z</time>
      </trkpt>
      <trkpt lat="38.165911" lon="-1.352219">
        <ele>157.3</ele>
        <time>2016-09-16T15:55:12Z</time>
      </trkpt>
      <trkpt lat="38.166111" lon="-1.352330">
        <ele>155.9</ele>
        <time>2016-09-16T15:55:30Z</time>
      </trkpt>
      <trkpt lat="38.166119" lon="-1.352339">
        <ele>155.4</ele>
        <time>2016-09-16T15:55:31Z</time>
      </trkpt>
      <trkpt lat="38.166341" lon="-1.352403">
        <ele>154.4</ele>
        <time>2016-09-16T15:55:47Z</time>
      </trkpt>
      <trkpt lat="38.166506" lon="-1.352478">
        <ele>153.9</ele>
        <time>2016-09-16T15:56:01Z</time>
      </trkpt>
      <trkpt lat="38.166693" lon="-1.352588">
        <ele>153.9</ele>
        <time>2016-09-16T15:56:17Z</time>
      </trkpt>
      <trkpt lat="38.166862" lon="-1.352657">
        <ele>153.5</ele>
        <time>2016-09-16T15:56:31Z</time>
      </trkpt>
      <trkpt lat="38.166921" lon="-1.352767">
        <ele>153.0</ele>
        <time>2016-09-16T15:56:41Z</time>
      </trkpt>
      <trkpt lat="38.166974" lon="-1.353127">
        <ele>150.6</ele>
        <time>2016-09-16T15:57:01Z</time>
      </trkpt>
      <trkpt lat="38.167043" lon="-1.353303">
        <ele>150.6</ele>
        <time>2016-09-16T15:57:13Z</time>
      </trkpt>
      <trkpt lat="38.167122" lon="-1.353419">
        <ele>149.6</ele>
        <time>2016-09-16T15:57:22Z</time>
      </trkpt>
      <trkpt lat="38.167189" lon="-1.353509">
        <ele>149.6</ele>
        <time>2016-09-16T15:57:30Z</time>
      </trkpt>
      <trkpt lat="38.167359" lon="-1.353600">
        <ele>149.1</ele>
        <time>2016-09-16T15:57:44Z</time>
      </trkpt>
      <trkpt lat="38.167491" lon="-1.353543">
        <ele>147.7</ele>
        <time>2016-09-16T15:57:57Z</time>
      </trkpt>
      <trkpt lat="38.167583" lon="-1.353405">
        <ele>146.3</ele>
        <time>2016-09-16T15:58:07Z</time>
      </trkpt>
      <trkpt lat="38.167747" lon="-1.353167">
        <ele>144.3</ele>
        <time>2016-09-16T15:58:27Z</time>
      </trkpt>
      <trkpt lat="38.167909" lon="-1.353169">
        <ele>143.4</ele>
        <time>2016-09-16T15:58:41Z</time>
      </trkpt>
      <trkpt lat="38.168044" lon="-1.353262">
        <ele>144.3</ele>
        <time>2016-09-16T15:58:53Z</time>
      </trkpt>
      <trkpt lat="38.168076" lon="-1.353557">
        <ele>145.3</ele>
        <time>2016-09-16T15:59:10Z</time>
      </trkpt>
      <trkpt lat="38.168036" lon="-1.353870">
        <ele>146.3</ele>
        <time>2016-09-16T15:59:27Z</time>
      </trkpt>
      <trkpt lat="38.168071" lon="-1.354150">
        <ele>147.2</ele>
        <time>2016-09-16T15:59:45Z</time>
      </trkpt>
      <trkpt lat="38.168180" lon="-1.354427">
        <ele>146.7</ele>
        <time>2016-09-16T16:00:03Z</time>
      </trkpt>
      <trkpt lat="38.168251" lon="-1.354647">
        <ele>147.2</ele>
        <time>2016-09-16T16:00:19Z</time>
      </trkpt>
      <trkpt lat="38.168364" lon="-1.354902">
        <ele>147.7</ele>
        <time>2016-09-16T16:00:37Z</time>
      </trkpt>
      <trkpt lat="38.168526" lon="-1.354976">
        <ele>147.2</ele>
        <time>2016-09-16T16:00:50Z</time>
      </trkpt>
      <trkpt lat="38.168788" lon="-1.354956">
        <ele>147.2</ele>
        <time>2016-09-16T16:01:09Z</time>
      </trkpt>
      <trkpt lat="38.169063" lon="-1.355089">
        <ele>148.2</ele>
        <time>2016-09-16T16:01:29Z</time>
      </trkpt>
      <trkpt lat="38.169279" lon="-1.355195">
        <ele>148.2</ele>
        <time>2016-09-16T16:01:47Z</time>
      </trkpt>
      <trkpt lat="38.169451" lon="-1.355262">
        <ele>148.7</ele>
        <time>2016-09-16T16:02:02Z</time>
      </trkpt>
      <trkpt lat="38.169634" lon="-1.355258">
        <ele>148.7</ele>
        <time>2016-09-16T16:02:14Z</time>
      </trkpt>
      <trkpt lat="38.169753" lon="-1.355277">
        <ele>149.1</ele>
        <time>2016-09-16T16:02:22Z</time>
      </trkpt>
      <trkpt lat="38.169979" lon="-1.355445">
        <ele>149.6</ele>
        <time>2016-09-16T16:02:41Z</time>
      </trkpt>
      <trkpt lat="38.170015" lon="-1.355470">
        <ele>149.1</ele>
        <time>2016-09-16T16:02:44Z</time>
      </trkpt>
      <trkpt lat="38.170086" lon="-1.355507">
        <ele>149.6</ele>
        <time>2016-09-16T16:02:49Z</time>
      </trkpt>
      <trkpt lat="38.170354" lon="-1.355583">
        <ele>149.1</ele>
        <time>2016-09-16T16:03:08Z</time>
      </trkpt>
      <trkpt lat="38.170546" lon="-1.355639">
        <ele>150.1</ele>
        <time>2016-09-16T16:03:23Z</time>
      </trkpt>
      <trkpt lat="38.170813" lon="-1.355703">
        <ele>149.6</ele>
        <time>2016-09-16T16:03:42Z</time>
      </trkpt>
      <trkpt lat="38.171021" lon="-1.355724">
        <ele>150.6</ele>
        <time>2016-09-16T16:04:01Z</time>
      </trkpt>
      <trkpt lat="38.171025" lon="-1.355711">
        <ele>150.6</ele>
        <time>2016-09-16T16:04:04Z</time>
      </trkpt>
      <trkpt lat="38.171246" lon="-1.355808">
        <ele>150.1</ele>
        <time>2016-09-16T16:04:20Z</time>
      </trkpt>
      <trkpt lat="38.171494" lon="-1.355924">
        <ele>148.2</ele>
        <time>2016-09-16T16:04:39Z</time>
      </trkpt>
      <trkpt lat="38.171718" lon="-1.355929">
        <ele>147.7</ele>
        <time>2016-09-16T16:04:55Z</time>
      </trkpt>
      <trkpt lat="38.171870" lon="-1.355954">
        <ele>147.2</ele>
        <time>2016-09-16T16:05:06Z</time>
      </trkpt>
      <trkpt lat="38.171903" lon="-1.355956">
        <ele>148.2</ele>
        <time>2016-09-16T16:05:09Z</time>
      </trkpt>
      <trkpt lat="38.172061" lon="-1.356035">
        <ele>148.2</ele>
        <time>2016-09-16T16:05:23Z</time>
      </trkpt>
      <trkpt lat="38.172251" lon="-1.356063">
        <ele>146.3</ele>
        <time>2016-09-16T16:05:40Z</time>
      </trkpt>
      <trkpt lat="38.172330" lon="-1.356029">
        <ele>146.3</ele>
        <time>2016-09-16T16:05:53Z</time>
      </trkpt>
      <trkpt lat="38.172511" lon="-1.355903">
        <ele>147.2</ele>
        <time>2016-09-16T16:06:10Z</time>
      </trkpt>
      <trkpt lat="38.172693" lon="-1.355756">
        <ele>148.2</ele>
        <time>2016-09-16T16:06:27Z</time>
      </trkpt>
      <trkpt lat="38.172718" lon="-1.355754">
        <ele>148.7</ele>
        <time>2016-09-16T16:06:35Z</time>
      </trkpt>
      <trkpt lat="38.172749" lon="-1.355680">
        <ele>148.7</ele>
        <time>2016-09-16T16:06:40Z</time>
      </trkpt>
      <trkpt lat="38.172861" lon="-1.355464">
        <ele>149.6</ele>
        <time>2016-09-16T16:06:58Z</time>
      </trkpt>
      <trkpt lat="38.172966" lon="-1.355295">
        <ele>148.2</ele>
        <time>2016-09-16T16:07:12Z</time>
      </trkpt>
      <trkpt lat="38.173106" lon="-1.355093">
        <ele>148.7</ele>
        <time>2016-09-16T16:07:28Z</time>
      </trkpt>
      <trkpt lat="38.173201" lon="-1.354994">
        <ele>148.2</ele>
        <time>2016-09-16T16:07:42Z</time>
      </trkpt>
      <trkpt lat="38.173227" lon="-1.354954">
        <ele>148.2</ele>
        <time>2016-09-16T16:07:54Z</time>
      </trkpt>
      <trkpt lat="38.173204" lon="-1.354976">
        <ele>149.1</ele>
        <time>2016-09-16T16:08:04Z</time>
      </trkpt>
      <trkpt lat="38.173300" lon="-1.354901">
        <ele>148.2</ele>
        <time>2016-09-16T16:08:23Z</time>
      </trkpt>
      <trkpt lat="38.173338" lon="-1.354879">
        <ele>148.2</ele>
        <time>2016-09-16T16:08:34Z</time>
      </trkpt>
      <trkpt lat="38.173478" lon="-1.354776">
        <ele>148.2</ele>
        <time>2016-09-16T16:08:49Z</time>
      </trkpt>
      <trkpt lat="38.173701" lon="-1.354620">
        <ele>148.2</ele>
        <time>2016-09-16T16:09:10Z</time>
      </trkpt>
      <trkpt lat="38.173838" lon="-1.354554">
        <ele>148.2</ele>
        <time>2016-09-16T16:09:21Z</time>
      </trkpt>
      <trkpt lat="38.173880" lon="-1.354530">
        <ele>147.7</ele>
        <time>2016-09-16T16:09:25Z</time>
      </trkpt>
      <trkpt lat="38.173921" lon="-1.354519">
        <ele>147.7</ele>
        <time>2016-09-16T16:09:28Z</time>
      </trkpt>
      <trkpt lat="38.174046" lon="-1.354464">
        <ele>146.7</ele>
        <time>2016-09-16T16:09:38Z</time>
      </trkpt>
      <trkpt lat="38.174226" lon="-1.354641">
        <ele>147.2</ele>
        <time>2016-09-16T16:09:55Z</time>
      </trkpt>
      <trkpt lat="38.174381" lon="-1.354839">
        <ele>147.7</ele>
        <time>2016-09-16T16:10:12Z</time>
      </trkpt>
      <trkpt lat="38.174532" lon="-1.355034">
        <ele>146.7</ele>
        <time>2016-09-16T16:10:29Z</time>
      </trkpt>
      <trkpt lat="38.174677" lon="-1.355166">
        <ele>147.2</ele>
        <time>2016-09-16T16:10:42Z</time>
      </trkpt>
      <trkpt lat="38.174878" lon="-1.355193">
        <ele>149.1</ele>
        <time>2016-09-16T16:10:57Z</time>
      </trkpt>
      <trkpt lat="38.174997" lon="-1.355184">
        <ele>150.6</ele>
        <time>2016-09-16T16:11:09Z</time>
      </trkpt>
      <trkpt lat="38.175029" lon="-1.355221">
        <ele>149.6</ele>
        <time>2016-09-16T16:11:12Z</time>
      </trkpt>
      <trkpt lat="38.175068" lon="-1.355329">
        <ele>150.1</ele>
        <time>2016-09-16T16:11:18Z</time>
      </trkpt>
      <trkpt lat="38.175151" lon="-1.355639">
        <ele>149.1</ele>
        <time>2016-09-16T16:11:37Z</time>
      </trkpt>
      <trkpt lat="38.175256" lon="-1.355894">
        <ele>149.6</ele>
        <time>2016-09-16T16:11:54Z</time>
      </trkpt>
      <trkpt lat="38.175382" lon="-1.356157">
        <ele>149.1</ele>
        <time>2016-09-16T16:12:13Z</time>
      </trkpt>
      <trkpt lat="38.175517" lon="-1.356374">
        <ele>148.2</ele>
        <time>2016-09-16T16:12:30Z</time>
      </trkpt>
      <trkpt lat="38.175636" lon="-1.356618">
        <ele>148.2</ele>
        <time>2016-09-16T16:12:48Z</time>
      </trkpt>
      <trkpt lat="38.175745" lon="-1.356860">
        <ele>148.7</ele>
        <time>2016-09-16T16:13:05Z</time>
      </trkpt>
      <trkpt lat="38.175871" lon="-1.357159">
        <ele>149.1</ele>
        <time>2016-09-16T16:13:25Z</time>
      </trkpt>
      <trkpt lat="38.175990" lon="-1.357444">
        <ele>150.1</ele>
        <time>2016-09-16T16:13:45Z</time>
      </trkpt>
      <trkpt lat="38.176016" lon="-1.357612">
        <ele>150.6</ele>
        <time>2016-09-16T16:13:57Z</time>
      </trkpt>
      <trkpt lat="38.176097" lon="-1.357922">
        <ele>149.6</ele>
        <time>2016-09-16T16:14:16Z</time>
      </trkpt>
      <trkpt lat="38.176099" lon="-1.358155">
        <ele>151.1</ele>
        <time>2016-09-16T16:14:31Z</time>
      </trkpt>
      <trkpt lat="38.176086" lon="-1.358259">
        <ele>150.6</ele>
        <time>2016-09-16T16:14:37Z</time>
      </trkpt>
      <trkpt lat="38.176066" lon="-1.358500">
        <ele>150.1</ele>
        <time>2016-09-16T16:14:50Z</time>
      </trkpt>
      <trkpt lat="38.176043" lon="-1.358643">
        <ele>150.1</ele>
        <time>2016-09-16T16:15:02Z</time>
      </trkpt>
      <trkpt lat="38.176038" lon="-1.358944">
        <ele>149.1</ele>
        <time>2016-09-16T16:15:18Z</time>
      </trkpt>
      <trkpt lat="38.176026" lon="-1.359238">
        <ele>149.1</ele>
        <time>2016-09-16T16:15:35Z</time>
      </trkpt>
      <trkpt lat="38.176002" lon="-1.359603">
        <ele>149.6</ele>
        <time>2016-09-16T16:15:56Z</time>
      </trkpt>
      <trkpt lat="38.175998" lon="-1.359899">
        <ele>149.1</ele>
        <time>2016-09-16T16:16:14Z</time>
      </trkpt>
      <trkpt lat="38.175999" lon="-1.360055">
        <ele>149.6</ele>
        <time>2016-09-16T16:16:28Z</time>
      </trkpt>
      <trkpt lat="38.176011" lon="-1.360422">
        <ele>150.1</ele>
        <time>2016-09-16T16:16:48Z</time>
      </trkpt>
      <trkpt lat="38.176036" lon="-1.360534">
        <ele>146.7</ele>
        <time>2016-09-16T16:16:54Z</time>
      </trkpt>
      <trkpt lat="38.176049" lon="-1.360568">
        <ele>151.5</ele>
        <time>2016-09-16T16:16:56Z</time>
      </trkpt>
      <trkpt lat="38.176145" lon="-1.360868">
        <ele>149.6</ele>
        <time>2016-09-16T16:17:15Z</time>
      </trkpt>
      <trkpt lat="38.176168" lon="-1.360940">
        <ele>150.6</ele>
        <time>2016-09-16T16:17:19Z</time>
      </trkpt>
      <trkpt lat="38.176217" lon="-1.361190">
        <ele>150.1</ele>
        <time>2016-09-16T16:17:36Z</time>
      </trkpt>
      <trkpt lat="38.176275" lon="-1.361486">
        <ele>150.6</ele>
        <time>2016-09-16T16:17:54Z</time>
      </trkpt>
      <trkpt lat="38.176376" lon="-1.361797">
        <ele>151.5</ele>
        <time>2016-09-16T16:18:14Z</time>
      </trkpt>
      <trkpt lat="38.176410" lon="-1.361893">
        <ele>152.0</ele>
        <time>2016-09-16T16:18:20Z</time>
      </trkpt>
      <trkpt lat="38.176301" lon="-1.362117">
        <ele>153.0</ele>
        <time>2016-09-16T16:18:36Z</time>
      </trkpt>
      <trkpt lat="38.176288" lon="-1.362146">
        <ele>153.5</ele>
        <time>2016-09-16T16:18:38Z</time>
      </trkpt>
      <trkpt lat="38.176221" lon="-1.362192">
        <ele>152.5</ele>
        <time>2016-09-16T16:18:44Z</time>
      </trkpt>
      <trkpt lat="38.176007" lon="-1.362316">
        <ele>152.0</ele>
        <time>2016-09-16T16:19:02Z</time>
      </trkpt>
      <trkpt lat="38.175878" lon="-1.362431">
        <ele>151.1</ele>
        <time>2016-09-16T16:19:14Z</time>
      </trkpt>
      <trkpt lat="38.175864" lon="-1.362478">
        <ele>151.1</ele>
        <time>2016-09-16T16:19:17Z</time>
      </trkpt>
      <trkpt lat="38.175841" lon="-1.362542">
        <ele>151.1</ele>
        <time>2016-09-16T16:19:25Z</time>
      </trkpt>
      <trkpt lat="38.175781" lon="-1.362849">
        <ele>151.5</ele>
        <time>2016-09-16T16:19:44Z</time>
      </trkpt>
      <trkpt lat="38.175713" lon="-1.363065">
        <ele>153.0</ele>
        <time>2016-09-16T16:19:59Z</time>
      </trkpt>
      <trkpt lat="38.175664" lon="-1.363301">
        <ele>153.5</ele>
        <time>2016-09-16T16:20:15Z</time>
      </trkpt>
      <trkpt lat="38.175663" lon="-1.363332">
        <ele>150.1</ele>
        <time>2016-09-16T16:20:17Z</time>
      </trkpt>
      <trkpt lat="38.175664" lon="-1.363350">
        <ele>150.1</ele>
        <time>2016-09-16T16:20:18Z</time>
      </trkpt>
      <trkpt lat="38.175665" lon="-1.363367">
        <ele>159.2</ele>
        <time>2016-09-16T16:20:19Z</time>
      </trkpt>
      <trkpt lat="38.175663" lon="-1.363382">
        <ele>156.4</ele>
        <time>2016-09-16T16:20:20Z</time>
      </trkpt>
      <trkpt lat="38.175644" lon="-1.363589">
        <ele>154.9</ele>
        <time>2016-09-16T16:20:34Z</time>
      </trkpt>
      <trkpt lat="38.175629" lon="-1.363633">
        <ele>154.9</ele>
        <time>2016-09-16T16:20:38Z</time>
      </trkpt>
      <trkpt lat="38.175550" lon="-1.363715">
        <ele>153.9</ele>
        <time>2016-09-16T16:20:44Z</time>
      </trkpt>
      <trkpt lat="38.175563" lon="-1.363840">
        <ele>153.9</ele>
        <time>2016-09-16T16:20:52Z</time>
      </trkpt>
      <trkpt lat="38.175686" lon="-1.364141">
        <ele>153.0</ele>
        <time>2016-09-16T16:21:10Z</time>
      </trkpt>
      <trkpt lat="38.175855" lon="-1.364258">
        <ele>154.4</ele>
        <time>2016-09-16T16:21:25Z</time>
      </trkpt>
      <trkpt lat="38.176001" lon="-1.364318">
        <ele>155.9</ele>
        <time>2016-09-16T16:21:37Z</time>
      </trkpt>
      <trkpt lat="38.176031" lon="-1.364332">
        <ele>150.1</ele>
        <time>2016-09-16T16:21:39Z</time>
      </trkpt>
      <trkpt lat="38.176048" lon="-1.364338">
        <ele>161.2</ele>
        <time>2016-09-16T16:21:40Z</time>
      </trkpt>
      <trkpt lat="38.176062" lon="-1.364345">
        <ele>154.9</ele>
        <time>2016-09-16T16:21:41Z</time>
      </trkpt>
      <trkpt lat="38.176095" lon="-1.364369">
        <ele>162.1</ele>
        <time>2016-09-16T16:21:43Z</time>
      </trkpt>
      <trkpt lat="38.176111" lon="-1.364382">
        <ele>157.3</ele>
        <time>2016-09-16T16:21:44Z</time>
      </trkpt>
      <trkpt lat="38.176135" lon="-1.364397">
        <ele>156.4</ele>
        <time>2016-09-16T16:21:46Z</time>
      </trkpt>
      <trkpt lat="38.176283" lon="-1.364440">
        <ele>156.8</ele>
        <time>2016-09-16T16:21:58Z</time>
      </trkpt>
      <trkpt lat="38.176452" lon="-1.364440">
        <ele>159.7</ele>
        <time>2016-09-16T16:22:12Z</time>
      </trkpt>
      <trkpt lat="38.176685" lon="-1.364312">
        <ele>163.1</ele>
        <time>2016-09-16T16:22:29Z</time>
      </trkpt>
      <trkpt lat="38.176786" lon="-1.364232">
        <ele>165.5</ele>
        <time>2016-09-16T16:22:40Z</time>
      </trkpt>
      <trkpt lat="38.176886" lon="-1.364174">
        <ele>168.4</ele>
        <time>2016-09-16T16:22:50Z</time>
      </trkpt>
      <trkpt lat="38.177062" lon="-1.364288">
        <ele>170.8</ele>
        <time>2016-09-16T16:23:06Z</time>
      </trkpt>
      <trkpt lat="38.177050" lon="-1.364282">
        <ele>171.2</ele>
        <time>2016-09-16T16:23:10Z</time>
      </trkpt>
      <trkpt lat="38.177115" lon="-1.364332">
        <ele>170.8</ele>
        <time>2016-09-16T16:23:23Z</time>
      </trkpt>
      <trkpt lat="38.177265" lon="-1.364546">
        <ele>171.7</ele>
        <time>2016-09-16T16:23:41Z</time>
      </trkpt>
      <trkpt lat="38.177265" lon="-1.364567">
        <ele>172.7</ele>
        <time>2016-09-16T16:32:26Z</time>
      </trkpt>
      <trkpt lat="38.177342" lon="-1.364545">
        <ele>170.3</ele>
        <time>2016-09-16T16:32:40Z</time>
      </trkpt>
      <trkpt lat="38.177367" lon="-1.364616">
        <ele>169.8</ele>
        <time>2016-09-16T16:32:52Z</time>
      </trkpt>
      <trkpt lat="38.177391" lon="-1.364681">
        <ele>169.3</ele>
        <time>2016-09-16T16:33:08Z</time>
      </trkpt>
      <trkpt lat="38.177425" lon="-1.364723">
        <ele>168.9</ele>
        <time>2016-09-16T16:33:24Z</time>
      </trkpt>
      <trkpt lat="38.177499" lon="-1.364775">
        <ele>166.0</ele>
        <time>2016-09-16T16:33:34Z</time>
      </trkpt>
      <trkpt lat="38.177502" lon="-1.364783">
        <ele>166.0</ele>
        <time>2016-09-16T16:33:35Z</time>
      </trkpt>
      <trkpt lat="38.177521" lon="-1.364893">
        <ele>163.6</ele>
        <time>2016-09-16T16:33:44Z</time>
      </trkpt>
      <trkpt lat="38.177627" lon="-1.364959">
        <ele>160.7</ele>
        <time>2016-09-16T16:33:54Z</time>
      </trkpt>
      <trkpt lat="38.177642" lon="-1.364978">
        <ele>159.2</ele>
        <time>2016-09-16T16:33:56Z</time>
      </trkpt>
      <trkpt lat="38.177703" lon="-1.365066">
        <ele>155.9</ele>
        <time>2016-09-16T16:34:04Z</time>
      </trkpt>
      <trkpt lat="38.177711" lon="-1.365076">
        <ele>156.4</ele>
        <time>2016-09-16T16:34:05Z</time>
      </trkpt>
      <trkpt lat="38.177755" lon="-1.365110">
        <ele>154.4</ele>
        <time>2016-09-16T16:34:09Z</time>
      </trkpt>
      <trkpt lat="38.177770" lon="-1.365114">
        <ele>154.4</ele>
        <time>2016-09-16T16:34:10Z</time>
      </trkpt>
      <trkpt lat="38.177848" lon="-1.365177">
        <ele>153.5</ele>
        <time>2016-09-16T16:34:19Z</time>
      </trkpt>
      <trkpt lat="38.177666" lon="-1.365237">
        <ele>150.6</ele>
        <time>2016-09-16T16:34:34Z</time>
      </trkpt>
      <trkpt lat="38.177454" lon="-1.365274">
        <ele>148.7</ele>
        <time>2016-09-16T16:34:50Z</time>
      </trkpt>
      <trkpt lat="38.177399" lon="-1.365283">
        <ele>148.7</ele>
        <time>2016-09-16T16:34:57Z</time>
      </trkpt>
      <trkpt lat="38.177394" lon="-1.365332">
        <ele>147.7</ele>
        <time>2016-09-16T16:35:01Z</time>
      </trkpt>
      <trkpt lat="38.177384" lon="-1.365596">
        <ele>144.8</ele>
        <time>2016-09-16T16:35:17Z</time>
      </trkpt>
      <trkpt lat="38.177372" lon="-1.365748">
        <ele>145.3</ele>
        <time>2016-09-16T16:35:32Z</time>
      </trkpt>
      <trkpt lat="38.177407" lon="-1.365808">
        <ele>145.3</ele>
        <time>2016-09-16T16:35:38Z</time>
      </trkpt>
      <trkpt lat="38.177462" lon="-1.365901">
        <ele>145.8</ele>
        <time>2016-09-16T16:35:46Z</time>
      </trkpt>
      <trkpt lat="38.177514" lon="-1.366164">
        <ele>145.8</ele>
        <time>2016-09-16T16:36:03Z</time>
      </trkpt>
      <trkpt lat="38.177519" lon="-1.366190">
        <ele>145.3</ele>
        <time>2016-09-16T16:36:05Z</time>
      </trkpt>
      <trkpt lat="38.177510" lon="-1.366381">
        <ele>145.3</ele>
        <time>2016-09-16T16:36:19Z</time>
      </trkpt>
      <trkpt lat="38.177479" lon="-1.366504">
        <ele>144.3</ele>
        <time>2016-09-16T16:36:31Z</time>
      </trkpt>
      <trkpt lat="38.177442" lon="-1.366633">
        <ele>144.8</ele>
        <time>2016-09-16T16:36:43Z</time>
      </trkpt>
      <trkpt lat="38.177441" lon="-1.366637">
        <ele>144.8</ele>
        <time>2016-09-16T16:36:45Z</time>
      </trkpt>
      <trkpt lat="38.177384" lon="-1.366814">
        <ele>145.3</ele>
        <time>2016-09-16T16:36:55Z</time>
      </trkpt>
      <trkpt lat="38.177335" lon="-1.366931">
        <ele>144.8</ele>
        <time>2016-09-16T16:37:01Z</time>
      </trkpt>
      <trkpt lat="38.177310" lon="-1.366993">
        <ele>145.3</ele>
        <time>2016-09-16T16:37:05Z</time>
      </trkpt>
      <trkpt lat="38.177246" lon="-1.367179">
        <ele>146.7</ele>
        <time>2016-09-16T16:37:17Z</time>
      </trkpt>
      <trkpt lat="38.177295" lon="-1.367406">
        <ele>145.8</ele>
        <time>2016-09-16T16:37:31Z</time>
      </trkpt>
      <trkpt lat="38.177369" lon="-1.367677">
        <ele>145.3</ele>
        <time>2016-09-16T16:37:48Z</time>
      </trkpt>
      <trkpt lat="38.177393" lon="-1.367761">
        <ele>146.3</ele>
        <time>2016-09-16T16:37:55Z</time>
      </trkpt>
      <trkpt lat="38.177410" lon="-1.367995">
        <ele>146.3</ele>
        <time>2016-09-16T16:38:10Z</time>
      </trkpt>
      <trkpt lat="38.177350" lon="-1.368261">
        <ele>146.3</ele>
        <time>2016-09-16T16:38:27Z</time>
      </trkpt>
      <trkpt lat="38.177285" lon="-1.368521">
        <ele>144.8</ele>
        <time>2016-09-16T16:38:43Z</time>
      </trkpt>
      <trkpt lat="38.177252" lon="-1.368751">
        <ele>144.3</ele>
        <time>2016-09-16T16:38:59Z</time>
      </trkpt>
      <trkpt lat="38.177247" lon="-1.368779">
        <ele>145.8</ele>
        <time>2016-09-16T16:39:01Z</time>
      </trkpt>
      <trkpt lat="38.177140" lon="-1.368911">
        <ele>145.3</ele>
        <time>2016-09-16T16:39:13Z</time>
      </trkpt>
      <trkpt lat="38.177123" lon="-1.368942">
        <ele>145.8</ele>
        <time>2016-09-16T16:39:25Z</time>
      </trkpt>
      <trkpt lat="38.177113" lon="-1.368929">
        <ele>145.8</ele>
        <time>2016-09-16T16:39:31Z</time>
      </trkpt>
      <trkpt lat="38.177055" lon="-1.369001">
        <ele>146.3</ele>
        <time>2016-09-16T16:39:36Z</time>
      </trkpt>
      <trkpt lat="38.176860" lon="-1.369203">
        <ele>145.3</ele>
        <time>2016-09-16T16:39:53Z</time>
      </trkpt>
      <trkpt lat="38.176634" lon="-1.369417">
        <ele>145.3</ele>
        <time>2016-09-16T16:40:12Z</time>
      </trkpt>
      <trkpt lat="38.176525" lon="-1.369547">
        <ele>144.8</ele>
        <time>2016-09-16T16:40:23Z</time>
      </trkpt>
      <trkpt lat="38.176463" lon="-1.369748">
        <ele>145.3</ele>
        <time>2016-09-16T16:40:38Z</time>
      </trkpt>
      <trkpt lat="38.176460" lon="-1.370000">
        <ele>145.3</ele>
        <time>2016-09-16T16:40:52Z</time>
      </trkpt>
      <trkpt lat="38.176485" lon="-1.370301">
        <ele>145.8</ele>
        <time>2016-09-16T16:41:10Z</time>
      </trkpt>
      <trkpt lat="38.176519" lon="-1.370566">
        <ele>145.3</ele>
        <time>2016-09-16T16:41:27Z</time>
      </trkpt>
      <trkpt lat="38.176557" lon="-1.370795">
        <ele>144.8</ele>
        <time>2016-09-16T16:41:42Z</time>
      </trkpt>
      <trkpt lat="38.176570" lon="-1.370946">
        <ele>145.3</ele>
        <time>2016-09-16T16:41:51Z</time>
      </trkpt>
      <trkpt lat="38.176621" lon="-1.371121">
        <ele>145.3</ele>
        <time>2016-09-16T16:42:01Z</time>
      </trkpt>
      <trkpt lat="38.176761" lon="-1.371138">
        <ele>144.8</ele>
        <time>2016-09-16T16:42:35Z</time>
      </trkpt>
      <trkpt lat="38.176817" lon="-1.371104">
        <ele>143.9</ele>
        <time>2016-09-16T16:42:39Z</time>
      </trkpt>
      <trkpt lat="38.176999" lon="-1.371010">
        <ele>143.4</ele>
        <time>2016-09-16T16:42:55Z</time>
      </trkpt>
      <trkpt lat="38.176900" lon="-1.371241">
        <ele>143.9</ele>
        <time>2016-09-16T16:43:09Z</time>
      </trkpt>
      <trkpt lat="38.176826" lon="-1.371494">
        <ele>144.8</ele>
        <time>2016-09-16T16:43:26Z</time>
      </trkpt>
      <trkpt lat="38.176787" lon="-1.371640">
        <ele>144.3</ele>
        <time>2016-09-16T16:43:43Z</time>
      </trkpt>
      <trkpt lat="38.176783" lon="-1.371663">
        <ele>144.8</ele>
        <time>2016-09-16T16:43:45Z</time>
      </trkpt>
      <trkpt lat="38.176784" lon="-1.371691">
        <ele>144.8</ele>
        <time>2016-09-16T16:43:47Z</time>
      </trkpt>
      <trkpt lat="38.176762" lon="-1.371800">
        <ele>144.8</ele>
        <time>2016-09-16T16:43:53Z</time>
      </trkpt>
      <trkpt lat="38.176756" lon="-1.372098">
        <ele>144.8</ele>
        <time>2016-09-16T16:44:09Z</time>
      </trkpt>
      <trkpt lat="38.176759" lon="-1.372114">
        <ele>144.8</ele>
        <time>2016-09-16T16:44:10Z</time>
      </trkpt>
      <trkpt lat="38.176777" lon="-1.372283">
        <ele>144.3</ele>
        <time>2016-09-16T16:44:25Z</time>
      </trkpt>
      <trkpt lat="38.176791" lon="-1.372358">
        <ele>144.3</ele>
        <time>2016-09-16T16:44:30Z</time>
      </trkpt>
      <trkpt lat="38.176844" lon="-1.372648">
        <ele>144.8</ele>
        <time>2016-09-16T16:44:45Z</time>
      </trkpt>
      <trkpt lat="38.176802" lon="-1.373005">
        <ele>144.8</ele>
        <time>2016-09-16T16:45:02Z</time>
      </trkpt>
      <trkpt lat="38.176785" lon="-1.373126">
        <ele>144.3</ele>
        <time>2016-09-16T16:45:11Z</time>
      </trkpt>
      <trkpt lat="38.176785" lon="-1.373161">
        <ele>144.3</ele>
        <time>2016-09-16T16:45:13Z</time>
      </trkpt>
      <trkpt lat="38.176801" lon="-1.373199">
        <ele>144.3</ele>
        <time>2016-09-16T16:45:15Z</time>
      </trkpt>
      <trkpt lat="38.176880" lon="-1.373367">
        <ele>144.3</ele>
        <time>2016-09-16T16:45:24Z</time>
      </trkpt>
      <trkpt lat="38.176927" lon="-1.373556">
        <ele>144.8</ele>
        <time>2016-09-16T16:45:34Z</time>
      </trkpt>
      <trkpt lat="38.176955" lon="-1.373705">
        <ele>144.8</ele>
        <time>2016-09-16T16:45:43Z</time>
      </trkpt>
      <trkpt lat="38.177014" lon="-1.373898">
        <ele>143.9</ele>
        <time>2016-09-16T16:45:54Z</time>
      </trkpt>
      <trkpt lat="38.177009" lon="-1.373945">
        <ele>144.3</ele>
        <time>2016-09-16T16:45:57Z</time>
      </trkpt>
      <trkpt lat="38.176900" lon="-1.374136">
        <ele>143.9</ele>
        <time>2016-09-16T16:46:10Z</time>
      </trkpt>
      <trkpt lat="38.176934" lon="-1.374391">
        <ele>143.4</ele>
        <time>2016-09-16T16:46:25Z</time>
      </trkpt>
      <trkpt lat="38.176999" lon="-1.374675">
        <ele>143.9</ele>
        <time>2016-09-16T16:46:41Z</time>
      </trkpt>
      <trkpt lat="38.177046" lon="-1.374866">
        <ele>143.9</ele>
        <time>2016-09-16T16:46:52Z</time>
      </trkpt>
      <trkpt lat="38.177083" lon="-1.375090">
        <ele>142.9</ele>
        <time>2016-09-16T16:47:05Z</time>
      </trkpt>
      <trkpt lat="38.177119" lon="-1.375136">
        <ele>143.4</ele>
        <time>2016-09-16T16:47:09Z</time>
      </trkpt>
      <trkpt lat="38.177127" lon="-1.375211">
        <ele>143.4</ele>
        <time>2016-09-16T16:47:13Z</time>
      </trkpt>
      <trkpt lat="38.177182" lon="-1.375385">
        <ele>142.9</ele>
        <time>2016-09-16T16:47:26Z</time>
      </trkpt>
      <trkpt lat="38.177245" lon="-1.375627">
        <ele>142.4</ele>
        <time>2016-09-16T16:47:40Z</time>
      </trkpt>
      <trkpt lat="38.177316" lon="-1.375871">
        <ele>143.9</ele>
        <time>2016-09-16T16:47:58Z</time>
      </trkpt>
      <trkpt lat="38.177332" lon="-1.375914">
        <ele>142.9</ele>
        <time>2016-09-16T16:48:01Z</time>
      </trkpt>
      <trkpt lat="38.177393" lon="-1.376042">
        <ele>143.4</ele>
        <time>2016-09-16T16:48:10Z</time>
      </trkpt>
      <trkpt lat="38.177455" lon="-1.376206">
        <ele>142.9</ele>
        <time>2016-09-16T16:48:25Z</time>
      </trkpt>
      <trkpt lat="38.177483" lon="-1.376267">
        <ele>142.4</ele>
        <time>2016-09-16T16:48:35Z</time>
      </trkpt>
      <trkpt lat="38.177578" lon="-1.376403">
        <ele>142.9</ele>
        <time>2016-09-16T16:48:49Z</time>
      </trkpt>
      <trkpt lat="38.177716" lon="-1.376588">
        <ele>142.9</ele>
        <time>2016-09-16T16:49:03Z</time>
      </trkpt>
      <trkpt lat="38.177749" lon="-1.376625">
        <ele>142.4</ele>
        <time>2016-09-16T16:49:09Z</time>
      </trkpt>
      <trkpt lat="38.177895" lon="-1.376779">
        <ele>140.5</ele>
        <time>2016-09-16T16:49:22Z</time>
      </trkpt>
      <trkpt lat="38.178131" lon="-1.377055">
        <ele>142.9</ele>
        <time>2016-09-16T16:49:42Z</time>
      </trkpt>
      <trkpt lat="38.178285" lon="-1.377230">
        <ele>142.4</ele>
        <time>2016-09-16T16:49:57Z</time>
      </trkpt>
      <trkpt lat="38.178475" lon="-1.377442">
        <ele>142.9</ele>
        <time>2016-09-16T16:50:15Z</time>
      </trkpt>
      <trkpt lat="38.178665" lon="-1.377603">
        <ele>141.9</ele>
        <time>2016-09-16T16:50:30Z</time>
      </trkpt>
      <trkpt lat="38.178871" lon="-1.377713">
        <ele>143.4</ele>
        <time>2016-09-16T16:50:45Z</time>
      </trkpt>
      <trkpt lat="38.178955" lon="-1.377754">
        <ele>142.9</ele>
        <time>2016-09-16T16:50:53Z</time>
      </trkpt>
      <trkpt lat="38.179116" lon="-1.377835">
        <ele>141.9</ele>
        <time>2016-09-16T16:51:08Z</time>
      </trkpt>
      <trkpt lat="38.179248" lon="-1.377922">
        <ele>142.4</ele>
        <time>2016-09-16T16:51:21Z</time>
      </trkpt>
      <trkpt lat="38.179402" lon="-1.377932">
        <ele>141.9</ele>
        <time>2016-09-16T16:51:35Z</time>
      </trkpt>
      <trkpt lat="38.179658" lon="-1.378027">
        <ele>143.4</ele>
        <time>2016-09-16T16:51:52Z</time>
      </trkpt>
      <trkpt lat="38.179883" lon="-1.378099">
        <ele>143.9</ele>
        <time>2016-09-16T16:52:09Z</time>
      </trkpt>
      <trkpt lat="38.179904" lon="-1.378108">
        <ele>144.8</ele>
        <time>2016-09-16T16:52:11Z</time>
      </trkpt>
      <trkpt lat="38.179913" lon="-1.378111">
        <ele>144.8</ele>
        <time>2016-09-16T16:52:12Z</time>
      </trkpt>
      <trkpt lat="38.180075" lon="-1.378129">
        <ele>145.8</ele>
        <time>2016-09-16T16:52:27Z</time>
      </trkpt>
      <trkpt lat="38.180172" lon="-1.378189">
        <ele>146.7</ele>
        <time>2016-09-16T16:52:37Z</time>
      </trkpt>
      <trkpt lat="38.180116" lon="-1.378503">
        <ele>147.2</ele>
        <time>2016-09-16T16:52:56Z</time>
      </trkpt>
      <trkpt lat="38.180100" lon="-1.378632">
        <ele>147.2</ele>
        <time>2016-09-16T16:53:05Z</time>
      </trkpt>
      <trkpt lat="38.180124" lon="-1.378674">
        <ele>147.2</ele>
        <time>2016-09-16T16:53:08Z</time>
      </trkpt>
      <trkpt lat="38.180382" lon="-1.378739">
        <ele>144.3</ele>
        <time>2016-09-16T16:53:27Z</time>
      </trkpt>
      <trkpt lat="38.180569" lon="-1.378756">
        <ele>142.9</ele>
        <time>2016-09-16T16:53:41Z</time>
      </trkpt>
      <trkpt lat="38.180614" lon="-1.378771">
        <ele>142.4</ele>
        <time>2016-09-16T16:53:45Z</time>
      </trkpt>
      <trkpt lat="38.180800" lon="-1.378795">
        <ele>142.9</ele>
        <time>2016-09-16T16:53:59Z</time>
      </trkpt>
      <trkpt lat="38.180856" lon="-1.378825">
        <ele>142.9</ele>
        <time>2016-09-16T16:54:05Z</time>
      </trkpt>
      <trkpt lat="38.181029" lon="-1.378844">
        <ele>143.4</ele>
        <time>2016-09-16T16:54:20Z</time>
      </trkpt>
      <trkpt lat="38.181245" lon="-1.378900">
        <ele>141.9</ele>
        <time>2016-09-16T16:54:34Z</time>
      </trkpt>
      <trkpt lat="38.181422" lon="-1.378985">
        <ele>141.9</ele>
        <time>2016-09-16T16:54:48Z</time>
      </trkpt>
      <trkpt lat="38.181496" lon="-1.379017">
        <ele>142.4</ele>
        <time>2016-09-16T16:54:53Z</time>
      </trkpt>
      <trkpt lat="38.181694" lon="-1.379153">
        <ele>142.4</ele>
        <time>2016-09-16T16:55:09Z</time>
      </trkpt>
      <trkpt lat="38.181886" lon="-1.379354">
        <ele>142.9</ele>
        <time>2016-09-16T16:55:27Z</time>
      </trkpt>
      <trkpt lat="38.182016" lon="-1.379528">
        <ele>143.4</ele>
        <time>2016-09-16T16:55:41Z</time>
      </trkpt>
      <trkpt lat="38.182044" lon="-1.379575">
        <ele>142.9</ele>
        <time>2016-09-16T16:55:45Z</time>
      </trkpt>
      <trkpt lat="38.182244" lon="-1.379817">
        <ele>141.9</ele>
        <time>2016-09-16T16:56:04Z</time>
      </trkpt>
      <trkpt lat="38.182320" lon="-1.379925">
        <ele>142.4</ele>
        <time>2016-09-16T16:56:13Z</time>
      </trkpt>
      <trkpt lat="38.182443" lon="-1.380212">
        <ele>141.9</ele>
        <time>2016-09-16T16:56:32Z</time>
      </trkpt>
      <trkpt lat="38.182542" lon="-1.380403">
        <ele>143.4</ele>
        <time>2016-09-16T16:56:48Z</time>
      </trkpt>
      <trkpt lat="38.182505" lon="-1.380541">
        <ele>144.3</ele>
        <time>2016-09-16T16:57:00Z</time>
      </trkpt>
      <trkpt lat="38.182562" lon="-1.380692">
        <ele>143.9</ele>
        <time>2016-09-16T16:57:14Z</time>
      </trkpt>
      <trkpt lat="38.182692" lon="-1.380905">
        <ele>143.9</ele>
        <time>2016-09-16T16:57:28Z</time>
      </trkpt>
      <trkpt lat="38.182820" lon="-1.381116">
        <ele>144.3</ele>
        <time>2016-09-16T16:57:43Z</time>
      </trkpt>
      <trkpt lat="38.182875" lon="-1.381207">
        <ele>145.3</ele>
        <time>2016-09-16T16:57:50Z</time>
      </trkpt>
      <trkpt lat="38.183040" lon="-1.381504">
        <ele>145.3</ele>
        <time>2016-09-16T16:58:09Z</time>
      </trkpt>
      <trkpt lat="38.183103" lon="-1.381621">
        <ele>145.3</ele>
        <time>2016-09-16T16:58:17Z</time>
      </trkpt>
      <trkpt lat="38.183295" lon="-1.381827">
        <ele>146.3</ele>
        <time>2016-09-16T16:58:35Z</time>
      </trkpt>
      <trkpt lat="38.183468" lon="-1.381993">
        <ele>147.2</ele>
        <time>2016-09-16T16:58:51Z</time>
      </trkpt>
      <trkpt lat="38.183650" lon="-1.382200">
        <ele>148.2</ele>
        <time>2016-09-16T16:59:09Z</time>
      </trkpt>
      <trkpt lat="38.183775" lon="-1.382443">
        <ele>149.1</ele>
        <time>2016-09-16T16:59:25Z</time>
      </trkpt>
      <trkpt lat="38.183800" lon="-1.382538">
        <ele>147.2</ele>
        <time>2016-09-16T16:59:31Z</time>
      </trkpt>
      <trkpt lat="38.183801" lon="-1.382555">
        <ele>148.2</ele>
        <time>2016-09-16T16:59:32Z</time>
      </trkpt>
      <trkpt lat="38.183816" lon="-1.382759">
        <ele>150.1</ele>
        <time>2016-09-16T16:59:44Z</time>
      </trkpt>
      <trkpt lat="38.183827" lon="-1.382969">
        <ele>151.5</ele>
        <time>2016-09-16T16:59:56Z</time>
      </trkpt>
      <trkpt lat="38.183918" lon="-1.383222">
        <ele>152.0</ele>
        <time>2016-09-16T17:00:11Z</time>
      </trkpt>
      <trkpt lat="38.183940" lon="-1.383399">
        <ele>153.0</ele>
        <time>2016-09-16T17:00:21Z</time>
      </trkpt>
      <trkpt lat="38.183905" lon="-1.383604">
        <ele>153.9</ele>
        <time>2016-09-16T17:00:34Z</time>
      </trkpt>
      <trkpt lat="38.183892" lon="-1.383873">
        <ele>155.9</ele>
        <time>2016-09-16T17:00:49Z</time>
      </trkpt>
      <trkpt lat="38.183910" lon="-1.383945">
        <ele>156.4</ele>
        <time>2016-09-16T17:01:03Z</time>
      </trkpt>
      <trkpt lat="38.183939" lon="-1.383940">
        <ele>155.9</ele>
        <time>2016-09-16T17:01:21Z</time>
      </trkpt>
      <trkpt lat="38.183957" lon="-1.383955">
        <ele>154.9</ele>
        <time>2016-09-16T17:01:24Z</time>
      </trkpt>
      <trkpt lat="38.184057" lon="-1.384007">
        <ele>154.9</ele>
        <time>2016-09-16T17:01:34Z</time>
      </trkpt>
      <trkpt lat="38.184068" lon="-1.384031">
        <ele>153.5</ele>
        <time>2016-09-16T17:01:36Z</time>
      </trkpt>
      <trkpt lat="38.184111" lon="-1.384110">
        <ele>153.0</ele>
        <time>2016-09-16T17:01:42Z</time>
      </trkpt>
      <trkpt lat="38.184175" lon="-1.384123">
        <ele>152.0</ele>
        <time>2016-09-16T17:01:47Z</time>
      </trkpt>
      <trkpt lat="38.184215" lon="-1.384109">
        <ele>150.6</ele>
        <time>2016-09-16T17:01:50Z</time>
      </trkpt>
      <trkpt lat="38.184421" lon="-1.384060">
        <ele>149.6</ele>
        <time>2016-09-16T17:02:04Z</time>
      </trkpt>
      <trkpt lat="38.184468" lon="-1.384116">
        <ele>149.6</ele>
        <time>2016-09-16T17:02:10Z</time>
      </trkpt>
      <trkpt lat="38.184607" lon="-1.384319">
        <ele>147.2</ele>
        <time>2016-09-16T17:02:26Z</time>
      </trkpt>
      <trkpt lat="38.184676" lon="-1.384494">
        <ele>145.3</ele>
        <time>2016-09-16T17:02:38Z</time>
      </trkpt>
      <trkpt lat="38.184726" lon="-1.384618">
        <ele>145.3</ele>
        <time>2016-09-16T17:02:47Z</time>
      </trkpt>
      <trkpt lat="38.184768" lon="-1.384640">
        <ele>146.3</ele>
        <time>2016-09-16T17:02:51Z</time>
      </trkpt>
      <trkpt lat="38.184909" lon="-1.384704">
        <ele>147.7</ele>
        <time>2016-09-16T17:03:03Z</time>
      </trkpt>
      <trkpt lat="38.185045" lon="-1.384558">
        <ele>148.2</ele>
        <time>2016-09-16T17:03:18Z</time>
      </trkpt>
      <trkpt lat="38.185096" lon="-1.384530">
        <ele>148.2</ele>
        <time>2016-09-16T17:03:22Z</time>
      </trkpt>
      <trkpt lat="38.185213" lon="-1.384455">
        <ele>146.7</ele>
        <time>2016-09-16T17:03:34Z</time>
      </trkpt>
      <trkpt lat="38.185439" lon="-1.384499">
        <ele>146.3</ele>
        <time>2016-09-16T17:03:52Z</time>
      </trkpt>
      <trkpt lat="38.185603" lon="-1.384579">
        <ele>146.3</ele>
        <time>2016-09-16T17:04:07Z</time>
      </trkpt>
      <trkpt lat="38.185723" lon="-1.384697">
        <ele>148.2</ele>
        <time>2016-09-16T17:04:23Z</time>
      </trkpt>
      <trkpt lat="38.185744" lon="-1.384715">
        <ele>149.6</ele>
        <time>2016-09-16T17:04:26Z</time>
      </trkpt>
      <trkpt lat="38.185894" lon="-1.384843">
        <ele>149.6</ele>
        <time>2016-09-16T17:04:42Z</time>
      </trkpt>
      <trkpt lat="38.186048" lon="-1.384993">
        <ele>149.1</ele>
        <time>2016-09-16T17:04:59Z</time>
      </trkpt>
      <trkpt lat="38.186068" lon="-1.385025">
        <ele>148.7</ele>
        <time>2016-09-16T17:05:02Z</time>
      </trkpt>
      <trkpt lat="38.186163" lon="-1.385110">
        <ele>149.6</ele>
        <time>2016-09-16T17:05:12Z</time>
      </trkpt>
      <trkpt lat="38.186233" lon="-1.385126">
        <ele>149.1</ele>
        <time>2016-09-16T17:05:18Z</time>
      </trkpt>
      <trkpt lat="38.186465" lon="-1.385138">
        <ele>148.2</ele>
        <time>2016-09-16T17:05:37Z</time>
      </trkpt>
      <trkpt lat="38.186687" lon="-1.385219">
        <ele>148.2</ele>
        <time>2016-09-16T17:05:54Z</time>
      </trkpt>
      <trkpt lat="38.186864" lon="-1.385353">
        <ele>148.7</ele>
        <time>2016-09-16T17:06:09Z</time>
      </trkpt>
      <trkpt lat="38.187014" lon="-1.385548">
        <ele>149.1</ele>
        <time>2016-09-16T17:06:25Z</time>
      </trkpt>
      <trkpt lat="38.187169" lon="-1.385717">
        <ele>150.1</ele>
        <time>2016-09-16T17:06:41Z</time>
      </trkpt>
      <trkpt lat="38.187271" lon="-1.385833">
        <ele>151.1</ele>
        <time>2016-09-16T17:06:51Z</time>
      </trkpt>
      <trkpt lat="38.187319" lon="-1.385914">
        <ele>151.1</ele>
        <time>2016-09-16T17:06:58Z</time>
      </trkpt>
      <trkpt lat="38.187328" lon="-1.385952">
        <ele>152.5</ele>
        <time>2016-09-16T17:07:01Z</time>
      </trkpt>
      <trkpt lat="38.187350" lon="-1.385989">
        <ele>153.0</ele>
        <time>2016-09-16T17:07:04Z</time>
      </trkpt>
      <trkpt lat="38.187386" lon="-1.386085">
        <ele>153.5</ele>
        <time>2016-09-16T17:07:11Z</time>
      </trkpt>
      <trkpt lat="38.187466" lon="-1.386181">
        <ele>154.4</ele>
        <time>2016-09-16T17:07:22Z</time>
      </trkpt>
      <trkpt lat="38.187471" lon="-1.386207">
        <ele>155.4</ele>
        <time>2016-09-16T17:07:24Z</time>
      </trkpt>
      <trkpt lat="38.187471" lon="-1.386294">
        <ele>155.4</ele>
        <time>2016-09-16T17:07:29Z</time>
      </trkpt>
      <trkpt lat="38.187494" lon="-1.386520">
        <ele>157.8</ele>
        <time>2016-09-16T17:07:44Z</time>
      </trkpt>
      <trkpt lat="38.187497" lon="-1.386533">
        <ele>157.8</ele>
        <time>2016-09-16T17:07:45Z</time>
      </trkpt>
      <trkpt lat="38.187546" lon="-1.386677">
        <ele>158.8</ele>
        <time>2016-09-16T17:07:55Z</time>
      </trkpt>
      <trkpt lat="38.187566" lon="-1.386715">
        <ele>159.7</ele>
        <time>2016-09-16T17:07:58Z</time>
      </trkpt>
      <trkpt lat="38.187796" lon="-1.386736">
        <ele>159.2</ele>
        <time>2016-09-16T17:08:15Z</time>
      </trkpt>
      <trkpt lat="38.188039" lon="-1.386798">
        <ele>158.3</ele>
        <time>2016-09-16T17:08:33Z</time>
      </trkpt>
      <trkpt lat="38.188269" lon="-1.386788">
        <ele>158.3</ele>
        <time>2016-09-16T17:08:48Z</time>
      </trkpt>
      <trkpt lat="38.188538" lon="-1.386774">
        <ele>157.8</ele>
        <time>2016-09-16T17:09:07Z</time>
      </trkpt>
      <trkpt lat="38.188716" lon="-1.386805">
        <ele>157.8</ele>
        <time>2016-09-16T17:09:21Z</time>
      </trkpt>
      <trkpt lat="38.188722" lon="-1.386810">
        <ele>157.8</ele>
        <time>2016-09-16T17:09:22Z</time>
      </trkpt>
      <trkpt lat="38.188742" lon="-1.386817">
        <ele>157.8</ele>
        <time>2016-09-16T17:09:24Z</time>
      </trkpt>
      <trkpt lat="38.188795" lon="-1.386819">
        <ele>158.3</ele>
        <time>2016-09-16T17:09:28Z</time>
      </trkpt>
      <trkpt lat="38.188995" lon="-1.386865">
        <ele>157.8</ele>
        <time>2016-09-16T17:09:43Z</time>
      </trkpt>
      <trkpt lat="38.189225" lon="-1.386869">
        <ele>157.8</ele>
        <time>2016-09-16T17:09:59Z</time>
      </trkpt>
      <trkpt lat="38.189467" lon="-1.386890">
        <ele>156.8</ele>
        <time>2016-09-16T17:10:18Z</time>
      </trkpt>
      <trkpt lat="38.189695" lon="-1.386882">
        <ele>156.4</ele>
        <time>2016-09-16T17:10:34Z</time>
      </trkpt>
      <trkpt lat="38.189891" lon="-1.386889">
        <ele>156.4</ele>
        <time>2016-09-16T17:10:51Z</time>
      </trkpt>
      <trkpt lat="38.190132" lon="-1.386892">
        <ele>157.3</ele>
        <time>2016-09-16T17:11:08Z</time>
      </trkpt>
      <trkpt lat="38.190319" lon="-1.386866">
        <ele>156.8</ele>
        <time>2016-09-16T17:11:22Z</time>
      </trkpt>
      <trkpt lat="38.190518" lon="-1.386803">
        <ele>156.8</ele>
        <time>2016-09-16T17:11:39Z</time>
      </trkpt>
      <trkpt lat="38.190728" lon="-1.386739">
        <ele>156.8</ele>
        <time>2016-09-16T17:11:56Z</time>
      </trkpt>
      <trkpt lat="38.190934" lon="-1.386674">
        <ele>157.8</ele>
        <time>2016-09-16T17:12:11Z</time>
      </trkpt>
      <trkpt lat="38.190949" lon="-1.386681">
        <ele>157.8</ele>
        <time>2016-09-16T17:12:12Z</time>
      </trkpt>
      <trkpt lat="38.191119" lon="-1.386666">
        <ele>157.8</ele>
        <time>2016-09-16T17:12:26Z</time>
      </trkpt>
      <trkpt lat="38.191296" lon="-1.386592">
        <ele>157.8</ele>
        <time>2016-09-16T17:12:43Z</time>
      </trkpt>
      <trkpt lat="38.191482" lon="-1.386501">
        <ele>158.8</ele>
        <time>2016-09-16T17:12:57Z</time>
      </trkpt>
      <trkpt lat="38.191711" lon="-1.386467">
        <ele>158.8</ele>
        <time>2016-09-16T17:13:13Z</time>
      </trkpt>
      <trkpt lat="38.191742" lon="-1.386478">
        <ele>159.2</ele>
        <time>2016-09-16T17:13:15Z</time>
      </trkpt>
      <trkpt lat="38.191788" lon="-1.386529">
        <ele>159.7</ele>
        <time>2016-09-16T17:13:19Z</time>
      </trkpt>
      <trkpt lat="38.191859" lon="-1.386633">
        <ele>161.2</ele>
        <time>2016-09-16T17:13:27Z</time>
      </trkpt>
      <trkpt lat="38.191924" lon="-1.386711">
        <ele>161.6</ele>
        <time>2016-09-16T17:13:34Z</time>
      </trkpt>
      <trkpt lat="38.192089" lon="-1.386727">
        <ele>163.1</ele>
        <time>2016-09-16T17:13:46Z</time>
      </trkpt>
      <trkpt lat="38.192266" lon="-1.386762">
        <ele>165.0</ele>
        <time>2016-09-16T17:14:02Z</time>
      </trkpt>
      <trkpt lat="38.192304" lon="-1.386767">
        <ele>165.0</ele>
        <time>2016-09-16T17:14:05Z</time>
      </trkpt>
      <trkpt lat="38.192515" lon="-1.386771">
        <ele>166.4</ele>
        <time>2016-09-16T17:14:20Z</time>
      </trkpt>
      <trkpt lat="38.192617" lon="-1.386762">
        <ele>166.4</ele>
        <time>2016-09-16T17:14:28Z</time>
      </trkpt>
      <trkpt lat="38.192868" lon="-1.386678">
        <ele>166.4</ele>
        <time>2016-09-16T17:14:47Z</time>
      </trkpt>
      <trkpt lat="38.193078" lon="-1.386600">
        <ele>164.0</ele>
        <time>2016-09-16T17:15:04Z</time>
      </trkpt>
      <trkpt lat="38.193315" lon="-1.386552">
        <ele>164.0</ele>
        <time>2016-09-16T17:15:21Z</time>
      </trkpt>
      <trkpt lat="38.193513" lon="-1.386415">
        <ele>164.0</ele>
        <time>2016-09-16T17:15:38Z</time>
      </trkpt>
      <trkpt lat="38.193722" lon="-1.386270">
        <ele>164.0</ele>
        <time>2016-09-16T17:15:55Z</time>
      </trkpt>
      <trkpt lat="38.193856" lon="-1.386129">
        <ele>164.5</ele>
        <time>2016-09-16T17:16:09Z</time>
      </trkpt>
      <trkpt lat="38.193900" lon="-1.386003">
        <ele>165.5</ele>
        <time>2016-09-16T17:16:17Z</time>
      </trkpt>
      <trkpt lat="38.193924" lon="-1.385834">
        <ele>166.9</ele>
        <time>2016-09-16T17:16:29Z</time>
      </trkpt>
      <trkpt lat="38.194011" lon="-1.385755">
        <ele>167.4</ele>
        <time>2016-09-16T17:16:37Z</time>
      </trkpt>
      <trkpt lat="38.194089" lon="-1.385787">
        <ele>167.9</ele>
        <time>2016-09-16T17:16:44Z</time>
      </trkpt>
      <trkpt lat="38.194233" lon="-1.385918">
        <ele>168.9</ele>
        <time>2016-09-16T17:16:58Z</time>
      </trkpt>
      <trkpt lat="38.194449" lon="-1.386052">
        <ele>169.3</ele>
        <time>2016-09-16T17:17:16Z</time>
      </trkpt>
      <trkpt lat="38.194660" lon="-1.386172">
        <ele>169.8</ele>
        <time>2016-09-16T17:17:35Z</time>
      </trkpt>
      <trkpt lat="38.194867" lon="-1.386209">
        <ele>169.3</ele>
        <time>2016-09-16T17:17:51Z</time>
      </trkpt>
      <trkpt lat="38.195065" lon="-1.386327">
        <ele>167.9</ele>
        <time>2016-09-16T17:18:09Z</time>
      </trkpt>
      <trkpt lat="38.195243" lon="-1.386356">
        <ele>165.5</ele>
        <time>2016-09-16T17:18:23Z</time>
      </trkpt>
      <trkpt lat="38.195442" lon="-1.386249">
        <ele>162.6</ele>
        <time>2016-09-16T17:18:38Z</time>
      </trkpt>
      <trkpt lat="38.195658" lon="-1.386224">
        <ele>161.6</ele>
        <time>2016-09-16T17:18:56Z</time>
      </trkpt>
      <trkpt lat="38.195883" lon="-1.386334">
        <ele>161.2</ele>
        <time>2016-09-16T17:19:13Z</time>
      </trkpt>
      <trkpt lat="38.196128" lon="-1.386277">
        <ele>162.1</ele>
        <time>2016-09-16T17:19:29Z</time>
      </trkpt>
      <trkpt lat="38.196347" lon="-1.386233">
        <ele>162.6</ele>
        <time>2016-09-16T17:19:44Z</time>
      </trkpt>
      <trkpt lat="38.196453" lon="-1.386261">
        <ele>161.6</ele>
        <time>2016-09-16T17:19:52Z</time>
      </trkpt>
      <trkpt lat="38.196588" lon="-1.386368">
        <ele>163.1</ele>
        <time>2016-09-16T17:20:05Z</time>
      </trkpt>
      <trkpt lat="38.196598" lon="-1.386377">
        <ele>163.6</ele>
        <time>2016-09-16T17:20:06Z</time>
      </trkpt>
      <trkpt lat="38.196649" lon="-1.386272">
        <ele>161.6</ele>
        <time>2016-09-16T17:20:15Z</time>
      </trkpt>
      <trkpt lat="38.196623" lon="-1.386233">
        <ele>163.6</ele>
        <time>2016-09-16T17:20:18Z</time>
      </trkpt>
      <trkpt lat="38.196443" lon="-1.386062">
        <ele>162.6</ele>
        <time>2016-09-16T17:20:36Z</time>
      </trkpt>
      <trkpt lat="38.196392" lon="-1.385905">
        <ele>162.6</ele>
        <time>2016-09-16T17:20:48Z</time>
      </trkpt>
      <trkpt lat="38.196449" lon="-1.385658">
        <ele>162.1</ele>
        <time>2016-09-16T17:21:03Z</time>
      </trkpt>
      <trkpt lat="38.196437" lon="-1.385603">
        <ele>162.1</ele>
        <time>2016-09-16T17:21:07Z</time>
      </trkpt>
      <trkpt lat="38.196366" lon="-1.385572">
        <ele>162.1</ele>
        <time>2016-09-16T17:21:12Z</time>
      </trkpt>
      <trkpt lat="38.196186" lon="-1.385570">
        <ele>161.2</ele>
        <time>2016-09-16T17:21:26Z</time>
      </trkpt>
      <trkpt lat="38.196175" lon="-1.385559">
        <ele>161.2</ele>
        <time>2016-09-16T17:21:27Z</time>
      </trkpt>
      <trkpt lat="38.196164" lon="-1.385502">
        <ele>161.6</ele>
        <time>2016-09-16T17:21:31Z</time>
      </trkpt>
      <trkpt lat="38.196166" lon="-1.385441">
        <ele>162.6</ele>
        <time>2016-09-16T17:21:35Z</time>
      </trkpt>
      <trkpt lat="38.196147" lon="-1.385369">
        <ele>162.6</ele>
        <time>2016-09-16T17:21:40Z</time>
      </trkpt>
      <trkpt lat="38.196070" lon="-1.385167">
        <ele>160.7</ele>
        <time>2016-09-16T17:21:54Z</time>
      </trkpt>
      <trkpt lat="38.196084" lon="-1.384970">
        <ele>158.8</ele>
        <time>2016-09-16T17:22:09Z</time>
      </trkpt>
      <trkpt lat="38.196306" lon="-1.384925">
        <ele>157.8</ele>
        <time>2016-09-16T17:22:27Z</time>
      </trkpt>
      <trkpt lat="38.196452" lon="-1.385050">
        <ele>157.8</ele>
        <time>2016-09-16T17:22:41Z</time>
      </trkpt>
      <trkpt lat="38.196651" lon="-1.385242">
        <ele>157.8</ele>
        <time>2016-09-16T17:22:59Z</time>
      </trkpt>
      <trkpt lat="38.196779" lon="-1.385342">
        <ele>158.3</ele>
        <time>2016-09-16T17:23:11Z</time>
      </trkpt>
      <trkpt lat="38.196834" lon="-1.385414">
        <ele>157.8</ele>
        <time>2016-09-16T17:23:17Z</time>
      </trkpt>
      <trkpt lat="38.197024" lon="-1.385578">
        <ele>157.8</ele>
        <time>2016-09-16T17:23:34Z</time>
      </trkpt>
      <trkpt lat="38.197049" lon="-1.385606">
        <ele>156.8</ele>
        <time>2016-09-16T17:23:37Z</time>
      </trkpt>
      <trkpt lat="38.197213" lon="-1.385812">
        <ele>157.3</ele>
        <time>2016-09-16T17:23:54Z</time>
      </trkpt>
      <trkpt lat="38.197264" lon="-1.385902">
        <ele>156.8</ele>
        <time>2016-09-16T17:24:00Z</time>
      </trkpt>
      <trkpt lat="38.197290" lon="-1.385952">
        <ele>155.4</ele>
        <time>2016-09-16T17:24:04Z</time>
      </trkpt>
      <trkpt lat="38.197288" lon="-1.386214">
        <ele>156.8</ele>
        <time>2016-09-16T17:24:19Z</time>
      </trkpt>
      <trkpt lat="38.197151" lon="-1.386417">
        <ele>156.8</ele>
        <time>2016-09-16T17:24:36Z</time>
      </trkpt>
      <trkpt lat="38.196996" lon="-1.386641">
        <ele>156.8</ele>
        <time>2016-09-16T17:24:54Z</time>
      </trkpt>
      <trkpt lat="38.196946" lon="-1.386741">
        <ele>157.3</ele>
        <time>2016-09-16T17:25:01Z</time>
      </trkpt>
      <trkpt lat="38.197012" lon="-1.387027">
        <ele>156.8</ele>
        <time>2016-09-16T17:25:18Z</time>
      </trkpt>
      <trkpt lat="38.197137" lon="-1.387244">
        <ele>157.3</ele>
        <time>2016-09-16T17:25:35Z</time>
      </trkpt>
      <trkpt lat="38.197257" lon="-1.387505">
        <ele>157.3</ele>
        <time>2016-09-16T17:25:53Z</time>
      </trkpt>
      <trkpt lat="38.197410" lon="-1.387599">
        <ele>156.8</ele>
        <time>2016-09-16T17:26:07Z</time>
      </trkpt>
      <trkpt lat="38.197648" lon="-1.387657">
        <ele>157.3</ele>
        <time>2016-09-16T17:26:23Z</time>
      </trkpt>
      <trkpt lat="38.197727" lon="-1.387367">
        <ele>157.8</ele>
        <time>2016-09-16T17:26:39Z</time>
      </trkpt>
      <trkpt lat="38.197851" lon="-1.387109">
        <ele>157.8</ele>
        <time>2016-09-16T17:26:57Z</time>
      </trkpt>
      <trkpt lat="38.198019" lon="-1.387063">
        <ele>158.3</ele>
        <time>2016-09-16T17:27:12Z</time>
      </trkpt>
      <trkpt lat="38.198105" lon="-1.387039">
        <ele>158.8</ele>
        <time>2016-09-16T17:27:18Z</time>
      </trkpt>
      <trkpt lat="38.198158" lon="-1.387009">
        <ele>159.2</ele>
        <time>2016-09-16T17:27:22Z</time>
      </trkpt>
      <trkpt lat="38.198364" lon="-1.386906">
        <ele>158.3</ele>
        <time>2016-09-16T17:27:39Z</time>
      </trkpt>
      <trkpt lat="38.198513" lon="-1.386950">
        <ele>157.8</ele>
        <time>2016-09-16T17:27:53Z</time>
      </trkpt>
      <trkpt lat="38.198675" lon="-1.387054">
        <ele>157.8</ele>
        <time>2016-09-16T17:28:08Z</time>
      </trkpt>
      <trkpt lat="38.198865" lon="-1.387176">
        <ele>157.8</ele>
        <time>2016-09-16T17:28:24Z</time>
      </trkpt>
      <trkpt lat="38.199059" lon="-1.387244">
        <ele>157.8</ele>
        <time>2016-09-16T17:28:40Z</time>
      </trkpt>
      <trkpt lat="38.199254" lon="-1.387374">
        <ele>157.8</ele>
        <time>2016-09-16T17:28:56Z</time>
      </trkpt>
      <trkpt lat="38.199345" lon="-1.387389">
        <ele>158.3</ele>
        <time>2016-09-16T17:29:10Z</time>
      </trkpt>
      <trkpt lat="38.199344" lon="-1.387383">
        <ele>157.8</ele>
        <time>2016-09-16T17:29:14Z</time>
      </trkpt>
      <trkpt lat="38.199592" lon="-1.387531">
        <ele>157.8</ele>
        <time>2016-09-16T17:29:33Z</time>
      </trkpt>
      <trkpt lat="38.199827" lon="-1.387629">
        <ele>158.8</ele>
        <time>2016-09-16T17:29:51Z</time>
      </trkpt>
      <trkpt lat="38.199993" lon="-1.387763">
        <ele>158.8</ele>
        <time>2016-09-16T17:30:06Z</time>
      </trkpt>
      <trkpt lat="38.200137" lon="-1.387912">
        <ele>158.3</ele>
        <time>2016-09-16T17:30:20Z</time>
      </trkpt>
      <trkpt lat="38.200318" lon="-1.388077">
        <ele>158.3</ele>
        <time>2016-09-16T17:30:38Z</time>
      </trkpt>
      <trkpt lat="38.200350" lon="-1.388099">
        <ele>158.8</ele>
        <time>2016-09-16T17:30:41Z</time>
      </trkpt>
      <trkpt lat="38.200588" lon="-1.388159">
        <ele>158.3</ele>
        <time>2016-09-16T17:30:59Z</time>
      </trkpt>
      <trkpt lat="38.200797" lon="-1.388227">
        <ele>158.3</ele>
        <time>2016-09-16T17:31:16Z</time>
      </trkpt>
      <trkpt lat="38.200954" lon="-1.388364">
        <ele>157.8</ele>
        <time>2016-09-16T17:31:32Z</time>
      </trkpt>
      <trkpt lat="38.201018" lon="-1.388470">
        <ele>158.8</ele>
        <time>2016-09-16T17:31:40Z</time>
      </trkpt>
      <trkpt lat="38.201130" lon="-1.388621">
        <ele>157.8</ele>
        <time>2016-09-16T17:31:55Z</time>
      </trkpt>
      <trkpt lat="38.201190" lon="-1.388698">
        <ele>158.8</ele>
        <time>2016-09-16T17:32:08Z</time>
      </trkpt>
      <trkpt lat="38.201199" lon="-1.388786">
        <ele>158.8</ele>
        <time>2016-09-16T17:32:19Z</time>
      </trkpt>
      <trkpt lat="38.201197" lon="-1.388788">
        <ele>158.3</ele>
        <time>2016-09-16T17:32:23Z</time>
      </trkpt>
      <trkpt lat="38.201256" lon="-1.389050">
        <ele>157.8</ele>
        <time>2016-09-16T17:32:41Z</time>
      </trkpt>
      <trkpt lat="38.201309" lon="-1.389269">
        <ele>158.3</ele>
        <time>2016-09-16T17:32:55Z</time>
      </trkpt>
      <trkpt lat="38.201353" lon="-1.389463">
        <ele>158.3</ele>
        <time>2016-09-16T17:33:07Z</time>
      </trkpt>
      <trkpt lat="38.201393" lon="-1.389719">
        <ele>157.8</ele>
        <time>2016-09-16T17:33:23Z</time>
      </trkpt>
      <trkpt lat="38.201439" lon="-1.389948">
        <ele>157.3</ele>
        <time>2016-09-16T17:33:38Z</time>
      </trkpt>
      <trkpt lat="38.201474" lon="-1.389998">
        <ele>157.3</ele>
        <time>2016-09-16T17:33:43Z</time>
      </trkpt>
      <trkpt lat="38.201571" lon="-1.390061">
        <ele>153.9</ele>
        <time>2016-09-16T17:33:52Z</time>
      </trkpt>
      <trkpt lat="38.201612" lon="-1.390103">
        <ele>152.0</ele>
        <time>2016-09-16T17:33:59Z</time>
      </trkpt>
      <trkpt lat="38.201616" lon="-1.390284">
        <ele>152.5</ele>
        <time>2016-09-16T17:34:13Z</time>
      </trkpt>
      <trkpt lat="38.201627" lon="-1.390528">
        <ele>152.5</ele>
        <time>2016-09-16T17:34:28Z</time>
      </trkpt>
      <trkpt lat="38.201628" lon="-1.390546">
        <ele>152.5</ele>
        <time>2016-09-16T17:34:29Z</time>
      </trkpt>
      <trkpt lat="38.201615" lon="-1.390832">
        <ele>152.0</ele>
        <time>2016-09-16T17:34:47Z</time>
      </trkpt>
      <trkpt lat="38.201617" lon="-1.390863">
        <ele>152.5</ele>
        <time>2016-09-16T17:34:49Z</time>
      </trkpt>
      <trkpt lat="38.201639" lon="-1.391094">
        <ele>152.0</ele>
        <time>2016-09-16T17:35:06Z</time>
      </trkpt>
      <trkpt lat="38.201681" lon="-1.391100">
        <ele>151.5</ele>
        <time>2016-09-16T17:35:23Z</time>
      </trkpt>
      <trkpt lat="38.201701" lon="-1.391092">
        <ele>152.5</ele>
        <time>2016-09-16T17:35:41Z</time>
      </trkpt>
      <trkpt lat="38.201767" lon="-1.391092">
        <ele>152.5</ele>
        <time>2016-09-16T17:35:45Z</time>
      </trkpt>
      <trkpt lat="38.201787" lon="-1.391141">
        <ele>152.0</ele>
        <time>2016-09-16T17:35:49Z</time>
      </trkpt>
      <trkpt lat="38.201771" lon="-1.391460">
        <ele>152.0</ele>
        <time>2016-09-16T17:36:06Z</time>
      </trkpt>
      <trkpt lat="38.201781" lon="-1.391753">
        <ele>152.5</ele>
        <time>2016-09-16T17:36:23Z</time>
      </trkpt>
      <trkpt lat="38.201805" lon="-1.392035">
        <ele>152.5</ele>
        <time>2016-09-16T17:36:40Z</time>
      </trkpt>
      <trkpt lat="38.201808" lon="-1.392173">
        <ele>152.0</ele>
        <time>2016-09-16T17:36:49Z</time>
      </trkpt>
      <trkpt lat="38.201745" lon="-1.392426">
        <ele>152.0</ele>
        <time>2016-09-16T17:37:05Z</time>
      </trkpt>
      <trkpt lat="38.201664" lon="-1.392767">
        <ele>151.5</ele>
        <time>2016-09-16T17:37:24Z</time>
      </trkpt>
      <trkpt lat="38.201614" lon="-1.393044">
        <ele>152.0</ele>
        <time>2016-09-16T17:37:41Z</time>
      </trkpt>
      <trkpt lat="38.201605" lon="-1.393057">
        <ele>151.5</ele>
        <time>2016-09-16T17:37:42Z</time>
      </trkpt>
      <trkpt lat="38.201510" lon="-1.393393">
        <ele>151.5</ele>
        <time>2016-09-16T17:38:02Z</time>
      </trkpt>
      <trkpt lat="38.201489" lon="-1.393438">
        <ele>151.5</ele>
        <time>2016-09-16T17:38:05Z</time>
      </trkpt>
      <trkpt lat="38.201458" lon="-1.393456">
        <ele>151.1</ele>
        <time>2016-09-16T17:38:08Z</time>
      </trkpt>
      <trkpt lat="38.201404" lon="-1.393421">
        <ele>151.5</ele>
        <time>2016-09-16T17:38:14Z</time>
      </trkpt>
      <trkpt lat="38.201342" lon="-1.393440">
        <ele>151.5</ele>
        <time>2016-09-16T17:38:20Z</time>
      </trkpt>
      <trkpt lat="38.201273" lon="-1.393423">
        <ele>152.0</ele>
        <time>2016-09-16T17:38:26Z</time>
      </trkpt>
      <trkpt lat="38.201194" lon="-1.393617">
        <ele>151.5</ele>
        <time>2016-09-16T17:38:39Z</time>
      </trkpt>
      <trkpt lat="38.201131" lon="-1.393692">
        <ele>151.1</ele>
        <time>2016-09-16T17:38:46Z</time>
      </trkpt>
      <trkpt lat="38.200994" lon="-1.393804">
        <ele>153.9</ele>
        <time>2016-09-16T17:38:58Z</time>
      </trkpt>
      <trkpt lat="38.200938" lon="-1.393816">
        <ele>155.9</ele>
        <time>2016-09-16T17:39:01Z</time>
      </trkpt>
      <trkpt lat="38.200909" lon="-1.393835">
        <ele>156.8</ele>
        <time>2016-09-16T17:39:03Z</time>
      </trkpt>
      <trkpt lat="38.200680" lon="-1.394046">
        <ele>157.3</ele>
        <time>2016-09-16T17:39:21Z</time>
      </trkpt>
      <trkpt lat="38.200476" lon="-1.394143">
        <ele>156.8</ele>
        <time>2016-09-16T17:39:36Z</time>
      </trkpt>
      <trkpt lat="38.200432" lon="-1.394180">
        <ele>157.3</ele>
        <time>2016-09-16T17:39:40Z</time>
      </trkpt>
      <trkpt lat="38.200381" lon="-1.394195">
        <ele>157.8</ele>
        <time>2016-09-16T17:39:44Z</time>
      </trkpt>
      <trkpt lat="38.200158" lon="-1.394346">
        <ele>157.3</ele>
        <time>2016-09-16T17:40:02Z</time>
      </trkpt>
      <trkpt lat="38.200074" lon="-1.394371">
        <ele>155.9</ele>
        <time>2016-09-16T17:40:15Z</time>
      </trkpt>
      <trkpt lat="38.200077" lon="-1.394381">
        <ele>155.9</ele>
        <time>2016-09-16T17:40:16Z</time>
      </trkpt>
      <trkpt lat="38.200071" lon="-1.394422">
        <ele>154.9</ele>
        <time>2016-09-16T17:40:19Z</time>
      </trkpt>
      <trkpt lat="38.200057" lon="-1.394449">
        <ele>153.5</ele>
        <time>2016-09-16T17:40:21Z</time>
      </trkpt>
      <trkpt lat="38.199859" lon="-1.394602">
        <ele>152.5</ele>
        <time>2016-09-16T17:40:37Z</time>
      </trkpt>
      <trkpt lat="38.199772" lon="-1.394688">
        <ele>153.0</ele>
        <time>2016-09-16T17:40:45Z</time>
      </trkpt>
      <trkpt lat="38.199621" lon="-1.394925">
        <ele>152.0</ele>
        <time>2016-09-16T17:41:04Z</time>
      </trkpt>
      <trkpt lat="38.199550" lon="-1.395116">
        <ele>151.5</ele>
        <time>2016-09-16T17:41:16Z</time>
      </trkpt>
      <trkpt lat="38.199403" lon="-1.395414">
        <ele>151.5</ele>
        <time>2016-09-16T17:41:34Z</time>
      </trkpt>
      <trkpt lat="38.199384" lon="-1.395481">
        <ele>152.0</ele>
        <time>2016-09-16T17:41:38Z</time>
      </trkpt>
      <trkpt lat="38.199300" lon="-1.395746">
        <ele>151.5</ele>
        <time>2016-09-16T17:41:54Z</time>
      </trkpt>
      <trkpt lat="38.199219" lon="-1.395933">
        <ele>151.5</ele>
        <time>2016-09-16T17:42:08Z</time>
      </trkpt>
      <trkpt lat="38.199156" lon="-1.396200">
        <ele>152.5</ele>
        <time>2016-09-16T17:42:23Z</time>
      </trkpt>
      <trkpt lat="38.199106" lon="-1.396495">
        <ele>152.0</ele>
        <time>2016-09-16T17:42:40Z</time>
      </trkpt>
      <trkpt lat="38.199054" lon="-1.396750">
        <ele>152.5</ele>
        <time>2016-09-16T17:42:56Z</time>
      </trkpt>
      <trkpt lat="38.198934" lon="-1.397037">
        <ele>153.0</ele>
        <time>2016-09-16T17:43:15Z</time>
      </trkpt>
      <trkpt lat="38.198823" lon="-1.397265">
        <ele>153.5</ele>
        <time>2016-09-16T17:43:31Z</time>
      </trkpt>
      <trkpt lat="38.198662" lon="-1.397510">
        <ele>153.5</ele>
        <time>2016-09-16T17:43:51Z</time>
      </trkpt>
      <trkpt lat="38.198504" lon="-1.397761">
        <ele>153.5</ele>
        <time>2016-09-16T17:44:09Z</time>
      </trkpt>
      <trkpt lat="38.198355" lon="-1.397982">
        <ele>153.0</ele>
        <time>2016-09-16T17:44:26Z</time>
      </trkpt>
      <trkpt lat="38.198205" lon="-1.398202">
        <ele>153.5</ele>
        <time>2016-09-16T17:44:43Z</time>
      </trkpt>
      <trkpt lat="38.198036" lon="-1.398442">
        <ele>153.0</ele>
        <time>2016-09-16T17:45:02Z</time>
      </trkpt>
      <trkpt lat="38.197891" lon="-1.398680">
        <ele>153.0</ele>
        <time>2016-09-16T17:45:20Z</time>
      </trkpt>
      <trkpt lat="38.197792" lon="-1.398938">
        <ele>153.5</ele>
        <time>2016-09-16T17:45:37Z</time>
      </trkpt>
      <trkpt lat="38.197706" lon="-1.399235">
        <ele>153.9</ele>
        <time>2016-09-16T17:45:55Z</time>
      </trkpt>
      <trkpt lat="38.197682" lon="-1.399527">
        <ele>153.9</ele>
        <time>2016-09-16T17:46:12Z</time>
      </trkpt>
      <trkpt lat="38.197713" lon="-1.399803">
        <ele>153.5</ele>
        <time>2016-09-16T17:46:29Z</time>
      </trkpt>
      <trkpt lat="38.197757" lon="-1.399918">
        <ele>152.5</ele>
        <time>2016-09-16T17:46:37Z</time>
      </trkpt>
      <trkpt lat="38.197786" lon="-1.399985">
        <ele>152.0</ele>
        <time>2016-09-16T17:46:41Z</time>
      </trkpt>
      <trkpt lat="38.197785" lon="-1.400158">
        <ele>151.5</ele>
        <time>2016-09-16T17:46:51Z</time>
      </trkpt>
      <trkpt lat="38.197808" lon="-1.400391">
        <ele>152.5</ele>
        <time>2016-09-16T17:47:06Z</time>
      </trkpt>
      <trkpt lat="38.197815" lon="-1.400476">
        <ele>152.0</ele>
        <time>2016-09-16T17:47:11Z</time>
      </trkpt>
      <trkpt lat="38.197851" lon="-1.400775">
        <ele>153.0</ele>
        <time>2016-09-16T17:47:28Z</time>
      </trkpt>
      <trkpt lat="38.197900" lon="-1.401051">
        <ele>153.5</ele>
        <time>2016-09-16T17:47:44Z</time>
      </trkpt>
      <trkpt lat="38.198049" lon="-1.401280">
        <ele>154.4</ele>
        <time>2016-09-16T17:48:01Z</time>
      </trkpt>
      <trkpt lat="38.198086" lon="-1.401330">
        <ele>155.9</ele>
        <time>2016-09-16T17:48:05Z</time>
      </trkpt>
      <trkpt lat="38.198097" lon="-1.401359">
        <ele>155.9</ele>
        <time>2016-09-16T17:48:07Z</time>
      </trkpt>
      <trkpt lat="38.198118" lon="-1.401409">
        <ele>156.4</ele>
        <time>2016-09-16T17:48:11Z</time>
      </trkpt>
      <trkpt lat="38.198172" lon="-1.401493">
        <ele>157.3</ele>
        <time>2016-09-16T17:48:17Z</time>
      </trkpt>
      <trkpt lat="38.198197" lon="-1.401561">
        <ele>157.8</ele>
        <time>2016-09-16T17:48:21Z</time>
      </trkpt>
      <trkpt lat="38.198272" lon="-1.401710">
        <ele>158.3</ele>
        <time>2016-09-16T17:48:31Z</time>
      </trkpt>
      <trkpt lat="38.198503" lon="-1.401800">
        <ele>157.8</ele>
        <time>2016-09-16T17:48:47Z</time>
      </trkpt>
      <trkpt lat="38.198699" lon="-1.402064">
        <ele>157.3</ele>
        <time>2016-09-16T17:49:07Z</time>
      </trkpt>
      <trkpt lat="38.198808" lon="-1.402246">
        <ele>157.8</ele>
        <time>2016-09-16T17:49:21Z</time>
      </trkpt>
      <trkpt lat="38.198917" lon="-1.402437">
        <ele>157.3</ele>
        <time>2016-09-16T17:49:34Z</time>
      </trkpt>
      <trkpt lat="38.198991" lon="-1.402718">
        <ele>157.3</ele>
        <time>2016-09-16T17:49:51Z</time>
      </trkpt>
      <trkpt lat="38.199090" lon="-1.402928">
        <ele>157.3</ele>
        <time>2016-09-16T17:50:05Z</time>
      </trkpt>
      <trkpt lat="38.199111" lon="-1.402957">
        <ele>157.3</ele>
        <time>2016-09-16T17:50:07Z</time>
      </trkpt>
      <trkpt lat="38.199164" lon="-1.403017">
        <ele>156.4</ele>
        <time>2016-09-16T17:50:12Z</time>
      </trkpt>
      <trkpt lat="38.199195" lon="-1.403113">
        <ele>156.4</ele>
        <time>2016-09-16T17:50:22Z</time>
      </trkpt>
      <trkpt lat="38.199197" lon="-1.403159">
        <ele>156.8</ele>
        <time>2016-09-16T17:50:26Z</time>
      </trkpt>
      <trkpt lat="38.199188" lon="-1.403294">
        <ele>155.9</ele>
        <time>2016-09-16T17:50:36Z</time>
      </trkpt>
      <trkpt lat="38.199340" lon="-1.403541">
        <ele>154.4</ele>
        <time>2016-09-16T17:50:53Z</time>
      </trkpt>
      <trkpt lat="38.199496" lon="-1.403814">
        <ele>154.9</ele>
        <time>2016-09-16T17:51:09Z</time>
      </trkpt>
      <trkpt lat="38.199493" lon="-1.403845">
        <ele>155.4</ele>
        <time>2016-09-16T17:51:11Z</time>
      </trkpt>
      <trkpt lat="38.199620" lon="-1.404000">
        <ele>155.4</ele>
        <time>2016-09-16T17:51:22Z</time>
      </trkpt>
      <trkpt lat="38.199710" lon="-1.404087">
        <ele>155.9</ele>
        <time>2016-09-16T17:51:30Z</time>
      </trkpt>
      <trkpt lat="38.199778" lon="-1.404099">
        <ele>156.4</ele>
        <time>2016-09-16T17:51:35Z</time>
      </trkpt>
      <trkpt lat="38.199803" lon="-1.404093">
        <ele>156.4</ele>
        <time>2016-09-16T17:51:37Z</time>
      </trkpt>
      <trkpt lat="38.199993" lon="-1.404050">
        <ele>156.8</ele>
        <time>2016-09-16T17:51:51Z</time>
      </trkpt>
      <trkpt lat="38.200150" lon="-1.404164">
        <ele>155.9</ele>
        <time>2016-09-16T17:52:04Z</time>
      </trkpt>
      <trkpt lat="38.200290" lon="-1.404305">
        <ele>153.5</ele>
        <time>2016-09-16T17:52:17Z</time>
      </trkpt>
      <trkpt lat="38.200473" lon="-1.404472">
        <ele>153.5</ele>
        <time>2016-09-16T17:52:33Z</time>
      </trkpt>
      <trkpt lat="38.200489" lon="-1.404490">
        <ele>153.5</ele>
        <time>2016-09-16T17:52:35Z</time>
      </trkpt>
      <trkpt lat="38.200618" lon="-1.404612">
        <ele>153.0</ele>
        <time>2016-09-16T17:52:49Z</time>
      </trkpt>
      <trkpt lat="38.200695" lon="-1.404745">
        <ele>152.5</ele>
        <time>2016-09-16T17:53:01Z</time>
      </trkpt>
      <trkpt lat="38.200711" lon="-1.404783">
        <ele>153.0</ele>
        <time>2016-09-16T17:53:04Z</time>
      </trkpt>
      <trkpt lat="38.200774" lon="-1.404853">
        <ele>153.5</ele>
        <time>2016-09-16T17:53:11Z</time>
      </trkpt>
      <trkpt lat="38.200944" lon="-1.404900">
        <ele>153.0</ele>
        <time>2016-09-16T17:53:24Z</time>
      </trkpt>
      <trkpt lat="38.201080" lon="-1.405069">
        <ele>152.5</ele>
        <time>2016-09-16T17:53:39Z</time>
      </trkpt>
      <trkpt lat="38.201112" lon="-1.405079">
        <ele>152.5</ele>
        <time>2016-09-16T17:53:41Z</time>
      </trkpt>
      <trkpt lat="38.201137" lon="-1.405092">
        <ele>152.5</ele>
        <time>2016-09-16T17:53:43Z</time>
      </trkpt>
      <trkpt lat="38.201307" lon="-1.405255">
        <ele>152.0</ele>
        <time>2016-09-16T17:53:59Z</time>
      </trkpt>
      <trkpt lat="38.201522" lon="-1.405291">
        <ele>152.0</ele>
        <time>2016-09-16T17:54:15Z</time>
      </trkpt>
      <trkpt lat="38.201699" lon="-1.405334">
        <ele>152.5</ele>
        <time>2016-09-16T17:54:28Z</time>
      </trkpt>
      <trkpt lat="38.201886" lon="-1.405393">
        <ele>153.0</ele>
        <time>2016-09-16T17:54:41Z</time>
      </trkpt>
      <trkpt lat="38.202101" lon="-1.405491">
        <ele>152.5</ele>
        <time>2016-09-16T17:54:58Z</time>
      </trkpt>
      <trkpt lat="38.202242" lon="-1.405564">
        <ele>153.0</ele>
        <time>2016-09-16T17:55:12Z</time>
      </trkpt>
      <trkpt lat="38.202416" lon="-1.405631">
        <ele>152.5</ele>
        <time>2016-09-16T17:55:25Z</time>
      </trkpt>
      <trkpt lat="38.202501" lon="-1.405657">
        <ele>153.0</ele>
        <time>2016-09-16T17:55:32Z</time>
      </trkpt>
      <trkpt lat="38.202561" lon="-1.405676">
        <ele>153.0</ele>
        <time>2016-09-16T17:55:37Z</time>
      </trkpt>
      <trkpt lat="38.202775" lon="-1.405774">
        <ele>153.0</ele>
        <time>2016-09-16T17:55:54Z</time>
      </trkpt>
      <trkpt lat="38.202856" lon="-1.405807">
        <ele>153.0</ele>
        <time>2016-09-16T17:56:01Z</time>
      </trkpt>
      <trkpt lat="38.202975" lon="-1.405853">
        <ele>153.5</ele>
        <time>2016-09-16T17:59:16Z</time>
      </trkpt>
      <trkpt lat="38.203210" lon="-1.405918">
        <ele>153.9</ele>
        <time>2016-09-16T17:59:31Z</time>
      </trkpt>
      <trkpt lat="38.203394" lon="-1.405857">
        <ele>154.9</ele>
        <time>2016-09-16T17:59:44Z</time>
      </trkpt>
      <trkpt lat="38.203592" lon="-1.405822">
        <ele>154.4</ele>
        <time>2016-09-16T17:59:58Z</time>
      </trkpt>
      <trkpt lat="38.203752" lon="-1.405777">
        <ele>153.9</ele>
        <time>2016-09-16T18:00:10Z</time>
      </trkpt>
      <trkpt lat="38.203813" lon="-1.405789">
        <ele>153.0</ele>
        <time>2016-09-16T18:00:26Z</time>
      </trkpt>
      <trkpt lat="38.203830" lon="-1.405794">
        <ele>153.5</ele>
        <time>2016-09-16T18:00:33Z</time>
      </trkpt>
      <trkpt lat="38.203866" lon="-1.405737">
        <ele>153.9</ele>
        <time>2016-09-16T18:00:40Z</time>
      </trkpt>
      <trkpt lat="38.203901" lon="-1.405736">
        <ele>154.4</ele>
        <time>2016-09-16T18:00:43Z</time>
      </trkpt>
      <trkpt lat="38.204088" lon="-1.405773">
        <ele>153.9</ele>
        <time>2016-09-16T18:00:57Z</time>
      </trkpt>
      <trkpt lat="38.204174" lon="-1.405768">
        <ele>153.9</ele>
        <time>2016-09-16T18:01:03Z</time>
      </trkpt>
      <trkpt lat="38.204408" lon="-1.405643">
        <ele>153.5</ele>
        <time>2016-09-16T18:01:18Z</time>
      </trkpt>
      <trkpt lat="38.204608" lon="-1.405658">
        <ele>153.5</ele>
        <time>2016-09-16T18:01:31Z</time>
      </trkpt>
      <trkpt lat="38.204843" lon="-1.405624">
        <ele>153.9</ele>
        <time>2016-09-16T18:01:48Z</time>
      </trkpt>
      <trkpt lat="38.205113" lon="-1.405601">
        <ele>153.9</ele>
        <time>2016-09-16T18:02:06Z</time>
      </trkpt>
      <trkpt lat="38.205389" lon="-1.405647">
        <ele>154.9</ele>
        <time>2016-09-16T18:02:23Z</time>
      </trkpt>
      <trkpt lat="38.205640" lon="-1.405665">
        <ele>154.9</ele>
        <time>2016-09-16T18:02:39Z</time>
      </trkpt>
      <trkpt lat="38.205870" lon="-1.405607">
        <ele>154.9</ele>
        <time>2016-09-16T18:02:55Z</time>
      </trkpt>
      <trkpt lat="38.206119" lon="-1.405577">
        <ele>154.9</ele>
        <time>2016-09-16T18:03:12Z</time>
      </trkpt>
      <trkpt lat="38.206362" lon="-1.405511">
        <ele>154.4</ele>
        <time>2016-09-16T18:03:27Z</time>
      </trkpt>
      <trkpt lat="38.206526" lon="-1.405396">
        <ele>154.9</ele>
        <time>2016-09-16T18:03:42Z</time>
      </trkpt>
      <trkpt lat="38.206735" lon="-1.405144">
        <ele>154.9</ele>
        <time>2016-09-16T18:04:01Z</time>
      </trkpt>
      <trkpt lat="38.206908" lon="-1.404918">
        <ele>154.9</ele>
        <time>2016-09-16T18:04:17Z</time>
      </trkpt>
      <trkpt lat="38.207071" lon="-1.404656">
        <ele>154.9</ele>
        <time>2016-09-16T18:04:35Z</time>
      </trkpt>
      <trkpt lat="38.207119" lon="-1.404569">
        <ele>154.4</ele>
        <time>2016-09-16T18:04:41Z</time>
      </trkpt>
      <trkpt lat="38.207274" lon="-1.404356">
        <ele>154.4</ele>
        <time>2016-09-16T18:04:54Z</time>
      </trkpt>
      <trkpt lat="38.207490" lon="-1.404081">
        <ele>154.9</ele>
        <time>2016-09-16T18:05:12Z</time>
      </trkpt>
      <trkpt lat="38.207559" lon="-1.404010">
        <ele>154.9</ele>
        <time>2016-09-16T18:05:18Z</time>
      </trkpt>
      <trkpt lat="38.207719" lon="-1.403812">
        <ele>154.9</ele>
        <time>2016-09-16T18:05:35Z</time>
      </trkpt>
      <trkpt lat="38.207905" lon="-1.403633">
        <ele>154.9</ele>
        <time>2016-09-16T18:05:53Z</time>
      </trkpt>
      <trkpt lat="38.208071" lon="-1.403485">
        <ele>154.9</ele>
        <time>2016-09-16T18:06:10Z</time>
      </trkpt>
      <trkpt lat="38.208249" lon="-1.403344">
        <ele>155.9</ele>
        <time>2016-09-16T18:06:26Z</time>
      </trkpt>
      <trkpt lat="38.208455" lon="-1.403336">
        <ele>156.4</ele>
        <time>2016-09-16T18:06:42Z</time>
      </trkpt>
      <trkpt lat="38.208573" lon="-1.403507">
        <ele>157.8</ele>
        <time>2016-09-16T18:06:54Z</time>
      </trkpt>
      <trkpt lat="38.208583" lon="-1.403519">
        <ele>157.8</ele>
        <time>2016-09-16T18:06:55Z</time>
      </trkpt>
      <trkpt lat="38.208675" lon="-1.403512">
        <ele>159.2</ele>
        <time>2016-09-16T18:07:02Z</time>
      </trkpt>
      <trkpt lat="38.208752" lon="-1.403415">
        <ele>159.2</ele>
        <time>2016-09-16T18:07:09Z</time>
      </trkpt>
      <trkpt lat="38.208945" lon="-1.403248">
        <ele>158.8</ele>
        <time>2016-09-16T18:07:25Z</time>
      </trkpt>
      <trkpt lat="38.209202" lon="-1.403209">
        <ele>158.8</ele>
        <time>2016-09-16T18:07:44Z</time>
      </trkpt>
      <trkpt lat="38.209454" lon="-1.403303">
        <ele>158.8</ele>
        <time>2016-09-16T18:08:00Z</time>
      </trkpt>
      <trkpt lat="38.209662" lon="-1.403402">
        <ele>158.8</ele>
        <time>2016-09-16T18:08:16Z</time>
      </trkpt>
      <trkpt lat="38.209833" lon="-1.403644">
        <ele>158.8</ele>
        <time>2016-09-16T18:08:33Z</time>
      </trkpt>
      <trkpt lat="38.209905" lon="-1.403893">
        <ele>158.8</ele>
        <time>2016-09-16T18:08:46Z</time>
      </trkpt>
      <trkpt lat="38.210032" lon="-1.404074">
        <ele>157.8</ele>
        <time>2016-09-16T18:09:00Z</time>
      </trkpt>
      <trkpt lat="38.210152" lon="-1.404330">
        <ele>158.3</ele>
        <time>2016-09-16T18:09:16Z</time>
      </trkpt>
      <trkpt lat="38.210186" lon="-1.404425">
        <ele>158.3</ele>
        <time>2016-09-16T18:09:22Z</time>
      </trkpt>
      <trkpt lat="38.210296" lon="-1.404714">
        <ele>157.8</ele>
        <time>2016-09-16T18:09:40Z</time>
      </trkpt>
      <trkpt lat="38.210459" lon="-1.405057">
        <ele>158.3</ele>
        <time>2016-09-16T18:10:01Z</time>
      </trkpt>
      <trkpt lat="38.210618" lon="-1.405293">
        <ele>158.3</ele>
        <time>2016-09-16T18:10:18Z</time>
      </trkpt>
      <trkpt lat="38.210821" lon="-1.405517">
        <ele>158.8</ele>
        <time>2016-09-16T18:10:36Z</time>
      </trkpt>
      <trkpt lat="38.210988" lon="-1.405628">
        <ele>158.3</ele>
        <time>2016-09-16T18:10:51Z</time>
      </trkpt>
      <trkpt lat="38.211191" lon="-1.405800">
        <ele>157.3</ele>
        <time>2016-09-16T18:11:09Z</time>
      </trkpt>
      <trkpt lat="38.211384" lon="-1.406029">
        <ele>157.8</ele>
        <time>2016-09-16T18:11:25Z</time>
      </trkpt>
      <trkpt lat="38.211476" lon="-1.406231">
        <ele>158.3</ele>
        <time>2016-09-16T18:11:38Z</time>
      </trkpt>
      <trkpt lat="38.211604" lon="-1.406443">
        <ele>158.3</ele>
        <time>2016-09-16T18:11:53Z</time>
      </trkpt>
      <trkpt lat="38.211758" lon="-1.406675">
        <ele>157.3</ele>
        <time>2016-09-16T18:12:10Z</time>
      </trkpt>
      <trkpt lat="38.211785" lon="-1.406716">
        <ele>157.3</ele>
        <time>2016-09-16T18:12:13Z</time>
      </trkpt>
      <trkpt lat="38.211896" lon="-1.406928">
        <ele>157.3</ele>
        <time>2016-09-16T18:12:28Z</time>
      </trkpt>
      <trkpt lat="38.211984" lon="-1.407071">
        <ele>157.3</ele>
        <time>2016-09-16T18:12:38Z</time>
      </trkpt>
      <trkpt lat="38.212171" lon="-1.407286">
        <ele>157.8</ele>
        <time>2016-09-16T18:12:55Z</time>
      </trkpt>
      <trkpt lat="38.212309" lon="-1.407462">
        <ele>158.8</ele>
        <time>2016-09-16T18:13:09Z</time>
      </trkpt>
      <trkpt lat="38.212464" lon="-1.407596">
        <ele>158.8</ele>
        <time>2016-09-16T18:13:22Z</time>
      </trkpt>
      <trkpt lat="38.212650" lon="-1.407754">
        <ele>158.3</ele>
        <time>2016-09-16T18:13:37Z</time>
      </trkpt>
      <trkpt lat="38.212844" lon="-1.407929">
        <ele>158.3</ele>
        <time>2016-09-16T18:13:55Z</time>
      </trkpt>
      <trkpt lat="38.213044" lon="-1.408070">
        <ele>158.3</ele>
        <time>2016-09-16T18:14:11Z</time>
      </trkpt>
      <trkpt lat="38.213219" lon="-1.408192">
        <ele>157.8</ele>
        <time>2016-09-16T18:14:24Z</time>
      </trkpt>
      <trkpt lat="38.213435" lon="-1.408213">
        <ele>158.3</ele>
        <time>2016-09-16T18:14:40Z</time>
      </trkpt>
      <trkpt lat="38.213505" lon="-1.408172">
        <ele>157.3</ele>
        <time>2016-09-16T18:14:47Z</time>
      </trkpt>
      <trkpt lat="38.213717" lon="-1.408278">
        <ele>157.3</ele>
        <time>2016-09-16T18:15:05Z</time>
      </trkpt>
      <trkpt lat="38.213883" lon="-1.408410">
        <ele>157.3</ele>
        <time>2016-09-16T18:15:19Z</time>
      </trkpt>
      <trkpt lat="38.214068" lon="-1.408510">
        <ele>157.3</ele>
        <time>2016-09-16T18:15:33Z</time>
      </trkpt>
      <trkpt lat="38.214095" lon="-1.408526">
        <ele>157.3</ele>
        <time>2016-09-16T18:15:35Z</time>
      </trkpt>
      <trkpt lat="38.214276" lon="-1.408751">
        <ele>158.3</ele>
        <time>2016-09-16T18:15:52Z</time>
      </trkpt>
      <trkpt lat="38.214454" lon="-1.408952">
        <ele>158.3</ele>
        <time>2016-09-16T18:16:08Z</time>
      </trkpt>
      <trkpt lat="38.214607" lon="-1.409152">
        <ele>158.3</ele>
        <time>2016-09-16T18:16:24Z</time>
      </trkpt>
      <trkpt lat="38.214614" lon="-1.409162">
        <ele>158.8</ele>
        <time>2016-09-16T18:16:25Z</time>
      </trkpt>
      <trkpt lat="38.214636" lon="-1.409184">
        <ele>158.8</ele>
        <time>2016-09-16T18:16:27Z</time>
      </trkpt>
      <trkpt lat="38.214826" lon="-1.409386">
        <ele>158.8</ele>
        <time>2016-09-16T18:16:44Z</time>
      </trkpt>
      <trkpt lat="38.214984" lon="-1.409624">
        <ele>158.8</ele>
        <time>2016-09-16T18:17:01Z</time>
      </trkpt>
      <trkpt lat="38.215051" lon="-1.409807">
        <ele>159.2</ele>
        <time>2016-09-16T18:17:13Z</time>
      </trkpt>
      <trkpt lat="38.215142" lon="-1.410045">
        <ele>159.7</ele>
        <time>2016-09-16T18:17:28Z</time>
      </trkpt>
      <trkpt lat="38.215350" lon="-1.410176">
        <ele>159.7</ele>
        <time>2016-09-16T18:17:44Z</time>
      </trkpt>
      <trkpt lat="38.215570" lon="-1.410225">
        <ele>159.7</ele>
        <time>2016-09-16T18:18:01Z</time>
      </trkpt>
      <trkpt lat="38.215830" lon="-1.410264">
        <ele>159.2</ele>
        <time>2016-09-16T18:18:19Z</time>
      </trkpt>
      <trkpt lat="38.216006" lon="-1.410268">
        <ele>160.2</ele>
        <time>2016-09-16T18:18:33Z</time>
      </trkpt>
      <trkpt lat="38.216209" lon="-1.410280">
        <ele>159.7</ele>
        <time>2016-09-16T18:18:49Z</time>
      </trkpt>
      <trkpt lat="38.216426" lon="-1.410315">
        <ele>160.2</ele>
        <time>2016-09-16T18:19:06Z</time>
      </trkpt>
      <trkpt lat="38.216658" lon="-1.410393">
        <ele>159.7</ele>
        <time>2016-09-16T18:19:24Z</time>
      </trkpt>
      <trkpt lat="38.216832" lon="-1.410450">
        <ele>160.7</ele>
        <time>2016-09-16T18:19:40Z</time>
      </trkpt>
      <trkpt lat="38.217013" lon="-1.410460">
        <ele>161.6</ele>
        <time>2016-09-16T18:19:53Z</time>
      </trkpt>
      <trkpt lat="38.217195" lon="-1.410546">
        <ele>160.2</ele>
        <time>2016-09-16T18:20:08Z</time>
      </trkpt>
      <trkpt lat="38.217344" lon="-1.410669">
        <ele>160.7</ele>
        <time>2016-09-16T18:20:22Z</time>
      </trkpt>
      <trkpt lat="38.217511" lon="-1.410829">
        <ele>160.7</ele>
        <time>2016-09-16T18:20:38Z</time>
      </trkpt>
      <trkpt lat="38.217717" lon="-1.411037">
        <ele>160.7</ele>
        <time>2016-09-16T18:20:57Z</time>
      </trkpt>
      <trkpt lat="38.217860" lon="-1.411178">
        <ele>160.7</ele>
        <time>2016-09-16T18:21:11Z</time>
      </trkpt>
      <trkpt lat="38.217963" lon="-1.411402">
        <ele>160.7</ele>
        <time>2016-09-16T18:21:27Z</time>
      </trkpt>
      <trkpt lat="38.217999" lon="-1.411509">
        <ele>161.2</ele>
        <time>2016-09-16T18:21:34Z</time>
      </trkpt>
      <trkpt lat="38.218047" lon="-1.411768">
        <ele>161.2</ele>
        <time>2016-09-16T18:21:51Z</time>
      </trkpt>
      <trkpt lat="38.218115" lon="-1.412034">
        <ele>160.2</ele>
        <time>2016-09-16T18:22:08Z</time>
      </trkpt>
      <trkpt lat="38.218226" lon="-1.412325">
        <ele>160.2</ele>
        <time>2016-09-16T18:22:27Z</time>
      </trkpt>
      <trkpt lat="38.218305" lon="-1.412492">
        <ele>160.2</ele>
        <time>2016-09-16T18:22:39Z</time>
      </trkpt>
      <trkpt lat="38.218377" lon="-1.412616">
        <ele>159.7</ele>
        <time>2016-09-16T18:22:49Z</time>
      </trkpt>
      <trkpt lat="38.218335" lon="-1.412740">
        <ele>159.2</ele>
        <time>2016-09-16T18:22:57Z</time>
      </trkpt>
      <trkpt lat="38.218288" lon="-1.413039">
        <ele>159.2</ele>
        <time>2016-09-16T18:23:15Z</time>
      </trkpt>
      <trkpt lat="38.218286" lon="-1.413332">
        <ele>160.2</ele>
        <time>2016-09-16T18:23:32Z</time>
      </trkpt>
      <trkpt lat="38.218291" lon="-1.413389">
        <ele>159.7</ele>
        <time>2016-09-16T18:23:35Z</time>
      </trkpt>
      <trkpt lat="38.218263" lon="-1.413685">
        <ele>159.7</ele>
        <time>2016-09-16T18:23:53Z</time>
      </trkpt>
      <trkpt lat="38.218250" lon="-1.413721">
        <ele>159.7</ele>
        <time>2016-09-16T18:23:55Z</time>
      </trkpt>
      <trkpt lat="38.218264" lon="-1.413948">
        <ele>162.1</ele>
        <time>2016-09-16T18:24:11Z</time>
      </trkpt>
      <trkpt lat="38.218142" lon="-1.414144">
        <ele>161.6</ele>
        <time>2016-09-16T18:24:27Z</time>
      </trkpt>
      <trkpt lat="38.218018" lon="-1.414424">
        <ele>158.8</ele>
        <time>2016-09-16T18:24:47Z</time>
      </trkpt>
      <trkpt lat="38.217944" lon="-1.414576">
        <ele>159.2</ele>
        <time>2016-09-16T18:25:02Z</time>
      </trkpt>
      <trkpt lat="38.217890" lon="-1.414746">
        <ele>160.7</ele>
        <time>2016-09-16T18:25:15Z</time>
      </trkpt>
      <trkpt lat="38.217938" lon="-1.414840">
        <ele>160.2</ele>
        <time>2016-09-16T18:25:22Z</time>
      </trkpt>
      <trkpt lat="38.217957" lon="-1.414987">
        <ele>160.7</ele>
        <time>2016-09-16T18:25:32Z</time>
      </trkpt>
      <trkpt lat="38.218030" lon="-1.415296">
        <ele>160.2</ele>
        <time>2016-09-16T18:25:50Z</time>
      </trkpt>
      <trkpt lat="38.218042" lon="-1.415325">
        <ele>160.2</ele>
        <time>2016-09-16T18:25:52Z</time>
      </trkpt>
      <trkpt lat="38.218133" lon="-1.415380">
        <ele>160.7</ele>
        <time>2016-09-16T18:26:09Z</time>
      </trkpt>
      <trkpt lat="38.218156" lon="-1.415376">
        <ele>159.7</ele>
        <time>2016-09-16T18:26:21Z</time>
      </trkpt>
      <trkpt lat="38.218179" lon="-1.415435">
        <ele>159.7</ele>
        <time>2016-09-16T18:26:34Z</time>
      </trkpt>
      <trkpt lat="38.218257" lon="-1.415505">
        <ele>160.7</ele>
        <time>2016-09-16T18:26:42Z</time>
      </trkpt>
      <trkpt lat="38.218502" lon="-1.415615">
        <ele>160.2</ele>
        <time>2016-09-16T18:27:01Z</time>
      </trkpt>
      <trkpt lat="38.218689" lon="-1.415659">
        <ele>160.2</ele>
        <time>2016-09-16T18:27:14Z</time>
      </trkpt>
      <trkpt lat="38.218940" lon="-1.415664">
        <ele>160.2</ele>
        <time>2016-09-16T18:27:32Z</time>
      </trkpt>
      <trkpt lat="38.218963" lon="-1.415649">
        <ele>161.2</ele>
        <time>2016-09-16T18:27:34Z</time>
      </trkpt>
      <trkpt lat="38.218961" lon="-1.415622">
        <ele>160.7</ele>
        <time>2016-09-16T18:27:53Z</time>
      </trkpt>
      <trkpt lat="38.219034" lon="-1.415680">
        <ele>159.7</ele>
        <time>2016-09-16T18:28:15Z</time>
      </trkpt>
      <trkpt lat="38.219311" lon="-1.415743">
        <ele>159.7</ele>
        <time>2016-09-16T18:28:34Z</time>
      </trkpt>
      <trkpt lat="38.219551" lon="-1.415792">
        <ele>159.7</ele>
        <time>2016-09-16T18:28:51Z</time>
      </trkpt>
      <trkpt lat="38.219805" lon="-1.415800">
        <ele>160.7</ele>
        <time>2016-09-16T18:29:06Z</time>
      </trkpt>
      <trkpt lat="38.220047" lon="-1.415729">
        <ele>160.7</ele>
        <time>2016-09-16T18:29:22Z</time>
      </trkpt>
      <trkpt lat="38.220365" lon="-1.415648">
        <ele>160.2</ele>
        <time>2016-09-16T18:29:43Z</time>
      </trkpt>
      <trkpt lat="38.220594" lon="-1.415587">
        <ele>160.7</ele>
        <time>2016-09-16T18:29:59Z</time>
      </trkpt>
      <trkpt lat="38.220870" lon="-1.415478">
        <ele>160.7</ele>
        <time>2016-09-16T18:30:17Z</time>
      </trkpt>
      <trkpt lat="38.221041" lon="-1.415404">
        <ele>160.2</ele>
        <time>2016-09-16T18:30:33Z</time>
      </trkpt>
      <trkpt lat="38.221224" lon="-1.415380">
        <ele>160.7</ele>
        <time>2016-09-16T18:30:45Z</time>
      </trkpt>
      <trkpt lat="38.221296" lon="-1.415387">
        <ele>160.7</ele>
        <time>2016-09-16T18:30:49Z</time>
      </trkpt>
      <trkpt lat="38.221396" lon="-1.415418">
        <ele>160.2</ele>
        <time>2016-09-16T18:30:57Z</time>
      </trkpt>
      <trkpt lat="38.221687" lon="-1.415531">
        <ele>161.2</ele>
        <time>2016-09-16T18:31:13Z</time>
      </trkpt>
      <trkpt lat="38.221936" lon="-1.415486">
        <ele>161.2</ele>
        <time>2016-09-16T18:31:32Z</time>
      </trkpt>
      <trkpt lat="38.222118" lon="-1.415464">
        <ele>161.2</ele>
        <time>2016-09-16T18:31:48Z</time>
      </trkpt>
      <trkpt lat="38.222317" lon="-1.415423">
        <ele>160.7</ele>
        <time>2016-09-16T18:32:04Z</time>
      </trkpt>
      <trkpt lat="38.222574" lon="-1.415547">
        <ele>160.2</ele>
        <time>2016-09-16T18:32:23Z</time>
      </trkpt>
      <trkpt lat="38.222753" lon="-1.415685">
        <ele>161.2</ele>
        <time>2016-09-16T18:32:41Z</time>
      </trkpt>
      <trkpt lat="38.222842" lon="-1.415786">
        <ele>160.7</ele>
        <time>2016-09-16T18:33:00Z</time>
      </trkpt>
      <trkpt lat="38.223028" lon="-1.415899">
        <ele>161.2</ele>
        <time>2016-09-16T18:33:18Z</time>
      </trkpt>
      <trkpt lat="38.223240" lon="-1.416102">
        <ele>161.2</ele>
        <time>2016-09-16T18:33:38Z</time>
      </trkpt>
      <trkpt lat="38.223315" lon="-1.416180">
        <ele>161.2</ele>
        <time>2016-09-16T18:33:46Z</time>
      </trkpt>
      <trkpt lat="38.223527" lon="-1.416351">
        <ele>161.2</ele>
        <time>2016-09-16T18:34:05Z</time>
      </trkpt>
      <trkpt lat="38.223720" lon="-1.416490">
        <ele>161.6</ele>
        <time>2016-09-16T18:34:23Z</time>
      </trkpt>
      <trkpt lat="38.223889" lon="-1.416602">
        <ele>161.2</ele>
        <time>2016-09-16T18:34:38Z</time>
      </trkpt>
      <trkpt lat="38.224060" lon="-1.416716">
        <ele>160.7</ele>
        <time>2016-09-16T18:34:53Z</time>
      </trkpt>
      <trkpt lat="38.224239" lon="-1.416827">
        <ele>161.2</ele>
        <time>2016-09-16T18:35:10Z</time>
      </trkpt>
      <trkpt lat="38.224418" lon="-1.416977">
        <ele>161.2</ele>
        <time>2016-09-16T18:35:27Z</time>
      </trkpt>
      <trkpt lat="38.224596" lon="-1.417121">
        <ele>161.6</ele>
        <time>2016-09-16T18:35:44Z</time>
      </trkpt>
      <trkpt lat="38.224774" lon="-1.417259">
        <ele>161.2</ele>
        <time>2016-09-16T18:36:01Z</time>
      </trkpt>
      <trkpt lat="38.224934" lon="-1.417454">
        <ele>161.6</ele>
        <time>2016-09-16T18:36:20Z</time>
      </trkpt>
      <trkpt lat="38.225098" lon="-1.417642">
        <ele>161.2</ele>
        <time>2016-09-16T18:36:39Z</time>
      </trkpt>
      <trkpt lat="38.225280" lon="-1.417843">
        <ele>161.6</ele>
        <time>2016-09-16T18:36:59Z</time>
      </trkpt>
      <trkpt lat="38.225394" lon="-1.417931">
        <ele>162.1</ele>
        <time>2016-09-16T18:37:13Z</time>
      </trkpt>
      <trkpt lat="38.225538" lon="-1.418088">
        <ele>162.1</ele>
        <time>2016-09-16T18:37:29Z</time>
      </trkpt>
      <trkpt lat="38.225743" lon="-1.418285">
        <ele>162.1</ele>
        <time>2016-09-16T18:37:45Z</time>
      </trkpt>
      <trkpt lat="38.225995" lon="-1.418445">
        <ele>161.2</ele>
        <time>2016-09-16T18:38:03Z</time>
      </trkpt>
      <trkpt lat="38.226166" lon="-1.418436">
        <ele>162.1</ele>
        <time>2016-09-16T18:38:20Z</time>
      </trkpt>
      <trkpt lat="38.226250" lon="-1.418422">
        <ele>162.1</ele>
        <time>2016-09-16T18:38:28Z</time>
      </trkpt>
      <trkpt lat="38.226466" lon="-1.418338">
        <ele>163.1</ele>
        <time>2016-09-16T18:38:42Z</time>
      </trkpt>
      <trkpt lat="38.226554" lon="-1.418270">
        <ele>162.6</ele>
        <time>2016-09-16T18:38:51Z</time>
      </trkpt>
      <trkpt lat="38.226692" lon="-1.418107">
        <ele>161.2</ele>
        <time>2016-09-16T18:39:07Z</time>
      </trkpt>
      <trkpt lat="38.226781" lon="-1.417950">
        <ele>161.2</ele>
        <time>2016-09-16T18:39:21Z</time>
      </trkpt>
      <trkpt lat="38.226979" lon="-1.417658">
        <ele>161.2</ele>
        <time>2016-09-16T18:39:39Z</time>
      </trkpt>
      <trkpt lat="38.227081" lon="-1.417419">
        <ele>161.6</ele>
        <time>2016-09-16T18:39:57Z</time>
      </trkpt>
      <trkpt lat="38.227084" lon="-1.417406">
        <ele>161.2</ele>
        <time>2016-09-16T18:39:58Z</time>
      </trkpt>
      <trkpt lat="38.227240" lon="-1.417181">
        <ele>161.2</ele>
        <time>2016-09-16T18:40:17Z</time>
      </trkpt>
      <trkpt lat="38.227388" lon="-1.416929">
        <ele>161.6</ele>
        <time>2016-09-16T18:40:37Z</time>
      </trkpt>
      <trkpt lat="38.227452" lon="-1.416811">
        <ele>161.6</ele>
        <time>2016-09-16T18:40:47Z</time>
      </trkpt>
      <trkpt lat="38.227493" lon="-1.416723">
        <ele>161.6</ele>
        <time>2016-09-16T18:40:54Z</time>
      </trkpt>
      <trkpt lat="38.227530" lon="-1.416663">
        <ele>161.6</ele>
        <time>2016-09-16T18:40:59Z</time>
      </trkpt>
      <trkpt lat="38.227619" lon="-1.416519">
        <ele>161.6</ele>
        <time>2016-09-16T18:41:11Z</time>
      </trkpt>
      <trkpt lat="38.227709" lon="-1.416387">
        <ele>162.1</ele>
        <time>2016-09-16T18:41:21Z</time>
      </trkpt>
      <trkpt lat="38.227828" lon="-1.416174">
        <ele>161.6</ele>
        <time>2016-09-16T18:41:37Z</time>
      </trkpt>
      <trkpt lat="38.227955" lon="-1.415927">
        <ele>161.6</ele>
        <time>2016-09-16T18:41:55Z</time>
      </trkpt>
      <trkpt lat="38.227981" lon="-1.415876">
        <ele>162.1</ele>
        <time>2016-09-16T18:41:59Z</time>
      </trkpt>
      <trkpt lat="38.228092" lon="-1.415645">
        <ele>162.6</ele>
        <time>2016-09-16T18:42:16Z</time>
      </trkpt>
      <trkpt lat="38.228190" lon="-1.415436">
        <ele>162.1</ele>
        <time>2016-09-16T18:42:33Z</time>
      </trkpt>
      <trkpt lat="38.228265" lon="-1.415287">
        <ele>162.6</ele>
        <time>2016-09-16T18:42:44Z</time>
      </trkpt>
      <trkpt lat="38.228380" lon="-1.415063">
        <ele>162.1</ele>
        <time>2016-09-16T18:43:02Z</time>
      </trkpt>
      <trkpt lat="38.228471" lon="-1.414861">
        <ele>162.6</ele>
        <time>2016-09-16T18:43:18Z</time>
      </trkpt>
      <trkpt lat="38.228578" lon="-1.414683">
        <ele>162.6</ele>
        <time>2016-09-16T18:43:32Z</time>
      </trkpt>
      <trkpt lat="38.228631" lon="-1.414595">
        <ele>162.6</ele>
        <time>2016-09-16T18:43:39Z</time>
      </trkpt>
      <trkpt lat="38.228648" lon="-1.414555">
        <ele>163.1</ele>
        <time>2016-09-16T18:43:42Z</time>
      </trkpt>
      <trkpt lat="38.228796" lon="-1.414343">
        <ele>162.6</ele>
        <time>2016-09-16T18:44:00Z</time>
      </trkpt>
      <trkpt lat="38.228803" lon="-1.414321">
        <ele>162.6</ele>
        <time>2016-09-16T18:44:02Z</time>
      </trkpt>
      <trkpt lat="38.228819" lon="-1.414255">
        <ele>163.1</ele>
        <time>2016-09-16T18:44:06Z</time>
      </trkpt>
      <trkpt lat="38.228892" lon="-1.414152">
        <ele>163.1</ele>
        <time>2016-09-16T18:44:20Z</time>
      </trkpt>
      <trkpt lat="38.228948" lon="-1.414087">
        <ele>162.6</ele>
        <time>2016-09-16T18:44:27Z</time>
      </trkpt>
      <trkpt lat="38.229072" lon="-1.413911">
        <ele>162.6</ele>
        <time>2016-09-16T18:44:42Z</time>
      </trkpt>
      <trkpt lat="38.229082" lon="-1.413896">
        <ele>162.6</ele>
        <time>2016-09-16T18:44:44Z</time>
      </trkpt>
      <trkpt lat="38.229242" lon="-1.413704">
        <ele>162.1</ele>
        <time>2016-09-16T18:45:01Z</time>
      </trkpt>
      <trkpt lat="38.229379" lon="-1.413552">
        <ele>162.6</ele>
        <time>2016-09-16T18:45:16Z</time>
      </trkpt>
      <trkpt lat="38.229446" lon="-1.413457">
        <ele>162.6</ele>
        <time>2016-09-16T18:45:24Z</time>
      </trkpt>
      <trkpt lat="38.229612" lon="-1.413279">
        <ele>162.6</ele>
        <time>2016-09-16T18:45:41Z</time>
      </trkpt>
      <trkpt lat="38.229755" lon="-1.413119">
        <ele>163.1</ele>
        <time>2016-09-16T18:45:56Z</time>
      </trkpt>
      <trkpt lat="38.229903" lon="-1.412973">
        <ele>163.1</ele>
        <time>2016-09-16T18:46:12Z</time>
      </trkpt>
      <trkpt lat="38.230071" lon="-1.412787">
        <ele>162.6</ele>
        <time>2016-09-16T18:46:29Z</time>
      </trkpt>
      <trkpt lat="38.230289" lon="-1.412689">
        <ele>163.1</ele>
        <time>2016-09-16T18:46:48Z</time>
      </trkpt>
      <trkpt lat="38.230485" lon="-1.412669">
        <ele>163.1</ele>
        <time>2016-09-16T18:47:04Z</time>
      </trkpt>
      <trkpt lat="38.230700" lon="-1.412658">
        <ele>163.1</ele>
        <time>2016-09-16T18:47:22Z</time>
      </trkpt>
      <trkpt lat="38.230897" lon="-1.412680">
        <ele>163.6</ele>
        <time>2016-09-16T18:47:38Z</time>
      </trkpt>
      <trkpt lat="38.231091" lon="-1.412715">
        <ele>163.6</ele>
        <time>2016-09-16T18:47:55Z</time>
      </trkpt>
      <trkpt lat="38.231253" lon="-1.412756">
        <ele>163.6</ele>
        <time>2016-09-16T18:48:09Z</time>
      </trkpt>
      <trkpt lat="38.231412" lon="-1.412809">
        <ele>163.1</ele>
        <time>2016-09-16T18:48:23Z</time>
      </trkpt>
      <trkpt lat="38.231570" lon="-1.412861">
        <ele>163.6</ele>
        <time>2016-09-16T18:48:37Z</time>
      </trkpt>
      <trkpt lat="38.231708" lon="-1.412893">
        <ele>163.6</ele>
        <time>2016-09-16T18:48:50Z</time>
      </trkpt>
      <trkpt lat="38.231894" lon="-1.412925">
        <ele>163.1</ele>
        <time>2016-09-16T18:49:05Z</time>
      </trkpt>
      <trkpt lat="38.232039" lon="-1.412972">
        <ele>163.6</ele>
        <time>2016-09-16T18:49:18Z</time>
      </trkpt>
      <trkpt lat="38.232241" lon="-1.413064">
        <ele>162.6</ele>
        <time>2016-09-16T18:49:35Z</time>
      </trkpt>
      <trkpt lat="38.232374" lon="-1.413146">
        <ele>163.6</ele>
        <time>2016-09-16T18:49:50Z</time>
      </trkpt>
      <trkpt lat="38.232414" lon="-1.413220">
        <ele>163.6</ele>
        <time>2016-09-16T18:49:58Z</time>
      </trkpt>
      <trkpt lat="38.232498" lon="-1.413400">
        <ele>164.0</ele>
        <time>2016-09-16T18:50:13Z</time>
      </trkpt>
      <trkpt lat="38.232539" lon="-1.413489">
        <ele>164.0</ele>
        <time>2016-09-16T18:50:21Z</time>
      </trkpt>
      <trkpt lat="38.232623" lon="-1.413721">
        <ele>163.6</ele>
        <time>2016-09-16T18:50:38Z</time>
      </trkpt>
      <trkpt lat="38.232702" lon="-1.413993">
        <ele>163.6</ele>
        <time>2016-09-16T18:50:56Z</time>
      </trkpt>
      <trkpt lat="38.232770" lon="-1.414272">
        <ele>163.1</ele>
        <time>2016-09-16T18:51:15Z</time>
      </trkpt>
      <trkpt lat="38.232808" lon="-1.414484">
        <ele>163.6</ele>
        <time>2016-09-16T18:51:30Z</time>
      </trkpt>
      <trkpt lat="38.232858" lon="-1.414747">
        <ele>163.6</ele>
        <time>2016-09-16T18:51:49Z</time>
      </trkpt>
      <trkpt lat="38.232898" lon="-1.414968">
        <ele>164.5</ele>
        <time>2016-09-16T18:52:06Z</time>
      </trkpt>
      <trkpt lat="38.232939" lon="-1.415230">
        <ele>166.0</ele>
        <time>2016-09-16T18:52:22Z</time>
      </trkpt>
      <trkpt lat="38.233011" lon="-1.415235">
        <ele>166.4</ele>
        <time>2016-09-16T18:52:27Z</time>
      </trkpt>
      <trkpt lat="38.233197" lon="-1.415201">
        <ele>166.4</ele>
        <time>2016-09-16T18:52:43Z</time>
      </trkpt>
      <trkpt lat="38.233327" lon="-1.415159">
        <ele>166.0</ele>
        <time>2016-09-16T18:52:57Z</time>
      </trkpt>
      <trkpt lat="38.233334" lon="-1.415151">
        <ele>164.5</ele>
        <time>2016-09-16T18:53:15Z</time>
      </trkpt>
      <trkpt lat="38.233344" lon="-1.415149">
        <ele>167.9</ele>
        <time>2016-09-16T18:53:16Z</time>
      </trkpt>
      <trkpt lat="38.233354" lon="-1.415149">
        <ele>166.4</ele>
        <time>2016-09-16T18:53:17Z</time>
      </trkpt>
      <trkpt lat="38.233468" lon="-1.415089">
        <ele>165.0</ele>
        <time>2016-09-16T18:53:32Z</time>
      </trkpt>
      <trkpt lat="38.233481" lon="-1.415102">
        <ele>165.5</ele>
        <time>2016-09-16T18:53:33Z</time>
      </trkpt>
      <trkpt lat="38.233602" lon="-1.415081">
        <ele>165.5</ele>
        <time>2016-09-16T18:53:48Z</time>
      </trkpt>
      <trkpt lat="38.233744" lon="-1.414894">
        <ele>165.5</ele>
        <time>2016-09-16T18:53:57Z</time>
      </trkpt>
      <trkpt lat="38.233906" lon="-1.414629">
        <ele>166.0</ele>
        <time>2016-09-16T18:54:01Z</time>
      </trkpt>
      <trkpt lat="38.233972" lon="-1.414532">
        <ele>165.5</ele>
        <time>2016-09-16T18:54:11Z</time>
      </trkpt>
      <trkpt lat="38.234098" lon="-1.414352">
        <ele>165.5</ele>
        <time>2016-09-16T18:54:13Z</time>
      </trkpt>
      <trkpt lat="38.234174" lon="-1.414268">
        <ele>166.0</ele>
        <time>2016-09-16T18:54:27Z</time>
      </trkpt>
      <trkpt lat="38.234382" lon="-1.414449">
        <ele>166.4</ele>
        <time>2016-09-16T18:54:43Z</time>
      </trkpt>
      <trkpt lat="38.234539" lon="-1.414642">
        <ele>166.4</ele>
        <time>2016-09-16T18:54:57Z</time>
      </trkpt>
      <trkpt lat="38.234650" lon="-1.414758">
        <ele>166.4</ele>
        <time>2016-09-16T18:55:08Z</time>
      </trkpt>
      <trkpt lat="38.234747" lon="-1.414849">
        <ele>166.9</ele>
        <time>2016-09-16T18:55:21Z</time>
      </trkpt>
      <trkpt lat="38.234858" lon="-1.414965">
        <ele>166.9</ele>
        <time>2016-09-16T18:55:32Z</time>
      </trkpt>
      <trkpt lat="38.234975" lon="-1.415081">
        <ele>167.4</ele>
        <time>2016-09-16T18:55:45Z</time>
      </trkpt>
      <trkpt lat="38.235076" lon="-1.415203">
        <ele>167.9</ele>
        <time>2016-09-16T18:55:51Z</time>
      </trkpt>
      <trkpt lat="38.235183" lon="-1.415281">
        <ele>168.4</ele>
        <time>2016-09-16T18:55:56Z</time>
      </trkpt>
      <trkpt lat="38.235284" lon="-1.415468">
        <ele>168.4</ele>
        <time>2016-09-16T18:56:10Z</time>
      </trkpt>
      <trkpt lat="38.235385" lon="-1.415539">
        <ele>168.4</ele>
        <time>2016-09-16T18:56:23Z</time>
      </trkpt>
      <trkpt lat="38.235486" lon="-1.415668">
        <ele>168.4</ele>
        <time>2016-09-16T18:56:29Z</time>
      </trkpt>
      <trkpt lat="38.235578" lon="-1.415771">
        <ele>168.4</ele>
        <time>2016-09-16T18:56:41Z</time>
      </trkpt>
      <trkpt lat="38.235649" lon="-1.415855">
        <ele>168.4</ele>
        <time>2016-09-16T18:56:56Z</time>
      </trkpt>
      <trkpt lat="38.235740" lon="-1.415913">
        <ele>169.3</ele>
        <time>2016-09-16T18:57:14Z</time>
      </trkpt>
      <trkpt lat="38.235760" lon="-1.415978">
        <ele>169.8</ele>
        <time>2016-09-16T18:57:28Z</time>
      </trkpt>
      <trkpt lat="38.235816" lon="-1.416010">
        <ele>169.8</ele>
        <time>2016-09-16T18:57:30Z</time>
      </trkpt>
      <trkpt lat="38.235902" lon="-1.416074">
        <ele>169.8</ele>
        <time>2016-09-16T18:57:36Z</time>
      </trkpt>
      <trkpt lat="38.235958" lon="-1.416184">
        <ele>170.8</ele>
        <time>2016-09-16T18:57:51Z</time>
      </trkpt>
      <trkpt lat="38.236034" lon="-1.416242">
        <ele>171.2</ele>
        <time>2016-09-16T18:58:04Z</time>
      </trkpt>
      <trkpt lat="38.236115" lon="-1.416300">
        <ele>172.2</ele>
        <time>2016-09-16T18:58:19Z</time>
      </trkpt>
      <trkpt lat="38.236242" lon="-1.416429">
        <ele>172.7</ele>
        <time>2016-09-16T18:58:29Z</time>
      </trkpt>
      <trkpt lat="38.236302" lon="-1.416468">
        <ele>173.7</ele>
        <time>2016-09-16T18:58:41Z</time>
      </trkpt>
      <trkpt lat="38.236343" lon="-1.416519">
        <ele>173.7</ele>
        <time>2016-09-16T18:58:44Z</time>
      </trkpt>
      <trkpt lat="38.236419" lon="-1.416564">
        <ele>173.7</ele>
        <time>2016-09-16T18:58:53Z</time>
      </trkpt>
      <trkpt lat="38.236535" lon="-1.416687">
        <ele>175.1</ele>
        <time>2016-09-16T18:59:06Z</time>
      </trkpt>
      <trkpt lat="38.236718" lon="-1.416964">
        <ele>176.1</ele>
        <time>2016-09-16T18:59:20Z</time>
      </trkpt>
      <trkpt lat="38.236745" lon="-1.417092">
        <ele>175.6</ele>
        <time>2016-09-16T18:59:21Z</time>
      </trkpt>
      <trkpt lat="38.236781" lon="-1.417144">
        <ele>176.1</ele>
        <time>2016-09-16T18:59:37Z</time>
      </trkpt>
      <trkpt lat="38.236874" lon="-1.417338">
        <ele>176.1</ele>
        <time>2016-09-16T18:59:52Z</time>
      </trkpt>
      <trkpt lat="38.236917" lon="-1.417423">
        <ele>176.5</ele>
        <time>2016-09-16T18:59:57Z</time>
      </trkpt>
      <trkpt lat="38.236940" lon="-1.417668">
        <ele>176.1</ele>
        <time>2016-09-16T19:00:17Z</time>
      </trkpt>
      <trkpt lat="38.236935" lon="-1.417914">
        <ele>177.0</ele>
        <time>2016-09-16T19:00:32Z</time>
      </trkpt>
      <trkpt lat="38.236923" lon="-1.418106">
        <ele>177.0</ele>
        <time>2016-09-16T19:00:47Z</time>
      </trkpt>
      <trkpt lat="38.236919" lon="-1.418447">
        <ele>177.5</ele>
        <time>2016-09-16T19:01:03Z</time>
      </trkpt>
      <trkpt lat="38.236923" lon="-1.418620">
        <ele>177.5</ele>
        <time>2016-09-16T19:01:17Z</time>
      </trkpt>
      <trkpt lat="38.236940" lon="-1.418842">
        <ele>178.0</ele>
        <time>2016-09-16T19:01:31Z</time>
      </trkpt>
      <trkpt lat="38.236906" lon="-1.418920">
        <ele>178.5</ele>
        <time>2016-09-16T19:01:37Z</time>
      </trkpt>
      <trkpt lat="38.236919" lon="-1.419133">
        <ele>178.5</ele>
        <time>2016-09-16T19:01:51Z</time>
      </trkpt>
      <trkpt lat="38.236921" lon="-1.419410">
        <ele>178.9</ele>
        <time>2016-09-16T19:02:06Z</time>
      </trkpt>
      <trkpt lat="38.236968" lon="-1.419645">
        <ele>179.4</ele>
        <time>2016-09-16T19:02:20Z</time>
      </trkpt>
      <trkpt lat="38.236940" lon="-1.419768">
        <ele>180.4</ele>
        <time>2016-09-16T19:02:31Z</time>
      </trkpt>
      <trkpt lat="38.236954" lon="-1.419945">
        <ele>180.4</ele>
        <time>2016-09-16T19:02:42Z</time>
      </trkpt>
      <trkpt lat="38.236951" lon="-1.420176">
        <ele>180.9</ele>
        <time>2016-09-16T19:02:56Z</time>
      </trkpt>
      <trkpt lat="38.236947" lon="-1.420446">
        <ele>180.9</ele>
        <time>2016-09-16T19:03:10Z</time>
      </trkpt>
      <trkpt lat="38.236967" lon="-1.420683">
        <ele>181.4</ele>
        <time>2016-09-16T19:03:28Z</time>
      </trkpt>
      <trkpt lat="38.237007" lon="-1.420756">
        <ele>181.8</ele>
        <time>2016-09-16T19:03:40Z</time>
      </trkpt>
      <trkpt lat="38.237016" lon="-1.420757">
        <ele>182.3</ele>
        <time>2016-09-16T19:03:41Z</time>
      </trkpt>
      <trkpt lat="38.237053" lon="-1.420809">
        <ele>182.8</ele>
        <time>2016-09-16T19:03:46Z</time>
      </trkpt>
      <trkpt lat="38.237102" lon="-1.420855">
        <ele>182.8</ele>
        <time>2016-09-16T19:03:50Z</time>
      </trkpt>
      <trkpt lat="38.237159" lon="-1.420992">
        <ele>183.8</ele>
        <time>2016-09-16T19:03:55Z</time>
      </trkpt>
      <trkpt lat="38.237287" lon="-1.421197">
        <ele>184.7</ele>
        <time>2016-09-16T19:04:07Z</time>
      </trkpt>
      <trkpt lat="38.237328" lon="-1.421244">
        <ele>185.2</ele>
        <time>2016-09-16T19:04:11Z</time>
      </trkpt>
      <trkpt lat="38.237406" lon="-1.421291">
        <ele>185.7</ele>
        <time>2016-09-16T19:04:17Z</time>
      </trkpt>
      <trkpt lat="38.237515" lon="-1.421418">
        <ele>186.6</ele>
        <time>2016-09-16T19:04:28Z</time>
      </trkpt>
      <trkpt lat="38.237682" lon="-1.421599">
        <ele>187.6</ele>
        <time>2016-09-16T19:04:42Z</time>
      </trkpt>
      <trkpt lat="38.237701" lon="-1.421678">
        <ele>188.1</ele>
        <time>2016-09-16T19:04:52Z</time>
      </trkpt>
      <trkpt lat="38.237768" lon="-1.421747">
        <ele>188.6</ele>
        <time>2016-09-16T19:05:07Z</time>
      </trkpt>
      <trkpt lat="38.237784" lon="-1.421731">
        <ele>188.1</ele>
        <time>2016-09-16T19:05:10Z</time>
      </trkpt>
      <trkpt lat="38.237814" lon="-1.421770">
        <ele>188.1</ele>
        <time>2016-09-16T19:05:22Z</time>
      </trkpt>
      <trkpt lat="38.238029" lon="-1.421865">
        <ele>188.6</ele>
        <time>2016-09-16T19:05:34Z</time>
      </trkpt>
      <trkpt lat="38.238190" lon="-1.422028">
        <ele>189.0</ele>
        <time>2016-09-16T19:05:49Z</time>
      </trkpt>
      <trkpt lat="38.238575" lon="-1.422261">
        <ele>189.5</ele>
        <time>2016-09-16T19:06:06Z</time>
      </trkpt>
      <trkpt lat="38.238601" lon="-1.422377">
        <ele>189.0</ele>
        <time>2016-09-16T19:06:23Z</time>
      </trkpt>
      <trkpt lat="38.238630" lon="-1.422502">
        <ele>189.0</ele>
        <time>2016-09-16T19:06:35Z</time>
      </trkpt>
      <trkpt lat="38.238689" lon="-1.422663">
        <ele>189.0</ele>
        <time>2016-09-16T19:06:50Z</time>
      </trkpt>
      <trkpt lat="38.238693" lon="-1.422848">
        <ele>189.5</ele>
        <time>2016-09-16T19:08:40Z</time>
      </trkpt>
      <trkpt lat="38.239130" lon="-1.422743">
        <ele>240.0</ele>
        <time>2016-10-30T07:56:35Z</time>
      </trkpt>
      <trkpt lat="38.239245" lon="-1.422832">
        <ele>240.5</ele>
        <time>2016-10-30T07:56:47Z</time>
      </trkpt>
      <trkpt lat="38.239370" lon="-1.422927">
        <ele>240.0</ele>
        <time>2016-10-30T07:56:55Z</time>
      </trkpt>
      <trkpt lat="38.239500" lon="-1.423010">
        <ele>239.0</ele>
        <time>2016-10-30T07:57:13Z</time>
      </trkpt>
      <trkpt lat="38.239627" lon="-1.423113">
        <ele>239.0</ele>
        <time>2016-10-30T07:57:31Z</time>
      </trkpt>
      <trkpt lat="38.239700" lon="-1.423176">
        <ele>239.5</ele>
        <time>2016-10-30T07:57:35Z</time>
      </trkpt>
      <trkpt lat="38.239755" lon="-1.423214">
        <ele>238.5</ele>
        <time>2016-10-30T07:57:39Z</time>
      </trkpt>
      <trkpt lat="38.239867" lon="-1.423248">
        <ele>238.5</ele>
        <time>2016-10-30T07:57:54Z</time>
      </trkpt>
      <trkpt lat="38.239961" lon="-1.423350">
        <ele>237.6</ele>
        <time>2016-10-30T07:58:09Z</time>
      </trkpt>
      <trkpt lat="38.239965" lon="-1.423616">
        <ele>236.6</ele>
        <time>2016-10-30T07:58:25Z</time>
      </trkpt>
      <trkpt lat="38.239932" lon="-1.423990">
        <ele>235.7</ele>
        <time>2016-10-30T07:58:46Z</time>
      </trkpt>
      <trkpt lat="38.239946" lon="-1.424125">
        <ele>234.2</ele>
        <time>2016-10-30T08:00:49Z</time>
      </trkpt>
      <trkpt lat="38.240010" lon="-1.424145">
        <ele>234.2</ele>
        <time>2016-10-30T08:01:25Z</time>
      </trkpt>
      <trkpt lat="38.240069" lon="-1.424133">
        <ele>234.7</ele>
        <time>2016-10-30T08:01:40Z</time>
      </trkpt>
      <trkpt lat="38.240188" lon="-1.424141">
        <ele>234.7</ele>
        <time>2016-10-30T08:01:56Z</time>
      </trkpt>
      <trkpt lat="38.240294" lon="-1.424180">
        <ele>234.7</ele>
        <time>2016-10-30T08:02:04Z</time>
      </trkpt>
      <trkpt lat="38.240305" lon="-1.424144">
        <ele>234.7</ele>
        <time>2016-10-30T08:02:07Z</time>
      </trkpt>
      <trkpt lat="38.240396" lon="-1.424198">
        <ele>234.2</ele>
        <time>2016-10-30T08:02:22Z</time>
      </trkpt>
      <trkpt lat="38.240478" lon="-1.424230">
        <ele>233.3</ele>
        <time>2016-10-30T08:02:34Z</time>
      </trkpt>
      <trkpt lat="38.240537" lon="-1.424332">
        <ele>232.3</ele>
        <time>2016-10-30T08:02:47Z</time>
      </trkpt>
      <trkpt lat="38.240573" lon="-1.424460">
        <ele>230.9</ele>
        <time>2016-10-30T08:02:56Z</time>
      </trkpt>
      <trkpt lat="38.240604" lon="-1.424552">
        <ele>230.9</ele>
        <time>2016-10-30T08:03:02Z</time>
      </trkpt>
      <trkpt lat="38.240719" lon="-1.424770">
        <ele>228.9</ele>
        <time>2016-10-30T08:03:19Z</time>
      </trkpt>
      <trkpt lat="38.240714" lon="-1.424801">
        <ele>228.9</ele>
        <time>2016-10-30T08:03:20Z</time>
      </trkpt>
      <trkpt lat="38.240854" lon="-1.425082">
        <ele>227.5</ele>
        <time>2016-10-30T08:03:36Z</time>
      </trkpt>
      <trkpt lat="38.240898" lon="-1.425207">
        <ele>226.5</ele>
        <time>2016-10-30T08:03:44Z</time>
      </trkpt>
      <trkpt lat="38.240974" lon="-1.425296">
        <ele>224.6</ele>
        <time>2016-10-30T08:04:00Z</time>
      </trkpt>
      <trkpt lat="38.241035" lon="-1.425377">
        <ele>224.6</ele>
        <time>2016-10-30T08:04:02Z</time>
      </trkpt>
      <trkpt lat="38.241118" lon="-1.425560">
        <ele>222.7</ele>
        <time>2016-10-30T08:04:23Z</time>
      </trkpt>
      <trkpt lat="38.241219" lon="-1.425775">
        <ele>221.7</ele>
        <time>2016-10-30T08:04:32Z</time>
      </trkpt>
      <trkpt lat="38.241309" lon="-1.425898">
        <ele>220.8</ele>
        <time>2016-10-30T08:04:44Z</time>
      </trkpt>
      <trkpt lat="38.241404" lon="-1.426040">
        <ele>218.8</ele>
        <time>2016-10-30T08:04:59Z</time>
      </trkpt>
      <trkpt lat="38.241490" lon="-1.426167">
        <ele>218.4</ele>
        <time>2016-10-30T08:05:06Z</time>
      </trkpt>
      <trkpt lat="38.241568" lon="-1.426230">
        <ele>218.4</ele>
        <time>2016-10-30T08:05:12Z</time>
      </trkpt>
      <trkpt lat="38.241719" lon="-1.426325">
        <ele>217.4</ele>
        <time>2016-10-30T08:05:29Z</time>
      </trkpt>
      <trkpt lat="38.241894" lon="-1.426331">
        <ele>216.9</ele>
        <time>2016-10-30T08:05:44Z</time>
      </trkpt>
      <trkpt lat="38.242069" lon="-1.426397">
        <ele>216.4</ele>
        <time>2016-10-30T08:06:01Z</time>
      </trkpt>
      <trkpt lat="38.242221" lon="-1.426445">
        <ele>216.4</ele>
        <time>2016-10-30T08:06:14Z</time>
      </trkpt>
      <trkpt lat="38.242445" lon="-1.426554">
        <ele>216.4</ele>
        <time>2016-10-30T08:06:32Z</time>
      </trkpt>
      <trkpt lat="38.242584" lon="-1.426595">
        <ele>216.4</ele>
        <time>2016-10-30T08:06:45Z</time>
      </trkpt>
      <trkpt lat="38.242749" lon="-1.426742">
        <ele>215.5</ele>
        <time>2016-10-30T08:06:59Z</time>
      </trkpt>
      <trkpt lat="38.243013" lon="-1.426813">
        <ele>215.5</ele>
        <time>2016-10-30T08:07:18Z</time>
      </trkpt>
      <trkpt lat="38.243170" lon="-1.426828">
        <ele>214.5</ele>
        <time>2016-10-30T08:07:33Z</time>
      </trkpt>
      <trkpt lat="38.243260" lon="-1.426853">
        <ele>214.0</ele>
        <time>2016-10-30T08:07:52Z</time>
      </trkpt>
      <trkpt lat="38.243334" lon="-1.426835">
        <ele>214.0</ele>
        <time>2016-10-30T08:08:01Z</time>
      </trkpt>
      <trkpt lat="38.243407" lon="-1.426819">
        <ele>213.6</ele>
        <time>2016-10-30T08:08:15Z</time>
      </trkpt>
      <trkpt lat="38.243389" lon="-1.426779">
        <ele>213.6</ele>
        <time>2016-10-30T08:08:19Z</time>
      </trkpt>
      <trkpt lat="38.243544" lon="-1.426873">
        <ele>210.2</ele>
        <time>2016-10-30T08:08:30Z</time>
      </trkpt>
      <trkpt lat="38.243556" lon="-1.426875">
        <ele>213.6</ele>
        <time>2016-10-30T08:08:31Z</time>
      </trkpt>
      <trkpt lat="38.243582" lon="-1.426877">
        <ele>217.4</ele>
        <time>2016-10-30T08:08:33Z</time>
      </trkpt>
      <trkpt lat="38.243597" lon="-1.426879">
        <ele>215.0</ele>
        <time>2016-10-30T08:08:34Z</time>
      </trkpt>
      <trkpt lat="38.243773" lon="-1.426922">
        <ele>213.6</ele>
        <time>2016-10-30T08:08:46Z</time>
      </trkpt>
      <trkpt lat="38.243982" lon="-1.427003">
        <ele>214.0</ele>
        <time>2016-10-30T08:09:01Z</time>
      </trkpt>
      <trkpt lat="38.244013" lon="-1.427002">
        <ele>210.7</ele>
        <time>2016-10-30T08:09:06Z</time>
      </trkpt>
      <trkpt lat="38.244017" lon="-1.426996">
        <ele>212.1</ele>
        <time>2016-10-30T08:09:07Z</time>
      </trkpt>
      <trkpt lat="38.244030" lon="-1.426990">
        <ele>214.0</ele>
        <time>2016-10-30T08:09:10Z</time>
      </trkpt>
      <trkpt lat="38.244028" lon="-1.426980">
        <ele>212.6</ele>
        <time>2016-10-30T08:09:14Z</time>
      </trkpt>
      <trkpt lat="38.244024" lon="-1.426974">
        <ele>216.9</ele>
        <time>2016-10-30T08:09:15Z</time>
      </trkpt>
      <trkpt lat="38.244022" lon="-1.426977">
        <ele>213.6</ele>
        <time>2016-10-30T08:09:16Z</time>
      </trkpt>
      <trkpt lat="38.244155" lon="-1.427009">
        <ele>212.6</ele>
        <time>2016-10-30T08:09:35Z</time>
      </trkpt>
      <trkpt lat="38.244222" lon="-1.427032">
        <ele>208.7</ele>
        <time>2016-10-30T08:09:40Z</time>
      </trkpt>
      <trkpt lat="38.244238" lon="-1.427034">
        <ele>217.9</ele>
        <time>2016-10-30T08:09:41Z</time>
      </trkpt>
      <trkpt lat="38.244258" lon="-1.427036">
        <ele>213.1</ele>
        <time>2016-10-30T08:09:42Z</time>
      </trkpt>
      <trkpt lat="38.244289" lon="-1.427040">
        <ele>212.6</ele>
        <time>2016-10-30T08:09:44Z</time>
      </trkpt>
      <trkpt lat="38.244304" lon="-1.427044">
        <ele>212.6</ele>
        <time>2016-10-30T08:09:45Z</time>
      </trkpt>
      <trkpt lat="38.244552" lon="-1.427125">
        <ele>212.1</ele>
        <time>2016-10-30T08:10:03Z</time>
      </trkpt>
      <trkpt lat="38.244732" lon="-1.427191">
        <ele>211.6</ele>
        <time>2016-10-30T08:10:17Z</time>
      </trkpt>
      <trkpt lat="38.244967" lon="-1.427299">
        <ele>210.7</ele>
        <time>2016-10-30T08:10:34Z</time>
      </trkpt>
      <trkpt lat="38.245184" lon="-1.427447">
        <ele>210.7</ele>
        <time>2016-10-30T08:10:52Z</time>
      </trkpt>
      <trkpt lat="38.245357" lon="-1.427605">
        <ele>209.7</ele>
        <time>2016-10-30T08:11:08Z</time>
      </trkpt>
      <trkpt lat="38.245534" lon="-1.427790">
        <ele>209.7</ele>
        <time>2016-10-30T08:11:25Z</time>
      </trkpt>
      <trkpt lat="38.245694" lon="-1.427973">
        <ele>209.2</ele>
        <time>2016-10-30T08:11:42Z</time>
      </trkpt>
      <trkpt lat="38.245702" lon="-1.427980">
        <ele>209.2</ele>
        <time>2016-10-30T08:11:43Z</time>
      </trkpt>
      <trkpt lat="38.245781" lon="-1.428027">
        <ele>209.7</ele>
        <time>2016-10-30T08:11:51Z</time>
      </trkpt>
      <trkpt lat="38.245927" lon="-1.428145">
        <ele>208.3</ele>
        <time>2016-10-30T08:12:05Z</time>
      </trkpt>
      <trkpt lat="38.246110" lon="-1.428265">
        <ele>208.3</ele>
        <time>2016-10-30T08:12:23Z</time>
      </trkpt>
      <trkpt lat="38.246322" lon="-1.428436">
        <ele>207.8</ele>
        <time>2016-10-30T08:12:42Z</time>
      </trkpt>
      <trkpt lat="38.246537" lon="-1.428661">
        <ele>208.3</ele>
        <time>2016-10-30T08:13:01Z</time>
      </trkpt>
      <trkpt lat="38.246581" lon="-1.428702">
        <ele>205.9</ele>
        <time>2016-10-30T08:13:05Z</time>
      </trkpt>
      <trkpt lat="38.246598" lon="-1.428722">
        <ele>210.7</ele>
        <time>2016-10-30T08:13:07Z</time>
      </trkpt>
      <trkpt lat="38.246603" lon="-1.428733">
        <ele>207.3</ele>
        <time>2016-10-30T08:13:08Z</time>
      </trkpt>
      <trkpt lat="38.246614" lon="-1.428768">
        <ele>207.8</ele>
        <time>2016-10-30T08:13:20Z</time>
      </trkpt>
      <trkpt lat="38.246772" lon="-1.428907">
        <ele>207.8</ele>
        <time>2016-10-30T08:13:33Z</time>
      </trkpt>
      <trkpt lat="38.246916" lon="-1.429068">
        <ele>207.8</ele>
        <time>2016-10-30T08:13:49Z</time>
      </trkpt>
      <trkpt lat="38.247060" lon="-1.429229">
        <ele>208.3</ele>
        <time>2016-10-30T08:14:06Z</time>
      </trkpt>
      <trkpt lat="38.247200" lon="-1.429419">
        <ele>208.3</ele>
        <time>2016-10-30T08:14:24Z</time>
      </trkpt>
      <trkpt lat="38.247322" lon="-1.429625">
        <ele>207.8</ele>
        <time>2016-10-30T08:14:41Z</time>
      </trkpt>
      <trkpt lat="38.247435" lon="-1.429788">
        <ele>207.3</ele>
        <time>2016-10-30T08:14:55Z</time>
      </trkpt>
      <trkpt lat="38.247463" lon="-1.429817">
        <ele>207.8</ele>
        <time>2016-10-30T08:14:58Z</time>
      </trkpt>
      <trkpt lat="38.247473" lon="-1.429841">
        <ele>207.8</ele>
        <time>2016-10-30T08:15:00Z</time>
      </trkpt>
      <trkpt lat="38.247541" lon="-1.429960">
        <ele>207.3</ele>
        <time>2016-10-30T08:15:10Z</time>
      </trkpt>
      <trkpt lat="38.247576" lon="-1.430030">
        <ele>207.8</ele>
        <time>2016-10-30T08:15:15Z</time>
      </trkpt>
      <trkpt lat="38.247704" lon="-1.430276">
        <ele>207.3</ele>
        <time>2016-10-30T08:15:32Z</time>
      </trkpt>
      <trkpt lat="38.247844" lon="-1.430501">
        <ele>206.8</ele>
        <time>2016-10-30T08:15:50Z</time>
      </trkpt>
      <trkpt lat="38.247971" lon="-1.430685">
        <ele>206.8</ele>
        <time>2016-10-30T08:16:05Z</time>
      </trkpt>
      <trkpt lat="38.248126" lon="-1.430975">
        <ele>206.8</ele>
        <time>2016-10-30T08:16:24Z</time>
      </trkpt>
      <trkpt lat="38.248256" lon="-1.431248">
        <ele>205.9</ele>
        <time>2016-10-30T08:16:47Z</time>
      </trkpt>
      <trkpt lat="38.248266" lon="-1.431262">
        <ele>205.9</ele>
        <time>2016-10-30T08:16:49Z</time>
      </trkpt>
      <trkpt lat="38.248337" lon="-1.431450">
        <ele>205.4</ele>
        <time>2016-10-30T08:17:04Z</time>
      </trkpt>
      <trkpt lat="38.248408" lon="-1.431694">
        <ele>205.9</ele>
        <time>2016-10-30T08:17:21Z</time>
      </trkpt>
      <trkpt lat="38.248453" lon="-1.431966">
        <ele>205.4</ele>
        <time>2016-10-30T08:17:38Z</time>
      </trkpt>
      <trkpt lat="38.248471" lon="-1.432280">
        <ele>205.4</ele>
        <time>2016-10-30T08:17:55Z</time>
      </trkpt>
      <trkpt lat="38.248468" lon="-1.432370">
        <ele>205.4</ele>
        <time>2016-10-30T08:18:01Z</time>
      </trkpt>
      <trkpt lat="38.248461" lon="-1.432443">
        <ele>206.3</ele>
        <time>2016-10-30T08:18:07Z</time>
      </trkpt>
      <trkpt lat="38.248458" lon="-1.432575">
        <ele>206.3</ele>
        <time>2016-10-30T08:18:16Z</time>
      </trkpt>
      <trkpt lat="38.248441" lon="-1.432644">
        <ele>206.8</ele>
        <time>2016-10-30T08:18:21Z</time>
      </trkpt>
      <trkpt lat="38.248437" lon="-1.432677">
        <ele>206.8</ele>
        <time>2016-10-30T08:18:25Z</time>
      </trkpt>
      <trkpt lat="38.248432" lon="-1.432698">
        <ele>206.8</ele>
        <time>2016-10-30T08:18:27Z</time>
      </trkpt>
      <trkpt lat="38.248410" lon="-1.432776">
        <ele>207.3</ele>
        <time>2016-10-30T08:18:42Z</time>
      </trkpt>
      <trkpt lat="38.248426" lon="-1.432786">
        <ele>207.3</ele>
        <time>2016-10-30T08:18:45Z</time>
      </trkpt>
      <trkpt lat="38.248577" lon="-1.432950">
        <ele>201.1</ele>
        <time>2016-10-30T08:33:31Z</time>
      </trkpt>
      <trkpt lat="38.248655" lon="-1.433046">
        <ele>200.6</ele>
        <time>2016-10-30T08:33:48Z</time>
      </trkpt>
      <trkpt lat="38.248671" lon="-1.433054">
        <ele>201.5</ele>
        <time>2016-10-30T08:33:52Z</time>
      </trkpt>
      <trkpt lat="38.248736" lon="-1.433158">
        <ele>201.5</ele>
        <time>2016-10-30T08:34:04Z</time>
      </trkpt>
      <trkpt lat="38.248795" lon="-1.433233">
        <ele>202.5</ele>
        <time>2016-10-30T08:34:14Z</time>
      </trkpt>
      <trkpt lat="38.248884" lon="-1.433326">
        <ele>205.9</ele>
        <time>2016-10-30T08:34:24Z</time>
      </trkpt>
      <trkpt lat="38.248893" lon="-1.433336">
        <ele>205.9</ele>
        <time>2016-10-30T08:34:25Z</time>
      </trkpt>
      <trkpt lat="38.248911" lon="-1.433362">
        <ele>203.0</ele>
        <time>2016-10-30T08:34:27Z</time>
      </trkpt>
      <trkpt lat="38.248987" lon="-1.433452">
        <ele>203.9</ele>
        <time>2016-10-30T08:34:39Z</time>
      </trkpt>
      <trkpt lat="38.249166" lon="-1.433587">
        <ele>205.4</ele>
        <time>2016-10-30T08:34:53Z</time>
      </trkpt>
      <trkpt lat="38.249293" lon="-1.433607">
        <ele>205.9</ele>
        <time>2016-10-30T08:35:09Z</time>
      </trkpt>
      <trkpt lat="38.249307" lon="-1.433605">
        <ele>205.4</ele>
        <time>2016-10-30T08:35:11Z</time>
      </trkpt>
      <trkpt lat="38.249424" lon="-1.433610">
        <ele>206.8</ele>
        <time>2016-10-30T08:35:25Z</time>
      </trkpt>
      <trkpt lat="38.249459" lon="-1.433615">
        <ele>207.3</ele>
        <time>2016-10-30T08:35:34Z</time>
      </trkpt>
      <trkpt lat="38.249508" lon="-1.433626">
        <ele>207.3</ele>
        <time>2016-10-30T08:35:51Z</time>
      </trkpt>
      <trkpt lat="38.249527" lon="-1.433645">
        <ele>207.3</ele>
        <time>2016-10-30T08:35:53Z</time>
      </trkpt>
      <trkpt lat="38.249587" lon="-1.433662">
        <ele>207.8</ele>
        <time>2016-10-30T08:35:58Z</time>
      </trkpt>
      <trkpt lat="38.249764" lon="-1.433746">
        <ele>208.3</ele>
        <time>2016-10-30T08:36:12Z</time>
      </trkpt>
      <trkpt lat="38.249950" lon="-1.433886">
        <ele>210.2</ele>
        <time>2016-10-30T08:36:28Z</time>
      </trkpt>
      <trkpt lat="38.250138" lon="-1.433993">
        <ele>210.7</ele>
        <time>2016-10-30T08:36:43Z</time>
      </trkpt>
      <trkpt lat="38.250218" lon="-1.434017">
        <ele>211.1</ele>
        <time>2016-10-30T08:36:50Z</time>
      </trkpt>
      <trkpt lat="38.250368" lon="-1.434072">
        <ele>211.6</ele>
        <time>2016-10-30T08:37:04Z</time>
      </trkpt>
      <trkpt lat="38.250534" lon="-1.434141">
        <ele>212.1</ele>
        <time>2016-10-30T08:37:18Z</time>
      </trkpt>
      <trkpt lat="38.250578" lon="-1.434169">
        <ele>212.6</ele>
        <time>2016-10-30T08:37:22Z</time>
      </trkpt>
      <trkpt lat="38.250630" lon="-1.434194">
        <ele>213.1</ele>
        <time>2016-10-30T08:37:26Z</time>
      </trkpt>
      <trkpt lat="38.250860" lon="-1.434344">
        <ele>212.6</ele>
        <time>2016-10-30T08:37:46Z</time>
      </trkpt>
      <trkpt lat="38.251096" lon="-1.434500">
        <ele>213.6</ele>
        <time>2016-10-30T08:38:06Z</time>
      </trkpt>
      <trkpt lat="38.251313" lon="-1.434622">
        <ele>213.6</ele>
        <time>2016-10-30T08:38:24Z</time>
      </trkpt>
      <trkpt lat="38.251484" lon="-1.434722">
        <ele>214.5</ele>
        <time>2016-10-30T08:38:39Z</time>
      </trkpt>
      <trkpt lat="38.251698" lon="-1.434860">
        <ele>215.5</ele>
        <time>2016-10-30T08:38:58Z</time>
      </trkpt>
      <trkpt lat="38.251918" lon="-1.434967">
        <ele>216.9</ele>
        <time>2016-10-30T08:39:16Z</time>
      </trkpt>
      <trkpt lat="38.252056" lon="-1.435033">
        <ele>217.9</ele>
        <time>2016-10-30T08:39:28Z</time>
      </trkpt>
      <trkpt lat="38.252139" lon="-1.435061">
        <ele>218.8</ele>
        <time>2016-10-30T08:39:35Z</time>
      </trkpt>
      <trkpt lat="38.252318" lon="-1.435126">
        <ele>219.8</ele>
        <time>2016-10-30T08:39:51Z</time>
      </trkpt>
      <trkpt lat="38.252500" lon="-1.435194">
        <ele>221.2</ele>
        <time>2016-10-30T08:40:06Z</time>
      </trkpt>
      <trkpt lat="38.252540" lon="-1.435222">
        <ele>222.7</ele>
        <time>2016-10-30T08:40:10Z</time>
      </trkpt>
      <trkpt lat="38.252677" lon="-1.435282">
        <ele>224.1</ele>
        <time>2016-10-30T08:40:23Z</time>
      </trkpt>
      <trkpt lat="38.252828" lon="-1.435362">
        <ele>226.5</ele>
        <time>2016-10-30T08:40:37Z</time>
      </trkpt>
      <trkpt lat="38.252885" lon="-1.435395">
        <ele>226.1</ele>
        <time>2016-10-30T08:40:42Z</time>
      </trkpt>
      <trkpt lat="38.253036" lon="-1.435447">
        <ele>227.5</ele>
        <time>2016-10-30T08:40:56Z</time>
      </trkpt>
      <trkpt lat="38.253047" lon="-1.435450">
        <ele>227.5</ele>
        <time>2016-10-30T08:40:57Z</time>
      </trkpt>
      <trkpt lat="38.253212" lon="-1.435503">
        <ele>229.9</ele>
        <time>2016-10-30T08:41:12Z</time>
      </trkpt>
      <trkpt lat="38.253235" lon="-1.435511">
        <ele>228.9</ele>
        <time>2016-10-30T08:41:14Z</time>
      </trkpt>
      <trkpt lat="38.253423" lon="-1.435527">
        <ele>231.3</ele>
        <time>2016-10-30T08:41:30Z</time>
      </trkpt>
      <trkpt lat="38.253434" lon="-1.435532">
        <ele>230.9</ele>
        <time>2016-10-30T08:41:31Z</time>
      </trkpt>
      <trkpt lat="38.253505" lon="-1.435557">
        <ele>231.3</ele>
        <time>2016-10-30T08:41:37Z</time>
      </trkpt>
      <trkpt lat="38.253539" lon="-1.435572">
        <ele>235.2</ele>
        <time>2016-10-30T08:41:40Z</time>
      </trkpt>
      <trkpt lat="38.253551" lon="-1.435577">
        <ele>231.8</ele>
        <time>2016-10-30T08:41:41Z</time>
      </trkpt>
      <trkpt lat="38.253652" lon="-1.435634">
        <ele>232.3</ele>
        <time>2016-10-30T08:41:55Z</time>
      </trkpt>
      <trkpt lat="38.253634" lon="-1.435651">
        <ele>232.3</ele>
        <time>2016-10-30T08:42:12Z</time>
      </trkpt>
      <trkpt lat="38.253782" lon="-1.435672">
        <ele>236.1</ele>
        <time>2016-10-30T08:42:22Z</time>
      </trkpt>
      <trkpt lat="38.253801" lon="-1.435678">
        <ele>234.7</ele>
        <time>2016-10-30T08:42:23Z</time>
      </trkpt>
      <trkpt lat="38.254054" lon="-1.435799">
        <ele>237.1</ele>
        <time>2016-10-30T08:42:40Z</time>
      </trkpt>
      <trkpt lat="38.254256" lon="-1.435852">
        <ele>240.0</ele>
        <time>2016-10-30T08:42:55Z</time>
      </trkpt>
      <trkpt lat="38.254390" lon="-1.435888">
        <ele>241.4</ele>
        <time>2016-10-30T08:43:09Z</time>
      </trkpt>
      <trkpt lat="38.254500" lon="-1.435920">
        <ele>242.4</ele>
        <time>2016-10-30T08:43:21Z</time>
      </trkpt>
      <trkpt lat="38.254610" lon="-1.435967">
        <ele>242.9</ele>
        <time>2016-10-30T08:43:35Z</time>
      </trkpt>
      <trkpt lat="38.254627" lon="-1.435975">
        <ele>243.8</ele>
        <time>2016-10-30T08:43:37Z</time>
      </trkpt>
      <trkpt lat="38.254674" lon="-1.435996">
        <ele>243.4</ele>
        <time>2016-10-30T08:43:41Z</time>
      </trkpt>
      <trkpt lat="38.254859" lon="-1.436136">
        <ele>244.3</ele>
        <time>2016-10-30T08:44:00Z</time>
      </trkpt>
      <trkpt lat="38.255007" lon="-1.436232">
        <ele>243.8</ele>
        <time>2016-10-30T08:44:14Z</time>
      </trkpt>
      <trkpt lat="38.255235" lon="-1.436354">
        <ele>241.4</ele>
        <time>2016-10-30T08:44:32Z</time>
      </trkpt>
      <trkpt lat="38.255518" lon="-1.436538">
        <ele>240.5</ele>
        <time>2016-10-30T08:44:54Z</time>
      </trkpt>
      <trkpt lat="38.255784" lon="-1.436701">
        <ele>240.5</ele>
        <time>2016-10-30T08:45:16Z</time>
      </trkpt>
      <trkpt lat="38.255983" lon="-1.436896">
        <ele>240.5</ele>
        <time>2016-10-30T08:45:34Z</time>
      </trkpt>
      <trkpt lat="38.256169" lon="-1.437079">
        <ele>240.9</ele>
        <time>2016-10-30T08:45:53Z</time>
      </trkpt>
      <trkpt lat="38.256409" lon="-1.437225">
        <ele>242.4</ele>
        <time>2016-10-30T08:46:14Z</time>
      </trkpt>
      <trkpt lat="38.256508" lon="-1.437298">
        <ele>245.3</ele>
        <time>2016-10-30T08:46:29Z</time>
      </trkpt>
      <trkpt lat="38.256479" lon="-1.437285">
        <ele>241.9</ele>
        <time>2016-10-30T08:46:42Z</time>
      </trkpt>
      <trkpt lat="38.256770" lon="-1.437449">
        <ele>241.9</ele>
        <time>2016-10-30T08:47:03Z</time>
      </trkpt>
      <trkpt lat="38.257041" lon="-1.437583">
        <ele>240.5</ele>
        <time>2016-10-30T08:47:23Z</time>
      </trkpt>
      <trkpt lat="38.257104" lon="-1.437600">
        <ele>237.1</ele>
        <time>2016-10-30T08:47:31Z</time>
      </trkpt>
      <trkpt lat="38.257118" lon="-1.437606">
        <ele>240.9</ele>
        <time>2016-10-30T08:47:32Z</time>
      </trkpt>
      <trkpt lat="38.257132" lon="-1.437610">
        <ele>240.9</ele>
        <time>2016-10-30T08:47:33Z</time>
      </trkpt>
      <trkpt lat="38.257146" lon="-1.437614">
        <ele>235.2</ele>
        <time>2016-10-30T08:47:34Z</time>
      </trkpt>
      <trkpt lat="38.257159" lon="-1.437617">
        <ele>239.0</ele>
        <time>2016-10-30T08:47:35Z</time>
      </trkpt>
      <trkpt lat="38.257186" lon="-1.437625">
        <ele>245.3</ele>
        <time>2016-10-30T08:47:37Z</time>
      </trkpt>
      <trkpt lat="38.257199" lon="-1.437632">
        <ele>240.0</ele>
        <time>2016-10-30T08:47:38Z</time>
      </trkpt>
      <trkpt lat="38.257228" lon="-1.437647">
        <ele>239.0</ele>
        <time>2016-10-30T08:47:40Z</time>
      </trkpt>
      <trkpt lat="38.257464" lon="-1.437723">
        <ele>237.1</ele>
        <time>2016-10-30T08:47:56Z</time>
      </trkpt>
      <trkpt lat="38.257558" lon="-1.437753">
        <ele>235.2</ele>
        <time>2016-10-30T08:48:02Z</time>
      </trkpt>
      <trkpt lat="38.257574" lon="-1.437757">
        <ele>239.0</ele>
        <time>2016-10-30T08:48:03Z</time>
      </trkpt>
      <trkpt lat="38.257590" lon="-1.437761">
        <ele>234.7</ele>
        <time>2016-10-30T08:48:04Z</time>
      </trkpt>
      <trkpt lat="38.257605" lon="-1.437766">
        <ele>238.1</ele>
        <time>2016-10-30T08:48:05Z</time>
      </trkpt>
      <trkpt lat="38.257871" lon="-1.437843">
        <ele>235.2</ele>
        <time>2016-10-30T08:48:24Z</time>
      </trkpt>
      <trkpt lat="38.258149" lon="-1.437901">
        <ele>234.2</ele>
        <time>2016-10-30T08:48:43Z</time>
      </trkpt>
      <trkpt lat="38.258386" lon="-1.437981">
        <ele>234.7</ele>
        <time>2016-10-30T08:49:01Z</time>
      </trkpt>
      <trkpt lat="38.258631" lon="-1.438097">
        <ele>234.2</ele>
        <time>2016-10-30T08:49:20Z</time>
      </trkpt>
      <trkpt lat="38.258854" lon="-1.438174">
        <ele>233.7</ele>
        <time>2016-10-30T08:49:38Z</time>
      </trkpt>
      <trkpt lat="38.259040" lon="-1.438270">
        <ele>233.7</ele>
        <time>2016-10-30T08:49:53Z</time>
      </trkpt>
      <trkpt lat="38.259198" lon="-1.438399">
        <ele>234.2</ele>
        <time>2016-10-30T08:50:07Z</time>
      </trkpt>
      <trkpt lat="38.259256" lon="-1.438480">
        <ele>234.2</ele>
        <time>2016-10-30T08:50:14Z</time>
      </trkpt>
      <trkpt lat="38.259356" lon="-1.438769">
        <ele>234.2</ele>
        <time>2016-10-30T08:50:44Z</time>
      </trkpt>
      <trkpt lat="38.259917" lon="-1.438751">
        <ele>234.7</ele>
        <time>2016-10-30T08:51:38Z</time>
      </trkpt>
      <trkpt lat="38.259936" lon="-1.438742">
        <ele>234.7</ele>
        <time>2016-10-30T08:51:40Z</time>
      </trkpt>
      <trkpt lat="38.259993" lon="-1.438727">
        <ele>235.2</ele>
        <time>2016-10-30T08:51:45Z</time>
      </trkpt>
      <trkpt lat="38.260035" lon="-1.438721">
        <ele>234.7</ele>
        <time>2016-10-30T08:51:49Z</time>
      </trkpt>
      <trkpt lat="38.260253" lon="-1.438739">
        <ele>235.7</ele>
        <time>2016-10-30T08:52:07Z</time>
      </trkpt>
      <trkpt lat="38.260425" lon="-1.438839">
        <ele>237.1</ele>
        <time>2016-10-30T08:52:23Z</time>
      </trkpt>
      <trkpt lat="38.260470" lon="-1.438908">
        <ele>237.6</ele>
        <time>2016-10-30T08:52:30Z</time>
      </trkpt>
      <trkpt lat="38.260548" lon="-1.439013">
        <ele>238.1</ele>
        <time>2016-10-30T08:52:40Z</time>
      </trkpt>
      <trkpt lat="38.260572" lon="-1.439043">
        <ele>238.5</ele>
        <time>2016-10-30T08:52:44Z</time>
      </trkpt>
      <trkpt lat="38.260733" lon="-1.439220">
        <ele>238.5</ele>
        <time>2016-10-30T08:53:01Z</time>
      </trkpt>
      <trkpt lat="38.261127" lon="-1.439669">
        <ele>243.4</ele>
        <time>2016-10-30T08:54:05Z</time>
      </trkpt>
      <trkpt lat="38.261137" lon="-1.439686">
        <ele>238.1</ele>
        <time>2016-10-30T08:54:06Z</time>
      </trkpt>
      <trkpt lat="38.261272" lon="-1.439930">
        <ele>240.9</ele>
        <time>2016-10-30T08:54:22Z</time>
      </trkpt>
      <trkpt lat="38.261442" lon="-1.440130">
        <ele>243.8</ele>
        <time>2016-10-30T08:54:37Z</time>
      </trkpt>
      <trkpt lat="38.261556" lon="-1.440231">
        <ele>244.3</ele>
        <time>2016-10-30T08:54:53Z</time>
      </trkpt>
      <trkpt lat="38.261663" lon="-1.440320">
        <ele>247.7</ele>
        <time>2016-10-30T08:55:07Z</time>
      </trkpt>
      <trkpt lat="38.261665" lon="-1.440317">
        <ele>244.8</ele>
        <time>2016-10-30T08:55:08Z</time>
      </trkpt>
      <trkpt lat="38.261669" lon="-1.440315">
        <ele>244.3</ele>
        <time>2016-10-30T08:55:09Z</time>
      </trkpt>
      <trkpt lat="38.261668" lon="-1.440317">
        <ele>243.8</ele>
        <time>2016-10-30T08:55:21Z</time>
      </trkpt>
      <trkpt lat="38.261668" lon="-1.440322">
        <ele>243.4</ele>
        <time>2016-10-30T08:55:45Z</time>
      </trkpt>
      <trkpt lat="38.261731" lon="-1.440381">
        <ele>244.3</ele>
        <time>2016-10-30T08:56:04Z</time>
      </trkpt>
      <trkpt lat="38.261754" lon="-1.440406">
        <ele>240.9</ele>
        <time>2016-10-30T08:56:06Z</time>
      </trkpt>
      <trkpt lat="38.261766" lon="-1.440416">
        <ele>242.9</ele>
        <time>2016-10-30T08:56:07Z</time>
      </trkpt>
      <trkpt lat="38.261778" lon="-1.440423">
        <ele>246.7</ele>
        <time>2016-10-30T08:56:08Z</time>
      </trkpt>
      <trkpt lat="38.261791" lon="-1.440441">
        <ele>244.3</ele>
        <time>2016-10-30T08:56:11Z</time>
      </trkpt>
      <trkpt lat="38.261792" lon="-1.440437">
        <ele>244.3</ele>
        <time>2016-10-30T08:56:15Z</time>
      </trkpt>
      <trkpt lat="38.261878" lon="-1.440501">
        <ele>243.8</ele>
        <time>2016-10-30T08:56:26Z</time>
      </trkpt>
      <trkpt lat="38.261883" lon="-1.440501">
        <ele>243.8</ele>
        <time>2016-10-30T08:56:28Z</time>
      </trkpt>
      <trkpt lat="38.261909" lon="-1.440493">
        <ele>243.8</ele>
        <time>2016-10-30T08:56:35Z</time>
      </trkpt>
      <trkpt lat="38.262121" lon="-1.440666">
        <ele>242.4</ele>
        <time>2016-10-30T08:56:53Z</time>
      </trkpt>
      <trkpt lat="38.262216" lon="-1.440716">
        <ele>239.5</ele>
        <time>2016-10-30T08:57:00Z</time>
      </trkpt>
      <trkpt lat="38.262243" lon="-1.440729">
        <ele>241.4</ele>
        <time>2016-10-30T08:57:02Z</time>
      </trkpt>
      <trkpt lat="38.262469" lon="-1.440939">
        <ele>239.5</ele>
        <time>2016-10-30T08:57:22Z</time>
      </trkpt>
      <trkpt lat="38.262685" lon="-1.441137">
        <ele>238.1</ele>
        <time>2016-10-30T08:57:40Z</time>
      </trkpt>
      <trkpt lat="38.262958" lon="-1.441259">
        <ele>237.1</ele>
        <time>2016-10-30T08:57:59Z</time>
      </trkpt>
      <trkpt lat="38.263559" lon="-1.441601">
        <ele>236.1</ele>
        <time>2016-10-30T08:59:19Z</time>
      </trkpt>
      <trkpt lat="38.263817" lon="-1.441758">
        <ele>235.7</ele>
        <time>2016-10-30T08:59:38Z</time>
      </trkpt>
      <trkpt lat="38.264018" lon="-1.441824">
        <ele>236.1</ele>
        <time>2016-10-30T08:59:55Z</time>
      </trkpt>
      <trkpt lat="38.264214" lon="-1.441990">
        <ele>232.8</ele>
        <time>2016-10-30T09:00:10Z</time>
      </trkpt>
      <trkpt lat="38.264230" lon="-1.441999">
        <ele>236.1</ele>
        <time>2016-10-30T09:00:11Z</time>
      </trkpt>
      <trkpt lat="38.264536" lon="-1.442145">
        <ele>236.1</ele>
        <time>2016-10-30T09:00:32Z</time>
      </trkpt>
      <trkpt lat="38.264632" lon="-1.442199">
        <ele>237.1</ele>
        <time>2016-10-30T09:00:42Z</time>
      </trkpt>
      <trkpt lat="38.264580" lon="-1.442425">
        <ele>235.7</ele>
        <time>2016-10-30T09:03:39Z</time>
      </trkpt>
      <trkpt lat="38.264460" lon="-1.442690">
        <ele>235.7</ele>
        <time>2016-10-30T09:03:57Z</time>
      </trkpt>
      <trkpt lat="38.264400" lon="-1.442822">
        <ele>236.1</ele>
        <time>2016-10-30T09:04:08Z</time>
      </trkpt>
      <trkpt lat="38.264377" lon="-1.442869">
        <ele>236.6</ele>
        <time>2016-10-30T09:04:16Z</time>
      </trkpt>
      <trkpt lat="38.264372" lon="-1.442961">
        <ele>236.1</ele>
        <time>2016-10-30T09:04:21Z</time>
      </trkpt>
      <trkpt lat="38.264331" lon="-1.443302">
        <ele>236.1</ele>
        <time>2016-10-30T09:04:39Z</time>
      </trkpt>
      <trkpt lat="38.264327" lon="-1.443380">
        <ele>237.1</ele>
        <time>2016-10-30T09:04:44Z</time>
      </trkpt>
      <trkpt lat="38.264291" lon="-1.443595">
        <ele>236.1</ele>
        <time>2016-10-30T09:05:00Z</time>
      </trkpt>
      <trkpt lat="38.264272" lon="-1.443633">
        <ele>236.1</ele>
        <time>2016-10-30T09:05:15Z</time>
      </trkpt>
      <trkpt lat="38.264153" lon="-1.443844">
        <ele>235.2</ele>
        <time>2016-10-30T09:06:45Z</time>
      </trkpt>
      <trkpt lat="38.264227" lon="-1.443946">
        <ele>234.7</ele>
        <time>2016-10-30T09:07:02Z</time>
      </trkpt>
      <trkpt lat="38.264260" lon="-1.444033">
        <ele>234.2</ele>
        <time>2016-10-30T09:07:14Z</time>
      </trkpt>
      <trkpt lat="38.264345" lon="-1.444158">
        <ele>233.7</ele>
        <time>2016-10-30T09:07:28Z</time>
      </trkpt>
      <trkpt lat="38.264516" lon="-1.444277">
        <ele>232.8</ele>
        <time>2016-10-30T09:07:46Z</time>
      </trkpt>
      <trkpt lat="38.264713" lon="-1.444264">
        <ele>231.8</ele>
        <time>2016-10-30T09:08:04Z</time>
      </trkpt>
      <trkpt lat="38.264872" lon="-1.444308">
        <ele>230.4</ele>
        <time>2016-10-30T09:08:21Z</time>
      </trkpt>
      <trkpt lat="38.264982" lon="-1.444369">
        <ele>228.9</ele>
        <time>2016-10-30T09:08:35Z</time>
      </trkpt>
      <trkpt lat="38.265240" lon="-1.444463">
        <ele>227.5</ele>
        <time>2016-10-30T09:08:53Z</time>
      </trkpt>
      <trkpt lat="38.265333" lon="-1.444601">
        <ele>226.5</ele>
        <time>2016-10-30T09:09:07Z</time>
      </trkpt>
      <trkpt lat="38.265336" lon="-1.444608">
        <ele>226.5</ele>
        <time>2016-10-30T09:09:08Z</time>
      </trkpt>
      <trkpt lat="38.265506" lon="-1.444786">
        <ele>224.6</ele>
        <time>2016-10-30T09:09:25Z</time>
      </trkpt>
      <trkpt lat="38.265546" lon="-1.444791">
        <ele>225.1</ele>
        <time>2016-10-30T09:09:31Z</time>
      </trkpt>
      <trkpt lat="38.265568" lon="-1.444797">
        <ele>225.1</ele>
        <time>2016-10-30T09:09:35Z</time>
      </trkpt>
      <trkpt lat="38.265645" lon="-1.444851">
        <ele>225.1</ele>
        <time>2016-10-30T09:09:41Z</time>
      </trkpt>
      <trkpt lat="38.265749" lon="-1.444920">
        <ele>225.1</ele>
        <time>2016-10-30T09:09:53Z</time>
      </trkpt>
      <trkpt lat="38.265781" lon="-1.444939">
        <ele>224.6</ele>
        <time>2016-10-30T09:10:04Z</time>
      </trkpt>
      <trkpt lat="38.265796" lon="-1.444964">
        <ele>224.6</ele>
        <time>2016-10-30T09:10:19Z</time>
      </trkpt>
      <trkpt lat="38.266022" lon="-1.445213">
        <ele>224.1</ele>
        <time>2016-10-30T09:11:33Z</time>
      </trkpt>
      <trkpt lat="38.266068" lon="-1.445229">
        <ele>224.6</ele>
        <time>2016-10-30T09:11:38Z</time>
      </trkpt>
      <trkpt lat="38.266307" lon="-1.445435">
        <ele>224.1</ele>
        <time>2016-10-30T09:11:58Z</time>
      </trkpt>
      <trkpt lat="38.266495" lon="-1.445575">
        <ele>225.1</ele>
        <time>2016-10-30T09:12:14Z</time>
      </trkpt>
      <trkpt lat="38.266515" lon="-1.445599">
        <ele>223.6</ele>
        <time>2016-10-30T09:12:16Z</time>
      </trkpt>
      <trkpt lat="38.266541" lon="-1.445613">
        <ele>225.1</ele>
        <time>2016-10-30T09:12:18Z</time>
      </trkpt>
      <trkpt lat="38.266715" lon="-1.445704">
        <ele>225.6</ele>
        <time>2016-10-30T09:12:33Z</time>
      </trkpt>
      <trkpt lat="38.266845" lon="-1.445802">
        <ele>225.6</ele>
        <time>2016-10-30T09:12:45Z</time>
      </trkpt>
      <trkpt lat="38.267035" lon="-1.445914">
        <ele>225.1</ele>
        <time>2016-10-30T09:13:02Z</time>
      </trkpt>
      <trkpt lat="38.267123" lon="-1.445967">
        <ele>225.6</ele>
        <time>2016-10-30T09:13:10Z</time>
      </trkpt>
      <trkpt lat="38.267145" lon="-1.446000">
        <ele>225.1</ele>
        <time>2016-10-30T09:13:13Z</time>
      </trkpt>
      <trkpt lat="38.267146" lon="-1.446061">
        <ele>225.6</ele>
        <time>2016-10-30T09:13:17Z</time>
      </trkpt>
      <trkpt lat="38.267151" lon="-1.446125">
        <ele>225.6</ele>
        <time>2016-10-30T09:13:21Z</time>
      </trkpt>
      <trkpt lat="38.267149" lon="-1.446166">
        <ele>225.1</ele>
        <time>2016-10-30T09:13:24Z</time>
      </trkpt>
      <trkpt lat="38.267126" lon="-1.446242">
        <ele>225.1</ele>
        <time>2016-10-30T09:13:29Z</time>
      </trkpt>
      <trkpt lat="38.267096" lon="-1.446345">
        <ele>225.1</ele>
        <time>2016-10-30T09:13:36Z</time>
      </trkpt>
      <trkpt lat="38.267067" lon="-1.446483">
        <ele>223.6</ele>
        <time>2016-10-30T09:13:44Z</time>
      </trkpt>
      <trkpt lat="38.267084" lon="-1.446579">
        <ele>224.1</ele>
        <time>2016-10-30T09:13:50Z</time>
      </trkpt>
      <trkpt lat="38.267116" lon="-1.446662">
        <ele>224.6</ele>
        <time>2016-10-30T09:13:57Z</time>
      </trkpt>
      <trkpt lat="38.267150" lon="-1.446889">
        <ele>223.6</ele>
        <time>2016-10-30T09:14:13Z</time>
      </trkpt>
      <trkpt lat="38.267158" lon="-1.446909">
        <ele>223.2</ele>
        <time>2016-10-30T09:14:15Z</time>
      </trkpt>
      <trkpt lat="38.267160" lon="-1.447137">
        <ele>222.7</ele>
        <time>2016-10-30T09:14:31Z</time>
      </trkpt>
      <trkpt lat="38.267220" lon="-1.447278">
        <ele>219.8</ele>
        <time>2016-10-30T09:14:42Z</time>
      </trkpt>
      <trkpt lat="38.267233" lon="-1.447314">
        <ele>222.7</ele>
        <time>2016-10-30T09:14:45Z</time>
      </trkpt>
      <trkpt lat="38.267248" lon="-1.447343">
        <ele>221.2</ele>
        <time>2016-10-30T09:14:48Z</time>
      </trkpt>
      <trkpt lat="38.267246" lon="-1.447346">
        <ele>221.2</ele>
        <time>2016-10-30T09:14:50Z</time>
      </trkpt>
      <trkpt lat="38.267271" lon="-1.447379">
        <ele>221.2</ele>
        <time>2016-10-30T09:15:01Z</time>
      </trkpt>
      <trkpt lat="38.267381" lon="-1.447460">
        <ele>218.8</ele>
        <time>2016-10-30T09:15:10Z</time>
      </trkpt>
      <trkpt lat="38.267412" lon="-1.447484">
        <ele>222.2</ele>
        <time>2016-10-30T09:15:13Z</time>
      </trkpt>
      <trkpt lat="38.267451" lon="-1.447508">
        <ele>219.8</ele>
        <time>2016-10-30T09:15:16Z</time>
      </trkpt>
      <trkpt lat="38.267483" lon="-1.447552">
        <ele>219.3</ele>
        <time>2016-10-30T09:15:20Z</time>
      </trkpt>
      <trkpt lat="38.267669" lon="-1.447658">
        <ele>217.9</ele>
        <time>2016-10-30T09:15:36Z</time>
      </trkpt>
      <trkpt lat="38.267823" lon="-1.447770">
        <ele>216.9</ele>
        <time>2016-10-30T09:15:50Z</time>
      </trkpt>
      <trkpt lat="38.268033" lon="-1.447844">
        <ele>215.0</ele>
        <time>2016-10-30T09:16:08Z</time>
      </trkpt>
      <trkpt lat="38.268138" lon="-1.447932">
        <ele>213.6</ele>
        <time>2016-10-30T09:16:18Z</time>
      </trkpt>
      <trkpt lat="38.268249" lon="-1.448043">
        <ele>212.6</ele>
        <time>2016-10-30T09:16:32Z</time>
      </trkpt>
      <trkpt lat="38.268421" lon="-1.448218">
        <ele>212.6</ele>
        <time>2016-10-30T09:16:50Z</time>
      </trkpt>
      <trkpt lat="38.268483" lon="-1.448386">
        <ele>209.7</ele>
        <time>2016-10-30T09:17:17Z</time>
      </trkpt>
      <trkpt lat="38.268653" lon="-1.448582">
        <ele>207.3</ele>
        <time>2016-10-30T09:17:35Z</time>
      </trkpt>
      <trkpt lat="38.268831" lon="-1.448778">
        <ele>205.4</ele>
        <time>2016-10-30T09:17:53Z</time>
      </trkpt>
      <trkpt lat="38.269003" lon="-1.448932">
        <ele>203.5</ele>
        <time>2016-10-30T09:18:10Z</time>
      </trkpt>
      <trkpt lat="38.269113" lon="-1.449066">
        <ele>203.0</ele>
        <time>2016-10-30T09:18:26Z</time>
      </trkpt>
      <trkpt lat="38.269319" lon="-1.449319">
        <ele>202.5</ele>
        <time>2016-10-30T09:20:13Z</time>
      </trkpt>
      <trkpt lat="38.269474" lon="-1.449418">
        <ele>202.5</ele>
        <time>2016-10-30T09:21:03Z</time>
      </trkpt>
      <trkpt lat="38.269546" lon="-1.449666">
        <ele>203.0</ele>
        <time>2016-10-30T09:21:20Z</time>
      </trkpt>
      <trkpt lat="38.269556" lon="-1.449709">
        <ele>202.5</ele>
        <time>2016-10-30T09:21:23Z</time>
      </trkpt>
      <trkpt lat="38.269568" lon="-1.449786">
        <ele>203.0</ele>
        <time>2016-10-30T09:21:28Z</time>
      </trkpt>
      <trkpt lat="38.269583" lon="-1.449823">
        <ele>203.0</ele>
        <time>2016-10-30T09:21:31Z</time>
      </trkpt>
      <trkpt lat="38.269600" lon="-1.449878">
        <ele>203.9</ele>
        <time>2016-10-30T09:21:35Z</time>
      </trkpt>
      <trkpt lat="38.269603" lon="-1.449905">
        <ele>203.9</ele>
        <time>2016-10-30T09:21:37Z</time>
      </trkpt>
      <trkpt lat="38.269629" lon="-1.449969">
        <ele>204.4</ele>
        <time>2016-10-30T09:21:43Z</time>
      </trkpt>
      <trkpt lat="38.269683" lon="-1.450030">
        <ele>204.9</ele>
        <time>2016-10-30T09:21:51Z</time>
      </trkpt>
      <trkpt lat="38.269696" lon="-1.450147">
        <ele>205.9</ele>
        <time>2016-10-30T09:22:00Z</time>
      </trkpt>
      <trkpt lat="38.269734" lon="-1.450193">
        <ele>206.3</ele>
        <time>2016-10-30T09:22:05Z</time>
      </trkpt>
      <trkpt lat="38.269798" lon="-1.450265">
        <ele>207.3</ele>
        <time>2016-10-30T09:22:16Z</time>
      </trkpt>
      <trkpt lat="38.269804" lon="-1.450271">
        <ele>207.3</ele>
        <time>2016-10-30T09:22:17Z</time>
      </trkpt>
      <trkpt lat="38.269840" lon="-1.450284">
        <ele>207.8</ele>
        <time>2016-10-30T09:22:30Z</time>
      </trkpt>
      <trkpt lat="38.269926" lon="-1.450337">
        <ele>208.3</ele>
        <time>2016-10-30T09:22:41Z</time>
      </trkpt>
      <trkpt lat="38.269934" lon="-1.450341">
        <ele>207.8</ele>
        <time>2016-10-30T09:22:42Z</time>
      </trkpt>
      <trkpt lat="38.269948" lon="-1.450358">
        <ele>208.7</ele>
        <time>2016-10-30T09:22:44Z</time>
      </trkpt>
      <trkpt lat="38.270066" lon="-1.450382">
        <ele>210.7</ele>
        <time>2016-10-30T09:22:58Z</time>
      </trkpt>
      <trkpt lat="38.270119" lon="-1.450407">
        <ele>210.2</ele>
        <time>2016-10-30T09:23:04Z</time>
      </trkpt>
      <trkpt lat="38.270139" lon="-1.450412">
        <ele>209.7</ele>
        <time>2016-10-30T09:23:07Z</time>
      </trkpt>
      <trkpt lat="38.270211" lon="-1.450467">
        <ele>210.7</ele>
        <time>2016-10-30T09:23:15Z</time>
      </trkpt>
      <trkpt lat="38.270232" lon="-1.450470">
        <ele>210.7</ele>
        <time>2016-10-30T09:23:17Z</time>
      </trkpt>
      <trkpt lat="38.270352" lon="-1.450542">
        <ele>211.6</ele>
        <time>2016-10-30T09:23:30Z</time>
      </trkpt>
      <trkpt lat="38.270382" lon="-1.450561">
        <ele>212.1</ele>
        <time>2016-10-30T09:23:33Z</time>
      </trkpt>
      <trkpt lat="38.270416" lon="-1.450565">
        <ele>212.6</ele>
        <time>2016-10-30T09:23:36Z</time>
      </trkpt>
      <trkpt lat="38.270448" lon="-1.450586">
        <ele>212.6</ele>
        <time>2016-10-30T09:23:39Z</time>
      </trkpt>
      <trkpt lat="38.270472" lon="-1.450591">
        <ele>212.1</ele>
        <time>2016-10-30T09:23:41Z</time>
      </trkpt>
      <trkpt lat="38.270497" lon="-1.450614">
        <ele>212.6</ele>
        <time>2016-10-30T09:23:44Z</time>
      </trkpt>
      <trkpt lat="38.270550" lon="-1.450632">
        <ele>213.1</ele>
        <time>2016-10-30T09:23:49Z</time>
      </trkpt>
      <trkpt lat="38.270711" lon="-1.450713">
        <ele>214.5</ele>
        <time>2016-10-30T09:24:05Z</time>
      </trkpt>
      <trkpt lat="38.270774" lon="-1.450752">
        <ele>214.0</ele>
        <time>2016-10-30T09:24:11Z</time>
      </trkpt>
      <trkpt lat="38.270824" lon="-1.450756">
        <ele>214.5</ele>
        <time>2016-10-30T09:24:15Z</time>
      </trkpt>
      <trkpt lat="38.270926" lon="-1.450828">
        <ele>215.0</ele>
        <time>2016-10-30T09:24:25Z</time>
      </trkpt>
      <trkpt lat="38.270956" lon="-1.450845">
        <ele>215.0</ele>
        <time>2016-10-30T09:24:28Z</time>
      </trkpt>
      <trkpt lat="38.270996" lon="-1.450863">
        <ele>215.5</ele>
        <time>2016-10-30T09:24:32Z</time>
      </trkpt>
      <trkpt lat="38.271173" lon="-1.450961">
        <ele>215.9</ele>
        <time>2016-10-30T09:24:48Z</time>
      </trkpt>
      <trkpt lat="38.271248" lon="-1.451118">
        <ele>218.8</ele>
        <time>2016-10-30T09:25:48Z</time>
      </trkpt>
      <trkpt lat="38.271162" lon="-1.451162">
        <ele>219.3</ele>
        <time>2016-10-30T09:25:56Z</time>
      </trkpt>
      <trkpt lat="38.271109" lon="-1.451292">
        <ele>220.3</ele>
        <time>2016-10-30T09:26:05Z</time>
      </trkpt>
      <trkpt lat="38.271105" lon="-1.451386">
        <ele>220.8</ele>
        <time>2016-10-30T09:26:13Z</time>
      </trkpt>
      <trkpt lat="38.271105" lon="-1.451457">
        <ele>227.0</ele>
        <time>2016-10-30T09:26:18Z</time>
      </trkpt>
      <trkpt lat="38.271133" lon="-1.451583">
        <ele>222.7</ele>
        <time>2016-10-30T09:26:27Z</time>
      </trkpt>
      <trkpt lat="38.271138" lon="-1.451624">
        <ele>223.2</ele>
        <time>2016-10-30T09:26:30Z</time>
      </trkpt>
      <trkpt lat="38.271145" lon="-1.451670">
        <ele>223.6</ele>
        <time>2016-10-30T09:26:33Z</time>
      </trkpt>
      <trkpt lat="38.271150" lon="-1.451744">
        <ele>224.1</ele>
        <time>2016-10-30T09:26:38Z</time>
      </trkpt>
      <trkpt lat="38.271171" lon="-1.451839">
        <ele>224.6</ele>
        <time>2016-10-30T09:26:44Z</time>
      </trkpt>
      <trkpt lat="38.271180" lon="-1.451942">
        <ele>225.6</ele>
        <time>2016-10-30T09:26:51Z</time>
      </trkpt>
      <trkpt lat="38.271202" lon="-1.452160">
        <ele>227.5</ele>
        <time>2016-10-30T09:27:05Z</time>
      </trkpt>
      <trkpt lat="38.271227" lon="-1.452410">
        <ele>229.4</ele>
        <time>2016-10-30T09:27:22Z</time>
      </trkpt>
      <trkpt lat="38.271241" lon="-1.452473">
        <ele>229.4</ele>
        <time>2016-10-30T09:27:26Z</time>
      </trkpt>
      <trkpt lat="38.271245" lon="-1.452596">
        <ele>230.4</ele>
        <time>2016-10-30T09:27:35Z</time>
      </trkpt>
      <trkpt lat="38.271271" lon="-1.452810">
        <ele>231.3</ele>
        <time>2016-10-30T09:27:49Z</time>
      </trkpt>
      <trkpt lat="38.271303" lon="-1.453037">
        <ele>232.8</ele>
        <time>2016-10-30T09:28:05Z</time>
      </trkpt>
      <trkpt lat="38.271334" lon="-1.453145">
        <ele>236.6</ele>
        <time>2016-10-30T09:28:13Z</time>
      </trkpt>
      <trkpt lat="38.271361" lon="-1.453212">
        <ele>234.7</ele>
        <time>2016-10-30T09:28:18Z</time>
      </trkpt>
      <trkpt lat="38.271388" lon="-1.453285">
        <ele>235.2</ele>
        <time>2016-10-30T09:28:25Z</time>
      </trkpt>
      <trkpt lat="38.271419" lon="-1.453336">
        <ele>235.2</ele>
        <time>2016-10-30T09:28:29Z</time>
      </trkpt>
      <trkpt lat="38.271432" lon="-1.453395">
        <ele>235.2</ele>
        <time>2016-10-30T09:28:33Z</time>
      </trkpt>
      <trkpt lat="38.271590" lon="-1.453608">
        <ele>236.1</ele>
        <time>2016-10-30T09:28:52Z</time>
      </trkpt>
      <trkpt lat="38.271757" lon="-1.453849">
        <ele>236.6</ele>
        <time>2016-10-30T09:29:12Z</time>
      </trkpt>
      <trkpt lat="38.271903" lon="-1.454050">
        <ele>236.6</ele>
        <time>2016-10-30T09:29:30Z</time>
      </trkpt>
      <trkpt lat="38.272122" lon="-1.454244">
        <ele>237.1</ele>
        <time>2016-10-30T09:29:50Z</time>
      </trkpt>
      <trkpt lat="38.272191" lon="-1.454263">
        <ele>236.6</ele>
        <time>2016-10-30T09:29:56Z</time>
      </trkpt>
      <trkpt lat="38.272223" lon="-1.454285">
        <ele>237.1</ele>
        <time>2016-10-30T09:29:59Z</time>
      </trkpt>
      <trkpt lat="38.272422" lon="-1.454346">
        <ele>237.6</ele>
        <time>2016-10-30T09:30:16Z</time>
      </trkpt>
      <trkpt lat="38.272604" lon="-1.454470">
        <ele>237.1</ele>
        <time>2016-10-30T09:30:34Z</time>
      </trkpt>
      <trkpt lat="38.272703" lon="-1.454649">
        <ele>237.1</ele>
        <time>2016-10-30T09:30:49Z</time>
      </trkpt>
      <trkpt lat="38.272743" lon="-1.454740">
        <ele>237.1</ele>
        <time>2016-10-30T09:30:56Z</time>
      </trkpt>
      <trkpt lat="38.272788" lon="-1.454899">
        <ele>237.6</ele>
        <time>2016-10-30T09:31:07Z</time>
      </trkpt>
      <trkpt lat="38.272878" lon="-1.455157">
        <ele>238.1</ele>
        <time>2016-10-30T09:31:25Z</time>
      </trkpt>
      <trkpt lat="38.272955" lon="-1.455414">
        <ele>237.6</ele>
        <time>2016-10-30T09:31:43Z</time>
      </trkpt>
      <trkpt lat="38.273067" lon="-1.455708">
        <ele>238.1</ele>
        <time>2016-10-30T09:32:02Z</time>
      </trkpt>
      <trkpt lat="38.273159" lon="-1.455958">
        <ele>238.1</ele>
        <time>2016-10-30T09:32:20Z</time>
      </trkpt>
      <trkpt lat="38.273223" lon="-1.456098">
        <ele>238.5</ele>
        <time>2016-10-30T09:32:33Z</time>
      </trkpt>
      <trkpt lat="38.273272" lon="-1.456254">
        <ele>238.1</ele>
        <time>2016-10-30T09:32:47Z</time>
      </trkpt>
      <trkpt lat="38.273352" lon="-1.456493">
        <ele>238.1</ele>
        <time>2016-10-30T09:33:04Z</time>
      </trkpt>
      <trkpt lat="38.273359" lon="-1.456517">
        <ele>237.6</ele>
        <time>2016-10-30T09:33:06Z</time>
      </trkpt>
      <trkpt lat="38.273387" lon="-1.456570">
        <ele>237.6</ele>
        <time>2016-10-30T09:33:10Z</time>
      </trkpt>
      <trkpt lat="38.273418" lon="-1.456644">
        <ele>238.1</ele>
        <time>2016-10-30T09:33:15Z</time>
      </trkpt>
      <trkpt lat="38.273501" lon="-1.456902">
        <ele>238.1</ele>
        <time>2016-10-30T09:33:32Z</time>
      </trkpt>
      <trkpt lat="38.273615" lon="-1.457217">
        <ele>238.5</ele>
        <time>2016-10-30T09:33:53Z</time>
      </trkpt>
      <trkpt lat="38.273636" lon="-1.457261">
        <ele>235.2</ele>
        <time>2016-10-30T09:33:56Z</time>
      </trkpt>
      <trkpt lat="38.273647" lon="-1.457290">
        <ele>240.5</ele>
        <time>2016-10-30T09:33:58Z</time>
      </trkpt>
      <trkpt lat="38.273651" lon="-1.457302">
        <ele>239.0</ele>
        <time>2016-10-30T09:33:59Z</time>
      </trkpt>
      <trkpt lat="38.273679" lon="-1.457391">
        <ele>235.7</ele>
        <time>2016-10-30T09:34:05Z</time>
      </trkpt>
      <trkpt lat="38.273693" lon="-1.457419">
        <ele>241.9</ele>
        <time>2016-10-30T09:34:07Z</time>
      </trkpt>
      <trkpt lat="38.273699" lon="-1.457432">
        <ele>241.4</ele>
        <time>2016-10-30T09:34:08Z</time>
      </trkpt>
      <trkpt lat="38.273713" lon="-1.457470">
        <ele>239.0</ele>
        <time>2016-10-30T09:34:11Z</time>
      </trkpt>
      <trkpt lat="38.273801" lon="-1.457651">
        <ele>239.5</ele>
        <time>2016-10-30T09:34:25Z</time>
      </trkpt>
      <trkpt lat="38.273842" lon="-1.457887">
        <ele>240.0</ele>
        <time>2016-10-30T09:34:40Z</time>
      </trkpt>
      <trkpt lat="38.273878" lon="-1.457956">
        <ele>240.9</ele>
        <time>2016-10-30T09:34:46Z</time>
      </trkpt>
      <trkpt lat="38.274038" lon="-1.457880">
        <ele>241.4</ele>
        <time>2016-10-30T09:35:00Z</time>
      </trkpt>
      <trkpt lat="38.274043" lon="-1.457882">
        <ele>238.1</ele>
        <time>2016-10-30T09:35:01Z</time>
      </trkpt>
      <trkpt lat="38.274049" lon="-1.457877">
        <ele>241.4</ele>
        <time>2016-10-30T09:35:03Z</time>
      </trkpt>
      <trkpt lat="38.274158" lon="-1.457801">
        <ele>240.9</ele>
        <time>2016-10-30T09:35:13Z</time>
      </trkpt>
      <trkpt lat="38.274319" lon="-1.457715">
        <ele>240.9</ele>
        <time>2016-10-30T09:35:26Z</time>
      </trkpt>
      <trkpt lat="38.274432" lon="-1.457791">
        <ele>240.9</ele>
        <time>2016-10-30T09:35:39Z</time>
      </trkpt>
      <trkpt lat="38.274468" lon="-1.457951">
        <ele>241.9</ele>
        <time>2016-10-30T09:35:50Z</time>
      </trkpt>
      <trkpt lat="38.274491" lon="-1.458214">
        <ele>241.9</ele>
        <time>2016-10-30T09:36:07Z</time>
      </trkpt>
      <trkpt lat="38.274521" lon="-1.458400">
        <ele>241.9</ele>
        <time>2016-10-30T09:36:19Z</time>
      </trkpt>
      <trkpt lat="38.274542" lon="-1.458572">
        <ele>241.9</ele>
        <time>2016-10-30T09:36:31Z</time>
      </trkpt>
      <trkpt lat="38.274626" lon="-1.458792">
        <ele>242.4</ele>
        <time>2016-10-30T09:36:47Z</time>
      </trkpt>
      <trkpt lat="38.274636" lon="-1.458807">
        <ele>242.9</ele>
        <time>2016-10-30T09:36:48Z</time>
      </trkpt>
      <trkpt lat="38.274705" lon="-1.458963">
        <ele>243.8</ele>
        <time>2016-10-30T09:37:00Z</time>
      </trkpt>
      <trkpt lat="38.274726" lon="-1.458997">
        <ele>240.9</ele>
        <time>2016-10-30T09:37:03Z</time>
      </trkpt>
      <trkpt lat="38.274732" lon="-1.459011">
        <ele>244.3</ele>
        <time>2016-10-30T09:37:04Z</time>
      </trkpt>
      <trkpt lat="38.274736" lon="-1.459023">
        <ele>243.8</ele>
        <time>2016-10-30T09:37:05Z</time>
      </trkpt>
      <trkpt lat="38.274750" lon="-1.459050">
        <ele>247.2</ele>
        <time>2016-10-30T09:37:07Z</time>
      </trkpt>
      <trkpt lat="38.274756" lon="-1.459063">
        <ele>243.8</ele>
        <time>2016-10-30T09:37:08Z</time>
      </trkpt>
      <trkpt lat="38.274797" lon="-1.459154">
        <ele>244.3</ele>
        <time>2016-10-30T09:37:15Z</time>
      </trkpt>
      <trkpt lat="38.274856" lon="-1.459295">
        <ele>244.8</ele>
        <time>2016-10-30T09:37:26Z</time>
      </trkpt>
      <trkpt lat="38.274887" lon="-1.459343">
        <ele>244.3</ele>
        <time>2016-10-30T09:37:30Z</time>
      </trkpt>
      <trkpt lat="38.274908" lon="-1.459422">
        <ele>244.8</ele>
        <time>2016-10-30T09:37:35Z</time>
      </trkpt>
      <trkpt lat="38.274979" lon="-1.459592">
        <ele>245.3</ele>
        <time>2016-10-30T09:37:50Z</time>
      </trkpt>
      <trkpt lat="38.275092" lon="-1.459723">
        <ele>246.2</ele>
        <time>2016-10-30T09:38:05Z</time>
      </trkpt>
      <trkpt lat="38.275213" lon="-1.459999">
        <ele>244.8</ele>
        <time>2016-10-30T09:38:25Z</time>
      </trkpt>
      <trkpt lat="38.275290" lon="-1.460146">
        <ele>243.8</ele>
        <time>2016-10-30T09:38:40Z</time>
      </trkpt>
      <trkpt lat="38.275389" lon="-1.460394">
        <ele>243.4</ele>
        <time>2016-10-30T09:38:56Z</time>
      </trkpt>
      <trkpt lat="38.275478" lon="-1.460628">
        <ele>242.9</ele>
        <time>2016-10-30T09:39:12Z</time>
      </trkpt>
      <trkpt lat="38.275579" lon="-1.460867">
        <ele>242.9</ele>
        <time>2016-10-30T09:39:29Z</time>
      </trkpt>
      <trkpt lat="38.275584" lon="-1.460881">
        <ele>242.4</ele>
        <time>2016-10-30T09:39:30Z</time>
      </trkpt>
      <trkpt lat="38.275651" lon="-1.460934">
        <ele>242.4</ele>
        <time>2016-10-30T09:39:38Z</time>
      </trkpt>
      <trkpt lat="38.275821" lon="-1.460833">
        <ele>241.9</ele>
        <time>2016-10-30T09:39:55Z</time>
      </trkpt>
      <trkpt lat="38.275826" lon="-1.460829">
        <ele>241.9</ele>
        <time>2016-10-30T09:39:56Z</time>
      </trkpt>
      <trkpt lat="38.275853" lon="-1.460794">
        <ele>241.9</ele>
        <time>2016-10-30T09:40:04Z</time>
      </trkpt>
      <trkpt lat="38.275998" lon="-1.460736">
        <ele>241.4</ele>
        <time>2016-10-30T09:40:16Z</time>
      </trkpt>
      <trkpt lat="38.276019" lon="-1.460721">
        <ele>241.4</ele>
        <time>2016-10-30T09:40:18Z</time>
      </trkpt>
      <trkpt lat="38.276083" lon="-1.460694">
        <ele>240.9</ele>
        <time>2016-10-30T09:40:23Z</time>
      </trkpt>
      <trkpt lat="38.276282" lon="-1.460572">
        <ele>241.4</ele>
        <time>2016-10-30T09:40:39Z</time>
      </trkpt>
      <trkpt lat="38.276428" lon="-1.460441">
        <ele>241.9</ele>
        <time>2016-10-30T09:40:53Z</time>
      </trkpt>
      <trkpt lat="38.276513" lon="-1.460388">
        <ele>240.9</ele>
        <time>2016-10-30T09:41:08Z</time>
      </trkpt>
      <trkpt lat="38.276665" lon="-1.460282">
        <ele>241.4</ele>
        <time>2016-10-30T09:41:27Z</time>
      </trkpt>
      <trkpt lat="38.276824" lon="-1.460260">
        <ele>241.9</ele>
        <time>2016-10-30T09:41:44Z</time>
      </trkpt>
      <trkpt lat="38.276836" lon="-1.460266">
        <ele>241.4</ele>
        <time>2016-10-30T09:41:53Z</time>
      </trkpt>
      <trkpt lat="38.276942" lon="-1.460313">
        <ele>241.4</ele>
        <time>2016-10-30T09:42:09Z</time>
      </trkpt>
      <trkpt lat="38.276964" lon="-1.460320">
        <ele>241.4</ele>
        <time>2016-10-30T09:42:25Z</time>
      </trkpt>
      <trkpt lat="38.276965" lon="-1.460327">
        <ele>241.4</ele>
        <time>2016-10-30T09:42:26Z</time>
      </trkpt>
      <trkpt lat="38.276989" lon="-1.460366">
        <ele>241.4</ele>
        <time>2016-10-30T09:42:30Z</time>
      </trkpt>
      <trkpt lat="38.277161" lon="-1.460452">
        <ele>241.4</ele>
        <time>2016-10-30T09:42:46Z</time>
      </trkpt>
      <trkpt lat="38.277166" lon="-1.460448">
        <ele>241.4</ele>
        <time>2016-10-30T09:42:48Z</time>
      </trkpt>
      <trkpt lat="38.277264" lon="-1.460408">
        <ele>241.4</ele>
        <time>2016-10-30T09:43:01Z</time>
      </trkpt>
      <trkpt lat="38.277356" lon="-1.460355">
        <ele>241.4</ele>
        <time>2016-10-30T09:43:13Z</time>
      </trkpt>
      <trkpt lat="38.277409" lon="-1.460335">
        <ele>241.9</ele>
        <time>2016-10-30T09:43:17Z</time>
      </trkpt>
      <trkpt lat="38.277449" lon="-1.460305">
        <ele>241.9</ele>
        <time>2016-10-30T09:43:21Z</time>
      </trkpt>
      <trkpt lat="38.277687" lon="-1.460222">
        <ele>242.4</ele>
        <time>2016-10-30T09:43:39Z</time>
      </trkpt>
      <trkpt lat="38.277849" lon="-1.460124">
        <ele>243.4</ele>
        <time>2016-10-30T09:43:55Z</time>
      </trkpt>
      <trkpt lat="38.278003" lon="-1.460056">
        <ele>243.8</ele>
        <time>2016-10-30T09:44:09Z</time>
      </trkpt>
      <trkpt lat="38.278095" lon="-1.460005">
        <ele>243.8</ele>
        <time>2016-10-30T09:44:17Z</time>
      </trkpt>
      <trkpt lat="38.278158" lon="-1.459982">
        <ele>244.3</ele>
        <time>2016-10-30T09:44:22Z</time>
      </trkpt>
      <trkpt lat="38.278372" lon="-1.459880">
        <ele>245.3</ele>
        <time>2016-10-30T09:44:39Z</time>
      </trkpt>
      <trkpt lat="38.278522" lon="-1.459799">
        <ele>245.3</ele>
        <time>2016-10-30T09:44:53Z</time>
      </trkpt>
      <trkpt lat="38.278700" lon="-1.459704">
        <ele>245.8</ele>
        <time>2016-10-30T09:45:09Z</time>
      </trkpt>
      <trkpt lat="38.278864" lon="-1.459609">
        <ele>246.7</ele>
        <time>2016-10-30T09:45:24Z</time>
      </trkpt>
      <trkpt lat="38.278929" lon="-1.459575">
        <ele>246.7</ele>
        <time>2016-10-30T09:45:37Z</time>
      </trkpt>
      <trkpt lat="38.278933" lon="-1.459573">
        <ele>247.2</ele>
        <time>2016-10-30T09:45:39Z</time>
      </trkpt>
      <trkpt lat="38.278981" lon="-1.459543">
        <ele>247.2</ele>
        <time>2016-10-30T09:45:44Z</time>
      </trkpt>
      <trkpt lat="38.279201" lon="-1.459430">
        <ele>247.7</ele>
        <time>2016-10-30T09:46:00Z</time>
      </trkpt>
      <trkpt lat="38.279328" lon="-1.459369">
        <ele>247.7</ele>
        <time>2016-10-30T09:46:12Z</time>
      </trkpt>
      <trkpt lat="38.279372" lon="-1.459360">
        <ele>248.2</ele>
        <time>2016-10-30T09:46:16Z</time>
      </trkpt>
      <trkpt lat="38.279439" lon="-1.459326">
        <ele>247.7</ele>
        <time>2016-10-30T09:46:23Z</time>
      </trkpt>
      <trkpt lat="38.279542" lon="-1.459246">
        <ele>248.6</ele>
        <time>2016-10-30T09:46:35Z</time>
      </trkpt>
      <trkpt lat="38.279572" lon="-1.459232">
        <ele>249.1</ele>
        <time>2016-10-30T09:46:42Z</time>
      </trkpt>
      <trkpt lat="38.279756" lon="-1.459113">
        <ele>249.6</ele>
        <time>2016-10-30T09:46:56Z</time>
      </trkpt>
      <trkpt lat="38.279965" lon="-1.459076">
        <ele>250.1</ele>
        <time>2016-10-30T09:47:12Z</time>
      </trkpt>
      <trkpt lat="38.280157" lon="-1.459144">
        <ele>250.6</ele>
        <time>2016-10-30T09:47:27Z</time>
      </trkpt>
      <trkpt lat="38.280291" lon="-1.459209">
        <ele>253.9</ele>
        <time>2016-10-30T09:47:41Z</time>
      </trkpt>
      <trkpt lat="38.280396" lon="-1.459271">
        <ele>252.0</ele>
        <time>2016-10-30T09:47:55Z</time>
      </trkpt>
      <trkpt lat="38.280472" lon="-1.459283">
        <ele>252.0</ele>
        <time>2016-10-30T09:48:02Z</time>
      </trkpt>
      <trkpt lat="38.280488" lon="-1.459292">
        <ele>252.5</ele>
        <time>2016-10-30T09:48:04Z</time>
      </trkpt>
      <trkpt lat="38.280539" lon="-1.459320">
        <ele>252.5</ele>
        <time>2016-10-30T09:48:09Z</time>
      </trkpt>
      <trkpt lat="38.280608" lon="-1.459366">
        <ele>252.5</ele>
        <time>2016-10-30T09:48:16Z</time>
      </trkpt>
      <trkpt lat="38.280808" lon="-1.459462">
        <ele>252.5</ele>
        <time>2016-10-30T09:48:33Z</time>
      </trkpt>
      <trkpt lat="38.280983" lon="-1.459561">
        <ele>253.4</ele>
        <time>2016-10-30T09:48:47Z</time>
      </trkpt>
      <trkpt lat="38.281055" lon="-1.459586">
        <ele>253.4</ele>
        <time>2016-10-30T09:48:59Z</time>
      </trkpt>
      <trkpt lat="38.281127" lon="-1.459647">
        <ele>253.4</ele>
        <time>2016-10-30T09:49:13Z</time>
      </trkpt>
      <trkpt lat="38.281316" lon="-1.459764">
        <ele>253.9</ele>
        <time>2016-10-30T09:49:29Z</time>
      </trkpt>
      <trkpt lat="38.281396" lon="-1.459818">
        <ele>253.4</ele>
        <time>2016-10-30T09:49:42Z</time>
      </trkpt>
      <trkpt lat="38.281424" lon="-1.459828">
        <ele>253.9</ele>
        <time>2016-10-30T09:50:01Z</time>
      </trkpt>
      <trkpt lat="38.281450" lon="-1.459848">
        <ele>254.4</ele>
        <time>2016-10-30T09:50:05Z</time>
      </trkpt>
      <trkpt lat="38.281620" lon="-1.459903">
        <ele>254.9</ele>
        <time>2016-10-30T09:50:20Z</time>
      </trkpt>
      <trkpt lat="38.281621" lon="-1.459911">
        <ele>254.9</ele>
        <time>2016-10-30T09:50:21Z</time>
      </trkpt>
      <trkpt lat="38.281637" lon="-1.459930">
        <ele>254.4</ele>
        <time>2016-10-30T09:50:30Z</time>
      </trkpt>
      <trkpt lat="38.281774" lon="-1.459901">
        <ele>255.4</ele>
        <time>2016-10-30T09:50:40Z</time>
      </trkpt>
      <trkpt lat="38.282016" lon="-1.459799">
        <ele>255.4</ele>
        <time>2016-10-30T09:50:57Z</time>
      </trkpt>
      <trkpt lat="38.282164" lon="-1.459653">
        <ele>255.4</ele>
        <time>2016-10-30T09:51:09Z</time>
      </trkpt>
      <trkpt lat="38.282276" lon="-1.459544">
        <ele>255.9</ele>
        <time>2016-10-30T09:51:23Z</time>
      </trkpt>
      <trkpt lat="38.282280" lon="-1.459547">
        <ele>255.4</ele>
        <time>2016-10-30T09:51:25Z</time>
      </trkpt>
      <trkpt lat="38.282406" lon="-1.459375">
        <ele>256.8</ele>
        <time>2016-10-30T09:51:38Z</time>
      </trkpt>
      <trkpt lat="38.282555" lon="-1.459197">
        <ele>257.8</ele>
        <time>2016-10-30T09:51:51Z</time>
      </trkpt>
      <trkpt lat="38.282656" lon="-1.459072">
        <ele>258.2</ele>
        <time>2016-10-30T09:52:00Z</time>
      </trkpt>
      <trkpt lat="38.282789" lon="-1.458898">
        <ele>260.2</ele>
        <time>2016-10-30T09:52:13Z</time>
      </trkpt>
      <trkpt lat="38.282996" lon="-1.458686">
        <ele>262.6</ele>
        <time>2016-10-30T09:52:31Z</time>
      </trkpt>
      <trkpt lat="38.283205" lon="-1.458518">
        <ele>264.0</ele>
        <time>2016-10-30T09:52:50Z</time>
      </trkpt>
      <trkpt lat="38.283410" lon="-1.458442">
        <ele>265.9</ele>
        <time>2016-10-30T09:53:06Z</time>
      </trkpt>
      <trkpt lat="38.283549" lon="-1.458425">
        <ele>267.4</ele>
        <time>2016-10-30T09:53:19Z</time>
      </trkpt>
      <trkpt lat="38.283548" lon="-1.458416">
        <ele>266.9</ele>
        <time>2016-10-30T09:53:31Z</time>
      </trkpt>
      <trkpt lat="38.283551" lon="-1.458405">
        <ele>266.9</ele>
        <time>2016-10-30T09:53:44Z</time>
      </trkpt>
      <trkpt lat="38.283621" lon="-1.458343">
        <ele>266.4</ele>
        <time>2016-10-30T09:53:49Z</time>
      </trkpt>
      <trkpt lat="38.283734" lon="-1.458062">
        <ele>268.4</ele>
        <time>2016-10-30T09:54:06Z</time>
      </trkpt>
      <trkpt lat="38.283836" lon="-1.457703">
        <ele>270.3</ele>
        <time>2016-10-30T09:54:24Z</time>
      </trkpt>
      <trkpt lat="38.283952" lon="-1.457227">
        <ele>271.7</ele>
        <time>2016-10-30T09:55:17Z</time>
      </trkpt>
      <trkpt lat="38.284072" lon="-1.456851">
        <ele>271.7</ele>
        <time>2016-10-30T09:55:49Z</time>
      </trkpt>
      <trkpt lat="38.284186" lon="-1.456283">
        <ele>270.3</ele>
        <time>2016-10-30T09:56:49Z</time>
      </trkpt>
      <trkpt lat="38.284365" lon="-1.456133">
        <ele>268.4</ele>
        <time>2016-10-30T09:57:03Z</time>
      </trkpt>
      <trkpt lat="38.284418" lon="-1.456080">
        <ele>272.2</ele>
        <time>2016-10-30T09:57:07Z</time>
      </trkpt>
      <trkpt lat="38.284430" lon="-1.456069">
        <ele>269.8</ele>
        <time>2016-10-30T09:57:08Z</time>
      </trkpt>
      <trkpt lat="38.284456" lon="-1.456051">
        <ele>269.3</ele>
        <time>2016-10-30T09:57:10Z</time>
      </trkpt>
      <trkpt lat="38.284758" lon="-1.455847">
        <ele>269.3</ele>
        <time>2016-10-30T09:57:32Z</time>
      </trkpt>
      <trkpt lat="38.284954" lon="-1.455608">
        <ele>268.8</ele>
        <time>2016-10-30T09:57:51Z</time>
      </trkpt>
      <trkpt lat="38.285132" lon="-1.455353">
        <ele>269.8</ele>
        <time>2016-10-30T09:58:09Z</time>
      </trkpt>
      <trkpt lat="38.285394" lon="-1.455035">
        <ele>271.2</ele>
        <time>2016-10-30T09:58:30Z</time>
      </trkpt>
      <trkpt lat="38.285618" lon="-1.454854">
        <ele>271.7</ele>
        <time>2016-10-30T09:58:47Z</time>
      </trkpt>
      <trkpt lat="38.285874" lon="-1.454891">
        <ele>274.1</ele>
        <time>2016-10-30T09:59:04Z</time>
      </trkpt>
      <trkpt lat="38.285910" lon="-1.454901">
        <ele>273.1</ele>
        <time>2016-10-30T09:59:13Z</time>
      </trkpt>
      <trkpt lat="38.286115" lon="-1.454989">
        <ele>276.5</ele>
        <time>2016-10-30T09:59:27Z</time>
      </trkpt>
      <trkpt lat="38.286148" lon="-1.455005">
        <ele>273.6</ele>
        <time>2016-10-30T09:59:29Z</time>
      </trkpt>
      <trkpt lat="38.286456" lon="-1.455158">
        <ele>275.1</ele>
        <time>2016-10-30T09:59:51Z</time>
      </trkpt>
      <trkpt lat="38.286698" lon="-1.455300">
        <ele>276.0</ele>
        <time>2016-10-30T10:00:09Z</time>
      </trkpt>
      <trkpt lat="38.286963" lon="-1.455486">
        <ele>276.5</ele>
        <time>2016-10-30T10:00:31Z</time>
      </trkpt>
      <trkpt lat="38.287215" lon="-1.455631">
        <ele>276.5</ele>
        <time>2016-10-30T10:00:50Z</time>
      </trkpt>
      <trkpt lat="38.287471" lon="-1.455820">
        <ele>276.5</ele>
        <time>2016-10-30T10:01:10Z</time>
      </trkpt>
      <trkpt lat="38.287781" lon="-1.456060">
        <ele>276.5</ele>
        <time>2016-10-30T10:01:34Z</time>
      </trkpt>
      <trkpt lat="38.288045" lon="-1.456286">
        <ele>276.0</ele>
        <time>2016-10-30T10:01:54Z</time>
      </trkpt>
      <trkpt lat="38.288058" lon="-1.456299">
        <ele>276.0</ele>
        <time>2016-10-30T10:01:55Z</time>
      </trkpt>
      <trkpt lat="38.288268" lon="-1.456414">
        <ele>274.6</ele>
        <time>2016-10-30T10:02:10Z</time>
      </trkpt>
      <trkpt lat="38.288283" lon="-1.456421">
        <ele>274.1</ele>
        <time>2016-10-30T10:02:11Z</time>
      </trkpt>
      <trkpt lat="38.288296" lon="-1.456427">
        <ele>277.5</ele>
        <time>2016-10-30T10:02:12Z</time>
      </trkpt>
      <trkpt lat="38.288635" lon="-1.456476">
        <ele>277.0</ele>
        <time>2016-10-30T10:02:34Z</time>
      </trkpt>
      <trkpt lat="38.288662" lon="-1.456473">
        <ele>277.0</ele>
        <time>2016-10-30T10:02:36Z</time>
      </trkpt>
      <trkpt lat="38.288890" lon="-1.456434">
        <ele>277.5</ele>
        <time>2016-10-30T10:02:54Z</time>
      </trkpt>
      <trkpt lat="38.289090" lon="-1.456332">
        <ele>278.0</ele>
        <time>2016-10-30T10:03:11Z</time>
      </trkpt>
      <trkpt lat="38.289182" lon="-1.456284">
        <ele>276.0</ele>
        <time>2016-10-30T10:03:18Z</time>
      </trkpt>
      <trkpt lat="38.289206" lon="-1.456276">
        <ele>280.4</ele>
        <time>2016-10-30T10:03:20Z</time>
      </trkpt>
      <trkpt lat="38.289218" lon="-1.456271">
        <ele>276.0</ele>
        <time>2016-10-30T10:03:21Z</time>
      </trkpt>
      <trkpt lat="38.289231" lon="-1.456262">
        <ele>279.4</ele>
        <time>2016-10-30T10:03:22Z</time>
      </trkpt>
      <trkpt lat="38.289446" lon="-1.456164">
        <ele>278.9</ele>
        <time>2016-10-30T10:03:40Z</time>
      </trkpt>
      <trkpt lat="38.289671" lon="-1.456131">
        <ele>279.9</ele>
        <time>2016-10-30T10:03:58Z</time>
      </trkpt>
      <trkpt lat="38.289856" lon="-1.456114">
        <ele>280.4</ele>
        <time>2016-10-30T10:04:12Z</time>
      </trkpt>
      <trkpt lat="38.289908" lon="-1.456101">
        <ele>281.3</ele>
        <time>2016-10-30T10:04:16Z</time>
      </trkpt>
      <trkpt lat="38.289928" lon="-1.456110">
        <ele>280.8</ele>
        <time>2016-10-30T10:04:18Z</time>
      </trkpt>
      <trkpt lat="38.290125" lon="-1.456073">
        <ele>282.3</ele>
        <time>2016-10-30T10:04:36Z</time>
      </trkpt>
      <trkpt lat="38.290190" lon="-1.456069">
        <ele>282.8</ele>
        <time>2016-10-30T10:04:44Z</time>
      </trkpt>
      <trkpt lat="38.290292" lon="-1.456024">
        <ele>283.7</ele>
        <time>2016-10-30T10:04:52Z</time>
      </trkpt>
      <trkpt lat="38.290329" lon="-1.456004">
        <ele>283.7</ele>
        <time>2016-10-30T10:04:55Z</time>
      </trkpt>
      <trkpt lat="38.290395" lon="-1.455989">
        <ele>285.2</ele>
        <time>2016-10-30T10:05:01Z</time>
      </trkpt>
      <trkpt lat="38.290419" lon="-1.455980">
        <ele>285.2</ele>
        <time>2016-10-30T10:05:03Z</time>
      </trkpt>
      <trkpt lat="38.290604" lon="-1.455889">
        <ele>286.1</ele>
        <time>2016-10-30T10:05:19Z</time>
      </trkpt>
      <trkpt lat="38.290786" lon="-1.455827">
        <ele>287.1</ele>
        <time>2016-10-30T10:05:33Z</time>
      </trkpt>
      <trkpt lat="38.291004" lon="-1.455709">
        <ele>288.0</ele>
        <time>2016-10-30T10:05:50Z</time>
      </trkpt>
      <trkpt lat="38.291039" lon="-1.455704">
        <ele>288.0</ele>
        <time>2016-10-30T10:05:54Z</time>
      </trkpt>
      <trkpt lat="38.291068" lon="-1.455692">
        <ele>284.7</ele>
        <time>2016-10-30T10:05:57Z</time>
      </trkpt>
      <trkpt lat="38.291082" lon="-1.455683">
        <ele>289.5</ele>
        <time>2016-10-30T10:05:58Z</time>
      </trkpt>
      <trkpt lat="38.291317" lon="-1.455559">
        <ele>288.5</ele>
        <time>2016-10-30T10:06:16Z</time>
      </trkpt>
      <trkpt lat="38.291391" lon="-1.455532">
        <ele>288.5</ele>
        <time>2016-10-30T10:06:23Z</time>
      </trkpt>
      <trkpt lat="38.291596" lon="-1.455359">
        <ele>288.5</ele>
        <time>2016-10-30T10:06:42Z</time>
      </trkpt>
      <trkpt lat="38.291754" lon="-1.455214">
        <ele>288.0</ele>
        <time>2016-10-30T10:06:57Z</time>
      </trkpt>
      <trkpt lat="38.291923" lon="-1.455044">
        <ele>288.0</ele>
        <time>2016-10-30T10:07:14Z</time>
      </trkpt>
      <trkpt lat="38.292049" lon="-1.454821">
        <ele>287.1</ele>
        <time>2016-10-30T10:07:29Z</time>
      </trkpt>
      <trkpt lat="38.292133" lon="-1.454536">
        <ele>286.6</ele>
        <time>2016-10-30T10:07:47Z</time>
      </trkpt>
      <trkpt lat="38.292206" lon="-1.454224">
        <ele>286.1</ele>
        <time>2016-10-30T10:08:06Z</time>
      </trkpt>
      <trkpt lat="38.292271" lon="-1.453941">
        <ele>286.1</ele>
        <time>2016-10-30T10:08:23Z</time>
      </trkpt>
      <trkpt lat="38.292309" lon="-1.453686">
        <ele>286.6</ele>
        <time>2016-10-30T10:08:39Z</time>
      </trkpt>
      <trkpt lat="38.292375" lon="-1.453379">
        <ele>286.1</ele>
        <time>2016-10-30T10:08:58Z</time>
      </trkpt>
      <trkpt lat="38.292454" lon="-1.453043">
        <ele>286.1</ele>
        <time>2016-10-30T10:09:18Z</time>
      </trkpt>
      <trkpt lat="38.292531" lon="-1.452805">
        <ele>287.6</ele>
        <time>2016-10-30T10:09:33Z</time>
      </trkpt>
      <trkpt lat="38.292652" lon="-1.452549">
        <ele>287.1</ele>
        <time>2016-10-30T10:09:50Z</time>
      </trkpt>
      <trkpt lat="38.292745" lon="-1.452258">
        <ele>287.1</ele>
        <time>2016-10-30T10:10:07Z</time>
      </trkpt>
      <trkpt lat="38.292865" lon="-1.451971">
        <ele>286.6</ele>
        <time>2016-10-30T10:10:26Z</time>
      </trkpt>
      <trkpt lat="38.292997" lon="-1.451673">
        <ele>286.6</ele>
        <time>2016-10-30T10:10:45Z</time>
      </trkpt>
      <trkpt lat="38.293105" lon="-1.451396">
        <ele>286.6</ele>
        <time>2016-10-30T10:11:03Z</time>
      </trkpt>
      <trkpt lat="38.293215" lon="-1.451105">
        <ele>286.6</ele>
        <time>2016-10-30T10:11:20Z</time>
      </trkpt>
      <trkpt lat="38.293304" lon="-1.450886">
        <ele>286.6</ele>
        <time>2016-10-30T10:11:35Z</time>
      </trkpt>
      <trkpt lat="38.293422" lon="-1.450565">
        <ele>286.1</ele>
        <time>2016-10-30T10:11:56Z</time>
      </trkpt>
      <trkpt lat="38.293545" lon="-1.450236">
        <ele>286.6</ele>
        <time>2016-10-30T10:12:17Z</time>
      </trkpt>
      <trkpt lat="38.293678" lon="-1.449936">
        <ele>286.1</ele>
        <time>2016-10-30T10:12:36Z</time>
      </trkpt>
      <trkpt lat="38.293790" lon="-1.449645">
        <ele>287.1</ele>
        <time>2016-10-30T10:12:55Z</time>
      </trkpt>
      <trkpt lat="38.293894" lon="-1.449427">
        <ele>287.6</ele>
        <time>2016-10-30T10:13:11Z</time>
      </trkpt>
      <trkpt lat="38.293892" lon="-1.449392">
        <ele>288.0</ele>
        <time>2016-10-30T10:13:24Z</time>
      </trkpt>
      <trkpt lat="38.293902" lon="-1.449368">
        <ele>288.0</ele>
        <time>2016-10-30T10:13:37Z</time>
      </trkpt>
      <trkpt lat="38.293924" lon="-1.449291">
        <ele>288.0</ele>
        <time>2016-10-30T10:13:41Z</time>
      </trkpt>
      <trkpt lat="38.294063" lon="-1.449010">
        <ele>291.9</ele>
        <time>2016-10-30T10:14:00Z</time>
      </trkpt>
      <trkpt lat="38.294085" lon="-1.448965">
        <ele>288.5</ele>
        <time>2016-10-30T10:14:03Z</time>
      </trkpt>
      <trkpt lat="38.294185" lon="-1.448727">
        <ele>288.0</ele>
        <time>2016-10-30T10:14:19Z</time>
      </trkpt>
      <trkpt lat="38.294267" lon="-1.448527">
        <ele>291.4</ele>
        <time>2016-10-30T10:14:35Z</time>
      </trkpt>
      <trkpt lat="38.294349" lon="-1.448367">
        <ele>292.4</ele>
        <time>2016-10-30T10:14:47Z</time>
      </trkpt>
      <trkpt lat="38.294468" lon="-1.448200">
        <ele>292.9</ele>
        <time>2016-10-30T10:15:02Z</time>
      </trkpt>
      <trkpt lat="38.294652" lon="-1.448156">
        <ele>294.3</ele>
        <time>2016-10-30T10:15:18Z</time>
      </trkpt>
      <trkpt lat="38.294721" lon="-1.448142">
        <ele>294.8</ele>
        <time>2016-10-30T10:15:27Z</time>
      </trkpt>
      <trkpt lat="38.294873" lon="-1.448223">
        <ele>294.3</ele>
        <time>2016-10-30T10:15:57Z</time>
      </trkpt>
      <trkpt lat="38.295004" lon="-1.448406">
        <ele>295.7</ele>
        <time>2016-10-30T10:16:13Z</time>
      </trkpt>
      <trkpt lat="38.295027" lon="-1.448426">
        <ele>295.7</ele>
        <time>2016-10-30T10:16:15Z</time>
      </trkpt>
      <trkpt lat="38.295105" lon="-1.448521">
        <ele>296.7</ele>
        <time>2016-10-30T10:16:24Z</time>
      </trkpt>
      <trkpt lat="38.295262" lon="-1.448710">
        <ele>297.7</ele>
        <time>2016-10-30T10:16:41Z</time>
      </trkpt>
      <trkpt lat="38.295391" lon="-1.448863">
        <ele>298.6</ele>
        <time>2016-10-30T10:16:55Z</time>
      </trkpt>
      <trkpt lat="38.295497" lon="-1.449118">
        <ele>299.6</ele>
        <time>2016-10-30T10:17:13Z</time>
      </trkpt>
      <trkpt lat="38.295594" lon="-1.449336">
        <ele>297.7</ele>
        <time>2016-10-30T10:17:33Z</time>
      </trkpt>
      <trkpt lat="38.295675" lon="-1.449494">
        <ele>301.0</ele>
        <time>2016-10-30T10:17:56Z</time>
      </trkpt>
      <trkpt lat="38.295740" lon="-1.449588">
        <ele>305.4</ele>
        <time>2016-10-30T10:18:02Z</time>
      </trkpt>
      <trkpt lat="38.295758" lon="-1.449616">
        <ele>302.0</ele>
        <time>2016-10-30T10:18:04Z</time>
      </trkpt>
      <trkpt lat="38.295768" lon="-1.449632">
        <ele>302.0</ele>
        <time>2016-10-30T10:18:05Z</time>
      </trkpt>
      <trkpt lat="38.295992" lon="-1.449874">
        <ele>303.4</ele>
        <time>2016-10-30T10:18:25Z</time>
      </trkpt>
      <trkpt lat="38.296213" lon="-1.450008">
        <ele>303.9</ele>
        <time>2016-10-30T10:18:43Z</time>
      </trkpt>
      <trkpt lat="38.296289" lon="-1.450072">
        <ele>305.4</ele>
        <time>2016-10-30T10:18:50Z</time>
      </trkpt>
      <trkpt lat="38.296443" lon="-1.450201">
        <ele>305.4</ele>
        <time>2016-10-30T10:19:04Z</time>
      </trkpt>
      <trkpt lat="38.296538" lon="-1.450435">
        <ele>306.3</ele>
        <time>2016-10-30T10:19:20Z</time>
      </trkpt>
      <trkpt lat="38.296474" lon="-1.450645">
        <ele>307.8</ele>
        <time>2016-10-30T10:19:35Z</time>
      </trkpt>
      <trkpt lat="38.296414" lon="-1.450856">
        <ele>309.7</ele>
        <time>2016-10-30T10:19:50Z</time>
      </trkpt>
      <trkpt lat="38.296371" lon="-1.451052">
        <ele>311.1</ele>
        <time>2016-10-30T10:20:04Z</time>
      </trkpt>
      <trkpt lat="38.296355" lon="-1.451135">
        <ele>311.1</ele>
        <time>2016-10-30T10:20:09Z</time>
      </trkpt>
      <trkpt lat="38.296364" lon="-1.451196">
        <ele>312.1</ele>
        <time>2016-10-30T10:20:13Z</time>
      </trkpt>
      <trkpt lat="38.296391" lon="-1.451282">
        <ele>312.6</ele>
        <time>2016-10-30T10:20:19Z</time>
      </trkpt>
      <trkpt lat="38.296417" lon="-1.451318">
        <ele>312.6</ele>
        <time>2016-10-30T10:20:22Z</time>
      </trkpt>
      <trkpt lat="38.296615" lon="-1.451436">
        <ele>313.5</ele>
        <time>2016-10-30T10:20:38Z</time>
      </trkpt>
      <trkpt lat="38.296767" lon="-1.451516">
        <ele>313.5</ele>
        <time>2016-10-30T10:20:51Z</time>
      </trkpt>
      <trkpt lat="38.296990" lon="-1.451530">
        <ele>313.5</ele>
        <time>2016-10-30T10:21:09Z</time>
      </trkpt>
      <trkpt lat="38.297192" lon="-1.451465">
        <ele>314.0</ele>
        <time>2016-10-30T10:21:24Z</time>
      </trkpt>
      <trkpt lat="38.297437" lon="-1.451433">
        <ele>313.5</ele>
        <time>2016-10-30T10:21:44Z</time>
      </trkpt>
      <trkpt lat="38.297667" lon="-1.451517">
        <ele>314.0</ele>
        <time>2016-10-30T10:22:02Z</time>
      </trkpt>
      <trkpt lat="38.297873" lon="-1.451556">
        <ele>314.0</ele>
        <time>2016-10-30T10:22:19Z</time>
      </trkpt>
      <trkpt lat="38.298082" lon="-1.451404">
        <ele>314.0</ele>
        <time>2016-10-30T10:22:36Z</time>
      </trkpt>
      <trkpt lat="38.298272" lon="-1.451189">
        <ele>314.0</ele>
        <time>2016-10-30T10:22:55Z</time>
      </trkpt>
      <trkpt lat="38.298431" lon="-1.451011">
        <ele>314.0</ele>
        <time>2016-10-30T10:23:12Z</time>
      </trkpt>
      <trkpt lat="38.298620" lon="-1.450935">
        <ele>314.0</ele>
        <time>2016-10-30T10:23:28Z</time>
      </trkpt>
      <trkpt lat="38.298670" lon="-1.450939">
        <ele>313.5</ele>
        <time>2016-10-30T10:23:33Z</time>
      </trkpt>
      <trkpt lat="38.298937" lon="-1.451065">
        <ele>313.5</ele>
        <time>2016-10-30T10:24:33Z</time>
      </trkpt>
      <trkpt lat="38.298929" lon="-1.451077">
        <ele>314.0</ele>
        <time>2016-10-30T10:24:51Z</time>
      </trkpt>
      <trkpt lat="38.299023" lon="-1.451143">
        <ele>314.0</ele>
        <time>2016-10-30T10:25:00Z</time>
      </trkpt>
      <trkpt lat="38.299076" lon="-1.451158">
        <ele>314.5</ele>
        <time>2016-10-30T10:25:05Z</time>
      </trkpt>
      <trkpt lat="38.299189" lon="-1.451288">
        <ele>318.8</ele>
        <time>2016-10-30T10:25:17Z</time>
      </trkpt>
      <trkpt lat="38.299198" lon="-1.451296">
        <ele>315.9</ele>
        <time>2016-10-30T10:25:18Z</time>
      </trkpt>
      <trkpt lat="38.299215" lon="-1.451320">
        <ele>315.9</ele>
        <time>2016-10-30T10:25:20Z</time>
      </trkpt>
      <trkpt lat="38.299232" lon="-1.451346">
        <ele>316.4</ele>
        <time>2016-10-30T10:25:22Z</time>
      </trkpt>
      <trkpt lat="38.299261" lon="-1.451363">
        <ele>316.4</ele>
        <time>2016-10-30T10:25:25Z</time>
      </trkpt>
      <trkpt lat="38.299279" lon="-1.451386">
        <ele>316.4</ele>
        <time>2016-10-30T10:25:27Z</time>
      </trkpt>
      <trkpt lat="38.299322" lon="-1.451425">
        <ele>316.9</ele>
        <time>2016-10-30T10:25:32Z</time>
      </trkpt>
      <trkpt lat="38.299414" lon="-1.451470">
        <ele>317.4</ele>
        <time>2016-10-30T10:25:39Z</time>
      </trkpt>
      <trkpt lat="38.299480" lon="-1.451507">
        <ele>317.9</ele>
        <time>2016-10-30T10:25:45Z</time>
      </trkpt>
      <trkpt lat="38.299633" lon="-1.451588">
        <ele>316.9</ele>
        <time>2016-10-30T10:25:58Z</time>
      </trkpt>
      <trkpt lat="38.299786" lon="-1.451701">
        <ele>316.9</ele>
        <time>2016-10-30T10:26:11Z</time>
      </trkpt>
      <trkpt lat="38.299980" lon="-1.451854">
        <ele>317.4</ele>
        <time>2016-10-30T10:26:28Z</time>
      </trkpt>
      <trkpt lat="38.300164" lon="-1.451957">
        <ele>318.3</ele>
        <time>2016-10-30T10:26:43Z</time>
      </trkpt>
      <trkpt lat="38.300410" lon="-1.452072">
        <ele>317.9</ele>
        <time>2016-10-30T10:27:02Z</time>
      </trkpt>
      <trkpt lat="38.300678" lon="-1.452090">
        <ele>318.3</ele>
        <time>2016-10-30T10:27:21Z</time>
      </trkpt>
      <trkpt lat="38.300856" lon="-1.452053">
        <ele>318.3</ele>
        <time>2016-10-30T10:27:34Z</time>
      </trkpt>
      <trkpt lat="38.301032" lon="-1.452012">
        <ele>318.8</ele>
        <time>2016-10-30T10:27:49Z</time>
      </trkpt>
      <trkpt lat="38.301248" lon="-1.451974">
        <ele>318.8</ele>
        <time>2016-10-30T10:28:05Z</time>
      </trkpt>
      <trkpt lat="38.301389" lon="-1.451940">
        <ele>319.3</ele>
        <time>2016-10-30T10:28:16Z</time>
      </trkpt>
      <trkpt lat="38.301438" lon="-1.451951">
        <ele>319.8</ele>
        <time>2016-10-30T10:28:20Z</time>
      </trkpt>
      <trkpt lat="38.301608" lon="-1.451981">
        <ele>319.8</ele>
        <time>2016-10-30T10:28:35Z</time>
      </trkpt>
      <trkpt lat="38.301794" lon="-1.451957">
        <ele>321.2</ele>
        <time>2016-10-30T10:28:51Z</time>
      </trkpt>
      <trkpt lat="38.301846" lon="-1.451948">
        <ele>321.2</ele>
        <time>2016-10-30T10:29:04Z</time>
      </trkpt>
      <trkpt lat="38.301959" lon="-1.451971">
        <ele>322.2</ele>
        <time>2016-10-30T10:29:15Z</time>
      </trkpt>
      <trkpt lat="38.302138" lon="-1.452057">
        <ele>323.1</ele>
        <time>2016-10-30T10:29:31Z</time>
      </trkpt>
      <trkpt lat="38.302194" lon="-1.452090">
        <ele>323.1</ele>
        <time>2016-10-30T10:29:38Z</time>
      </trkpt>
      <trkpt lat="38.302311" lon="-1.452222">
        <ele>317.4</ele>
        <time>2016-10-30T10:29:59Z</time>
      </trkpt>
      <trkpt lat="38.302323" lon="-1.452236">
        <ele>326.0</ele>
        <time>2016-10-30T10:30:00Z</time>
      </trkpt>
      <trkpt lat="38.302406" lon="-1.452296">
        <ele>324.1</ele>
        <time>2016-10-30T10:30:06Z</time>
      </trkpt>
      <trkpt lat="38.302642" lon="-1.452328">
        <ele>326.0</ele>
        <time>2016-10-30T10:30:23Z</time>
      </trkpt>
      <trkpt lat="38.302709" lon="-1.452333">
        <ele>327.0</ele>
        <time>2016-10-30T10:30:28Z</time>
      </trkpt>
      <trkpt lat="38.302879" lon="-1.452353">
        <ele>328.0</ele>
        <time>2016-10-30T10:30:43Z</time>
      </trkpt>
      <trkpt lat="38.302984" lon="-1.452373">
        <ele>329.9</ele>
        <time>2016-10-30T10:30:54Z</time>
      </trkpt>
      <trkpt lat="38.303006" lon="-1.452373">
        <ele>330.4</ele>
        <time>2016-10-30T10:30:56Z</time>
      </trkpt>
      <trkpt lat="38.303098" lon="-1.452393">
        <ele>331.3</ele>
        <time>2016-10-30T10:31:04Z</time>
      </trkpt>
      <trkpt lat="38.303268" lon="-1.452427">
        <ele>333.7</ele>
        <time>2016-10-30T10:31:21Z</time>
      </trkpt>
      <trkpt lat="38.303340" lon="-1.452454">
        <ele>334.7</ele>
        <time>2016-10-30T10:31:28Z</time>
      </trkpt>
      <trkpt lat="38.303479" lon="-1.452474">
        <ele>335.6</ele>
        <time>2016-10-30T10:31:41Z</time>
      </trkpt>
      <trkpt lat="38.303579" lon="-1.452500">
        <ele>337.1</ele>
        <time>2016-10-30T10:31:50Z</time>
      </trkpt>
      <trkpt lat="38.303650" lon="-1.452527">
        <ele>337.6</ele>
        <time>2016-10-30T10:31:57Z</time>
      </trkpt>
      <trkpt lat="38.303803" lon="-1.452594">
        <ele>339.5</ele>
        <time>2016-10-30T10:32:12Z</time>
      </trkpt>
      <trkpt lat="38.303843" lon="-1.452610">
        <ele>340.0</ele>
        <time>2016-10-30T10:32:16Z</time>
      </trkpt>
      <trkpt lat="38.303947" lon="-1.452705">
        <ele>340.9</ele>
        <time>2016-10-30T10:32:27Z</time>
      </trkpt>
      <trkpt lat="38.304000" lon="-1.452751">
        <ele>340.9</ele>
        <time>2016-10-30T10:32:32Z</time>
      </trkpt>
      <trkpt lat="38.304206" lon="-1.452833">
        <ele>343.3</ele>
        <time>2016-10-30T10:32:49Z</time>
      </trkpt>
      <trkpt lat="38.304382" lon="-1.452841">
        <ele>344.3</ele>
        <time>2016-10-30T10:33:04Z</time>
      </trkpt>
      <trkpt lat="38.304556" lon="-1.452803">
        <ele>345.7</ele>
        <time>2016-10-30T10:33:19Z</time>
      </trkpt>
      <trkpt lat="38.304580" lon="-1.452803">
        <ele>343.3</ele>
        <time>2016-10-30T10:33:21Z</time>
      </trkpt>
      <trkpt lat="38.304603" lon="-1.452805">
        <ele>346.7</ele>
        <time>2016-10-30T10:33:23Z</time>
      </trkpt>
      <trkpt lat="38.304626" lon="-1.452802">
        <ele>347.6</ele>
        <time>2016-10-30T10:33:25Z</time>
      </trkpt>
      <trkpt lat="38.304649" lon="-1.452801">
        <ele>346.7</ele>
        <time>2016-10-30T10:33:27Z</time>
      </trkpt>
      <trkpt lat="38.304813" lon="-1.452833">
        <ele>348.6</ele>
        <time>2016-10-30T10:33:42Z</time>
      </trkpt>
      <trkpt lat="38.304978" lon="-1.452881">
        <ele>349.6</ele>
        <time>2016-10-30T10:33:57Z</time>
      </trkpt>
      <trkpt lat="38.305171" lon="-1.452938">
        <ele>350.5</ele>
        <time>2016-10-30T10:34:15Z</time>
      </trkpt>
      <trkpt lat="38.305249" lon="-1.452969">
        <ele>351.5</ele>
        <time>2016-10-30T10:34:23Z</time>
      </trkpt>
      <trkpt lat="38.305352" lon="-1.452959">
        <ele>351.5</ele>
        <time>2016-10-30T10:34:32Z</time>
      </trkpt>
      <trkpt lat="38.305435" lon="-1.453005">
        <ele>352.5</ele>
        <time>2016-10-30T10:34:40Z</time>
      </trkpt>
      <trkpt lat="38.305632" lon="-1.453060">
        <ele>352.9</ele>
        <time>2016-10-30T10:34:56Z</time>
      </trkpt>
      <trkpt lat="38.305758" lon="-1.453083">
        <ele>353.4</ele>
        <time>2016-10-30T10:35:09Z</time>
      </trkpt>
      <trkpt lat="38.305847" lon="-1.453073">
        <ele>353.4</ele>
        <time>2016-10-30T10:35:16Z</time>
      </trkpt>
      <trkpt lat="38.305928" lon="-1.453084">
        <ele>353.4</ele>
        <time>2016-10-30T10:35:22Z</time>
      </trkpt>
      <trkpt lat="38.306104" lon="-1.453095">
        <ele>352.9</ele>
        <time>2016-10-30T10:35:35Z</time>
      </trkpt>
      <trkpt lat="38.306219" lon="-1.453089">
        <ele>353.9</ele>
        <time>2016-10-30T10:35:44Z</time>
      </trkpt>
      <trkpt lat="38.306359" lon="-1.453056">
        <ele>352.9</ele>
        <time>2016-10-30T10:35:57Z</time>
      </trkpt>
      <trkpt lat="38.306497" lon="-1.453043">
        <ele>354.9</ele>
        <time>2016-10-30T10:36:11Z</time>
      </trkpt>
      <trkpt lat="38.306681" lon="-1.453017">
        <ele>352.9</ele>
        <time>2016-10-30T10:36:26Z</time>
      </trkpt>
      <trkpt lat="38.306906" lon="-1.452983">
        <ele>352.9</ele>
        <time>2016-10-30T10:36:44Z</time>
      </trkpt>
      <trkpt lat="38.306959" lon="-1.452978">
        <ele>352.9</ele>
        <time>2016-10-30T10:36:48Z</time>
      </trkpt>
      <trkpt lat="38.307013" lon="-1.452966">
        <ele>352.9</ele>
        <time>2016-10-30T10:36:52Z</time>
      </trkpt>
      <trkpt lat="38.307206" lon="-1.452952">
        <ele>352.9</ele>
        <time>2016-10-30T10:37:07Z</time>
      </trkpt>
      <trkpt lat="38.307270" lon="-1.452943">
        <ele>353.4</ele>
        <time>2016-10-30T10:37:16Z</time>
      </trkpt>
      <trkpt lat="38.307265" lon="-1.452941">
        <ele>352.5</ele>
        <time>2016-10-30T10:37:18Z</time>
      </trkpt>
      <trkpt lat="38.307267" lon="-1.452935">
        <ele>352.9</ele>
        <time>2016-10-30T10:37:22Z</time>
      </trkpt>
      <trkpt lat="38.307521" lon="-1.452947">
        <ele>352.9</ele>
        <time>2016-10-30T10:37:39Z</time>
      </trkpt>
      <trkpt lat="38.307781" lon="-1.452942">
        <ele>352.5</ele>
        <time>2016-10-30T10:37:57Z</time>
      </trkpt>
      <trkpt lat="38.308005" lon="-1.452923">
        <ele>352.0</ele>
        <time>2016-10-30T10:38:13Z</time>
      </trkpt>
      <trkpt lat="38.308192" lon="-1.452926">
        <ele>352.0</ele>
        <time>2016-10-30T10:38:28Z</time>
      </trkpt>
      <trkpt lat="38.308375" lon="-1.452930">
        <ele>352.5</ele>
        <time>2016-10-30T10:38:43Z</time>
      </trkpt>
      <trkpt lat="38.308577" lon="-1.452982">
        <ele>351.5</ele>
        <time>2016-10-30T10:39:00Z</time>
      </trkpt>
      <trkpt lat="38.308655" lon="-1.453013">
        <ele>352.5</ele>
        <time>2016-10-30T10:39:10Z</time>
      </trkpt>
      <trkpt lat="38.308714" lon="-1.453023">
        <ele>351.5</ele>
        <time>2016-10-30T10:39:36Z</time>
      </trkpt>
      <trkpt lat="38.308805" lon="-1.453015">
        <ele>346.7</ele>
        <time>2016-10-30T10:39:43Z</time>
      </trkpt>
      <trkpt lat="38.308817" lon="-1.453020">
        <ele>352.5</ele>
        <time>2016-10-30T10:39:44Z</time>
      </trkpt>
      <trkpt lat="38.309029" lon="-1.453088">
        <ele>351.0</ele>
        <time>2016-10-30T10:39:59Z</time>
      </trkpt>
      <trkpt lat="38.309257" lon="-1.453116">
        <ele>350.5</ele>
        <time>2016-10-30T10:40:14Z</time>
      </trkpt>
      <trkpt lat="38.309486" lon="-1.453159">
        <ele>350.5</ele>
        <time>2016-10-30T10:40:30Z</time>
      </trkpt>
      <trkpt lat="38.309735" lon="-1.453209">
        <ele>350.5</ele>
        <time>2016-10-30T10:40:47Z</time>
      </trkpt>
      <trkpt lat="38.309907" lon="-1.453245">
        <ele>350.1</ele>
        <time>2016-10-30T10:40:59Z</time>
      </trkpt>
      <trkpt lat="38.310159" lon="-1.453305">
        <ele>350.1</ele>
        <time>2016-10-30T10:41:16Z</time>
      </trkpt>
      <trkpt lat="38.310375" lon="-1.453334">
        <ele>350.1</ele>
        <time>2016-10-30T10:41:31Z</time>
      </trkpt>
      <trkpt lat="38.310614" lon="-1.453413">
        <ele>350.1</ele>
        <time>2016-10-30T10:41:48Z</time>
      </trkpt>
      <trkpt lat="38.310844" lon="-1.453460">
        <ele>349.6</ele>
        <time>2016-10-30T10:42:04Z</time>
      </trkpt>
      <trkpt lat="38.311050" lon="-1.453494">
        <ele>349.6</ele>
        <time>2016-10-30T10:42:19Z</time>
      </trkpt>
      <trkpt lat="38.311255" lon="-1.453530">
        <ele>349.6</ele>
        <time>2016-10-30T10:42:35Z</time>
      </trkpt>
      <trkpt lat="38.311393" lon="-1.453560">
        <ele>353.4</ele>
        <time>2016-10-30T11:03:10Z</time>
      </trkpt>
      <trkpt lat="38.311434" lon="-1.453598">
        <ele>352.5</ele>
        <time>2016-10-30T11:03:24Z</time>
      </trkpt>
      <trkpt lat="38.311482" lon="-1.453609">
        <ele>352.5</ele>
        <time>2016-10-30T11:03:37Z</time>
      </trkpt>
      <trkpt lat="38.311579" lon="-1.453629">
        <ele>352.5</ele>
        <time>2016-10-30T11:03:48Z</time>
      </trkpt>
      <trkpt lat="38.311691" lon="-1.453651">
        <ele>352.5</ele>
        <time>2016-10-30T11:04:03Z</time>
      </trkpt>
      <trkpt lat="38.311748" lon="-1.453661">
        <ele>352.5</ele>
        <time>2016-10-30T11:04:16Z</time>
      </trkpt>
      <trkpt lat="38.311765" lon="-1.453667">
        <ele>352.5</ele>
        <time>2016-10-30T11:04:22Z</time>
      </trkpt>
      <trkpt lat="38.311857" lon="-1.453685">
        <ele>352.0</ele>
        <time>2016-10-30T11:04:35Z</time>
      </trkpt>
      <trkpt lat="38.311968" lon="-1.453711">
        <ele>352.5</ele>
        <time>2016-10-30T11:04:49Z</time>
      </trkpt>
      <trkpt lat="38.312106" lon="-1.453749">
        <ele>352.0</ele>
        <time>2016-10-30T11:05:06Z</time>
      </trkpt>
      <trkpt lat="38.312249" lon="-1.453778">
        <ele>352.0</ele>
        <time>2016-10-30T11:05:23Z</time>
      </trkpt>
      <trkpt lat="38.312418" lon="-1.453822">
        <ele>352.0</ele>
        <time>2016-10-30T11:05:40Z</time>
      </trkpt>
      <trkpt lat="38.312570" lon="-1.453837">
        <ele>352.0</ele>
        <time>2016-10-30T11:05:55Z</time>
      </trkpt>
      <trkpt lat="38.312703" lon="-1.453860">
        <ele>352.0</ele>
        <time>2016-10-30T11:06:07Z</time>
      </trkpt>
      <trkpt lat="38.312646" lon="-1.453818">
        <ele>352.0</ele>
        <time>2016-10-30T11:06:21Z</time>
      </trkpt>
      <trkpt lat="38.312616" lon="-1.453829">
        <ele>351.0</ele>
        <time>2016-10-30T11:06:31Z</time>
      </trkpt>
      <trkpt lat="38.312647" lon="-1.453854">
        <ele>350.5</ele>
        <time>2016-10-30T11:07:01Z</time>
      </trkpt>
      <trkpt lat="38.312644" lon="-1.453835">
        <ele>351.0</ele>
        <time>2016-10-30T11:07:33Z</time>
      </trkpt>
      <trkpt lat="38.312644" lon="-1.453839">
        <ele>345.2</ele>
        <time>2016-10-30T11:07:43Z</time>
      </trkpt>
      <trkpt lat="38.312644" lon="-1.453839">
        <ele>350.1</ele>
        <time>2016-10-30T11:07:44Z</time>
      </trkpt>
      <trkpt lat="38.312644" lon="-1.453839">
        <ele>351.0</ele>
        <time>2016-10-30T11:07:46Z</time>
      </trkpt>
      <trkpt lat="38.312638" lon="-1.453835">
        <ele>355.8</ele>
        <time>2016-10-30T11:08:19Z</time>
      </trkpt>
      <trkpt lat="38.312637" lon="-1.453836">
        <ele>351.0</ele>
        <time>2016-10-30T11:08:20Z</time>
      </trkpt>
      <trkpt lat="38.312659" lon="-1.453882">
        <ele>351.5</ele>
        <time>2016-10-30T11:08:34Z</time>
      </trkpt>
      <trkpt lat="38.312740" lon="-1.453908">
        <ele>351.0</ele>
        <time>2016-10-30T11:08:41Z</time>
      </trkpt>
      <trkpt lat="38.312814" lon="-1.453911">
        <ele>348.6</ele>
        <time>2016-10-30T11:08:48Z</time>
      </trkpt>
      <trkpt lat="38.312888" lon="-1.453921">
        <ele>349.6</ele>
        <time>2016-10-30T11:08:55Z</time>
      </trkpt>
      <trkpt lat="38.312899" lon="-1.453923">
        <ele>352.9</ele>
        <time>2016-10-30T11:08:56Z</time>
      </trkpt>
      <trkpt lat="38.313016" lon="-1.453945">
        <ele>350.5</ele>
        <time>2016-10-30T11:09:11Z</time>
      </trkpt>
      <trkpt lat="38.313072" lon="-1.453939">
        <ele>352.5</ele>
        <time>2016-10-30T11:09:20Z</time>
      </trkpt>
      <trkpt lat="38.313094" lon="-1.453930">
        <ele>346.7</ele>
        <time>2016-10-30T11:09:22Z</time>
      </trkpt>
      <trkpt lat="38.313119" lon="-1.453934">
        <ele>354.4</ele>
        <time>2016-10-30T11:09:24Z</time>
      </trkpt>
      <trkpt lat="38.313131" lon="-1.453934">
        <ele>352.9</ele>
        <time>2016-10-30T11:09:25Z</time>
      </trkpt>
      <trkpt lat="38.313156" lon="-1.453942">
        <ele>351.0</ele>
        <time>2016-10-30T11:09:27Z</time>
      </trkpt>
      <trkpt lat="38.313243" lon="-1.453979">
        <ele>349.6</ele>
        <time>2016-10-30T11:09:35Z</time>
      </trkpt>
      <trkpt lat="38.313318" lon="-1.453972">
        <ele>350.5</ele>
        <time>2016-10-30T11:09:41Z</time>
      </trkpt>
      <trkpt lat="38.313546" lon="-1.454055">
        <ele>350.5</ele>
        <time>2016-10-30T11:09:59Z</time>
      </trkpt>
      <trkpt lat="38.313567" lon="-1.454061">
        <ele>350.5</ele>
        <time>2016-10-30T11:10:01Z</time>
      </trkpt>
      <trkpt lat="38.313675" lon="-1.454100">
        <ele>351.0</ele>
        <time>2016-10-30T11:10:11Z</time>
      </trkpt>
      <trkpt lat="38.313714" lon="-1.454092">
        <ele>350.5</ele>
        <time>2016-10-30T11:10:14Z</time>
      </trkpt>
      <trkpt lat="38.313857" lon="-1.454108">
        <ele>350.5</ele>
        <time>2016-10-30T11:10:29Z</time>
      </trkpt>
      <trkpt lat="38.314004" lon="-1.454158">
        <ele>350.1</ele>
        <time>2016-10-30T11:10:43Z</time>
      </trkpt>
      <trkpt lat="38.314185" lon="-1.454195">
        <ele>349.6</ele>
        <time>2016-10-30T11:10:59Z</time>
      </trkpt>
      <trkpt lat="38.314379" lon="-1.454234">
        <ele>350.1</ele>
        <time>2016-10-30T11:11:14Z</time>
      </trkpt>
      <trkpt lat="38.314550" lon="-1.454278">
        <ele>349.6</ele>
        <time>2016-10-30T11:11:29Z</time>
      </trkpt>
      <trkpt lat="38.314618" lon="-1.454326">
        <ele>349.6</ele>
        <time>2016-10-30T11:11:35Z</time>
      </trkpt>
      <trkpt lat="38.314694" lon="-1.454335">
        <ele>349.6</ele>
        <time>2016-10-30T11:11:41Z</time>
      </trkpt>
      <trkpt lat="38.314980" lon="-1.454389">
        <ele>348.6</ele>
        <time>2016-10-30T11:12:02Z</time>
      </trkpt>
      <trkpt lat="38.315031" lon="-1.454396">
        <ele>351.5</ele>
        <time>2016-10-30T11:12:06Z</time>
      </trkpt>
      <trkpt lat="38.315054" lon="-1.454404">
        <ele>346.7</ele>
        <time>2016-10-30T11:12:08Z</time>
      </trkpt>
      <trkpt lat="38.315068" lon="-1.454408">
        <ele>351.5</ele>
        <time>2016-10-30T11:12:09Z</time>
      </trkpt>
      <trkpt lat="38.315109" lon="-1.454418">
        <ele>345.7</ele>
        <time>2016-10-30T11:12:12Z</time>
      </trkpt>
      <trkpt lat="38.315121" lon="-1.454421">
        <ele>348.6</ele>
        <time>2016-10-30T11:12:13Z</time>
      </trkpt>
      <trkpt lat="38.315199" lon="-1.454438">
        <ele>349.6</ele>
        <time>2016-10-30T11:12:19Z</time>
      </trkpt>
      <trkpt lat="38.315220" lon="-1.454434">
        <ele>349.6</ele>
        <time>2016-10-30T11:12:21Z</time>
      </trkpt>
      <trkpt lat="38.315271" lon="-1.454444">
        <ele>349.6</ele>
        <time>2016-10-30T11:12:25Z</time>
      </trkpt>
      <trkpt lat="38.315478" lon="-1.454524">
        <ele>349.1</ele>
        <time>2016-10-30T11:12:41Z</time>
      </trkpt>
      <trkpt lat="38.315720" lon="-1.454583">
        <ele>349.1</ele>
        <time>2016-10-30T11:13:00Z</time>
      </trkpt>
      <trkpt lat="38.315935" lon="-1.454622">
        <ele>349.1</ele>
        <time>2016-10-30T11:13:16Z</time>
      </trkpt>
      <trkpt lat="38.316134" lon="-1.454684">
        <ele>349.6</ele>
        <time>2016-10-30T11:13:31Z</time>
      </trkpt>
      <trkpt lat="38.316329" lon="-1.454735">
        <ele>349.1</ele>
        <time>2016-10-30T11:13:46Z</time>
      </trkpt>
      <trkpt lat="38.316537" lon="-1.454786">
        <ele>349.6</ele>
        <time>2016-10-30T11:14:03Z</time>
      </trkpt>
      <trkpt lat="38.316772" lon="-1.454829">
        <ele>348.6</ele>
        <time>2016-10-30T11:14:21Z</time>
      </trkpt>
      <trkpt lat="38.316973" lon="-1.454879">
        <ele>348.6</ele>
        <time>2016-10-30T11:14:36Z</time>
      </trkpt>
      <trkpt lat="38.317216" lon="-1.454937">
        <ele>348.6</ele>
        <time>2016-10-30T11:14:54Z</time>
      </trkpt>
      <trkpt lat="38.317409" lon="-1.454990">
        <ele>348.1</ele>
        <time>2016-10-30T11:15:09Z</time>
      </trkpt>
      <trkpt lat="38.317639" lon="-1.455049">
        <ele>347.2</ele>
        <time>2016-10-30T11:15:26Z</time>
      </trkpt>
      <trkpt lat="38.317869" lon="-1.455104">
        <ele>347.6</ele>
        <time>2016-10-30T11:15:43Z</time>
      </trkpt>
      <trkpt lat="38.318025" lon="-1.455138">
        <ele>347.6</ele>
        <time>2016-10-30T11:15:55Z</time>
      </trkpt>
      <trkpt lat="38.318238" lon="-1.455178">
        <ele>348.1</ele>
        <time>2016-10-30T11:16:12Z</time>
      </trkpt>
      <trkpt lat="38.318447" lon="-1.455238">
        <ele>346.7</ele>
        <time>2016-10-30T11:16:28Z</time>
      </trkpt>
      <trkpt lat="38.318676" lon="-1.455321">
        <ele>346.7</ele>
        <time>2016-10-30T11:16:45Z</time>
      </trkpt>
      <trkpt lat="38.318866" lon="-1.455386">
        <ele>345.7</ele>
        <time>2016-10-30T11:17:00Z</time>
      </trkpt>
      <trkpt lat="38.319029" lon="-1.455446">
        <ele>345.7</ele>
        <time>2016-10-30T11:17:13Z</time>
      </trkpt>
      <trkpt lat="38.319093" lon="-1.455467">
        <ele>345.7</ele>
        <time>2016-10-30T11:17:18Z</time>
      </trkpt>
      <trkpt lat="38.319186" lon="-1.455500">
        <ele>345.7</ele>
        <time>2016-10-30T11:17:25Z</time>
      </trkpt>
      <trkpt lat="38.319388" lon="-1.455553">
        <ele>345.2</ele>
        <time>2016-10-30T11:17:41Z</time>
      </trkpt>
      <trkpt lat="38.319398" lon="-1.455554">
        <ele>344.8</ele>
        <time>2016-10-30T11:17:42Z</time>
      </trkpt>
      <trkpt lat="38.319550" lon="-1.455650">
        <ele>344.3</ele>
        <time>2016-10-30T11:17:55Z</time>
      </trkpt>
      <trkpt lat="38.319601" lon="-1.455713">
        <ele>344.8</ele>
        <time>2016-10-30T11:18:00Z</time>
      </trkpt>
      <trkpt lat="38.319646" lon="-1.455771">
        <ele>344.8</ele>
        <time>2016-10-30T11:18:05Z</time>
      </trkpt>
      <trkpt lat="38.319812" lon="-1.455962">
        <ele>343.8</ele>
        <time>2016-10-30T11:18:22Z</time>
      </trkpt>
      <trkpt lat="38.319865" lon="-1.456035">
        <ele>343.3</ele>
        <time>2016-10-30T11:18:28Z</time>
      </trkpt>
      <trkpt lat="38.319893" lon="-1.456060">
        <ele>343.8</ele>
        <time>2016-10-30T11:18:31Z</time>
      </trkpt>
      <trkpt lat="38.319981" lon="-1.456162">
        <ele>342.4</ele>
        <time>2016-10-30T11:18:40Z</time>
      </trkpt>
      <trkpt lat="38.320090" lon="-1.456273">
        <ele>342.4</ele>
        <time>2016-10-30T11:18:50Z</time>
      </trkpt>
      <trkpt lat="38.320250" lon="-1.456456">
        <ele>342.4</ele>
        <time>2016-10-30T11:19:07Z</time>
      </trkpt>
      <trkpt lat="38.320301" lon="-1.456540">
        <ele>341.4</ele>
        <time>2016-10-30T11:19:14Z</time>
      </trkpt>
      <trkpt lat="38.320431" lon="-1.456689">
        <ele>341.9</ele>
        <time>2016-10-30T11:19:29Z</time>
      </trkpt>
      <trkpt lat="38.320588" lon="-1.456860">
        <ele>341.4</ele>
        <time>2016-10-30T11:19:45Z</time>
      </trkpt>
      <trkpt lat="38.320624" lon="-1.456902">
        <ele>341.4</ele>
        <time>2016-10-30T11:19:49Z</time>
      </trkpt>
      <trkpt lat="38.320769" lon="-1.457067">
        <ele>341.4</ele>
        <time>2016-10-30T11:20:04Z</time>
      </trkpt>
      <trkpt lat="38.320788" lon="-1.457096">
        <ele>341.4</ele>
        <time>2016-10-30T11:20:07Z</time>
      </trkpt>
      <trkpt lat="38.320885" lon="-1.457251">
        <ele>340.4</ele>
        <time>2016-10-30T11:20:21Z</time>
      </trkpt>
      <trkpt lat="38.320904" lon="-1.457242">
        <ele>340.9</ele>
        <time>2016-10-30T11:20:29Z</time>
      </trkpt>
      <trkpt lat="38.320920" lon="-1.457234">
        <ele>340.4</ele>
        <time>2016-10-30T11:20:47Z</time>
      </trkpt>
      <trkpt lat="38.321000" lon="-1.457206">
        <ele>340.4</ele>
        <time>2016-10-30T11:20:55Z</time>
      </trkpt>
      <trkpt lat="38.321093" lon="-1.457173">
        <ele>340.4</ele>
        <time>2016-10-30T11:21:04Z</time>
      </trkpt>
      <trkpt lat="38.321394" lon="-1.457092">
        <ele>340.9</ele>
        <time>2016-10-30T11:23:04Z</time>
      </trkpt>
      <trkpt lat="38.321675" lon="-1.457047">
        <ele>340.9</ele>
        <time>2016-10-30T11:23:23Z</time>
      </trkpt>
      <trkpt lat="38.321910" lon="-1.456927">
        <ele>340.4</ele>
        <time>2016-10-30T11:23:39Z</time>
      </trkpt>
      <trkpt lat="38.322114" lon="-1.456818">
        <ele>340.4</ele>
        <time>2016-10-30T11:23:54Z</time>
      </trkpt>
      <trkpt lat="38.322354" lon="-1.456679">
        <ele>340.0</ele>
        <time>2016-10-30T11:24:11Z</time>
      </trkpt>
      <trkpt lat="38.322589" lon="-1.456519">
        <ele>340.4</ele>
        <time>2016-10-30T11:24:29Z</time>
      </trkpt>
      <trkpt lat="38.322782" lon="-1.456422">
        <ele>340.4</ele>
        <time>2016-10-30T11:24:45Z</time>
      </trkpt>
      <trkpt lat="38.322807" lon="-1.456424">
        <ele>340.9</ele>
        <time>2016-10-30T11:24:54Z</time>
      </trkpt>
      <trkpt lat="38.322820" lon="-1.456377">
        <ele>340.0</ele>
        <time>2016-10-30T11:25:08Z</time>
      </trkpt>
      <trkpt lat="38.322812" lon="-1.456366">
        <ele>340.9</ele>
        <time>2016-10-30T11:25:23Z</time>
      </trkpt>
      <trkpt lat="38.322815" lon="-1.456363">
        <ele>340.0</ele>
        <time>2016-10-30T11:25:26Z</time>
      </trkpt>
      <trkpt lat="38.323035" lon="-1.456257">
        <ele>340.0</ele>
        <time>2016-10-30T11:25:43Z</time>
      </trkpt>
      <trkpt lat="38.323192" lon="-1.456235">
        <ele>340.0</ele>
        <time>2016-10-30T11:25:54Z</time>
      </trkpt>
      <trkpt lat="38.323590" lon="-1.456140">
        <ele>340.0</ele>
        <time>2016-10-30T11:29:41Z</time>
      </trkpt>
      <trkpt lat="38.323808" lon="-1.456080">
        <ele>339.0</ele>
        <time>2016-10-30T11:29:57Z</time>
      </trkpt>
      <trkpt lat="38.324101" lon="-1.456047">
        <ele>339.0</ele>
        <time>2016-10-30T11:30:15Z</time>
      </trkpt>
      <trkpt lat="38.324380" lon="-1.456001">
        <ele>338.5</ele>
        <time>2016-10-30T11:30:33Z</time>
      </trkpt>
      <trkpt lat="38.324463" lon="-1.455968">
        <ele>338.5</ele>
        <time>2016-10-30T11:30:44Z</time>
      </trkpt>
      <trkpt lat="38.324670" lon="-1.455842">
        <ele>339.0</ele>
        <time>2016-10-30T11:30:59Z</time>
      </trkpt>
      <trkpt lat="38.324880" lon="-1.455740">
        <ele>338.5</ele>
        <time>2016-10-30T11:31:15Z</time>
      </trkpt>
      <trkpt lat="38.324939" lon="-1.455725">
        <ele>339.0</ele>
        <time>2016-10-30T11:31:25Z</time>
      </trkpt>
      <trkpt lat="38.325206" lon="-1.455584">
        <ele>339.0</ele>
        <time>2016-10-30T11:31:44Z</time>
      </trkpt>
      <trkpt lat="38.325474" lon="-1.455532">
        <ele>338.5</ele>
        <time>2016-10-30T11:32:04Z</time>
      </trkpt>
      <trkpt lat="38.325721" lon="-1.455437">
        <ele>338.0</ele>
        <time>2016-10-30T11:32:21Z</time>
      </trkpt>
      <trkpt lat="38.325996" lon="-1.455342">
        <ele>338.0</ele>
        <time>2016-10-30T11:32:40Z</time>
      </trkpt>
      <trkpt lat="38.326281" lon="-1.455268">
        <ele>337.6</ele>
        <time>2016-10-30T11:32:59Z</time>
      </trkpt>
      <trkpt lat="38.326360" lon="-1.455265">
        <ele>338.0</ele>
        <time>2016-10-30T11:33:13Z</time>
      </trkpt>
      <trkpt lat="38.326359" lon="-1.455256">
        <ele>338.0</ele>
        <time>2016-10-30T11:33:18Z</time>
      </trkpt>
      <trkpt lat="38.326425" lon="-1.455245">
        <ele>338.0</ele>
        <time>2016-10-30T11:33:22Z</time>
      </trkpt>
      <trkpt lat="38.326726" lon="-1.455250">
        <ele>337.1</ele>
        <time>2016-10-30T11:33:42Z</time>
      </trkpt>
      <trkpt lat="38.326980" lon="-1.455310">
        <ele>333.2</ele>
        <time>2016-10-30T11:33:57Z</time>
      </trkpt>
      <trkpt lat="38.327008" lon="-1.455319">
        <ele>338.0</ele>
        <time>2016-10-30T11:33:58Z</time>
      </trkpt>
      <trkpt lat="38.327039" lon="-1.455328">
        <ele>336.6</ele>
        <time>2016-10-30T11:33:59Z</time>
      </trkpt>
      <trkpt lat="38.327175" lon="-1.455385">
        <ele>340.0</ele>
        <time>2016-10-30T11:34:05Z</time>
      </trkpt>
      <trkpt lat="38.327181" lon="-1.455387">
        <ele>336.6</ele>
        <time>2016-10-30T11:34:06Z</time>
      </trkpt>
      <trkpt lat="38.327189" lon="-1.455372">
        <ele>336.1</ele>
        <time>2016-10-30T11:34:20Z</time>
      </trkpt>
      <trkpt lat="38.327214" lon="-1.455393">
        <ele>336.6</ele>
        <time>2016-10-30T11:34:34Z</time>
      </trkpt>
      <trkpt lat="38.327243" lon="-1.455422">
        <ele>336.6</ele>
        <time>2016-10-30T11:34:44Z</time>
      </trkpt>
      <trkpt lat="38.327343" lon="-1.455520">
        <ele>336.1</ele>
        <time>2016-10-30T11:34:53Z</time>
      </trkpt>
      <trkpt lat="38.327593" lon="-1.455588">
        <ele>336.1</ele>
        <time>2016-10-30T11:35:11Z</time>
      </trkpt>
      <trkpt lat="38.327667" lon="-1.455601">
        <ele>332.3</ele>
        <time>2016-10-30T11:35:14Z</time>
      </trkpt>
      <trkpt lat="38.327698" lon="-1.455612">
        <ele>339.0</ele>
        <time>2016-10-30T11:35:15Z</time>
      </trkpt>
      <trkpt lat="38.327727" lon="-1.455628">
        <ele>337.1</ele>
        <time>2016-10-30T11:35:16Z</time>
      </trkpt>
      <trkpt lat="38.327788" lon="-1.455643">
        <ele>336.1</ele>
        <time>2016-10-30T11:35:24Z</time>
      </trkpt>
      <trkpt lat="38.327795" lon="-1.455649">
        <ele>336.1</ele>
        <time>2016-10-30T11:35:25Z</time>
      </trkpt>
      <trkpt lat="38.327938" lon="-1.455728">
        <ele>335.6</ele>
        <time>2016-10-30T11:35:39Z</time>
      </trkpt>
      <trkpt lat="38.328159" lon="-1.455835">
        <ele>336.1</ele>
        <time>2016-10-30T11:35:56Z</time>
      </trkpt>
      <trkpt lat="38.328181" lon="-1.455844">
        <ele>336.1</ele>
        <time>2016-10-30T11:35:58Z</time>
      </trkpt>
      <trkpt lat="38.328223" lon="-1.455874">
        <ele>336.1</ele>
        <time>2016-10-30T11:36:02Z</time>
      </trkpt>
      <trkpt lat="38.328353" lon="-1.455990">
        <ele>336.6</ele>
        <time>2016-10-30T11:36:15Z</time>
      </trkpt>
      <trkpt lat="38.328399" lon="-1.456026">
        <ele>336.6</ele>
        <time>2016-10-30T11:36:19Z</time>
      </trkpt>
      <trkpt lat="38.328585" lon="-1.456177">
        <ele>336.6</ele>
        <time>2016-10-30T11:36:35Z</time>
      </trkpt>
      <trkpt lat="38.328750" lon="-1.456310">
        <ele>336.6</ele>
        <time>2016-10-30T11:36:50Z</time>
      </trkpt>
      <trkpt lat="38.328908" lon="-1.456449">
        <ele>336.1</ele>
        <time>2016-10-30T11:37:05Z</time>
      </trkpt>
      <trkpt lat="38.329100" lon="-1.456622">
        <ele>336.6</ele>
        <time>2016-10-30T11:37:22Z</time>
      </trkpt>
      <trkpt lat="38.329275" lon="-1.456775">
        <ele>336.1</ele>
        <time>2016-10-30T11:37:39Z</time>
      </trkpt>
      <trkpt lat="38.329290" lon="-1.456792">
        <ele>336.6</ele>
        <time>2016-10-30T11:37:41Z</time>
      </trkpt>
      <trkpt lat="38.329444" lon="-1.456925">
        <ele>336.1</ele>
        <time>2016-10-30T11:37:56Z</time>
      </trkpt>
      <trkpt lat="38.329625" lon="-1.457086">
        <ele>337.1</ele>
        <time>2016-10-30T11:38:12Z</time>
      </trkpt>
      <trkpt lat="38.329648" lon="-1.457109">
        <ele>333.7</ele>
        <time>2016-10-30T11:38:14Z</time>
      </trkpt>
      <trkpt lat="38.329667" lon="-1.457134">
        <ele>338.0</ele>
        <time>2016-10-30T11:38:16Z</time>
      </trkpt>
      <trkpt lat="38.329679" lon="-1.457146">
        <ele>337.6</ele>
        <time>2016-10-30T11:38:17Z</time>
      </trkpt>
      <trkpt lat="38.329701" lon="-1.457169">
        <ele>336.6</ele>
        <time>2016-10-30T11:38:19Z</time>
      </trkpt>
      <trkpt lat="38.329860" lon="-1.457296">
        <ele>337.1</ele>
        <time>2016-10-30T11:38:35Z</time>
      </trkpt>
      <trkpt lat="38.329979" lon="-1.457419">
        <ele>337.1</ele>
        <time>2016-10-30T11:39:34Z</time>
      </trkpt>
      <trkpt lat="38.330183" lon="-1.457679">
        <ele>336.6</ele>
        <time>2016-10-30T11:39:59Z</time>
      </trkpt>
      <trkpt lat="38.330320" lon="-1.457913">
        <ele>337.6</ele>
        <time>2016-10-30T11:40:17Z</time>
      </trkpt>
      <trkpt lat="38.330457" lon="-1.458145">
        <ele>337.6</ele>
        <time>2016-10-30T11:40:34Z</time>
      </trkpt>
      <trkpt lat="38.330608" lon="-1.458438">
        <ele>337.6</ele>
        <time>2016-10-30T11:40:54Z</time>
      </trkpt>
      <trkpt lat="38.330733" lon="-1.458653">
        <ele>338.5</ele>
        <time>2016-10-30T11:41:10Z</time>
      </trkpt>
      <trkpt lat="38.330850" lon="-1.458878">
        <ele>338.5</ele>
        <time>2016-10-30T11:41:26Z</time>
      </trkpt>
      <trkpt lat="38.330970" lon="-1.459100">
        <ele>339.0</ele>
        <time>2016-10-30T11:41:42Z</time>
      </trkpt>
      <trkpt lat="38.331053" lon="-1.459247">
        <ele>338.5</ele>
        <time>2016-10-30T11:41:53Z</time>
      </trkpt>
      <trkpt lat="38.331183" lon="-1.459497">
        <ele>339.5</ele>
        <time>2016-10-30T11:42:11Z</time>
      </trkpt>
      <trkpt lat="38.331311" lon="-1.459722">
        <ele>339.0</ele>
        <time>2016-10-30T11:42:28Z</time>
      </trkpt>
      <trkpt lat="38.331311" lon="-1.459723">
        <ele>339.5</ele>
        <time>2016-10-30T11:42:30Z</time>
      </trkpt>
      <trkpt lat="38.331361" lon="-1.459853">
        <ele>339.5</ele>
        <time>2016-10-30T11:42:43Z</time>
      </trkpt>
      <trkpt lat="38.331491" lon="-1.460075">
        <ele>340.0</ele>
        <time>2016-10-30T11:43:01Z</time>
      </trkpt>
      <trkpt lat="38.331646" lon="-1.460344">
        <ele>340.4</ele>
        <time>2016-10-30T11:43:21Z</time>
      </trkpt>
      <trkpt lat="38.331794" lon="-1.460580">
        <ele>340.9</ele>
        <time>2016-10-30T11:43:34Z</time>
      </trkpt>
      <trkpt lat="38.331804" lon="-1.460595">
        <ele>340.4</ele>
        <time>2016-10-30T11:43:38Z</time>
      </trkpt>
      <trkpt lat="38.331818" lon="-1.460635">
        <ele>340.4</ele>
        <time>2016-10-30T11:43:51Z</time>
      </trkpt>
      <trkpt lat="38.331843" lon="-1.460696">
        <ele>340.4</ele>
        <time>2016-10-30T11:43:55Z</time>
      </trkpt>
      <trkpt lat="38.331940" lon="-1.460999">
        <ele>341.4</ele>
        <time>2016-10-30T11:44:12Z</time>
      </trkpt>
      <trkpt lat="38.331996" lon="-1.461231">
        <ele>341.4</ele>
        <time>2016-10-30T11:44:26Z</time>
      </trkpt>
      <trkpt lat="38.332034" lon="-1.461311">
        <ele>341.4</ele>
        <time>2016-10-30T11:44:32Z</time>
      </trkpt>
      <trkpt lat="38.332153" lon="-1.461466">
        <ele>341.4</ele>
        <time>2016-10-30T11:44:47Z</time>
      </trkpt>
      <trkpt lat="38.332318" lon="-1.461621">
        <ele>341.9</ele>
        <time>2016-10-30T11:45:04Z</time>
      </trkpt>
      <trkpt lat="38.332456" lon="-1.461799">
        <ele>341.9</ele>
        <time>2016-10-30T11:45:20Z</time>
      </trkpt>
      <trkpt lat="38.332586" lon="-1.461987">
        <ele>342.9</ele>
        <time>2016-10-30T11:45:36Z</time>
      </trkpt>
      <trkpt lat="38.332609" lon="-1.462032">
        <ele>342.4</ele>
        <time>2016-10-30T11:45:40Z</time>
      </trkpt>
      <trkpt lat="38.332712" lon="-1.462213">
        <ele>343.3</ele>
        <time>2016-10-30T11:45:55Z</time>
      </trkpt>
      <trkpt lat="38.332815" lon="-1.462423">
        <ele>343.3</ele>
        <time>2016-10-30T11:46:10Z</time>
      </trkpt>
      <trkpt lat="38.332914" lon="-1.462665">
        <ele>343.8</ele>
        <time>2016-10-30T11:46:26Z</time>
      </trkpt>
      <trkpt lat="38.332994" lon="-1.462893">
        <ele>344.3</ele>
        <time>2016-10-30T11:46:41Z</time>
      </trkpt>
      <trkpt lat="38.333083" lon="-1.463082">
        <ele>344.8</ele>
        <time>2016-10-30T11:46:55Z</time>
      </trkpt>
      <trkpt lat="38.333209" lon="-1.463348">
        <ele>345.7</ele>
        <time>2016-10-30T11:47:15Z</time>
      </trkpt>
      <trkpt lat="38.333343" lon="-1.463563">
        <ele>345.7</ele>
        <time>2016-10-30T11:47:32Z</time>
      </trkpt>
      <trkpt lat="38.333471" lon="-1.463758">
        <ele>346.2</ele>
        <time>2016-10-30T11:47:48Z</time>
      </trkpt>
      <trkpt lat="38.333635" lon="-1.463948">
        <ele>346.2</ele>
        <time>2016-10-30T11:48:07Z</time>
      </trkpt>
      <trkpt lat="38.333773" lon="-1.464157">
        <ele>347.2</ele>
        <time>2016-10-30T11:48:25Z</time>
      </trkpt>
      <trkpt lat="38.333905" lon="-1.464344">
        <ele>347.6</ele>
        <time>2016-10-30T11:48:41Z</time>
      </trkpt>
      <trkpt lat="38.334051" lon="-1.464536">
        <ele>348.1</ele>
        <time>2016-10-30T11:48:57Z</time>
      </trkpt>
      <trkpt lat="38.334190" lon="-1.464687">
        <ele>348.6</ele>
        <time>2016-10-30T11:49:13Z</time>
      </trkpt>
      <trkpt lat="38.334281" lon="-1.464775">
        <ele>348.6</ele>
        <time>2016-10-30T11:49:25Z</time>
      </trkpt>
      <trkpt lat="38.334435" lon="-1.464959">
        <ele>349.6</ele>
        <time>2016-10-30T11:49:40Z</time>
      </trkpt>
      <trkpt lat="38.334446" lon="-1.464970">
        <ele>349.1</ele>
        <time>2016-10-30T11:49:41Z</time>
      </trkpt>
      <trkpt lat="38.334469" lon="-1.464982">
        <ele>349.6</ele>
        <time>2016-10-30T11:49:43Z</time>
      </trkpt>
      <trkpt lat="38.334691" lon="-1.465172">
        <ele>350.5</ele>
        <time>2016-10-30T11:50:04Z</time>
      </trkpt>
      <trkpt lat="38.334893" lon="-1.465342">
        <ele>351.0</ele>
        <time>2016-10-30T11:50:23Z</time>
      </trkpt>
      <trkpt lat="38.335035" lon="-1.465526">
        <ele>351.5</ele>
        <time>2016-10-30T11:50:39Z</time>
      </trkpt>
      <trkpt lat="38.335153" lon="-1.465719">
        <ele>352.5</ele>
        <time>2016-10-30T11:50:54Z</time>
      </trkpt>
      <trkpt lat="38.335317" lon="-1.465956">
        <ele>352.9</ele>
        <time>2016-10-30T11:51:14Z</time>
      </trkpt>
      <trkpt lat="38.335476" lon="-1.466174">
        <ele>353.4</ele>
        <time>2016-10-30T11:51:32Z</time>
      </trkpt>
      <trkpt lat="38.335632" lon="-1.466442">
        <ele>353.9</ele>
        <time>2016-10-30T11:51:52Z</time>
      </trkpt>
      <trkpt lat="38.335780" lon="-1.466649">
        <ele>353.9</ele>
        <time>2016-10-30T11:52:11Z</time>
      </trkpt>
      <trkpt lat="38.335879" lon="-1.466793">
        <ele>354.4</ele>
        <time>2016-10-30T11:52:23Z</time>
      </trkpt>
      <trkpt lat="38.335921" lon="-1.466861">
        <ele>354.4</ele>
        <time>2016-10-30T11:52:29Z</time>
      </trkpt>
      <trkpt lat="38.335928" lon="-1.466880">
        <ele>354.4</ele>
        <time>2016-10-30T11:52:31Z</time>
      </trkpt>
      <trkpt lat="38.335966" lon="-1.466925">
        <ele>354.9</ele>
        <time>2016-10-30T11:52:35Z</time>
      </trkpt>
      <trkpt lat="38.336120" lon="-1.467188">
        <ele>354.9</ele>
        <time>2016-10-30T11:52:53Z</time>
      </trkpt>
      <trkpt lat="38.336240" lon="-1.467388">
        <ele>354.9</ele>
        <time>2016-10-30T11:53:08Z</time>
      </trkpt>
      <trkpt lat="38.336335" lon="-1.467494">
        <ele>354.9</ele>
        <time>2016-10-30T11:53:20Z</time>
      </trkpt>
      <trkpt lat="38.336396" lon="-1.467538">
        <ele>354.4</ele>
        <time>2016-10-30T11:53:25Z</time>
      </trkpt>
      <trkpt lat="38.336523" lon="-1.467652">
        <ele>355.8</ele>
        <time>2016-10-30T11:53:37Z</time>
      </trkpt>
      <trkpt lat="38.336651" lon="-1.467880">
        <ele>355.8</ele>
        <time>2016-10-30T11:53:54Z</time>
      </trkpt>
      <trkpt lat="38.336714" lon="-1.468119">
        <ele>356.8</ele>
        <time>2016-10-30T11:54:08Z</time>
      </trkpt>
      <trkpt lat="38.336807" lon="-1.468360">
        <ele>357.8</ele>
        <time>2016-10-30T11:54:23Z</time>
      </trkpt>
      <trkpt lat="38.336933" lon="-1.468512">
        <ele>358.2</ele>
        <time>2016-10-30T11:54:36Z</time>
      </trkpt>
      <trkpt lat="38.336962" lon="-1.468541">
        <ele>358.7</ele>
        <time>2016-10-30T11:54:41Z</time>
      </trkpt>
      <trkpt lat="38.337103" lon="-1.468707">
        <ele>358.7</ele>
        <time>2016-10-30T11:54:57Z</time>
      </trkpt>
      <trkpt lat="38.337151" lon="-1.468906">
        <ele>358.7</ele>
        <time>2016-10-30T11:55:10Z</time>
      </trkpt>
      <trkpt lat="38.337073" lon="-1.469091">
        <ele>358.7</ele>
        <time>2016-10-30T11:55:24Z</time>
      </trkpt>
      <trkpt lat="38.336935" lon="-1.469417">
        <ele>358.2</ele>
        <time>2016-10-30T11:55:45Z</time>
      </trkpt>
      <trkpt lat="38.336885" lon="-1.469590">
        <ele>358.2</ele>
        <time>2016-10-30T11:56:00Z</time>
      </trkpt>
      <trkpt lat="38.336809" lon="-1.469754">
        <ele>356.8</ele>
        <time>2016-10-30T11:56:14Z</time>
      </trkpt>
      <trkpt lat="38.336766" lon="-1.469856">
        <ele>360.6</ele>
        <time>2016-10-30T11:56:20Z</time>
      </trkpt>
      <trkpt lat="38.336652" lon="-1.470163">
        <ele>358.2</ele>
        <time>2016-10-30T11:56:38Z</time>
      </trkpt>
      <trkpt lat="38.336616" lon="-1.470218">
        <ele>358.2</ele>
        <time>2016-10-30T11:56:42Z</time>
      </trkpt>
      <trkpt lat="38.336518" lon="-1.470439">
        <ele>360.1</ele>
        <time>2016-10-30T11:56:58Z</time>
      </trkpt>
      <trkpt lat="38.336418" lon="-1.470714">
        <ele>360.6</ele>
        <time>2016-10-30T11:57:16Z</time>
      </trkpt>
      <trkpt lat="38.336322" lon="-1.470969">
        <ele>361.6</ele>
        <time>2016-10-30T11:57:32Z</time>
      </trkpt>
      <trkpt lat="38.336248" lon="-1.471218">
        <ele>361.6</ele>
        <time>2016-10-30T11:57:48Z</time>
      </trkpt>
      <trkpt lat="38.336178" lon="-1.471472">
        <ele>361.6</ele>
        <time>2016-10-30T11:58:04Z</time>
      </trkpt>
      <trkpt lat="38.336106" lon="-1.471750">
        <ele>361.6</ele>
        <time>2016-10-30T11:58:21Z</time>
      </trkpt>
      <trkpt lat="38.336053" lon="-1.471969">
        <ele>362.1</ele>
        <time>2016-10-30T11:58:35Z</time>
      </trkpt>
      <trkpt lat="38.335993" lon="-1.472181">
        <ele>362.1</ele>
        <time>2016-10-30T11:58:49Z</time>
      </trkpt>
      <trkpt lat="38.335934" lon="-1.472443">
        <ele>362.1</ele>
        <time>2016-10-30T11:59:05Z</time>
      </trkpt>
      <trkpt lat="38.335849" lon="-1.472741">
        <ele>362.1</ele>
        <time>2016-10-30T11:59:23Z</time>
      </trkpt>
      <trkpt lat="38.335846" lon="-1.472770">
        <ele>362.5</ele>
        <time>2016-10-30T11:59:25Z</time>
      </trkpt>
      <trkpt lat="38.335822" lon="-1.472846">
        <ele>362.1</ele>
        <time>2016-10-30T11:59:30Z</time>
      </trkpt>
      <trkpt lat="38.335809" lon="-1.472910">
        <ele>362.1</ele>
        <time>2016-10-30T11:59:35Z</time>
      </trkpt>
      <trkpt lat="38.335729" lon="-1.473204">
        <ele>362.1</ele>
        <time>2016-10-30T11:59:53Z</time>
      </trkpt>
      <trkpt lat="38.335733" lon="-1.473216">
        <ele>362.5</ele>
        <time>2016-10-30T11:59:55Z</time>
      </trkpt>
      <trkpt lat="38.335722" lon="-1.473267">
        <ele>362.1</ele>
        <time>2016-10-30T11:59:59Z</time>
      </trkpt>
      <trkpt lat="38.335636" lon="-1.473567">
        <ele>362.1</ele>
        <time>2016-10-30T12:00:17Z</time>
      </trkpt>
      <trkpt lat="38.335592" lon="-1.473789">
        <ele>361.6</ele>
        <time>2016-10-30T12:00:30Z</time>
      </trkpt>
      <trkpt lat="38.335552" lon="-1.474045">
        <ele>361.1</ele>
        <time>2016-10-30T12:00:46Z</time>
      </trkpt>
      <trkpt lat="38.335508" lon="-1.474299">
        <ele>361.6</ele>
        <time>2016-10-30T12:01:02Z</time>
      </trkpt>
      <trkpt lat="38.335458" lon="-1.474591">
        <ele>362.1</ele>
        <time>2016-10-30T12:01:19Z</time>
      </trkpt>
      <trkpt lat="38.335469" lon="-1.474648">
        <ele>362.1</ele>
        <time>2016-10-30T12:01:23Z</time>
      </trkpt>
      <trkpt lat="38.335570" lon="-1.474938">
        <ele>363.0</ele>
        <time>2016-10-30T12:01:42Z</time>
      </trkpt>
      <trkpt lat="38.335618" lon="-1.475180">
        <ele>360.1</ele>
        <time>2016-10-30T12:01:56Z</time>
      </trkpt>
      <trkpt lat="38.335621" lon="-1.475219">
        <ele>359.7</ele>
        <time>2016-10-30T12:01:58Z</time>
      </trkpt>
      <trkpt lat="38.335663" lon="-1.475373">
        <ele>359.2</ele>
        <time>2016-10-30T12:02:07Z</time>
      </trkpt>
      <trkpt lat="38.335727" lon="-1.475581">
        <ele>355.3</ele>
        <time>2016-10-30T12:02:21Z</time>
      </trkpt>
      <trkpt lat="38.335738" lon="-1.475620">
        <ele>354.9</ele>
        <time>2016-10-30T12:02:23Z</time>
      </trkpt>
      <trkpt lat="38.335792" lon="-1.475990">
        <ele>352.9</ele>
        <time>2016-10-30T12:02:43Z</time>
      </trkpt>
      <trkpt lat="38.335929" lon="-1.476196">
        <ele>353.4</ele>
        <time>2016-10-30T12:02:58Z</time>
      </trkpt>
      <trkpt lat="38.336018" lon="-1.476375">
        <ele>354.9</ele>
        <time>2016-10-30T12:03:11Z</time>
      </trkpt>
      <trkpt lat="38.336044" lon="-1.476425">
        <ele>354.9</ele>
        <time>2016-10-30T12:03:15Z</time>
      </trkpt>
      <trkpt lat="38.336214" lon="-1.476669">
        <ele>356.3</ele>
        <time>2016-10-30T12:03:33Z</time>
      </trkpt>
      <trkpt lat="38.336274" lon="-1.476794">
        <ele>356.3</ele>
        <time>2016-10-30T12:03:42Z</time>
      </trkpt>
      <trkpt lat="38.336446" lon="-1.477030">
        <ele>356.8</ele>
        <time>2016-10-30T12:04:01Z</time>
      </trkpt>
      <trkpt lat="38.336452" lon="-1.477045">
        <ele>356.8</ele>
        <time>2016-10-30T12:04:02Z</time>
      </trkpt>
      <trkpt lat="38.336590" lon="-1.477238">
        <ele>358.7</ele>
        <time>2016-10-30T12:04:19Z</time>
      </trkpt>
      <trkpt lat="38.336717" lon="-1.477430">
        <ele>359.2</ele>
        <time>2016-10-30T12:04:34Z</time>
      </trkpt>
      <trkpt lat="38.336850" lon="-1.477640">
        <ele>359.7</ele>
        <time>2016-10-30T12:04:50Z</time>
      </trkpt>
      <trkpt lat="38.336910" lon="-1.477725">
        <ele>360.6</ele>
        <time>2016-10-30T12:04:57Z</time>
      </trkpt>
      <trkpt lat="38.336990" lon="-1.477818">
        <ele>361.1</ele>
        <time>2016-10-30T12:05:05Z</time>
      </trkpt>
      <trkpt lat="38.337015" lon="-1.477838">
        <ele>361.6</ele>
        <time>2016-10-30T12:05:11Z</time>
      </trkpt>
      <trkpt lat="38.337054" lon="-1.477902">
        <ele>362.5</ele>
        <time>2016-10-30T12:05:21Z</time>
      </trkpt>
      <trkpt lat="38.337125" lon="-1.478001">
        <ele>362.5</ele>
        <time>2016-10-30T12:05:33Z</time>
      </trkpt>
      <trkpt lat="38.337174" lon="-1.478158">
        <ele>364.5</ele>
        <time>2016-10-30T12:05:44Z</time>
      </trkpt>
      <trkpt lat="38.337218" lon="-1.478186">
        <ele>364.0</ele>
        <time>2016-10-30T12:05:48Z</time>
      </trkpt>
      <trkpt lat="38.337247" lon="-1.478258">
        <ele>364.5</ele>
        <time>2016-10-30T12:06:04Z</time>
      </trkpt>
      <trkpt lat="38.337245" lon="-1.478266">
        <ele>364.5</ele>
        <time>2016-10-30T12:06:15Z</time>
      </trkpt>
      <trkpt lat="38.337291" lon="-1.478356">
        <ele>364.5</ele>
        <time>2016-10-30T12:06:21Z</time>
      </trkpt>
      <trkpt lat="38.337343" lon="-1.478452">
        <ele>364.5</ele>
        <time>2016-10-30T12:06:27Z</time>
      </trkpt>
      <trkpt lat="38.337384" lon="-1.478527">
        <ele>365.0</ele>
        <time>2016-10-30T12:06:42Z</time>
      </trkpt>
      <trkpt lat="38.337442" lon="-1.478653">
        <ele>365.4</ele>
        <time>2016-10-30T12:06:47Z</time>
      </trkpt>
      <trkpt lat="38.337494" lon="-1.478750">
        <ele>365.0</ele>
        <time>2016-10-30T12:06:57Z</time>
      </trkpt>
      <trkpt lat="38.337626" lon="-1.479042">
        <ele>365.4</ele>
        <time>2016-10-30T12:07:15Z</time>
      </trkpt>
      <trkpt lat="38.337780" lon="-1.479383">
        <ele>366.4</ele>
        <time>2016-10-30T12:07:37Z</time>
      </trkpt>
      <trkpt lat="38.337890" lon="-1.479647">
        <ele>365.4</ele>
        <time>2016-10-30T12:07:56Z</time>
      </trkpt>
      <trkpt lat="38.337959" lon="-1.479833">
        <ele>366.4</ele>
        <time>2016-10-30T12:08:11Z</time>
      </trkpt>
      <trkpt lat="38.337969" lon="-1.479841">
        <ele>365.9</ele>
        <time>2016-10-30T12:08:12Z</time>
      </trkpt>
      <trkpt lat="38.337992" lon="-1.479881">
        <ele>366.4</ele>
        <time>2016-10-30T12:08:16Z</time>
      </trkpt>
      <trkpt lat="38.338027" lon="-1.479951">
        <ele>366.4</ele>
        <time>2016-10-30T12:08:21Z</time>
      </trkpt>
      <trkpt lat="38.338163" lon="-1.480186">
        <ele>366.9</ele>
        <time>2016-10-30T12:08:39Z</time>
      </trkpt>
      <trkpt lat="38.338283" lon="-1.480381">
        <ele>366.9</ele>
        <time>2016-10-30T12:08:55Z</time>
      </trkpt>
      <trkpt lat="38.338390" lon="-1.480557">
        <ele>366.9</ele>
        <time>2016-10-30T12:09:11Z</time>
      </trkpt>
      <trkpt lat="38.338487" lon="-1.480718">
        <ele>367.4</ele>
        <time>2016-10-30T12:09:28Z</time>
      </trkpt>
      <trkpt lat="38.338582" lon="-1.480897">
        <ele>366.9</ele>
        <time>2016-10-30T12:09:44Z</time>
      </trkpt>
      <trkpt lat="38.338734" lon="-1.481086">
        <ele>366.4</ele>
        <time>2016-10-30T12:10:02Z</time>
      </trkpt>
      <trkpt lat="38.338809" lon="-1.481200">
        <ele>365.9</ele>
        <time>2016-10-30T12:10:17Z</time>
      </trkpt>
      <trkpt lat="38.338799" lon="-1.481204">
        <ele>365.4</ele>
        <time>2016-10-30T12:10:31Z</time>
      </trkpt>
      <trkpt lat="38.338865" lon="-1.481293">
        <ele>365.4</ele>
        <time>2016-10-30T12:10:44Z</time>
      </trkpt>
      <trkpt lat="38.338871" lon="-1.481310">
        <ele>364.5</ele>
        <time>2016-10-30T12:10:56Z</time>
      </trkpt>
      <trkpt lat="38.338958" lon="-1.481449">
        <ele>362.5</ele>
        <time>2016-10-30T12:11:08Z</time>
      </trkpt>
      <trkpt lat="38.339031" lon="-1.481562">
        <ele>363.5</ele>
        <time>2016-10-30T12:11:18Z</time>
      </trkpt>
      <trkpt lat="38.339074" lon="-1.481610">
        <ele>363.5</ele>
        <time>2016-10-30T12:11:23Z</time>
      </trkpt>
      <trkpt lat="38.339168" lon="-1.481772">
        <ele>364.5</ele>
        <time>2016-10-30T12:11:38Z</time>
      </trkpt>
      <trkpt lat="38.339227" lon="-1.481904">
        <ele>365.9</ele>
        <time>2016-10-30T12:11:53Z</time>
      </trkpt>
      <trkpt lat="38.339317" lon="-1.482068">
        <ele>366.9</ele>
        <time>2016-10-30T12:12:04Z</time>
      </trkpt>
      <trkpt lat="38.339401" lon="-1.482192">
        <ele>368.3</ele>
        <time>2016-10-30T12:12:14Z</time>
      </trkpt>
      <trkpt lat="38.339441" lon="-1.482251">
        <ele>368.3</ele>
        <time>2016-10-30T12:12:19Z</time>
      </trkpt>
      <trkpt lat="38.339468" lon="-1.482293">
        <ele>368.8</ele>
        <time>2016-10-30T12:12:23Z</time>
      </trkpt>
      <trkpt lat="38.339484" lon="-1.482328">
        <ele>368.8</ele>
        <time>2016-10-30T12:12:26Z</time>
      </trkpt>
      <trkpt lat="38.339521" lon="-1.482380">
        <ele>368.8</ele>
        <time>2016-10-30T12:12:31Z</time>
      </trkpt>
      <trkpt lat="38.339563" lon="-1.482482">
        <ele>369.8</ele>
        <time>2016-10-30T12:12:38Z</time>
      </trkpt>
      <trkpt lat="38.339595" lon="-1.482536">
        <ele>369.3</ele>
        <time>2016-10-30T12:12:43Z</time>
      </trkpt>
      <trkpt lat="38.339627" lon="-1.482610">
        <ele>369.8</ele>
        <time>2016-10-30T12:12:49Z</time>
      </trkpt>
      <trkpt lat="38.339692" lon="-1.482787">
        <ele>369.8</ele>
        <time>2016-10-30T12:13:02Z</time>
      </trkpt>
      <trkpt lat="38.339719" lon="-1.482853">
        <ele>370.2</ele>
        <time>2016-10-30T12:13:08Z</time>
      </trkpt>
      <trkpt lat="38.339765" lon="-1.482998">
        <ele>369.3</ele>
        <time>2016-10-30T12:13:18Z</time>
      </trkpt>
      <trkpt lat="38.339866" lon="-1.483222">
        <ele>366.9</ele>
        <time>2016-10-30T12:13:34Z</time>
      </trkpt>
      <trkpt lat="38.339873" lon="-1.483266">
        <ele>367.8</ele>
        <time>2016-10-30T12:13:37Z</time>
      </trkpt>
      <trkpt lat="38.339903" lon="-1.483330">
        <ele>368.3</ele>
        <time>2016-10-30T12:13:42Z</time>
      </trkpt>
      <trkpt lat="38.339992" lon="-1.483667">
        <ele>362.5</ele>
        <time>2016-10-30T12:14:20Z</time>
      </trkpt>
      <trkpt lat="38.339969" lon="-1.483906">
        <ele>362.5</ele>
        <time>2016-10-30T12:14:43Z</time>
      </trkpt>
      <trkpt lat="38.340013" lon="-1.484038">
        <ele>364.0</ele>
        <time>2016-10-30T12:14:54Z</time>
      </trkpt>
      <trkpt lat="38.340040" lon="-1.484168">
        <ele>366.9</ele>
        <time>2016-10-30T12:15:05Z</time>
      </trkpt>
      <trkpt lat="38.340054" lon="-1.484249">
        <ele>368.3</ele>
        <time>2016-10-30T12:15:12Z</time>
      </trkpt>
      <trkpt lat="38.340135" lon="-1.484417">
        <ele>370.2</ele>
        <time>2016-10-30T12:15:24Z</time>
      </trkpt>
      <trkpt lat="38.340223" lon="-1.484683">
        <ele>371.7</ele>
        <time>2016-10-30T12:15:41Z</time>
      </trkpt>
      <trkpt lat="38.340245" lon="-1.484727">
        <ele>371.7</ele>
        <time>2016-10-30T12:15:44Z</time>
      </trkpt>
      <trkpt lat="38.340277" lon="-1.484787">
        <ele>372.2</ele>
        <time>2016-10-30T12:15:49Z</time>
      </trkpt>
      <trkpt lat="38.340327" lon="-1.484880">
        <ele>371.7</ele>
        <time>2016-10-30T12:15:56Z</time>
      </trkpt>
      <trkpt lat="38.340425" lon="-1.485130">
        <ele>372.2</ele>
        <time>2016-10-30T12:16:11Z</time>
      </trkpt>
      <trkpt lat="38.340551" lon="-1.485361">
        <ele>373.6</ele>
        <time>2016-10-30T12:16:26Z</time>
      </trkpt>
      <trkpt lat="38.340585" lon="-1.485482">
        <ele>374.1</ele>
        <time>2016-10-30T12:16:33Z</time>
      </trkpt>
      <trkpt lat="38.340727" lon="-1.485730">
        <ele>374.1</ele>
        <time>2016-10-30T12:16:51Z</time>
      </trkpt>
      <trkpt lat="38.340824" lon="-1.485909">
        <ele>374.1</ele>
        <time>2016-10-30T12:17:04Z</time>
      </trkpt>
      <trkpt lat="38.340944" lon="-1.486164">
        <ele>373.1</ele>
        <time>2016-10-30T12:17:21Z</time>
      </trkpt>
      <trkpt lat="38.341042" lon="-1.486340">
        <ele>371.2</ele>
        <time>2016-10-30T12:17:34Z</time>
      </trkpt>
      <trkpt lat="38.341059" lon="-1.486368">
        <ele>370.2</ele>
        <time>2016-10-30T12:17:36Z</time>
      </trkpt>
      <trkpt lat="38.341084" lon="-1.486462">
        <ele>372.2</ele>
        <time>2016-10-30T12:17:42Z</time>
      </trkpt>
      <trkpt lat="38.341141" lon="-1.486618">
        <ele>375.5</ele>
        <time>2016-10-30T12:17:52Z</time>
      </trkpt>
      <trkpt lat="38.341191" lon="-1.486741">
        <ele>376.5</ele>
        <time>2016-10-30T12:18:06Z</time>
      </trkpt>
      <trkpt lat="38.341224" lon="-1.486839">
        <ele>377.0</ele>
        <time>2016-10-30T12:18:24Z</time>
      </trkpt>
      <trkpt lat="38.341233" lon="-1.486849">
        <ele>377.0</ele>
        <time>2016-10-30T12:18:36Z</time>
      </trkpt>
      <trkpt lat="38.341272" lon="-1.486936">
        <ele>377.0</ele>
        <time>2016-10-30T12:18:55Z</time>
      </trkpt>
      <trkpt lat="38.341314" lon="-1.487079">
        <ele>377.9</ele>
        <time>2016-10-30T12:19:06Z</time>
      </trkpt>
      <trkpt lat="38.341394" lon="-1.487341">
        <ele>377.9</ele>
        <time>2016-10-30T12:19:22Z</time>
      </trkpt>
      <trkpt lat="38.341593" lon="-1.487874">
        <ele>378.4</ele>
        <time>2016-10-30T12:20:08Z</time>
      </trkpt>
      <trkpt lat="38.341592" lon="-1.487883">
        <ele>378.4</ele>
        <time>2016-10-30T12:20:17Z</time>
      </trkpt>
      <trkpt lat="38.341593" lon="-1.487868">
        <ele>378.4</ele>
        <time>2016-10-30T12:20:32Z</time>
      </trkpt>
      <trkpt lat="38.341575" lon="-1.487859">
        <ele>377.9</ele>
        <time>2016-10-30T12:20:43Z</time>
      </trkpt>
      <trkpt lat="38.341585" lon="-1.487874">
        <ele>378.4</ele>
        <time>2016-10-30T12:20:46Z</time>
      </trkpt>
      <trkpt lat="38.341614" lon="-1.487913">
        <ele>378.4</ele>
        <time>2016-10-30T12:20:52Z</time>
      </trkpt>
      <trkpt lat="38.341722" lon="-1.488065">
        <ele>377.9</ele>
        <time>2016-10-30T12:21:07Z</time>
      </trkpt>
      <trkpt lat="38.341756" lon="-1.488141">
        <ele>377.9</ele>
        <time>2016-10-30T12:21:13Z</time>
      </trkpt>
      <trkpt lat="38.341844" lon="-1.488232">
        <ele>378.4</ele>
        <time>2016-10-30T12:21:25Z</time>
      </trkpt>
      <trkpt lat="38.341908" lon="-1.488333">
        <ele>378.4</ele>
        <time>2016-10-30T12:21:34Z</time>
      </trkpt>
      <trkpt lat="38.342052" lon="-1.488505">
        <ele>377.0</ele>
        <time>2016-10-30T12:21:49Z</time>
      </trkpt>
      <trkpt lat="38.342057" lon="-1.488516">
        <ele>377.5</ele>
        <time>2016-10-30T12:21:50Z</time>
      </trkpt>
      <trkpt lat="38.342137" lon="-1.488650">
        <ele>378.9</ele>
        <time>2016-10-30T12:22:04Z</time>
      </trkpt>
      <trkpt lat="38.342145" lon="-1.488661">
        <ele>379.4</ele>
        <time>2016-10-30T12:22:08Z</time>
      </trkpt>
      <trkpt lat="38.342189" lon="-1.488706">
        <ele>379.9</ele>
        <time>2016-10-30T12:22:12Z</time>
      </trkpt>
      <trkpt lat="38.342314" lon="-1.488892">
        <ele>380.8</ele>
        <time>2016-10-30T12:22:26Z</time>
      </trkpt>
      <trkpt lat="38.342393" lon="-1.489023">
        <ele>381.8</ele>
        <time>2016-10-30T12:22:41Z</time>
      </trkpt>
      <trkpt lat="38.342400" lon="-1.489029">
        <ele>381.3</ele>
        <time>2016-10-30T12:22:43Z</time>
      </trkpt>
      <trkpt lat="38.342516" lon="-1.489236">
        <ele>382.7</ele>
        <time>2016-10-30T12:22:58Z</time>
      </trkpt>
      <trkpt lat="38.342540" lon="-1.489302">
        <ele>382.7</ele>
        <time>2016-10-30T12:23:02Z</time>
      </trkpt>
      <trkpt lat="38.342650" lon="-1.489458">
        <ele>383.2</ele>
        <time>2016-10-30T12:23:15Z</time>
      </trkpt>
      <trkpt lat="38.342754" lon="-1.489675">
        <ele>384.7</ele>
        <time>2016-10-30T12:23:29Z</time>
      </trkpt>
      <trkpt lat="38.342867" lon="-1.489874">
        <ele>384.7</ele>
        <time>2016-10-30T12:23:43Z</time>
      </trkpt>
      <trkpt lat="38.342978" lon="-1.490114">
        <ele>385.6</ele>
        <time>2016-10-30T12:23:59Z</time>
      </trkpt>
      <trkpt lat="38.343027" lon="-1.490199">
        <ele>385.6</ele>
        <time>2016-10-30T12:24:06Z</time>
      </trkpt>
      <trkpt lat="38.343070" lon="-1.490280">
        <ele>385.6</ele>
        <time>2016-10-30T12:24:19Z</time>
      </trkpt>
      <trkpt lat="38.343167" lon="-1.490429">
        <ele>386.1</ele>
        <time>2016-10-30T12:24:30Z</time>
      </trkpt>
      <trkpt lat="38.343242" lon="-1.490614">
        <ele>386.6</ele>
        <time>2016-10-30T12:24:42Z</time>
      </trkpt>
      <trkpt lat="38.343267" lon="-1.490691">
        <ele>386.1</ele>
        <time>2016-10-30T12:24:50Z</time>
      </trkpt>
      <trkpt lat="38.343351" lon="-1.490844">
        <ele>384.2</ele>
        <time>2016-10-30T12:25:00Z</time>
      </trkpt>
      <trkpt lat="38.343391" lon="-1.490945">
        <ele>383.7</ele>
        <time>2016-10-30T12:25:06Z</time>
      </trkpt>
      <trkpt lat="38.343518" lon="-1.491155">
        <ele>381.8</ele>
        <time>2016-10-30T12:25:21Z</time>
      </trkpt>
      <trkpt lat="38.343534" lon="-1.491203">
        <ele>381.3</ele>
        <time>2016-10-30T12:25:24Z</time>
      </trkpt>
      <trkpt lat="38.343573" lon="-1.491239">
        <ele>380.8</ele>
        <time>2016-10-30T12:25:28Z</time>
      </trkpt>
      <trkpt lat="38.343596" lon="-1.491367">
        <ele>382.3</ele>
        <time>2016-10-30T12:25:37Z</time>
      </trkpt>
      <trkpt lat="38.343616" lon="-1.491402">
        <ele>383.7</ele>
        <time>2016-10-30T12:25:40Z</time>
      </trkpt>
      <trkpt lat="38.343641" lon="-1.491463">
        <ele>384.7</ele>
        <time>2016-10-30T12:25:45Z</time>
      </trkpt>
      <trkpt lat="38.343681" lon="-1.491571">
        <ele>385.1</ele>
        <time>2016-10-30T12:25:57Z</time>
      </trkpt>
      <trkpt lat="38.343707" lon="-1.491663">
        <ele>386.1</ele>
        <time>2016-10-30T12:26:03Z</time>
      </trkpt>
      <trkpt lat="38.343734" lon="-1.491939">
        <ele>386.1</ele>
        <time>2016-10-30T12:26:19Z</time>
      </trkpt>
      <trkpt lat="38.343736" lon="-1.492031">
        <ele>387.1</ele>
        <time>2016-10-30T12:26:31Z</time>
      </trkpt>
      <trkpt lat="38.343744" lon="-1.492039">
        <ele>386.6</ele>
        <time>2016-10-30T12:26:35Z</time>
      </trkpt>
      <trkpt lat="38.343751" lon="-1.492088">
        <ele>387.1</ele>
        <time>2016-10-30T12:26:39Z</time>
      </trkpt>
      <trkpt lat="38.343771" lon="-1.492125">
        <ele>387.1</ele>
        <time>2016-10-30T12:26:42Z</time>
      </trkpt>
      <trkpt lat="38.343752" lon="-1.492282">
        <ele>387.1</ele>
        <time>2016-10-30T12:26:51Z</time>
      </trkpt>
      <trkpt lat="38.343760" lon="-1.492323">
        <ele>387.1</ele>
        <time>2016-10-30T12:26:54Z</time>
      </trkpt>
      <trkpt lat="38.343759" lon="-1.492395">
        <ele>387.1</ele>
        <time>2016-10-30T12:26:58Z</time>
      </trkpt>
      <trkpt lat="38.343778" lon="-1.492503">
        <ele>386.6</ele>
        <time>2016-10-30T12:27:05Z</time>
      </trkpt>
      <trkpt lat="38.343800" lon="-1.492698">
        <ele>385.1</ele>
        <time>2016-10-30T12:27:18Z</time>
      </trkpt>
      <trkpt lat="38.343812" lon="-1.492786">
        <ele>384.7</ele>
        <time>2016-10-30T12:27:23Z</time>
      </trkpt>
      <trkpt lat="38.343821" lon="-1.492866">
        <ele>386.6</ele>
        <time>2016-10-30T12:27:28Z</time>
      </trkpt>
      <trkpt lat="38.343791" lon="-1.492880">
        <ele>386.6</ele>
        <time>2016-10-30T12:27:31Z</time>
      </trkpt>
      <trkpt lat="38.343773" lon="-1.492897">
        <ele>386.6</ele>
        <time>2016-10-30T12:27:33Z</time>
      </trkpt>
      <trkpt lat="38.343773" lon="-1.492983">
        <ele>387.5</ele>
        <time>2016-10-30T12:27:38Z</time>
      </trkpt>
      <trkpt lat="38.343794" lon="-1.493233">
        <ele>389.0</ele>
        <time>2016-10-30T12:27:52Z</time>
      </trkpt>
      <trkpt lat="38.343786" lon="-1.493399">
        <ele>390.4</ele>
        <time>2016-10-30T12:28:03Z</time>
      </trkpt>
      <trkpt lat="38.343780" lon="-1.493453">
        <ele>390.4</ele>
        <time>2016-10-30T12:28:12Z</time>
      </trkpt>
      <trkpt lat="38.343779" lon="-1.493472">
        <ele>390.4</ele>
        <time>2016-10-30T12:28:20Z</time>
      </trkpt>
      <trkpt lat="38.343765" lon="-1.493514">
        <ele>390.4</ele>
        <time>2016-10-30T12:28:23Z</time>
      </trkpt>
      <trkpt lat="38.343765" lon="-1.493570">
        <ele>389.5</ele>
        <time>2016-10-30T12:28:26Z</time>
      </trkpt>
      <trkpt lat="38.343746" lon="-1.493648">
        <ele>389.5</ele>
        <time>2016-10-30T12:28:37Z</time>
      </trkpt>
      <trkpt lat="38.343758" lon="-1.493693">
        <ele>389.5</ele>
        <time>2016-10-30T12:28:52Z</time>
      </trkpt>
      <trkpt lat="38.343743" lon="-1.493764">
        <ele>389.5</ele>
        <time>2016-10-30T12:28:57Z</time>
      </trkpt>
      <trkpt lat="38.343690" lon="-1.494073">
        <ele>388.5</ele>
        <time>2016-10-30T12:29:15Z</time>
      </trkpt>
      <trkpt lat="38.343660" lon="-1.494323">
        <ele>389.0</ele>
        <time>2016-10-30T12:29:30Z</time>
      </trkpt>
      <trkpt lat="38.343626" lon="-1.494427">
        <ele>388.5</ele>
        <time>2016-10-30T12:29:40Z</time>
      </trkpt>
      <trkpt lat="38.343589" lon="-1.494642">
        <ele>387.5</ele>
        <time>2016-10-30T12:29:53Z</time>
      </trkpt>
      <trkpt lat="38.343592" lon="-1.494852">
        <ele>386.1</ele>
        <time>2016-10-30T12:30:07Z</time>
      </trkpt>
      <trkpt lat="38.343602" lon="-1.494866">
        <ele>386.6</ele>
        <time>2016-10-30T12:30:08Z</time>
      </trkpt>
      <trkpt lat="38.343557" lon="-1.495025">
        <ele>387.1</ele>
        <time>2016-10-30T12:30:20Z</time>
      </trkpt>
      <trkpt lat="38.343555" lon="-1.495029">
        <ele>387.1</ele>
        <time>2016-10-30T12:30:25Z</time>
      </trkpt>
      <trkpt lat="38.343494" lon="-1.495187">
        <ele>387.1</ele>
        <time>2016-10-30T12:30:35Z</time>
      </trkpt>
      <trkpt lat="38.343460" lon="-1.495333">
        <ele>388.0</ele>
        <time>2016-10-30T12:30:48Z</time>
      </trkpt>
      <trkpt lat="38.343470" lon="-1.495353">
        <ele>388.0</ele>
        <time>2016-10-30T12:31:09Z</time>
      </trkpt>
      <trkpt lat="38.343451" lon="-1.495380">
        <ele>390.0</ele>
        <time>2016-10-30T12:31:19Z</time>
      </trkpt>
      <trkpt lat="38.343458" lon="-1.495390">
        <ele>388.5</ele>
        <time>2016-10-30T12:31:20Z</time>
      </trkpt>
      <trkpt lat="38.343416" lon="-1.495509">
        <ele>388.0</ele>
        <time>2016-10-30T12:31:31Z</time>
      </trkpt>
      <trkpt lat="38.343345" lon="-1.495771">
        <ele>387.5</ele>
        <time>2016-10-30T12:31:48Z</time>
      </trkpt>
      <trkpt lat="38.343268" lon="-1.496040">
        <ele>387.5</ele>
        <time>2016-10-30T12:32:05Z</time>
      </trkpt>
      <trkpt lat="38.343195" lon="-1.496271">
        <ele>387.1</ele>
        <time>2016-10-30T12:32:20Z</time>
      </trkpt>
      <trkpt lat="38.343119" lon="-1.496542">
        <ele>387.1</ele>
        <time>2016-10-30T12:32:37Z</time>
      </trkpt>
      <trkpt lat="38.343118" lon="-1.496560">
        <ele>387.1</ele>
        <time>2016-10-30T12:32:38Z</time>
      </trkpt>
      <trkpt lat="38.343010" lon="-1.496870">
        <ele>388.0</ele>
        <time>2016-10-30T12:32:59Z</time>
      </trkpt>
      <trkpt lat="38.342970" lon="-1.496970">
        <ele>387.5</ele>
        <time>2016-10-30T12:33:06Z</time>
      </trkpt>
      <trkpt lat="38.342840" lon="-1.497304">
        <ele>386.6</ele>
        <time>2016-10-30T12:33:29Z</time>
      </trkpt>
      <trkpt lat="38.342750" lon="-1.497521">
        <ele>386.1</ele>
        <time>2016-10-30T12:33:45Z</time>
      </trkpt>
      <trkpt lat="38.342656" lon="-1.497762">
        <ele>385.1</ele>
        <time>2016-10-30T12:34:02Z</time>
      </trkpt>
      <trkpt lat="38.342494" lon="-1.497959">
        <ele>384.7</ele>
        <time>2016-10-30T12:34:19Z</time>
      </trkpt>
      <trkpt lat="38.342375" lon="-1.498156">
        <ele>383.2</ele>
        <time>2016-10-30T12:34:35Z</time>
      </trkpt>
      <trkpt lat="38.342330" lon="-1.498361">
        <ele>379.9</ele>
        <time>2016-10-30T12:34:49Z</time>
      </trkpt>
      <trkpt lat="38.342333" lon="-1.498613">
        <ele>376.5</ele>
        <time>2016-10-30T12:35:07Z</time>
      </trkpt>
      <trkpt lat="38.342331" lon="-1.498731">
        <ele>376.0</ele>
        <time>2016-10-30T12:35:14Z</time>
      </trkpt>
      <trkpt lat="38.342319" lon="-1.498759">
        <ele>376.0</ele>
        <time>2016-10-30T12:35:16Z</time>
      </trkpt>
      <trkpt lat="38.342295" lon="-1.498866">
        <ele>376.0</ele>
        <time>2016-10-30T12:35:23Z</time>
      </trkpt>
      <trkpt lat="38.342307" lon="-1.499121">
        <ele>376.5</ele>
        <time>2016-10-30T12:35:39Z</time>
      </trkpt>
      <trkpt lat="38.342323" lon="-1.499221">
        <ele>377.0</ele>
        <time>2016-10-30T12:35:45Z</time>
      </trkpt>
      <trkpt lat="38.342337" lon="-1.499453">
        <ele>377.9</ele>
        <time>2016-10-30T12:36:02Z</time>
      </trkpt>
      <trkpt lat="38.342289" lon="-1.499517">
        <ele>377.9</ele>
        <time>2016-10-30T12:36:08Z</time>
      </trkpt>
      <trkpt lat="38.342118" lon="-1.499651">
        <ele>377.9</ele>
        <time>2016-10-30T12:36:24Z</time>
      </trkpt>
      <trkpt lat="38.341897" lon="-1.499740">
        <ele>376.5</ele>
        <time>2016-10-30T12:36:42Z</time>
      </trkpt>
      <trkpt lat="38.341658" lon="-1.499801">
        <ele>375.5</ele>
        <time>2016-10-30T12:37:00Z</time>
      </trkpt>
      <trkpt lat="38.341447" lon="-1.499945">
        <ele>374.1</ele>
        <time>2016-10-30T12:37:18Z</time>
      </trkpt>
      <trkpt lat="38.341318" lon="-1.500212">
        <ele>373.1</ele>
        <time>2016-10-30T12:37:36Z</time>
      </trkpt>
      <trkpt lat="38.341372" lon="-1.500320">
        <ele>373.1</ele>
        <time>2016-10-30T12:37:42Z</time>
      </trkpt>
      <trkpt lat="38.341535" lon="-1.500449">
        <ele>374.6</ele>
        <time>2016-10-30T12:37:57Z</time>
      </trkpt>
      <trkpt lat="38.341564" lon="-1.500484">
        <ele>374.6</ele>
        <time>2016-10-30T12:38:00Z</time>
      </trkpt>
      <trkpt lat="38.341616" lon="-1.500580">
        <ele>376.5</ele>
        <time>2016-10-30T12:38:08Z</time>
      </trkpt>
      <trkpt lat="38.341576" lon="-1.500715">
        <ele>378.9</ele>
        <time>2016-10-30T12:38:22Z</time>
      </trkpt>
      <trkpt lat="38.341487" lon="-1.500841">
        <ele>379.9</ele>
        <time>2016-10-30T12:38:34Z</time>
      </trkpt>
      <trkpt lat="38.341426" lon="-1.501075">
        <ele>381.3</ele>
        <time>2016-10-30T12:38:49Z</time>
      </trkpt>
      <trkpt lat="38.341389" lon="-1.501298">
        <ele>382.7</ele>
        <time>2016-10-30T12:39:03Z</time>
      </trkpt>
      <trkpt lat="38.341369" lon="-1.501520">
        <ele>382.7</ele>
        <time>2016-10-30T12:40:18Z</time>
      </trkpt>
      <trkpt lat="38.341368" lon="-1.501572">
        <ele>383.2</ele>
        <time>2016-10-30T12:42:29Z</time>
      </trkpt>
      <trkpt lat="38.341269" lon="-1.501843">
        <ele>382.7</ele>
        <time>2016-10-30T12:42:46Z</time>
      </trkpt>
      <trkpt lat="38.341267" lon="-1.501880">
        <ele>382.3</ele>
        <time>2016-10-30T12:42:48Z</time>
      </trkpt>
      <trkpt lat="38.341266" lon="-1.501915">
        <ele>383.2</ele>
        <time>2016-10-30T12:42:51Z</time>
      </trkpt>
      <trkpt lat="38.341232" lon="-1.502100">
        <ele>382.3</ele>
        <time>2016-10-30T12:43:04Z</time>
      </trkpt>
      <trkpt lat="38.341034" lon="-1.502472">
        <ele>381.8</ele>
        <time>2016-10-30T12:43:25Z</time>
      </trkpt>
      <trkpt lat="38.341145" lon="-1.502819">
        <ele>382.3</ele>
        <time>2016-10-30T12:43:42Z</time>
      </trkpt>
      <trkpt lat="38.341146" lon="-1.502841">
        <ele>382.3</ele>
        <time>2016-10-30T12:43:43Z</time>
      </trkpt>
      <trkpt lat="38.341300" lon="-1.503043">
        <ele>382.7</ele>
        <time>2016-10-30T12:44:00Z</time>
      </trkpt>
      <trkpt lat="38.341448" lon="-1.503151">
        <ele>383.7</ele>
        <time>2016-10-30T12:44:14Z</time>
      </trkpt>
      <trkpt lat="38.342279" lon="-1.504817">
        <ele>399.1</ele>
        <time>2016-10-30T12:46:56Z</time>
      </trkpt>
      <trkpt lat="38.342297" lon="-1.504929">
        <ele>396.2</ele>
        <time>2016-10-30T12:47:03Z</time>
      </trkpt>
      <trkpt lat="38.342322" lon="-1.505020">
        <ele>393.8</ele>
        <time>2016-10-30T12:47:08Z</time>
      </trkpt>
      <trkpt lat="38.342352" lon="-1.505132">
        <ele>392.4</ele>
        <time>2016-10-30T12:47:15Z</time>
      </trkpt>
      <trkpt lat="38.342375" lon="-1.505194">
        <ele>392.4</ele>
        <time>2016-10-30T12:47:19Z</time>
      </trkpt>
      <trkpt lat="38.342441" lon="-1.505461">
        <ele>389.5</ele>
        <time>2016-10-30T12:47:36Z</time>
      </trkpt>
      <trkpt lat="38.342497" lon="-1.505692">
        <ele>388.5</ele>
        <time>2016-10-30T12:47:51Z</time>
      </trkpt>
      <trkpt lat="38.342548" lon="-1.505860">
        <ele>389.5</ele>
        <time>2016-10-30T12:48:01Z</time>
      </trkpt>
      <trkpt lat="38.342617" lon="-1.506127">
        <ele>391.4</ele>
        <time>2016-10-30T12:48:17Z</time>
      </trkpt>
      <trkpt lat="38.342699" lon="-1.506408">
        <ele>392.4</ele>
        <time>2016-10-30T12:48:33Z</time>
      </trkpt>
      <trkpt lat="38.342736" lon="-1.506543">
        <ele>395.7</ele>
        <time>2016-10-30T12:48:41Z</time>
      </trkpt>
      <trkpt lat="38.342737" lon="-1.506560">
        <ele>393.3</ele>
        <time>2016-10-30T12:48:42Z</time>
      </trkpt>
      <trkpt lat="38.342740" lon="-1.506579">
        <ele>393.3</ele>
        <time>2016-10-30T12:48:43Z</time>
      </trkpt>
      <trkpt lat="38.342788" lon="-1.506716">
        <ele>393.8</ele>
        <time>2016-10-30T12:48:53Z</time>
      </trkpt>
      <trkpt lat="38.342812" lon="-1.506847">
        <ele>394.8</ele>
        <time>2016-10-30T12:49:01Z</time>
      </trkpt>
      <trkpt lat="38.342814" lon="-1.506912">
        <ele>394.8</ele>
        <time>2016-10-30T12:49:05Z</time>
      </trkpt>
      <trkpt lat="38.342856" lon="-1.507087">
        <ele>395.2</ele>
        <time>2016-10-30T12:49:16Z</time>
      </trkpt>
      <trkpt lat="38.342838" lon="-1.507205">
        <ele>395.2</ele>
        <time>2016-10-30T12:49:23Z</time>
      </trkpt>
      <trkpt lat="38.342810" lon="-1.507258">
        <ele>394.8</ele>
        <time>2016-10-30T12:49:27Z</time>
      </trkpt>
      <trkpt lat="38.342798" lon="-1.507402">
        <ele>394.8</ele>
        <time>2016-10-30T12:49:42Z</time>
      </trkpt>
      <trkpt lat="38.342834" lon="-1.507511">
        <ele>394.8</ele>
        <time>2016-10-30T12:49:49Z</time>
      </trkpt>
      <trkpt lat="38.342828" lon="-1.507588">
        <ele>394.8</ele>
        <time>2016-10-30T12:49:53Z</time>
      </trkpt>
      <trkpt lat="38.342825" lon="-1.507663">
        <ele>394.8</ele>
        <time>2016-10-30T12:49:58Z</time>
      </trkpt>
      <trkpt lat="38.342832" lon="-1.507703">
        <ele>395.2</ele>
        <time>2016-10-30T12:50:01Z</time>
      </trkpt>
      <trkpt lat="38.342832" lon="-1.507731">
        <ele>394.8</ele>
        <time>2016-10-30T12:50:03Z</time>
      </trkpt>
      <trkpt lat="38.342843" lon="-1.507768">
        <ele>395.7</ele>
        <time>2016-10-30T12:50:06Z</time>
      </trkpt>
      <trkpt lat="38.342849" lon="-1.507856">
        <ele>396.2</ele>
        <time>2016-10-30T12:50:13Z</time>
      </trkpt>
      <trkpt lat="38.342854" lon="-1.507945">
        <ele>397.6</ele>
        <time>2016-10-30T12:50:20Z</time>
      </trkpt>
      <trkpt lat="38.342905" lon="-1.508098">
        <ele>399.1</ele>
        <time>2016-10-30T12:50:32Z</time>
      </trkpt>
      <trkpt lat="38.342924" lon="-1.508121">
        <ele>400.0</ele>
        <time>2016-10-30T12:50:36Z</time>
      </trkpt>
      <trkpt lat="38.342980" lon="-1.508243">
        <ele>402.5</ele>
        <time>2016-10-30T12:50:49Z</time>
      </trkpt>
      <trkpt lat="38.343028" lon="-1.508297">
        <ele>407.3</ele>
        <time>2016-10-30T12:51:01Z</time>
      </trkpt>
      <trkpt lat="38.343033" lon="-1.508304">
        <ele>406.8</ele>
        <time>2016-10-30T12:51:02Z</time>
      </trkpt>
      <trkpt lat="38.343043" lon="-1.508315">
        <ele>404.9</ele>
        <time>2016-10-30T12:51:04Z</time>
      </trkpt>
      <trkpt lat="38.343077" lon="-1.508348">
        <ele>405.3</ele>
        <time>2016-10-30T12:51:18Z</time>
      </trkpt>
      <trkpt lat="38.343104" lon="-1.508382">
        <ele>406.8</ele>
        <time>2016-10-30T12:51:23Z</time>
      </trkpt>
      <trkpt lat="38.343289" lon="-1.508486">
        <ele>408.2</ele>
        <time>2016-10-30T12:51:53Z</time>
      </trkpt>
      <trkpt lat="38.343316" lon="-1.508479">
        <ele>407.7</ele>
        <time>2016-10-30T12:52:01Z</time>
      </trkpt>
      <trkpt lat="38.343391" lon="-1.508496">
        <ele>406.3</ele>
        <time>2016-10-30T12:52:15Z</time>
      </trkpt>
      <trkpt lat="38.343419" lon="-1.508485">
        <ele>405.8</ele>
        <time>2016-10-30T12:52:20Z</time>
      </trkpt>
      <trkpt lat="38.343464" lon="-1.508467">
        <ele>405.8</ele>
        <time>2016-10-30T12:52:25Z</time>
      </trkpt>
      <trkpt lat="38.343521" lon="-1.508477">
        <ele>404.4</ele>
        <time>2016-10-30T12:52:36Z</time>
      </trkpt>
      <trkpt lat="38.343556" lon="-1.508492">
        <ele>403.4</ele>
        <time>2016-10-30T12:52:47Z</time>
      </trkpt>
      <trkpt lat="38.343576" lon="-1.508507">
        <ele>402.9</ele>
        <time>2016-10-30T12:53:04Z</time>
      </trkpt>
      <trkpt lat="38.343646" lon="-1.508528">
        <ele>402.0</ele>
        <time>2016-10-30T12:53:18Z</time>
      </trkpt>
      <trkpt lat="38.343670" lon="-1.508542">
        <ele>400.5</ele>
        <time>2016-10-30T12:53:33Z</time>
      </trkpt>
      <trkpt lat="38.343779" lon="-1.508578">
        <ele>399.6</ele>
        <time>2016-10-30T12:54:41Z</time>
      </trkpt>
      <trkpt lat="38.343837" lon="-1.508683">
        <ele>398.1</ele>
        <time>2016-10-30T12:54:49Z</time>
      </trkpt>
      <trkpt lat="38.343917" lon="-1.508804">
        <ele>396.2</ele>
        <time>2016-10-30T12:55:02Z</time>
      </trkpt>
      <trkpt lat="38.343967" lon="-1.508949">
        <ele>394.8</ele>
        <time>2016-10-30T12:55:31Z</time>
      </trkpt>
      <trkpt lat="38.343977" lon="-1.508981">
        <ele>393.3</ele>
        <time>2016-10-30T12:55:34Z</time>
      </trkpt>
      <trkpt lat="38.344019" lon="-1.509133">
        <ele>391.9</ele>
        <time>2016-10-30T12:55:49Z</time>
      </trkpt>
      <trkpt lat="38.344054" lon="-1.509201">
        <ele>391.9</ele>
        <time>2016-10-30T12:56:06Z</time>
      </trkpt>
      <trkpt lat="38.344064" lon="-1.509223">
        <ele>392.4</ele>
        <time>2016-10-30T12:56:08Z</time>
      </trkpt>
      <trkpt lat="38.344109" lon="-1.509343">
        <ele>390.4</ele>
        <time>2016-10-30T12:56:22Z</time>
      </trkpt>
      <trkpt lat="38.344115" lon="-1.509365">
        <ele>390.4</ele>
        <time>2016-10-30T12:56:24Z</time>
      </trkpt>
      <trkpt lat="38.344157" lon="-1.509422">
        <ele>390.0</ele>
        <time>2016-10-30T12:56:35Z</time>
      </trkpt>
      <trkpt lat="38.344161" lon="-1.509433">
        <ele>390.4</ele>
        <time>2016-10-30T12:56:36Z</time>
      </trkpt>
      <trkpt lat="38.344189" lon="-1.509607">
        <ele>388.5</ele>
        <time>2016-10-30T12:57:00Z</time>
      </trkpt>
      <trkpt lat="38.344197" lon="-1.509618">
        <ele>388.0</ele>
        <time>2016-10-30T12:57:07Z</time>
      </trkpt>
      <trkpt lat="38.344231" lon="-1.509637">
        <ele>388.0</ele>
        <time>2016-10-30T12:57:10Z</time>
      </trkpt>
      <trkpt lat="38.344355" lon="-1.509587">
        <ele>388.0</ele>
        <time>2016-10-30T12:57:17Z</time>
      </trkpt>
      <trkpt lat="38.344513" lon="-1.509550">
        <ele>389.0</ele>
        <time>2016-10-30T12:57:30Z</time>
      </trkpt>
      <trkpt lat="38.344778" lon="-1.509516">
        <ele>389.5</ele>
        <time>2016-10-30T12:57:48Z</time>
      </trkpt>
      <trkpt lat="38.345008" lon="-1.509462">
        <ele>389.5</ele>
        <time>2016-10-30T12:58:03Z</time>
      </trkpt>
      <trkpt lat="38.345251" lon="-1.509439">
        <ele>390.9</ele>
        <time>2016-10-30T12:58:20Z</time>
      </trkpt>
      <trkpt lat="38.345273" lon="-1.509402">
        <ele>390.4</ele>
        <time>2016-10-30T12:58:33Z</time>
      </trkpt>
      <trkpt lat="38.345277" lon="-1.509394">
        <ele>390.9</ele>
        <time>2016-10-30T12:58:49Z</time>
      </trkpt>
      <trkpt lat="38.345379" lon="-1.509393">
        <ele>390.9</ele>
        <time>2016-10-30T12:59:00Z</time>
      </trkpt>
      <trkpt lat="38.345497" lon="-1.509360">
        <ele>391.9</ele>
        <time>2016-10-30T12:59:15Z</time>
      </trkpt>
      <trkpt lat="38.345498" lon="-1.509357">
        <ele>391.9</ele>
        <time>2016-10-30T12:59:16Z</time>
      </trkpt>
      <trkpt lat="38.345701" lon="-1.509356">
        <ele>390.9</ele>
        <time>2016-10-30T12:59:29Z</time>
      </trkpt>
      <trkpt lat="38.345951" lon="-1.509272">
        <ele>391.9</ele>
        <time>2016-10-30T12:59:46Z</time>
      </trkpt>
      <trkpt lat="38.346221" lon="-1.509171">
        <ele>392.8</ele>
        <time>2016-10-30T13:00:06Z</time>
      </trkpt>
      <trkpt lat="38.346341" lon="-1.509128">
        <ele>392.8</ele>
        <time>2016-10-30T13:00:15Z</time>
      </trkpt>
      <trkpt lat="38.346375" lon="-1.509101">
        <ele>392.4</ele>
        <time>2016-10-30T13:00:20Z</time>
      </trkpt>
      <trkpt lat="38.346463" lon="-1.509070">
        <ele>392.4</ele>
        <time>2016-10-30T13:00:36Z</time>
      </trkpt>
      <trkpt lat="38.346576" lon="-1.509039">
        <ele>391.9</ele>
        <time>2016-10-30T13:00:44Z</time>
      </trkpt>
      <trkpt lat="38.346833" lon="-1.508979">
        <ele>392.8</ele>
        <time>2016-10-30T13:01:02Z</time>
      </trkpt>
      <trkpt lat="38.347122" lon="-1.508906">
        <ele>391.4</ele>
        <time>2016-10-30T13:01:21Z</time>
      </trkpt>
      <trkpt lat="38.347280" lon="-1.508828">
        <ele>392.4</ele>
        <time>2016-10-30T13:01:34Z</time>
      </trkpt>
      <trkpt lat="38.347562" lon="-1.508712">
        <ele>392.4</ele>
        <time>2016-10-30T13:01:54Z</time>
      </trkpt>
      <trkpt lat="38.347785" lon="-1.508602">
        <ele>392.8</ele>
        <time>2016-10-30T13:02:11Z</time>
      </trkpt>
      <trkpt lat="38.348031" lon="-1.508446">
        <ele>392.8</ele>
        <time>2016-10-30T13:02:32Z</time>
      </trkpt>
      <trkpt lat="38.348043" lon="-1.508437">
        <ele>392.4</ele>
        <time>2016-10-30T13:02:33Z</time>
      </trkpt>
      <trkpt lat="38.348222" lon="-1.508328">
        <ele>392.4</ele>
        <time>2016-10-30T13:02:48Z</time>
      </trkpt>
      <trkpt lat="38.348241" lon="-1.508309">
        <ele>392.8</ele>
        <time>2016-10-30T13:02:50Z</time>
      </trkpt>
      <trkpt lat="38.348344" lon="-1.508279">
        <ele>392.8</ele>
        <time>2016-10-30T13:03:04Z</time>
      </trkpt>
      <trkpt lat="38.348351" lon="-1.508278">
        <ele>392.8</ele>
        <time>2016-10-30T13:03:05Z</time>
      </trkpt>
      <trkpt lat="38.348500" lon="-1.508183">
        <ele>394.3</ele>
        <time>2016-10-30T13:03:21Z</time>
      </trkpt>
      <trkpt lat="38.348536" lon="-1.508159">
        <ele>394.3</ele>
        <time>2016-10-30T13:03:25Z</time>
      </trkpt>
      <trkpt lat="38.348607" lon="-1.508131">
        <ele>394.8</ele>
        <time>2016-10-30T13:03:31Z</time>
      </trkpt>
      <trkpt lat="38.348827" lon="-1.508050">
        <ele>395.2</ele>
        <time>2016-10-30T13:03:49Z</time>
      </trkpt>
      <trkpt lat="38.349048" lon="-1.508088">
        <ele>395.2</ele>
        <time>2016-10-30T13:04:06Z</time>
      </trkpt>
      <trkpt lat="38.349270" lon="-1.508178">
        <ele>395.7</ele>
        <time>2016-10-30T13:04:23Z</time>
      </trkpt>
      <trkpt lat="38.349488" lon="-1.508358">
        <ele>395.7</ele>
        <time>2016-10-30T13:04:42Z</time>
      </trkpt>
      <trkpt lat="38.349647" lon="-1.508583">
        <ele>393.8</ele>
        <time>2016-10-30T13:05:00Z</time>
      </trkpt>
      <trkpt lat="38.349827" lon="-1.508810">
        <ele>391.4</ele>
        <time>2016-10-30T13:05:18Z</time>
      </trkpt>
      <trkpt lat="38.350002" lon="-1.509005">
        <ele>389.5</ele>
        <time>2016-10-30T13:05:36Z</time>
      </trkpt>
      <trkpt lat="38.350183" lon="-1.509233">
        <ele>388.5</ele>
        <time>2016-10-30T13:05:54Z</time>
      </trkpt>
      <trkpt lat="38.350319" lon="-1.509365">
        <ele>390.0</ele>
        <time>2016-10-30T13:06:07Z</time>
      </trkpt>
      <trkpt lat="38.350431" lon="-1.509449">
        <ele>391.4</ele>
        <time>2016-10-30T13:06:17Z</time>
      </trkpt>
      <trkpt lat="38.350480" lon="-1.509476">
        <ele>391.9</ele>
        <time>2016-10-30T13:06:21Z</time>
      </trkpt>
      <trkpt lat="38.350627" lon="-1.509659">
        <ele>392.4</ele>
        <time>2016-10-30T13:06:37Z</time>
      </trkpt>
      <trkpt lat="38.350815" lon="-1.509804">
        <ele>395.2</ele>
        <time>2016-10-30T13:06:55Z</time>
      </trkpt>
      <trkpt lat="38.350945" lon="-1.509853">
        <ele>394.3</ele>
        <time>2016-10-30T13:07:05Z</time>
      </trkpt>
      <trkpt lat="38.351085" lon="-1.509909">
        <ele>394.8</ele>
        <time>2016-10-30T13:07:18Z</time>
      </trkpt>
      <trkpt lat="38.351145" lon="-1.509957">
        <ele>395.2</ele>
        <time>2016-10-30T13:07:23Z</time>
      </trkpt>
      <trkpt lat="38.351268" lon="-1.510062">
        <ele>395.2</ele>
        <time>2016-10-30T13:07:34Z</time>
      </trkpt>
      <trkpt lat="38.351454" lon="-1.510189">
        <ele>396.2</ele>
        <time>2016-10-30T13:07:50Z</time>
      </trkpt>
      <trkpt lat="38.351662" lon="-1.510322">
        <ele>397.2</ele>
        <time>2016-10-30T13:08:08Z</time>
      </trkpt>
      <trkpt lat="38.351764" lon="-1.510395">
        <ele>397.6</ele>
        <time>2016-10-30T13:08:17Z</time>
      </trkpt>
      <trkpt lat="38.351875" lon="-1.510473">
        <ele>398.1</ele>
        <time>2016-10-30T13:08:27Z</time>
      </trkpt>
      <trkpt lat="38.352109" lon="-1.510599">
        <ele>399.6</ele>
        <time>2016-10-30T13:08:46Z</time>
      </trkpt>
      <trkpt lat="38.352141" lon="-1.510605">
        <ele>400.0</ele>
        <time>2016-10-30T13:08:49Z</time>
      </trkpt>
      <trkpt lat="38.352322" lon="-1.510596">
        <ele>401.5</ele>
        <time>2016-10-30T13:09:03Z</time>
      </trkpt>
      <trkpt lat="38.352537" lon="-1.510632">
        <ele>402.0</ele>
        <time>2016-10-30T13:09:19Z</time>
      </trkpt>
      <trkpt lat="38.352652" lon="-1.510640">
        <ele>402.5</ele>
        <time>2016-10-30T13:09:28Z</time>
      </trkpt>
      <trkpt lat="38.352757" lon="-1.510647">
        <ele>402.5</ele>
        <time>2016-10-30T13:09:36Z</time>
      </trkpt>
      <trkpt lat="38.352965" lon="-1.510603">
        <ele>404.4</ele>
        <time>2016-10-30T13:09:53Z</time>
      </trkpt>
      <trkpt lat="38.353207" lon="-1.510741">
        <ele>403.9</ele>
        <time>2016-10-30T13:10:11Z</time>
      </trkpt>
      <trkpt lat="38.353396" lon="-1.510990">
        <ele>403.4</ele>
        <time>2016-10-30T13:10:32Z</time>
      </trkpt>
      <trkpt lat="38.353566" lon="-1.511166">
        <ele>403.4</ele>
        <time>2016-10-30T13:10:49Z</time>
      </trkpt>
      <trkpt lat="38.353769" lon="-1.511407">
        <ele>403.4</ele>
        <time>2016-10-30T13:11:08Z</time>
      </trkpt>
      <trkpt lat="38.353865" lon="-1.511712">
        <ele>402.9</ele>
        <time>2016-10-30T13:11:26Z</time>
      </trkpt>
      <trkpt lat="38.354002" lon="-1.511925">
        <ele>403.9</ele>
        <time>2016-10-30T13:11:43Z</time>
      </trkpt>
      <trkpt lat="38.354184" lon="-1.512093">
        <ele>404.9</ele>
        <time>2016-10-30T13:12:00Z</time>
      </trkpt>
      <trkpt lat="38.354396" lon="-1.512270">
        <ele>404.9</ele>
        <time>2016-10-30T13:12:19Z</time>
      </trkpt>
      <trkpt lat="38.354603" lon="-1.512411">
        <ele>405.3</ele>
        <time>2016-10-30T13:12:36Z</time>
      </trkpt>
      <trkpt lat="38.354820" lon="-1.512573">
        <ele>405.3</ele>
        <time>2016-10-30T13:12:54Z</time>
      </trkpt>
      <trkpt lat="38.354986" lon="-1.512688">
        <ele>405.8</ele>
        <time>2016-10-30T13:13:08Z</time>
      </trkpt>
      <trkpt lat="38.355265" lon="-1.512806">
        <ele>404.9</ele>
        <time>2016-10-30T13:14:22Z</time>
      </trkpt>
      <trkpt lat="38.355528" lon="-1.512992">
        <ele>404.9</ele>
        <time>2016-10-30T13:15:31Z</time>
      </trkpt>
      <trkpt lat="38.355694" lon="-1.513135">
        <ele>403.4</ele>
        <time>2016-10-30T13:15:47Z</time>
      </trkpt>
      <trkpt lat="38.355882" lon="-1.513318">
        <ele>402.9</ele>
        <time>2016-10-30T13:16:05Z</time>
      </trkpt>
      <trkpt lat="38.356051" lon="-1.513453">
        <ele>403.4</ele>
        <time>2016-10-30T13:16:19Z</time>
      </trkpt>
      <trkpt lat="38.356065" lon="-1.513461">
        <ele>403.4</ele>
        <time>2016-10-30T13:16:20Z</time>
      </trkpt>
      <trkpt lat="38.356116" lon="-1.513524">
        <ele>403.4</ele>
        <time>2016-10-30T13:16:25Z</time>
      </trkpt>
      <trkpt lat="38.356223" lon="-1.513652">
        <ele>402.9</ele>
        <time>2016-10-30T13:16:36Z</time>
      </trkpt>
      <trkpt lat="38.356319" lon="-1.513740">
        <ele>403.4</ele>
        <time>2016-10-30T13:16:45Z</time>
      </trkpt>
      <trkpt lat="38.356398" lon="-1.513806">
        <ele>404.4</ele>
        <time>2016-10-30T13:16:52Z</time>
      </trkpt>
      <trkpt lat="38.356474" lon="-1.513870">
        <ele>405.3</ele>
        <time>2016-10-30T13:16:59Z</time>
      </trkpt>
      <trkpt lat="38.356632" lon="-1.513984">
        <ele>405.8</ele>
        <time>2016-10-30T13:17:13Z</time>
      </trkpt>
      <trkpt lat="38.356726" lon="-1.514056">
        <ele>407.3</ele>
        <time>2016-10-30T13:17:21Z</time>
      </trkpt>
      <trkpt lat="38.356887" lon="-1.514175">
        <ele>407.7</ele>
        <time>2016-10-30T13:17:37Z</time>
      </trkpt>
      <trkpt lat="38.357008" lon="-1.514267">
        <ele>410.1</ele>
        <time>2016-10-30T13:17:49Z</time>
      </trkpt>
      <trkpt lat="38.357156" lon="-1.514381">
        <ele>412.5</ele>
        <time>2016-10-30T13:18:06Z</time>
      </trkpt>
      <trkpt lat="38.357304" lon="-1.514500">
        <ele>414.5</ele>
        <time>2016-10-30T13:18:21Z</time>
      </trkpt>
      <trkpt lat="38.357369" lon="-1.514555">
        <ele>417.8</ele>
        <time>2016-10-30T13:18:28Z</time>
      </trkpt>
      <trkpt lat="38.357469" lon="-1.514637">
        <ele>418.8</ele>
        <time>2016-10-30T13:18:42Z</time>
      </trkpt>
      <trkpt lat="38.357541" lon="-1.514702">
        <ele>418.8</ele>
        <time>2016-10-30T13:18:53Z</time>
      </trkpt>
      <trkpt lat="38.357675" lon="-1.514884">
        <ele>418.3</ele>
        <time>2016-10-30T13:19:21Z</time>
      </trkpt>
      <trkpt lat="38.357702" lon="-1.514905">
        <ele>417.8</ele>
        <time>2016-10-30T13:19:24Z</time>
      </trkpt>
      <trkpt lat="38.357890" lon="-1.515078">
        <ele>418.3</ele>
        <time>2016-10-30T13:19:42Z</time>
      </trkpt>
      <trkpt lat="38.358153" lon="-1.515390">
        <ele>420.2</ele>
        <time>2016-10-30T13:20:38Z</time>
      </trkpt>
      <trkpt lat="38.358161" lon="-1.515429">
        <ele>420.2</ele>
        <time>2016-10-30T13:20:40Z</time>
      </trkpt>
      <trkpt lat="38.358245" lon="-1.515574">
        <ele>421.2</ele>
        <time>2016-10-30T13:20:53Z</time>
      </trkpt>
      <trkpt lat="38.358422" lon="-1.515845">
        <ele>420.7</ele>
        <time>2016-10-30T13:21:11Z</time>
      </trkpt>
      <trkpt lat="38.358664" lon="-1.516080">
        <ele>418.8</ele>
        <time>2016-10-30T13:21:31Z</time>
      </trkpt>
      <trkpt lat="38.358888" lon="-1.516260">
        <ele>418.3</ele>
        <time>2016-10-30T13:21:49Z</time>
      </trkpt>
      <trkpt lat="38.359146" lon="-1.516554">
        <ele>416.4</ele>
        <time>2016-10-30T13:22:12Z</time>
      </trkpt>
      <trkpt lat="38.359297" lon="-1.516747">
        <ele>416.4</ele>
        <time>2016-10-30T13:22:29Z</time>
      </trkpt>
      <trkpt lat="38.359296" lon="-1.516746">
        <ele>416.4</ele>
        <time>2016-10-30T13:22:30Z</time>
      </trkpt>
      <trkpt lat="38.359345" lon="-1.516784">
        <ele>416.4</ele>
        <time>2016-10-30T13:22:34Z</time>
      </trkpt>
      <trkpt lat="38.359408" lon="-1.516875">
        <ele>415.9</ele>
        <time>2016-10-30T13:22:41Z</time>
      </trkpt>
      <trkpt lat="38.359409" lon="-1.516884">
        <ele>415.9</ele>
        <time>2016-10-30T13:23:11Z</time>
      </trkpt>
      <trkpt lat="38.359626" lon="-1.517150">
        <ele>414.5</ele>
        <time>2016-10-30T13:23:31Z</time>
      </trkpt>
      <trkpt lat="38.359686" lon="-1.517233">
        <ele>415.0</ele>
        <time>2016-10-30T13:23:37Z</time>
      </trkpt>
      <trkpt lat="38.359907" lon="-1.517514">
        <ele>414.5</ele>
        <time>2016-10-30T13:23:58Z</time>
      </trkpt>
      <trkpt lat="38.360122" lon="-1.517836">
        <ele>413.5</ele>
        <time>2016-10-30T13:24:20Z</time>
      </trkpt>
      <trkpt lat="38.360312" lon="-1.518126">
        <ele>413.5</ele>
        <time>2016-10-30T13:24:40Z</time>
      </trkpt>
      <trkpt lat="38.360500" lon="-1.518383">
        <ele>413.0</ele>
        <time>2016-10-30T13:24:59Z</time>
      </trkpt>
      <trkpt lat="38.360567" lon="-1.518527">
        <ele>414.0</ele>
        <time>2016-10-30T13:25:08Z</time>
      </trkpt>
      <trkpt lat="38.360587" lon="-1.518545">
        <ele>413.0</ele>
        <time>2016-10-30T13:25:23Z</time>
      </trkpt>
      <trkpt lat="38.360760" lon="-1.518720">
        <ele>413.5</ele>
        <time>2016-10-30T13:25:49Z</time>
      </trkpt>
      <trkpt lat="38.360914" lon="-1.518918">
        <ele>414.0</ele>
        <time>2016-10-30T13:26:04Z</time>
      </trkpt>
      <trkpt lat="38.361103" lon="-1.519185">
        <ele>414.5</ele>
        <time>2016-10-30T13:26:24Z</time>
      </trkpt>
      <trkpt lat="38.361334" lon="-1.519508">
        <ele>414.0</ele>
        <time>2016-10-30T13:26:47Z</time>
      </trkpt>
      <trkpt lat="38.361534" lon="-1.519836">
        <ele>413.5</ele>
        <time>2016-10-30T13:27:09Z</time>
      </trkpt>
      <trkpt lat="38.361666" lon="-1.520186">
        <ele>412.5</ele>
        <time>2016-10-30T13:27:28Z</time>
      </trkpt>
      <trkpt lat="38.361738" lon="-1.520414">
        <ele>412.5</ele>
        <time>2016-10-30T13:27:41Z</time>
      </trkpt>
      <trkpt lat="38.361785" lon="-1.520607">
        <ele>412.1</ele>
        <time>2016-10-30T13:27:58Z</time>
      </trkpt>
      <trkpt lat="38.361830" lon="-1.520701">
        <ele>412.1</ele>
        <time>2016-10-30T13:28:06Z</time>
      </trkpt>
      <trkpt lat="38.361884" lon="-1.520867">
        <ele>411.6</ele>
        <time>2016-10-30T13:28:14Z</time>
      </trkpt>
    </trkseg>
  </trk>
</gpx>
